<?xml version="1.0" encoding="UTF-8" standalone="no" ?>
<gpx xmlns="http://www.topografix.com/GPX/1/1" xmlns:xsi="http://www.w3.org/2001/XMLSchema-instance" xsi:schemaLocation="http://www.topografix.com/GPX/1/1 http://www.topografix.com/GPX/1/1/gpx.xsd" version="1.1" creator="VisuGPX - https://www.visugpx.com">
  <metadata>
    <name>Le vernois dans le froid</name>
    <desc><![CDATA[Le vernois dans le froid Le vernois dans le froid Le vernois dans le froid]]></desc>
  </metadata>
  <trk>
    <name><![CDATA[18 Rue Antoine Coysevox]]></name>
    <desc><![CDATA[]]></desc>
    <trkseg>
      <trkpt lat="47.51802" lon="6.77457">
        <ele>388</ele>
        <time>2016-12-11T08:12:30.717Z</time>
      </trkpt>
      <trkpt lat="47.51807" lon="6.77487">
        <ele>388</ele>
        <time>2016-12-11T08:12:32.711Z</time>
      </trkpt>
      <trkpt lat="47.51807" lon="6.77487">
        <ele>388</ele>
        <time>2016-12-11T08:12:43.716Z</time>
      </trkpt>
      <trkpt lat="47.51804" lon="6.77473">
        <ele>388</ele>
        <time>2016-12-11T08:12:44.716Z</time>
      </trkpt>
      <trkpt lat="47.518" lon="6.77474">
        <ele>388</ele>
        <time>2016-12-11T08:19:18.999Z</time>
      </trkpt>
      <trkpt lat="47.51799" lon="6.77477">
        <ele>388</ele>
        <time>2016-12-11T08:19:19.999Z</time>
      </trkpt>
      <trkpt lat="47.51803" lon="6.77477">
        <ele>388</ele>
        <time>2016-12-11T08:19:24.999Z</time>
      </trkpt>
      <trkpt lat="47.51805" lon="6.7748">
        <ele>388</ele>
        <time>2016-12-11T08:19:25.999Z</time>
      </trkpt>
      <trkpt lat="47.51806" lon="6.77484">
        <ele>388</ele>
        <time>2016-12-11T08:19:26.999Z</time>
      </trkpt>
      <trkpt lat="47.51806" lon="6.77487">
        <ele>388</ele>
        <time>2016-12-11T08:19:27.999Z</time>
      </trkpt>
      <trkpt lat="47.51804" lon="6.77495">
        <ele>388</ele>
        <time>2016-12-11T08:19:28.999Z</time>
      </trkpt>
      <trkpt lat="47.51803" lon="6.77498">
        <ele>388</ele>
        <time>2016-12-11T08:19:29.999Z</time>
      </trkpt>
      <trkpt lat="47.51801" lon="6.775">
        <ele>388</ele>
        <time>2016-12-11T08:19:30.999Z</time>
      </trkpt>
      <trkpt lat="47.51798" lon="6.77498">
        <ele>388</ele>
        <time>2016-12-11T08:19:31.999Z</time>
      </trkpt>
      <trkpt lat="47.51795" lon="6.77495">
        <ele>388</ele>
        <time>2016-12-11T08:19:32.999Z</time>
      </trkpt>
      <trkpt lat="47.51792" lon="6.77493">
        <ele>388</ele>
        <time>2016-12-11T08:19:33.999Z</time>
      </trkpt>
      <trkpt lat="47.51788" lon="6.77491">
        <ele>388</ele>
        <time>2016-12-11T08:19:34.999Z</time>
      </trkpt>
      <trkpt lat="47.51785" lon="6.77489">
        <ele>388</ele>
        <time>2016-12-11T08:19:35.999Z</time>
      </trkpt>
      <trkpt lat="47.5178" lon="6.77486">
        <ele>388</ele>
        <time>2016-12-11T08:19:36.999Z</time>
      </trkpt>
      <trkpt lat="47.51776" lon="6.77485">
        <ele>388</ele>
        <time>2016-12-11T08:19:37.999Z</time>
      </trkpt>
      <trkpt lat="47.51773" lon="6.77485">
        <ele>388</ele>
        <time>2016-12-11T08:19:38.999Z</time>
      </trkpt>
      <trkpt lat="47.51769" lon="6.77484">
        <ele>389</ele>
        <time>2016-12-11T08:19:39.999Z</time>
      </trkpt>
      <trkpt lat="47.51764" lon="6.77483">
        <ele>389</ele>
        <time>2016-12-11T08:19:40.999Z</time>
      </trkpt>
      <trkpt lat="47.5176" lon="6.77482">
        <ele>389</ele>
        <time>2016-12-11T08:19:41.999Z</time>
      </trkpt>
      <trkpt lat="47.51755" lon="6.7748">
        <ele>389</ele>
        <time>2016-12-11T08:19:42.999Z</time>
      </trkpt>
      <trkpt lat="47.5175" lon="6.7748">
        <ele>389</ele>
        <time>2016-12-11T08:19:43.999Z</time>
      </trkpt>
      <trkpt lat="47.51746" lon="6.77479">
        <ele>389</ele>
        <time>2016-12-11T08:19:44.999Z</time>
      </trkpt>
      <trkpt lat="47.51742" lon="6.77479">
        <ele>389</ele>
        <time>2016-12-11T08:19:45.999Z</time>
      </trkpt>
      <trkpt lat="47.51739" lon="6.7748">
        <ele>389</ele>
        <time>2016-12-11T08:19:46.999Z</time>
      </trkpt>
      <trkpt lat="47.51736" lon="6.77483">
        <ele>389</ele>
        <time>2016-12-11T08:19:47.999Z</time>
      </trkpt>
      <trkpt lat="47.51734" lon="6.77486">
        <ele>389</ele>
        <time>2016-12-11T08:19:48.999Z</time>
      </trkpt>
      <trkpt lat="47.51732" lon="6.77491">
        <ele>389</ele>
        <time>2016-12-11T08:19:49.999Z</time>
      </trkpt>
      <trkpt lat="47.5173" lon="6.77497">
        <ele>389</ele>
        <time>2016-12-11T08:19:50.999Z</time>
      </trkpt>
      <trkpt lat="47.51727" lon="6.77505">
        <ele>390</ele>
        <time>2016-12-11T08:19:51.999Z</time>
      </trkpt>
      <trkpt lat="47.51725" lon="6.77513">
        <ele>390</ele>
        <time>2016-12-11T08:19:52.999Z</time>
      </trkpt>
      <trkpt lat="47.51723" lon="6.77519">
        <ele>390</ele>
        <time>2016-12-11T08:19:53.999Z</time>
      </trkpt>
      <trkpt lat="47.51721" lon="6.77525">
        <ele>390</ele>
        <time>2016-12-11T08:19:54.999Z</time>
      </trkpt>
      <trkpt lat="47.51718" lon="6.77531">
        <ele>390</ele>
        <time>2016-12-11T08:19:55.999Z</time>
      </trkpt>
      <trkpt lat="47.51716" lon="6.77537">
        <ele>390</ele>
        <time>2016-12-11T08:19:56.999Z</time>
      </trkpt>
      <trkpt lat="47.51715" lon="6.77541">
        <ele>390</ele>
        <time>2016-12-11T08:19:57.999Z</time>
      </trkpt>
      <trkpt lat="47.51713" lon="6.77545">
        <ele>390</ele>
        <time>2016-12-11T08:19:58.999Z</time>
      </trkpt>
      <trkpt lat="47.5171" lon="6.77547">
        <ele>390</ele>
        <time>2016-12-11T08:19:59.999Z</time>
      </trkpt>
      <trkpt lat="47.51707" lon="6.77546">
        <ele>390</ele>
        <time>2016-12-11T08:20:00.999Z</time>
      </trkpt>
      <trkpt lat="47.51703" lon="6.77544">
        <ele>390</ele>
        <time>2016-12-11T08:20:01.999Z</time>
      </trkpt>
      <trkpt lat="47.51699" lon="6.77541">
        <ele>390</ele>
        <time>2016-12-11T08:20:02.999Z</time>
      </trkpt>
      <trkpt lat="47.51696" lon="6.77538">
        <ele>390</ele>
        <time>2016-12-11T08:20:03.999Z</time>
      </trkpt>
      <trkpt lat="47.5169" lon="6.77533">
        <ele>390</ele>
        <time>2016-12-11T08:20:04.999Z</time>
      </trkpt>
      <trkpt lat="47.51685" lon="6.77529">
        <ele>390</ele>
        <time>2016-12-11T08:20:05.999Z</time>
      </trkpt>
      <trkpt lat="47.5168" lon="6.77523">
        <ele>390</ele>
        <time>2016-12-11T08:20:06.999Z</time>
      </trkpt>
      <trkpt lat="47.51675" lon="6.77518">
        <ele>389</ele>
        <time>2016-12-11T08:20:07.999Z</time>
      </trkpt>
      <trkpt lat="47.5167" lon="6.77513">
        <ele>389</ele>
        <time>2016-12-11T08:20:08.999Z</time>
      </trkpt>
      <trkpt lat="47.51666" lon="6.77508">
        <ele>388</ele>
        <time>2016-12-11T08:20:09.999Z</time>
      </trkpt>
      <trkpt lat="47.51661" lon="6.77502">
        <ele>389</ele>
        <time>2016-12-11T08:20:10.999Z</time>
      </trkpt>
      <trkpt lat="47.51657" lon="6.77497">
        <ele>388</ele>
        <time>2016-12-11T08:20:11.999Z</time>
      </trkpt>
      <trkpt lat="47.51652" lon="6.7749">
        <ele>387</ele>
        <time>2016-12-11T08:20:12.999Z</time>
      </trkpt>
      <trkpt lat="47.51646" lon="6.77485">
        <ele>387</ele>
        <time>2016-12-11T08:20:13.999Z</time>
      </trkpt>
      <trkpt lat="47.51641" lon="6.77479">
        <ele>387</ele>
        <time>2016-12-11T08:20:14.999Z</time>
      </trkpt>
      <trkpt lat="47.51636" lon="6.77473">
        <ele>386</ele>
        <time>2016-12-11T08:20:15.999Z</time>
      </trkpt>
      <trkpt lat="47.51631" lon="6.77466">
        <ele>386</ele>
        <time>2016-12-11T08:20:16.999Z</time>
      </trkpt>
      <trkpt lat="47.51625" lon="6.7746">
        <ele>386</ele>
        <time>2016-12-11T08:20:17.999Z</time>
      </trkpt>
      <trkpt lat="47.5162" lon="6.77453">
        <ele>386</ele>
        <time>2016-12-11T08:20:18.999Z</time>
      </trkpt>
      <trkpt lat="47.51615" lon="6.77448">
        <ele>385</ele>
        <time>2016-12-11T08:20:19.999Z</time>
      </trkpt>
      <trkpt lat="47.51611" lon="6.77442">
        <ele>385</ele>
        <time>2016-12-11T08:20:20.999Z</time>
      </trkpt>
      <trkpt lat="47.51606" lon="6.77436">
        <ele>385</ele>
        <time>2016-12-11T08:20:21.999Z</time>
      </trkpt>
      <trkpt lat="47.51601" lon="6.7743">
        <ele>385</ele>
        <time>2016-12-11T08:20:22.999Z</time>
      </trkpt>
      <trkpt lat="47.51596" lon="6.77424">
        <ele>384</ele>
        <time>2016-12-11T08:20:23.999Z</time>
      </trkpt>
      <trkpt lat="47.51591" lon="6.77418">
        <ele>384</ele>
        <time>2016-12-11T08:20:24.999Z</time>
      </trkpt>
      <trkpt lat="47.51585" lon="6.77411">
        <ele>383</ele>
        <time>2016-12-11T08:20:25.999Z</time>
      </trkpt>
      <trkpt lat="47.5158" lon="6.77405">
        <ele>382</ele>
        <time>2016-12-11T08:20:26.999Z</time>
      </trkpt>
      <trkpt lat="47.51573" lon="6.77398">
        <ele>382</ele>
        <time>2016-12-11T08:20:27.999Z</time>
      </trkpt>
      <trkpt lat="47.51567" lon="6.77391">
        <ele>381</ele>
        <time>2016-12-11T08:20:28.999Z</time>
      </trkpt>
      <trkpt lat="47.51562" lon="6.77385">
        <ele>381</ele>
        <time>2016-12-11T08:20:29.999Z</time>
      </trkpt>
      <trkpt lat="47.51556" lon="6.77377">
        <ele>381</ele>
        <time>2016-12-11T08:20:30.999Z</time>
      </trkpt>
      <trkpt lat="47.5155" lon="6.7737">
        <ele>381</ele>
        <time>2016-12-11T08:20:31.999Z</time>
      </trkpt>
      <trkpt lat="47.51544" lon="6.77363">
        <ele>380</ele>
        <time>2016-12-11T08:20:32.999Z</time>
      </trkpt>
      <trkpt lat="47.51537" lon="6.77355">
        <ele>380</ele>
        <time>2016-12-11T08:20:33.999Z</time>
      </trkpt>
      <trkpt lat="47.51531" lon="6.77348">
        <ele>380</ele>
        <time>2016-12-11T08:20:34.999Z</time>
      </trkpt>
      <trkpt lat="47.51525" lon="6.7734">
        <ele>380</ele>
        <time>2016-12-11T08:20:35.999Z</time>
      </trkpt>
      <trkpt lat="47.51519" lon="6.77333">
        <ele>378</ele>
        <time>2016-12-11T08:20:36.999Z</time>
      </trkpt>
      <trkpt lat="47.51512" lon="6.77325">
        <ele>378</ele>
        <time>2016-12-11T08:20:37.999Z</time>
      </trkpt>
      <trkpt lat="47.51504" lon="6.77316">
        <ele>378</ele>
        <time>2016-12-11T08:20:38.999Z</time>
      </trkpt>
      <trkpt lat="47.51498" lon="6.77304">
        <ele>377</ele>
        <time>2016-12-11T08:20:39.999Z</time>
      </trkpt>
      <trkpt lat="47.51494" lon="6.77294">
        <ele>377</ele>
        <time>2016-12-11T08:20:40.999Z</time>
      </trkpt>
      <trkpt lat="47.51491" lon="6.77281">
        <ele>377</ele>
        <time>2016-12-11T08:20:41.999Z</time>
      </trkpt>
      <trkpt lat="47.51489" lon="6.7727">
        <ele>376</ele>
        <time>2016-12-11T08:20:42.999Z</time>
      </trkpt>
      <trkpt lat="47.51488" lon="6.77259">
        <ele>376</ele>
        <time>2016-12-11T08:20:43.999Z</time>
      </trkpt>
      <trkpt lat="47.51487" lon="6.77248">
        <ele>376</ele>
        <time>2016-12-11T08:20:44.999Z</time>
      </trkpt>
      <trkpt lat="47.51486" lon="6.77239">
        <ele>375</ele>
        <time>2016-12-11T08:20:45.999Z</time>
      </trkpt>
      <trkpt lat="47.51486" lon="6.7723">
        <ele>375</ele>
        <time>2016-12-11T08:20:46.999Z</time>
      </trkpt>
      <trkpt lat="47.51486" lon="6.77221">
        <ele>375</ele>
        <time>2016-12-11T08:20:47.999Z</time>
      </trkpt>
      <trkpt lat="47.51485" lon="6.77212">
        <ele>375</ele>
        <time>2016-12-11T08:20:48.999Z</time>
      </trkpt>
      <trkpt lat="47.51482" lon="6.77205">
        <ele>375</ele>
        <time>2016-12-11T08:20:49.999Z</time>
      </trkpt>
      <trkpt lat="47.51479" lon="6.77201">
        <ele>375</ele>
        <time>2016-12-11T08:20:50.999Z</time>
      </trkpt>
      <trkpt lat="47.51475" lon="6.77201">
        <ele>375</ele>
        <time>2016-12-11T08:20:51.999Z</time>
      </trkpt>
      <trkpt lat="47.5147" lon="6.77202">
        <ele>375</ele>
        <time>2016-12-11T08:20:52.999Z</time>
      </trkpt>
      <trkpt lat="47.51463" lon="6.77205">
        <ele>375</ele>
        <time>2016-12-11T08:20:53.999Z</time>
      </trkpt>
      <trkpt lat="47.51455" lon="6.77208">
        <ele>375</ele>
        <time>2016-12-11T08:20:54.999Z</time>
      </trkpt>
      <trkpt lat="47.51448" lon="6.77211">
        <ele>375</ele>
        <time>2016-12-11T08:20:55.999Z</time>
      </trkpt>
      <trkpt lat="47.51442" lon="6.77214">
        <ele>375</ele>
        <time>2016-12-11T08:20:56.999Z</time>
      </trkpt>
      <trkpt lat="47.51435" lon="6.77217">
        <ele>375</ele>
        <time>2016-12-11T08:20:57.999Z</time>
      </trkpt>
      <trkpt lat="47.51427" lon="6.7722">
        <ele>375</ele>
        <time>2016-12-11T08:20:58.999Z</time>
      </trkpt>
      <trkpt lat="47.51421" lon="6.77223">
        <ele>375</ele>
        <time>2016-12-11T08:20:59.999Z</time>
      </trkpt>
      <trkpt lat="47.51415" lon="6.77226">
        <ele>376</ele>
        <time>2016-12-11T08:21:00.999Z</time>
      </trkpt>
      <trkpt lat="47.51409" lon="6.77229">
        <ele>376</ele>
        <time>2016-12-11T08:21:01.999Z</time>
      </trkpt>
      <trkpt lat="47.51403" lon="6.77232">
        <ele>376</ele>
        <time>2016-12-11T08:21:02.999Z</time>
      </trkpt>
      <trkpt lat="47.51398" lon="6.77234">
        <ele>376</ele>
        <time>2016-12-11T08:21:03.999Z</time>
      </trkpt>
      <trkpt lat="47.51393" lon="6.77237">
        <ele>376</ele>
        <time>2016-12-11T08:21:04.999Z</time>
      </trkpt>
      <trkpt lat="47.51388" lon="6.77239">
        <ele>376</ele>
        <time>2016-12-11T08:21:05.999Z</time>
      </trkpt>
      <trkpt lat="47.51383" lon="6.77243">
        <ele>376</ele>
        <time>2016-12-11T08:21:06.999Z</time>
      </trkpt>
      <trkpt lat="47.51378" lon="6.77246">
        <ele>376</ele>
        <time>2016-12-11T08:21:07.999Z</time>
      </trkpt>
      <trkpt lat="47.51375" lon="6.77249">
        <ele>376</ele>
        <time>2016-12-11T08:21:08.999Z</time>
      </trkpt>
      <trkpt lat="47.51371" lon="6.77252">
        <ele>377</ele>
        <time>2016-12-11T08:21:09.999Z</time>
      </trkpt>
      <trkpt lat="47.51368" lon="6.77254">
        <ele>378</ele>
        <time>2016-12-11T08:21:10.999Z</time>
      </trkpt>
      <trkpt lat="47.51364" lon="6.77257">
        <ele>378</ele>
        <time>2016-12-11T08:21:11.999Z</time>
      </trkpt>
      <trkpt lat="47.51361" lon="6.77261">
        <ele>378</ele>
        <time>2016-12-11T08:21:12.999Z</time>
      </trkpt>
      <trkpt lat="47.51357" lon="6.77264">
        <ele>378</ele>
        <time>2016-12-11T08:21:13.999Z</time>
      </trkpt>
      <trkpt lat="47.51354" lon="6.77266">
        <ele>378</ele>
        <time>2016-12-11T08:21:14.999Z</time>
      </trkpt>
      <trkpt lat="47.51352" lon="6.77269">
        <ele>378</ele>
        <time>2016-12-11T08:21:15.999Z</time>
      </trkpt>
      <trkpt lat="47.51349" lon="6.77272">
        <ele>378</ele>
        <time>2016-12-11T08:21:16.999Z</time>
      </trkpt>
      <trkpt lat="47.51346" lon="6.77274">
        <ele>378</ele>
        <time>2016-12-11T08:21:17.999Z</time>
      </trkpt>
      <trkpt lat="47.51344" lon="6.77276">
        <ele>378</ele>
        <time>2016-12-11T08:21:18.999Z</time>
      </trkpt>
      <trkpt lat="47.51342" lon="6.77278">
        <ele>378</ele>
        <time>2016-12-11T08:21:19.999Z</time>
      </trkpt>
      <trkpt lat="47.51339" lon="6.7728">
        <ele>378</ele>
        <time>2016-12-11T08:21:20.999Z</time>
      </trkpt>
      <trkpt lat="47.51336" lon="6.77281">
        <ele>378</ele>
        <time>2016-12-11T08:21:21.999Z</time>
      </trkpt>
      <trkpt lat="47.51333" lon="6.77283">
        <ele>378</ele>
        <time>2016-12-11T08:21:22.999Z</time>
      </trkpt>
      <trkpt lat="47.5133" lon="6.77284">
        <ele>378</ele>
        <time>2016-12-11T08:21:23.999Z</time>
      </trkpt>
      <trkpt lat="47.51327" lon="6.77284">
        <ele>378</ele>
        <time>2016-12-11T08:21:24.999Z</time>
      </trkpt>
      <trkpt lat="47.51324" lon="6.77284">
        <ele>377</ele>
        <time>2016-12-11T08:21:25.999Z</time>
      </trkpt>
      <trkpt lat="47.5132" lon="6.77283">
        <ele>377</ele>
        <time>2016-12-11T08:21:26.999Z</time>
      </trkpt>
      <trkpt lat="47.51316" lon="6.77282">
        <ele>377</ele>
        <time>2016-12-11T08:21:27.999Z</time>
      </trkpt>
      <trkpt lat="47.51312" lon="6.77281">
        <ele>377</ele>
        <time>2016-12-11T08:21:28.999Z</time>
      </trkpt>
      <trkpt lat="47.51308" lon="6.77279">
        <ele>377</ele>
        <time>2016-12-11T08:21:29.999Z</time>
      </trkpt>
      <trkpt lat="47.51305" lon="6.77278">
        <ele>377</ele>
        <time>2016-12-11T08:21:30.999Z</time>
      </trkpt>
      <trkpt lat="47.51302" lon="6.77276">
        <ele>377</ele>
        <time>2016-12-11T08:21:31.999Z</time>
      </trkpt>
      <trkpt lat="47.51299" lon="6.77275">
        <ele>377</ele>
        <time>2016-12-11T08:21:32.999Z</time>
      </trkpt>
      <trkpt lat="47.51296" lon="6.77273">
        <ele>377</ele>
        <time>2016-12-11T08:21:33.999Z</time>
      </trkpt>
      <trkpt lat="47.51292" lon="6.77271">
        <ele>377</ele>
        <time>2016-12-11T08:21:34.999Z</time>
      </trkpt>
      <trkpt lat="47.51289" lon="6.7727">
        <ele>377</ele>
        <time>2016-12-11T08:21:35.999Z</time>
      </trkpt>
      <trkpt lat="47.51286" lon="6.77268">
        <ele>377</ele>
        <time>2016-12-11T08:21:36.999Z</time>
      </trkpt>
      <trkpt lat="47.51283" lon="6.77267">
        <ele>377</ele>
        <time>2016-12-11T08:21:37.999Z</time>
      </trkpt>
      <trkpt lat="47.51279" lon="6.77265">
        <ele>377</ele>
        <time>2016-12-11T08:21:38.999Z</time>
      </trkpt>
      <trkpt lat="47.51276" lon="6.77262">
        <ele>377</ele>
        <time>2016-12-11T08:21:39.999Z</time>
      </trkpt>
      <trkpt lat="47.51272" lon="6.77259">
        <ele>377</ele>
        <time>2016-12-11T08:21:40.999Z</time>
      </trkpt>
      <trkpt lat="47.51269" lon="6.77257">
        <ele>378</ele>
        <time>2016-12-11T08:21:41.999Z</time>
      </trkpt>
      <trkpt lat="47.51265" lon="6.77254">
        <ele>378</ele>
        <time>2016-12-11T08:21:42.999Z</time>
      </trkpt>
      <trkpt lat="47.51262" lon="6.77249">
        <ele>378</ele>
        <time>2016-12-11T08:21:43.999Z</time>
      </trkpt>
      <trkpt lat="47.51259" lon="6.77246">
        <ele>379</ele>
        <time>2016-12-11T08:21:44.999Z</time>
      </trkpt>
      <trkpt lat="47.51257" lon="6.77242">
        <ele>379</ele>
        <time>2016-12-11T08:21:45.999Z</time>
      </trkpt>
      <trkpt lat="47.51254" lon="6.77237">
        <ele>378</ele>
        <time>2016-12-11T08:21:46.999Z</time>
      </trkpt>
      <trkpt lat="47.5125" lon="6.77231">
        <ele>378</ele>
        <time>2016-12-11T08:21:47.999Z</time>
      </trkpt>
      <trkpt lat="47.51247" lon="6.77225">
        <ele>376</ele>
        <time>2016-12-11T08:21:48.999Z</time>
      </trkpt>
      <trkpt lat="47.51243" lon="6.77218">
        <ele>376</ele>
        <time>2016-12-11T08:21:49.999Z</time>
      </trkpt>
      <trkpt lat="47.5124" lon="6.77212">
        <ele>376</ele>
        <time>2016-12-11T08:21:50.999Z</time>
      </trkpt>
      <trkpt lat="47.51237" lon="6.77206">
        <ele>376</ele>
        <time>2016-12-11T08:21:51.999Z</time>
      </trkpt>
      <trkpt lat="47.51233" lon="6.772">
        <ele>376</ele>
        <time>2016-12-11T08:21:52.999Z</time>
      </trkpt>
      <trkpt lat="47.5123" lon="6.77194">
        <ele>376</ele>
        <time>2016-12-11T08:21:53.999Z</time>
      </trkpt>
      <trkpt lat="47.51227" lon="6.77188">
        <ele>376</ele>
        <time>2016-12-11T08:21:54.999Z</time>
      </trkpt>
      <trkpt lat="47.51224" lon="6.77182">
        <ele>376</ele>
        <time>2016-12-11T08:21:55.999Z</time>
      </trkpt>
      <trkpt lat="47.51221" lon="6.77176">
        <ele>376</ele>
        <time>2016-12-11T08:21:56.999Z</time>
      </trkpt>
      <trkpt lat="47.51219" lon="6.7717">
        <ele>376</ele>
        <time>2016-12-11T08:21:57.999Z</time>
      </trkpt>
      <trkpt lat="47.51216" lon="6.77164">
        <ele>378</ele>
        <time>2016-12-11T08:21:58.999Z</time>
      </trkpt>
      <trkpt lat="47.51212" lon="6.77156">
        <ele>378</ele>
        <time>2016-12-11T08:21:59.999Z</time>
      </trkpt>
      <trkpt lat="47.51209" lon="6.77149">
        <ele>378</ele>
        <time>2016-12-11T08:22:00.999Z</time>
      </trkpt>
      <trkpt lat="47.51205" lon="6.77142">
        <ele>378</ele>
        <time>2016-12-11T08:22:01.999Z</time>
      </trkpt>
      <trkpt lat="47.51202" lon="6.77135">
        <ele>378</ele>
        <time>2016-12-11T08:22:02.999Z</time>
      </trkpt>
      <trkpt lat="47.51198" lon="6.77128">
        <ele>378</ele>
        <time>2016-12-11T08:22:03.999Z</time>
      </trkpt>
      <trkpt lat="47.51194" lon="6.77121">
        <ele>378</ele>
        <time>2016-12-11T08:22:04.999Z</time>
      </trkpt>
      <trkpt lat="47.5119" lon="6.77114">
        <ele>378</ele>
        <time>2016-12-11T08:22:05.999Z</time>
      </trkpt>
      <trkpt lat="47.51186" lon="6.77107">
        <ele>378</ele>
        <time>2016-12-11T08:22:06.999Z</time>
      </trkpt>
      <trkpt lat="47.51182" lon="6.771">
        <ele>378</ele>
        <time>2016-12-11T08:22:07.999Z</time>
      </trkpt>
      <trkpt lat="47.51178" lon="6.77093">
        <ele>378</ele>
        <time>2016-12-11T08:22:08.999Z</time>
      </trkpt>
      <trkpt lat="47.51174" lon="6.77087">
        <ele>378</ele>
        <time>2016-12-11T08:22:09.999Z</time>
      </trkpt>
      <trkpt lat="47.51169" lon="6.7708">
        <ele>378</ele>
        <time>2016-12-11T08:22:10.999Z</time>
      </trkpt>
      <trkpt lat="47.51165" lon="6.77074">
        <ele>377</ele>
        <time>2016-12-11T08:22:11.999Z</time>
      </trkpt>
      <trkpt lat="47.51161" lon="6.77068">
        <ele>377</ele>
        <time>2016-12-11T08:22:12.999Z</time>
      </trkpt>
      <trkpt lat="47.51155" lon="6.77062">
        <ele>376</ele>
        <time>2016-12-11T08:22:13.999Z</time>
      </trkpt>
      <trkpt lat="47.5115" lon="6.77058">
        <ele>376</ele>
        <time>2016-12-11T08:22:14.999Z</time>
      </trkpt>
      <trkpt lat="47.51144" lon="6.77052">
        <ele>376</ele>
        <time>2016-12-11T08:22:15.999Z</time>
      </trkpt>
      <trkpt lat="47.51139" lon="6.77047">
        <ele>376</ele>
        <time>2016-12-11T08:22:16.999Z</time>
      </trkpt>
      <trkpt lat="47.51134" lon="6.77042">
        <ele>375</ele>
        <time>2016-12-11T08:22:17.999Z</time>
      </trkpt>
      <trkpt lat="47.51129" lon="6.77038">
        <ele>375</ele>
        <time>2016-12-11T08:22:18.999Z</time>
      </trkpt>
      <trkpt lat="47.51123" lon="6.77032">
        <ele>375</ele>
        <time>2016-12-11T08:22:19.999Z</time>
      </trkpt>
      <trkpt lat="47.51117" lon="6.77027">
        <ele>375</ele>
        <time>2016-12-11T08:22:20.999Z</time>
      </trkpt>
      <trkpt lat="47.51112" lon="6.77021">
        <ele>375</ele>
        <time>2016-12-11T08:22:21.999Z</time>
      </trkpt>
      <trkpt lat="47.51107" lon="6.77016">
        <ele>375</ele>
        <time>2016-12-11T08:22:22.999Z</time>
      </trkpt>
      <trkpt lat="47.51102" lon="6.77012">
        <ele>375</ele>
        <time>2016-12-11T08:22:23.999Z</time>
      </trkpt>
      <trkpt lat="47.51097" lon="6.77007">
        <ele>375</ele>
        <time>2016-12-11T08:22:24.999Z</time>
      </trkpt>
      <trkpt lat="47.51092" lon="6.77003">
        <ele>375</ele>
        <time>2016-12-11T08:22:25.999Z</time>
      </trkpt>
      <trkpt lat="47.51087" lon="6.76999">
        <ele>375</ele>
        <time>2016-12-11T08:22:26.999Z</time>
      </trkpt>
      <trkpt lat="47.51082" lon="6.76995">
        <ele>375</ele>
        <time>2016-12-11T08:22:27.999Z</time>
      </trkpt>
      <trkpt lat="47.51077" lon="6.76991">
        <ele>375</ele>
        <time>2016-12-11T08:22:28.999Z</time>
      </trkpt>
      <trkpt lat="47.51073" lon="6.76987">
        <ele>375</ele>
        <time>2016-12-11T08:22:29.999Z</time>
      </trkpt>
      <trkpt lat="47.51068" lon="6.76984">
        <ele>375</ele>
        <time>2016-12-11T08:22:30.999Z</time>
      </trkpt>
      <trkpt lat="47.51063" lon="6.7698">
        <ele>375</ele>
        <time>2016-12-11T08:22:31.999Z</time>
      </trkpt>
      <trkpt lat="47.51058" lon="6.76976">
        <ele>375</ele>
        <time>2016-12-11T08:22:32.999Z</time>
      </trkpt>
      <trkpt lat="47.51053" lon="6.76972">
        <ele>375</ele>
        <time>2016-12-11T08:22:33.999Z</time>
      </trkpt>
      <trkpt lat="47.51049" lon="6.76968">
        <ele>375</ele>
        <time>2016-12-11T08:22:34.999Z</time>
      </trkpt>
      <trkpt lat="47.51046" lon="6.76965">
        <ele>375</ele>
        <time>2016-12-11T08:22:35.999Z</time>
      </trkpt>
      <trkpt lat="47.51041" lon="6.76961">
        <ele>375</ele>
        <time>2016-12-11T08:22:36.999Z</time>
      </trkpt>
      <trkpt lat="47.51037" lon="6.76957">
        <ele>375</ele>
        <time>2016-12-11T08:22:37.999Z</time>
      </trkpt>
      <trkpt lat="47.51032" lon="6.76952">
        <ele>375</ele>
        <time>2016-12-11T08:22:38.999Z</time>
      </trkpt>
      <trkpt lat="47.51029" lon="6.76946">
        <ele>375</ele>
        <time>2016-12-11T08:22:39.999Z</time>
      </trkpt>
      <trkpt lat="47.51025" lon="6.76942">
        <ele>375</ele>
        <time>2016-12-11T08:22:40.999Z</time>
      </trkpt>
      <trkpt lat="47.51022" lon="6.76938">
        <ele>375</ele>
        <time>2016-12-11T08:22:41.999Z</time>
      </trkpt>
      <trkpt lat="47.51018" lon="6.76934">
        <ele>375</ele>
        <time>2016-12-11T08:22:42.999Z</time>
      </trkpt>
      <trkpt lat="47.51014" lon="6.76929">
        <ele>375</ele>
        <time>2016-12-11T08:22:43.999Z</time>
      </trkpt>
      <trkpt lat="47.51009" lon="6.76926">
        <ele>375</ele>
        <time>2016-12-11T08:22:44.999Z</time>
      </trkpt>
      <trkpt lat="47.51005" lon="6.76924">
        <ele>376</ele>
        <time>2016-12-11T08:22:45.999Z</time>
      </trkpt>
      <trkpt lat="47.51001" lon="6.76919">
        <ele>376</ele>
        <time>2016-12-11T08:22:46.999Z</time>
      </trkpt>
      <trkpt lat="47.50998" lon="6.76913">
        <ele>376</ele>
        <time>2016-12-11T08:22:47.999Z</time>
      </trkpt>
      <trkpt lat="47.50995" lon="6.76907">
        <ele>376</ele>
        <time>2016-12-11T08:22:48.999Z</time>
      </trkpt>
      <trkpt lat="47.50991" lon="6.76902">
        <ele>377</ele>
        <time>2016-12-11T08:22:49.999Z</time>
      </trkpt>
      <trkpt lat="47.50987" lon="6.76898">
        <ele>377</ele>
        <time>2016-12-11T08:22:50.999Z</time>
      </trkpt>
      <trkpt lat="47.50982" lon="6.76897">
        <ele>377</ele>
        <time>2016-12-11T08:22:51.999Z</time>
      </trkpt>
      <trkpt lat="47.50977" lon="6.76895">
        <ele>377</ele>
        <time>2016-12-11T08:22:52.999Z</time>
      </trkpt>
      <trkpt lat="47.50973" lon="6.76894">
        <ele>377</ele>
        <time>2016-12-11T08:22:53.999Z</time>
      </trkpt>
      <trkpt lat="47.50968" lon="6.76894">
        <ele>377</ele>
        <time>2016-12-11T08:22:54.999Z</time>
      </trkpt>
      <trkpt lat="47.50965" lon="6.76893">
        <ele>377</ele>
        <time>2016-12-11T08:22:55.999Z</time>
      </trkpt>
      <trkpt lat="47.50961" lon="6.7689">
        <ele>377</ele>
        <time>2016-12-11T08:22:56.999Z</time>
      </trkpt>
      <trkpt lat="47.50957" lon="6.76887">
        <ele>377</ele>
        <time>2016-12-11T08:22:57.999Z</time>
      </trkpt>
      <trkpt lat="47.50955" lon="6.76885">
        <ele>378</ele>
        <time>2016-12-11T08:22:58.999Z</time>
      </trkpt>
      <trkpt lat="47.5095" lon="6.76882">
        <ele>378</ele>
        <time>2016-12-11T08:22:59.999Z</time>
      </trkpt>
      <trkpt lat="47.50947" lon="6.76878">
        <ele>378</ele>
        <time>2016-12-11T08:23:00.999Z</time>
      </trkpt>
      <trkpt lat="47.50944" lon="6.76875">
        <ele>378</ele>
        <time>2016-12-11T08:23:01.999Z</time>
      </trkpt>
      <trkpt lat="47.5094" lon="6.76871">
        <ele>378</ele>
        <time>2016-12-11T08:23:02.999Z</time>
      </trkpt>
      <trkpt lat="47.50937" lon="6.76868">
        <ele>378</ele>
        <time>2016-12-11T08:23:03.999Z</time>
      </trkpt>
      <trkpt lat="47.50935" lon="6.76864">
        <ele>378</ele>
        <time>2016-12-11T08:23:04.999Z</time>
      </trkpt>
      <trkpt lat="47.50932" lon="6.7686">
        <ele>378</ele>
        <time>2016-12-11T08:23:05.999Z</time>
      </trkpt>
      <trkpt lat="47.50929" lon="6.76856">
        <ele>378</ele>
        <time>2016-12-11T08:23:06.999Z</time>
      </trkpt>
      <trkpt lat="47.50926" lon="6.76853">
        <ele>379</ele>
        <time>2016-12-11T08:23:07.999Z</time>
      </trkpt>
      <trkpt lat="47.50924" lon="6.76847">
        <ele>379</ele>
        <time>2016-12-11T08:23:08.999Z</time>
      </trkpt>
      <trkpt lat="47.50921" lon="6.76842">
        <ele>379</ele>
        <time>2016-12-11T08:23:09.999Z</time>
      </trkpt>
      <trkpt lat="47.50918" lon="6.76837">
        <ele>380</ele>
        <time>2016-12-11T08:23:10.999Z</time>
      </trkpt>
      <trkpt lat="47.50917" lon="6.76833">
        <ele>380</ele>
        <time>2016-12-11T08:23:11.999Z</time>
      </trkpt>
      <trkpt lat="47.50914" lon="6.76829">
        <ele>380</ele>
        <time>2016-12-11T08:23:12.999Z</time>
      </trkpt>
      <trkpt lat="47.50912" lon="6.76823">
        <ele>381</ele>
        <time>2016-12-11T08:23:13.999Z</time>
      </trkpt>
      <trkpt lat="47.50909" lon="6.76817">
        <ele>381</ele>
        <time>2016-12-11T08:23:14.999Z</time>
      </trkpt>
      <trkpt lat="47.50907" lon="6.76813">
        <ele>381</ele>
        <time>2016-12-11T08:23:15.999Z</time>
      </trkpt>
      <trkpt lat="47.50906" lon="6.76809">
        <ele>381</ele>
        <time>2016-12-11T08:23:16.999Z</time>
      </trkpt>
      <trkpt lat="47.50903" lon="6.76804">
        <ele>381</ele>
        <time>2016-12-11T08:23:17.999Z</time>
      </trkpt>
      <trkpt lat="47.50901" lon="6.76799">
        <ele>381</ele>
        <time>2016-12-11T08:23:18.999Z</time>
      </trkpt>
      <trkpt lat="47.50899" lon="6.76794">
        <ele>381</ele>
        <time>2016-12-11T08:23:19.999Z</time>
      </trkpt>
      <trkpt lat="47.50898" lon="6.76789">
        <ele>381</ele>
        <time>2016-12-11T08:23:20.999Z</time>
      </trkpt>
      <trkpt lat="47.50896" lon="6.76783">
        <ele>381</ele>
        <time>2016-12-11T08:23:21.999Z</time>
      </trkpt>
      <trkpt lat="47.50894" lon="6.76779">
        <ele>381</ele>
        <time>2016-12-11T08:23:22.999Z</time>
      </trkpt>
      <trkpt lat="47.50892" lon="6.76773">
        <ele>381</ele>
        <time>2016-12-11T08:23:23.999Z</time>
      </trkpt>
      <trkpt lat="47.5089" lon="6.76768">
        <ele>381</ele>
        <time>2016-12-11T08:23:24.999Z</time>
      </trkpt>
      <trkpt lat="47.50888" lon="6.76764">
        <ele>381</ele>
        <time>2016-12-11T08:23:25.999Z</time>
      </trkpt>
      <trkpt lat="47.50886" lon="6.76758">
        <ele>381</ele>
        <time>2016-12-11T08:23:26.999Z</time>
      </trkpt>
      <trkpt lat="47.50884" lon="6.76752">
        <ele>381</ele>
        <time>2016-12-11T08:23:27.999Z</time>
      </trkpt>
      <trkpt lat="47.50883" lon="6.76748">
        <ele>382</ele>
        <time>2016-12-11T08:23:28.999Z</time>
      </trkpt>
      <trkpt lat="47.50881" lon="6.76743">
        <ele>382</ele>
        <time>2016-12-11T08:23:29.999Z</time>
      </trkpt>
      <trkpt lat="47.5088" lon="6.76738">
        <ele>383</ele>
        <time>2016-12-11T08:23:30.999Z</time>
      </trkpt>
      <trkpt lat="47.50878" lon="6.76734">
        <ele>383</ele>
        <time>2016-12-11T08:23:31.999Z</time>
      </trkpt>
      <trkpt lat="47.50877" lon="6.76729">
        <ele>383</ele>
        <time>2016-12-11T08:23:32.999Z</time>
      </trkpt>
      <trkpt lat="47.50876" lon="6.76725">
        <ele>383</ele>
        <time>2016-12-11T08:23:33.999Z</time>
      </trkpt>
      <trkpt lat="47.50875" lon="6.7672">
        <ele>383</ele>
        <time>2016-12-11T08:23:34.999Z</time>
      </trkpt>
      <trkpt lat="47.50872" lon="6.76714">
        <ele>383</ele>
        <time>2016-12-11T08:23:35.999Z</time>
      </trkpt>
      <trkpt lat="47.5087" lon="6.76708">
        <ele>383</ele>
        <time>2016-12-11T08:23:36.999Z</time>
      </trkpt>
      <trkpt lat="47.50869" lon="6.76704">
        <ele>384</ele>
        <time>2016-12-11T08:23:37.999Z</time>
      </trkpt>
      <trkpt lat="47.50867" lon="6.76699">
        <ele>384</ele>
        <time>2016-12-11T08:23:38.999Z</time>
      </trkpt>
      <trkpt lat="47.50865" lon="6.76695">
        <ele>384</ele>
        <time>2016-12-11T08:23:39.999Z</time>
      </trkpt>
      <trkpt lat="47.50863" lon="6.7669">
        <ele>384</ele>
        <time>2016-12-11T08:23:40.999Z</time>
      </trkpt>
      <trkpt lat="47.50862" lon="6.76687">
        <ele>384</ele>
        <time>2016-12-11T08:23:41.999Z</time>
      </trkpt>
      <trkpt lat="47.50861" lon="6.76683">
        <ele>385</ele>
        <time>2016-12-11T08:23:42.999Z</time>
      </trkpt>
      <trkpt lat="47.50859" lon="6.76679">
        <ele>385</ele>
        <time>2016-12-11T08:23:43.999Z</time>
      </trkpt>
      <trkpt lat="47.50858" lon="6.76675">
        <ele>385</ele>
        <time>2016-12-11T08:23:44.999Z</time>
      </trkpt>
      <trkpt lat="47.50856" lon="6.76671">
        <ele>385</ele>
        <time>2016-12-11T08:23:45.999Z</time>
      </trkpt>
      <trkpt lat="47.50855" lon="6.76668">
        <ele>386</ele>
        <time>2016-12-11T08:23:46.999Z</time>
      </trkpt>
      <trkpt lat="47.50853" lon="6.76664">
        <ele>387</ele>
        <time>2016-12-11T08:23:47.999Z</time>
      </trkpt>
      <trkpt lat="47.50851" lon="6.76659">
        <ele>387</ele>
        <time>2016-12-11T08:23:48.999Z</time>
      </trkpt>
      <trkpt lat="47.50849" lon="6.76655">
        <ele>387</ele>
        <time>2016-12-11T08:23:49.999Z</time>
      </trkpt>
      <trkpt lat="47.50847" lon="6.76651">
        <ele>387</ele>
        <time>2016-12-11T08:23:50.999Z</time>
      </trkpt>
      <trkpt lat="47.50845" lon="6.76646">
        <ele>387</ele>
        <time>2016-12-11T08:23:51.999Z</time>
      </trkpt>
      <trkpt lat="47.50843" lon="6.76643">
        <ele>387</ele>
        <time>2016-12-11T08:23:52.999Z</time>
      </trkpt>
      <trkpt lat="47.50841" lon="6.76639">
        <ele>387</ele>
        <time>2016-12-11T08:23:53.999Z</time>
      </trkpt>
      <trkpt lat="47.50839" lon="6.76635">
        <ele>387</ele>
        <time>2016-12-11T08:23:54.999Z</time>
      </trkpt>
      <trkpt lat="47.50838" lon="6.76631">
        <ele>387</ele>
        <time>2016-12-11T08:23:55.999Z</time>
      </trkpt>
      <trkpt lat="47.50836" lon="6.76628">
        <ele>387</ele>
        <time>2016-12-11T08:23:56.999Z</time>
      </trkpt>
      <trkpt lat="47.50835" lon="6.76626">
        <ele>387</ele>
        <time>2016-12-11T08:23:57.999Z</time>
      </trkpt>
      <trkpt lat="47.50833" lon="6.76622">
        <ele>390</ele>
        <time>2016-12-11T08:23:58.999Z</time>
      </trkpt>
      <trkpt lat="47.50832" lon="6.76619">
        <ele>390</ele>
        <time>2016-12-11T08:23:59.999Z</time>
      </trkpt>
      <trkpt lat="47.5083" lon="6.76614">
        <ele>390</ele>
        <time>2016-12-11T08:24:00.999Z</time>
      </trkpt>
      <trkpt lat="47.50829" lon="6.76611">
        <ele>390</ele>
        <time>2016-12-11T08:24:01.999Z</time>
      </trkpt>
      <trkpt lat="47.50828" lon="6.76607">
        <ele>390</ele>
        <time>2016-12-11T08:24:02.999Z</time>
      </trkpt>
      <trkpt lat="47.50826" lon="6.76603">
        <ele>390</ele>
        <time>2016-12-11T08:24:03.999Z</time>
      </trkpt>
      <trkpt lat="47.50825" lon="6.76598">
        <ele>390</ele>
        <time>2016-12-11T08:24:04.999Z</time>
      </trkpt>
      <trkpt lat="47.50823" lon="6.76594">
        <ele>390</ele>
        <time>2016-12-11T08:24:05.999Z</time>
      </trkpt>
      <trkpt lat="47.50819" lon="6.76595">
        <ele>390</ele>
        <time>2016-12-11T08:24:07.999Z</time>
      </trkpt>
      <trkpt lat="47.50816" lon="6.76596">
        <ele>390</ele>
        <time>2016-12-11T08:24:08.999Z</time>
      </trkpt>
      <trkpt lat="47.50814" lon="6.76597">
        <ele>390</ele>
        <time>2016-12-11T08:24:09.999Z</time>
      </trkpt>
      <trkpt lat="47.50812" lon="6.76595">
        <ele>390</ele>
        <time>2016-12-11T08:24:10.999Z</time>
      </trkpt>
      <trkpt lat="47.50811" lon="6.76593">
        <ele>390</ele>
        <time>2016-12-11T08:24:11.999Z</time>
      </trkpt>
      <trkpt lat="47.50808" lon="6.76588">
        <ele>390</ele>
        <time>2016-12-11T08:24:12.999Z</time>
      </trkpt>
      <trkpt lat="47.50806" lon="6.76586">
        <ele>390</ele>
        <time>2016-12-11T08:24:13.999Z</time>
      </trkpt>
      <trkpt lat="47.50804" lon="6.76586">
        <ele>391</ele>
        <time>2016-12-11T08:24:14.999Z</time>
      </trkpt>
      <trkpt lat="47.508" lon="6.76587">
        <ele>391</ele>
        <time>2016-12-11T08:24:16.999Z</time>
      </trkpt>
      <trkpt lat="47.50797" lon="6.76588">
        <ele>391</ele>
        <time>2016-12-11T08:24:17.999Z</time>
      </trkpt>
      <trkpt lat="47.50793" lon="6.76588">
        <ele>391</ele>
        <time>2016-12-11T08:24:28.999Z</time>
      </trkpt>
      <trkpt lat="47.50784" lon="6.76593">
        <ele>391</ele>
        <time>2016-12-11T08:24:29.999Z</time>
      </trkpt>
      <trkpt lat="47.50784" lon="6.76593">
        <ele>391</ele>
        <time>2016-12-11T08:24:45.999Z</time>
      </trkpt>
      <trkpt lat="47.50774" lon="6.76595">
        <ele>392</ele>
        <time>2016-12-11T08:24:46.999Z</time>
      </trkpt>
      <trkpt lat="47.5077" lon="6.76597">
        <ele>392</ele>
        <time>2016-12-11T08:24:47.999Z</time>
      </trkpt>
      <trkpt lat="47.50767" lon="6.76598">
        <ele>392</ele>
        <time>2016-12-11T08:24:48.999Z</time>
      </trkpt>
      <trkpt lat="47.50763" lon="6.76598">
        <ele>392</ele>
        <time>2016-12-11T08:24:49.999Z</time>
      </trkpt>
      <trkpt lat="47.5076" lon="6.76598">
        <ele>392</ele>
        <time>2016-12-11T08:24:50.999Z</time>
      </trkpt>
      <trkpt lat="47.50757" lon="6.76598">
        <ele>392</ele>
        <time>2016-12-11T08:24:51.999Z</time>
      </trkpt>
      <trkpt lat="47.50753" lon="6.76598">
        <ele>393</ele>
        <time>2016-12-11T08:24:52.999Z</time>
      </trkpt>
      <trkpt lat="47.5075" lon="6.76598">
        <ele>393</ele>
        <time>2016-12-11T08:24:53.999Z</time>
      </trkpt>
      <trkpt lat="47.50747" lon="6.76598">
        <ele>394</ele>
        <time>2016-12-11T08:24:54.999Z</time>
      </trkpt>
      <trkpt lat="47.50743" lon="6.76596">
        <ele>394</ele>
        <time>2016-12-11T08:24:55.999Z</time>
      </trkpt>
      <trkpt lat="47.50739" lon="6.76594">
        <ele>394</ele>
        <time>2016-12-11T08:24:56.999Z</time>
      </trkpt>
      <trkpt lat="47.50736" lon="6.76594">
        <ele>394</ele>
        <time>2016-12-11T08:24:57.999Z</time>
      </trkpt>
      <trkpt lat="47.50732" lon="6.76593">
        <ele>394</ele>
        <time>2016-12-11T08:24:58.999Z</time>
      </trkpt>
      <trkpt lat="47.50729" lon="6.76592">
        <ele>394</ele>
        <time>2016-12-11T08:24:59.999Z</time>
      </trkpt>
      <trkpt lat="47.50726" lon="6.76591">
        <ele>394</ele>
        <time>2016-12-11T08:25:00.999Z</time>
      </trkpt>
      <trkpt lat="47.50721" lon="6.76591">
        <ele>394</ele>
        <time>2016-12-11T08:25:01.999Z</time>
      </trkpt>
      <trkpt lat="47.50717" lon="6.7659">
        <ele>394</ele>
        <time>2016-12-11T08:25:02.999Z</time>
      </trkpt>
      <trkpt lat="47.50713" lon="6.7659">
        <ele>395</ele>
        <time>2016-12-11T08:25:03.999Z</time>
      </trkpt>
      <trkpt lat="47.5071" lon="6.76589">
        <ele>395</ele>
        <time>2016-12-11T08:25:04.999Z</time>
      </trkpt>
      <trkpt lat="47.50707" lon="6.76589">
        <ele>395</ele>
        <time>2016-12-11T08:25:05.999Z</time>
      </trkpt>
      <trkpt lat="47.50703" lon="6.76589">
        <ele>395</ele>
        <time>2016-12-11T08:25:06.999Z</time>
      </trkpt>
      <trkpt lat="47.507" lon="6.76589">
        <ele>395</ele>
        <time>2016-12-11T08:25:07.999Z</time>
      </trkpt>
      <trkpt lat="47.50697" lon="6.76589">
        <ele>395</ele>
        <time>2016-12-11T08:25:08.999Z</time>
      </trkpt>
      <trkpt lat="47.50694" lon="6.76589">
        <ele>395</ele>
        <time>2016-12-11T08:25:09.999Z</time>
      </trkpt>
      <trkpt lat="47.5069" lon="6.76589">
        <ele>395</ele>
        <time>2016-12-11T08:25:10.999Z</time>
      </trkpt>
      <trkpt lat="47.50687" lon="6.76589">
        <ele>395</ele>
        <time>2016-12-11T08:25:11.999Z</time>
      </trkpt>
      <trkpt lat="47.50683" lon="6.7659">
        <ele>396</ele>
        <time>2016-12-11T08:25:12.999Z</time>
      </trkpt>
      <trkpt lat="47.5068" lon="6.7659">
        <ele>396</ele>
        <time>2016-12-11T08:25:13.999Z</time>
      </trkpt>
      <trkpt lat="47.50676" lon="6.76591">
        <ele>396</ele>
        <time>2016-12-11T08:25:14.999Z</time>
      </trkpt>
      <trkpt lat="47.50672" lon="6.76592">
        <ele>396</ele>
        <time>2016-12-11T08:25:15.999Z</time>
      </trkpt>
      <trkpt lat="47.50668" lon="6.76593">
        <ele>396</ele>
        <time>2016-12-11T08:25:16.999Z</time>
      </trkpt>
      <trkpt lat="47.50665" lon="6.76594">
        <ele>397</ele>
        <time>2016-12-11T08:25:17.999Z</time>
      </trkpt>
      <trkpt lat="47.50662" lon="6.76595">
        <ele>397</ele>
        <time>2016-12-11T08:25:18.999Z</time>
      </trkpt>
      <trkpt lat="47.50658" lon="6.76597">
        <ele>397</ele>
        <time>2016-12-11T08:25:19.999Z</time>
      </trkpt>
      <trkpt lat="47.50655" lon="6.76598">
        <ele>397</ele>
        <time>2016-12-11T08:25:20.999Z</time>
      </trkpt>
      <trkpt lat="47.50652" lon="6.76598">
        <ele>397</ele>
        <time>2016-12-11T08:25:21.999Z</time>
      </trkpt>
      <trkpt lat="47.50649" lon="6.76599">
        <ele>397</ele>
        <time>2016-12-11T08:25:22.999Z</time>
      </trkpt>
      <trkpt lat="47.50646" lon="6.76601">
        <ele>397</ele>
        <time>2016-12-11T08:25:23.999Z</time>
      </trkpt>
      <trkpt lat="47.50642" lon="6.76603">
        <ele>397</ele>
        <time>2016-12-11T08:25:24.999Z</time>
      </trkpt>
      <trkpt lat="47.50639" lon="6.76604">
        <ele>397</ele>
        <time>2016-12-11T08:25:25.999Z</time>
      </trkpt>
      <trkpt lat="47.50636" lon="6.76606">
        <ele>397</ele>
        <time>2016-12-11T08:25:26.999Z</time>
      </trkpt>
      <trkpt lat="47.50634" lon="6.76608">
        <ele>397</ele>
        <time>2016-12-11T08:25:27.999Z</time>
      </trkpt>
      <trkpt lat="47.50631" lon="6.7661">
        <ele>397</ele>
        <time>2016-12-11T08:25:28.999Z</time>
      </trkpt>
      <trkpt lat="47.50627" lon="6.76612">
        <ele>397</ele>
        <time>2016-12-11T08:25:29.999Z</time>
      </trkpt>
      <trkpt lat="47.50624" lon="6.76614">
        <ele>397</ele>
        <time>2016-12-11T08:25:30.999Z</time>
      </trkpt>
      <trkpt lat="47.50621" lon="6.76616">
        <ele>397</ele>
        <time>2016-12-11T08:25:31.999Z</time>
      </trkpt>
      <trkpt lat="47.50618" lon="6.76618">
        <ele>397</ele>
        <time>2016-12-11T08:25:32.999Z</time>
      </trkpt>
      <trkpt lat="47.50615" lon="6.7662">
        <ele>397</ele>
        <time>2016-12-11T08:25:33.999Z</time>
      </trkpt>
      <trkpt lat="47.50612" lon="6.76621">
        <ele>397</ele>
        <time>2016-12-11T08:25:34.999Z</time>
      </trkpt>
      <trkpt lat="47.50609" lon="6.76622">
        <ele>398</ele>
        <time>2016-12-11T08:25:35.999Z</time>
      </trkpt>
      <trkpt lat="47.50605" lon="6.76623">
        <ele>398</ele>
        <time>2016-12-11T08:25:36.999Z</time>
      </trkpt>
      <trkpt lat="47.50601" lon="6.76624">
        <ele>398</ele>
        <time>2016-12-11T08:25:37.999Z</time>
      </trkpt>
      <trkpt lat="47.50598" lon="6.76625">
        <ele>398</ele>
        <time>2016-12-11T08:25:38.999Z</time>
      </trkpt>
      <trkpt lat="47.50594" lon="6.76627">
        <ele>398</ele>
        <time>2016-12-11T08:25:39.999Z</time>
      </trkpt>
      <trkpt lat="47.50591" lon="6.76628">
        <ele>398</ele>
        <time>2016-12-11T08:25:40.999Z</time>
      </trkpt>
      <trkpt lat="47.50589" lon="6.76628">
        <ele>398</ele>
        <time>2016-12-11T08:25:41.999Z</time>
      </trkpt>
      <trkpt lat="47.50585" lon="6.76629">
        <ele>398</ele>
        <time>2016-12-11T08:25:42.999Z</time>
      </trkpt>
      <trkpt lat="47.50583" lon="6.7663">
        <ele>399</ele>
        <time>2016-12-11T08:25:43.999Z</time>
      </trkpt>
      <trkpt lat="47.50581" lon="6.76631">
        <ele>399</ele>
        <time>2016-12-11T08:25:44.999Z</time>
      </trkpt>
      <trkpt lat="47.50577" lon="6.76633">
        <ele>399</ele>
        <time>2016-12-11T08:25:46.999Z</time>
      </trkpt>
      <trkpt lat="47.50575" lon="6.76634">
        <ele>399</ele>
        <time>2016-12-11T08:25:47.999Z</time>
      </trkpt>
      <trkpt lat="47.50573" lon="6.76635">
        <ele>399</ele>
        <time>2016-12-11T08:25:48.999Z</time>
      </trkpt>
      <trkpt lat="47.5057" lon="6.76636">
        <ele>399</ele>
        <time>2016-12-11T08:25:49.999Z</time>
      </trkpt>
      <trkpt lat="47.50568" lon="6.76636">
        <ele>399</ele>
        <time>2016-12-11T08:25:50.999Z</time>
      </trkpt>
      <trkpt lat="47.50565" lon="6.76637">
        <ele>399</ele>
        <time>2016-12-11T08:25:51.999Z</time>
      </trkpt>
      <trkpt lat="47.50563" lon="6.76637">
        <ele>399</ele>
        <time>2016-12-11T08:25:52.999Z</time>
      </trkpt>
      <trkpt lat="47.5056" lon="6.76637">
        <ele>399</ele>
        <time>2016-12-11T08:25:53.999Z</time>
      </trkpt>
      <trkpt lat="47.50557" lon="6.76638">
        <ele>399</ele>
        <time>2016-12-11T08:25:54.999Z</time>
      </trkpt>
      <trkpt lat="47.50554" lon="6.76638">
        <ele>399</ele>
        <time>2016-12-11T08:25:55.999Z</time>
      </trkpt>
      <trkpt lat="47.50552" lon="6.76639">
        <ele>399</ele>
        <time>2016-12-11T08:25:56.999Z</time>
      </trkpt>
      <trkpt lat="47.50549" lon="6.7664">
        <ele>399</ele>
        <time>2016-12-11T08:25:57.999Z</time>
      </trkpt>
      <trkpt lat="47.50545" lon="6.76641">
        <ele>399</ele>
        <time>2016-12-11T08:25:58.999Z</time>
      </trkpt>
      <trkpt lat="47.50543" lon="6.76641">
        <ele>399</ele>
        <time>2016-12-11T08:25:59.999Z</time>
      </trkpt>
      <trkpt lat="47.5054" lon="6.76642">
        <ele>399</ele>
        <time>2016-12-11T08:26:00.999Z</time>
      </trkpt>
      <trkpt lat="47.50537" lon="6.76642">
        <ele>399</ele>
        <time>2016-12-11T08:26:01.999Z</time>
      </trkpt>
      <trkpt lat="47.50534" lon="6.76643">
        <ele>399</ele>
        <time>2016-12-11T08:26:02.999Z</time>
      </trkpt>
      <trkpt lat="47.50532" lon="6.76643">
        <ele>399</ele>
        <time>2016-12-11T08:26:03.999Z</time>
      </trkpt>
      <trkpt lat="47.50529" lon="6.76644">
        <ele>399</ele>
        <time>2016-12-11T08:26:04.999Z</time>
      </trkpt>
      <trkpt lat="47.50526" lon="6.76644">
        <ele>399</ele>
        <time>2016-12-11T08:26:05.999Z</time>
      </trkpt>
      <trkpt lat="47.50523" lon="6.76645">
        <ele>399</ele>
        <time>2016-12-11T08:26:06.999Z</time>
      </trkpt>
      <trkpt lat="47.5052" lon="6.76645">
        <ele>399</ele>
        <time>2016-12-11T08:26:07.999Z</time>
      </trkpt>
      <trkpt lat="47.50517" lon="6.76646">
        <ele>399</ele>
        <time>2016-12-11T08:26:08.999Z</time>
      </trkpt>
      <trkpt lat="47.50513" lon="6.76647">
        <ele>399</ele>
        <time>2016-12-11T08:26:09.999Z</time>
      </trkpt>
      <trkpt lat="47.50511" lon="6.76648">
        <ele>399</ele>
        <time>2016-12-11T08:26:10.999Z</time>
      </trkpt>
      <trkpt lat="47.50508" lon="6.76649">
        <ele>399</ele>
        <time>2016-12-11T08:26:11.999Z</time>
      </trkpt>
      <trkpt lat="47.50505" lon="6.76649">
        <ele>399</ele>
        <time>2016-12-11T08:26:12.999Z</time>
      </trkpt>
      <trkpt lat="47.50502" lon="6.76651">
        <ele>399</ele>
        <time>2016-12-11T08:26:13.999Z</time>
      </trkpt>
      <trkpt lat="47.50499" lon="6.76652">
        <ele>399</ele>
        <time>2016-12-11T08:26:14.999Z</time>
      </trkpt>
      <trkpt lat="47.50496" lon="6.76654">
        <ele>399</ele>
        <time>2016-12-11T08:26:15.999Z</time>
      </trkpt>
      <trkpt lat="47.50493" lon="6.76655">
        <ele>399</ele>
        <time>2016-12-11T08:26:16.999Z</time>
      </trkpt>
      <trkpt lat="47.50491" lon="6.76656">
        <ele>399</ele>
        <time>2016-12-11T08:26:17.999Z</time>
      </trkpt>
      <trkpt lat="47.50488" lon="6.76658">
        <ele>399</ele>
        <time>2016-12-11T08:26:18.999Z</time>
      </trkpt>
      <trkpt lat="47.50484" lon="6.76659">
        <ele>399</ele>
        <time>2016-12-11T08:26:19.999Z</time>
      </trkpt>
      <trkpt lat="47.5048" lon="6.76661">
        <ele>399</ele>
        <time>2016-12-11T08:26:20.999Z</time>
      </trkpt>
      <trkpt lat="47.50477" lon="6.76663">
        <ele>398</ele>
        <time>2016-12-11T08:26:21.999Z</time>
      </trkpt>
      <trkpt lat="47.50474" lon="6.76665">
        <ele>398</ele>
        <time>2016-12-11T08:26:22.999Z</time>
      </trkpt>
      <trkpt lat="47.50471" lon="6.76666">
        <ele>398</ele>
        <time>2016-12-11T08:26:23.999Z</time>
      </trkpt>
      <trkpt lat="47.50467" lon="6.76668">
        <ele>397</ele>
        <time>2016-12-11T08:26:24.999Z</time>
      </trkpt>
      <trkpt lat="47.50464" lon="6.76669">
        <ele>397</ele>
        <time>2016-12-11T08:26:25.999Z</time>
      </trkpt>
      <trkpt lat="47.5046" lon="6.7667">
        <ele>397</ele>
        <time>2016-12-11T08:26:26.999Z</time>
      </trkpt>
      <trkpt lat="47.50456" lon="6.7667">
        <ele>397</ele>
        <time>2016-12-11T08:26:27.999Z</time>
      </trkpt>
      <trkpt lat="47.50454" lon="6.76672">
        <ele>397</ele>
        <time>2016-12-11T08:26:28.999Z</time>
      </trkpt>
      <trkpt lat="47.50451" lon="6.76673">
        <ele>397</ele>
        <time>2016-12-11T08:26:29.999Z</time>
      </trkpt>
      <trkpt lat="47.50447" lon="6.76675">
        <ele>397</ele>
        <time>2016-12-11T08:26:30.999Z</time>
      </trkpt>
      <trkpt lat="47.50443" lon="6.76677">
        <ele>397</ele>
        <time>2016-12-11T08:26:31.999Z</time>
      </trkpt>
      <trkpt lat="47.5044" lon="6.76678">
        <ele>397</ele>
        <time>2016-12-11T08:26:32.999Z</time>
      </trkpt>
      <trkpt lat="47.50436" lon="6.7668">
        <ele>397</ele>
        <time>2016-12-11T08:26:33.999Z</time>
      </trkpt>
      <trkpt lat="47.50432" lon="6.76681">
        <ele>397</ele>
        <time>2016-12-11T08:26:34.999Z</time>
      </trkpt>
      <trkpt lat="47.50428" lon="6.76683">
        <ele>397</ele>
        <time>2016-12-11T08:26:35.999Z</time>
      </trkpt>
      <trkpt lat="47.50425" lon="6.76684">
        <ele>397</ele>
        <time>2016-12-11T08:26:36.999Z</time>
      </trkpt>
      <trkpt lat="47.50421" lon="6.76685">
        <ele>397</ele>
        <time>2016-12-11T08:26:37.999Z</time>
      </trkpt>
      <trkpt lat="47.50418" lon="6.76686">
        <ele>397</ele>
        <time>2016-12-11T08:26:38.999Z</time>
      </trkpt>
      <trkpt lat="47.50414" lon="6.76688">
        <ele>397</ele>
        <time>2016-12-11T08:26:39.999Z</time>
      </trkpt>
      <trkpt lat="47.5041" lon="6.7669">
        <ele>397</ele>
        <time>2016-12-11T08:26:40.999Z</time>
      </trkpt>
      <trkpt lat="47.50406" lon="6.76692">
        <ele>397</ele>
        <time>2016-12-11T08:26:41.999Z</time>
      </trkpt>
      <trkpt lat="47.50402" lon="6.76693">
        <ele>397</ele>
        <time>2016-12-11T08:26:42.999Z</time>
      </trkpt>
      <trkpt lat="47.50398" lon="6.76695">
        <ele>397</ele>
        <time>2016-12-11T08:26:43.999Z</time>
      </trkpt>
      <trkpt lat="47.50394" lon="6.76697">
        <ele>397</ele>
        <time>2016-12-11T08:26:44.999Z</time>
      </trkpt>
      <trkpt lat="47.50391" lon="6.76699">
        <ele>397</ele>
        <time>2016-12-11T08:26:45.999Z</time>
      </trkpt>
      <trkpt lat="47.50389" lon="6.767">
        <ele>397</ele>
        <time>2016-12-11T08:26:46.999Z</time>
      </trkpt>
      <trkpt lat="47.50386" lon="6.76701">
        <ele>397</ele>
        <time>2016-12-11T08:26:47.999Z</time>
      </trkpt>
      <trkpt lat="47.50383" lon="6.76703">
        <ele>397</ele>
        <time>2016-12-11T08:26:48.999Z</time>
      </trkpt>
      <trkpt lat="47.50378" lon="6.76704">
        <ele>397</ele>
        <time>2016-12-11T08:26:49.999Z</time>
      </trkpt>
      <trkpt lat="47.50373" lon="6.76706">
        <ele>397</ele>
        <time>2016-12-11T08:26:50.999Z</time>
      </trkpt>
      <trkpt lat="47.50369" lon="6.76708">
        <ele>397</ele>
        <time>2016-12-11T08:26:51.999Z</time>
      </trkpt>
      <trkpt lat="47.50366" lon="6.76708">
        <ele>397</ele>
        <time>2016-12-11T08:26:52.999Z</time>
      </trkpt>
      <trkpt lat="47.50361" lon="6.76709">
        <ele>398</ele>
        <time>2016-12-11T08:26:53.999Z</time>
      </trkpt>
      <trkpt lat="47.50357" lon="6.76712">
        <ele>398</ele>
        <time>2016-12-11T08:26:54.999Z</time>
      </trkpt>
      <trkpt lat="47.50353" lon="6.76714">
        <ele>398</ele>
        <time>2016-12-11T08:26:55.999Z</time>
      </trkpt>
      <trkpt lat="47.50349" lon="6.76716">
        <ele>398</ele>
        <time>2016-12-11T08:26:56.999Z</time>
      </trkpt>
      <trkpt lat="47.50346" lon="6.76718">
        <ele>398</ele>
        <time>2016-12-11T08:26:57.999Z</time>
      </trkpt>
      <trkpt lat="47.50341" lon="6.7672">
        <ele>398</ele>
        <time>2016-12-11T08:26:58.999Z</time>
      </trkpt>
      <trkpt lat="47.50337" lon="6.76723">
        <ele>398</ele>
        <time>2016-12-11T08:26:59.999Z</time>
      </trkpt>
      <trkpt lat="47.50333" lon="6.76724">
        <ele>398</ele>
        <time>2016-12-11T08:27:00.999Z</time>
      </trkpt>
      <trkpt lat="47.50329" lon="6.76726">
        <ele>398</ele>
        <time>2016-12-11T08:27:01.999Z</time>
      </trkpt>
      <trkpt lat="47.50325" lon="6.76728">
        <ele>398</ele>
        <time>2016-12-11T08:27:02.999Z</time>
      </trkpt>
      <trkpt lat="47.5032" lon="6.76731">
        <ele>398</ele>
        <time>2016-12-11T08:27:03.999Z</time>
      </trkpt>
      <trkpt lat="47.50316" lon="6.76732">
        <ele>398</ele>
        <time>2016-12-11T08:27:04.999Z</time>
      </trkpt>
      <trkpt lat="47.50313" lon="6.76734">
        <ele>398</ele>
        <time>2016-12-11T08:27:05.999Z</time>
      </trkpt>
      <trkpt lat="47.50309" lon="6.76734">
        <ele>398</ele>
        <time>2016-12-11T08:27:06.999Z</time>
      </trkpt>
      <trkpt lat="47.50305" lon="6.76735">
        <ele>398</ele>
        <time>2016-12-11T08:27:07.999Z</time>
      </trkpt>
      <trkpt lat="47.50301" lon="6.76736">
        <ele>399</ele>
        <time>2016-12-11T08:27:09.000Z</time>
      </trkpt>
      <trkpt lat="47.50299" lon="6.76737">
        <ele>399</ele>
        <time>2016-12-11T08:27:09.999Z</time>
      </trkpt>
      <trkpt lat="47.50295" lon="6.76738">
        <ele>399</ele>
        <time>2016-12-11T08:27:10.999Z</time>
      </trkpt>
      <trkpt lat="47.5029" lon="6.76739">
        <ele>399</ele>
        <time>2016-12-11T08:27:12.000Z</time>
      </trkpt>
      <trkpt lat="47.50285" lon="6.7674">
        <ele>399</ele>
        <time>2016-12-11T08:27:13.000Z</time>
      </trkpt>
      <trkpt lat="47.50281" lon="6.7674">
        <ele>399</ele>
        <time>2016-12-11T08:27:14.000Z</time>
      </trkpt>
      <trkpt lat="47.50277" lon="6.7674">
        <ele>399</ele>
        <time>2016-12-11T08:27:15.000Z</time>
      </trkpt>
      <trkpt lat="47.50275" lon="6.76741">
        <ele>399</ele>
        <time>2016-12-11T08:27:16.000Z</time>
      </trkpt>
      <trkpt lat="47.50272" lon="6.76742">
        <ele>399</ele>
        <time>2016-12-11T08:27:17.000Z</time>
      </trkpt>
      <trkpt lat="47.50268" lon="6.76743">
        <ele>399</ele>
        <time>2016-12-11T08:27:18.000Z</time>
      </trkpt>
      <trkpt lat="47.50264" lon="6.76744">
        <ele>399</ele>
        <time>2016-12-11T08:27:19.000Z</time>
      </trkpt>
      <trkpt lat="47.50261" lon="6.76745">
        <ele>399</ele>
        <time>2016-12-11T08:27:20.000Z</time>
      </trkpt>
      <trkpt lat="47.50257" lon="6.76747">
        <ele>400</ele>
        <time>2016-12-11T08:27:21.000Z</time>
      </trkpt>
      <trkpt lat="47.50254" lon="6.76747">
        <ele>400</ele>
        <time>2016-12-11T08:27:22.000Z</time>
      </trkpt>
      <trkpt lat="47.5025" lon="6.76747">
        <ele>400</ele>
        <time>2016-12-11T08:27:23.000Z</time>
      </trkpt>
      <trkpt lat="47.50245" lon="6.76744">
        <ele>401</ele>
        <time>2016-12-11T08:27:24.000Z</time>
      </trkpt>
      <trkpt lat="47.50243" lon="6.76742">
        <ele>401</ele>
        <time>2016-12-11T08:27:25.000Z</time>
      </trkpt>
      <trkpt lat="47.50241" lon="6.76737">
        <ele>401</ele>
        <time>2016-12-11T08:27:26.000Z</time>
      </trkpt>
      <trkpt lat="47.50239" lon="6.76733">
        <ele>401</ele>
        <time>2016-12-11T08:27:27.000Z</time>
      </trkpt>
      <trkpt lat="47.50237" lon="6.7673">
        <ele>401</ele>
        <time>2016-12-11T08:27:28.000Z</time>
      </trkpt>
      <trkpt lat="47.50235" lon="6.76725">
        <ele>401</ele>
        <time>2016-12-11T08:27:29.000Z</time>
      </trkpt>
      <trkpt lat="47.50233" lon="6.7672">
        <ele>402</ele>
        <time>2016-12-11T08:27:30.000Z</time>
      </trkpt>
      <trkpt lat="47.50231" lon="6.76715">
        <ele>402</ele>
        <time>2016-12-11T08:27:31.000Z</time>
      </trkpt>
      <trkpt lat="47.50229" lon="6.7671">
        <ele>402</ele>
        <time>2016-12-11T08:27:32.000Z</time>
      </trkpt>
      <trkpt lat="47.50227" lon="6.76706">
        <ele>402</ele>
        <time>2016-12-11T08:27:33.000Z</time>
      </trkpt>
      <trkpt lat="47.50225" lon="6.76702">
        <ele>402</ele>
        <time>2016-12-11T08:27:34.000Z</time>
      </trkpt>
      <trkpt lat="47.50224" lon="6.76697">
        <ele>402</ele>
        <time>2016-12-11T08:27:35.000Z</time>
      </trkpt>
      <trkpt lat="47.50223" lon="6.76692">
        <ele>402</ele>
        <time>2016-12-11T08:27:36.000Z</time>
      </trkpt>
      <trkpt lat="47.50221" lon="6.76687">
        <ele>402</ele>
        <time>2016-12-11T08:27:37.000Z</time>
      </trkpt>
      <trkpt lat="47.5022" lon="6.76683">
        <ele>402</ele>
        <time>2016-12-11T08:27:38.000Z</time>
      </trkpt>
      <trkpt lat="47.50218" lon="6.76677">
        <ele>402</ele>
        <time>2016-12-11T08:27:39.000Z</time>
      </trkpt>
      <trkpt lat="47.50218" lon="6.76673">
        <ele>402</ele>
        <time>2016-12-11T08:27:40.000Z</time>
      </trkpt>
      <trkpt lat="47.50216" lon="6.76667">
        <ele>402</ele>
        <time>2016-12-11T08:27:41.000Z</time>
      </trkpt>
      <trkpt lat="47.50214" lon="6.76663">
        <ele>402</ele>
        <time>2016-12-11T08:27:42.000Z</time>
      </trkpt>
      <trkpt lat="47.50213" lon="6.76658">
        <ele>402</ele>
        <time>2016-12-11T08:27:43.000Z</time>
      </trkpt>
      <trkpt lat="47.50211" lon="6.76652">
        <ele>402</ele>
        <time>2016-12-11T08:27:44.000Z</time>
      </trkpt>
      <trkpt lat="47.50209" lon="6.76646">
        <ele>402</ele>
        <time>2016-12-11T08:27:45.000Z</time>
      </trkpt>
      <trkpt lat="47.50207" lon="6.76641">
        <ele>402</ele>
        <time>2016-12-11T08:27:46.000Z</time>
      </trkpt>
      <trkpt lat="47.50205" lon="6.76635">
        <ele>402</ele>
        <time>2016-12-11T08:27:47.000Z</time>
      </trkpt>
      <trkpt lat="47.50203" lon="6.76629">
        <ele>402</ele>
        <time>2016-12-11T08:27:48.000Z</time>
      </trkpt>
      <trkpt lat="47.50201" lon="6.76625">
        <ele>402</ele>
        <time>2016-12-11T08:27:49.000Z</time>
      </trkpt>
      <trkpt lat="47.50199" lon="6.76619">
        <ele>402</ele>
        <time>2016-12-11T08:27:50.000Z</time>
      </trkpt>
      <trkpt lat="47.50197" lon="6.76613">
        <ele>403</ele>
        <time>2016-12-11T08:27:51.000Z</time>
      </trkpt>
      <trkpt lat="47.50196" lon="6.76609">
        <ele>403</ele>
        <time>2016-12-11T08:27:52.000Z</time>
      </trkpt>
      <trkpt lat="47.50195" lon="6.76604">
        <ele>403</ele>
        <time>2016-12-11T08:27:53.000Z</time>
      </trkpt>
      <trkpt lat="47.50195" lon="6.76598">
        <ele>403</ele>
        <time>2016-12-11T08:27:54.000Z</time>
      </trkpt>
      <trkpt lat="47.50195" lon="6.76595">
        <ele>403</ele>
        <time>2016-12-11T08:27:55.000Z</time>
      </trkpt>
      <trkpt lat="47.50195" lon="6.76589">
        <ele>403</ele>
        <time>2016-12-11T08:27:56.000Z</time>
      </trkpt>
      <trkpt lat="47.50194" lon="6.76583">
        <ele>403</ele>
        <time>2016-12-11T08:27:57.000Z</time>
      </trkpt>
      <trkpt lat="47.50194" lon="6.76576">
        <ele>403</ele>
        <time>2016-12-11T08:27:58.000Z</time>
      </trkpt>
      <trkpt lat="47.50196" lon="6.76571">
        <ele>402</ele>
        <time>2016-12-11T08:27:59.000Z</time>
      </trkpt>
      <trkpt lat="47.50201" lon="6.76567">
        <ele>402</ele>
        <time>2016-12-11T08:28:00.000Z</time>
      </trkpt>
      <trkpt lat="47.50204" lon="6.76566">
        <ele>402</ele>
        <time>2016-12-11T08:28:01.000Z</time>
      </trkpt>
      <trkpt lat="47.50209" lon="6.76566">
        <ele>401</ele>
        <time>2016-12-11T08:28:02.000Z</time>
      </trkpt>
      <trkpt lat="47.5021" lon="6.76564">
        <ele>401</ele>
        <time>2016-12-11T08:28:03.000Z</time>
      </trkpt>
      <trkpt lat="47.50213" lon="6.76561">
        <ele>401</ele>
        <time>2016-12-11T08:28:04.000Z</time>
      </trkpt>
      <trkpt lat="47.50217" lon="6.76557">
        <ele>400</ele>
        <time>2016-12-11T08:28:05.000Z</time>
      </trkpt>
      <trkpt lat="47.5022" lon="6.76551">
        <ele>400</ele>
        <time>2016-12-11T08:28:06.000Z</time>
      </trkpt>
      <trkpt lat="47.50221" lon="6.76546">
        <ele>400</ele>
        <time>2016-12-11T08:28:07.000Z</time>
      </trkpt>
      <trkpt lat="47.5022" lon="6.76542">
        <ele>400</ele>
        <time>2016-12-11T08:28:08.000Z</time>
      </trkpt>
      <trkpt lat="47.50218" lon="6.76539">
        <ele>400</ele>
        <time>2016-12-11T08:28:09.000Z</time>
      </trkpt>
      <trkpt lat="47.50217" lon="6.76532">
        <ele>400</ele>
        <time>2016-12-11T08:28:10.000Z</time>
      </trkpt>
      <trkpt lat="47.50215" lon="6.76527">
        <ele>400</ele>
        <time>2016-12-11T08:28:11.000Z</time>
      </trkpt>
      <trkpt lat="47.50213" lon="6.7652">
        <ele>400</ele>
        <time>2016-12-11T08:28:12.000Z</time>
      </trkpt>
      <trkpt lat="47.50209" lon="6.76514">
        <ele>400</ele>
        <time>2016-12-11T08:28:13.000Z</time>
      </trkpt>
      <trkpt lat="47.50206" lon="6.76509">
        <ele>400</ele>
        <time>2016-12-11T08:28:14.000Z</time>
      </trkpt>
      <trkpt lat="47.50203" lon="6.76503">
        <ele>401</ele>
        <time>2016-12-11T08:28:15.000Z</time>
      </trkpt>
      <trkpt lat="47.50201" lon="6.76495">
        <ele>398</ele>
        <time>2016-12-11T08:28:16.000Z</time>
      </trkpt>
      <trkpt lat="47.50198" lon="6.76487">
        <ele>398</ele>
        <time>2016-12-11T08:28:17.000Z</time>
      </trkpt>
      <trkpt lat="47.50196" lon="6.76477">
        <ele>397</ele>
        <time>2016-12-11T08:28:18.000Z</time>
      </trkpt>
      <trkpt lat="47.50194" lon="6.76469">
        <ele>397</ele>
        <time>2016-12-11T08:28:19.000Z</time>
      </trkpt>
      <trkpt lat="47.50191" lon="6.7646">
        <ele>397</ele>
        <time>2016-12-11T08:28:20.000Z</time>
      </trkpt>
      <trkpt lat="47.50189" lon="6.76449">
        <ele>396</ele>
        <time>2016-12-11T08:28:21.000Z</time>
      </trkpt>
      <trkpt lat="47.50186" lon="6.7644">
        <ele>397</ele>
        <time>2016-12-11T08:28:22.000Z</time>
      </trkpt>
      <trkpt lat="47.50183" lon="6.76431">
        <ele>397</ele>
        <time>2016-12-11T08:28:23.000Z</time>
      </trkpt>
      <trkpt lat="47.5018" lon="6.76424">
        <ele>397</ele>
        <time>2016-12-11T08:28:24.000Z</time>
      </trkpt>
      <trkpt lat="47.50177" lon="6.76416">
        <ele>396</ele>
        <time>2016-12-11T08:28:25.000Z</time>
      </trkpt>
      <trkpt lat="47.50175" lon="6.76407">
        <ele>395</ele>
        <time>2016-12-11T08:28:26.000Z</time>
      </trkpt>
      <trkpt lat="47.50172" lon="6.76397">
        <ele>394</ele>
        <time>2016-12-11T08:28:27.000Z</time>
      </trkpt>
      <trkpt lat="47.5017" lon="6.76388">
        <ele>392</ele>
        <time>2016-12-11T08:28:28.000Z</time>
      </trkpt>
      <trkpt lat="47.50166" lon="6.76377">
        <ele>400</ele>
        <time>2016-12-11T08:28:29.000Z</time>
      </trkpt>
      <trkpt lat="47.50163" lon="6.76367">
        <ele>399</ele>
        <time>2016-12-11T08:28:30.000Z</time>
      </trkpt>
      <trkpt lat="47.5016" lon="6.76358">
        <ele>398</ele>
        <time>2016-12-11T08:28:31.000Z</time>
      </trkpt>
      <trkpt lat="47.50157" lon="6.76348">
        <ele>397</ele>
        <time>2016-12-11T08:28:32.000Z</time>
      </trkpt>
      <trkpt lat="47.50155" lon="6.7634">
        <ele>396</ele>
        <time>2016-12-11T08:28:33.000Z</time>
      </trkpt>
      <trkpt lat="47.50153" lon="6.76331">
        <ele>394</ele>
        <time>2016-12-11T08:28:34.000Z</time>
      </trkpt>
      <trkpt lat="47.5015" lon="6.76321">
        <ele>395</ele>
        <time>2016-12-11T08:28:35.000Z</time>
      </trkpt>
      <trkpt lat="47.50148" lon="6.76312">
        <ele>395</ele>
        <time>2016-12-11T08:28:36.000Z</time>
      </trkpt>
      <trkpt lat="47.50145" lon="6.76304">
        <ele>396</ele>
        <time>2016-12-11T08:28:37.000Z</time>
      </trkpt>
      <trkpt lat="47.50143" lon="6.76296">
        <ele>396</ele>
        <time>2016-12-11T08:28:38.000Z</time>
      </trkpt>
      <trkpt lat="47.5014" lon="6.76286">
        <ele>396</ele>
        <time>2016-12-11T08:28:39.000Z</time>
      </trkpt>
      <trkpt lat="47.50139" lon="6.76278">
        <ele>395</ele>
        <time>2016-12-11T08:28:40.000Z</time>
      </trkpt>
      <trkpt lat="47.50137" lon="6.76269">
        <ele>395</ele>
        <time>2016-12-11T08:28:41.000Z</time>
      </trkpt>
      <trkpt lat="47.50135" lon="6.7626">
        <ele>395</ele>
        <time>2016-12-11T08:28:42.000Z</time>
      </trkpt>
      <trkpt lat="47.50133" lon="6.7625">
        <ele>391</ele>
        <time>2016-12-11T08:28:43.000Z</time>
      </trkpt>
      <trkpt lat="47.50132" lon="6.7624">
        <ele>391</ele>
        <time>2016-12-11T08:28:44.000Z</time>
      </trkpt>
      <trkpt lat="47.50131" lon="6.76228">
        <ele>391</ele>
        <time>2016-12-11T08:28:45.000Z</time>
      </trkpt>
      <trkpt lat="47.50129" lon="6.76214">
        <ele>390</ele>
        <time>2016-12-11T08:28:46.000Z</time>
      </trkpt>
      <trkpt lat="47.50128" lon="6.76202">
        <ele>390</ele>
        <time>2016-12-11T08:28:47.000Z</time>
      </trkpt>
      <trkpt lat="47.50126" lon="6.76189">
        <ele>390</ele>
        <time>2016-12-11T08:28:48.000Z</time>
      </trkpt>
      <trkpt lat="47.50123" lon="6.76176">
        <ele>389</ele>
        <time>2016-12-11T08:28:49.000Z</time>
      </trkpt>
      <trkpt lat="47.50121" lon="6.76163">
        <ele>386</ele>
        <time>2016-12-11T08:28:50.000Z</time>
      </trkpt>
      <trkpt lat="47.5012" lon="6.76151">
        <ele>385</ele>
        <time>2016-12-11T08:28:51.000Z</time>
      </trkpt>
      <trkpt lat="47.50119" lon="6.76136">
        <ele>385</ele>
        <time>2016-12-11T08:28:52.000Z</time>
      </trkpt>
      <trkpt lat="47.50116" lon="6.76123">
        <ele>385</ele>
        <time>2016-12-11T08:28:53.000Z</time>
      </trkpt>
      <trkpt lat="47.50114" lon="6.761">
        <ele>385</ele>
        <time>2016-12-11T08:28:54.000Z</time>
      </trkpt>
      <trkpt lat="47.50112" lon="6.7609">
        <ele>385</ele>
        <time>2016-12-11T08:28:55.000Z</time>
      </trkpt>
      <trkpt lat="47.5011" lon="6.76077">
        <ele>382</ele>
        <time>2016-12-11T08:28:56.000Z</time>
      </trkpt>
      <trkpt lat="47.50107" lon="6.76066">
        <ele>381</ele>
        <time>2016-12-11T08:28:57.000Z</time>
      </trkpt>
      <trkpt lat="47.50106" lon="6.76054">
        <ele>381</ele>
        <time>2016-12-11T08:28:58.000Z</time>
      </trkpt>
      <trkpt lat="47.50104" lon="6.76042">
        <ele>380</ele>
        <time>2016-12-11T08:28:59.000Z</time>
      </trkpt>
      <trkpt lat="47.50101" lon="6.76027">
        <ele>379</ele>
        <time>2016-12-11T08:29:00.000Z</time>
      </trkpt>
      <trkpt lat="47.50099" lon="6.76016">
        <ele>379</ele>
        <time>2016-12-11T08:29:01.000Z</time>
      </trkpt>
      <trkpt lat="47.50097" lon="6.76004">
        <ele>379</ele>
        <time>2016-12-11T08:29:02.000Z</time>
      </trkpt>
      <trkpt lat="47.50095" lon="6.75994">
        <ele>377</ele>
        <time>2016-12-11T08:29:03.000Z</time>
      </trkpt>
      <trkpt lat="47.5009" lon="6.75985">
        <ele>376</ele>
        <time>2016-12-11T08:29:04.000Z</time>
      </trkpt>
      <trkpt lat="47.50082" lon="6.75974">
        <ele>379</ele>
        <time>2016-12-11T08:29:05.000Z</time>
      </trkpt>
      <trkpt lat="47.50077" lon="6.75968">
        <ele>379</ele>
        <time>2016-12-11T08:29:06.000Z</time>
      </trkpt>
      <trkpt lat="47.50073" lon="6.75962">
        <ele>378</ele>
        <time>2016-12-11T08:29:07.000Z</time>
      </trkpt>
      <trkpt lat="47.50069" lon="6.75956">
        <ele>378</ele>
        <time>2016-12-11T08:29:08.000Z</time>
      </trkpt>
      <trkpt lat="47.50065" lon="6.75949">
        <ele>378</ele>
        <time>2016-12-11T08:29:09.000Z</time>
      </trkpt>
      <trkpt lat="47.50059" lon="6.75939">
        <ele>378</ele>
        <time>2016-12-11T08:29:10.000Z</time>
      </trkpt>
      <trkpt lat="47.50054" lon="6.7593">
        <ele>377</ele>
        <time>2016-12-11T08:29:11.000Z</time>
      </trkpt>
      <trkpt lat="47.50049" lon="6.75922">
        <ele>377</ele>
        <time>2016-12-11T08:29:12.000Z</time>
      </trkpt>
      <trkpt lat="47.50043" lon="6.75915">
        <ele>376</ele>
        <time>2016-12-11T08:29:13.000Z</time>
      </trkpt>
      <trkpt lat="47.50039" lon="6.75908">
        <ele>376</ele>
        <time>2016-12-11T08:29:14.000Z</time>
      </trkpt>
      <trkpt lat="47.50035" lon="6.75902">
        <ele>376</ele>
        <time>2016-12-11T08:29:15.000Z</time>
      </trkpt>
      <trkpt lat="47.5003" lon="6.75891">
        <ele>376</ele>
        <time>2016-12-11T08:29:16.000Z</time>
      </trkpt>
      <trkpt lat="47.50025" lon="6.75882">
        <ele>376</ele>
        <time>2016-12-11T08:29:17.000Z</time>
      </trkpt>
      <trkpt lat="47.50019" lon="6.7587">
        <ele>377</ele>
        <time>2016-12-11T08:29:18.000Z</time>
      </trkpt>
      <trkpt lat="47.50013" lon="6.75862">
        <ele>377</ele>
        <time>2016-12-11T08:29:19.000Z</time>
      </trkpt>
      <trkpt lat="47.50008" lon="6.75856">
        <ele>377</ele>
        <time>2016-12-11T08:29:20.000Z</time>
      </trkpt>
      <trkpt lat="47.50006" lon="6.75848">
        <ele>378</ele>
        <time>2016-12-11T08:29:21.000Z</time>
      </trkpt>
      <trkpt lat="47.50002" lon="6.75838">
        <ele>378</ele>
        <time>2016-12-11T08:29:22.000Z</time>
      </trkpt>
      <trkpt lat="47.49998" lon="6.75831">
        <ele>378</ele>
        <time>2016-12-11T08:29:23.000Z</time>
      </trkpt>
      <trkpt lat="47.49993" lon="6.75823">
        <ele>377</ele>
        <time>2016-12-11T08:29:24.000Z</time>
      </trkpt>
      <trkpt lat="47.49989" lon="6.75815">
        <ele>376</ele>
        <time>2016-12-11T08:29:25.000Z</time>
      </trkpt>
      <trkpt lat="47.49985" lon="6.75808">
        <ele>375</ele>
        <time>2016-12-11T08:29:26.000Z</time>
      </trkpt>
      <trkpt lat="47.49981" lon="6.75802">
        <ele>375</ele>
        <time>2016-12-11T08:29:27.000Z</time>
      </trkpt>
      <trkpt lat="47.49976" lon="6.75794">
        <ele>375</ele>
        <time>2016-12-11T08:29:28.000Z</time>
      </trkpt>
      <trkpt lat="47.49973" lon="6.75789">
        <ele>374</ele>
        <time>2016-12-11T08:29:29.000Z</time>
      </trkpt>
      <trkpt lat="47.4997" lon="6.75782">
        <ele>374</ele>
        <time>2016-12-11T08:29:30.000Z</time>
      </trkpt>
      <trkpt lat="47.49965" lon="6.75776">
        <ele>374</ele>
        <time>2016-12-11T08:29:31.000Z</time>
      </trkpt>
      <trkpt lat="47.49959" lon="6.75772">
        <ele>374</ele>
        <time>2016-12-11T08:29:32.000Z</time>
      </trkpt>
      <trkpt lat="47.49954" lon="6.75767">
        <ele>373</ele>
        <time>2016-12-11T08:29:33.000Z</time>
      </trkpt>
      <trkpt lat="47.49949" lon="6.75763">
        <ele>373</ele>
        <time>2016-12-11T08:29:34.000Z</time>
      </trkpt>
      <trkpt lat="47.49943" lon="6.75757">
        <ele>372</ele>
        <time>2016-12-11T08:29:35.000Z</time>
      </trkpt>
      <trkpt lat="47.49936" lon="6.75751">
        <ele>372</ele>
        <time>2016-12-11T08:29:36.000Z</time>
      </trkpt>
      <trkpt lat="47.49931" lon="6.75741">
        <ele>370</ele>
        <time>2016-12-11T08:29:37.000Z</time>
      </trkpt>
      <trkpt lat="47.49924" lon="6.7573">
        <ele>370</ele>
        <time>2016-12-11T08:29:38.000Z</time>
      </trkpt>
      <trkpt lat="47.49918" lon="6.75722">
        <ele>370</ele>
        <time>2016-12-11T08:29:39.000Z</time>
      </trkpt>
      <trkpt lat="47.4991" lon="6.75716">
        <ele>365</ele>
        <time>2016-12-11T08:29:40.000Z</time>
      </trkpt>
      <trkpt lat="47.499" lon="6.75714">
        <ele>364</ele>
        <time>2016-12-11T08:29:41.000Z</time>
      </trkpt>
      <trkpt lat="47.49891" lon="6.75715">
        <ele>364</ele>
        <time>2016-12-11T08:29:42.000Z</time>
      </trkpt>
      <trkpt lat="47.49881" lon="6.75718">
        <ele>363</ele>
        <time>2016-12-11T08:29:43.000Z</time>
      </trkpt>
      <trkpt lat="47.49872" lon="6.75721">
        <ele>363</ele>
        <time>2016-12-11T08:29:44.000Z</time>
      </trkpt>
      <trkpt lat="47.49865" lon="6.75723">
        <ele>362</ele>
        <time>2016-12-11T08:29:45.000Z</time>
      </trkpt>
      <trkpt lat="47.49857" lon="6.75726">
        <ele>362</ele>
        <time>2016-12-11T08:29:46.000Z</time>
      </trkpt>
      <trkpt lat="47.49849" lon="6.75728">
        <ele>361</ele>
        <time>2016-12-11T08:29:47.000Z</time>
      </trkpt>
      <trkpt lat="47.4984" lon="6.75731">
        <ele>361</ele>
        <time>2016-12-11T08:29:48.000Z</time>
      </trkpt>
      <trkpt lat="47.49832" lon="6.75733">
        <ele>355</ele>
        <time>2016-12-11T08:29:49.000Z</time>
      </trkpt>
      <trkpt lat="47.49821" lon="6.75736">
        <ele>355</ele>
        <time>2016-12-11T08:29:50.000Z</time>
      </trkpt>
      <trkpt lat="47.49812" lon="6.75738">
        <ele>354</ele>
        <time>2016-12-11T08:29:51.000Z</time>
      </trkpt>
      <trkpt lat="47.49804" lon="6.75741">
        <ele>353</ele>
        <time>2016-12-11T08:29:52.000Z</time>
      </trkpt>
      <trkpt lat="47.49794" lon="6.75744">
        <ele>352</ele>
        <time>2016-12-11T08:29:53.000Z</time>
      </trkpt>
      <trkpt lat="47.49783" lon="6.75748">
        <ele>352</ele>
        <time>2016-12-11T08:29:54.000Z</time>
      </trkpt>
      <trkpt lat="47.49773" lon="6.75752">
        <ele>357</ele>
        <time>2016-12-11T08:29:55.000Z</time>
      </trkpt>
      <trkpt lat="47.49763" lon="6.75755">
        <ele>355</ele>
        <time>2016-12-11T08:29:56.000Z</time>
      </trkpt>
      <trkpt lat="47.49754" lon="6.75758">
        <ele>354</ele>
        <time>2016-12-11T08:29:57.000Z</time>
      </trkpt>
      <trkpt lat="47.49746" lon="6.7576">
        <ele>352</ele>
        <time>2016-12-11T08:29:58.000Z</time>
      </trkpt>
      <trkpt lat="47.49737" lon="6.75764">
        <ele>353</ele>
        <time>2016-12-11T08:29:59.000Z</time>
      </trkpt>
      <trkpt lat="47.49728" lon="6.75766">
        <ele>353</ele>
        <time>2016-12-11T08:30:00.000Z</time>
      </trkpt>
      <trkpt lat="47.4972" lon="6.75769">
        <ele>353</ele>
        <time>2016-12-11T08:30:01.000Z</time>
      </trkpt>
      <trkpt lat="47.49711" lon="6.75773">
        <ele>353</ele>
        <time>2016-12-11T08:30:02.000Z</time>
      </trkpt>
      <trkpt lat="47.49703" lon="6.75776">
        <ele>353</ele>
        <time>2016-12-11T08:30:03.000Z</time>
      </trkpt>
      <trkpt lat="47.49695" lon="6.75778">
        <ele>353</ele>
        <time>2016-12-11T08:30:04.000Z</time>
      </trkpt>
      <trkpt lat="47.49688" lon="6.7578">
        <ele>353</ele>
        <time>2016-12-11T08:30:05.000Z</time>
      </trkpt>
      <trkpt lat="47.49682" lon="6.75782">
        <ele>352</ele>
        <time>2016-12-11T08:30:06.000Z</time>
      </trkpt>
      <trkpt lat="47.49678" lon="6.75784">
        <ele>353</ele>
        <time>2016-12-11T08:30:07.000Z</time>
      </trkpt>
      <trkpt lat="47.49672" lon="6.75785">
        <ele>353</ele>
        <time>2016-12-11T08:30:08.000Z</time>
      </trkpt>
      <trkpt lat="47.49666" lon="6.75786">
        <ele>347</ele>
        <time>2016-12-11T08:30:09.000Z</time>
      </trkpt>
      <trkpt lat="47.49661" lon="6.75788">
        <ele>347</ele>
        <time>2016-12-11T08:30:10.000Z</time>
      </trkpt>
      <trkpt lat="47.49654" lon="6.75788">
        <ele>347</ele>
        <time>2016-12-11T08:30:11.000Z</time>
      </trkpt>
      <trkpt lat="47.49647" lon="6.75788">
        <ele>347</ele>
        <time>2016-12-11T08:30:12.000Z</time>
      </trkpt>
      <trkpt lat="47.4964" lon="6.7579">
        <ele>347</ele>
        <time>2016-12-11T08:30:13.000Z</time>
      </trkpt>
      <trkpt lat="47.49634" lon="6.75792">
        <ele>347</ele>
        <time>2016-12-11T08:30:14.000Z</time>
      </trkpt>
      <trkpt lat="47.4963" lon="6.75792">
        <ele>347</ele>
        <time>2016-12-11T08:30:15.000Z</time>
      </trkpt>
      <trkpt lat="47.49627" lon="6.75793">
        <ele>346</ele>
        <time>2016-12-11T08:30:16.000Z</time>
      </trkpt>
      <trkpt lat="47.49623" lon="6.7579">
        <ele>346</ele>
        <time>2016-12-11T08:30:24.000Z</time>
      </trkpt>
      <trkpt lat="47.49613" lon="6.75782">
        <ele>345</ele>
        <time>2016-12-11T08:30:25.000Z</time>
      </trkpt>
      <trkpt lat="47.49613" lon="6.75782">
        <ele>345</ele>
        <time>2016-12-11T08:30:26.000Z</time>
      </trkpt>
      <trkpt lat="47.49605" lon="6.75779">
        <ele>344</ele>
        <time>2016-12-11T08:30:27.000Z</time>
      </trkpt>
      <trkpt lat="47.496" lon="6.75779">
        <ele>343</ele>
        <time>2016-12-11T08:30:28.000Z</time>
      </trkpt>
      <trkpt lat="47.49596" lon="6.75778">
        <ele>343</ele>
        <time>2016-12-11T08:30:29.000Z</time>
      </trkpt>
      <trkpt lat="47.49592" lon="6.75778">
        <ele>343</ele>
        <time>2016-12-11T08:30:30.000Z</time>
      </trkpt>
      <trkpt lat="47.49588" lon="6.75778">
        <ele>342</ele>
        <time>2016-12-11T08:30:31.000Z</time>
      </trkpt>
      <trkpt lat="47.49586" lon="6.75774">
        <ele>342</ele>
        <time>2016-12-11T08:30:32.000Z</time>
      </trkpt>
      <trkpt lat="47.49582" lon="6.75773">
        <ele>336</ele>
        <time>2016-12-11T08:30:33.000Z</time>
      </trkpt>
      <trkpt lat="47.49574" lon="6.7577">
        <ele>336</ele>
        <time>2016-12-11T08:30:34.000Z</time>
      </trkpt>
      <trkpt lat="47.49569" lon="6.75766">
        <ele>335</ele>
        <time>2016-12-11T08:30:35.000Z</time>
      </trkpt>
      <trkpt lat="47.49565" lon="6.75761">
        <ele>335</ele>
        <time>2016-12-11T08:30:36.000Z</time>
      </trkpt>
      <trkpt lat="47.49565" lon="6.75756">
        <ele>335</ele>
        <time>2016-12-11T08:30:38.000Z</time>
      </trkpt>
      <trkpt lat="47.49568" lon="6.75751">
        <ele>335</ele>
        <time>2016-12-11T08:30:39.000Z</time>
      </trkpt>
      <trkpt lat="47.49571" lon="6.75748">
        <ele>330</ele>
        <time>2016-12-11T08:30:40.000Z</time>
      </trkpt>
      <trkpt lat="47.49574" lon="6.75743">
        <ele>331</ele>
        <time>2016-12-11T08:30:41.000Z</time>
      </trkpt>
      <trkpt lat="47.49577" lon="6.75739">
        <ele>330</ele>
        <time>2016-12-11T08:30:42.000Z</time>
      </trkpt>
      <trkpt lat="47.49582" lon="6.75733">
        <ele>329</ele>
        <time>2016-12-11T08:30:43.000Z</time>
      </trkpt>
      <trkpt lat="47.49586" lon="6.75727">
        <ele>332</ele>
        <time>2016-12-11T08:30:44.000Z</time>
      </trkpt>
      <trkpt lat="47.49592" lon="6.7572">
        <ele>331</ele>
        <time>2016-12-11T08:30:45.000Z</time>
      </trkpt>
      <trkpt lat="47.49595" lon="6.75713">
        <ele>331</ele>
        <time>2016-12-11T08:30:46.000Z</time>
      </trkpt>
      <trkpt lat="47.49596" lon="6.75705">
        <ele>330</ele>
        <time>2016-12-11T08:30:47.000Z</time>
      </trkpt>
      <trkpt lat="47.49595" lon="6.75696">
        <ele>329</ele>
        <time>2016-12-11T08:30:48.000Z</time>
      </trkpt>
      <trkpt lat="47.49593" lon="6.75688">
        <ele>327</ele>
        <time>2016-12-11T08:30:49.000Z</time>
      </trkpt>
      <trkpt lat="47.4959" lon="6.75681">
        <ele>326</ele>
        <time>2016-12-11T08:30:50.000Z</time>
      </trkpt>
      <trkpt lat="47.49586" lon="6.75674">
        <ele>324</ele>
        <time>2016-12-11T08:30:51.000Z</time>
      </trkpt>
      <trkpt lat="47.49581" lon="6.75668">
        <ele>321</ele>
        <time>2016-12-11T08:30:52.000Z</time>
      </trkpt>
      <trkpt lat="47.49575" lon="6.75668">
        <ele>322</ele>
        <time>2016-12-11T08:30:53.000Z</time>
      </trkpt>
      <trkpt lat="47.4957" lon="6.75672">
        <ele>323</ele>
        <time>2016-12-11T08:30:54.000Z</time>
      </trkpt>
      <trkpt lat="47.49566" lon="6.75677">
        <ele>323</ele>
        <time>2016-12-11T08:30:55.000Z</time>
      </trkpt>
      <trkpt lat="47.49562" lon="6.75682">
        <ele>324</ele>
        <time>2016-12-11T08:30:56.000Z</time>
      </trkpt>
      <trkpt lat="47.49557" lon="6.75689">
        <ele>324</ele>
        <time>2016-12-11T08:30:57.000Z</time>
      </trkpt>
      <trkpt lat="47.49552" lon="6.75696">
        <ele>325</ele>
        <time>2016-12-11T08:30:58.000Z</time>
      </trkpt>
      <trkpt lat="47.49548" lon="6.75702">
        <ele>325</ele>
        <time>2016-12-11T08:30:59.000Z</time>
      </trkpt>
      <trkpt lat="47.49544" lon="6.75708">
        <ele>325</ele>
        <time>2016-12-11T08:31:00.000Z</time>
      </trkpt>
      <trkpt lat="47.49539" lon="6.75713">
        <ele>325</ele>
        <time>2016-12-11T08:31:01.000Z</time>
      </trkpt>
      <trkpt lat="47.49534" lon="6.75717">
        <ele>325</ele>
        <time>2016-12-11T08:31:02.000Z</time>
      </trkpt>
      <trkpt lat="47.49528" lon="6.75721">
        <ele>325</ele>
        <time>2016-12-11T08:31:03.000Z</time>
      </trkpt>
      <trkpt lat="47.49523" lon="6.75725">
        <ele>325</ele>
        <time>2016-12-11T08:31:04.000Z</time>
      </trkpt>
      <trkpt lat="47.49517" lon="6.75728">
        <ele>325</ele>
        <time>2016-12-11T08:31:05.000Z</time>
      </trkpt>
      <trkpt lat="47.49511" lon="6.75732">
        <ele>325</ele>
        <time>2016-12-11T08:31:06.000Z</time>
      </trkpt>
      <trkpt lat="47.49505" lon="6.75736">
        <ele>325</ele>
        <time>2016-12-11T08:31:07.000Z</time>
      </trkpt>
      <trkpt lat="47.49499" lon="6.7574">
        <ele>323</ele>
        <time>2016-12-11T08:31:08.000Z</time>
      </trkpt>
      <trkpt lat="47.49493" lon="6.75742">
        <ele>323</ele>
        <time>2016-12-11T08:31:09.000Z</time>
      </trkpt>
      <trkpt lat="47.49488" lon="6.75741">
        <ele>323</ele>
        <time>2016-12-11T08:31:10.000Z</time>
      </trkpt>
      <trkpt lat="47.49484" lon="6.75737">
        <ele>322</ele>
        <time>2016-12-11T08:31:11.000Z</time>
      </trkpt>
      <trkpt lat="47.4948" lon="6.75731">
        <ele>322</ele>
        <time>2016-12-11T08:31:12.000Z</time>
      </trkpt>
      <trkpt lat="47.49477" lon="6.75724">
        <ele>322</ele>
        <time>2016-12-11T08:31:13.000Z</time>
      </trkpt>
      <trkpt lat="47.49475" lon="6.75718">
        <ele>321</ele>
        <time>2016-12-11T08:31:14.000Z</time>
      </trkpt>
      <trkpt lat="47.49473" lon="6.75712">
        <ele>321</ele>
        <time>2016-12-11T08:31:15.000Z</time>
      </trkpt>
      <trkpt lat="47.49471" lon="6.75704">
        <ele>321</ele>
        <time>2016-12-11T08:31:16.000Z</time>
      </trkpt>
      <trkpt lat="47.49467" lon="6.75699">
        <ele>321</ele>
        <time>2016-12-11T08:31:17.000Z</time>
      </trkpt>
      <trkpt lat="47.49463" lon="6.75697">
        <ele>321</ele>
        <time>2016-12-11T08:31:18.000Z</time>
      </trkpt>
      <trkpt lat="47.49457" lon="6.75698">
        <ele>321</ele>
        <time>2016-12-11T08:31:19.000Z</time>
      </trkpt>
      <trkpt lat="47.49452" lon="6.757">
        <ele>321</ele>
        <time>2016-12-11T08:31:20.000Z</time>
      </trkpt>
      <trkpt lat="47.49447" lon="6.75701">
        <ele>321</ele>
        <time>2016-12-11T08:31:21.000Z</time>
      </trkpt>
      <trkpt lat="47.49443" lon="6.75699">
        <ele>321</ele>
        <time>2016-12-11T08:31:22.000Z</time>
      </trkpt>
      <trkpt lat="47.49441" lon="6.75694">
        <ele>321</ele>
        <time>2016-12-11T08:31:23.000Z</time>
      </trkpt>
      <trkpt lat="47.49439" lon="6.75687">
        <ele>320</ele>
        <time>2016-12-11T08:31:24.000Z</time>
      </trkpt>
      <trkpt lat="47.49437" lon="6.75682">
        <ele>320</ele>
        <time>2016-12-11T08:31:25.000Z</time>
      </trkpt>
      <trkpt lat="47.49435" lon="6.75676">
        <ele>320</ele>
        <time>2016-12-11T08:31:26.000Z</time>
      </trkpt>
      <trkpt lat="47.49434" lon="6.75671">
        <ele>320</ele>
        <time>2016-12-11T08:31:27.000Z</time>
      </trkpt>
      <trkpt lat="47.4943" lon="6.75671">
        <ele>320</ele>
        <time>2016-12-11T08:31:28.000Z</time>
      </trkpt>
      <trkpt lat="47.49426" lon="6.75673">
        <ele>320</ele>
        <time>2016-12-11T08:31:29.000Z</time>
      </trkpt>
      <trkpt lat="47.49421" lon="6.75676">
        <ele>320</ele>
        <time>2016-12-11T08:31:30.000Z</time>
      </trkpt>
      <trkpt lat="47.49418" lon="6.75679">
        <ele>320</ele>
        <time>2016-12-11T08:31:31.000Z</time>
      </trkpt>
      <trkpt lat="47.49414" lon="6.75682">
        <ele>319</ele>
        <time>2016-12-11T08:31:32.000Z</time>
      </trkpt>
      <trkpt lat="47.49411" lon="6.75685">
        <ele>319</ele>
        <time>2016-12-11T08:31:33.000Z</time>
      </trkpt>
      <trkpt lat="47.49406" lon="6.75689">
        <ele>319</ele>
        <time>2016-12-11T08:31:34.000Z</time>
      </trkpt>
      <trkpt lat="47.49401" lon="6.75692">
        <ele>319</ele>
        <time>2016-12-11T08:31:35.000Z</time>
      </trkpt>
      <trkpt lat="47.49396" lon="6.75696">
        <ele>319</ele>
        <time>2016-12-11T08:31:36.000Z</time>
      </trkpt>
      <trkpt lat="47.49391" lon="6.75699">
        <ele>319</ele>
        <time>2016-12-11T08:31:37.000Z</time>
      </trkpt>
      <trkpt lat="47.49387" lon="6.75703">
        <ele>319</ele>
        <time>2016-12-11T08:31:38.000Z</time>
      </trkpt>
      <trkpt lat="47.49382" lon="6.75706">
        <ele>319</ele>
        <time>2016-12-11T08:31:39.000Z</time>
      </trkpt>
      <trkpt lat="47.49377" lon="6.7571">
        <ele>319</ele>
        <time>2016-12-11T08:31:40.000Z</time>
      </trkpt>
      <trkpt lat="47.49373" lon="6.75713">
        <ele>319</ele>
        <time>2016-12-11T08:31:41.000Z</time>
      </trkpt>
      <trkpt lat="47.49369" lon="6.75715">
        <ele>319</ele>
        <time>2016-12-11T08:31:42.000Z</time>
      </trkpt>
      <trkpt lat="47.49365" lon="6.75718">
        <ele>319</ele>
        <time>2016-12-11T08:31:43.000Z</time>
      </trkpt>
      <trkpt lat="47.49362" lon="6.7572">
        <ele>319</ele>
        <time>2016-12-11T08:31:44.000Z</time>
      </trkpt>
      <trkpt lat="47.49358" lon="6.75723">
        <ele>319</ele>
        <time>2016-12-11T08:31:45.000Z</time>
      </trkpt>
      <trkpt lat="47.49355" lon="6.75725">
        <ele>319</ele>
        <time>2016-12-11T08:31:46.000Z</time>
      </trkpt>
      <trkpt lat="47.49353" lon="6.75727">
        <ele>319</ele>
        <time>2016-12-11T08:31:47.000Z</time>
      </trkpt>
      <trkpt lat="47.49348" lon="6.7573">
        <ele>318</ele>
        <time>2016-12-11T08:31:48.000Z</time>
      </trkpt>
      <trkpt lat="47.49343" lon="6.75733">
        <ele>318</ele>
        <time>2016-12-11T08:31:49.000Z</time>
      </trkpt>
      <trkpt lat="47.49338" lon="6.75737">
        <ele>318</ele>
        <time>2016-12-11T08:31:50.000Z</time>
      </trkpt>
      <trkpt lat="47.49333" lon="6.7574">
        <ele>318</ele>
        <time>2016-12-11T08:31:51.000Z</time>
      </trkpt>
      <trkpt lat="47.49328" lon="6.75744">
        <ele>318</ele>
        <time>2016-12-11T08:31:52.000Z</time>
      </trkpt>
      <trkpt lat="47.49322" lon="6.75748">
        <ele>318</ele>
        <time>2016-12-11T08:31:53.000Z</time>
      </trkpt>
      <trkpt lat="47.49316" lon="6.75753">
        <ele>318</ele>
        <time>2016-12-11T08:31:54.000Z</time>
      </trkpt>
      <trkpt lat="47.4931" lon="6.75759">
        <ele>318</ele>
        <time>2016-12-11T08:31:55.000Z</time>
      </trkpt>
      <trkpt lat="47.49305" lon="6.75764">
        <ele>318</ele>
        <time>2016-12-11T08:31:56.000Z</time>
      </trkpt>
      <trkpt lat="47.493" lon="6.7577">
        <ele>318</ele>
        <time>2016-12-11T08:31:57.000Z</time>
      </trkpt>
      <trkpt lat="47.49297" lon="6.75776">
        <ele>318</ele>
        <time>2016-12-11T08:31:58.000Z</time>
      </trkpt>
      <trkpt lat="47.49292" lon="6.75784">
        <ele>318</ele>
        <time>2016-12-11T08:31:59.000Z</time>
      </trkpt>
      <trkpt lat="47.49287" lon="6.7579">
        <ele>318</ele>
        <time>2016-12-11T08:32:00.000Z</time>
      </trkpt>
      <trkpt lat="47.49283" lon="6.75796">
        <ele>318</ele>
        <time>2016-12-11T08:32:01.000Z</time>
      </trkpt>
      <trkpt lat="47.49279" lon="6.75802">
        <ele>317</ele>
        <time>2016-12-11T08:32:02.000Z</time>
      </trkpt>
      <trkpt lat="47.49274" lon="6.75808">
        <ele>317</ele>
        <time>2016-12-11T08:32:03.000Z</time>
      </trkpt>
      <trkpt lat="47.4927" lon="6.75815">
        <ele>317</ele>
        <time>2016-12-11T08:32:04.000Z</time>
      </trkpt>
      <trkpt lat="47.49266" lon="6.75821">
        <ele>316</ele>
        <time>2016-12-11T08:32:05.000Z</time>
      </trkpt>
      <trkpt lat="47.49261" lon="6.75828">
        <ele>315</ele>
        <time>2016-12-11T08:32:06.000Z</time>
      </trkpt>
      <trkpt lat="47.49257" lon="6.75836">
        <ele>315</ele>
        <time>2016-12-11T08:32:07.000Z</time>
      </trkpt>
      <trkpt lat="47.49253" lon="6.75842">
        <ele>315</ele>
        <time>2016-12-11T08:32:08.000Z</time>
      </trkpt>
      <trkpt lat="47.49251" lon="6.75847">
        <ele>316</ele>
        <time>2016-12-11T08:32:09.000Z</time>
      </trkpt>
      <trkpt lat="47.49248" lon="6.75853">
        <ele>316</ele>
        <time>2016-12-11T08:32:10.000Z</time>
      </trkpt>
      <trkpt lat="47.49245" lon="6.75859">
        <ele>317</ele>
        <time>2016-12-11T08:32:11.000Z</time>
      </trkpt>
      <trkpt lat="47.49242" lon="6.75864">
        <ele>317</ele>
        <time>2016-12-11T08:32:12.000Z</time>
      </trkpt>
      <trkpt lat="47.49238" lon="6.7587">
        <ele>318</ele>
        <time>2016-12-11T08:32:13.000Z</time>
      </trkpt>
      <trkpt lat="47.49236" lon="6.75876">
        <ele>318</ele>
        <time>2016-12-11T08:32:14.000Z</time>
      </trkpt>
      <trkpt lat="47.49232" lon="6.75882">
        <ele>318</ele>
        <time>2016-12-11T08:32:15.000Z</time>
      </trkpt>
      <trkpt lat="47.4923" lon="6.75888">
        <ele>318</ele>
        <time>2016-12-11T08:32:16.000Z</time>
      </trkpt>
      <trkpt lat="47.49227" lon="6.75894">
        <ele>318</ele>
        <time>2016-12-11T08:32:17.000Z</time>
      </trkpt>
      <trkpt lat="47.49225" lon="6.759">
        <ele>319</ele>
        <time>2016-12-11T08:32:18.000Z</time>
      </trkpt>
      <trkpt lat="47.49221" lon="6.75907">
        <ele>319</ele>
        <time>2016-12-11T08:32:19.000Z</time>
      </trkpt>
      <trkpt lat="47.49217" lon="6.75915">
        <ele>319</ele>
        <time>2016-12-11T08:32:20.000Z</time>
      </trkpt>
      <trkpt lat="47.49213" lon="6.75922">
        <ele>320</ele>
        <time>2016-12-11T08:32:21.000Z</time>
      </trkpt>
      <trkpt lat="47.4921" lon="6.75928">
        <ele>320</ele>
        <time>2016-12-11T08:32:22.000Z</time>
      </trkpt>
      <trkpt lat="47.49208" lon="6.75932">
        <ele>320</ele>
        <time>2016-12-11T08:32:23.000Z</time>
      </trkpt>
      <trkpt lat="47.49204" lon="6.75939">
        <ele>320</ele>
        <time>2016-12-11T08:32:24.000Z</time>
      </trkpt>
      <trkpt lat="47.49201" lon="6.75945">
        <ele>320</ele>
        <time>2016-12-11T08:32:25.000Z</time>
      </trkpt>
      <trkpt lat="47.49197" lon="6.75953">
        <ele>320</ele>
        <time>2016-12-11T08:32:26.000Z</time>
      </trkpt>
      <trkpt lat="47.49193" lon="6.75962">
        <ele>320</ele>
        <time>2016-12-11T08:32:27.000Z</time>
      </trkpt>
      <trkpt lat="47.4919" lon="6.75969">
        <ele>320</ele>
        <time>2016-12-11T08:32:28.000Z</time>
      </trkpt>
      <trkpt lat="47.49187" lon="6.75977">
        <ele>320</ele>
        <time>2016-12-11T08:32:29.000Z</time>
      </trkpt>
      <trkpt lat="47.49183" lon="6.75984">
        <ele>320</ele>
        <time>2016-12-11T08:32:30.000Z</time>
      </trkpt>
      <trkpt lat="47.4918" lon="6.7599">
        <ele>320</ele>
        <time>2016-12-11T08:32:31.000Z</time>
      </trkpt>
      <trkpt lat="47.49177" lon="6.75995">
        <ele>320</ele>
        <time>2016-12-11T08:32:32.000Z</time>
      </trkpt>
      <trkpt lat="47.49174" lon="6.76001">
        <ele>320</ele>
        <time>2016-12-11T08:32:33.000Z</time>
      </trkpt>
      <trkpt lat="47.49171" lon="6.76009">
        <ele>320</ele>
        <time>2016-12-11T08:32:34.000Z</time>
      </trkpt>
      <trkpt lat="47.49168" lon="6.76015">
        <ele>320</ele>
        <time>2016-12-11T08:32:35.000Z</time>
      </trkpt>
      <trkpt lat="47.49165" lon="6.76023">
        <ele>322</ele>
        <time>2016-12-11T08:32:36.000Z</time>
      </trkpt>
      <trkpt lat="47.49162" lon="6.76031">
        <ele>322</ele>
        <time>2016-12-11T08:32:37.000Z</time>
      </trkpt>
      <trkpt lat="47.4916" lon="6.76037">
        <ele>322</ele>
        <time>2016-12-11T08:32:38.000Z</time>
      </trkpt>
      <trkpt lat="47.49157" lon="6.76045">
        <ele>322</ele>
        <time>2016-12-11T08:32:39.000Z</time>
      </trkpt>
      <trkpt lat="47.49154" lon="6.76054">
        <ele>322</ele>
        <time>2016-12-11T08:32:40.000Z</time>
      </trkpt>
      <trkpt lat="47.49151" lon="6.76064">
        <ele>322</ele>
        <time>2016-12-11T08:32:41.000Z</time>
      </trkpt>
      <trkpt lat="47.49148" lon="6.76074">
        <ele>322</ele>
        <time>2016-12-11T08:32:42.000Z</time>
      </trkpt>
      <trkpt lat="47.49146" lon="6.76083">
        <ele>322</ele>
        <time>2016-12-11T08:32:43.000Z</time>
      </trkpt>
      <trkpt lat="47.49143" lon="6.76094">
        <ele>321</ele>
        <time>2016-12-11T08:32:44.000Z</time>
      </trkpt>
      <trkpt lat="47.4914" lon="6.76103">
        <ele>321</ele>
        <time>2016-12-11T08:32:45.000Z</time>
      </trkpt>
      <trkpt lat="47.49138" lon="6.76113">
        <ele>322</ele>
        <time>2016-12-11T08:32:46.000Z</time>
      </trkpt>
      <trkpt lat="47.49136" lon="6.76122">
        <ele>322</ele>
        <time>2016-12-11T08:32:47.000Z</time>
      </trkpt>
      <trkpt lat="47.49135" lon="6.76129">
        <ele>322</ele>
        <time>2016-12-11T08:32:48.000Z</time>
      </trkpt>
      <trkpt lat="47.49133" lon="6.76136">
        <ele>322</ele>
        <time>2016-12-11T08:32:49.000Z</time>
      </trkpt>
      <trkpt lat="47.49132" lon="6.76143">
        <ele>322</ele>
        <time>2016-12-11T08:32:50.000Z</time>
      </trkpt>
      <trkpt lat="47.4913" lon="6.76151">
        <ele>322</ele>
        <time>2016-12-11T08:32:51.000Z</time>
      </trkpt>
      <trkpt lat="47.49129" lon="6.76159">
        <ele>322</ele>
        <time>2016-12-11T08:32:52.000Z</time>
      </trkpt>
      <trkpt lat="47.49128" lon="6.76166">
        <ele>322</ele>
        <time>2016-12-11T08:32:53.000Z</time>
      </trkpt>
      <trkpt lat="47.4913" lon="6.76173">
        <ele>321</ele>
        <time>2016-12-11T08:32:54.000Z</time>
      </trkpt>
      <trkpt lat="47.49134" lon="6.76177">
        <ele>321</ele>
        <time>2016-12-11T08:32:55.000Z</time>
      </trkpt>
      <trkpt lat="47.49138" lon="6.76183">
        <ele>321</ele>
        <time>2016-12-11T08:32:56.000Z</time>
      </trkpt>
      <trkpt lat="47.49143" lon="6.76191">
        <ele>320</ele>
        <time>2016-12-11T08:32:57.000Z</time>
      </trkpt>
      <trkpt lat="47.49147" lon="6.76198">
        <ele>320</ele>
        <time>2016-12-11T08:32:58.000Z</time>
      </trkpt>
      <trkpt lat="47.4915" lon="6.76204">
        <ele>320</ele>
        <time>2016-12-11T08:32:59.000Z</time>
      </trkpt>
      <trkpt lat="47.49155" lon="6.7621">
        <ele>320</ele>
        <time>2016-12-11T08:33:00.000Z</time>
      </trkpt>
      <trkpt lat="47.49161" lon="6.76214">
        <ele>320</ele>
        <time>2016-12-11T08:33:01.000Z</time>
      </trkpt>
      <trkpt lat="47.49167" lon="6.76217">
        <ele>319</ele>
        <time>2016-12-11T08:33:02.000Z</time>
      </trkpt>
      <trkpt lat="47.49173" lon="6.7622">
        <ele>319</ele>
        <time>2016-12-11T08:33:03.000Z</time>
      </trkpt>
      <trkpt lat="47.49178" lon="6.76221">
        <ele>319</ele>
        <time>2016-12-11T08:33:04.000Z</time>
      </trkpt>
      <trkpt lat="47.49183" lon="6.76221">
        <ele>320</ele>
        <time>2016-12-11T08:33:05.000Z</time>
      </trkpt>
      <trkpt lat="47.49188" lon="6.76222">
        <ele>320</ele>
        <time>2016-12-11T08:33:06.000Z</time>
      </trkpt>
      <trkpt lat="47.49194" lon="6.76222">
        <ele>320</ele>
        <time>2016-12-11T08:33:07.000Z</time>
      </trkpt>
      <trkpt lat="47.49199" lon="6.76221">
        <ele>320</ele>
        <time>2016-12-11T08:33:08.000Z</time>
      </trkpt>
      <trkpt lat="47.49204" lon="6.76221">
        <ele>321</ele>
        <time>2016-12-11T08:33:09.000Z</time>
      </trkpt>
      <trkpt lat="47.49209" lon="6.7622">
        <ele>321</ele>
        <time>2016-12-11T08:33:10.000Z</time>
      </trkpt>
      <trkpt lat="47.49214" lon="6.7622">
        <ele>321</ele>
        <time>2016-12-11T08:33:11.000Z</time>
      </trkpt>
      <trkpt lat="47.4922" lon="6.76221">
        <ele>321</ele>
        <time>2016-12-11T08:33:12.000Z</time>
      </trkpt>
      <trkpt lat="47.49224" lon="6.76223">
        <ele>322</ele>
        <time>2016-12-11T08:33:13.000Z</time>
      </trkpt>
      <trkpt lat="47.49226" lon="6.76227">
        <ele>322</ele>
        <time>2016-12-11T08:33:14.000Z</time>
      </trkpt>
      <trkpt lat="47.49226" lon="6.76233">
        <ele>322</ele>
        <time>2016-12-11T08:33:15.000Z</time>
      </trkpt>
      <trkpt lat="47.49226" lon="6.76238">
        <ele>322</ele>
        <time>2016-12-11T08:33:16.000Z</time>
      </trkpt>
      <trkpt lat="47.49228" lon="6.76243">
        <ele>322</ele>
        <time>2016-12-11T08:33:17.000Z</time>
      </trkpt>
      <trkpt lat="47.49229" lon="6.76251">
        <ele>321</ele>
        <time>2016-12-11T08:33:18.000Z</time>
      </trkpt>
      <trkpt lat="47.4923" lon="6.76258">
        <ele>321</ele>
        <time>2016-12-11T08:33:19.000Z</time>
      </trkpt>
      <trkpt lat="47.4923" lon="6.76265">
        <ele>321</ele>
        <time>2016-12-11T08:33:20.000Z</time>
      </trkpt>
      <trkpt lat="47.49231" lon="6.76274">
        <ele>321</ele>
        <time>2016-12-11T08:33:21.000Z</time>
      </trkpt>
      <trkpt lat="47.49232" lon="6.76282">
        <ele>321</ele>
        <time>2016-12-11T08:33:22.000Z</time>
      </trkpt>
      <trkpt lat="47.49232" lon="6.76289">
        <ele>321</ele>
        <time>2016-12-11T08:33:23.000Z</time>
      </trkpt>
      <trkpt lat="47.49233" lon="6.76297">
        <ele>321</ele>
        <time>2016-12-11T08:33:24.000Z</time>
      </trkpt>
      <trkpt lat="47.49234" lon="6.76304">
        <ele>321</ele>
        <time>2016-12-11T08:33:25.000Z</time>
      </trkpt>
      <trkpt lat="47.49234" lon="6.76313">
        <ele>322</ele>
        <time>2016-12-11T08:33:26.000Z</time>
      </trkpt>
      <trkpt lat="47.49235" lon="6.76321">
        <ele>322</ele>
        <time>2016-12-11T08:33:27.000Z</time>
      </trkpt>
      <trkpt lat="47.49235" lon="6.76329">
        <ele>322</ele>
        <time>2016-12-11T08:33:28.000Z</time>
      </trkpt>
      <trkpt lat="47.49235" lon="6.76336">
        <ele>322</ele>
        <time>2016-12-11T08:33:29.000Z</time>
      </trkpt>
      <trkpt lat="47.49236" lon="6.76343">
        <ele>322</ele>
        <time>2016-12-11T08:33:30.000Z</time>
      </trkpt>
      <trkpt lat="47.49236" lon="6.76353">
        <ele>321</ele>
        <time>2016-12-11T08:33:31.000Z</time>
      </trkpt>
      <trkpt lat="47.49236" lon="6.76361">
        <ele>321</ele>
        <time>2016-12-11T08:33:32.000Z</time>
      </trkpt>
      <trkpt lat="47.49237" lon="6.76369">
        <ele>321</ele>
        <time>2016-12-11T08:33:33.000Z</time>
      </trkpt>
      <trkpt lat="47.49236" lon="6.76377">
        <ele>321</ele>
        <time>2016-12-11T08:33:34.000Z</time>
      </trkpt>
      <trkpt lat="47.49235" lon="6.76387">
        <ele>321</ele>
        <time>2016-12-11T08:33:35.000Z</time>
      </trkpt>
      <trkpt lat="47.49235" lon="6.76395">
        <ele>321</ele>
        <time>2016-12-11T08:33:36.000Z</time>
      </trkpt>
      <trkpt lat="47.49234" lon="6.76404">
        <ele>321</ele>
        <time>2016-12-11T08:33:37.000Z</time>
      </trkpt>
      <trkpt lat="47.49234" lon="6.76415">
        <ele>321</ele>
        <time>2016-12-11T08:33:38.000Z</time>
      </trkpt>
      <trkpt lat="47.49235" lon="6.76423">
        <ele>321</ele>
        <time>2016-12-11T08:33:39.000Z</time>
      </trkpt>
      <trkpt lat="47.49236" lon="6.7643">
        <ele>321</ele>
        <time>2016-12-11T08:33:40.000Z</time>
      </trkpt>
      <trkpt lat="47.49235" lon="6.76437">
        <ele>320</ele>
        <time>2016-12-11T08:33:41.000Z</time>
      </trkpt>
      <trkpt lat="47.49235" lon="6.76445">
        <ele>320</ele>
        <time>2016-12-11T08:33:42.000Z</time>
      </trkpt>
      <trkpt lat="47.49234" lon="6.76452">
        <ele>320</ele>
        <time>2016-12-11T08:33:43.000Z</time>
      </trkpt>
      <trkpt lat="47.49232" lon="6.76456">
        <ele>319</ele>
        <time>2016-12-11T08:33:44.000Z</time>
      </trkpt>
      <trkpt lat="47.49229" lon="6.76458">
        <ele>319</ele>
        <time>2016-12-11T08:33:45.000Z</time>
      </trkpt>
      <trkpt lat="47.49225" lon="6.7646">
        <ele>319</ele>
        <time>2016-12-11T08:33:46.000Z</time>
      </trkpt>
      <trkpt lat="47.49221" lon="6.76461">
        <ele>319</ele>
        <time>2016-12-11T08:33:47.000Z</time>
      </trkpt>
      <trkpt lat="47.49216" lon="6.7646">
        <ele>318</ele>
        <time>2016-12-11T08:33:48.000Z</time>
      </trkpt>
      <trkpt lat="47.49212" lon="6.7646">
        <ele>318</ele>
        <time>2016-12-11T08:33:49.000Z</time>
      </trkpt>
      <trkpt lat="47.49206" lon="6.76459">
        <ele>318</ele>
        <time>2016-12-11T08:33:50.000Z</time>
      </trkpt>
      <trkpt lat="47.49201" lon="6.76459">
        <ele>318</ele>
        <time>2016-12-11T08:33:51.000Z</time>
      </trkpt>
      <trkpt lat="47.49195" lon="6.76458">
        <ele>317</ele>
        <time>2016-12-11T08:33:52.000Z</time>
      </trkpt>
      <trkpt lat="47.49191" lon="6.76457">
        <ele>317</ele>
        <time>2016-12-11T08:33:53.000Z</time>
      </trkpt>
      <trkpt lat="47.49187" lon="6.76458">
        <ele>317</ele>
        <time>2016-12-11T08:33:54.000Z</time>
      </trkpt>
      <trkpt lat="47.49184" lon="6.76462">
        <ele>317</ele>
        <time>2016-12-11T08:33:55.000Z</time>
      </trkpt>
      <trkpt lat="47.49181" lon="6.76467">
        <ele>316</ele>
        <time>2016-12-11T08:33:56.000Z</time>
      </trkpt>
      <trkpt lat="47.49178" lon="6.76472">
        <ele>316</ele>
        <time>2016-12-11T08:33:57.000Z</time>
      </trkpt>
      <trkpt lat="47.49176" lon="6.76478">
        <ele>316</ele>
        <time>2016-12-11T08:33:58.000Z</time>
      </trkpt>
      <trkpt lat="47.49174" lon="6.76484">
        <ele>315</ele>
        <time>2016-12-11T08:33:59.000Z</time>
      </trkpt>
      <trkpt lat="47.49173" lon="6.76489">
        <ele>315</ele>
        <time>2016-12-11T08:38:38.000Z</time>
      </trkpt>
      <trkpt lat="47.49174" lon="6.76492">
        <ele>315</ele>
        <time>2016-12-11T08:38:39.000Z</time>
      </trkpt>
      <trkpt lat="47.49178" lon="6.76495">
        <ele>315</ele>
        <time>2016-12-11T08:39:20.000Z</time>
      </trkpt>
      <trkpt lat="47.49179" lon="6.76497">
        <ele>315</ele>
        <time>2016-12-11T08:39:21.000Z</time>
      </trkpt>
      <trkpt lat="47.49181" lon="6.76501">
        <ele>315</ele>
        <time>2016-12-11T08:39:23.000Z</time>
      </trkpt>
      <trkpt lat="47.49182" lon="6.76502">
        <ele>315</ele>
        <time>2016-12-11T08:39:24.000Z</time>
      </trkpt>
      <trkpt lat="47.49185" lon="6.76499">
        <ele>316</ele>
        <time>2016-12-11T08:39:26.000Z</time>
      </trkpt>
      <trkpt lat="47.49185" lon="6.76496">
        <ele>316</ele>
        <time>2016-12-11T08:39:27.000Z</time>
      </trkpt>
      <trkpt lat="47.49185" lon="6.7649">
        <ele>316</ele>
        <time>2016-12-11T08:39:29.000Z</time>
      </trkpt>
      <trkpt lat="47.49185" lon="6.76487">
        <ele>316</ele>
        <time>2016-12-11T08:39:30.000Z</time>
      </trkpt>
      <trkpt lat="47.49184" lon="6.76484">
        <ele>316</ele>
        <time>2016-12-11T08:39:31.000Z</time>
      </trkpt>
      <trkpt lat="47.49185" lon="6.7648">
        <ele>316</ele>
        <time>2016-12-11T08:39:32.000Z</time>
      </trkpt>
      <trkpt lat="47.49185" lon="6.76474">
        <ele>316</ele>
        <time>2016-12-11T08:39:34.000Z</time>
      </trkpt>
      <trkpt lat="47.49186" lon="6.76468">
        <ele>317</ele>
        <time>2016-12-11T08:39:35.000Z</time>
      </trkpt>
      <trkpt lat="47.49187" lon="6.76463">
        <ele>317</ele>
        <time>2016-12-11T08:39:36.000Z</time>
      </trkpt>
      <trkpt lat="47.49188" lon="6.76459">
        <ele>317</ele>
        <time>2016-12-11T08:39:37.000Z</time>
      </trkpt>
      <trkpt lat="47.49192" lon="6.76457">
        <ele>317</ele>
        <time>2016-12-11T08:39:38.000Z</time>
      </trkpt>
      <trkpt lat="47.49195" lon="6.76457">
        <ele>317</ele>
        <time>2016-12-11T08:39:39.000Z</time>
      </trkpt>
      <trkpt lat="47.492" lon="6.76456">
        <ele>318</ele>
        <time>2016-12-11T08:39:40.000Z</time>
      </trkpt>
      <trkpt lat="47.49206" lon="6.76456">
        <ele>318</ele>
        <time>2016-12-11T08:39:41.000Z</time>
      </trkpt>
      <trkpt lat="47.49211" lon="6.76457">
        <ele>318</ele>
        <time>2016-12-11T08:39:42.000Z</time>
      </trkpt>
      <trkpt lat="47.49215" lon="6.76458">
        <ele>318</ele>
        <time>2016-12-11T08:39:43.000Z</time>
      </trkpt>
      <trkpt lat="47.49219" lon="6.7646">
        <ele>319</ele>
        <time>2016-12-11T08:39:44.000Z</time>
      </trkpt>
      <trkpt lat="47.49223" lon="6.7646">
        <ele>319</ele>
        <time>2016-12-11T08:39:45.000Z</time>
      </trkpt>
      <trkpt lat="47.49227" lon="6.7646">
        <ele>319</ele>
        <time>2016-12-11T08:39:46.000Z</time>
      </trkpt>
      <trkpt lat="47.49231" lon="6.76461">
        <ele>319</ele>
        <time>2016-12-11T08:39:47.000Z</time>
      </trkpt>
      <trkpt lat="47.49235" lon="6.7646">
        <ele>319</ele>
        <time>2016-12-11T08:39:48.000Z</time>
      </trkpt>
      <trkpt lat="47.49239" lon="6.76458">
        <ele>320</ele>
        <time>2016-12-11T08:39:50.000Z</time>
      </trkpt>
      <trkpt lat="47.49241" lon="6.76454">
        <ele>320</ele>
        <time>2016-12-11T08:39:51.000Z</time>
      </trkpt>
      <trkpt lat="47.49241" lon="6.76449">
        <ele>320</ele>
        <time>2016-12-11T08:39:52.000Z</time>
      </trkpt>
      <trkpt lat="47.49241" lon="6.76444">
        <ele>320</ele>
        <time>2016-12-11T08:39:53.000Z</time>
      </trkpt>
      <trkpt lat="47.49241" lon="6.76438">
        <ele>320</ele>
        <time>2016-12-11T08:39:54.000Z</time>
      </trkpt>
      <trkpt lat="47.49241" lon="6.76434">
        <ele>321</ele>
        <time>2016-12-11T08:39:55.000Z</time>
      </trkpt>
      <trkpt lat="47.4924" lon="6.76428">
        <ele>321</ele>
        <time>2016-12-11T08:39:56.000Z</time>
      </trkpt>
      <trkpt lat="47.4924" lon="6.76421">
        <ele>322</ele>
        <time>2016-12-11T08:39:57.000Z</time>
      </trkpt>
      <trkpt lat="47.4924" lon="6.76415">
        <ele>322</ele>
        <time>2016-12-11T08:39:58.000Z</time>
      </trkpt>
      <trkpt lat="47.49239" lon="6.76411">
        <ele>322</ele>
        <time>2016-12-11T08:39:59.000Z</time>
      </trkpt>
      <trkpt lat="47.49239" lon="6.76407">
        <ele>322</ele>
        <time>2016-12-11T08:40:00.000Z</time>
      </trkpt>
      <trkpt lat="47.49238" lon="6.76401">
        <ele>321</ele>
        <time>2016-12-11T08:40:01.000Z</time>
      </trkpt>
      <trkpt lat="47.49237" lon="6.76395">
        <ele>321</ele>
        <time>2016-12-11T08:40:02.000Z</time>
      </trkpt>
      <trkpt lat="47.49237" lon="6.76389">
        <ele>321</ele>
        <time>2016-12-11T08:40:03.000Z</time>
      </trkpt>
      <trkpt lat="47.49237" lon="6.76383">
        <ele>321</ele>
        <time>2016-12-11T08:40:04.000Z</time>
      </trkpt>
      <trkpt lat="47.49236" lon="6.76376">
        <ele>321</ele>
        <time>2016-12-11T08:40:05.000Z</time>
      </trkpt>
      <trkpt lat="47.49236" lon="6.76371">
        <ele>321</ele>
        <time>2016-12-11T08:40:06.000Z</time>
      </trkpt>
      <trkpt lat="47.49236" lon="6.76365">
        <ele>321</ele>
        <time>2016-12-11T08:40:07.000Z</time>
      </trkpt>
      <trkpt lat="47.49235" lon="6.76359">
        <ele>321</ele>
        <time>2016-12-11T08:40:08.000Z</time>
      </trkpt>
      <trkpt lat="47.49235" lon="6.76355">
        <ele>321</ele>
        <time>2016-12-11T08:40:09.000Z</time>
      </trkpt>
      <trkpt lat="47.49235" lon="6.7635">
        <ele>321</ele>
        <time>2016-12-11T08:40:10.000Z</time>
      </trkpt>
      <trkpt lat="47.49235" lon="6.76343">
        <ele>322</ele>
        <time>2016-12-11T08:40:11.000Z</time>
      </trkpt>
      <trkpt lat="47.49234" lon="6.76337">
        <ele>322</ele>
        <time>2016-12-11T08:40:12.000Z</time>
      </trkpt>
      <trkpt lat="47.49233" lon="6.76331">
        <ele>322</ele>
        <time>2016-12-11T08:40:13.000Z</time>
      </trkpt>
      <trkpt lat="47.49233" lon="6.76326">
        <ele>322</ele>
        <time>2016-12-11T08:40:14.000Z</time>
      </trkpt>
      <trkpt lat="47.49232" lon="6.76321">
        <ele>322</ele>
        <time>2016-12-11T08:40:15.000Z</time>
      </trkpt>
      <trkpt lat="47.49233" lon="6.76316">
        <ele>322</ele>
        <time>2016-12-11T08:40:16.000Z</time>
      </trkpt>
      <trkpt lat="47.49232" lon="6.76308">
        <ele>321</ele>
        <time>2016-12-11T08:40:17.000Z</time>
      </trkpt>
      <trkpt lat="47.49232" lon="6.76301">
        <ele>321</ele>
        <time>2016-12-11T08:40:18.000Z</time>
      </trkpt>
      <trkpt lat="47.49232" lon="6.76297">
        <ele>321</ele>
        <time>2016-12-11T08:40:19.000Z</time>
      </trkpt>
      <trkpt lat="47.49231" lon="6.76291">
        <ele>321</ele>
        <time>2016-12-11T08:40:20.000Z</time>
      </trkpt>
      <trkpt lat="47.49231" lon="6.76284">
        <ele>321</ele>
        <time>2016-12-11T08:40:21.000Z</time>
      </trkpt>
      <trkpt lat="47.4923" lon="6.76278">
        <ele>321</ele>
        <time>2016-12-11T08:40:22.000Z</time>
      </trkpt>
      <trkpt lat="47.49229" lon="6.76273">
        <ele>321</ele>
        <time>2016-12-11T08:40:23.000Z</time>
      </trkpt>
      <trkpt lat="47.49229" lon="6.76268">
        <ele>321</ele>
        <time>2016-12-11T08:40:24.000Z</time>
      </trkpt>
      <trkpt lat="47.49228" lon="6.76262">
        <ele>321</ele>
        <time>2016-12-11T08:40:25.000Z</time>
      </trkpt>
      <trkpt lat="47.49228" lon="6.76257">
        <ele>321</ele>
        <time>2016-12-11T08:40:26.000Z</time>
      </trkpt>
      <trkpt lat="47.49227" lon="6.76249">
        <ele>322</ele>
        <time>2016-12-11T08:40:27.000Z</time>
      </trkpt>
      <trkpt lat="47.49227" lon="6.76242">
        <ele>322</ele>
        <time>2016-12-11T08:40:28.000Z</time>
      </trkpt>
      <trkpt lat="47.49226" lon="6.76235">
        <ele>322</ele>
        <time>2016-12-11T08:40:29.000Z</time>
      </trkpt>
      <trkpt lat="47.49225" lon="6.76228">
        <ele>322</ele>
        <time>2016-12-11T08:40:30.000Z</time>
      </trkpt>
      <trkpt lat="47.49225" lon="6.76224">
        <ele>322</ele>
        <time>2016-12-11T08:40:31.000Z</time>
      </trkpt>
      <trkpt lat="47.49224" lon="6.76221">
        <ele>322</ele>
        <time>2016-12-11T08:40:32.000Z</time>
      </trkpt>
      <trkpt lat="47.49222" lon="6.76218">
        <ele>322</ele>
        <time>2016-12-11T08:40:33.000Z</time>
      </trkpt>
      <trkpt lat="47.4922" lon="6.76217">
        <ele>321</ele>
        <time>2016-12-11T08:40:34.000Z</time>
      </trkpt>
      <trkpt lat="47.49215" lon="6.76215">
        <ele>321</ele>
        <time>2016-12-11T08:40:35.000Z</time>
      </trkpt>
      <trkpt lat="47.49209" lon="6.76212">
        <ele>321</ele>
        <time>2016-12-11T08:40:36.000Z</time>
      </trkpt>
      <trkpt lat="47.49204" lon="6.76211">
        <ele>321</ele>
        <time>2016-12-11T08:40:37.000Z</time>
      </trkpt>
      <trkpt lat="47.492" lon="6.76212">
        <ele>321</ele>
        <time>2016-12-11T08:40:38.000Z</time>
      </trkpt>
      <trkpt lat="47.49196" lon="6.76212">
        <ele>320</ele>
        <time>2016-12-11T08:40:39.000Z</time>
      </trkpt>
      <trkpt lat="47.49192" lon="6.76211">
        <ele>320</ele>
        <time>2016-12-11T08:40:40.000Z</time>
      </trkpt>
      <trkpt lat="47.49189" lon="6.76212">
        <ele>320</ele>
        <time>2016-12-11T08:40:41.000Z</time>
      </trkpt>
      <trkpt lat="47.49185" lon="6.76212">
        <ele>320</ele>
        <time>2016-12-11T08:40:42.000Z</time>
      </trkpt>
      <trkpt lat="47.49181" lon="6.76212">
        <ele>320</ele>
        <time>2016-12-11T08:40:43.000Z</time>
      </trkpt>
      <trkpt lat="47.49176" lon="6.76213">
        <ele>320</ele>
        <time>2016-12-11T08:40:44.000Z</time>
      </trkpt>
      <trkpt lat="47.4917" lon="6.76213">
        <ele>320</ele>
        <time>2016-12-11T08:40:45.000Z</time>
      </trkpt>
      <trkpt lat="47.49166" lon="6.76214">
        <ele>320</ele>
        <time>2016-12-11T08:40:46.000Z</time>
      </trkpt>
      <trkpt lat="47.49162" lon="6.76215">
        <ele>320</ele>
        <time>2016-12-11T08:40:47.000Z</time>
      </trkpt>
      <trkpt lat="47.49158" lon="6.76216">
        <ele>320</ele>
        <time>2016-12-11T08:40:48.000Z</time>
      </trkpt>
      <trkpt lat="47.49154" lon="6.76217">
        <ele>320</ele>
        <time>2016-12-11T08:40:49.000Z</time>
      </trkpt>
      <trkpt lat="47.49149" lon="6.76217">
        <ele>320</ele>
        <time>2016-12-11T08:40:50.000Z</time>
      </trkpt>
      <trkpt lat="47.49145" lon="6.76215">
        <ele>320</ele>
        <time>2016-12-11T08:40:51.000Z</time>
      </trkpt>
      <trkpt lat="47.49141" lon="6.76213">
        <ele>320</ele>
        <time>2016-12-11T08:40:52.000Z</time>
      </trkpt>
      <trkpt lat="47.49136" lon="6.76213">
        <ele>321</ele>
        <time>2016-12-11T08:40:53.000Z</time>
      </trkpt>
      <trkpt lat="47.49132" lon="6.76214">
        <ele>321</ele>
        <time>2016-12-11T08:40:54.000Z</time>
      </trkpt>
      <trkpt lat="47.49129" lon="6.76219">
        <ele>321</ele>
        <time>2016-12-11T08:40:55.000Z</time>
      </trkpt>
      <trkpt lat="47.49127" lon="6.76224">
        <ele>321</ele>
        <time>2016-12-11T08:40:56.000Z</time>
      </trkpt>
      <trkpt lat="47.49125" lon="6.76228">
        <ele>321</ele>
        <time>2016-12-11T08:40:57.000Z</time>
      </trkpt>
      <trkpt lat="47.49125" lon="6.76233">
        <ele>321</ele>
        <time>2016-12-11T08:40:58.000Z</time>
      </trkpt>
      <trkpt lat="47.49125" lon="6.7624">
        <ele>321</ele>
        <time>2016-12-11T08:40:59.000Z</time>
      </trkpt>
      <trkpt lat="47.49126" lon="6.76245">
        <ele>321</ele>
        <time>2016-12-11T08:41:00.000Z</time>
      </trkpt>
      <trkpt lat="47.49127" lon="6.76249">
        <ele>321</ele>
        <time>2016-12-11T08:41:01.000Z</time>
      </trkpt>
      <trkpt lat="47.49128" lon="6.76253">
        <ele>320</ele>
        <time>2016-12-11T08:41:02.000Z</time>
      </trkpt>
      <trkpt lat="47.49128" lon="6.76258">
        <ele>320</ele>
        <time>2016-12-11T08:41:03.000Z</time>
      </trkpt>
      <trkpt lat="47.49128" lon="6.76264">
        <ele>320</ele>
        <time>2016-12-11T08:41:04.000Z</time>
      </trkpt>
      <trkpt lat="47.49128" lon="6.76269">
        <ele>320</ele>
        <time>2016-12-11T08:41:05.000Z</time>
      </trkpt>
      <trkpt lat="47.49129" lon="6.76272">
        <ele>319</ele>
        <time>2016-12-11T08:41:06.000Z</time>
      </trkpt>
      <trkpt lat="47.4913" lon="6.76275">
        <ele>319</ele>
        <time>2016-12-11T08:41:07.000Z</time>
      </trkpt>
      <trkpt lat="47.4913" lon="6.76281">
        <ele>319</ele>
        <time>2016-12-11T08:41:08.000Z</time>
      </trkpt>
      <trkpt lat="47.4913" lon="6.76284">
        <ele>319</ele>
        <time>2016-12-11T08:41:09.000Z</time>
      </trkpt>
      <trkpt lat="47.49131" lon="6.76289">
        <ele>319</ele>
        <time>2016-12-11T08:41:10.000Z</time>
      </trkpt>
      <trkpt lat="47.4913" lon="6.76294">
        <ele>319</ele>
        <time>2016-12-11T08:41:11.000Z</time>
      </trkpt>
      <trkpt lat="47.49131" lon="6.76298">
        <ele>319</ele>
        <time>2016-12-11T08:41:12.000Z</time>
      </trkpt>
      <trkpt lat="47.49131" lon="6.76303">
        <ele>319</ele>
        <time>2016-12-11T08:41:13.000Z</time>
      </trkpt>
      <trkpt lat="47.4913" lon="6.76309">
        <ele>319</ele>
        <time>2016-12-11T08:41:14.000Z</time>
      </trkpt>
      <trkpt lat="47.4913" lon="6.76316">
        <ele>319</ele>
        <time>2016-12-11T08:41:15.000Z</time>
      </trkpt>
      <trkpt lat="47.4913" lon="6.76321">
        <ele>319</ele>
        <time>2016-12-11T08:41:16.000Z</time>
      </trkpt>
      <trkpt lat="47.4913" lon="6.76326">
        <ele>319</ele>
        <time>2016-12-11T08:41:17.000Z</time>
      </trkpt>
      <trkpt lat="47.49131" lon="6.76331">
        <ele>319</ele>
        <time>2016-12-11T08:41:18.000Z</time>
      </trkpt>
      <trkpt lat="47.49133" lon="6.76338">
        <ele>317</ele>
        <time>2016-12-11T08:41:19.000Z</time>
      </trkpt>
      <trkpt lat="47.49133" lon="6.76344">
        <ele>317</ele>
        <time>2016-12-11T08:41:20.000Z</time>
      </trkpt>
      <trkpt lat="47.49134" lon="6.76349">
        <ele>317</ele>
        <time>2016-12-11T08:41:21.000Z</time>
      </trkpt>
      <trkpt lat="47.49135" lon="6.76355">
        <ele>317</ele>
        <time>2016-12-11T08:41:22.000Z</time>
      </trkpt>
      <trkpt lat="47.49135" lon="6.76362">
        <ele>317</ele>
        <time>2016-12-11T08:41:23.000Z</time>
      </trkpt>
      <trkpt lat="47.49135" lon="6.76369">
        <ele>317</ele>
        <time>2016-12-11T08:41:24.000Z</time>
      </trkpt>
      <trkpt lat="47.49134" lon="6.76377">
        <ele>317</ele>
        <time>2016-12-11T08:41:25.000Z</time>
      </trkpt>
      <trkpt lat="47.49134" lon="6.76383">
        <ele>317</ele>
        <time>2016-12-11T08:41:26.000Z</time>
      </trkpt>
      <trkpt lat="47.49133" lon="6.76389">
        <ele>317</ele>
        <time>2016-12-11T08:41:27.000Z</time>
      </trkpt>
      <trkpt lat="47.49133" lon="6.76396">
        <ele>317</ele>
        <time>2016-12-11T08:41:28.000Z</time>
      </trkpt>
      <trkpt lat="47.49131" lon="6.76401">
        <ele>317</ele>
        <time>2016-12-11T08:41:29.000Z</time>
      </trkpt>
      <trkpt lat="47.49127" lon="6.76405">
        <ele>317</ele>
        <time>2016-12-11T08:41:30.000Z</time>
      </trkpt>
      <trkpt lat="47.49124" lon="6.76408">
        <ele>318</ele>
        <time>2016-12-11T08:41:31.000Z</time>
      </trkpt>
      <trkpt lat="47.4912" lon="6.76412">
        <ele>318</ele>
        <time>2016-12-11T08:41:32.000Z</time>
      </trkpt>
      <trkpt lat="47.49117" lon="6.76414">
        <ele>318</ele>
        <time>2016-12-11T08:41:33.000Z</time>
      </trkpt>
      <trkpt lat="47.49113" lon="6.76416">
        <ele>318</ele>
        <time>2016-12-11T08:41:34.000Z</time>
      </trkpt>
      <trkpt lat="47.49109" lon="6.76416">
        <ele>319</ele>
        <time>2016-12-11T08:41:35.000Z</time>
      </trkpt>
      <trkpt lat="47.49106" lon="6.76415">
        <ele>319</ele>
        <time>2016-12-11T08:41:36.000Z</time>
      </trkpt>
      <trkpt lat="47.49105" lon="6.76413">
        <ele>319</ele>
        <time>2016-12-11T08:41:37.000Z</time>
      </trkpt>
      <trkpt lat="47.49104" lon="6.76409">
        <ele>319</ele>
        <time>2016-12-11T08:41:38.000Z</time>
      </trkpt>
      <trkpt lat="47.49105" lon="6.76403">
        <ele>319</ele>
        <time>2016-12-11T08:41:40.000Z</time>
      </trkpt>
      <trkpt lat="47.49104" lon="6.764">
        <ele>319</ele>
        <time>2016-12-11T08:41:41.000Z</time>
      </trkpt>
      <trkpt lat="47.49105" lon="6.76394">
        <ele>319</ele>
        <time>2016-12-11T08:41:43.000Z</time>
      </trkpt>
      <trkpt lat="47.49105" lon="6.76391">
        <ele>319</ele>
        <time>2016-12-11T08:41:44.000Z</time>
      </trkpt>
      <trkpt lat="47.49104" lon="6.76386">
        <ele>319</ele>
        <time>2016-12-11T08:41:46.000Z</time>
      </trkpt>
      <trkpt lat="47.49104" lon="6.76382">
        <ele>319</ele>
        <time>2016-12-11T08:41:47.000Z</time>
      </trkpt>
      <trkpt lat="47.49103" lon="6.76378">
        <ele>319</ele>
        <time>2016-12-11T08:41:48.000Z</time>
      </trkpt>
      <trkpt lat="47.49102" lon="6.76374">
        <ele>319</ele>
        <time>2016-12-11T08:41:49.000Z</time>
      </trkpt>
      <trkpt lat="47.49101" lon="6.7637">
        <ele>319</ele>
        <time>2016-12-11T08:41:50.000Z</time>
      </trkpt>
      <trkpt lat="47.491" lon="6.76365">
        <ele>319</ele>
        <time>2016-12-11T08:41:51.000Z</time>
      </trkpt>
      <trkpt lat="47.49099" lon="6.76361">
        <ele>319</ele>
        <time>2016-12-11T08:41:52.000Z</time>
      </trkpt>
      <trkpt lat="47.49098" lon="6.76353">
        <ele>320</ele>
        <time>2016-12-11T08:41:53.000Z</time>
      </trkpt>
      <trkpt lat="47.49098" lon="6.7634">
        <ele>321</ele>
        <time>2016-12-11T08:41:54.000Z</time>
      </trkpt>
      <trkpt lat="47.49097" lon="6.76336">
        <ele>321</ele>
        <time>2016-12-11T08:41:55.000Z</time>
      </trkpt>
      <trkpt lat="47.49097" lon="6.7633">
        <ele>321</ele>
        <time>2016-12-11T08:41:56.000Z</time>
      </trkpt>
      <trkpt lat="47.49096" lon="6.76323">
        <ele>321</ele>
        <time>2016-12-11T08:41:57.000Z</time>
      </trkpt>
      <trkpt lat="47.49096" lon="6.76316">
        <ele>321</ele>
        <time>2016-12-11T08:41:58.000Z</time>
      </trkpt>
      <trkpt lat="47.49095" lon="6.76309">
        <ele>321</ele>
        <time>2016-12-11T08:41:59.000Z</time>
      </trkpt>
      <trkpt lat="47.49095" lon="6.76299">
        <ele>321</ele>
        <time>2016-12-11T08:42:00.000Z</time>
      </trkpt>
      <trkpt lat="47.49095" lon="6.76292">
        <ele>321</ele>
        <time>2016-12-11T08:42:01.000Z</time>
      </trkpt>
      <trkpt lat="47.49095" lon="6.76285">
        <ele>321</ele>
        <time>2016-12-11T08:42:02.000Z</time>
      </trkpt>
      <trkpt lat="47.49094" lon="6.76278">
        <ele>321</ele>
        <time>2016-12-11T08:42:03.000Z</time>
      </trkpt>
      <trkpt lat="47.49093" lon="6.76269">
        <ele>322</ele>
        <time>2016-12-11T08:42:04.000Z</time>
      </trkpt>
      <trkpt lat="47.49093" lon="6.76264">
        <ele>322</ele>
        <time>2016-12-11T08:42:05.000Z</time>
      </trkpt>
      <trkpt lat="47.49092" lon="6.76256">
        <ele>323</ele>
        <time>2016-12-11T08:42:06.000Z</time>
      </trkpt>
      <trkpt lat="47.49092" lon="6.76251">
        <ele>323</ele>
        <time>2016-12-11T08:42:07.000Z</time>
      </trkpt>
      <trkpt lat="47.49092" lon="6.76248">
        <ele>324</ele>
        <time>2016-12-11T08:42:08.000Z</time>
      </trkpt>
      <trkpt lat="47.49092" lon="6.76244">
        <ele>324</ele>
        <time>2016-12-11T08:42:09.000Z</time>
      </trkpt>
      <trkpt lat="47.49092" lon="6.76239">
        <ele>323</ele>
        <time>2016-12-11T08:42:10.000Z</time>
      </trkpt>
      <trkpt lat="47.49092" lon="6.76233">
        <ele>323</ele>
        <time>2016-12-11T08:42:11.000Z</time>
      </trkpt>
      <trkpt lat="47.49092" lon="6.76229">
        <ele>323</ele>
        <time>2016-12-11T08:42:12.000Z</time>
      </trkpt>
      <trkpt lat="47.49092" lon="6.76223">
        <ele>322</ele>
        <time>2016-12-11T08:42:13.000Z</time>
      </trkpt>
      <trkpt lat="47.49092" lon="6.76217">
        <ele>322</ele>
        <time>2016-12-11T08:42:14.000Z</time>
      </trkpt>
      <trkpt lat="47.49092" lon="6.76214">
        <ele>322</ele>
        <time>2016-12-11T08:42:15.000Z</time>
      </trkpt>
      <trkpt lat="47.49092" lon="6.76209">
        <ele>322</ele>
        <time>2016-12-11T08:42:16.000Z</time>
      </trkpt>
      <trkpt lat="47.49092" lon="6.76205">
        <ele>322</ele>
        <time>2016-12-11T08:42:17.000Z</time>
      </trkpt>
      <trkpt lat="47.49092" lon="6.76201">
        <ele>322</ele>
        <time>2016-12-11T08:42:18.000Z</time>
      </trkpt>
      <trkpt lat="47.49092" lon="6.76197">
        <ele>322</ele>
        <time>2016-12-11T08:42:19.000Z</time>
      </trkpt>
      <trkpt lat="47.49092" lon="6.76194">
        <ele>322</ele>
        <time>2016-12-11T08:42:20.000Z</time>
      </trkpt>
      <trkpt lat="47.49092" lon="6.76189">
        <ele>322</ele>
        <time>2016-12-11T08:42:21.000Z</time>
      </trkpt>
      <trkpt lat="47.49093" lon="6.7618">
        <ele>323</ele>
        <time>2016-12-11T08:42:22.000Z</time>
      </trkpt>
      <trkpt lat="47.49094" lon="6.76164">
        <ele>323</ele>
        <time>2016-12-11T08:42:23.000Z</time>
      </trkpt>
      <trkpt lat="47.49095" lon="6.76155">
        <ele>323</ele>
        <time>2016-12-11T08:42:24.000Z</time>
      </trkpt>
      <trkpt lat="47.49095" lon="6.76146">
        <ele>323</ele>
        <time>2016-12-11T08:42:25.000Z</time>
      </trkpt>
      <trkpt lat="47.49095" lon="6.76138">
        <ele>323</ele>
        <time>2016-12-11T08:42:26.000Z</time>
      </trkpt>
      <trkpt lat="47.49095" lon="6.76129">
        <ele>323</ele>
        <time>2016-12-11T08:42:27.000Z</time>
      </trkpt>
      <trkpt lat="47.49095" lon="6.76116">
        <ele>324</ele>
        <time>2016-12-11T08:42:28.000Z</time>
      </trkpt>
      <trkpt lat="47.49096" lon="6.7611">
        <ele>324</ele>
        <time>2016-12-11T08:42:31.000Z</time>
      </trkpt>
      <trkpt lat="47.49097" lon="6.76106">
        <ele>324</ele>
        <time>2016-12-11T08:42:32.000Z</time>
      </trkpt>
      <trkpt lat="47.49096" lon="6.76102">
        <ele>324</ele>
        <time>2016-12-11T08:42:33.000Z</time>
      </trkpt>
      <trkpt lat="47.49096" lon="6.76098">
        <ele>325</ele>
        <time>2016-12-11T08:42:34.000Z</time>
      </trkpt>
      <trkpt lat="47.49096" lon="6.76093">
        <ele>325</ele>
        <time>2016-12-11T08:42:35.000Z</time>
      </trkpt>
      <trkpt lat="47.49096" lon="6.7609">
        <ele>325</ele>
        <time>2016-12-11T08:42:36.000Z</time>
      </trkpt>
      <trkpt lat="47.49096" lon="6.76086">
        <ele>326</ele>
        <time>2016-12-11T08:42:37.000Z</time>
      </trkpt>
      <trkpt lat="47.49096" lon="6.76081">
        <ele>327</ele>
        <time>2016-12-11T08:42:38.000Z</time>
      </trkpt>
      <trkpt lat="47.49096" lon="6.76076">
        <ele>326</ele>
        <time>2016-12-11T08:42:39.000Z</time>
      </trkpt>
      <trkpt lat="47.49102" lon="6.76063">
        <ele>326</ele>
        <time>2016-12-11T08:42:40.000Z</time>
      </trkpt>
      <trkpt lat="47.49105" lon="6.76055">
        <ele>326</ele>
        <time>2016-12-11T08:42:41.000Z</time>
      </trkpt>
      <trkpt lat="47.49107" lon="6.7605">
        <ele>326</ele>
        <time>2016-12-11T08:42:42.000Z</time>
      </trkpt>
      <trkpt lat="47.49107" lon="6.76049">
        <ele>326</ele>
        <time>2016-12-11T08:42:43.000Z</time>
      </trkpt>
      <trkpt lat="47.49108" lon="6.76042">
        <ele>326</ele>
        <time>2016-12-11T08:42:45.000Z</time>
      </trkpt>
      <trkpt lat="47.49107" lon="6.76039">
        <ele>326</ele>
        <time>2016-12-11T08:42:46.000Z</time>
      </trkpt>
      <trkpt lat="47.49109" lon="6.76034">
        <ele>326</ele>
        <time>2016-12-11T08:42:48.000Z</time>
      </trkpt>
      <trkpt lat="47.49109" lon="6.7603">
        <ele>326</ele>
        <time>2016-12-11T08:42:49.000Z</time>
      </trkpt>
      <trkpt lat="47.49109" lon="6.76026">
        <ele>326</ele>
        <time>2016-12-11T08:42:50.000Z</time>
      </trkpt>
      <trkpt lat="47.49109" lon="6.76022">
        <ele>326</ele>
        <time>2016-12-11T08:42:51.000Z</time>
      </trkpt>
      <trkpt lat="47.49111" lon="6.76016">
        <ele>327</ele>
        <time>2016-12-11T08:42:53.000Z</time>
      </trkpt>
      <trkpt lat="47.49111" lon="6.76013">
        <ele>327</ele>
        <time>2016-12-11T08:42:54.000Z</time>
      </trkpt>
      <trkpt lat="47.49114" lon="6.76008">
        <ele>326</ele>
        <time>2016-12-11T08:42:56.000Z</time>
      </trkpt>
      <trkpt lat="47.49115" lon="6.76007">
        <ele>326</ele>
        <time>2016-12-11T08:42:57.000Z</time>
      </trkpt>
      <trkpt lat="47.49117" lon="6.76001">
        <ele>326</ele>
        <time>2016-12-11T08:42:59.000Z</time>
      </trkpt>
      <trkpt lat="47.49118" lon="6.75998">
        <ele>328</ele>
        <time>2016-12-11T08:43:00.000Z</time>
      </trkpt>
      <trkpt lat="47.49119" lon="6.75996">
        <ele>328</ele>
        <time>2016-12-11T08:43:01.000Z</time>
      </trkpt>
      <trkpt lat="47.49121" lon="6.75993">
        <ele>328</ele>
        <time>2016-12-11T08:43:02.000Z</time>
      </trkpt>
      <trkpt lat="47.49122" lon="6.7599">
        <ele>328</ele>
        <time>2016-12-11T08:43:03.000Z</time>
      </trkpt>
      <trkpt lat="47.49124" lon="6.75987">
        <ele>328</ele>
        <time>2016-12-11T08:43:04.000Z</time>
      </trkpt>
      <trkpt lat="47.49125" lon="6.75983">
        <ele>328</ele>
        <time>2016-12-11T08:43:05.000Z</time>
      </trkpt>
      <trkpt lat="47.49126" lon="6.75979">
        <ele>328</ele>
        <time>2016-12-11T08:43:06.000Z</time>
      </trkpt>
      <trkpt lat="47.49129" lon="6.75974">
        <ele>327</ele>
        <time>2016-12-11T08:43:07.000Z</time>
      </trkpt>
      <trkpt lat="47.49133" lon="6.75966">
        <ele>327</ele>
        <time>2016-12-11T08:43:08.000Z</time>
      </trkpt>
      <trkpt lat="47.49134" lon="6.75954">
        <ele>328</ele>
        <time>2016-12-11T08:43:09.000Z</time>
      </trkpt>
      <trkpt lat="47.49136" lon="6.75943">
        <ele>328</ele>
        <time>2016-12-11T08:43:10.000Z</time>
      </trkpt>
      <trkpt lat="47.49137" lon="6.75931">
        <ele>328</ele>
        <time>2016-12-11T08:43:11.000Z</time>
      </trkpt>
      <trkpt lat="47.49138" lon="6.75921">
        <ele>327</ele>
        <time>2016-12-11T08:43:12.000Z</time>
      </trkpt>
      <trkpt lat="47.4914" lon="6.75913">
        <ele>330</ele>
        <time>2016-12-11T08:43:13.000Z</time>
      </trkpt>
      <trkpt lat="47.49141" lon="6.75905">
        <ele>330</ele>
        <time>2016-12-11T08:43:14.000Z</time>
      </trkpt>
      <trkpt lat="47.49143" lon="6.75899">
        <ele>330</ele>
        <time>2016-12-11T08:43:15.000Z</time>
      </trkpt>
      <trkpt lat="47.49144" lon="6.75891">
        <ele>330</ele>
        <time>2016-12-11T08:43:16.000Z</time>
      </trkpt>
      <trkpt lat="47.49147" lon="6.75878">
        <ele>331</ele>
        <time>2016-12-11T08:43:17.000Z</time>
      </trkpt>
      <trkpt lat="47.49148" lon="6.75873">
        <ele>331</ele>
        <time>2016-12-11T08:43:18.000Z</time>
      </trkpt>
      <trkpt lat="47.49149" lon="6.75869">
        <ele>331</ele>
        <time>2016-12-11T08:43:19.000Z</time>
      </trkpt>
      <trkpt lat="47.4915" lon="6.75864">
        <ele>331</ele>
        <time>2016-12-11T08:43:20.000Z</time>
      </trkpt>
      <trkpt lat="47.49151" lon="6.7586">
        <ele>331</ele>
        <time>2016-12-11T08:43:21.000Z</time>
      </trkpt>
      <trkpt lat="47.49154" lon="6.75857">
        <ele>330</ele>
        <time>2016-12-11T08:43:26.000Z</time>
      </trkpt>
      <trkpt lat="47.49156" lon="6.7585">
        <ele>330</ele>
        <time>2016-12-11T08:43:27.000Z</time>
      </trkpt>
      <trkpt lat="47.49157" lon="6.75841">
        <ele>329</ele>
        <time>2016-12-11T08:43:28.000Z</time>
      </trkpt>
      <trkpt lat="47.49161" lon="6.75819">
        <ele>332</ele>
        <time>2016-12-11T08:43:29.000Z</time>
      </trkpt>
      <trkpt lat="47.49163" lon="6.75811">
        <ele>334</ele>
        <time>2016-12-11T08:43:30.000Z</time>
      </trkpt>
      <trkpt lat="47.49166" lon="6.75803">
        <ele>335</ele>
        <time>2016-12-11T08:43:31.000Z</time>
      </trkpt>
      <trkpt lat="47.49167" lon="6.75793">
        <ele>326</ele>
        <time>2016-12-11T08:43:32.000Z</time>
      </trkpt>
      <trkpt lat="47.49173" lon="6.75775">
        <ele>328</ele>
        <time>2016-12-11T08:43:33.000Z</time>
      </trkpt>
      <trkpt lat="47.49178" lon="6.75771">
        <ele>328</ele>
        <time>2016-12-11T08:43:34.000Z</time>
      </trkpt>
      <trkpt lat="47.4918" lon="6.75765">
        <ele>329</ele>
        <time>2016-12-11T08:43:35.000Z</time>
      </trkpt>
      <trkpt lat="47.49182" lon="6.75761">
        <ele>329</ele>
        <time>2016-12-11T08:43:37.000Z</time>
      </trkpt>
      <trkpt lat="47.49183" lon="6.75758">
        <ele>329</ele>
        <time>2016-12-11T08:43:38.000Z</time>
      </trkpt>
      <trkpt lat="47.49185" lon="6.75753">
        <ele>329</ele>
        <time>2016-12-11T08:43:43.000Z</time>
      </trkpt>
      <trkpt lat="47.49186" lon="6.75746">
        <ele>333</ele>
        <time>2016-12-11T08:43:44.000Z</time>
      </trkpt>
      <trkpt lat="47.49186" lon="6.7574">
        <ele>333</ele>
        <time>2016-12-11T08:43:45.000Z</time>
      </trkpt>
      <trkpt lat="47.49187" lon="6.75736">
        <ele>333</ele>
        <time>2016-12-11T08:43:46.000Z</time>
      </trkpt>
      <trkpt lat="47.49187" lon="6.7573">
        <ele>333</ele>
        <time>2016-12-11T08:43:47.000Z</time>
      </trkpt>
      <trkpt lat="47.49188" lon="6.75723">
        <ele>333</ele>
        <time>2016-12-11T08:43:48.000Z</time>
      </trkpt>
      <trkpt lat="47.49189" lon="6.75711">
        <ele>333</ele>
        <time>2016-12-11T08:43:49.000Z</time>
      </trkpt>
      <trkpt lat="47.49191" lon="6.75702">
        <ele>334</ele>
        <time>2016-12-11T08:43:50.000Z</time>
      </trkpt>
      <trkpt lat="47.49194" lon="6.75693">
        <ele>334</ele>
        <time>2016-12-11T08:43:51.000Z</time>
      </trkpt>
      <trkpt lat="47.49194" lon="6.75693">
        <ele>334</ele>
        <time>2016-12-11T08:43:54.000Z</time>
      </trkpt>
      <trkpt lat="47.49195" lon="6.75684">
        <ele>335</ele>
        <time>2016-12-11T08:43:55.000Z</time>
      </trkpt>
      <trkpt lat="47.492" lon="6.75659">
        <ele>340</ele>
        <time>2016-12-11T08:43:56.000Z</time>
      </trkpt>
      <trkpt lat="47.49204" lon="6.75647">
        <ele>340</ele>
        <time>2016-12-11T08:43:57.000Z</time>
      </trkpt>
      <trkpt lat="47.4921" lon="6.7563">
        <ele>339</ele>
        <time>2016-12-11T08:43:58.000Z</time>
      </trkpt>
      <trkpt lat="47.49211" lon="6.75626">
        <ele>339</ele>
        <time>2016-12-11T08:43:59.000Z</time>
      </trkpt>
      <trkpt lat="47.49212" lon="6.75621">
        <ele>339</ele>
        <time>2016-12-11T08:44:00.000Z</time>
      </trkpt>
      <trkpt lat="47.49216" lon="6.75607">
        <ele>339</ele>
        <time>2016-12-11T08:44:01.000Z</time>
      </trkpt>
      <trkpt lat="47.49223" lon="6.75597">
        <ele>339</ele>
        <time>2016-12-11T08:44:02.000Z</time>
      </trkpt>
      <trkpt lat="47.49231" lon="6.75586">
        <ele>337</ele>
        <time>2016-12-11T08:44:03.000Z</time>
      </trkpt>
      <trkpt lat="47.49236" lon="6.75579">
        <ele>339</ele>
        <time>2016-12-11T08:44:04.000Z</time>
      </trkpt>
      <trkpt lat="47.49238" lon="6.75575">
        <ele>339</ele>
        <time>2016-12-11T08:44:05.000Z</time>
      </trkpt>
      <trkpt lat="47.4924" lon="6.75571">
        <ele>339</ele>
        <time>2016-12-11T08:44:06.000Z</time>
      </trkpt>
      <trkpt lat="47.49242" lon="6.75567">
        <ele>340</ele>
        <time>2016-12-11T08:44:07.000Z</time>
      </trkpt>
      <trkpt lat="47.49245" lon="6.75564">
        <ele>340</ele>
        <time>2016-12-11T08:44:08.000Z</time>
      </trkpt>
      <trkpt lat="47.49246" lon="6.7556">
        <ele>341</ele>
        <time>2016-12-11T08:44:09.000Z</time>
      </trkpt>
      <trkpt lat="47.49247" lon="6.75556">
        <ele>342</ele>
        <time>2016-12-11T08:44:10.000Z</time>
      </trkpt>
      <trkpt lat="47.49249" lon="6.75551">
        <ele>342</ele>
        <time>2016-12-11T08:44:11.000Z</time>
      </trkpt>
      <trkpt lat="47.49251" lon="6.75545">
        <ele>331</ele>
        <time>2016-12-11T08:44:12.000Z</time>
      </trkpt>
      <trkpt lat="47.49252" lon="6.7554">
        <ele>332</ele>
        <time>2016-12-11T08:44:13.000Z</time>
      </trkpt>
      <trkpt lat="47.49254" lon="6.75535">
        <ele>332</ele>
        <time>2016-12-11T08:44:14.000Z</time>
      </trkpt>
      <trkpt lat="47.49255" lon="6.75529">
        <ele>333</ele>
        <time>2016-12-11T08:44:15.000Z</time>
      </trkpt>
      <trkpt lat="47.49256" lon="6.75523">
        <ele>333</ele>
        <time>2016-12-11T08:44:16.000Z</time>
      </trkpt>
      <trkpt lat="47.49257" lon="6.75518">
        <ele>334</ele>
        <time>2016-12-11T08:44:17.000Z</time>
      </trkpt>
      <trkpt lat="47.49259" lon="6.75506">
        <ele>335</ele>
        <time>2016-12-11T08:44:18.000Z</time>
      </trkpt>
      <trkpt lat="47.4926" lon="6.75497">
        <ele>337</ele>
        <time>2016-12-11T08:44:19.000Z</time>
      </trkpt>
      <trkpt lat="47.4926" lon="6.75488">
        <ele>337</ele>
        <time>2016-12-11T08:44:20.000Z</time>
      </trkpt>
      <trkpt lat="47.4926" lon="6.75482">
        <ele>337</ele>
        <time>2016-12-11T08:44:21.000Z</time>
      </trkpt>
      <trkpt lat="47.49261" lon="6.75473">
        <ele>337</ele>
        <time>2016-12-11T08:44:22.000Z</time>
      </trkpt>
      <trkpt lat="47.49264" lon="6.75464">
        <ele>337</ele>
        <time>2016-12-11T08:44:23.000Z</time>
      </trkpt>
      <trkpt lat="47.49264" lon="6.75462">
        <ele>337</ele>
        <time>2016-12-11T08:44:24.000Z</time>
      </trkpt>
      <trkpt lat="47.49265" lon="6.75456">
        <ele>337</ele>
        <time>2016-12-11T08:44:25.000Z</time>
      </trkpt>
      <trkpt lat="47.49266" lon="6.75452">
        <ele>337</ele>
        <time>2016-12-11T08:44:26.000Z</time>
      </trkpt>
      <trkpt lat="47.49268" lon="6.75444">
        <ele>337</ele>
        <time>2016-12-11T08:44:27.000Z</time>
      </trkpt>
      <trkpt lat="47.49269" lon="6.75439">
        <ele>338</ele>
        <time>2016-12-11T08:44:28.000Z</time>
      </trkpt>
      <trkpt lat="47.4927" lon="6.75435">
        <ele>338</ele>
        <time>2016-12-11T08:44:29.000Z</time>
      </trkpt>
      <trkpt lat="47.4927" lon="6.75431">
        <ele>338</ele>
        <time>2016-12-11T08:44:30.000Z</time>
      </trkpt>
      <trkpt lat="47.49272" lon="6.75423">
        <ele>338</ele>
        <time>2016-12-11T08:44:31.000Z</time>
      </trkpt>
      <trkpt lat="47.49273" lon="6.75417">
        <ele>338</ele>
        <time>2016-12-11T08:44:32.000Z</time>
      </trkpt>
      <trkpt lat="47.49274" lon="6.75413">
        <ele>340</ele>
        <time>2016-12-11T08:44:33.000Z</time>
      </trkpt>
      <trkpt lat="47.49275" lon="6.7541">
        <ele>340</ele>
        <time>2016-12-11T08:44:34.000Z</time>
      </trkpt>
      <trkpt lat="47.49277" lon="6.75405">
        <ele>340</ele>
        <time>2016-12-11T08:44:35.000Z</time>
      </trkpt>
      <trkpt lat="47.49278" lon="6.75401">
        <ele>339</ele>
        <time>2016-12-11T08:44:36.000Z</time>
      </trkpt>
      <trkpt lat="47.49279" lon="6.75395">
        <ele>339</ele>
        <time>2016-12-11T08:44:37.000Z</time>
      </trkpt>
      <trkpt lat="47.49279" lon="6.7539">
        <ele>339</ele>
        <time>2016-12-11T08:44:38.000Z</time>
      </trkpt>
      <trkpt lat="47.49279" lon="6.75385">
        <ele>339</ele>
        <time>2016-12-11T08:44:39.000Z</time>
      </trkpt>
      <trkpt lat="47.49279" lon="6.7538">
        <ele>339</ele>
        <time>2016-12-11T08:44:40.000Z</time>
      </trkpt>
      <trkpt lat="47.49279" lon="6.75375">
        <ele>339</ele>
        <time>2016-12-11T08:44:41.000Z</time>
      </trkpt>
      <trkpt lat="47.49281" lon="6.75367">
        <ele>339</ele>
        <time>2016-12-11T08:44:42.000Z</time>
      </trkpt>
      <trkpt lat="47.49282" lon="6.75362">
        <ele>339</ele>
        <time>2016-12-11T08:44:44.000Z</time>
      </trkpt>
      <trkpt lat="47.49284" lon="6.75358">
        <ele>339</ele>
        <time>2016-12-11T08:44:45.000Z</time>
      </trkpt>
      <trkpt lat="47.49285" lon="6.75354">
        <ele>339</ele>
        <time>2016-12-11T08:44:46.000Z</time>
      </trkpt>
      <trkpt lat="47.49286" lon="6.7535">
        <ele>339</ele>
        <time>2016-12-11T08:44:47.000Z</time>
      </trkpt>
      <trkpt lat="47.49287" lon="6.75346">
        <ele>339</ele>
        <time>2016-12-11T08:44:48.000Z</time>
      </trkpt>
      <trkpt lat="47.49288" lon="6.75342">
        <ele>339</ele>
        <time>2016-12-11T08:44:49.000Z</time>
      </trkpt>
      <trkpt lat="47.49293" lon="6.75332">
        <ele>339</ele>
        <time>2016-12-11T08:44:50.000Z</time>
      </trkpt>
      <trkpt lat="47.49295" lon="6.75322">
        <ele>339</ele>
        <time>2016-12-11T08:44:51.000Z</time>
      </trkpt>
      <trkpt lat="47.49294" lon="6.75319">
        <ele>339</ele>
        <time>2016-12-11T08:44:52.000Z</time>
      </trkpt>
      <trkpt lat="47.49292" lon="6.75314">
        <ele>340</ele>
        <time>2016-12-11T08:44:53.000Z</time>
      </trkpt>
      <trkpt lat="47.49292" lon="6.75309">
        <ele>340</ele>
        <time>2016-12-11T08:44:54.000Z</time>
      </trkpt>
      <trkpt lat="47.49291" lon="6.75307">
        <ele>340</ele>
        <time>2016-12-11T08:44:55.000Z</time>
      </trkpt>
      <trkpt lat="47.49291" lon="6.75301">
        <ele>340</ele>
        <time>2016-12-11T08:44:57.000Z</time>
      </trkpt>
      <trkpt lat="47.49291" lon="6.753">
        <ele>340</ele>
        <time>2016-12-11T08:44:58.000Z</time>
      </trkpt>
      <trkpt lat="47.49292" lon="6.75294">
        <ele>340</ele>
        <time>2016-12-11T08:45:00.000Z</time>
      </trkpt>
      <trkpt lat="47.49291" lon="6.75291">
        <ele>340</ele>
        <time>2016-12-11T08:45:01.000Z</time>
      </trkpt>
      <trkpt lat="47.49291" lon="6.75287">
        <ele>340</ele>
        <time>2016-12-11T08:45:02.000Z</time>
      </trkpt>
      <trkpt lat="47.49291" lon="6.75283">
        <ele>340</ele>
        <time>2016-12-11T08:45:03.000Z</time>
      </trkpt>
      <trkpt lat="47.4929" lon="6.75278">
        <ele>340</ele>
        <time>2016-12-11T08:45:05.000Z</time>
      </trkpt>
      <trkpt lat="47.49291" lon="6.75275">
        <ele>340</ele>
        <time>2016-12-11T08:45:06.000Z</time>
      </trkpt>
      <trkpt lat="47.49292" lon="6.75269">
        <ele>340</ele>
        <time>2016-12-11T08:45:08.000Z</time>
      </trkpt>
      <trkpt lat="47.49292" lon="6.75266">
        <ele>340</ele>
        <time>2016-12-11T08:45:09.000Z</time>
      </trkpt>
      <trkpt lat="47.49292" lon="6.75262">
        <ele>340</ele>
        <time>2016-12-11T08:45:10.000Z</time>
      </trkpt>
      <trkpt lat="47.49292" lon="6.75257">
        <ele>340</ele>
        <time>2016-12-11T08:45:11.000Z</time>
      </trkpt>
      <trkpt lat="47.49293" lon="6.75251">
        <ele>340</ele>
        <time>2016-12-11T08:45:13.000Z</time>
      </trkpt>
      <trkpt lat="47.49294" lon="6.75247">
        <ele>342</ele>
        <time>2016-12-11T08:45:14.000Z</time>
      </trkpt>
      <trkpt lat="47.49295" lon="6.75241">
        <ele>342</ele>
        <time>2016-12-11T08:45:15.000Z</time>
      </trkpt>
      <trkpt lat="47.49296" lon="6.75236">
        <ele>342</ele>
        <time>2016-12-11T08:45:16.000Z</time>
      </trkpt>
      <trkpt lat="47.49296" lon="6.7523">
        <ele>342</ele>
        <time>2016-12-11T08:45:17.000Z</time>
      </trkpt>
      <trkpt lat="47.49296" lon="6.75223">
        <ele>342</ele>
        <time>2016-12-11T08:45:18.000Z</time>
      </trkpt>
      <trkpt lat="47.49296" lon="6.75218">
        <ele>342</ele>
        <time>2016-12-11T08:45:19.000Z</time>
      </trkpt>
      <trkpt lat="47.49297" lon="6.75213">
        <ele>342</ele>
        <time>2016-12-11T08:45:20.000Z</time>
      </trkpt>
      <trkpt lat="47.49297" lon="6.75208">
        <ele>342</ele>
        <time>2016-12-11T08:45:22.000Z</time>
      </trkpt>
      <trkpt lat="47.49297" lon="6.75203">
        <ele>343</ele>
        <time>2016-12-11T08:45:23.000Z</time>
      </trkpt>
      <trkpt lat="47.49297" lon="6.752">
        <ele>343</ele>
        <time>2016-12-11T08:45:25.000Z</time>
      </trkpt>
      <trkpt lat="47.49297" lon="6.75193">
        <ele>343</ele>
        <time>2016-12-11T08:45:26.000Z</time>
      </trkpt>
      <trkpt lat="47.49297" lon="6.75186">
        <ele>343</ele>
        <time>2016-12-11T08:45:27.000Z</time>
      </trkpt>
      <trkpt lat="47.49298" lon="6.75178">
        <ele>343</ele>
        <time>2016-12-11T08:45:28.000Z</time>
      </trkpt>
      <trkpt lat="47.49298" lon="6.75167">
        <ele>345</ele>
        <time>2016-12-11T08:45:29.000Z</time>
      </trkpt>
      <trkpt lat="47.49297" lon="6.75158">
        <ele>346</ele>
        <time>2016-12-11T08:45:30.000Z</time>
      </trkpt>
      <trkpt lat="47.49296" lon="6.75149">
        <ele>346</ele>
        <time>2016-12-11T08:45:31.000Z</time>
      </trkpt>
      <trkpt lat="47.49295" lon="6.7514">
        <ele>346</ele>
        <time>2016-12-11T08:45:32.000Z</time>
      </trkpt>
      <trkpt lat="47.49294" lon="6.7513">
        <ele>347</ele>
        <time>2016-12-11T08:45:33.000Z</time>
      </trkpt>
      <trkpt lat="47.49294" lon="6.75121">
        <ele>347</ele>
        <time>2016-12-11T08:45:34.000Z</time>
      </trkpt>
      <trkpt lat="47.49295" lon="6.75113">
        <ele>347</ele>
        <time>2016-12-11T08:45:35.000Z</time>
      </trkpt>
      <trkpt lat="47.49295" lon="6.75105">
        <ele>347</ele>
        <time>2016-12-11T08:45:36.000Z</time>
      </trkpt>
      <trkpt lat="47.49296" lon="6.75096">
        <ele>347</ele>
        <time>2016-12-11T08:45:37.000Z</time>
      </trkpt>
      <trkpt lat="47.49297" lon="6.75091">
        <ele>347</ele>
        <time>2016-12-11T08:45:38.000Z</time>
      </trkpt>
      <trkpt lat="47.49299" lon="6.75086">
        <ele>346</ele>
        <time>2016-12-11T08:45:39.000Z</time>
      </trkpt>
      <trkpt lat="47.493" lon="6.75078">
        <ele>348</ele>
        <time>2016-12-11T08:45:40.000Z</time>
      </trkpt>
      <trkpt lat="47.49303" lon="6.75072">
        <ele>348</ele>
        <time>2016-12-11T08:45:41.000Z</time>
      </trkpt>
      <trkpt lat="47.49306" lon="6.75066">
        <ele>348</ele>
        <time>2016-12-11T08:45:42.000Z</time>
      </trkpt>
      <trkpt lat="47.49309" lon="6.75061">
        <ele>348</ele>
        <time>2016-12-11T08:45:43.000Z</time>
      </trkpt>
      <trkpt lat="47.49312" lon="6.75057">
        <ele>348</ele>
        <time>2016-12-11T08:45:44.000Z</time>
      </trkpt>
      <trkpt lat="47.49316" lon="6.75053">
        <ele>347</ele>
        <time>2016-12-11T08:45:45.000Z</time>
      </trkpt>
      <trkpt lat="47.4932" lon="6.7505">
        <ele>347</ele>
        <time>2016-12-11T08:45:46.000Z</time>
      </trkpt>
      <trkpt lat="47.49322" lon="6.75047">
        <ele>347</ele>
        <time>2016-12-11T08:45:47.000Z</time>
      </trkpt>
      <trkpt lat="47.49324" lon="6.75043">
        <ele>347</ele>
        <time>2016-12-11T08:45:48.000Z</time>
      </trkpt>
      <trkpt lat="47.49328" lon="6.75038">
        <ele>347</ele>
        <time>2016-12-11T08:45:49.000Z</time>
      </trkpt>
      <trkpt lat="47.49331" lon="6.75035">
        <ele>347</ele>
        <time>2016-12-11T08:45:50.000Z</time>
      </trkpt>
      <trkpt lat="47.49333" lon="6.75029">
        <ele>347</ele>
        <time>2016-12-11T08:45:51.000Z</time>
      </trkpt>
      <trkpt lat="47.49334" lon="6.75023">
        <ele>340</ele>
        <time>2016-12-11T08:45:52.000Z</time>
      </trkpt>
      <trkpt lat="47.49335" lon="6.7502">
        <ele>340</ele>
        <time>2016-12-11T08:45:53.000Z</time>
      </trkpt>
      <trkpt lat="47.49335" lon="6.75015">
        <ele>341</ele>
        <time>2016-12-11T08:45:56.000Z</time>
      </trkpt>
      <trkpt lat="47.49336" lon="6.75011">
        <ele>341</ele>
        <time>2016-12-11T08:45:57.000Z</time>
      </trkpt>
      <trkpt lat="47.49336" lon="6.75006">
        <ele>342</ele>
        <time>2016-12-11T08:45:58.000Z</time>
      </trkpt>
      <trkpt lat="47.49336" lon="6.75001">
        <ele>342</ele>
        <time>2016-12-11T08:45:59.000Z</time>
      </trkpt>
      <trkpt lat="47.49336" lon="6.74995">
        <ele>343</ele>
        <time>2016-12-11T08:46:00.000Z</time>
      </trkpt>
      <trkpt lat="47.49335" lon="6.7499">
        <ele>342</ele>
        <time>2016-12-11T08:46:01.000Z</time>
      </trkpt>
      <trkpt lat="47.49335" lon="6.74986">
        <ele>342</ele>
        <time>2016-12-11T08:46:02.000Z</time>
      </trkpt>
      <trkpt lat="47.49335" lon="6.74982">
        <ele>342</ele>
        <time>2016-12-11T08:46:03.000Z</time>
      </trkpt>
      <trkpt lat="47.49335" lon="6.7498">
        <ele>342</ele>
        <time>2016-12-11T08:46:04.000Z</time>
      </trkpt>
      <trkpt lat="47.49335" lon="6.74976">
        <ele>342</ele>
        <time>2016-12-11T08:46:05.000Z</time>
      </trkpt>
      <trkpt lat="47.49335" lon="6.74969">
        <ele>342</ele>
        <time>2016-12-11T08:46:07.000Z</time>
      </trkpt>
      <trkpt lat="47.49334" lon="6.74962">
        <ele>342</ele>
        <time>2016-12-11T08:46:08.000Z</time>
      </trkpt>
      <trkpt lat="47.49334" lon="6.74958">
        <ele>342</ele>
        <time>2016-12-11T08:46:09.000Z</time>
      </trkpt>
      <trkpt lat="47.49334" lon="6.74955">
        <ele>342</ele>
        <time>2016-12-11T08:46:10.000Z</time>
      </trkpt>
      <trkpt lat="47.49335" lon="6.74949">
        <ele>343</ele>
        <time>2016-12-11T08:46:14.000Z</time>
      </trkpt>
      <trkpt lat="47.49335" lon="6.74948">
        <ele>343</ele>
        <time>2016-12-11T08:46:15.000Z</time>
      </trkpt>
      <trkpt lat="47.49336" lon="6.74943">
        <ele>343</ele>
        <time>2016-12-11T08:46:18.000Z</time>
      </trkpt>
      <trkpt lat="47.49336" lon="6.74939">
        <ele>343</ele>
        <time>2016-12-11T08:46:19.000Z</time>
      </trkpt>
      <trkpt lat="47.49337" lon="6.74934">
        <ele>344</ele>
        <time>2016-12-11T08:46:21.000Z</time>
      </trkpt>
      <trkpt lat="47.49337" lon="6.74932">
        <ele>344</ele>
        <time>2016-12-11T08:46:22.000Z</time>
      </trkpt>
      <trkpt lat="47.49337" lon="6.74927">
        <ele>345</ele>
        <time>2016-12-11T08:46:25.000Z</time>
      </trkpt>
      <trkpt lat="47.49337" lon="6.74926">
        <ele>345</ele>
        <time>2016-12-11T08:46:26.000Z</time>
      </trkpt>
      <trkpt lat="47.49335" lon="6.74921">
        <ele>347</ele>
        <time>2016-12-11T08:46:29.000Z</time>
      </trkpt>
      <trkpt lat="47.49334" lon="6.74919">
        <ele>347</ele>
        <time>2016-12-11T08:46:30.000Z</time>
      </trkpt>
      <trkpt lat="47.49335" lon="6.74913">
        <ele>347</ele>
        <time>2016-12-11T08:46:35.000Z</time>
      </trkpt>
      <trkpt lat="47.49336" lon="6.7491">
        <ele>346</ele>
        <time>2016-12-11T08:46:36.000Z</time>
      </trkpt>
      <trkpt lat="47.4934" lon="6.74906">
        <ele>345</ele>
        <time>2016-12-11T08:46:38.000Z</time>
      </trkpt>
      <trkpt lat="47.49341" lon="6.74903">
        <ele>345</ele>
        <time>2016-12-11T08:46:39.000Z</time>
      </trkpt>
      <trkpt lat="47.49344" lon="6.74898">
        <ele>344</ele>
        <time>2016-12-11T08:46:42.000Z</time>
      </trkpt>
      <trkpt lat="47.49346" lon="6.74895">
        <ele>344</ele>
        <time>2016-12-11T08:46:43.000Z</time>
      </trkpt>
      <trkpt lat="47.49348" lon="6.74893">
        <ele>344</ele>
        <time>2016-12-11T08:46:45.000Z</time>
      </trkpt>
      <trkpt lat="47.49351" lon="6.74892">
        <ele>343</ele>
        <time>2016-12-11T08:46:46.000Z</time>
      </trkpt>
      <trkpt lat="47.49352" lon="6.74889">
        <ele>343</ele>
        <time>2016-12-11T08:46:47.000Z</time>
      </trkpt>
      <trkpt lat="47.49353" lon="6.74885">
        <ele>343</ele>
        <time>2016-12-11T08:46:48.000Z</time>
      </trkpt>
      <trkpt lat="47.49354" lon="6.74883">
        <ele>343</ele>
        <time>2016-12-11T08:46:49.000Z</time>
      </trkpt>
      <trkpt lat="47.49356" lon="6.7488">
        <ele>343</ele>
        <time>2016-12-11T08:46:50.000Z</time>
      </trkpt>
      <trkpt lat="47.49357" lon="6.74877">
        <ele>343</ele>
        <time>2016-12-11T08:46:51.000Z</time>
      </trkpt>
      <trkpt lat="47.49358" lon="6.74873">
        <ele>342</ele>
        <time>2016-12-11T08:46:52.000Z</time>
      </trkpt>
      <trkpt lat="47.4936" lon="6.74869">
        <ele>342</ele>
        <time>2016-12-11T08:46:53.000Z</time>
      </trkpt>
      <trkpt lat="47.49361" lon="6.74865">
        <ele>342</ele>
        <time>2016-12-11T08:46:54.000Z</time>
      </trkpt>
      <trkpt lat="47.49363" lon="6.74861">
        <ele>342</ele>
        <time>2016-12-11T08:46:55.000Z</time>
      </trkpt>
      <trkpt lat="47.49365" lon="6.74857">
        <ele>342</ele>
        <time>2016-12-11T08:46:56.000Z</time>
      </trkpt>
      <trkpt lat="47.49368" lon="6.74851">
        <ele>342</ele>
        <time>2016-12-11T08:46:57.000Z</time>
      </trkpt>
      <trkpt lat="47.49371" lon="6.74843">
        <ele>342</ele>
        <time>2016-12-11T08:46:58.000Z</time>
      </trkpt>
      <trkpt lat="47.49372" lon="6.74828">
        <ele>344</ele>
        <time>2016-12-11T08:46:59.000Z</time>
      </trkpt>
      <trkpt lat="47.49374" lon="6.74815">
        <ele>344</ele>
        <time>2016-12-11T08:47:00.000Z</time>
      </trkpt>
      <trkpt lat="47.49376" lon="6.74804">
        <ele>344</ele>
        <time>2016-12-11T08:47:01.000Z</time>
      </trkpt>
      <trkpt lat="47.49377" lon="6.74797">
        <ele>344</ele>
        <time>2016-12-11T08:47:02.000Z</time>
      </trkpt>
      <trkpt lat="47.49379" lon="6.74789">
        <ele>344</ele>
        <time>2016-12-11T08:47:03.000Z</time>
      </trkpt>
      <trkpt lat="47.4938" lon="6.74782">
        <ele>344</ele>
        <time>2016-12-11T08:47:04.000Z</time>
      </trkpt>
      <trkpt lat="47.49381" lon="6.74773">
        <ele>344</ele>
        <time>2016-12-11T08:47:05.000Z</time>
      </trkpt>
      <trkpt lat="47.49382" lon="6.74765">
        <ele>344</ele>
        <time>2016-12-11T08:47:06.000Z</time>
      </trkpt>
      <trkpt lat="47.49383" lon="6.74758">
        <ele>344</ele>
        <time>2016-12-11T08:47:07.000Z</time>
      </trkpt>
      <trkpt lat="47.49383" lon="6.74744">
        <ele>347</ele>
        <time>2016-12-11T08:47:08.000Z</time>
      </trkpt>
      <trkpt lat="47.49385" lon="6.74739">
        <ele>347</ele>
        <time>2016-12-11T08:47:09.000Z</time>
      </trkpt>
      <trkpt lat="47.49388" lon="6.74733">
        <ele>347</ele>
        <time>2016-12-11T08:47:10.000Z</time>
      </trkpt>
      <trkpt lat="47.49391" lon="6.74724">
        <ele>347</ele>
        <time>2016-12-11T08:47:11.000Z</time>
      </trkpt>
      <trkpt lat="47.49392" lon="6.74719">
        <ele>347</ele>
        <time>2016-12-11T08:47:12.000Z</time>
      </trkpt>
      <trkpt lat="47.49392" lon="6.74716">
        <ele>347</ele>
        <time>2016-12-11T08:47:13.000Z</time>
      </trkpt>
      <trkpt lat="47.49394" lon="6.74709">
        <ele>347</ele>
        <time>2016-12-11T08:47:14.000Z</time>
      </trkpt>
      <trkpt lat="47.49392" lon="6.74703">
        <ele>347</ele>
        <time>2016-12-11T08:47:15.000Z</time>
      </trkpt>
      <trkpt lat="47.49391" lon="6.74697">
        <ele>347</ele>
        <time>2016-12-11T08:47:16.000Z</time>
      </trkpt>
      <trkpt lat="47.49391" lon="6.74692">
        <ele>347</ele>
        <time>2016-12-11T08:47:17.000Z</time>
      </trkpt>
      <trkpt lat="47.49391" lon="6.74688">
        <ele>347</ele>
        <time>2016-12-11T08:47:18.000Z</time>
      </trkpt>
      <trkpt lat="47.49391" lon="6.74682">
        <ele>347</ele>
        <time>2016-12-11T08:47:19.000Z</time>
      </trkpt>
      <trkpt lat="47.49391" lon="6.74678">
        <ele>346</ele>
        <time>2016-12-11T08:47:20.000Z</time>
      </trkpt>
      <trkpt lat="47.49391" lon="6.74669">
        <ele>346</ele>
        <time>2016-12-11T08:47:21.000Z</time>
      </trkpt>
      <trkpt lat="47.49392" lon="6.74661">
        <ele>347</ele>
        <time>2016-12-11T08:47:22.000Z</time>
      </trkpt>
      <trkpt lat="47.49391" lon="6.74659">
        <ele>347</ele>
        <time>2016-12-11T08:47:26.000Z</time>
      </trkpt>
      <trkpt lat="47.49391" lon="6.74654">
        <ele>348</ele>
        <time>2016-12-11T08:47:27.000Z</time>
      </trkpt>
      <trkpt lat="47.49391" lon="6.74649">
        <ele>348</ele>
        <time>2016-12-11T08:47:28.000Z</time>
      </trkpt>
      <trkpt lat="47.49391" lon="6.74645">
        <ele>348</ele>
        <time>2016-12-11T08:47:29.000Z</time>
      </trkpt>
      <trkpt lat="47.49391" lon="6.7464">
        <ele>348</ele>
        <time>2016-12-11T08:47:30.000Z</time>
      </trkpt>
      <trkpt lat="47.4939" lon="6.74631">
        <ele>349</ele>
        <time>2016-12-11T08:47:31.000Z</time>
      </trkpt>
      <trkpt lat="47.4939" lon="6.74622">
        <ele>349</ele>
        <time>2016-12-11T08:47:32.000Z</time>
      </trkpt>
      <trkpt lat="47.4939" lon="6.74616">
        <ele>349</ele>
        <time>2016-12-11T08:47:33.000Z</time>
      </trkpt>
      <trkpt lat="47.4939" lon="6.74612">
        <ele>349</ele>
        <time>2016-12-11T08:47:34.000Z</time>
      </trkpt>
      <trkpt lat="47.4939" lon="6.74608">
        <ele>349</ele>
        <time>2016-12-11T08:47:35.000Z</time>
      </trkpt>
      <trkpt lat="47.49389" lon="6.74604">
        <ele>349</ele>
        <time>2016-12-11T08:47:36.000Z</time>
      </trkpt>
      <trkpt lat="47.49389" lon="6.746">
        <ele>349</ele>
        <time>2016-12-11T08:47:37.000Z</time>
      </trkpt>
      <trkpt lat="47.4939" lon="6.74595">
        <ele>348</ele>
        <time>2016-12-11T08:47:38.000Z</time>
      </trkpt>
      <trkpt lat="47.49388" lon="6.74589">
        <ele>349</ele>
        <time>2016-12-11T08:47:42.000Z</time>
      </trkpt>
      <trkpt lat="47.49387" lon="6.74584">
        <ele>349</ele>
        <time>2016-12-11T08:47:43.000Z</time>
      </trkpt>
      <trkpt lat="47.49386" lon="6.74581">
        <ele>350</ele>
        <time>2016-12-11T08:47:44.000Z</time>
      </trkpt>
      <trkpt lat="47.49387" lon="6.74574">
        <ele>350</ele>
        <time>2016-12-11T08:47:45.000Z</time>
      </trkpt>
      <trkpt lat="47.49387" lon="6.74569">
        <ele>350</ele>
        <time>2016-12-11T08:47:46.000Z</time>
      </trkpt>
      <trkpt lat="47.49388" lon="6.74563">
        <ele>351</ele>
        <time>2016-12-11T08:47:47.000Z</time>
      </trkpt>
      <trkpt lat="47.49389" lon="6.74558">
        <ele>351</ele>
        <time>2016-12-11T08:47:48.000Z</time>
      </trkpt>
      <trkpt lat="47.4939" lon="6.74554">
        <ele>351</ele>
        <time>2016-12-11T08:47:49.000Z</time>
      </trkpt>
      <trkpt lat="47.4939" lon="6.7455">
        <ele>351</ele>
        <time>2016-12-11T08:47:50.000Z</time>
      </trkpt>
      <trkpt lat="47.49391" lon="6.74547">
        <ele>351</ele>
        <time>2016-12-11T08:47:51.000Z</time>
      </trkpt>
      <trkpt lat="47.49391" lon="6.74543">
        <ele>351</ele>
        <time>2016-12-11T08:47:52.000Z</time>
      </trkpt>
      <trkpt lat="47.49392" lon="6.74539">
        <ele>351</ele>
        <time>2016-12-11T08:47:53.000Z</time>
      </trkpt>
      <trkpt lat="47.49393" lon="6.74536">
        <ele>351</ele>
        <time>2016-12-11T08:47:54.000Z</time>
      </trkpt>
      <trkpt lat="47.49394" lon="6.74532">
        <ele>351</ele>
        <time>2016-12-11T08:47:55.000Z</time>
      </trkpt>
      <trkpt lat="47.49395" lon="6.74528">
        <ele>351</ele>
        <time>2016-12-11T08:47:56.000Z</time>
      </trkpt>
      <trkpt lat="47.49394" lon="6.74524">
        <ele>351</ele>
        <time>2016-12-11T08:47:57.000Z</time>
      </trkpt>
      <trkpt lat="47.49394" lon="6.7452">
        <ele>351</ele>
        <time>2016-12-11T08:47:58.000Z</time>
      </trkpt>
      <trkpt lat="47.49394" lon="6.74517">
        <ele>351</ele>
        <time>2016-12-11T08:47:59.000Z</time>
      </trkpt>
      <trkpt lat="47.49394" lon="6.74514">
        <ele>351</ele>
        <time>2016-12-11T08:48:00.000Z</time>
      </trkpt>
      <trkpt lat="47.49394" lon="6.74508">
        <ele>351</ele>
        <time>2016-12-11T08:48:01.000Z</time>
      </trkpt>
      <trkpt lat="47.49394" lon="6.74504">
        <ele>351</ele>
        <time>2016-12-11T08:48:02.000Z</time>
      </trkpt>
      <trkpt lat="47.49393" lon="6.745">
        <ele>351</ele>
        <time>2016-12-11T08:48:03.000Z</time>
      </trkpt>
      <trkpt lat="47.49391" lon="6.74495">
        <ele>352</ele>
        <time>2016-12-11T08:48:04.000Z</time>
      </trkpt>
      <trkpt lat="47.49391" lon="6.74492">
        <ele>353</ele>
        <time>2016-12-11T08:48:05.000Z</time>
      </trkpt>
      <trkpt lat="47.49392" lon="6.74485">
        <ele>353</ele>
        <time>2016-12-11T08:48:08.000Z</time>
      </trkpt>
      <trkpt lat="47.49393" lon="6.7448">
        <ele>353</ele>
        <time>2016-12-11T08:48:09.000Z</time>
      </trkpt>
      <trkpt lat="47.49393" lon="6.74466">
        <ele>353</ele>
        <time>2016-12-11T08:48:10.000Z</time>
      </trkpt>
      <trkpt lat="47.49395" lon="6.74458">
        <ele>353</ele>
        <time>2016-12-11T08:48:11.000Z</time>
      </trkpt>
      <trkpt lat="47.49396" lon="6.74449">
        <ele>353</ele>
        <time>2016-12-11T08:48:12.000Z</time>
      </trkpt>
      <trkpt lat="47.49396" lon="6.74441">
        <ele>352</ele>
        <time>2016-12-11T08:48:13.000Z</time>
      </trkpt>
      <trkpt lat="47.49396" lon="6.74433">
        <ele>352</ele>
        <time>2016-12-11T08:48:14.000Z</time>
      </trkpt>
      <trkpt lat="47.49395" lon="6.74429">
        <ele>352</ele>
        <time>2016-12-11T08:48:15.000Z</time>
      </trkpt>
      <trkpt lat="47.49394" lon="6.74423">
        <ele>352</ele>
        <time>2016-12-11T08:48:16.000Z</time>
      </trkpt>
      <trkpt lat="47.49394" lon="6.74419">
        <ele>352</ele>
        <time>2016-12-11T08:48:18.000Z</time>
      </trkpt>
      <trkpt lat="47.49393" lon="6.74416">
        <ele>352</ele>
        <time>2016-12-11T08:48:19.000Z</time>
      </trkpt>
      <trkpt lat="47.49394" lon="6.74409">
        <ele>352</ele>
        <time>2016-12-11T08:48:20.000Z</time>
      </trkpt>
      <trkpt lat="47.49394" lon="6.74401">
        <ele>353</ele>
        <time>2016-12-11T08:48:21.000Z</time>
      </trkpt>
      <trkpt lat="47.49394" lon="6.74393">
        <ele>353</ele>
        <time>2016-12-11T08:48:22.000Z</time>
      </trkpt>
      <trkpt lat="47.49395" lon="6.7438">
        <ele>353</ele>
        <time>2016-12-11T08:48:23.000Z</time>
      </trkpt>
      <trkpt lat="47.49395" lon="6.74373">
        <ele>353</ele>
        <time>2016-12-11T08:48:24.000Z</time>
      </trkpt>
      <trkpt lat="47.49395" lon="6.7436">
        <ele>353</ele>
        <time>2016-12-11T08:48:25.000Z</time>
      </trkpt>
      <trkpt lat="47.49397" lon="6.74356">
        <ele>352</ele>
        <time>2016-12-11T08:48:26.000Z</time>
      </trkpt>
      <trkpt lat="47.49397" lon="6.74353">
        <ele>352</ele>
        <time>2016-12-11T08:48:27.000Z</time>
      </trkpt>
      <trkpt lat="47.49396" lon="6.74347">
        <ele>352</ele>
        <time>2016-12-11T08:48:29.000Z</time>
      </trkpt>
      <trkpt lat="47.49397" lon="6.74344">
        <ele>352</ele>
        <time>2016-12-11T08:48:30.000Z</time>
      </trkpt>
      <trkpt lat="47.49397" lon="6.74339">
        <ele>351</ele>
        <time>2016-12-11T08:48:31.000Z</time>
      </trkpt>
      <trkpt lat="47.49398" lon="6.7433">
        <ele>351</ele>
        <time>2016-12-11T08:48:32.000Z</time>
      </trkpt>
      <trkpt lat="47.49397" lon="6.74326">
        <ele>352</ele>
        <time>2016-12-11T08:48:33.000Z</time>
      </trkpt>
      <trkpt lat="47.49397" lon="6.74321">
        <ele>352</ele>
        <time>2016-12-11T08:48:34.000Z</time>
      </trkpt>
      <trkpt lat="47.49397" lon="6.74317">
        <ele>352</ele>
        <time>2016-12-11T08:48:35.000Z</time>
      </trkpt>
      <trkpt lat="47.49397" lon="6.74313">
        <ele>353</ele>
        <time>2016-12-11T08:48:36.000Z</time>
      </trkpt>
      <trkpt lat="47.49397" lon="6.74309">
        <ele>353</ele>
        <time>2016-12-11T08:48:37.000Z</time>
      </trkpt>
      <trkpt lat="47.49397" lon="6.74305">
        <ele>353</ele>
        <time>2016-12-11T08:48:38.000Z</time>
      </trkpt>
      <trkpt lat="47.49397" lon="6.743">
        <ele>353</ele>
        <time>2016-12-11T08:48:39.000Z</time>
      </trkpt>
      <trkpt lat="47.49397" lon="6.74295">
        <ele>354</ele>
        <time>2016-12-11T08:48:40.000Z</time>
      </trkpt>
      <trkpt lat="47.49396" lon="6.7429">
        <ele>354</ele>
        <time>2016-12-11T08:48:41.000Z</time>
      </trkpt>
      <trkpt lat="47.49395" lon="6.74282">
        <ele>354</ele>
        <time>2016-12-11T08:48:42.000Z</time>
      </trkpt>
      <trkpt lat="47.49395" lon="6.74279">
        <ele>353</ele>
        <time>2016-12-11T08:48:43.000Z</time>
      </trkpt>
      <trkpt lat="47.49395" lon="6.74275">
        <ele>353</ele>
        <time>2016-12-11T08:48:44.000Z</time>
      </trkpt>
      <trkpt lat="47.49397" lon="6.74272">
        <ele>353</ele>
        <time>2016-12-11T08:48:45.000Z</time>
      </trkpt>
      <trkpt lat="47.49398" lon="6.74269">
        <ele>352</ele>
        <time>2016-12-11T08:48:46.000Z</time>
      </trkpt>
      <trkpt lat="47.49399" lon="6.74265">
        <ele>352</ele>
        <time>2016-12-11T08:48:48.000Z</time>
      </trkpt>
      <trkpt lat="47.494" lon="6.74262">
        <ele>351</ele>
        <time>2016-12-11T08:48:49.000Z</time>
      </trkpt>
      <trkpt lat="47.49401" lon="6.74259">
        <ele>351</ele>
        <time>2016-12-11T08:48:50.000Z</time>
      </trkpt>
      <trkpt lat="47.49402" lon="6.74256">
        <ele>350</ele>
        <time>2016-12-11T08:48:51.000Z</time>
      </trkpt>
      <trkpt lat="47.49402" lon="6.74252">
        <ele>350</ele>
        <time>2016-12-11T08:48:52.000Z</time>
      </trkpt>
      <trkpt lat="47.49402" lon="6.74247">
        <ele>350</ele>
        <time>2016-12-11T08:48:53.000Z</time>
      </trkpt>
      <trkpt lat="47.49403" lon="6.74243">
        <ele>350</ele>
        <time>2016-12-11T08:48:54.000Z</time>
      </trkpt>
      <trkpt lat="47.49403" lon="6.74239">
        <ele>351</ele>
        <time>2016-12-11T08:48:55.000Z</time>
      </trkpt>
      <trkpt lat="47.49404" lon="6.74235">
        <ele>352</ele>
        <time>2016-12-11T08:48:56.000Z</time>
      </trkpt>
      <trkpt lat="47.49405" lon="6.74224">
        <ele>353</ele>
        <time>2016-12-11T08:48:57.000Z</time>
      </trkpt>
      <trkpt lat="47.49408" lon="6.74216">
        <ele>353</ele>
        <time>2016-12-11T08:48:58.000Z</time>
      </trkpt>
      <trkpt lat="47.49413" lon="6.74197">
        <ele>353</ele>
        <time>2016-12-11T08:48:59.000Z</time>
      </trkpt>
      <trkpt lat="47.49414" lon="6.74193">
        <ele>352</ele>
        <time>2016-12-11T08:49:00.000Z</time>
      </trkpt>
      <trkpt lat="47.49416" lon="6.74187">
        <ele>351</ele>
        <time>2016-12-11T08:49:01.000Z</time>
      </trkpt>
      <trkpt lat="47.49417" lon="6.7418">
        <ele>348</ele>
        <time>2016-12-11T08:49:02.000Z</time>
      </trkpt>
      <trkpt lat="47.49418" lon="6.74175">
        <ele>347</ele>
        <time>2016-12-11T08:49:03.000Z</time>
      </trkpt>
      <trkpt lat="47.49419" lon="6.74168">
        <ele>346</ele>
        <time>2016-12-11T08:49:04.000Z</time>
      </trkpt>
      <trkpt lat="47.49421" lon="6.74157">
        <ele>347</ele>
        <time>2016-12-11T08:49:05.000Z</time>
      </trkpt>
      <trkpt lat="47.49422" lon="6.74154">
        <ele>348</ele>
        <time>2016-12-11T08:49:06.000Z</time>
      </trkpt>
      <trkpt lat="47.49422" lon="6.74148">
        <ele>349</ele>
        <time>2016-12-11T08:49:07.000Z</time>
      </trkpt>
      <trkpt lat="47.49423" lon="6.74143">
        <ele>349</ele>
        <time>2016-12-11T08:49:09.000Z</time>
      </trkpt>
      <trkpt lat="47.49423" lon="6.7414">
        <ele>349</ele>
        <time>2016-12-11T08:49:10.000Z</time>
      </trkpt>
      <trkpt lat="47.49423" lon="6.74135">
        <ele>350</ele>
        <time>2016-12-11T08:49:11.000Z</time>
      </trkpt>
      <trkpt lat="47.49423" lon="6.74127">
        <ele>350</ele>
        <time>2016-12-11T08:49:12.000Z</time>
      </trkpt>
      <trkpt lat="47.49423" lon="6.74124">
        <ele>350</ele>
        <time>2016-12-11T08:49:13.000Z</time>
      </trkpt>
      <trkpt lat="47.49423" lon="6.74118">
        <ele>350</ele>
        <time>2016-12-11T08:49:14.000Z</time>
      </trkpt>
      <trkpt lat="47.49422" lon="6.74112">
        <ele>350</ele>
        <time>2016-12-11T08:49:16.000Z</time>
      </trkpt>
      <trkpt lat="47.4942" lon="6.74108">
        <ele>350</ele>
        <time>2016-12-11T08:49:17.000Z</time>
      </trkpt>
      <trkpt lat="47.49419" lon="6.74103">
        <ele>349</ele>
        <time>2016-12-11T08:49:18.000Z</time>
      </trkpt>
      <trkpt lat="47.49419" lon="6.741">
        <ele>349</ele>
        <time>2016-12-11T08:49:19.000Z</time>
      </trkpt>
      <trkpt lat="47.49418" lon="6.74094">
        <ele>349</ele>
        <time>2016-12-11T08:49:23.000Z</time>
      </trkpt>
      <trkpt lat="47.49418" lon="6.74092">
        <ele>348</ele>
        <time>2016-12-11T08:49:24.000Z</time>
      </trkpt>
      <trkpt lat="47.49416" lon="6.74087">
        <ele>348</ele>
        <time>2016-12-11T08:49:26.000Z</time>
      </trkpt>
      <trkpt lat="47.49416" lon="6.74086">
        <ele>348</ele>
        <time>2016-12-11T08:49:27.000Z</time>
      </trkpt>
      <trkpt lat="47.49414" lon="6.74081">
        <ele>348</ele>
        <time>2016-12-11T08:49:30.000Z</time>
      </trkpt>
      <trkpt lat="47.49413" lon="6.74078">
        <ele>349</ele>
        <time>2016-12-11T08:49:31.000Z</time>
      </trkpt>
      <trkpt lat="47.49412" lon="6.74073">
        <ele>350</ele>
        <time>2016-12-11T08:49:33.000Z</time>
      </trkpt>
      <trkpt lat="47.49412" lon="6.74071">
        <ele>351</ele>
        <time>2016-12-11T08:49:34.000Z</time>
      </trkpt>
      <trkpt lat="47.49411" lon="6.74066">
        <ele>352</ele>
        <time>2016-12-11T08:49:37.000Z</time>
      </trkpt>
      <trkpt lat="47.4941" lon="6.74063">
        <ele>352</ele>
        <time>2016-12-11T08:49:38.000Z</time>
      </trkpt>
      <trkpt lat="47.49407" lon="6.74058">
        <ele>353</ele>
        <time>2016-12-11T08:49:41.000Z</time>
      </trkpt>
      <trkpt lat="47.49408" lon="6.74057">
        <ele>353</ele>
        <time>2016-12-11T08:49:42.000Z</time>
      </trkpt>
      <trkpt lat="47.4941" lon="6.74053">
        <ele>353</ele>
        <time>2016-12-11T08:49:44.000Z</time>
      </trkpt>
      <trkpt lat="47.49411" lon="6.7405">
        <ele>353</ele>
        <time>2016-12-11T08:49:45.000Z</time>
      </trkpt>
      <trkpt lat="47.49413" lon="6.74047">
        <ele>353</ele>
        <time>2016-12-11T08:49:46.000Z</time>
      </trkpt>
      <trkpt lat="47.49415" lon="6.74043">
        <ele>353</ele>
        <time>2016-12-11T08:49:47.000Z</time>
      </trkpt>
      <trkpt lat="47.49415" lon="6.74038">
        <ele>353</ele>
        <time>2016-12-11T08:49:48.000Z</time>
      </trkpt>
      <trkpt lat="47.49418" lon="6.74034">
        <ele>350</ele>
        <time>2016-12-11T08:49:49.000Z</time>
      </trkpt>
      <trkpt lat="47.4942" lon="6.74029">
        <ele>350</ele>
        <time>2016-12-11T08:49:50.000Z</time>
      </trkpt>
      <trkpt lat="47.49423" lon="6.74011">
        <ele>350</ele>
        <time>2016-12-11T08:49:51.000Z</time>
      </trkpt>
      <trkpt lat="47.49425" lon="6.73983">
        <ele>348</ele>
        <time>2016-12-11T08:49:52.000Z</time>
      </trkpt>
      <trkpt lat="47.49427" lon="6.73974">
        <ele>348</ele>
        <time>2016-12-11T08:49:53.000Z</time>
      </trkpt>
      <trkpt lat="47.49426" lon="6.7397">
        <ele>348</ele>
        <time>2016-12-11T08:49:54.000Z</time>
      </trkpt>
      <trkpt lat="47.49426" lon="6.73965">
        <ele>347</ele>
        <time>2016-12-11T08:49:55.000Z</time>
      </trkpt>
      <trkpt lat="47.49426" lon="6.7396">
        <ele>347</ele>
        <time>2016-12-11T08:49:56.000Z</time>
      </trkpt>
      <trkpt lat="47.49426" lon="6.73956">
        <ele>347</ele>
        <time>2016-12-11T08:49:57.000Z</time>
      </trkpt>
      <trkpt lat="47.49426" lon="6.73949">
        <ele>347</ele>
        <time>2016-12-11T08:49:58.000Z</time>
      </trkpt>
      <trkpt lat="47.49426" lon="6.73941">
        <ele>347</ele>
        <time>2016-12-11T08:49:59.000Z</time>
      </trkpt>
      <trkpt lat="47.49426" lon="6.73936">
        <ele>347</ele>
        <time>2016-12-11T08:50:00.000Z</time>
      </trkpt>
      <trkpt lat="47.49427" lon="6.73933">
        <ele>346</ele>
        <time>2016-12-11T08:50:01.000Z</time>
      </trkpt>
      <trkpt lat="47.49425" lon="6.73926">
        <ele>346</ele>
        <time>2016-12-11T08:50:02.000Z</time>
      </trkpt>
      <trkpt lat="47.49423" lon="6.73919">
        <ele>346</ele>
        <time>2016-12-11T08:50:03.000Z</time>
      </trkpt>
      <trkpt lat="47.49423" lon="6.73913">
        <ele>345</ele>
        <time>2016-12-11T08:50:06.000Z</time>
      </trkpt>
      <trkpt lat="47.49422" lon="6.73911">
        <ele>345</ele>
        <time>2016-12-11T08:50:07.000Z</time>
      </trkpt>
      <trkpt lat="47.49422" lon="6.73906">
        <ele>344</ele>
        <time>2016-12-11T08:50:09.000Z</time>
      </trkpt>
      <trkpt lat="47.49421" lon="6.73903">
        <ele>344</ele>
        <time>2016-12-11T08:50:10.000Z</time>
      </trkpt>
      <trkpt lat="47.49421" lon="6.73897">
        <ele>344</ele>
        <time>2016-12-11T08:50:12.000Z</time>
      </trkpt>
      <trkpt lat="47.49421" lon="6.73895">
        <ele>344</ele>
        <time>2016-12-11T08:50:13.000Z</time>
      </trkpt>
      <trkpt lat="47.49421" lon="6.73889">
        <ele>343</ele>
        <time>2016-12-11T08:50:15.000Z</time>
      </trkpt>
      <trkpt lat="47.49421" lon="6.73885">
        <ele>343</ele>
        <time>2016-12-11T08:50:16.000Z</time>
      </trkpt>
      <trkpt lat="47.4942" lon="6.73882">
        <ele>343</ele>
        <time>2016-12-11T08:50:17.000Z</time>
      </trkpt>
      <trkpt lat="47.4942" lon="6.73878">
        <ele>343</ele>
        <time>2016-12-11T08:50:18.000Z</time>
      </trkpt>
      <trkpt lat="47.49421" lon="6.73873">
        <ele>343</ele>
        <time>2016-12-11T08:50:19.000Z</time>
      </trkpt>
      <trkpt lat="47.4942" lon="6.73871">
        <ele>343</ele>
        <time>2016-12-11T08:50:20.000Z</time>
      </trkpt>
      <trkpt lat="47.4942" lon="6.73865">
        <ele>342</ele>
        <time>2016-12-11T08:50:21.000Z</time>
      </trkpt>
      <trkpt lat="47.4942" lon="6.73857">
        <ele>343</ele>
        <time>2016-12-11T08:50:22.000Z</time>
      </trkpt>
      <trkpt lat="47.4942" lon="6.73849">
        <ele>343</ele>
        <time>2016-12-11T08:50:23.000Z</time>
      </trkpt>
      <trkpt lat="47.49419" lon="6.73838">
        <ele>343</ele>
        <time>2016-12-11T08:50:24.000Z</time>
      </trkpt>
      <trkpt lat="47.49418" lon="6.73828">
        <ele>343</ele>
        <time>2016-12-11T08:50:25.000Z</time>
      </trkpt>
      <trkpt lat="47.49419" lon="6.73821">
        <ele>342</ele>
        <time>2016-12-11T08:50:26.000Z</time>
      </trkpt>
      <trkpt lat="47.49419" lon="6.73817">
        <ele>341</ele>
        <time>2016-12-11T08:50:27.000Z</time>
      </trkpt>
      <trkpt lat="47.49419" lon="6.73813">
        <ele>341</ele>
        <time>2016-12-11T08:50:28.000Z</time>
      </trkpt>
      <trkpt lat="47.49419" lon="6.73807">
        <ele>341</ele>
        <time>2016-12-11T08:50:31.000Z</time>
      </trkpt>
      <trkpt lat="47.4942" lon="6.73804">
        <ele>341</ele>
        <time>2016-12-11T08:50:32.000Z</time>
      </trkpt>
      <trkpt lat="47.49419" lon="6.738">
        <ele>341</ele>
        <time>2016-12-11T08:50:33.000Z</time>
      </trkpt>
      <trkpt lat="47.49418" lon="6.73791">
        <ele>341</ele>
        <time>2016-12-11T08:50:34.000Z</time>
      </trkpt>
      <trkpt lat="47.49419" lon="6.73786">
        <ele>341</ele>
        <time>2016-12-11T08:50:35.000Z</time>
      </trkpt>
      <trkpt lat="47.49419" lon="6.73783">
        <ele>341</ele>
        <time>2016-12-11T08:50:36.000Z</time>
      </trkpt>
      <trkpt lat="47.49421" lon="6.73777">
        <ele>341</ele>
        <time>2016-12-11T08:50:40.000Z</time>
      </trkpt>
      <trkpt lat="47.49421" lon="6.73777">
        <ele>341</ele>
        <time>2016-12-11T08:50:41.000Z</time>
      </trkpt>
      <trkpt lat="47.49425" lon="6.73774">
        <ele>341</ele>
        <time>2016-12-11T08:50:46.000Z</time>
      </trkpt>
      <trkpt lat="47.49426" lon="6.73773">
        <ele>341</ele>
        <time>2016-12-11T08:50:47.000Z</time>
      </trkpt>
      <trkpt lat="47.49429" lon="6.73774">
        <ele>341</ele>
        <time>2016-12-11T08:50:49.000Z</time>
      </trkpt>
      <trkpt lat="47.49431" lon="6.73773">
        <ele>341</ele>
        <time>2016-12-11T08:50:50.000Z</time>
      </trkpt>
      <trkpt lat="47.49433" lon="6.73769">
        <ele>341</ele>
        <time>2016-12-11T08:50:52.000Z</time>
      </trkpt>
      <trkpt lat="47.49434" lon="6.73765">
        <ele>341</ele>
        <time>2016-12-11T08:50:53.000Z</time>
      </trkpt>
      <trkpt lat="47.49436" lon="6.7376">
        <ele>341</ele>
        <time>2016-12-11T08:50:56.000Z</time>
      </trkpt>
      <trkpt lat="47.49437" lon="6.73759">
        <ele>341</ele>
        <time>2016-12-11T08:50:57.000Z</time>
      </trkpt>
      <trkpt lat="47.49439" lon="6.73754">
        <ele>341</ele>
        <time>2016-12-11T08:51:01.000Z</time>
      </trkpt>
      <trkpt lat="47.4944" lon="6.73754">
        <ele>341</ele>
        <time>2016-12-11T08:51:02.000Z</time>
      </trkpt>
      <trkpt lat="47.49442" lon="6.73753">
        <ele>340</ele>
        <time>2016-12-11T08:51:04.000Z</time>
      </trkpt>
      <trkpt lat="47.49444" lon="6.73749">
        <ele>340</ele>
        <time>2016-12-11T08:51:05.000Z</time>
      </trkpt>
      <trkpt lat="47.49445" lon="6.73746">
        <ele>340</ele>
        <time>2016-12-11T08:51:06.000Z</time>
      </trkpt>
      <trkpt lat="47.49447" lon="6.73743">
        <ele>340</ele>
        <time>2016-12-11T08:51:07.000Z</time>
      </trkpt>
      <trkpt lat="47.4945" lon="6.73737">
        <ele>339</ele>
        <time>2016-12-11T08:51:08.000Z</time>
      </trkpt>
      <trkpt lat="47.49452" lon="6.73735">
        <ele>339</ele>
        <time>2016-12-11T08:51:09.000Z</time>
      </trkpt>
      <trkpt lat="47.49454" lon="6.73731">
        <ele>339</ele>
        <time>2016-12-11T08:51:10.000Z</time>
      </trkpt>
      <trkpt lat="47.49457" lon="6.73726">
        <ele>339</ele>
        <time>2016-12-11T08:51:11.000Z</time>
      </trkpt>
      <trkpt lat="47.49459" lon="6.73722">
        <ele>338</ele>
        <time>2016-12-11T08:51:12.000Z</time>
      </trkpt>
      <trkpt lat="47.49462" lon="6.73717">
        <ele>338</ele>
        <time>2016-12-11T08:51:13.000Z</time>
      </trkpt>
      <trkpt lat="47.49464" lon="6.73713">
        <ele>338</ele>
        <time>2016-12-11T08:51:14.000Z</time>
      </trkpt>
      <trkpt lat="47.49467" lon="6.73709">
        <ele>338</ele>
        <time>2016-12-11T08:51:15.000Z</time>
      </trkpt>
      <trkpt lat="47.49468" lon="6.73705">
        <ele>338</ele>
        <time>2016-12-11T08:51:16.000Z</time>
      </trkpt>
      <trkpt lat="47.4947" lon="6.73701">
        <ele>337</ele>
        <time>2016-12-11T08:51:17.000Z</time>
      </trkpt>
      <trkpt lat="47.49473" lon="6.73698">
        <ele>337</ele>
        <time>2016-12-11T08:51:18.000Z</time>
      </trkpt>
      <trkpt lat="47.49474" lon="6.73696">
        <ele>337</ele>
        <time>2016-12-11T08:51:19.000Z</time>
      </trkpt>
      <trkpt lat="47.49476" lon="6.73693">
        <ele>337</ele>
        <time>2016-12-11T08:51:43.000Z</time>
      </trkpt>
      <trkpt lat="47.49477" lon="6.73691">
        <ele>337</ele>
        <time>2016-12-11T08:51:44.000Z</time>
      </trkpt>
      <trkpt lat="47.49478" lon="6.73687">
        <ele>336</ele>
        <time>2016-12-11T08:51:45.000Z</time>
      </trkpt>
      <trkpt lat="47.4948" lon="6.73684">
        <ele>336</ele>
        <time>2016-12-11T08:51:46.000Z</time>
      </trkpt>
      <trkpt lat="47.49481" lon="6.73681">
        <ele>336</ele>
        <time>2016-12-11T08:51:47.000Z</time>
      </trkpt>
      <trkpt lat="47.49483" lon="6.73677">
        <ele>335</ele>
        <time>2016-12-11T08:51:48.000Z</time>
      </trkpt>
      <trkpt lat="47.49484" lon="6.73673">
        <ele>335</ele>
        <time>2016-12-11T08:51:49.000Z</time>
      </trkpt>
      <trkpt lat="47.49486" lon="6.73668">
        <ele>334</ele>
        <time>2016-12-11T08:51:50.000Z</time>
      </trkpt>
      <trkpt lat="47.49488" lon="6.73664">
        <ele>334</ele>
        <time>2016-12-11T08:51:51.000Z</time>
      </trkpt>
      <trkpt lat="47.4949" lon="6.7366">
        <ele>334</ele>
        <time>2016-12-11T08:51:52.000Z</time>
      </trkpt>
      <trkpt lat="47.49492" lon="6.73656">
        <ele>335</ele>
        <time>2016-12-11T08:51:53.000Z</time>
      </trkpt>
      <trkpt lat="47.49494" lon="6.73651">
        <ele>335</ele>
        <time>2016-12-11T08:51:54.000Z</time>
      </trkpt>
      <trkpt lat="47.49496" lon="6.73647">
        <ele>335</ele>
        <time>2016-12-11T08:51:55.000Z</time>
      </trkpt>
      <trkpt lat="47.49498" lon="6.73643">
        <ele>336</ele>
        <time>2016-12-11T08:51:56.000Z</time>
      </trkpt>
      <trkpt lat="47.495" lon="6.73638">
        <ele>332</ele>
        <time>2016-12-11T08:51:57.000Z</time>
      </trkpt>
      <trkpt lat="47.49503" lon="6.73634">
        <ele>332</ele>
        <time>2016-12-11T08:51:58.000Z</time>
      </trkpt>
      <trkpt lat="47.49505" lon="6.7363">
        <ele>332</ele>
        <time>2016-12-11T08:51:59.000Z</time>
      </trkpt>
      <trkpt lat="47.49508" lon="6.73626">
        <ele>332</ele>
        <time>2016-12-11T08:52:00.000Z</time>
      </trkpt>
      <trkpt lat="47.49511" lon="6.73622">
        <ele>332</ele>
        <time>2016-12-11T08:52:01.000Z</time>
      </trkpt>
      <trkpt lat="47.49514" lon="6.73618">
        <ele>332</ele>
        <time>2016-12-11T08:52:02.000Z</time>
      </trkpt>
      <trkpt lat="47.49517" lon="6.73615">
        <ele>332</ele>
        <time>2016-12-11T08:52:03.000Z</time>
      </trkpt>
      <trkpt lat="47.4952" lon="6.73611">
        <ele>332</ele>
        <time>2016-12-11T08:52:04.000Z</time>
      </trkpt>
      <trkpt lat="47.49523" lon="6.73607">
        <ele>332</ele>
        <time>2016-12-11T08:52:05.000Z</time>
      </trkpt>
      <trkpt lat="47.49526" lon="6.73603">
        <ele>332</ele>
        <time>2016-12-11T08:52:06.000Z</time>
      </trkpt>
      <trkpt lat="47.49529" lon="6.736">
        <ele>332</ele>
        <time>2016-12-11T08:52:07.000Z</time>
      </trkpt>
      <trkpt lat="47.49532" lon="6.73596">
        <ele>332</ele>
        <time>2016-12-11T08:52:08.000Z</time>
      </trkpt>
      <trkpt lat="47.49535" lon="6.73593">
        <ele>332</ele>
        <time>2016-12-11T08:52:09.000Z</time>
      </trkpt>
      <trkpt lat="47.49538" lon="6.7359">
        <ele>332</ele>
        <time>2016-12-11T08:52:10.000Z</time>
      </trkpt>
      <trkpt lat="47.49542" lon="6.73586">
        <ele>332</ele>
        <time>2016-12-11T08:52:11.000Z</time>
      </trkpt>
      <trkpt lat="47.49546" lon="6.73582">
        <ele>333</ele>
        <time>2016-12-11T08:52:12.000Z</time>
      </trkpt>
      <trkpt lat="47.49549" lon="6.73579">
        <ele>333</ele>
        <time>2016-12-11T08:52:13.000Z</time>
      </trkpt>
      <trkpt lat="47.49553" lon="6.73575">
        <ele>333</ele>
        <time>2016-12-11T08:52:14.000Z</time>
      </trkpt>
      <trkpt lat="47.49556" lon="6.73571">
        <ele>333</ele>
        <time>2016-12-11T08:52:15.000Z</time>
      </trkpt>
      <trkpt lat="47.49559" lon="6.73568">
        <ele>333</ele>
        <time>2016-12-11T08:52:16.000Z</time>
      </trkpt>
      <trkpt lat="47.49562" lon="6.73565">
        <ele>333</ele>
        <time>2016-12-11T08:52:17.000Z</time>
      </trkpt>
      <trkpt lat="47.49565" lon="6.73562">
        <ele>333</ele>
        <time>2016-12-11T08:52:18.000Z</time>
      </trkpt>
      <trkpt lat="47.49568" lon="6.73558">
        <ele>333</ele>
        <time>2016-12-11T08:52:19.000Z</time>
      </trkpt>
      <trkpt lat="47.49571" lon="6.73555">
        <ele>333</ele>
        <time>2016-12-11T08:52:20.000Z</time>
      </trkpt>
      <trkpt lat="47.49574" lon="6.73552">
        <ele>333</ele>
        <time>2016-12-11T08:52:21.000Z</time>
      </trkpt>
      <trkpt lat="47.49577" lon="6.73549">
        <ele>333</ele>
        <time>2016-12-11T08:52:22.000Z</time>
      </trkpt>
      <trkpt lat="47.4958" lon="6.73547">
        <ele>333</ele>
        <time>2016-12-11T08:52:23.000Z</time>
      </trkpt>
      <trkpt lat="47.49584" lon="6.73544">
        <ele>331</ele>
        <time>2016-12-11T08:52:24.000Z</time>
      </trkpt>
      <trkpt lat="47.49587" lon="6.7354">
        <ele>332</ele>
        <time>2016-12-11T08:52:25.000Z</time>
      </trkpt>
      <trkpt lat="47.4959" lon="6.73537">
        <ele>332</ele>
        <time>2016-12-11T08:52:26.000Z</time>
      </trkpt>
      <trkpt lat="47.49594" lon="6.73533">
        <ele>332</ele>
        <time>2016-12-11T08:52:27.000Z</time>
      </trkpt>
      <trkpt lat="47.49597" lon="6.73531">
        <ele>332</ele>
        <time>2016-12-11T08:52:28.000Z</time>
      </trkpt>
      <trkpt lat="47.496" lon="6.73528">
        <ele>332</ele>
        <time>2016-12-11T08:52:29.000Z</time>
      </trkpt>
      <trkpt lat="47.49604" lon="6.73524">
        <ele>332</ele>
        <time>2016-12-11T08:52:30.000Z</time>
      </trkpt>
      <trkpt lat="47.49607" lon="6.7352">
        <ele>332</ele>
        <time>2016-12-11T08:52:31.000Z</time>
      </trkpt>
      <trkpt lat="47.49611" lon="6.73516">
        <ele>332</ele>
        <time>2016-12-11T08:52:32.000Z</time>
      </trkpt>
      <trkpt lat="47.49614" lon="6.73512">
        <ele>332</ele>
        <time>2016-12-11T08:52:33.000Z</time>
      </trkpt>
      <trkpt lat="47.49618" lon="6.73507">
        <ele>332</ele>
        <time>2016-12-11T08:52:34.000Z</time>
      </trkpt>
      <trkpt lat="47.49621" lon="6.73503">
        <ele>332</ele>
        <time>2016-12-11T08:52:35.000Z</time>
      </trkpt>
      <trkpt lat="47.49625" lon="6.73499">
        <ele>333</ele>
        <time>2016-12-11T08:52:36.000Z</time>
      </trkpt>
      <trkpt lat="47.49629" lon="6.73494">
        <ele>333</ele>
        <time>2016-12-11T08:52:37.000Z</time>
      </trkpt>
      <trkpt lat="47.49633" lon="6.73489">
        <ele>333</ele>
        <time>2016-12-11T08:52:38.000Z</time>
      </trkpt>
      <trkpt lat="47.49637" lon="6.73484">
        <ele>333</ele>
        <time>2016-12-11T08:52:39.000Z</time>
      </trkpt>
      <trkpt lat="47.4964" lon="6.73478">
        <ele>333</ele>
        <time>2016-12-11T08:52:40.000Z</time>
      </trkpt>
      <trkpt lat="47.49643" lon="6.73474">
        <ele>333</ele>
        <time>2016-12-11T08:52:41.000Z</time>
      </trkpt>
      <trkpt lat="47.49647" lon="6.7347">
        <ele>334</ele>
        <time>2016-12-11T08:52:42.000Z</time>
      </trkpt>
      <trkpt lat="47.49651" lon="6.73466">
        <ele>334</ele>
        <time>2016-12-11T08:52:43.000Z</time>
      </trkpt>
      <trkpt lat="47.49654" lon="6.73462">
        <ele>334</ele>
        <time>2016-12-11T08:52:44.000Z</time>
      </trkpt>
      <trkpt lat="47.49657" lon="6.73458">
        <ele>334</ele>
        <time>2016-12-11T08:52:45.000Z</time>
      </trkpt>
      <trkpt lat="47.4966" lon="6.73454">
        <ele>334</ele>
        <time>2016-12-11T08:52:46.000Z</time>
      </trkpt>
      <trkpt lat="47.49663" lon="6.7345">
        <ele>334</ele>
        <time>2016-12-11T08:52:47.000Z</time>
      </trkpt>
      <trkpt lat="47.49666" lon="6.73446">
        <ele>334</ele>
        <time>2016-12-11T08:52:48.000Z</time>
      </trkpt>
      <trkpt lat="47.49669" lon="6.73442">
        <ele>333</ele>
        <time>2016-12-11T08:52:49.000Z</time>
      </trkpt>
      <trkpt lat="47.49672" lon="6.73437">
        <ele>333</ele>
        <time>2016-12-11T08:52:50.000Z</time>
      </trkpt>
      <trkpt lat="47.49676" lon="6.73432">
        <ele>333</ele>
        <time>2016-12-11T08:52:51.000Z</time>
      </trkpt>
      <trkpt lat="47.4968" lon="6.73428">
        <ele>333</ele>
        <time>2016-12-11T08:52:52.000Z</time>
      </trkpt>
      <trkpt lat="47.49683" lon="6.73423">
        <ele>333</ele>
        <time>2016-12-11T08:52:53.000Z</time>
      </trkpt>
      <trkpt lat="47.49686" lon="6.73418">
        <ele>333</ele>
        <time>2016-12-11T08:52:54.000Z</time>
      </trkpt>
      <trkpt lat="47.49689" lon="6.73414">
        <ele>334</ele>
        <time>2016-12-11T08:52:55.000Z</time>
      </trkpt>
      <trkpt lat="47.49692" lon="6.73409">
        <ele>334</ele>
        <time>2016-12-11T08:52:56.000Z</time>
      </trkpt>
      <trkpt lat="47.49696" lon="6.73404">
        <ele>334</ele>
        <time>2016-12-11T08:52:57.000Z</time>
      </trkpt>
      <trkpt lat="47.49699" lon="6.73399">
        <ele>334</ele>
        <time>2016-12-11T08:52:58.000Z</time>
      </trkpt>
      <trkpt lat="47.49702" lon="6.73394">
        <ele>334</ele>
        <time>2016-12-11T08:52:59.000Z</time>
      </trkpt>
      <trkpt lat="47.49705" lon="6.7339">
        <ele>334</ele>
        <time>2016-12-11T08:53:00.000Z</time>
      </trkpt>
      <trkpt lat="47.49708" lon="6.73386">
        <ele>334</ele>
        <time>2016-12-11T08:53:01.000Z</time>
      </trkpt>
      <trkpt lat="47.4971" lon="6.73381">
        <ele>334</ele>
        <time>2016-12-11T08:53:02.000Z</time>
      </trkpt>
      <trkpt lat="47.49713" lon="6.73377">
        <ele>334</ele>
        <time>2016-12-11T08:53:03.000Z</time>
      </trkpt>
      <trkpt lat="47.49716" lon="6.73373">
        <ele>334</ele>
        <time>2016-12-11T08:53:04.000Z</time>
      </trkpt>
      <trkpt lat="47.49718" lon="6.73369">
        <ele>334</ele>
        <time>2016-12-11T08:53:05.000Z</time>
      </trkpt>
      <trkpt lat="47.49721" lon="6.73364">
        <ele>334</ele>
        <time>2016-12-11T08:53:06.000Z</time>
      </trkpt>
      <trkpt lat="47.49725" lon="6.73359">
        <ele>334</ele>
        <time>2016-12-11T08:53:07.000Z</time>
      </trkpt>
      <trkpt lat="47.49728" lon="6.73354">
        <ele>334</ele>
        <time>2016-12-11T08:53:08.000Z</time>
      </trkpt>
      <trkpt lat="47.49732" lon="6.73349">
        <ele>333</ele>
        <time>2016-12-11T08:53:09.000Z</time>
      </trkpt>
      <trkpt lat="47.49735" lon="6.73344">
        <ele>333</ele>
        <time>2016-12-11T08:53:10.000Z</time>
      </trkpt>
      <trkpt lat="47.49739" lon="6.73341">
        <ele>333</ele>
        <time>2016-12-11T08:53:11.000Z</time>
      </trkpt>
      <trkpt lat="47.49742" lon="6.73336">
        <ele>333</ele>
        <time>2016-12-11T08:53:12.000Z</time>
      </trkpt>
      <trkpt lat="47.49745" lon="6.73331">
        <ele>333</ele>
        <time>2016-12-11T08:53:13.000Z</time>
      </trkpt>
      <trkpt lat="47.49748" lon="6.73326">
        <ele>333</ele>
        <time>2016-12-11T08:53:14.000Z</time>
      </trkpt>
      <trkpt lat="47.4975" lon="6.73322">
        <ele>333</ele>
        <time>2016-12-11T08:53:15.000Z</time>
      </trkpt>
      <trkpt lat="47.49753" lon="6.73317">
        <ele>333</ele>
        <time>2016-12-11T08:53:16.000Z</time>
      </trkpt>
      <trkpt lat="47.49756" lon="6.73313">
        <ele>333</ele>
        <time>2016-12-11T08:53:17.000Z</time>
      </trkpt>
      <trkpt lat="47.49759" lon="6.73308">
        <ele>333</ele>
        <time>2016-12-11T08:53:18.000Z</time>
      </trkpt>
      <trkpt lat="47.49761" lon="6.73304">
        <ele>334</ele>
        <time>2016-12-11T08:53:19.000Z</time>
      </trkpt>
      <trkpt lat="47.49764" lon="6.733">
        <ele>334</ele>
        <time>2016-12-11T08:53:20.000Z</time>
      </trkpt>
      <trkpt lat="47.49767" lon="6.73295">
        <ele>334</ele>
        <time>2016-12-11T08:53:21.000Z</time>
      </trkpt>
      <trkpt lat="47.4977" lon="6.73289">
        <ele>334</ele>
        <time>2016-12-11T08:53:22.000Z</time>
      </trkpt>
      <trkpt lat="47.49773" lon="6.73286">
        <ele>334</ele>
        <time>2016-12-11T08:53:23.000Z</time>
      </trkpt>
      <trkpt lat="47.49776" lon="6.73282">
        <ele>334</ele>
        <time>2016-12-11T08:53:24.000Z</time>
      </trkpt>
      <trkpt lat="47.4978" lon="6.73277">
        <ele>334</ele>
        <time>2016-12-11T08:53:25.000Z</time>
      </trkpt>
      <trkpt lat="47.49783" lon="6.73272">
        <ele>335</ele>
        <time>2016-12-11T08:53:26.000Z</time>
      </trkpt>
      <trkpt lat="47.49784" lon="6.73266">
        <ele>335</ele>
        <time>2016-12-11T08:53:27.000Z</time>
      </trkpt>
      <trkpt lat="47.49787" lon="6.73261">
        <ele>335</ele>
        <time>2016-12-11T08:53:28.000Z</time>
      </trkpt>
      <trkpt lat="47.49788" lon="6.73256">
        <ele>335</ele>
        <time>2016-12-11T08:53:29.000Z</time>
      </trkpt>
      <trkpt lat="47.4979" lon="6.73252">
        <ele>335</ele>
        <time>2016-12-11T08:53:30.000Z</time>
      </trkpt>
      <trkpt lat="47.49792" lon="6.73248">
        <ele>337</ele>
        <time>2016-12-11T08:53:31.000Z</time>
      </trkpt>
      <trkpt lat="47.49794" lon="6.73243">
        <ele>337</ele>
        <time>2016-12-11T08:53:32.000Z</time>
      </trkpt>
      <trkpt lat="47.49796" lon="6.73239">
        <ele>337</ele>
        <time>2016-12-11T08:53:33.000Z</time>
      </trkpt>
      <trkpt lat="47.49798" lon="6.73234">
        <ele>337</ele>
        <time>2016-12-11T08:53:34.000Z</time>
      </trkpt>
      <trkpt lat="47.498" lon="6.73229">
        <ele>337</ele>
        <time>2016-12-11T08:53:35.000Z</time>
      </trkpt>
      <trkpt lat="47.49801" lon="6.73225">
        <ele>337</ele>
        <time>2016-12-11T08:53:36.000Z</time>
      </trkpt>
      <trkpt lat="47.49803" lon="6.7322">
        <ele>337</ele>
        <time>2016-12-11T08:53:37.000Z</time>
      </trkpt>
      <trkpt lat="47.49804" lon="6.73215">
        <ele>337</ele>
        <time>2016-12-11T08:53:38.000Z</time>
      </trkpt>
      <trkpt lat="47.49806" lon="6.7321">
        <ele>337</ele>
        <time>2016-12-11T08:53:39.000Z</time>
      </trkpt>
      <trkpt lat="47.49807" lon="6.73205">
        <ele>337</ele>
        <time>2016-12-11T08:53:40.000Z</time>
      </trkpt>
      <trkpt lat="47.49808" lon="6.732">
        <ele>337</ele>
        <time>2016-12-11T08:53:41.000Z</time>
      </trkpt>
      <trkpt lat="47.49809" lon="6.73196">
        <ele>337</ele>
        <time>2016-12-11T08:53:42.000Z</time>
      </trkpt>
      <trkpt lat="47.49811" lon="6.73192">
        <ele>337</ele>
        <time>2016-12-11T08:53:43.000Z</time>
      </trkpt>
      <trkpt lat="47.49812" lon="6.73188">
        <ele>337</ele>
        <time>2016-12-11T08:53:44.000Z</time>
      </trkpt>
      <trkpt lat="47.49814" lon="6.73183">
        <ele>337</ele>
        <time>2016-12-11T08:53:45.000Z</time>
      </trkpt>
      <trkpt lat="47.49815" lon="6.73179">
        <ele>337</ele>
        <time>2016-12-11T08:53:46.000Z</time>
      </trkpt>
      <trkpt lat="47.49817" lon="6.73174">
        <ele>337</ele>
        <time>2016-12-11T08:53:47.000Z</time>
      </trkpt>
      <trkpt lat="47.49818" lon="6.7317">
        <ele>337</ele>
        <time>2016-12-11T08:53:48.000Z</time>
      </trkpt>
      <trkpt lat="47.49819" lon="6.73166">
        <ele>338</ele>
        <time>2016-12-11T08:53:49.000Z</time>
      </trkpt>
      <trkpt lat="47.49819" lon="6.73161">
        <ele>338</ele>
        <time>2016-12-11T08:53:50.000Z</time>
      </trkpt>
      <trkpt lat="47.4982" lon="6.73157">
        <ele>338</ele>
        <time>2016-12-11T08:53:51.000Z</time>
      </trkpt>
      <trkpt lat="47.49821" lon="6.73153">
        <ele>338</ele>
        <time>2016-12-11T08:53:52.000Z</time>
      </trkpt>
      <trkpt lat="47.49821" lon="6.7315">
        <ele>338</ele>
        <time>2016-12-11T08:53:53.000Z</time>
      </trkpt>
      <trkpt lat="47.49823" lon="6.73145">
        <ele>338</ele>
        <time>2016-12-11T08:53:54.000Z</time>
      </trkpt>
      <trkpt lat="47.49824" lon="6.73141">
        <ele>339</ele>
        <time>2016-12-11T08:53:55.000Z</time>
      </trkpt>
      <trkpt lat="47.49825" lon="6.73137">
        <ele>339</ele>
        <time>2016-12-11T08:53:56.000Z</time>
      </trkpt>
      <trkpt lat="47.49826" lon="6.73133">
        <ele>339</ele>
        <time>2016-12-11T08:53:57.000Z</time>
      </trkpt>
      <trkpt lat="47.49828" lon="6.73129">
        <ele>339</ele>
        <time>2016-12-11T08:53:58.000Z</time>
      </trkpt>
      <trkpt lat="47.49828" lon="6.73124">
        <ele>339</ele>
        <time>2016-12-11T08:53:59.000Z</time>
      </trkpt>
      <trkpt lat="47.4983" lon="6.73118">
        <ele>339</ele>
        <time>2016-12-11T08:54:00.000Z</time>
      </trkpt>
      <trkpt lat="47.49831" lon="6.73114">
        <ele>339</ele>
        <time>2016-12-11T08:54:01.000Z</time>
      </trkpt>
      <trkpt lat="47.49832" lon="6.73109">
        <ele>339</ele>
        <time>2016-12-11T08:54:03.000Z</time>
      </trkpt>
      <trkpt lat="47.49833" lon="6.73106">
        <ele>339</ele>
        <time>2016-12-11T08:54:04.000Z</time>
      </trkpt>
      <trkpt lat="47.49834" lon="6.73101">
        <ele>339</ele>
        <time>2016-12-11T08:54:05.000Z</time>
      </trkpt>
      <trkpt lat="47.49834" lon="6.73097">
        <ele>339</ele>
        <time>2016-12-11T08:54:06.000Z</time>
      </trkpt>
      <trkpt lat="47.49835" lon="6.73093">
        <ele>339</ele>
        <time>2016-12-11T08:54:07.000Z</time>
      </trkpt>
      <trkpt lat="47.49836" lon="6.73089">
        <ele>339</ele>
        <time>2016-12-11T08:54:08.000Z</time>
      </trkpt>
      <trkpt lat="47.49838" lon="6.73085">
        <ele>340</ele>
        <time>2016-12-11T08:54:09.000Z</time>
      </trkpt>
      <trkpt lat="47.49839" lon="6.73082">
        <ele>340</ele>
        <time>2016-12-11T08:54:10.000Z</time>
      </trkpt>
      <trkpt lat="47.49841" lon="6.73077">
        <ele>340</ele>
        <time>2016-12-11T08:54:11.000Z</time>
      </trkpt>
      <trkpt lat="47.49843" lon="6.73073">
        <ele>340</ele>
        <time>2016-12-11T08:54:12.000Z</time>
      </trkpt>
      <trkpt lat="47.49845" lon="6.73069">
        <ele>340</ele>
        <time>2016-12-11T08:54:13.000Z</time>
      </trkpt>
      <trkpt lat="47.49847" lon="6.73063">
        <ele>340</ele>
        <time>2016-12-11T08:54:14.000Z</time>
      </trkpt>
      <trkpt lat="47.49849" lon="6.73058">
        <ele>340</ele>
        <time>2016-12-11T08:54:15.000Z</time>
      </trkpt>
      <trkpt lat="47.49851" lon="6.73053">
        <ele>340</ele>
        <time>2016-12-11T08:54:16.000Z</time>
      </trkpt>
      <trkpt lat="47.49853" lon="6.73047">
        <ele>340</ele>
        <time>2016-12-11T08:54:17.000Z</time>
      </trkpt>
      <trkpt lat="47.49855" lon="6.73043">
        <ele>340</ele>
        <time>2016-12-11T08:54:18.000Z</time>
      </trkpt>
      <trkpt lat="47.49857" lon="6.73038">
        <ele>340</ele>
        <time>2016-12-11T08:54:19.000Z</time>
      </trkpt>
      <trkpt lat="47.49858" lon="6.73033">
        <ele>340</ele>
        <time>2016-12-11T08:54:20.000Z</time>
      </trkpt>
      <trkpt lat="47.4986" lon="6.73028">
        <ele>340</ele>
        <time>2016-12-11T08:54:21.000Z</time>
      </trkpt>
      <trkpt lat="47.49863" lon="6.73023">
        <ele>341</ele>
        <time>2016-12-11T08:54:22.000Z</time>
      </trkpt>
      <trkpt lat="47.49866" lon="6.73017">
        <ele>341</ele>
        <time>2016-12-11T08:54:23.000Z</time>
      </trkpt>
      <trkpt lat="47.49868" lon="6.73011">
        <ele>341</ele>
        <time>2016-12-11T08:54:24.000Z</time>
      </trkpt>
      <trkpt lat="47.4987" lon="6.73007">
        <ele>341</ele>
        <time>2016-12-11T08:54:25.000Z</time>
      </trkpt>
      <trkpt lat="47.49871" lon="6.73002">
        <ele>341</ele>
        <time>2016-12-11T08:54:26.000Z</time>
      </trkpt>
      <trkpt lat="47.49873" lon="6.72997">
        <ele>342</ele>
        <time>2016-12-11T08:54:27.000Z</time>
      </trkpt>
      <trkpt lat="47.49876" lon="6.72992">
        <ele>342</ele>
        <time>2016-12-11T08:54:28.000Z</time>
      </trkpt>
      <trkpt lat="47.49877" lon="6.72985">
        <ele>342</ele>
        <time>2016-12-11T08:54:29.000Z</time>
      </trkpt>
      <trkpt lat="47.49879" lon="6.72979">
        <ele>342</ele>
        <time>2016-12-11T08:54:30.000Z</time>
      </trkpt>
      <trkpt lat="47.49881" lon="6.72973">
        <ele>342</ele>
        <time>2016-12-11T08:54:31.000Z</time>
      </trkpt>
      <trkpt lat="47.49883" lon="6.72966">
        <ele>342</ele>
        <time>2016-12-11T08:54:32.000Z</time>
      </trkpt>
      <trkpt lat="47.49885" lon="6.7296">
        <ele>342</ele>
        <time>2016-12-11T08:54:33.000Z</time>
      </trkpt>
      <trkpt lat="47.49887" lon="6.72954">
        <ele>342</ele>
        <time>2016-12-11T08:54:34.000Z</time>
      </trkpt>
      <trkpt lat="47.4989" lon="6.7295">
        <ele>342</ele>
        <time>2016-12-11T08:54:35.000Z</time>
      </trkpt>
      <trkpt lat="47.49893" lon="6.72946">
        <ele>342</ele>
        <time>2016-12-11T08:54:36.000Z</time>
      </trkpt>
      <trkpt lat="47.49897" lon="6.72945">
        <ele>342</ele>
        <time>2016-12-11T08:54:37.000Z</time>
      </trkpt>
      <trkpt lat="47.499" lon="6.72944">
        <ele>342</ele>
        <time>2016-12-11T08:54:38.000Z</time>
      </trkpt>
      <trkpt lat="47.49905" lon="6.72947">
        <ele>342</ele>
        <time>2016-12-11T08:54:39.000Z</time>
      </trkpt>
      <trkpt lat="47.4991" lon="6.72949">
        <ele>341</ele>
        <time>2016-12-11T08:54:40.000Z</time>
      </trkpt>
      <trkpt lat="47.49915" lon="6.7295">
        <ele>341</ele>
        <time>2016-12-11T08:54:41.000Z</time>
      </trkpt>
      <trkpt lat="47.4992" lon="6.72952">
        <ele>339</ele>
        <time>2016-12-11T08:54:42.000Z</time>
      </trkpt>
      <trkpt lat="47.49924" lon="6.72953">
        <ele>339</ele>
        <time>2016-12-11T08:54:43.000Z</time>
      </trkpt>
      <trkpt lat="47.49929" lon="6.72955">
        <ele>339</ele>
        <time>2016-12-11T08:54:44.000Z</time>
      </trkpt>
      <trkpt lat="47.49935" lon="6.72958">
        <ele>339</ele>
        <time>2016-12-11T08:54:45.000Z</time>
      </trkpt>
      <trkpt lat="47.49942" lon="6.7296">
        <ele>339</ele>
        <time>2016-12-11T08:54:46.000Z</time>
      </trkpt>
      <trkpt lat="47.49948" lon="6.72962">
        <ele>339</ele>
        <time>2016-12-11T08:54:47.000Z</time>
      </trkpt>
      <trkpt lat="47.49954" lon="6.72964">
        <ele>339</ele>
        <time>2016-12-11T08:54:48.000Z</time>
      </trkpt>
      <trkpt lat="47.4996" lon="6.72965">
        <ele>339</ele>
        <time>2016-12-11T08:54:49.000Z</time>
      </trkpt>
      <trkpt lat="47.49966" lon="6.72963">
        <ele>339</ele>
        <time>2016-12-11T08:54:50.000Z</time>
      </trkpt>
      <trkpt lat="47.49971" lon="6.72965">
        <ele>338</ele>
        <time>2016-12-11T08:54:51.000Z</time>
      </trkpt>
      <trkpt lat="47.49976" lon="6.72968">
        <ele>338</ele>
        <time>2016-12-11T08:54:52.000Z</time>
      </trkpt>
      <trkpt lat="47.4998" lon="6.72972">
        <ele>338</ele>
        <time>2016-12-11T08:54:53.000Z</time>
      </trkpt>
      <trkpt lat="47.49985" lon="6.72976">
        <ele>338</ele>
        <time>2016-12-11T08:54:54.000Z</time>
      </trkpt>
      <trkpt lat="47.4999" lon="6.72981">
        <ele>338</ele>
        <time>2016-12-11T08:54:55.000Z</time>
      </trkpt>
      <trkpt lat="47.49993" lon="6.72987">
        <ele>338</ele>
        <time>2016-12-11T08:54:56.000Z</time>
      </trkpt>
      <trkpt lat="47.49997" lon="6.72995">
        <ele>337</ele>
        <time>2016-12-11T08:54:57.000Z</time>
      </trkpt>
      <trkpt lat="47.5" lon="6.73001">
        <ele>337</ele>
        <time>2016-12-11T08:54:58.000Z</time>
      </trkpt>
      <trkpt lat="47.50003" lon="6.73007">
        <ele>337</ele>
        <time>2016-12-11T08:54:59.000Z</time>
      </trkpt>
      <trkpt lat="47.50006" lon="6.73013">
        <ele>337</ele>
        <time>2016-12-11T08:55:00.000Z</time>
      </trkpt>
      <trkpt lat="47.5001" lon="6.73019">
        <ele>337</ele>
        <time>2016-12-11T08:55:01.000Z</time>
      </trkpt>
      <trkpt lat="47.50013" lon="6.73024">
        <ele>337</ele>
        <time>2016-12-11T08:55:02.000Z</time>
      </trkpt>
      <trkpt lat="47.50017" lon="6.73028">
        <ele>337</ele>
        <time>2016-12-11T08:55:03.000Z</time>
      </trkpt>
      <trkpt lat="47.50021" lon="6.73032">
        <ele>337</ele>
        <time>2016-12-11T08:55:04.000Z</time>
      </trkpt>
      <trkpt lat="47.50025" lon="6.73038">
        <ele>337</ele>
        <time>2016-12-11T08:55:05.000Z</time>
      </trkpt>
      <trkpt lat="47.50028" lon="6.73043">
        <ele>337</ele>
        <time>2016-12-11T08:55:06.000Z</time>
      </trkpt>
      <trkpt lat="47.50031" lon="6.73047">
        <ele>337</ele>
        <time>2016-12-11T08:55:07.000Z</time>
      </trkpt>
      <trkpt lat="47.50035" lon="6.73051">
        <ele>337</ele>
        <time>2016-12-11T08:55:08.000Z</time>
      </trkpt>
      <trkpt lat="47.50039" lon="6.73056">
        <ele>337</ele>
        <time>2016-12-11T08:55:09.000Z</time>
      </trkpt>
      <trkpt lat="47.50042" lon="6.73061">
        <ele>337</ele>
        <time>2016-12-11T08:55:10.000Z</time>
      </trkpt>
      <trkpt lat="47.50045" lon="6.73065">
        <ele>337</ele>
        <time>2016-12-11T08:55:11.000Z</time>
      </trkpt>
      <trkpt lat="47.50049" lon="6.73069">
        <ele>337</ele>
        <time>2016-12-11T08:55:12.000Z</time>
      </trkpt>
      <trkpt lat="47.50053" lon="6.73073">
        <ele>337</ele>
        <time>2016-12-11T08:55:13.000Z</time>
      </trkpt>
      <trkpt lat="47.50057" lon="6.73077">
        <ele>337</ele>
        <time>2016-12-11T08:55:14.000Z</time>
      </trkpt>
      <trkpt lat="47.5006" lon="6.73081">
        <ele>337</ele>
        <time>2016-12-11T08:55:15.000Z</time>
      </trkpt>
      <trkpt lat="47.50064" lon="6.73085">
        <ele>337</ele>
        <time>2016-12-11T08:55:16.000Z</time>
      </trkpt>
      <trkpt lat="47.50068" lon="6.73089">
        <ele>337</ele>
        <time>2016-12-11T08:55:17.000Z</time>
      </trkpt>
      <trkpt lat="47.50072" lon="6.73093">
        <ele>338</ele>
        <time>2016-12-11T08:55:18.000Z</time>
      </trkpt>
      <trkpt lat="47.50076" lon="6.73097">
        <ele>338</ele>
        <time>2016-12-11T08:55:19.000Z</time>
      </trkpt>
      <trkpt lat="47.50079" lon="6.73101">
        <ele>338</ele>
        <time>2016-12-11T08:55:20.000Z</time>
      </trkpt>
      <trkpt lat="47.50082" lon="6.73104">
        <ele>337</ele>
        <time>2016-12-11T08:55:21.000Z</time>
      </trkpt>
      <trkpt lat="47.50086" lon="6.73108">
        <ele>339</ele>
        <time>2016-12-11T08:55:22.000Z</time>
      </trkpt>
      <trkpt lat="47.5009" lon="6.73111">
        <ele>339</ele>
        <time>2016-12-11T08:55:23.000Z</time>
      </trkpt>
      <trkpt lat="47.50094" lon="6.73114">
        <ele>339</ele>
        <time>2016-12-11T08:55:24.000Z</time>
      </trkpt>
      <trkpt lat="47.50097" lon="6.73116">
        <ele>339</ele>
        <time>2016-12-11T08:55:25.000Z</time>
      </trkpt>
      <trkpt lat="47.501" lon="6.73118">
        <ele>339</ele>
        <time>2016-12-11T08:55:26.000Z</time>
      </trkpt>
      <trkpt lat="47.50106" lon="6.7312">
        <ele>339</ele>
        <time>2016-12-11T08:55:27.000Z</time>
      </trkpt>
      <trkpt lat="47.50111" lon="6.73122">
        <ele>339</ele>
        <time>2016-12-11T08:55:28.000Z</time>
      </trkpt>
      <trkpt lat="47.50116" lon="6.73123">
        <ele>339</ele>
        <time>2016-12-11T08:55:29.000Z</time>
      </trkpt>
      <trkpt lat="47.50121" lon="6.73123">
        <ele>339</ele>
        <time>2016-12-11T08:55:30.000Z</time>
      </trkpt>
      <trkpt lat="47.50125" lon="6.73123">
        <ele>339</ele>
        <time>2016-12-11T08:55:31.000Z</time>
      </trkpt>
      <trkpt lat="47.50129" lon="6.73123">
        <ele>340</ele>
        <time>2016-12-11T08:55:32.000Z</time>
      </trkpt>
      <trkpt lat="47.50133" lon="6.73123">
        <ele>340</ele>
        <time>2016-12-11T08:55:33.000Z</time>
      </trkpt>
      <trkpt lat="47.50136" lon="6.73124">
        <ele>340</ele>
        <time>2016-12-11T08:55:34.000Z</time>
      </trkpt>
      <trkpt lat="47.5014" lon="6.73124">
        <ele>340</ele>
        <time>2016-12-11T08:55:35.000Z</time>
      </trkpt>
      <trkpt lat="47.50142" lon="6.73123">
        <ele>340</ele>
        <time>2016-12-11T08:55:36.000Z</time>
      </trkpt>
      <trkpt lat="47.50146" lon="6.73123">
        <ele>340</ele>
        <time>2016-12-11T08:55:37.000Z</time>
      </trkpt>
      <trkpt lat="47.50149" lon="6.73124">
        <ele>340</ele>
        <time>2016-12-11T08:55:38.000Z</time>
      </trkpt>
      <trkpt lat="47.50152" lon="6.73125">
        <ele>340</ele>
        <time>2016-12-11T08:55:39.000Z</time>
      </trkpt>
      <trkpt lat="47.50155" lon="6.73125">
        <ele>340</ele>
        <time>2016-12-11T08:55:40.000Z</time>
      </trkpt>
      <trkpt lat="47.50158" lon="6.73125">
        <ele>340</ele>
        <time>2016-12-11T08:55:41.000Z</time>
      </trkpt>
      <trkpt lat="47.50162" lon="6.73126">
        <ele>340</ele>
        <time>2016-12-11T08:55:42.000Z</time>
      </trkpt>
      <trkpt lat="47.50166" lon="6.73128">
        <ele>340</ele>
        <time>2016-12-11T08:55:43.000Z</time>
      </trkpt>
      <trkpt lat="47.50169" lon="6.73131">
        <ele>341</ele>
        <time>2016-12-11T08:55:44.000Z</time>
      </trkpt>
      <trkpt lat="47.50172" lon="6.73133">
        <ele>341</ele>
        <time>2016-12-11T08:55:45.000Z</time>
      </trkpt>
      <trkpt lat="47.50174" lon="6.73136">
        <ele>341</ele>
        <time>2016-12-11T08:55:46.000Z</time>
      </trkpt>
      <trkpt lat="47.50176" lon="6.73137">
        <ele>341</ele>
        <time>2016-12-11T08:55:47.000Z</time>
      </trkpt>
      <trkpt lat="47.50178" lon="6.73139">
        <ele>341</ele>
        <time>2016-12-11T08:55:48.000Z</time>
      </trkpt>
      <trkpt lat="47.50181" lon="6.73139">
        <ele>341</ele>
        <time>2016-12-11T08:55:49.000Z</time>
      </trkpt>
      <trkpt lat="47.50184" lon="6.73137">
        <ele>341</ele>
        <time>2016-12-11T08:55:50.000Z</time>
      </trkpt>
      <trkpt lat="47.50186" lon="6.73135">
        <ele>341</ele>
        <time>2016-12-11T08:55:51.000Z</time>
      </trkpt>
      <trkpt lat="47.50189" lon="6.73131">
        <ele>341</ele>
        <time>2016-12-11T08:55:52.000Z</time>
      </trkpt>
      <trkpt lat="47.50193" lon="6.73126">
        <ele>341</ele>
        <time>2016-12-11T08:55:53.000Z</time>
      </trkpt>
      <trkpt lat="47.50196" lon="6.73121">
        <ele>341</ele>
        <time>2016-12-11T08:55:54.000Z</time>
      </trkpt>
      <trkpt lat="47.50199" lon="6.73115">
        <ele>341</ele>
        <time>2016-12-11T08:55:55.000Z</time>
      </trkpt>
      <trkpt lat="47.50202" lon="6.73108">
        <ele>341</ele>
        <time>2016-12-11T08:55:56.000Z</time>
      </trkpt>
      <trkpt lat="47.50204" lon="6.73101">
        <ele>341</ele>
        <time>2016-12-11T08:55:57.000Z</time>
      </trkpt>
      <trkpt lat="47.50207" lon="6.73093">
        <ele>341</ele>
        <time>2016-12-11T08:55:58.000Z</time>
      </trkpt>
      <trkpt lat="47.50209" lon="6.73087">
        <ele>341</ele>
        <time>2016-12-11T08:55:59.000Z</time>
      </trkpt>
      <trkpt lat="47.50212" lon="6.7308">
        <ele>341</ele>
        <time>2016-12-11T08:56:00.000Z</time>
      </trkpt>
      <trkpt lat="47.50214" lon="6.73074">
        <ele>341</ele>
        <time>2016-12-11T08:56:01.000Z</time>
      </trkpt>
      <trkpt lat="47.50216" lon="6.73067">
        <ele>341</ele>
        <time>2016-12-11T08:56:02.000Z</time>
      </trkpt>
      <trkpt lat="47.50219" lon="6.73059">
        <ele>341</ele>
        <time>2016-12-11T08:56:03.000Z</time>
      </trkpt>
      <trkpt lat="47.50221" lon="6.73052">
        <ele>341</ele>
        <time>2016-12-11T08:56:04.000Z</time>
      </trkpt>
      <trkpt lat="47.50224" lon="6.73046">
        <ele>341</ele>
        <time>2016-12-11T08:56:05.000Z</time>
      </trkpt>
      <trkpt lat="47.50227" lon="6.73038">
        <ele>341</ele>
        <time>2016-12-11T08:56:06.000Z</time>
      </trkpt>
      <trkpt lat="47.50229" lon="6.73032">
        <ele>341</ele>
        <time>2016-12-11T08:56:07.000Z</time>
      </trkpt>
      <trkpt lat="47.50231" lon="6.73025">
        <ele>341</ele>
        <time>2016-12-11T08:56:08.000Z</time>
      </trkpt>
      <trkpt lat="47.50235" lon="6.73018">
        <ele>341</ele>
        <time>2016-12-11T08:56:09.000Z</time>
      </trkpt>
      <trkpt lat="47.50237" lon="6.73011">
        <ele>341</ele>
        <time>2016-12-11T08:56:10.000Z</time>
      </trkpt>
      <trkpt lat="47.50239" lon="6.73006">
        <ele>341</ele>
        <time>2016-12-11T08:56:11.000Z</time>
      </trkpt>
      <trkpt lat="47.50242" lon="6.72999">
        <ele>341</ele>
        <time>2016-12-11T08:56:12.000Z</time>
      </trkpt>
      <trkpt lat="47.50244" lon="6.72991">
        <ele>341</ele>
        <time>2016-12-11T08:56:13.000Z</time>
      </trkpt>
      <trkpt lat="47.50246" lon="6.72986">
        <ele>340</ele>
        <time>2016-12-11T08:56:14.000Z</time>
      </trkpt>
      <trkpt lat="47.50248" lon="6.7298">
        <ele>340</ele>
        <time>2016-12-11T08:56:15.000Z</time>
      </trkpt>
      <trkpt lat="47.5025" lon="6.72974">
        <ele>340</ele>
        <time>2016-12-11T08:56:16.000Z</time>
      </trkpt>
      <trkpt lat="47.50253" lon="6.72967">
        <ele>341</ele>
        <time>2016-12-11T08:56:17.000Z</time>
      </trkpt>
      <trkpt lat="47.50255" lon="6.72962">
        <ele>341</ele>
        <time>2016-12-11T08:56:18.000Z</time>
      </trkpt>
      <trkpt lat="47.50257" lon="6.72958">
        <ele>341</ele>
        <time>2016-12-11T08:56:19.000Z</time>
      </trkpt>
      <trkpt lat="47.50259" lon="6.72953">
        <ele>341</ele>
        <time>2016-12-11T08:56:20.000Z</time>
      </trkpt>
      <trkpt lat="47.5026" lon="6.72949">
        <ele>341</ele>
        <time>2016-12-11T08:56:21.000Z</time>
      </trkpt>
      <trkpt lat="47.50261" lon="6.72945">
        <ele>341</ele>
        <time>2016-12-11T08:56:22.000Z</time>
      </trkpt>
      <trkpt lat="47.50263" lon="6.72941">
        <ele>341</ele>
        <time>2016-12-11T08:56:23.000Z</time>
      </trkpt>
      <trkpt lat="47.50265" lon="6.72938">
        <ele>341</ele>
        <time>2016-12-11T08:56:24.000Z</time>
      </trkpt>
      <trkpt lat="47.50266" lon="6.72934">
        <ele>341</ele>
        <time>2016-12-11T08:56:25.000Z</time>
      </trkpt>
      <trkpt lat="47.50267" lon="6.72931">
        <ele>341</ele>
        <time>2016-12-11T08:56:26.000Z</time>
      </trkpt>
      <trkpt lat="47.50269" lon="6.72927">
        <ele>341</ele>
        <time>2016-12-11T08:56:27.000Z</time>
      </trkpt>
      <trkpt lat="47.50271" lon="6.72923">
        <ele>341</ele>
        <time>2016-12-11T08:56:28.000Z</time>
      </trkpt>
      <trkpt lat="47.50273" lon="6.72919">
        <ele>341</ele>
        <time>2016-12-11T08:56:29.000Z</time>
      </trkpt>
      <trkpt lat="47.50274" lon="6.72914">
        <ele>341</ele>
        <time>2016-12-11T08:56:30.000Z</time>
      </trkpt>
      <trkpt lat="47.50275" lon="6.72911">
        <ele>341</ele>
        <time>2016-12-11T08:56:31.000Z</time>
      </trkpt>
      <trkpt lat="47.50276" lon="6.72908">
        <ele>341</ele>
        <time>2016-12-11T08:56:32.000Z</time>
      </trkpt>
      <trkpt lat="47.50277" lon="6.72903">
        <ele>341</ele>
        <time>2016-12-11T08:56:33.000Z</time>
      </trkpt>
      <trkpt lat="47.5028" lon="6.72899">
        <ele>341</ele>
        <time>2016-12-11T08:56:34.000Z</time>
      </trkpt>
      <trkpt lat="47.50283" lon="6.72899">
        <ele>341</ele>
        <time>2016-12-11T08:56:35.000Z</time>
      </trkpt>
      <trkpt lat="47.50286" lon="6.72898">
        <ele>341</ele>
        <time>2016-12-11T08:56:36.000Z</time>
      </trkpt>
      <trkpt lat="47.5029" lon="6.72899">
        <ele>341</ele>
        <time>2016-12-11T08:56:37.000Z</time>
      </trkpt>
      <trkpt lat="47.50293" lon="6.729">
        <ele>342</ele>
        <time>2016-12-11T08:56:38.000Z</time>
      </trkpt>
      <trkpt lat="47.50298" lon="6.72902">
        <ele>342</ele>
        <time>2016-12-11T08:56:39.000Z</time>
      </trkpt>
      <trkpt lat="47.50301" lon="6.72903">
        <ele>342</ele>
        <time>2016-12-11T08:56:40.000Z</time>
      </trkpt>
      <trkpt lat="47.50303" lon="6.72903">
        <ele>342</ele>
        <time>2016-12-11T08:56:41.000Z</time>
      </trkpt>
      <trkpt lat="47.50306" lon="6.72904">
        <ele>342</ele>
        <time>2016-12-11T08:56:42.000Z</time>
      </trkpt>
      <trkpt lat="47.50309" lon="6.72906">
        <ele>342</ele>
        <time>2016-12-11T08:56:43.000Z</time>
      </trkpt>
      <trkpt lat="47.50313" lon="6.72907">
        <ele>342</ele>
        <time>2016-12-11T08:56:44.000Z</time>
      </trkpt>
      <trkpt lat="47.50317" lon="6.72909">
        <ele>342</ele>
        <time>2016-12-11T08:56:45.000Z</time>
      </trkpt>
      <trkpt lat="47.5032" lon="6.72911">
        <ele>342</ele>
        <time>2016-12-11T08:56:46.000Z</time>
      </trkpt>
      <trkpt lat="47.50324" lon="6.72912">
        <ele>342</ele>
        <time>2016-12-11T08:56:47.000Z</time>
      </trkpt>
      <trkpt lat="47.50326" lon="6.72913">
        <ele>343</ele>
        <time>2016-12-11T08:56:48.000Z</time>
      </trkpt>
      <trkpt lat="47.50329" lon="6.72914">
        <ele>343</ele>
        <time>2016-12-11T08:56:49.000Z</time>
      </trkpt>
      <trkpt lat="47.50332" lon="6.72915">
        <ele>343</ele>
        <time>2016-12-11T08:56:50.000Z</time>
      </trkpt>
      <trkpt lat="47.50336" lon="6.72916">
        <ele>343</ele>
        <time>2016-12-11T08:56:51.000Z</time>
      </trkpt>
      <trkpt lat="47.50339" lon="6.72917">
        <ele>344</ele>
        <time>2016-12-11T08:56:52.000Z</time>
      </trkpt>
      <trkpt lat="47.50342" lon="6.72919">
        <ele>344</ele>
        <time>2016-12-11T08:56:53.000Z</time>
      </trkpt>
      <trkpt lat="47.50346" lon="6.7292">
        <ele>344</ele>
        <time>2016-12-11T08:56:55.000Z</time>
      </trkpt>
      <trkpt lat="47.50349" lon="6.72921">
        <ele>345</ele>
        <time>2016-12-11T08:56:56.000Z</time>
      </trkpt>
      <trkpt lat="47.50352" lon="6.72921">
        <ele>345</ele>
        <time>2016-12-11T08:56:57.000Z</time>
      </trkpt>
      <trkpt lat="47.50355" lon="6.72922">
        <ele>345</ele>
        <time>2016-12-11T08:56:58.000Z</time>
      </trkpt>
      <trkpt lat="47.50357" lon="6.72922">
        <ele>345</ele>
        <time>2016-12-11T08:56:59.000Z</time>
      </trkpt>
      <trkpt lat="47.5036" lon="6.72923">
        <ele>345</ele>
        <time>2016-12-11T08:57:00.000Z</time>
      </trkpt>
      <trkpt lat="47.50362" lon="6.72925">
        <ele>345</ele>
        <time>2016-12-11T08:57:01.000Z</time>
      </trkpt>
      <trkpt lat="47.50364" lon="6.72926">
        <ele>346</ele>
        <time>2016-12-11T08:57:02.000Z</time>
      </trkpt>
      <trkpt lat="47.50367" lon="6.72927">
        <ele>346</ele>
        <time>2016-12-11T08:57:03.000Z</time>
      </trkpt>
      <trkpt lat="47.5037" lon="6.72929">
        <ele>346</ele>
        <time>2016-12-11T08:57:04.000Z</time>
      </trkpt>
      <trkpt lat="47.50373" lon="6.72931">
        <ele>346</ele>
        <time>2016-12-11T08:57:06.000Z</time>
      </trkpt>
      <trkpt lat="47.50376" lon="6.72932">
        <ele>346</ele>
        <time>2016-12-11T08:57:07.000Z</time>
      </trkpt>
      <trkpt lat="47.50378" lon="6.72934">
        <ele>346</ele>
        <time>2016-12-11T08:57:08.000Z</time>
      </trkpt>
      <trkpt lat="47.50381" lon="6.72934">
        <ele>346</ele>
        <time>2016-12-11T08:57:09.000Z</time>
      </trkpt>
      <trkpt lat="47.50385" lon="6.72935">
        <ele>347</ele>
        <time>2016-12-11T08:57:10.000Z</time>
      </trkpt>
      <trkpt lat="47.50389" lon="6.72937">
        <ele>347</ele>
        <time>2016-12-11T08:57:11.000Z</time>
      </trkpt>
      <trkpt lat="47.50392" lon="6.72937">
        <ele>347</ele>
        <time>2016-12-11T08:57:12.000Z</time>
      </trkpt>
      <trkpt lat="47.50394" lon="6.72938">
        <ele>347</ele>
        <time>2016-12-11T08:57:13.000Z</time>
      </trkpt>
      <trkpt lat="47.50397" lon="6.72938">
        <ele>347</ele>
        <time>2016-12-11T08:57:14.000Z</time>
      </trkpt>
      <trkpt lat="47.50399" lon="6.72939">
        <ele>347</ele>
        <time>2016-12-11T08:57:15.000Z</time>
      </trkpt>
      <trkpt lat="47.50402" lon="6.7294">
        <ele>347</ele>
        <time>2016-12-11T08:57:16.000Z</time>
      </trkpt>
      <trkpt lat="47.50405" lon="6.72941">
        <ele>347</ele>
        <time>2016-12-11T08:57:17.000Z</time>
      </trkpt>
      <trkpt lat="47.50408" lon="6.72941">
        <ele>347</ele>
        <time>2016-12-11T08:57:18.000Z</time>
      </trkpt>
      <trkpt lat="47.5041" lon="6.72942">
        <ele>347</ele>
        <time>2016-12-11T08:57:19.000Z</time>
      </trkpt>
      <trkpt lat="47.50413" lon="6.72942">
        <ele>347</ele>
        <time>2016-12-11T08:57:20.000Z</time>
      </trkpt>
      <trkpt lat="47.50416" lon="6.72943">
        <ele>347</ele>
        <time>2016-12-11T08:57:21.000Z</time>
      </trkpt>
      <trkpt lat="47.5042" lon="6.72943">
        <ele>352</ele>
        <time>2016-12-11T08:57:22.000Z</time>
      </trkpt>
      <trkpt lat="47.50422" lon="6.72944">
        <ele>352</ele>
        <time>2016-12-11T08:57:23.000Z</time>
      </trkpt>
      <trkpt lat="47.50424" lon="6.72944">
        <ele>352</ele>
        <time>2016-12-11T08:57:24.000Z</time>
      </trkpt>
      <trkpt lat="47.50427" lon="6.72945">
        <ele>352</ele>
        <time>2016-12-11T08:57:25.000Z</time>
      </trkpt>
      <trkpt lat="47.50429" lon="6.72946">
        <ele>352</ele>
        <time>2016-12-11T08:57:26.000Z</time>
      </trkpt>
      <trkpt lat="47.50432" lon="6.72946">
        <ele>352</ele>
        <time>2016-12-11T08:57:27.000Z</time>
      </trkpt>
      <trkpt lat="47.50434" lon="6.72946">
        <ele>352</ele>
        <time>2016-12-11T08:57:28.000Z</time>
      </trkpt>
      <trkpt lat="47.50437" lon="6.72947">
        <ele>352</ele>
        <time>2016-12-11T08:57:29.000Z</time>
      </trkpt>
      <trkpt lat="47.5044" lon="6.72947">
        <ele>352</ele>
        <time>2016-12-11T08:57:30.000Z</time>
      </trkpt>
      <trkpt lat="47.50442" lon="6.72948">
        <ele>353</ele>
        <time>2016-12-11T08:57:31.000Z</time>
      </trkpt>
      <trkpt lat="47.50444" lon="6.72948">
        <ele>353</ele>
        <time>2016-12-11T08:57:32.000Z</time>
      </trkpt>
      <trkpt lat="47.50447" lon="6.72948">
        <ele>353</ele>
        <time>2016-12-11T08:57:33.000Z</time>
      </trkpt>
      <trkpt lat="47.5045" lon="6.72947">
        <ele>353</ele>
        <time>2016-12-11T08:57:34.000Z</time>
      </trkpt>
      <trkpt lat="47.50452" lon="6.72947">
        <ele>353</ele>
        <time>2016-12-11T08:57:35.000Z</time>
      </trkpt>
      <trkpt lat="47.50456" lon="6.72943">
        <ele>353</ele>
        <time>2016-12-11T08:57:37.000Z</time>
      </trkpt>
      <trkpt lat="47.50458" lon="6.72941">
        <ele>353</ele>
        <time>2016-12-11T08:57:38.000Z</time>
      </trkpt>
      <trkpt lat="47.50461" lon="6.72939">
        <ele>354</ele>
        <time>2016-12-11T08:57:39.000Z</time>
      </trkpt>
      <trkpt lat="47.50463" lon="6.72936">
        <ele>354</ele>
        <time>2016-12-11T08:57:40.000Z</time>
      </trkpt>
      <trkpt lat="47.50465" lon="6.72931">
        <ele>354</ele>
        <time>2016-12-11T08:57:42.000Z</time>
      </trkpt>
      <trkpt lat="47.50467" lon="6.72928">
        <ele>354</ele>
        <time>2016-12-11T08:57:43.000Z</time>
      </trkpt>
      <trkpt lat="47.50469" lon="6.72925">
        <ele>354</ele>
        <time>2016-12-11T08:57:44.000Z</time>
      </trkpt>
      <trkpt lat="47.50471" lon="6.72922">
        <ele>354</ele>
        <time>2016-12-11T08:57:45.000Z</time>
      </trkpt>
      <trkpt lat="47.50472" lon="6.72919">
        <ele>354</ele>
        <time>2016-12-11T08:57:46.000Z</time>
      </trkpt>
      <trkpt lat="47.50474" lon="6.72916">
        <ele>354</ele>
        <time>2016-12-11T08:57:47.000Z</time>
      </trkpt>
      <trkpt lat="47.50477" lon="6.72913">
        <ele>354</ele>
        <time>2016-12-11T08:57:49.000Z</time>
      </trkpt>
      <trkpt lat="47.50479" lon="6.7291">
        <ele>354</ele>
        <time>2016-12-11T08:57:50.000Z</time>
      </trkpt>
      <trkpt lat="47.50481" lon="6.72906">
        <ele>354</ele>
        <time>2016-12-11T08:57:51.000Z</time>
      </trkpt>
      <trkpt lat="47.50483" lon="6.72904">
        <ele>354</ele>
        <time>2016-12-11T08:57:52.000Z</time>
      </trkpt>
      <trkpt lat="47.50485" lon="6.72901">
        <ele>354</ele>
        <time>2016-12-11T08:57:53.000Z</time>
      </trkpt>
      <trkpt lat="47.50488" lon="6.72899">
        <ele>355</ele>
        <time>2016-12-11T08:57:54.000Z</time>
      </trkpt>
      <trkpt lat="47.50489" lon="6.72896">
        <ele>354</ele>
        <time>2016-12-11T08:57:55.000Z</time>
      </trkpt>
      <trkpt lat="47.50491" lon="6.72893">
        <ele>354</ele>
        <time>2016-12-11T08:57:56.000Z</time>
      </trkpt>
      <trkpt lat="47.50493" lon="6.7289">
        <ele>354</ele>
        <time>2016-12-11T08:57:57.000Z</time>
      </trkpt>
      <trkpt lat="47.50494" lon="6.72887">
        <ele>354</ele>
        <time>2016-12-11T08:57:58.000Z</time>
      </trkpt>
      <trkpt lat="47.50497" lon="6.72882">
        <ele>354</ele>
        <time>2016-12-11T08:58:00.000Z</time>
      </trkpt>
      <trkpt lat="47.50499" lon="6.7288">
        <ele>354</ele>
        <time>2016-12-11T08:58:01.000Z</time>
      </trkpt>
      <trkpt lat="47.50501" lon="6.72877">
        <ele>362</ele>
        <time>2016-12-11T08:58:02.000Z</time>
      </trkpt>
      <trkpt lat="47.50503" lon="6.72875">
        <ele>362</ele>
        <time>2016-12-11T08:58:03.000Z</time>
      </trkpt>
      <trkpt lat="47.50505" lon="6.72873">
        <ele>362</ele>
        <time>2016-12-11T08:58:04.000Z</time>
      </trkpt>
      <trkpt lat="47.50507" lon="6.72871">
        <ele>362</ele>
        <time>2016-12-11T08:58:05.000Z</time>
      </trkpt>
      <trkpt lat="47.50508" lon="6.72869">
        <ele>363</ele>
        <time>2016-12-11T08:58:06.000Z</time>
      </trkpt>
      <trkpt lat="47.50511" lon="6.72865">
        <ele>363</ele>
        <time>2016-12-11T08:58:07.000Z</time>
      </trkpt>
      <trkpt lat="47.50513" lon="6.72863">
        <ele>363</ele>
        <time>2016-12-11T08:58:08.000Z</time>
      </trkpt>
      <trkpt lat="47.50515" lon="6.72862">
        <ele>363</ele>
        <time>2016-12-11T08:58:09.000Z</time>
      </trkpt>
      <trkpt lat="47.50518" lon="6.72861">
        <ele>363</ele>
        <time>2016-12-11T08:58:10.000Z</time>
      </trkpt>
      <trkpt lat="47.5052" lon="6.7286">
        <ele>363</ele>
        <time>2016-12-11T08:58:11.000Z</time>
      </trkpt>
      <trkpt lat="47.50524" lon="6.72858">
        <ele>363</ele>
        <time>2016-12-11T08:58:12.000Z</time>
      </trkpt>
      <trkpt lat="47.50527" lon="6.72857">
        <ele>364</ele>
        <time>2016-12-11T08:58:13.000Z</time>
      </trkpt>
      <trkpt lat="47.50529" lon="6.72856">
        <ele>364</ele>
        <time>2016-12-11T08:58:14.000Z</time>
      </trkpt>
      <trkpt lat="47.50531" lon="6.72854">
        <ele>364</ele>
        <time>2016-12-11T08:58:15.000Z</time>
      </trkpt>
      <trkpt lat="47.50534" lon="6.72852">
        <ele>364</ele>
        <time>2016-12-11T08:58:16.000Z</time>
      </trkpt>
      <trkpt lat="47.50536" lon="6.72851">
        <ele>364</ele>
        <time>2016-12-11T08:58:17.000Z</time>
      </trkpt>
      <trkpt lat="47.50539" lon="6.72849">
        <ele>365</ele>
        <time>2016-12-11T08:58:18.000Z</time>
      </trkpt>
      <trkpt lat="47.50541" lon="6.72848">
        <ele>365</ele>
        <time>2016-12-11T08:58:19.000Z</time>
      </trkpt>
      <trkpt lat="47.50545" lon="6.72846">
        <ele>365</ele>
        <time>2016-12-11T08:58:21.000Z</time>
      </trkpt>
      <trkpt lat="47.50547" lon="6.72845">
        <ele>366</ele>
        <time>2016-12-11T08:58:22.000Z</time>
      </trkpt>
      <trkpt lat="47.50549" lon="6.72844">
        <ele>366</ele>
        <time>2016-12-11T08:58:23.000Z</time>
      </trkpt>
      <trkpt lat="47.50551" lon="6.72842">
        <ele>366</ele>
        <time>2016-12-11T08:58:24.000Z</time>
      </trkpt>
      <trkpt lat="47.50553" lon="6.72839">
        <ele>366</ele>
        <time>2016-12-11T08:58:25.000Z</time>
      </trkpt>
      <trkpt lat="47.50556" lon="6.72836">
        <ele>367</ele>
        <time>2016-12-11T08:58:26.000Z</time>
      </trkpt>
      <trkpt lat="47.50559" lon="6.72834">
        <ele>367</ele>
        <time>2016-12-11T08:58:27.000Z</time>
      </trkpt>
      <trkpt lat="47.5056" lon="6.72833">
        <ele>366</ele>
        <time>2016-12-11T08:58:28.000Z</time>
      </trkpt>
      <trkpt lat="47.50564" lon="6.72829">
        <ele>366</ele>
        <time>2016-12-11T08:58:30.000Z</time>
      </trkpt>
      <trkpt lat="47.50566" lon="6.72827">
        <ele>367</ele>
        <time>2016-12-11T08:58:31.000Z</time>
      </trkpt>
      <trkpt lat="47.50569" lon="6.72824">
        <ele>367</ele>
        <time>2016-12-11T08:58:33.000Z</time>
      </trkpt>
      <trkpt lat="47.5057" lon="6.72823">
        <ele>367</ele>
        <time>2016-12-11T08:58:34.000Z</time>
      </trkpt>
      <trkpt lat="47.50574" lon="6.7282">
        <ele>367</ele>
        <time>2016-12-11T08:58:38.000Z</time>
      </trkpt>
      <trkpt lat="47.50577" lon="6.72819">
        <ele>367</ele>
        <time>2016-12-11T08:58:39.000Z</time>
      </trkpt>
      <trkpt lat="47.50578" lon="6.72818">
        <ele>367</ele>
        <time>2016-12-11T08:58:40.000Z</time>
      </trkpt>
      <trkpt lat="47.50581" lon="6.72817">
        <ele>367</ele>
        <time>2016-12-11T08:58:41.000Z</time>
      </trkpt>
      <trkpt lat="47.50584" lon="6.72815">
        <ele>375</ele>
        <time>2016-12-11T08:58:42.000Z</time>
      </trkpt>
      <trkpt lat="47.50588" lon="6.72813">
        <ele>375</ele>
        <time>2016-12-11T08:58:43.000Z</time>
      </trkpt>
      <trkpt lat="47.5059" lon="6.72812">
        <ele>376</ele>
        <time>2016-12-11T08:58:44.000Z</time>
      </trkpt>
      <trkpt lat="47.50593" lon="6.72811">
        <ele>376</ele>
        <time>2016-12-11T08:58:45.000Z</time>
      </trkpt>
      <trkpt lat="47.50596" lon="6.72809">
        <ele>376</ele>
        <time>2016-12-11T08:58:47.000Z</time>
      </trkpt>
      <trkpt lat="47.50599" lon="6.72807">
        <ele>377</ele>
        <time>2016-12-11T08:58:48.000Z</time>
      </trkpt>
      <trkpt lat="47.50601" lon="6.72806">
        <ele>377</ele>
        <time>2016-12-11T08:58:49.000Z</time>
      </trkpt>
      <trkpt lat="47.50604" lon="6.72804">
        <ele>377</ele>
        <time>2016-12-11T08:58:50.000Z</time>
      </trkpt>
      <trkpt lat="47.50607" lon="6.72801">
        <ele>378</ele>
        <time>2016-12-11T08:58:52.000Z</time>
      </trkpt>
      <trkpt lat="47.50609" lon="6.72799">
        <ele>378</ele>
        <time>2016-12-11T08:58:53.000Z</time>
      </trkpt>
      <trkpt lat="47.50611" lon="6.72795">
        <ele>378</ele>
        <time>2016-12-11T08:58:55.000Z</time>
      </trkpt>
      <trkpt lat="47.50612" lon="6.72794">
        <ele>378</ele>
        <time>2016-12-11T08:58:56.000Z</time>
      </trkpt>
      <trkpt lat="47.50615" lon="6.7279">
        <ele>379</ele>
        <time>2016-12-11T08:58:59.000Z</time>
      </trkpt>
      <trkpt lat="47.50617" lon="6.72789">
        <ele>379</ele>
        <time>2016-12-11T08:59:00.000Z</time>
      </trkpt>
      <trkpt lat="47.5062" lon="6.72786">
        <ele>379</ele>
        <time>2016-12-11T08:59:02.000Z</time>
      </trkpt>
      <trkpt lat="47.50622" lon="6.72784">
        <ele>379</ele>
        <time>2016-12-11T08:59:03.000Z</time>
      </trkpt>
      <trkpt lat="47.50625" lon="6.7278">
        <ele>380</ele>
        <time>2016-12-11T08:59:05.000Z</time>
      </trkpt>
      <trkpt lat="47.50626" lon="6.72778">
        <ele>380</ele>
        <time>2016-12-11T08:59:06.000Z</time>
      </trkpt>
      <trkpt lat="47.50628" lon="6.72775">
        <ele>380</ele>
        <time>2016-12-11T08:59:08.000Z</time>
      </trkpt>
      <trkpt lat="47.50629" lon="6.72772">
        <ele>380</ele>
        <time>2016-12-11T08:59:09.000Z</time>
      </trkpt>
      <trkpt lat="47.50631" lon="6.72768">
        <ele>380</ele>
        <time>2016-12-11T08:59:11.000Z</time>
      </trkpt>
      <trkpt lat="47.50632" lon="6.72767">
        <ele>381</ele>
        <time>2016-12-11T08:59:12.000Z</time>
      </trkpt>
      <trkpt lat="47.50635" lon="6.72765">
        <ele>381</ele>
        <time>2016-12-11T08:59:13.000Z</time>
      </trkpt>
      <trkpt lat="47.50637" lon="6.72764">
        <ele>381</ele>
        <time>2016-12-11T08:59:14.000Z</time>
      </trkpt>
      <trkpt lat="47.50639" lon="6.72762">
        <ele>382</ele>
        <time>2016-12-11T08:59:16.000Z</time>
      </trkpt>
      <trkpt lat="47.50641" lon="6.7276">
        <ele>382</ele>
        <time>2016-12-11T08:59:17.000Z</time>
      </trkpt>
      <trkpt lat="47.50645" lon="6.72756">
        <ele>383</ele>
        <time>2016-12-11T08:59:19.000Z</time>
      </trkpt>
      <trkpt lat="47.50645" lon="6.72755">
        <ele>383</ele>
        <time>2016-12-11T08:59:20.000Z</time>
      </trkpt>
      <trkpt lat="47.50647" lon="6.72752">
        <ele>383</ele>
        <time>2016-12-11T08:59:21.000Z</time>
      </trkpt>
      <trkpt lat="47.50649" lon="6.7275">
        <ele>381</ele>
        <time>2016-12-11T08:59:22.000Z</time>
      </trkpt>
      <trkpt lat="47.50652" lon="6.72746">
        <ele>382</ele>
        <time>2016-12-11T08:59:23.000Z</time>
      </trkpt>
      <trkpt lat="47.50655" lon="6.72743">
        <ele>383</ele>
        <time>2016-12-11T08:59:24.000Z</time>
      </trkpt>
      <trkpt lat="47.50658" lon="6.7274">
        <ele>383</ele>
        <time>2016-12-11T08:59:25.000Z</time>
      </trkpt>
      <trkpt lat="47.5066" lon="6.72739">
        <ele>383</ele>
        <time>2016-12-11T08:59:26.000Z</time>
      </trkpt>
      <trkpt lat="47.50662" lon="6.72738">
        <ele>383</ele>
        <time>2016-12-11T08:59:27.000Z</time>
      </trkpt>
      <trkpt lat="47.50665" lon="6.72736">
        <ele>383</ele>
        <time>2016-12-11T08:59:28.000Z</time>
      </trkpt>
      <trkpt lat="47.50667" lon="6.72734">
        <ele>382</ele>
        <time>2016-12-11T08:59:30.000Z</time>
      </trkpt>
      <trkpt lat="47.50669" lon="6.72733">
        <ele>390</ele>
        <time>2016-12-11T08:59:31.000Z</time>
      </trkpt>
      <trkpt lat="47.50672" lon="6.72729">
        <ele>390</ele>
        <time>2016-12-11T08:59:34.000Z</time>
      </trkpt>
      <trkpt lat="47.50673" lon="6.72728">
        <ele>390</ele>
        <time>2016-12-11T08:59:35.000Z</time>
      </trkpt>
      <trkpt lat="47.50676" lon="6.72723">
        <ele>390</ele>
        <time>2016-12-11T08:59:37.000Z</time>
      </trkpt>
      <trkpt lat="47.50677" lon="6.72721">
        <ele>390</ele>
        <time>2016-12-11T08:59:38.000Z</time>
      </trkpt>
      <trkpt lat="47.50679" lon="6.72718">
        <ele>390</ele>
        <time>2016-12-11T08:59:39.000Z</time>
      </trkpt>
      <trkpt lat="47.50681" lon="6.72715">
        <ele>390</ele>
        <time>2016-12-11T08:59:40.000Z</time>
      </trkpt>
      <trkpt lat="47.50683" lon="6.72711">
        <ele>390</ele>
        <time>2016-12-11T08:59:42.000Z</time>
      </trkpt>
      <trkpt lat="47.50684" lon="6.72706">
        <ele>390</ele>
        <time>2016-12-11T08:59:43.000Z</time>
      </trkpt>
      <trkpt lat="47.50686" lon="6.72702">
        <ele>390</ele>
        <time>2016-12-11T08:59:45.000Z</time>
      </trkpt>
      <trkpt lat="47.50688" lon="6.72701">
        <ele>390</ele>
        <time>2016-12-11T08:59:46.000Z</time>
      </trkpt>
      <trkpt lat="47.5069" lon="6.72699">
        <ele>390</ele>
        <time>2016-12-11T08:59:47.000Z</time>
      </trkpt>
      <trkpt lat="47.50692" lon="6.72696">
        <ele>390</ele>
        <time>2016-12-11T08:59:48.000Z</time>
      </trkpt>
      <trkpt lat="47.50695" lon="6.72693">
        <ele>390</ele>
        <time>2016-12-11T08:59:49.000Z</time>
      </trkpt>
      <trkpt lat="47.50698" lon="6.7269">
        <ele>390</ele>
        <time>2016-12-11T08:59:50.000Z</time>
      </trkpt>
      <trkpt lat="47.50701" lon="6.72688">
        <ele>391</ele>
        <time>2016-12-11T08:59:51.000Z</time>
      </trkpt>
      <trkpt lat="47.50705" lon="6.72686">
        <ele>391</ele>
        <time>2016-12-11T08:59:52.000Z</time>
      </trkpt>
      <trkpt lat="47.50707" lon="6.72684">
        <ele>391</ele>
        <time>2016-12-11T08:59:53.000Z</time>
      </trkpt>
      <trkpt lat="47.5071" lon="6.72682">
        <ele>391</ele>
        <time>2016-12-11T08:59:54.000Z</time>
      </trkpt>
      <trkpt lat="47.50714" lon="6.72679">
        <ele>392</ele>
        <time>2016-12-11T08:59:56.000Z</time>
      </trkpt>
      <trkpt lat="47.50714" lon="6.72678">
        <ele>392</ele>
        <time>2016-12-11T08:59:57.000Z</time>
      </trkpt>
      <trkpt lat="47.50717" lon="6.72674">
        <ele>392</ele>
        <time>2016-12-11T08:59:59.000Z</time>
      </trkpt>
      <trkpt lat="47.50718" lon="6.72673">
        <ele>392</ele>
        <time>2016-12-11T09:00:00.000Z</time>
      </trkpt>
      <trkpt lat="47.5072" lon="6.72671">
        <ele>393</ele>
        <time>2016-12-11T09:00:01.000Z</time>
      </trkpt>
      <trkpt lat="47.50722" lon="6.72669">
        <ele>393</ele>
        <time>2016-12-11T09:00:02.000Z</time>
      </trkpt>
      <trkpt lat="47.50725" lon="6.72667">
        <ele>393</ele>
        <time>2016-12-11T09:00:04.000Z</time>
      </trkpt>
      <trkpt lat="47.50727" lon="6.72665">
        <ele>390</ele>
        <time>2016-12-11T09:00:05.000Z</time>
      </trkpt>
      <trkpt lat="47.5073" lon="6.72663">
        <ele>390</ele>
        <time>2016-12-11T09:00:06.000Z</time>
      </trkpt>
      <trkpt lat="47.50733" lon="6.72661">
        <ele>391</ele>
        <time>2016-12-11T09:00:07.000Z</time>
      </trkpt>
      <trkpt lat="47.50736" lon="6.72654">
        <ele>390</ele>
        <time>2016-12-11T09:00:08.000Z</time>
      </trkpt>
      <trkpt lat="47.50742" lon="6.72647">
        <ele>390</ele>
        <time>2016-12-11T09:00:09.000Z</time>
      </trkpt>
      <trkpt lat="47.50745" lon="6.72644">
        <ele>390</ele>
        <time>2016-12-11T09:00:10.000Z</time>
      </trkpt>
      <trkpt lat="47.50748" lon="6.72641">
        <ele>389</ele>
        <time>2016-12-11T09:00:11.000Z</time>
      </trkpt>
      <trkpt lat="47.50752" lon="6.72638">
        <ele>398</ele>
        <time>2016-12-11T09:00:12.000Z</time>
      </trkpt>
      <trkpt lat="47.50754" lon="6.72635">
        <ele>398</ele>
        <time>2016-12-11T09:00:13.000Z</time>
      </trkpt>
      <trkpt lat="47.50757" lon="6.72631">
        <ele>398</ele>
        <time>2016-12-11T09:00:14.000Z</time>
      </trkpt>
      <trkpt lat="47.50759" lon="6.72628">
        <ele>398</ele>
        <time>2016-12-11T09:00:15.000Z</time>
      </trkpt>
      <trkpt lat="47.50762" lon="6.72625">
        <ele>398</ele>
        <time>2016-12-11T09:00:17.000Z</time>
      </trkpt>
      <trkpt lat="47.50764" lon="6.72624">
        <ele>398</ele>
        <time>2016-12-11T09:00:18.000Z</time>
      </trkpt>
      <trkpt lat="47.50767" lon="6.7262">
        <ele>398</ele>
        <time>2016-12-11T09:00:20.000Z</time>
      </trkpt>
      <trkpt lat="47.5077" lon="6.72618">
        <ele>398</ele>
        <time>2016-12-11T09:00:21.000Z</time>
      </trkpt>
      <trkpt lat="47.50773" lon="6.72617">
        <ele>398</ele>
        <time>2016-12-11T09:00:22.000Z</time>
      </trkpt>
      <trkpt lat="47.50776" lon="6.72616">
        <ele>399</ele>
        <time>2016-12-11T09:00:23.000Z</time>
      </trkpt>
      <trkpt lat="47.50778" lon="6.72615">
        <ele>399</ele>
        <time>2016-12-11T09:00:24.000Z</time>
      </trkpt>
      <trkpt lat="47.5078" lon="6.72612">
        <ele>399</ele>
        <time>2016-12-11T09:00:25.000Z</time>
      </trkpt>
      <trkpt lat="47.50783" lon="6.72608">
        <ele>399</ele>
        <time>2016-12-11T09:00:26.000Z</time>
      </trkpt>
      <trkpt lat="47.50785" lon="6.72603">
        <ele>399</ele>
        <time>2016-12-11T09:00:27.000Z</time>
      </trkpt>
      <trkpt lat="47.50786" lon="6.72599">
        <ele>398</ele>
        <time>2016-12-11T09:00:29.000Z</time>
      </trkpt>
      <trkpt lat="47.50789" lon="6.72596">
        <ele>399</ele>
        <time>2016-12-11T09:00:30.000Z</time>
      </trkpt>
      <trkpt lat="47.50791" lon="6.72591">
        <ele>399</ele>
        <time>2016-12-11T09:00:34.000Z</time>
      </trkpt>
      <trkpt lat="47.50791" lon="6.7259">
        <ele>399</ele>
        <time>2016-12-11T09:00:35.000Z</time>
      </trkpt>
      <trkpt lat="47.50793" lon="6.72587">
        <ele>399</ele>
        <time>2016-12-11T09:00:36.000Z</time>
      </trkpt>
      <trkpt lat="47.50794" lon="6.72584">
        <ele>399</ele>
        <time>2016-12-11T09:00:37.000Z</time>
      </trkpt>
      <trkpt lat="47.50796" lon="6.72579">
        <ele>393</ele>
        <time>2016-12-11T09:00:40.000Z</time>
      </trkpt>
      <trkpt lat="47.50797" lon="6.72576">
        <ele>393</ele>
        <time>2016-12-11T09:00:41.000Z</time>
      </trkpt>
      <trkpt lat="47.50799" lon="6.72573">
        <ele>393</ele>
        <time>2016-12-11T09:00:42.000Z</time>
      </trkpt>
      <trkpt lat="47.50801" lon="6.72569">
        <ele>393</ele>
        <time>2016-12-11T09:00:43.000Z</time>
      </trkpt>
      <trkpt lat="47.5081" lon="6.72559">
        <ele>393</ele>
        <time>2016-12-11T09:00:44.000Z</time>
      </trkpt>
      <trkpt lat="47.50815" lon="6.72553">
        <ele>393</ele>
        <time>2016-12-11T09:00:45.000Z</time>
      </trkpt>
      <trkpt lat="47.50818" lon="6.72549">
        <ele>393</ele>
        <time>2016-12-11T09:00:46.000Z</time>
      </trkpt>
      <trkpt lat="47.50823" lon="6.72546">
        <ele>393</ele>
        <time>2016-12-11T09:00:47.000Z</time>
      </trkpt>
      <trkpt lat="47.50826" lon="6.72544">
        <ele>392</ele>
        <time>2016-12-11T09:00:48.000Z</time>
      </trkpt>
      <trkpt lat="47.50828" lon="6.72542">
        <ele>392</ele>
        <time>2016-12-11T09:00:49.000Z</time>
      </trkpt>
      <trkpt lat="47.50831" lon="6.72541">
        <ele>392</ele>
        <time>2016-12-11T09:00:50.000Z</time>
      </trkpt>
      <trkpt lat="47.50834" lon="6.7254">
        <ele>401</ele>
        <time>2016-12-11T09:00:51.000Z</time>
      </trkpt>
      <trkpt lat="47.50838" lon="6.72541">
        <ele>401</ele>
        <time>2016-12-11T09:00:56.000Z</time>
      </trkpt>
      <trkpt lat="47.50838" lon="6.72541">
        <ele>401</ele>
        <time>2016-12-11T09:00:57.000Z</time>
      </trkpt>
      <trkpt lat="47.50842" lon="6.7254">
        <ele>401</ele>
        <time>2016-12-11T09:00:58.000Z</time>
      </trkpt>
      <trkpt lat="47.50846" lon="6.72539">
        <ele>402</ele>
        <time>2016-12-11T09:00:59.000Z</time>
      </trkpt>
      <trkpt lat="47.5085" lon="6.72538">
        <ele>402</ele>
        <time>2016-12-11T09:01:02.000Z</time>
      </trkpt>
      <trkpt lat="47.50853" lon="6.72538">
        <ele>402</ele>
        <time>2016-12-11T09:01:03.000Z</time>
      </trkpt>
      <trkpt lat="47.50856" lon="6.72537">
        <ele>402</ele>
        <time>2016-12-11T09:01:04.000Z</time>
      </trkpt>
      <trkpt lat="47.50858" lon="6.72536">
        <ele>402</ele>
        <time>2016-12-11T09:01:05.000Z</time>
      </trkpt>
      <trkpt lat="47.50861" lon="6.72535">
        <ele>403</ele>
        <time>2016-12-11T09:01:06.000Z</time>
      </trkpt>
      <trkpt lat="47.50864" lon="6.72535">
        <ele>403</ele>
        <time>2016-12-11T09:01:07.000Z</time>
      </trkpt>
      <trkpt lat="47.50867" lon="6.72534">
        <ele>403</ele>
        <time>2016-12-11T09:01:08.000Z</time>
      </trkpt>
      <trkpt lat="47.5087" lon="6.72532">
        <ele>403</ele>
        <time>2016-12-11T09:01:09.000Z</time>
      </trkpt>
      <trkpt lat="47.50873" lon="6.72531">
        <ele>403</ele>
        <time>2016-12-11T09:01:10.000Z</time>
      </trkpt>
      <trkpt lat="47.50875" lon="6.7253">
        <ele>404</ele>
        <time>2016-12-11T09:01:11.000Z</time>
      </trkpt>
      <trkpt lat="47.50879" lon="6.7253">
        <ele>404</ele>
        <time>2016-12-11T09:01:13.000Z</time>
      </trkpt>
      <trkpt lat="47.5088" lon="6.72529">
        <ele>404</ele>
        <time>2016-12-11T09:01:14.000Z</time>
      </trkpt>
      <trkpt lat="47.50886" lon="6.72528">
        <ele>405</ele>
        <time>2016-12-11T09:01:15.000Z</time>
      </trkpt>
      <trkpt lat="47.5089" lon="6.72525">
        <ele>405</ele>
        <time>2016-12-11T09:01:16.000Z</time>
      </trkpt>
      <trkpt lat="47.50893" lon="6.72524">
        <ele>405</ele>
        <time>2016-12-11T09:01:17.000Z</time>
      </trkpt>
      <trkpt lat="47.50894" lon="6.72523">
        <ele>405</ele>
        <time>2016-12-11T09:01:18.000Z</time>
      </trkpt>
      <trkpt lat="47.50897" lon="6.72522">
        <ele>405</ele>
        <time>2016-12-11T09:01:19.000Z</time>
      </trkpt>
      <trkpt lat="47.50899" lon="6.72521">
        <ele>405</ele>
        <time>2016-12-11T09:01:20.000Z</time>
      </trkpt>
      <trkpt lat="47.50903" lon="6.72521">
        <ele>405</ele>
        <time>2016-12-11T09:01:24.000Z</time>
      </trkpt>
      <trkpt lat="47.50904" lon="6.72521">
        <ele>405</ele>
        <time>2016-12-11T09:01:25.000Z</time>
      </trkpt>
      <trkpt lat="47.50905" lon="6.7252">
        <ele>406</ele>
        <time>2016-12-11T09:01:26.000Z</time>
      </trkpt>
      <trkpt lat="47.50908" lon="6.72519">
        <ele>406</ele>
        <time>2016-12-11T09:01:27.000Z</time>
      </trkpt>
      <trkpt lat="47.50911" lon="6.72516">
        <ele>406</ele>
        <time>2016-12-11T09:01:30.000Z</time>
      </trkpt>
      <trkpt lat="47.50913" lon="6.72515">
        <ele>406</ele>
        <time>2016-12-11T09:01:31.000Z</time>
      </trkpt>
      <trkpt lat="47.50917" lon="6.72513">
        <ele>411</ele>
        <time>2016-12-11T09:01:33.000Z</time>
      </trkpt>
      <trkpt lat="47.50919" lon="6.72513">
        <ele>410</ele>
        <time>2016-12-11T09:01:34.000Z</time>
      </trkpt>
      <trkpt lat="47.50923" lon="6.72512">
        <ele>411</ele>
        <time>2016-12-11T09:01:37.000Z</time>
      </trkpt>
      <trkpt lat="47.50925" lon="6.72511">
        <ele>411</ele>
        <time>2016-12-11T09:01:38.000Z</time>
      </trkpt>
      <trkpt lat="47.50929" lon="6.72509">
        <ele>411</ele>
        <time>2016-12-11T09:01:40.000Z</time>
      </trkpt>
      <trkpt lat="47.50931" lon="6.72509">
        <ele>411</ele>
        <time>2016-12-11T09:01:41.000Z</time>
      </trkpt>
      <trkpt lat="47.50935" lon="6.72509">
        <ele>412</ele>
        <time>2016-12-11T09:01:44.000Z</time>
      </trkpt>
      <trkpt lat="47.50936" lon="6.7251">
        <ele>412</ele>
        <time>2016-12-11T09:01:45.000Z</time>
      </trkpt>
      <trkpt lat="47.50939" lon="6.72513">
        <ele>413</ele>
        <time>2016-12-11T09:01:50.000Z</time>
      </trkpt>
      <trkpt lat="47.50941" lon="6.72513">
        <ele>413</ele>
        <time>2016-12-11T09:01:51.000Z</time>
      </trkpt>
      <trkpt lat="47.50944" lon="6.72512">
        <ele>414</ele>
        <time>2016-12-11T09:01:53.000Z</time>
      </trkpt>
      <trkpt lat="47.50946" lon="6.72512">
        <ele>414</ele>
        <time>2016-12-11T09:01:54.000Z</time>
      </trkpt>
      <trkpt lat="47.50949" lon="6.72511">
        <ele>414</ele>
        <time>2016-12-11T09:01:56.000Z</time>
      </trkpt>
      <trkpt lat="47.50951" lon="6.72511">
        <ele>415</ele>
        <time>2016-12-11T09:01:57.000Z</time>
      </trkpt>
      <trkpt lat="47.50954" lon="6.72509">
        <ele>415</ele>
        <time>2016-12-11T09:01:59.000Z</time>
      </trkpt>
      <trkpt lat="47.50957" lon="6.72509">
        <ele>415</ele>
        <time>2016-12-11T09:02:00.000Z</time>
      </trkpt>
      <trkpt lat="47.50959" lon="6.72509">
        <ele>415</ele>
        <time>2016-12-11T09:02:01.000Z</time>
      </trkpt>
      <trkpt lat="47.50962" lon="6.7251">
        <ele>415</ele>
        <time>2016-12-11T09:02:02.000Z</time>
      </trkpt>
      <trkpt lat="47.50965" lon="6.72507">
        <ele>416</ele>
        <time>2016-12-11T09:02:05.000Z</time>
      </trkpt>
      <trkpt lat="47.50966" lon="6.72506">
        <ele>416</ele>
        <time>2016-12-11T09:02:06.000Z</time>
      </trkpt>
      <trkpt lat="47.50968" lon="6.72504">
        <ele>416</ele>
        <time>2016-12-11T09:02:09.000Z</time>
      </trkpt>
      <trkpt lat="47.5097" lon="6.72501">
        <ele>416</ele>
        <time>2016-12-11T09:02:10.000Z</time>
      </trkpt>
      <trkpt lat="47.50973" lon="6.72498">
        <ele>410</ele>
        <time>2016-12-11T09:02:12.000Z</time>
      </trkpt>
      <trkpt lat="47.50974" lon="6.72497">
        <ele>410</ele>
        <time>2016-12-11T09:02:13.000Z</time>
      </trkpt>
      <trkpt lat="47.50977" lon="6.72496">
        <ele>411</ele>
        <time>2016-12-11T09:02:14.000Z</time>
      </trkpt>
      <trkpt lat="47.50979" lon="6.72495">
        <ele>411</ele>
        <time>2016-12-11T09:02:15.000Z</time>
      </trkpt>
      <trkpt lat="47.50982" lon="6.72494">
        <ele>412</ele>
        <time>2016-12-11T09:02:16.000Z</time>
      </trkpt>
      <trkpt lat="47.50985" lon="6.72494">
        <ele>412</ele>
        <time>2016-12-11T09:02:17.000Z</time>
      </trkpt>
      <trkpt lat="47.50989" lon="6.72493">
        <ele>413</ele>
        <time>2016-12-11T09:02:19.000Z</time>
      </trkpt>
      <trkpt lat="47.5099" lon="6.72493">
        <ele>413</ele>
        <time>2016-12-11T09:02:20.000Z</time>
      </trkpt>
      <trkpt lat="47.50994" lon="6.72494">
        <ele>414</ele>
        <time>2016-12-11T09:02:25.000Z</time>
      </trkpt>
      <trkpt lat="47.50995" lon="6.72493">
        <ele>414</ele>
        <time>2016-12-11T09:02:26.000Z</time>
      </trkpt>
      <trkpt lat="47.51" lon="6.72493">
        <ele>414</ele>
        <time>2016-12-11T09:02:29.000Z</time>
      </trkpt>
      <trkpt lat="47.51002" lon="6.72493">
        <ele>418</ele>
        <time>2016-12-11T09:02:30.000Z</time>
      </trkpt>
      <trkpt lat="47.51004" lon="6.72492">
        <ele>418</ele>
        <time>2016-12-11T09:02:31.000Z</time>
      </trkpt>
      <trkpt lat="47.51007" lon="6.72491">
        <ele>418</ele>
        <time>2016-12-11T09:02:32.000Z</time>
      </trkpt>
      <trkpt lat="47.51008" lon="6.72491">
        <ele>418</ele>
        <time>2016-12-11T09:02:35.000Z</time>
      </trkpt>
      <trkpt lat="47.51013" lon="6.72493">
        <ele>419</ele>
        <time>2016-12-11T09:02:36.000Z</time>
      </trkpt>
      <trkpt lat="47.51016" lon="6.72494">
        <ele>419</ele>
        <time>2016-12-11T09:02:37.000Z</time>
      </trkpt>
      <trkpt lat="47.51021" lon="6.72494">
        <ele>419</ele>
        <time>2016-12-11T09:02:38.000Z</time>
      </trkpt>
      <trkpt lat="47.51025" lon="6.72494">
        <ele>420</ele>
        <time>2016-12-11T09:02:40.000Z</time>
      </trkpt>
      <trkpt lat="47.51025" lon="6.72495">
        <ele>420</ele>
        <time>2016-12-11T09:02:41.000Z</time>
      </trkpt>
      <trkpt lat="47.51029" lon="6.72497">
        <ele>420</ele>
        <time>2016-12-11T09:02:44.000Z</time>
      </trkpt>
      <trkpt lat="47.51031" lon="6.72499">
        <ele>421</ele>
        <time>2016-12-11T09:02:45.000Z</time>
      </trkpt>
      <trkpt lat="47.51035" lon="6.72501">
        <ele>424</ele>
        <time>2016-12-11T09:02:48.000Z</time>
      </trkpt>
      <trkpt lat="47.51036" lon="6.72503">
        <ele>424</ele>
        <time>2016-12-11T09:02:49.000Z</time>
      </trkpt>
      <trkpt lat="47.5104" lon="6.72503">
        <ele>425</ele>
        <time>2016-12-11T09:02:51.000Z</time>
      </trkpt>
      <trkpt lat="47.51041" lon="6.72504">
        <ele>425</ele>
        <time>2016-12-11T09:02:52.000Z</time>
      </trkpt>
      <trkpt lat="47.51044" lon="6.72505">
        <ele>425</ele>
        <time>2016-12-11T09:02:54.000Z</time>
      </trkpt>
      <trkpt lat="47.51046" lon="6.72505">
        <ele>425</ele>
        <time>2016-12-11T09:02:55.000Z</time>
      </trkpt>
      <trkpt lat="47.5105" lon="6.72504">
        <ele>426</ele>
        <time>2016-12-11T09:02:57.000Z</time>
      </trkpt>
      <trkpt lat="47.51052" lon="6.72505">
        <ele>426</ele>
        <time>2016-12-11T09:02:58.000Z</time>
      </trkpt>
      <trkpt lat="47.51056" lon="6.72507">
        <ele>427</ele>
        <time>2016-12-11T09:03:01.000Z</time>
      </trkpt>
      <trkpt lat="47.51057" lon="6.72508">
        <ele>427</ele>
        <time>2016-12-11T09:03:02.000Z</time>
      </trkpt>
      <trkpt lat="47.51061" lon="6.72509">
        <ele>427</ele>
        <time>2016-12-11T09:03:04.000Z</time>
      </trkpt>
      <trkpt lat="47.51062" lon="6.72509">
        <ele>427</ele>
        <time>2016-12-11T09:03:05.000Z</time>
      </trkpt>
      <trkpt lat="47.51066" lon="6.72511">
        <ele>428</ele>
        <time>2016-12-11T09:03:07.000Z</time>
      </trkpt>
      <trkpt lat="47.51067" lon="6.72512">
        <ele>428</ele>
        <time>2016-12-11T09:03:08.000Z</time>
      </trkpt>
      <trkpt lat="47.51069" lon="6.72515">
        <ele>428</ele>
        <time>2016-12-11T09:03:10.000Z</time>
      </trkpt>
      <trkpt lat="47.5107" lon="6.72518">
        <ele>428</ele>
        <time>2016-12-11T09:03:11.000Z</time>
      </trkpt>
      <trkpt lat="47.51073" lon="6.7252">
        <ele>428</ele>
        <time>2016-12-11T09:03:13.000Z</time>
      </trkpt>
      <trkpt lat="47.51074" lon="6.72522">
        <ele>428</ele>
        <time>2016-12-11T09:03:14.000Z</time>
      </trkpt>
      <trkpt lat="47.51078" lon="6.72524">
        <ele>428</ele>
        <time>2016-12-11T09:03:19.000Z</time>
      </trkpt>
      <trkpt lat="47.5108" lon="6.72525">
        <ele>428</ele>
        <time>2016-12-11T09:03:20.000Z</time>
      </trkpt>
      <trkpt lat="47.51082" lon="6.72526">
        <ele>428</ele>
        <time>2016-12-11T09:03:21.000Z</time>
      </trkpt>
      <trkpt lat="47.51086" lon="6.72527">
        <ele>431</ele>
        <time>2016-12-11T09:03:22.000Z</time>
      </trkpt>
      <trkpt lat="47.51089" lon="6.72528">
        <ele>431</ele>
        <time>2016-12-11T09:03:23.000Z</time>
      </trkpt>
      <trkpt lat="47.51092" lon="6.72529">
        <ele>431</ele>
        <time>2016-12-11T09:03:24.000Z</time>
      </trkpt>
      <trkpt lat="47.51096" lon="6.72531">
        <ele>431</ele>
        <time>2016-12-11T09:03:26.000Z</time>
      </trkpt>
      <trkpt lat="47.51097" lon="6.72532">
        <ele>431</ele>
        <time>2016-12-11T09:03:27.000Z</time>
      </trkpt>
      <trkpt lat="47.51101" lon="6.72532">
        <ele>431</ele>
        <time>2016-12-11T09:03:29.000Z</time>
      </trkpt>
      <trkpt lat="47.51104" lon="6.72532">
        <ele>431</ele>
        <time>2016-12-11T09:03:30.000Z</time>
      </trkpt>
      <trkpt lat="47.51108" lon="6.72533">
        <ele>431</ele>
        <time>2016-12-11T09:03:33.000Z</time>
      </trkpt>
      <trkpt lat="47.5111" lon="6.72533">
        <ele>431</ele>
        <time>2016-12-11T09:03:34.000Z</time>
      </trkpt>
      <trkpt lat="47.51113" lon="6.72531">
        <ele>431</ele>
        <time>2016-12-11T09:03:36.000Z</time>
      </trkpt>
      <trkpt lat="47.51115" lon="6.72531">
        <ele>431</ele>
        <time>2016-12-11T09:03:37.000Z</time>
      </trkpt>
      <trkpt lat="47.51119" lon="6.72532">
        <ele>431</ele>
        <time>2016-12-11T09:03:39.000Z</time>
      </trkpt>
      <trkpt lat="47.51122" lon="6.72533">
        <ele>431</ele>
        <time>2016-12-11T09:03:40.000Z</time>
      </trkpt>
      <trkpt lat="47.51125" lon="6.72533">
        <ele>431</ele>
        <time>2016-12-11T09:03:42.000Z</time>
      </trkpt>
      <trkpt lat="47.51126" lon="6.72533">
        <ele>431</ele>
        <time>2016-12-11T09:03:43.000Z</time>
      </trkpt>
      <trkpt lat="47.51129" lon="6.72534">
        <ele>431</ele>
        <time>2016-12-11T09:03:44.000Z</time>
      </trkpt>
      <trkpt lat="47.51131" lon="6.72535">
        <ele>431</ele>
        <time>2016-12-11T09:03:45.000Z</time>
      </trkpt>
      <trkpt lat="47.51133" lon="6.72536">
        <ele>431</ele>
        <time>2016-12-11T09:03:46.000Z</time>
      </trkpt>
      <trkpt lat="47.51136" lon="6.72537">
        <ele>431</ele>
        <time>2016-12-11T09:03:47.000Z</time>
      </trkpt>
      <trkpt lat="47.51139" lon="6.7254">
        <ele>431</ele>
        <time>2016-12-11T09:03:49.000Z</time>
      </trkpt>
      <trkpt lat="47.51139" lon="6.72542">
        <ele>431</ele>
        <time>2016-12-11T09:03:50.000Z</time>
      </trkpt>
      <trkpt lat="47.51142" lon="6.72543">
        <ele>431</ele>
        <time>2016-12-11T09:03:52.000Z</time>
      </trkpt>
      <trkpt lat="47.51144" lon="6.72543">
        <ele>431</ele>
        <time>2016-12-11T09:03:53.000Z</time>
      </trkpt>
      <trkpt lat="47.51148" lon="6.72542">
        <ele>431</ele>
        <time>2016-12-11T09:03:56.000Z</time>
      </trkpt>
      <trkpt lat="47.51151" lon="6.72545">
        <ele>431</ele>
        <time>2016-12-11T09:03:57.000Z</time>
      </trkpt>
      <trkpt lat="47.51153" lon="6.72547">
        <ele>430</ele>
        <time>2016-12-11T09:03:58.000Z</time>
      </trkpt>
      <trkpt lat="47.51156" lon="6.72547">
        <ele>430</ele>
        <time>2016-12-11T09:03:59.000Z</time>
      </trkpt>
      <trkpt lat="47.5116" lon="6.72547">
        <ele>430</ele>
        <time>2016-12-11T09:04:03.000Z</time>
      </trkpt>
      <trkpt lat="47.51161" lon="6.72548">
        <ele>430</ele>
        <time>2016-12-11T09:04:04.000Z</time>
      </trkpt>
      <trkpt lat="47.51164" lon="6.72552">
        <ele>430</ele>
        <time>2016-12-11T09:04:11.000Z</time>
      </trkpt>
      <trkpt lat="47.51164" lon="6.72553">
        <ele>430</ele>
        <time>2016-12-11T09:04:12.000Z</time>
      </trkpt>
      <trkpt lat="47.51164" lon="6.72546">
        <ele>430</ele>
        <time>2016-12-11T09:04:35.000Z</time>
      </trkpt>
      <trkpt lat="47.51163" lon="6.72546">
        <ele>430</ele>
        <time>2016-12-11T09:04:36.000Z</time>
      </trkpt>
      <trkpt lat="47.51162" lon="6.72552">
        <ele>430</ele>
        <time>2016-12-11T09:04:43.000Z</time>
      </trkpt>
      <trkpt lat="47.51162" lon="6.72554">
        <ele>430</ele>
        <time>2016-12-11T09:04:44.000Z</time>
      </trkpt>
      <trkpt lat="47.5116" lon="6.7256">
        <ele>430</ele>
        <time>2016-12-11T09:04:50.000Z</time>
      </trkpt>
      <trkpt lat="47.5116" lon="6.7256">
        <ele>430</ele>
        <time>2016-12-11T09:04:51.000Z</time>
      </trkpt>
      <trkpt lat="47.51164" lon="6.72563">
        <ele>430</ele>
        <time>2016-12-11T09:10:37.000Z</time>
      </trkpt>
      <trkpt lat="47.51165" lon="6.72562">
        <ele>430</ele>
        <time>2016-12-11T09:10:38.000Z</time>
      </trkpt>
      <trkpt lat="47.51169" lon="6.72562">
        <ele>430</ele>
        <time>2016-12-11T09:10:41.000Z</time>
      </trkpt>
      <trkpt lat="47.5117" lon="6.72563">
        <ele>430</ele>
        <time>2016-12-11T09:10:42.000Z</time>
      </trkpt>
      <trkpt lat="47.51174" lon="6.72564">
        <ele>429</ele>
        <time>2016-12-11T09:10:44.000Z</time>
      </trkpt>
      <trkpt lat="47.51176" lon="6.72564">
        <ele>429</ele>
        <time>2016-12-11T09:10:45.000Z</time>
      </trkpt>
      <trkpt lat="47.51179" lon="6.72564">
        <ele>430</ele>
        <time>2016-12-11T09:10:46.000Z</time>
      </trkpt>
      <trkpt lat="47.51182" lon="6.72564">
        <ele>430</ele>
        <time>2016-12-11T09:10:47.000Z</time>
      </trkpt>
      <trkpt lat="47.51185" lon="6.72564">
        <ele>430</ele>
        <time>2016-12-11T09:10:49.000Z</time>
      </trkpt>
      <trkpt lat="47.51187" lon="6.72563">
        <ele>430</ele>
        <time>2016-12-11T09:10:50.000Z</time>
      </trkpt>
      <trkpt lat="47.5119" lon="6.72563">
        <ele>430</ele>
        <time>2016-12-11T09:10:52.000Z</time>
      </trkpt>
      <trkpt lat="47.51193" lon="6.72563">
        <ele>430</ele>
        <time>2016-12-11T09:10:53.000Z</time>
      </trkpt>
      <trkpt lat="47.51196" lon="6.72564">
        <ele>430</ele>
        <time>2016-12-11T09:10:54.000Z</time>
      </trkpt>
      <trkpt lat="47.51198" lon="6.72565">
        <ele>430</ele>
        <time>2016-12-11T09:10:55.000Z</time>
      </trkpt>
      <trkpt lat="47.51201" lon="6.72566">
        <ele>430</ele>
        <time>2016-12-11T09:10:56.000Z</time>
      </trkpt>
      <trkpt lat="47.51203" lon="6.72567">
        <ele>430</ele>
        <time>2016-12-11T09:10:57.000Z</time>
      </trkpt>
      <trkpt lat="47.51207" lon="6.72567">
        <ele>430</ele>
        <time>2016-12-11T09:11:00.000Z</time>
      </trkpt>
      <trkpt lat="47.51209" lon="6.72567">
        <ele>430</ele>
        <time>2016-12-11T09:11:01.000Z</time>
      </trkpt>
      <trkpt lat="47.51212" lon="6.72568">
        <ele>429</ele>
        <time>2016-12-11T09:11:02.000Z</time>
      </trkpt>
      <trkpt lat="47.51215" lon="6.7257">
        <ele>429</ele>
        <time>2016-12-11T09:11:03.000Z</time>
      </trkpt>
      <trkpt lat="47.51219" lon="6.72572">
        <ele>429</ele>
        <time>2016-12-11T09:11:04.000Z</time>
      </trkpt>
      <trkpt lat="47.51221" lon="6.72573">
        <ele>429</ele>
        <time>2016-12-11T09:11:05.000Z</time>
      </trkpt>
      <trkpt lat="47.51224" lon="6.72575">
        <ele>429</ele>
        <time>2016-12-11T09:11:07.000Z</time>
      </trkpt>
      <trkpt lat="47.51226" lon="6.72576">
        <ele>429</ele>
        <time>2016-12-11T09:11:08.000Z</time>
      </trkpt>
      <trkpt lat="47.5123" lon="6.72578">
        <ele>428</ele>
        <time>2016-12-11T09:11:10.000Z</time>
      </trkpt>
      <trkpt lat="47.51231" lon="6.72578">
        <ele>428</ele>
        <time>2016-12-11T09:11:11.000Z</time>
      </trkpt>
      <trkpt lat="47.51235" lon="6.7258">
        <ele>428</ele>
        <time>2016-12-11T09:11:13.000Z</time>
      </trkpt>
      <trkpt lat="47.51237" lon="6.72581">
        <ele>428</ele>
        <time>2016-12-11T09:11:14.000Z</time>
      </trkpt>
      <trkpt lat="47.51241" lon="6.72582">
        <ele>427</ele>
        <time>2016-12-11T09:11:16.000Z</time>
      </trkpt>
      <trkpt lat="47.51243" lon="6.72581">
        <ele>427</ele>
        <time>2016-12-11T09:11:17.000Z</time>
      </trkpt>
      <trkpt lat="47.51247" lon="6.72582">
        <ele>427</ele>
        <time>2016-12-11T09:11:19.000Z</time>
      </trkpt>
      <trkpt lat="47.51249" lon="6.72583">
        <ele>426</ele>
        <time>2016-12-11T09:11:20.000Z</time>
      </trkpt>
      <trkpt lat="47.51252" lon="6.72584">
        <ele>426</ele>
        <time>2016-12-11T09:11:21.000Z</time>
      </trkpt>
      <trkpt lat="47.51255" lon="6.72586">
        <ele>425</ele>
        <time>2016-12-11T09:11:22.000Z</time>
      </trkpt>
      <trkpt lat="47.51259" lon="6.72587">
        <ele>425</ele>
        <time>2016-12-11T09:11:23.000Z</time>
      </trkpt>
      <trkpt lat="47.51267" lon="6.72589">
        <ele>424</ele>
        <time>2016-12-11T09:11:24.000Z</time>
      </trkpt>
      <trkpt lat="47.51273" lon="6.72591">
        <ele>424</ele>
        <time>2016-12-11T09:11:25.000Z</time>
      </trkpt>
      <trkpt lat="47.51277" lon="6.72592">
        <ele>424</ele>
        <time>2016-12-11T09:11:26.000Z</time>
      </trkpt>
      <trkpt lat="47.51281" lon="6.72594">
        <ele>424</ele>
        <time>2016-12-11T09:11:27.000Z</time>
      </trkpt>
      <trkpt lat="47.51285" lon="6.72596">
        <ele>424</ele>
        <time>2016-12-11T09:11:28.000Z</time>
      </trkpt>
      <trkpt lat="47.51289" lon="6.72598">
        <ele>424</ele>
        <time>2016-12-11T09:11:29.000Z</time>
      </trkpt>
      <trkpt lat="47.51293" lon="6.72599">
        <ele>424</ele>
        <time>2016-12-11T09:11:30.000Z</time>
      </trkpt>
      <trkpt lat="47.51297" lon="6.726">
        <ele>424</ele>
        <time>2016-12-11T09:11:31.000Z</time>
      </trkpt>
      <trkpt lat="47.51299" lon="6.72603">
        <ele>423</ele>
        <time>2016-12-11T09:11:32.000Z</time>
      </trkpt>
      <trkpt lat="47.51302" lon="6.72603">
        <ele>423</ele>
        <time>2016-12-11T09:11:33.000Z</time>
      </trkpt>
      <trkpt lat="47.51305" lon="6.72604">
        <ele>423</ele>
        <time>2016-12-11T09:11:34.000Z</time>
      </trkpt>
      <trkpt lat="47.51306" lon="6.72605">
        <ele>423</ele>
        <time>2016-12-11T09:11:35.000Z</time>
      </trkpt>
      <trkpt lat="47.5131" lon="6.72606">
        <ele>423</ele>
        <time>2016-12-11T09:11:36.000Z</time>
      </trkpt>
      <trkpt lat="47.51314" lon="6.72607">
        <ele>423</ele>
        <time>2016-12-11T09:11:37.000Z</time>
      </trkpt>
      <trkpt lat="47.51318" lon="6.72609">
        <ele>423</ele>
        <time>2016-12-11T09:11:38.000Z</time>
      </trkpt>
      <trkpt lat="47.51322" lon="6.7261">
        <ele>423</ele>
        <time>2016-12-11T09:11:39.000Z</time>
      </trkpt>
      <trkpt lat="47.51326" lon="6.72612">
        <ele>423</ele>
        <time>2016-12-11T09:11:40.000Z</time>
      </trkpt>
      <trkpt lat="47.51329" lon="6.72613">
        <ele>423</ele>
        <time>2016-12-11T09:11:41.000Z</time>
      </trkpt>
      <trkpt lat="47.51332" lon="6.72615">
        <ele>423</ele>
        <time>2016-12-11T09:11:42.000Z</time>
      </trkpt>
      <trkpt lat="47.51336" lon="6.72618">
        <ele>426</ele>
        <time>2016-12-11T09:11:43.000Z</time>
      </trkpt>
      <trkpt lat="47.51339" lon="6.72621">
        <ele>426</ele>
        <time>2016-12-11T09:11:44.000Z</time>
      </trkpt>
      <trkpt lat="47.51343" lon="6.72623">
        <ele>426</ele>
        <time>2016-12-11T09:11:44.999Z</time>
      </trkpt>
      <trkpt lat="47.51346" lon="6.72624">
        <ele>426</ele>
        <time>2016-12-11T09:11:45.999Z</time>
      </trkpt>
      <trkpt lat="47.51347" lon="6.72624">
        <ele>426</ele>
        <time>2016-12-11T09:11:46.999Z</time>
      </trkpt>
      <trkpt lat="47.51351" lon="6.72621">
        <ele>426</ele>
        <time>2016-12-11T09:11:49.999Z</time>
      </trkpt>
      <trkpt lat="47.51353" lon="6.7262">
        <ele>426</ele>
        <time>2016-12-11T09:11:50.999Z</time>
      </trkpt>
      <trkpt lat="47.51358" lon="6.72619">
        <ele>426</ele>
        <time>2016-12-11T09:11:52.999Z</time>
      </trkpt>
      <trkpt lat="47.5136" lon="6.72618">
        <ele>426</ele>
        <time>2016-12-11T09:11:53.999Z</time>
      </trkpt>
      <trkpt lat="47.51364" lon="6.72617">
        <ele>426</ele>
        <time>2016-12-11T09:11:56.999Z</time>
      </trkpt>
      <trkpt lat="47.51366" lon="6.72617">
        <ele>426</ele>
        <time>2016-12-11T09:11:57.999Z</time>
      </trkpt>
      <trkpt lat="47.51369" lon="6.72616">
        <ele>426</ele>
        <time>2016-12-11T09:11:59.999Z</time>
      </trkpt>
      <trkpt lat="47.5137" lon="6.72616">
        <ele>427</ele>
        <time>2016-12-11T09:12:00.999Z</time>
      </trkpt>
      <trkpt lat="47.51374" lon="6.72614">
        <ele>427</ele>
        <time>2016-12-11T09:12:03.999Z</time>
      </trkpt>
      <trkpt lat="47.51375" lon="6.72613">
        <ele>427</ele>
        <time>2016-12-11T09:12:04.999Z</time>
      </trkpt>
      <trkpt lat="47.51378" lon="6.72607">
        <ele>427</ele>
        <time>2016-12-11T09:12:06.999Z</time>
      </trkpt>
      <trkpt lat="47.51378" lon="6.72603">
        <ele>427</ele>
        <time>2016-12-11T09:12:07.999Z</time>
      </trkpt>
      <trkpt lat="47.51378" lon="6.726">
        <ele>427</ele>
        <time>2016-12-11T09:12:08.999Z</time>
      </trkpt>
      <trkpt lat="47.51378" lon="6.72596">
        <ele>427</ele>
        <time>2016-12-11T09:12:09.999Z</time>
      </trkpt>
      <trkpt lat="47.51377" lon="6.72593">
        <ele>427</ele>
        <time>2016-12-11T09:12:10.999Z</time>
      </trkpt>
      <trkpt lat="47.51377" lon="6.7259">
        <ele>427</ele>
        <time>2016-12-11T09:12:11.999Z</time>
      </trkpt>
      <trkpt lat="47.51377" lon="6.72586">
        <ele>427</ele>
        <time>2016-12-11T09:12:12.999Z</time>
      </trkpt>
      <trkpt lat="47.51377" lon="6.72582">
        <ele>427</ele>
        <time>2016-12-11T09:12:13.999Z</time>
      </trkpt>
      <trkpt lat="47.51377" lon="6.72577">
        <ele>427</ele>
        <time>2016-12-11T09:12:14.999Z</time>
      </trkpt>
      <trkpt lat="47.51378" lon="6.72572">
        <ele>427</ele>
        <time>2016-12-11T09:12:15.999Z</time>
      </trkpt>
      <trkpt lat="47.5138" lon="6.72569">
        <ele>427</ele>
        <time>2016-12-11T09:12:16.999Z</time>
      </trkpt>
      <trkpt lat="47.5138" lon="6.72564">
        <ele>427</ele>
        <time>2016-12-11T09:12:17.999Z</time>
      </trkpt>
      <trkpt lat="47.5138" lon="6.7256">
        <ele>427</ele>
        <time>2016-12-11T09:12:18.999Z</time>
      </trkpt>
      <trkpt lat="47.51379" lon="6.72555">
        <ele>427</ele>
        <time>2016-12-11T09:12:19.999Z</time>
      </trkpt>
      <trkpt lat="47.51379" lon="6.7255">
        <ele>427</ele>
        <time>2016-12-11T09:12:20.999Z</time>
      </trkpt>
      <trkpt lat="47.51379" lon="6.72545">
        <ele>427</ele>
        <time>2016-12-11T09:12:21.999Z</time>
      </trkpt>
      <trkpt lat="47.51379" lon="6.72541">
        <ele>427</ele>
        <time>2016-12-11T09:12:22.999Z</time>
      </trkpt>
      <trkpt lat="47.51379" lon="6.72536">
        <ele>427</ele>
        <time>2016-12-11T09:12:23.999Z</time>
      </trkpt>
      <trkpt lat="47.51379" lon="6.72532">
        <ele>427</ele>
        <time>2016-12-11T09:12:24.999Z</time>
      </trkpt>
      <trkpt lat="47.51378" lon="6.72527">
        <ele>427</ele>
        <time>2016-12-11T09:12:25.999Z</time>
      </trkpt>
      <trkpt lat="47.51377" lon="6.72522">
        <ele>427</ele>
        <time>2016-12-11T09:12:26.999Z</time>
      </trkpt>
      <trkpt lat="47.51377" lon="6.72517">
        <ele>427</ele>
        <time>2016-12-11T09:12:27.999Z</time>
      </trkpt>
      <trkpt lat="47.51376" lon="6.72512">
        <ele>427</ele>
        <time>2016-12-11T09:12:28.999Z</time>
      </trkpt>
      <trkpt lat="47.51376" lon="6.72508">
        <ele>427</ele>
        <time>2016-12-11T09:12:29.999Z</time>
      </trkpt>
      <trkpt lat="47.51375" lon="6.72503">
        <ele>426</ele>
        <time>2016-12-11T09:12:30.999Z</time>
      </trkpt>
      <trkpt lat="47.51374" lon="6.72499">
        <ele>427</ele>
        <time>2016-12-11T09:12:31.999Z</time>
      </trkpt>
      <trkpt lat="47.51373" lon="6.72494">
        <ele>427</ele>
        <time>2016-12-11T09:12:32.999Z</time>
      </trkpt>
      <trkpt lat="47.51372" lon="6.72489">
        <ele>427</ele>
        <time>2016-12-11T09:12:33.999Z</time>
      </trkpt>
      <trkpt lat="47.51371" lon="6.72486">
        <ele>427</ele>
        <time>2016-12-11T09:12:34.999Z</time>
      </trkpt>
      <trkpt lat="47.51371" lon="6.72482">
        <ele>427</ele>
        <time>2016-12-11T09:12:35.999Z</time>
      </trkpt>
      <trkpt lat="47.5137" lon="6.72479">
        <ele>427</ele>
        <time>2016-12-11T09:12:36.999Z</time>
      </trkpt>
      <trkpt lat="47.51368" lon="6.72476">
        <ele>427</ele>
        <time>2016-12-11T09:12:37.999Z</time>
      </trkpt>
      <trkpt lat="47.51366" lon="6.7247">
        <ele>427</ele>
        <time>2016-12-11T09:12:39.999Z</time>
      </trkpt>
      <trkpt lat="47.51365" lon="6.72466">
        <ele>427</ele>
        <time>2016-12-11T09:12:40.999Z</time>
      </trkpt>
      <trkpt lat="47.51364" lon="6.72464">
        <ele>427</ele>
        <time>2016-12-11T09:12:41.999Z</time>
      </trkpt>
      <trkpt lat="47.51363" lon="6.72458">
        <ele>427</ele>
        <time>2016-12-11T09:12:42.999Z</time>
      </trkpt>
      <trkpt lat="47.51363" lon="6.72455">
        <ele>428</ele>
        <time>2016-12-11T09:12:43.999Z</time>
      </trkpt>
      <trkpt lat="47.51362" lon="6.72451">
        <ele>428</ele>
        <time>2016-12-11T09:12:44.999Z</time>
      </trkpt>
      <trkpt lat="47.51362" lon="6.72444">
        <ele>428</ele>
        <time>2016-12-11T09:12:49.999Z</time>
      </trkpt>
      <trkpt lat="47.51363" lon="6.72442">
        <ele>428</ele>
        <time>2016-12-11T09:12:50.999Z</time>
      </trkpt>
      <trkpt lat="47.51365" lon="6.7244">
        <ele>428</ele>
        <time>2016-12-11T09:12:52.999Z</time>
      </trkpt>
      <trkpt lat="47.51368" lon="6.72437">
        <ele>428</ele>
        <time>2016-12-11T09:12:53.999Z</time>
      </trkpt>
      <trkpt lat="47.51372" lon="6.72436">
        <ele>427</ele>
        <time>2016-12-11T09:12:54.999Z</time>
      </trkpt>
      <trkpt lat="47.51375" lon="6.72434">
        <ele>427</ele>
        <time>2016-12-11T09:12:55.999Z</time>
      </trkpt>
      <trkpt lat="47.51378" lon="6.72432">
        <ele>427</ele>
        <time>2016-12-11T09:12:56.999Z</time>
      </trkpt>
      <trkpt lat="47.51381" lon="6.72433">
        <ele>427</ele>
        <time>2016-12-11T09:12:57.999Z</time>
      </trkpt>
      <trkpt lat="47.51385" lon="6.72434">
        <ele>426</ele>
        <time>2016-12-11T09:12:59.999Z</time>
      </trkpt>
      <trkpt lat="47.51388" lon="6.72434">
        <ele>426</ele>
        <time>2016-12-11T09:13:00.999Z</time>
      </trkpt>
      <trkpt lat="47.51392" lon="6.72433">
        <ele>426</ele>
        <time>2016-12-11T09:13:01.999Z</time>
      </trkpt>
      <trkpt lat="47.51396" lon="6.72431">
        <ele>425</ele>
        <time>2016-12-11T09:13:02.999Z</time>
      </trkpt>
      <trkpt lat="47.514" lon="6.72429">
        <ele>425</ele>
        <time>2016-12-11T09:13:03.999Z</time>
      </trkpt>
      <trkpt lat="47.51403" lon="6.72429">
        <ele>424</ele>
        <time>2016-12-11T09:13:04.999Z</time>
      </trkpt>
      <trkpt lat="47.51407" lon="6.72428">
        <ele>424</ele>
        <time>2016-12-11T09:13:05.999Z</time>
      </trkpt>
      <trkpt lat="47.51412" lon="6.72427">
        <ele>423</ele>
        <time>2016-12-11T09:13:06.999Z</time>
      </trkpt>
      <trkpt lat="47.51416" lon="6.72425">
        <ele>423</ele>
        <time>2016-12-11T09:13:07.999Z</time>
      </trkpt>
      <trkpt lat="47.5142" lon="6.72423">
        <ele>421</ele>
        <time>2016-12-11T09:13:08.999Z</time>
      </trkpt>
      <trkpt lat="47.51426" lon="6.72422">
        <ele>421</ele>
        <time>2016-12-11T09:13:09.999Z</time>
      </trkpt>
      <trkpt lat="47.51432" lon="6.7242">
        <ele>421</ele>
        <time>2016-12-11T09:13:10.999Z</time>
      </trkpt>
      <trkpt lat="47.51437" lon="6.72416">
        <ele>417</ele>
        <time>2016-12-11T09:13:11.999Z</time>
      </trkpt>
      <trkpt lat="47.51442" lon="6.72414">
        <ele>417</ele>
        <time>2016-12-11T09:13:12.999Z</time>
      </trkpt>
      <trkpt lat="47.51449" lon="6.72412">
        <ele>416</ele>
        <time>2016-12-11T09:13:13.999Z</time>
      </trkpt>
      <trkpt lat="47.51456" lon="6.7241">
        <ele>416</ele>
        <time>2016-12-11T09:13:14.999Z</time>
      </trkpt>
      <trkpt lat="47.51463" lon="6.72409">
        <ele>415</ele>
        <time>2016-12-11T09:13:15.999Z</time>
      </trkpt>
      <trkpt lat="47.51472" lon="6.72407">
        <ele>415</ele>
        <time>2016-12-11T09:13:16.999Z</time>
      </trkpt>
      <trkpt lat="47.51479" lon="6.72402">
        <ele>415</ele>
        <time>2016-12-11T09:13:17.999Z</time>
      </trkpt>
      <trkpt lat="47.51485" lon="6.724">
        <ele>414</ele>
        <time>2016-12-11T09:13:18.999Z</time>
      </trkpt>
      <trkpt lat="47.5149" lon="6.72402">
        <ele>415</ele>
        <time>2016-12-11T09:13:19.999Z</time>
      </trkpt>
      <trkpt lat="47.51498" lon="6.72405">
        <ele>415</ele>
        <time>2016-12-11T09:13:20.999Z</time>
      </trkpt>
      <trkpt lat="47.51508" lon="6.72402">
        <ele>410</ele>
        <time>2016-12-11T09:13:21.999Z</time>
      </trkpt>
      <trkpt lat="47.51517" lon="6.72399">
        <ele>408</ele>
        <time>2016-12-11T09:13:22.999Z</time>
      </trkpt>
      <trkpt lat="47.51529" lon="6.72397">
        <ele>407</ele>
        <time>2016-12-11T09:13:23.999Z</time>
      </trkpt>
      <trkpt lat="47.5154" lon="6.72395">
        <ele>405</ele>
        <time>2016-12-11T09:13:24.999Z</time>
      </trkpt>
      <trkpt lat="47.51549" lon="6.72394">
        <ele>404</ele>
        <time>2016-12-11T09:13:25.999Z</time>
      </trkpt>
      <trkpt lat="47.5156" lon="6.72392">
        <ele>403</ele>
        <time>2016-12-11T09:13:26.999Z</time>
      </trkpt>
      <trkpt lat="47.5157" lon="6.72389">
        <ele>403</ele>
        <time>2016-12-11T09:13:27.999Z</time>
      </trkpt>
      <trkpt lat="47.51576" lon="6.72386">
        <ele>402</ele>
        <time>2016-12-11T09:13:28.999Z</time>
      </trkpt>
      <trkpt lat="47.51585" lon="6.72383">
        <ele>398</ele>
        <time>2016-12-11T09:13:29.999Z</time>
      </trkpt>
      <trkpt lat="47.51595" lon="6.72379">
        <ele>397</ele>
        <time>2016-12-11T09:13:30.999Z</time>
      </trkpt>
      <trkpt lat="47.51603" lon="6.72375">
        <ele>397</ele>
        <time>2016-12-11T09:13:31.999Z</time>
      </trkpt>
      <trkpt lat="47.51611" lon="6.72371">
        <ele>397</ele>
        <time>2016-12-11T09:13:32.999Z</time>
      </trkpt>
      <trkpt lat="47.51619" lon="6.72367">
        <ele>397</ele>
        <time>2016-12-11T09:13:33.999Z</time>
      </trkpt>
      <trkpt lat="47.51628" lon="6.72364">
        <ele>397</ele>
        <time>2016-12-11T09:13:34.999Z</time>
      </trkpt>
      <trkpt lat="47.51637" lon="6.72363">
        <ele>397</ele>
        <time>2016-12-11T09:13:35.999Z</time>
      </trkpt>
      <trkpt lat="47.51645" lon="6.7236">
        <ele>396</ele>
        <time>2016-12-11T09:13:36.999Z</time>
      </trkpt>
      <trkpt lat="47.5165" lon="6.72356">
        <ele>396</ele>
        <time>2016-12-11T09:13:37.999Z</time>
      </trkpt>
      <trkpt lat="47.51654" lon="6.72354">
        <ele>396</ele>
        <time>2016-12-11T09:13:38.999Z</time>
      </trkpt>
      <trkpt lat="47.51658" lon="6.72352">
        <ele>396</ele>
        <time>2016-12-11T09:13:39.999Z</time>
      </trkpt>
      <trkpt lat="47.5166" lon="6.72348">
        <ele>396</ele>
        <time>2016-12-11T09:13:40.999Z</time>
      </trkpt>
      <trkpt lat="47.51662" lon="6.72342">
        <ele>396</ele>
        <time>2016-12-11T09:13:41.999Z</time>
      </trkpt>
      <trkpt lat="47.51664" lon="6.72337">
        <ele>396</ele>
        <time>2016-12-11T09:13:42.999Z</time>
      </trkpt>
      <trkpt lat="47.51667" lon="6.72331">
        <ele>396</ele>
        <time>2016-12-11T09:13:43.999Z</time>
      </trkpt>
      <trkpt lat="47.5167" lon="6.72326">
        <ele>395</ele>
        <time>2016-12-11T09:13:44.999Z</time>
      </trkpt>
      <trkpt lat="47.51672" lon="6.72321">
        <ele>395</ele>
        <time>2016-12-11T09:13:45.999Z</time>
      </trkpt>
      <trkpt lat="47.51675" lon="6.72316">
        <ele>395</ele>
        <time>2016-12-11T09:13:46.999Z</time>
      </trkpt>
      <trkpt lat="47.51678" lon="6.72309">
        <ele>395</ele>
        <time>2016-12-11T09:13:47.999Z</time>
      </trkpt>
      <trkpt lat="47.51684" lon="6.72304">
        <ele>394</ele>
        <time>2016-12-11T09:13:48.999Z</time>
      </trkpt>
      <trkpt lat="47.51692" lon="6.72298">
        <ele>394</ele>
        <time>2016-12-11T09:13:49.999Z</time>
      </trkpt>
      <trkpt lat="47.51699" lon="6.72292">
        <ele>394</ele>
        <time>2016-12-11T09:13:50.999Z</time>
      </trkpt>
      <trkpt lat="47.51705" lon="6.72288">
        <ele>394</ele>
        <time>2016-12-11T09:13:51.999Z</time>
      </trkpt>
      <trkpt lat="47.51711" lon="6.72283">
        <ele>394</ele>
        <time>2016-12-11T09:13:52.999Z</time>
      </trkpt>
      <trkpt lat="47.51717" lon="6.72277">
        <ele>394</ele>
        <time>2016-12-11T09:13:53.999Z</time>
      </trkpt>
      <trkpt lat="47.51727" lon="6.72272">
        <ele>393</ele>
        <time>2016-12-11T09:13:54.999Z</time>
      </trkpt>
      <trkpt lat="47.51735" lon="6.72268">
        <ele>393</ele>
        <time>2016-12-11T09:13:55.999Z</time>
      </trkpt>
      <trkpt lat="47.51742" lon="6.72262">
        <ele>392</ele>
        <time>2016-12-11T09:13:56.999Z</time>
      </trkpt>
      <trkpt lat="47.51748" lon="6.72256">
        <ele>392</ele>
        <time>2016-12-11T09:13:57.999Z</time>
      </trkpt>
      <trkpt lat="47.51755" lon="6.72249">
        <ele>391</ele>
        <time>2016-12-11T09:13:58.999Z</time>
      </trkpt>
      <trkpt lat="47.51763" lon="6.72243">
        <ele>390</ele>
        <time>2016-12-11T09:13:59.999Z</time>
      </trkpt>
      <trkpt lat="47.5177" lon="6.72236">
        <ele>389</ele>
        <time>2016-12-11T09:14:00.999Z</time>
      </trkpt>
      <trkpt lat="47.51779" lon="6.7223">
        <ele>389</ele>
        <time>2016-12-11T09:14:01.999Z</time>
      </trkpt>
      <trkpt lat="47.51788" lon="6.72223">
        <ele>389</ele>
        <time>2016-12-11T09:14:02.999Z</time>
      </trkpt>
      <trkpt lat="47.51797" lon="6.72218">
        <ele>388</ele>
        <time>2016-12-11T09:14:03.999Z</time>
      </trkpt>
      <trkpt lat="47.51809" lon="6.72214">
        <ele>388</ele>
        <time>2016-12-11T09:14:04.999Z</time>
      </trkpt>
      <trkpt lat="47.51819" lon="6.72215">
        <ele>388</ele>
        <time>2016-12-11T09:14:05.999Z</time>
      </trkpt>
      <trkpt lat="47.51827" lon="6.72217">
        <ele>387</ele>
        <time>2016-12-11T09:14:06.999Z</time>
      </trkpt>
      <trkpt lat="47.51833" lon="6.72217">
        <ele>387</ele>
        <time>2016-12-11T09:14:07.999Z</time>
      </trkpt>
      <trkpt lat="47.51838" lon="6.72217">
        <ele>384</ele>
        <time>2016-12-11T09:14:08.999Z</time>
      </trkpt>
      <trkpt lat="47.51841" lon="6.72218">
        <ele>384</ele>
        <time>2016-12-11T09:14:10.999Z</time>
      </trkpt>
      <trkpt lat="47.51843" lon="6.72219">
        <ele>384</ele>
        <time>2016-12-11T09:14:11.999Z</time>
      </trkpt>
      <trkpt lat="47.51845" lon="6.72221">
        <ele>384</ele>
        <time>2016-12-11T09:14:12.999Z</time>
      </trkpt>
      <trkpt lat="47.51847" lon="6.72224">
        <ele>384</ele>
        <time>2016-12-11T09:14:13.999Z</time>
      </trkpt>
      <trkpt lat="47.51856" lon="6.72232">
        <ele>384</ele>
        <time>2016-12-11T09:14:14.999Z</time>
      </trkpt>
      <trkpt lat="47.51856" lon="6.72232">
        <ele>384</ele>
        <time>2016-12-11T09:14:16.999Z</time>
      </trkpt>
      <trkpt lat="47.51868" lon="6.72239">
        <ele>384</ele>
        <time>2016-12-11T09:14:17.999Z</time>
      </trkpt>
      <trkpt lat="47.51868" lon="6.72239">
        <ele>384</ele>
        <time>2016-12-11T09:14:23.999Z</time>
      </trkpt>
      <trkpt lat="47.51879" lon="6.7224">
        <ele>383</ele>
        <time>2016-12-11T09:14:24.999Z</time>
      </trkpt>
      <trkpt lat="47.51879" lon="6.7224">
        <ele>383</ele>
        <time>2016-12-11T09:14:31.999Z</time>
      </trkpt>
      <trkpt lat="47.5189" lon="6.72241">
        <ele>383</ele>
        <time>2016-12-11T09:14:32.999Z</time>
      </trkpt>
      <trkpt lat="47.5189" lon="6.72241">
        <ele>383</ele>
        <time>2016-12-11T09:14:35.999Z</time>
      </trkpt>
      <trkpt lat="47.51901" lon="6.72242">
        <ele>383</ele>
        <time>2016-12-11T09:14:36.999Z</time>
      </trkpt>
      <trkpt lat="47.51905" lon="6.72241">
        <ele>383</ele>
        <time>2016-12-11T09:14:37.999Z</time>
      </trkpt>
      <trkpt lat="47.51907" lon="6.7224">
        <ele>382</ele>
        <time>2016-12-11T09:14:38.999Z</time>
      </trkpt>
      <trkpt lat="47.51911" lon="6.72238">
        <ele>382</ele>
        <time>2016-12-11T09:14:40.999Z</time>
      </trkpt>
      <trkpt lat="47.51913" lon="6.72238">
        <ele>382</ele>
        <time>2016-12-11T09:14:41.999Z</time>
      </trkpt>
      <trkpt lat="47.51915" lon="6.72238">
        <ele>382</ele>
        <time>2016-12-11T09:14:45.999Z</time>
      </trkpt>
      <trkpt lat="47.51927" lon="6.72234">
        <ele>382</ele>
        <time>2016-12-11T09:14:46.999Z</time>
      </trkpt>
      <trkpt lat="47.5193" lon="6.72233">
        <ele>382</ele>
        <time>2016-12-11T09:14:48.999Z</time>
      </trkpt>
      <trkpt lat="47.51932" lon="6.72231">
        <ele>382</ele>
        <time>2016-12-11T09:14:49.999Z</time>
      </trkpt>
      <trkpt lat="47.51935" lon="6.72229">
        <ele>382</ele>
        <time>2016-12-11T09:14:58.999Z</time>
      </trkpt>
      <trkpt lat="47.51947" lon="6.72225">
        <ele>382</ele>
        <time>2016-12-11T09:14:59.999Z</time>
      </trkpt>
      <trkpt lat="47.5195" lon="6.72224">
        <ele>382</ele>
        <time>2016-12-11T09:15:01.999Z</time>
      </trkpt>
      <trkpt lat="47.51952" lon="6.72223">
        <ele>382</ele>
        <time>2016-12-11T09:15:02.999Z</time>
      </trkpt>
      <trkpt lat="47.51956" lon="6.72224">
        <ele>382</ele>
        <time>2016-12-11T09:15:04.999Z</time>
      </trkpt>
      <trkpt lat="47.51957" lon="6.72224">
        <ele>382</ele>
        <time>2016-12-11T09:15:05.999Z</time>
      </trkpt>
      <trkpt lat="47.51959" lon="6.72225">
        <ele>382</ele>
        <time>2016-12-11T09:15:06.999Z</time>
      </trkpt>
      <trkpt lat="47.51962" lon="6.72225">
        <ele>382</ele>
        <time>2016-12-11T09:15:07.999Z</time>
      </trkpt>
      <trkpt lat="47.51964" lon="6.72226">
        <ele>382</ele>
        <time>2016-12-11T09:15:09.999Z</time>
      </trkpt>
      <trkpt lat="47.51966" lon="6.72226">
        <ele>382</ele>
        <time>2016-12-11T09:15:10.999Z</time>
      </trkpt>
      <trkpt lat="47.5197" lon="6.72226">
        <ele>382</ele>
        <time>2016-12-11T09:15:12.999Z</time>
      </trkpt>
      <trkpt lat="47.51972" lon="6.72226">
        <ele>382</ele>
        <time>2016-12-11T09:15:13.999Z</time>
      </trkpt>
      <trkpt lat="47.51974" lon="6.72226">
        <ele>382</ele>
        <time>2016-12-11T09:15:14.999Z</time>
      </trkpt>
      <trkpt lat="47.51978" lon="6.72226">
        <ele>382</ele>
        <time>2016-12-11T09:15:15.999Z</time>
      </trkpt>
      <trkpt lat="47.51978" lon="6.72226">
        <ele>382</ele>
        <time>2016-12-11T09:15:27.999Z</time>
      </trkpt>
      <trkpt lat="47.52002" lon="6.72203">
        <ele>384</ele>
        <time>2016-12-11T09:15:28.999Z</time>
      </trkpt>
      <trkpt lat="47.52002" lon="6.72203">
        <ele>384</ele>
        <time>2016-12-11T09:15:30.999Z</time>
      </trkpt>
      <trkpt lat="47.52005" lon="6.72191">
        <ele>385</ele>
        <time>2016-12-11T09:15:31.999Z</time>
      </trkpt>
      <trkpt lat="47.52006" lon="6.72186">
        <ele>385</ele>
        <time>2016-12-11T09:15:32.999Z</time>
      </trkpt>
      <trkpt lat="47.52007" lon="6.72177">
        <ele>386</ele>
        <time>2016-12-11T09:15:33.999Z</time>
      </trkpt>
      <trkpt lat="47.52008" lon="6.72171">
        <ele>386</ele>
        <time>2016-12-11T09:15:39.999Z</time>
      </trkpt>
      <trkpt lat="47.52012" lon="6.72159">
        <ele>388</ele>
        <time>2016-12-11T09:15:40.999Z</time>
      </trkpt>
      <trkpt lat="47.52012" lon="6.72159">
        <ele>388</ele>
        <time>2016-12-11T09:15:48.999Z</time>
      </trkpt>
      <trkpt lat="47.52014" lon="6.72142">
        <ele>389</ele>
        <time>2016-12-11T09:15:49.999Z</time>
      </trkpt>
      <trkpt lat="47.52017" lon="6.72137">
        <ele>389</ele>
        <time>2016-12-11T09:15:53.999Z</time>
      </trkpt>
      <trkpt lat="47.52018" lon="6.72134">
        <ele>390</ele>
        <time>2016-12-11T09:15:54.999Z</time>
      </trkpt>
      <trkpt lat="47.5202" lon="6.72129">
        <ele>390</ele>
        <time>2016-12-11T09:15:56.999Z</time>
      </trkpt>
      <trkpt lat="47.52021" lon="6.72127">
        <ele>390</ele>
        <time>2016-12-11T09:15:57.999Z</time>
      </trkpt>
      <trkpt lat="47.5202" lon="6.72122">
        <ele>390</ele>
        <time>2016-12-11T09:16:04.999Z</time>
      </trkpt>
      <trkpt lat="47.5202" lon="6.72109">
        <ele>390</ele>
        <time>2016-12-11T09:16:05.999Z</time>
      </trkpt>
      <trkpt lat="47.5202" lon="6.72109">
        <ele>390</ele>
        <time>2016-12-11T09:16:11.999Z</time>
      </trkpt>
      <trkpt lat="47.52024" lon="6.72087">
        <ele>391</ele>
        <time>2016-12-11T09:16:12.999Z</time>
      </trkpt>
      <trkpt lat="47.52024" lon="6.7208">
        <ele>394</ele>
        <time>2016-12-11T09:16:14.999Z</time>
      </trkpt>
      <trkpt lat="47.52024" lon="6.72077">
        <ele>394</ele>
        <time>2016-12-11T09:16:15.999Z</time>
      </trkpt>
      <trkpt lat="47.52023" lon="6.72072">
        <ele>394</ele>
        <time>2016-12-11T09:16:17.999Z</time>
      </trkpt>
      <trkpt lat="47.52023" lon="6.72069">
        <ele>394</ele>
        <time>2016-12-11T09:16:18.999Z</time>
      </trkpt>
      <trkpt lat="47.52023" lon="6.72064">
        <ele>394</ele>
        <time>2016-12-11T09:16:20.999Z</time>
      </trkpt>
      <trkpt lat="47.52023" lon="6.72062">
        <ele>394</ele>
        <time>2016-12-11T09:16:21.999Z</time>
      </trkpt>
      <trkpt lat="47.52024" lon="6.72058">
        <ele>394</ele>
        <time>2016-12-11T09:16:23.999Z</time>
      </trkpt>
      <trkpt lat="47.52023" lon="6.72053">
        <ele>394</ele>
        <time>2016-12-11T09:16:24.999Z</time>
      </trkpt>
      <trkpt lat="47.52023" lon="6.72047">
        <ele>394</ele>
        <time>2016-12-11T09:16:26.999Z</time>
      </trkpt>
      <trkpt lat="47.52023" lon="6.72041">
        <ele>395</ele>
        <time>2016-12-11T09:16:27.999Z</time>
      </trkpt>
      <trkpt lat="47.52022" lon="6.72036">
        <ele>395</ele>
        <time>2016-12-11T09:16:29.999Z</time>
      </trkpt>
      <trkpt lat="47.52022" lon="6.72033">
        <ele>395</ele>
        <time>2016-12-11T09:16:30.999Z</time>
      </trkpt>
      <trkpt lat="47.52021" lon="6.72027">
        <ele>395</ele>
        <time>2016-12-11T09:16:34.999Z</time>
      </trkpt>
      <trkpt lat="47.52021" lon="6.72024">
        <ele>395</ele>
        <time>2016-12-11T09:16:35.999Z</time>
      </trkpt>
      <trkpt lat="47.52022" lon="6.72018">
        <ele>395</ele>
        <time>2016-12-11T09:16:37.999Z</time>
      </trkpt>
      <trkpt lat="47.52022" lon="6.72015">
        <ele>395</ele>
        <time>2016-12-11T09:16:38.999Z</time>
      </trkpt>
      <trkpt lat="47.52022" lon="6.72009">
        <ele>395</ele>
        <time>2016-12-11T09:16:41.999Z</time>
      </trkpt>
      <trkpt lat="47.52022" lon="6.72005">
        <ele>395</ele>
        <time>2016-12-11T09:16:42.999Z</time>
      </trkpt>
      <trkpt lat="47.52022" lon="6.72002">
        <ele>395</ele>
        <time>2016-12-11T09:16:43.999Z</time>
      </trkpt>
      <trkpt lat="47.52023" lon="6.71998">
        <ele>397</ele>
        <time>2016-12-11T09:16:44.999Z</time>
      </trkpt>
      <trkpt lat="47.52023" lon="6.71998">
        <ele>397</ele>
        <time>2016-12-11T09:16:49.999Z</time>
      </trkpt>
      <trkpt lat="47.52026" lon="6.71979">
        <ele>397</ele>
        <time>2016-12-11T09:16:50.999Z</time>
      </trkpt>
      <trkpt lat="47.52026" lon="6.71979">
        <ele>397</ele>
        <time>2016-12-11T09:16:51.999Z</time>
      </trkpt>
      <trkpt lat="47.52027" lon="6.71968">
        <ele>397</ele>
        <time>2016-12-11T09:16:52.999Z</time>
      </trkpt>
      <trkpt lat="47.52028" lon="6.71964">
        <ele>398</ele>
        <time>2016-12-11T09:16:53.999Z</time>
      </trkpt>
      <trkpt lat="47.52028" lon="6.7196">
        <ele>398</ele>
        <time>2016-12-11T09:16:54.999Z</time>
      </trkpt>
      <trkpt lat="47.52029" lon="6.71958">
        <ele>398</ele>
        <time>2016-12-11T09:16:58.999Z</time>
      </trkpt>
      <trkpt lat="47.52027" lon="6.71943">
        <ele>398</ele>
        <time>2016-12-11T09:16:59.999Z</time>
      </trkpt>
      <trkpt lat="47.52026" lon="6.71938">
        <ele>398</ele>
        <time>2016-12-11T09:17:01.999Z</time>
      </trkpt>
      <trkpt lat="47.52027" lon="6.71935">
        <ele>398</ele>
        <time>2016-12-11T09:17:02.999Z</time>
      </trkpt>
      <trkpt lat="47.52028" lon="6.7193">
        <ele>398</ele>
        <time>2016-12-11T09:17:04.999Z</time>
      </trkpt>
      <trkpt lat="47.52028" lon="6.71927">
        <ele>398</ele>
        <time>2016-12-11T09:17:05.999Z</time>
      </trkpt>
      <trkpt lat="47.52028" lon="6.71922">
        <ele>398</ele>
        <time>2016-12-11T09:17:07.999Z</time>
      </trkpt>
      <trkpt lat="47.52028" lon="6.7192">
        <ele>398</ele>
        <time>2016-12-11T09:17:08.999Z</time>
      </trkpt>
      <trkpt lat="47.52028" lon="6.71915">
        <ele>399</ele>
        <time>2016-12-11T09:17:10.999Z</time>
      </trkpt>
      <trkpt lat="47.52029" lon="6.71911">
        <ele>399</ele>
        <time>2016-12-11T09:17:11.999Z</time>
      </trkpt>
      <trkpt lat="47.52029" lon="6.71908">
        <ele>399</ele>
        <time>2016-12-11T09:17:13.999Z</time>
      </trkpt>
      <trkpt lat="47.52029" lon="6.71904">
        <ele>399</ele>
        <time>2016-12-11T09:17:14.999Z</time>
      </trkpt>
      <trkpt lat="47.52029" lon="6.71899">
        <ele>399</ele>
        <time>2016-12-11T09:17:15.999Z</time>
      </trkpt>
      <trkpt lat="47.5203" lon="6.71896">
        <ele>399</ele>
        <time>2016-12-11T09:17:16.999Z</time>
      </trkpt>
      <trkpt lat="47.5203" lon="6.71891">
        <ele>399</ele>
        <time>2016-12-11T09:17:17.999Z</time>
      </trkpt>
      <trkpt lat="47.5203" lon="6.71888">
        <ele>399</ele>
        <time>2016-12-11T09:17:18.999Z</time>
      </trkpt>
      <trkpt lat="47.5203" lon="6.71884">
        <ele>400</ele>
        <time>2016-12-11T09:17:19.999Z</time>
      </trkpt>
      <trkpt lat="47.5203" lon="6.71881">
        <ele>400</ele>
        <time>2016-12-11T09:17:20.999Z</time>
      </trkpt>
      <trkpt lat="47.52029" lon="6.71877">
        <ele>400</ele>
        <time>2016-12-11T09:17:22.999Z</time>
      </trkpt>
      <trkpt lat="47.52028" lon="6.71874">
        <ele>400</ele>
        <time>2016-12-11T09:17:23.999Z</time>
      </trkpt>
      <trkpt lat="47.52028" lon="6.7187">
        <ele>400</ele>
        <time>2016-12-11T09:17:24.999Z</time>
      </trkpt>
      <trkpt lat="47.52028" lon="6.71867">
        <ele>400</ele>
        <time>2016-12-11T09:17:25.999Z</time>
      </trkpt>
      <trkpt lat="47.52027" lon="6.71864">
        <ele>400</ele>
        <time>2016-12-11T09:17:26.999Z</time>
      </trkpt>
      <trkpt lat="47.52026" lon="6.7186">
        <ele>400</ele>
        <time>2016-12-11T09:17:27.999Z</time>
      </trkpt>
      <trkpt lat="47.52026" lon="6.71855">
        <ele>400</ele>
        <time>2016-12-11T09:17:28.999Z</time>
      </trkpt>
      <trkpt lat="47.52025" lon="6.71853">
        <ele>400</ele>
        <time>2016-12-11T09:17:29.999Z</time>
      </trkpt>
      <trkpt lat="47.52023" lon="6.71847">
        <ele>401</ele>
        <time>2016-12-11T09:17:31.999Z</time>
      </trkpt>
      <trkpt lat="47.52023" lon="6.71845">
        <ele>401</ele>
        <time>2016-12-11T09:17:32.999Z</time>
      </trkpt>
      <trkpt lat="47.52022" lon="6.7184">
        <ele>401</ele>
        <time>2016-12-11T09:17:34.999Z</time>
      </trkpt>
      <trkpt lat="47.52023" lon="6.71838">
        <ele>401</ele>
        <time>2016-12-11T09:17:35.999Z</time>
      </trkpt>
      <trkpt lat="47.52023" lon="6.71834">
        <ele>401</ele>
        <time>2016-12-11T09:17:36.999Z</time>
      </trkpt>
      <trkpt lat="47.52023" lon="6.7183">
        <ele>403</ele>
        <time>2016-12-11T09:17:37.999Z</time>
      </trkpt>
      <trkpt lat="47.52023" lon="6.71825">
        <ele>403</ele>
        <time>2016-12-11T09:17:38.999Z</time>
      </trkpt>
      <trkpt lat="47.52023" lon="6.71822">
        <ele>403</ele>
        <time>2016-12-11T09:17:39.999Z</time>
      </trkpt>
      <trkpt lat="47.52022" lon="6.71817">
        <ele>403</ele>
        <time>2016-12-11T09:17:40.999Z</time>
      </trkpt>
      <trkpt lat="47.52021" lon="6.71814">
        <ele>403</ele>
        <time>2016-12-11T09:17:41.999Z</time>
      </trkpt>
      <trkpt lat="47.5202" lon="6.71808">
        <ele>404</ele>
        <time>2016-12-11T09:17:43.999Z</time>
      </trkpt>
      <trkpt lat="47.52019" lon="6.71804">
        <ele>404</ele>
        <time>2016-12-11T09:17:44.999Z</time>
      </trkpt>
      <trkpt lat="47.52019" lon="6.718">
        <ele>404</ele>
        <time>2016-12-11T09:17:45.999Z</time>
      </trkpt>
      <trkpt lat="47.52019" lon="6.71797">
        <ele>404</ele>
        <time>2016-12-11T09:17:46.999Z</time>
      </trkpt>
      <trkpt lat="47.5202" lon="6.71791">
        <ele>404</ele>
        <time>2016-12-11T09:17:48.999Z</time>
      </trkpt>
      <trkpt lat="47.5202" lon="6.71788">
        <ele>405</ele>
        <time>2016-12-11T09:17:49.999Z</time>
      </trkpt>
      <trkpt lat="47.52021" lon="6.71783">
        <ele>405</ele>
        <time>2016-12-11T09:17:51.999Z</time>
      </trkpt>
      <trkpt lat="47.52021" lon="6.7178">
        <ele>405</ele>
        <time>2016-12-11T09:17:52.999Z</time>
      </trkpt>
      <trkpt lat="47.52022" lon="6.71774">
        <ele>405</ele>
        <time>2016-12-11T09:17:54.999Z</time>
      </trkpt>
      <trkpt lat="47.52022" lon="6.71772">
        <ele>405</ele>
        <time>2016-12-11T09:17:55.999Z</time>
      </trkpt>
      <trkpt lat="47.52023" lon="6.71767">
        <ele>406</ele>
        <time>2016-12-11T09:17:57.999Z</time>
      </trkpt>
      <trkpt lat="47.52024" lon="6.71764">
        <ele>406</ele>
        <time>2016-12-11T09:17:58.999Z</time>
      </trkpt>
      <trkpt lat="47.52025" lon="6.71761">
        <ele>406</ele>
        <time>2016-12-11T09:17:59.999Z</time>
      </trkpt>
      <trkpt lat="47.52026" lon="6.71758">
        <ele>406</ele>
        <time>2016-12-11T09:18:00.999Z</time>
      </trkpt>
      <trkpt lat="47.52027" lon="6.71755">
        <ele>406</ele>
        <time>2016-12-11T09:18:01.999Z</time>
      </trkpt>
      <trkpt lat="47.52029" lon="6.71752">
        <ele>406</ele>
        <time>2016-12-11T09:18:02.999Z</time>
      </trkpt>
      <trkpt lat="47.5203" lon="6.71749">
        <ele>409</ele>
        <time>2016-12-11T09:18:03.999Z</time>
      </trkpt>
      <trkpt lat="47.52031" lon="6.71745">
        <ele>409</ele>
        <time>2016-12-11T09:18:04.999Z</time>
      </trkpt>
      <trkpt lat="47.52034" lon="6.71739">
        <ele>409</ele>
        <time>2016-12-11T09:18:06.999Z</time>
      </trkpt>
      <trkpt lat="47.52035" lon="6.71736">
        <ele>409</ele>
        <time>2016-12-11T09:18:07.999Z</time>
      </trkpt>
      <trkpt lat="47.52038" lon="6.71731">
        <ele>409</ele>
        <time>2016-12-11T09:18:09.999Z</time>
      </trkpt>
      <trkpt lat="47.52039" lon="6.71729">
        <ele>409</ele>
        <time>2016-12-11T09:18:10.999Z</time>
      </trkpt>
      <trkpt lat="47.52041" lon="6.71724">
        <ele>409</ele>
        <time>2016-12-11T09:18:12.999Z</time>
      </trkpt>
      <trkpt lat="47.52043" lon="6.71721">
        <ele>409</ele>
        <time>2016-12-11T09:18:13.999Z</time>
      </trkpt>
      <trkpt lat="47.52045" lon="6.71716">
        <ele>410</ele>
        <time>2016-12-11T09:18:15.999Z</time>
      </trkpt>
      <trkpt lat="47.52046" lon="6.71714">
        <ele>410</ele>
        <time>2016-12-11T09:18:16.999Z</time>
      </trkpt>
      <trkpt lat="47.52048" lon="6.71709">
        <ele>410</ele>
        <time>2016-12-11T09:18:19.999Z</time>
      </trkpt>
      <trkpt lat="47.52049" lon="6.71706">
        <ele>410</ele>
        <time>2016-12-11T09:18:20.999Z</time>
      </trkpt>
      <trkpt lat="47.52051" lon="6.71701">
        <ele>410</ele>
        <time>2016-12-11T09:18:24.999Z</time>
      </trkpt>
      <trkpt lat="47.52052" lon="6.717">
        <ele>410</ele>
        <time>2016-12-11T09:18:25.999Z</time>
      </trkpt>
      <trkpt lat="47.52054" lon="6.71696">
        <ele>410</ele>
        <time>2016-12-11T09:18:29.999Z</time>
      </trkpt>
      <trkpt lat="47.52055" lon="6.71695">
        <ele>410</ele>
        <time>2016-12-11T09:18:30.999Z</time>
      </trkpt>
      <trkpt lat="47.52058" lon="6.71691">
        <ele>410</ele>
        <time>2016-12-11T09:19:06.999Z</time>
      </trkpt>
      <trkpt lat="47.52059" lon="6.71689">
        <ele>410</ele>
        <time>2016-12-11T09:19:07.999Z</time>
      </trkpt>
      <trkpt lat="47.52061" lon="6.71683">
        <ele>410</ele>
        <time>2016-12-11T09:19:09.999Z</time>
      </trkpt>
      <trkpt lat="47.52063" lon="6.7168">
        <ele>410</ele>
        <time>2016-12-11T09:19:10.999Z</time>
      </trkpt>
      <trkpt lat="47.52065" lon="6.71677">
        <ele>410</ele>
        <time>2016-12-11T09:19:11.999Z</time>
      </trkpt>
      <trkpt lat="47.52067" lon="6.71674">
        <ele>411</ele>
        <time>2016-12-11T09:19:12.999Z</time>
      </trkpt>
      <trkpt lat="47.52069" lon="6.7167">
        <ele>411</ele>
        <time>2016-12-11T09:19:13.999Z</time>
      </trkpt>
      <trkpt lat="47.52072" lon="6.71667">
        <ele>411</ele>
        <time>2016-12-11T09:19:14.999Z</time>
      </trkpt>
      <trkpt lat="47.52076" lon="6.71662">
        <ele>412</ele>
        <time>2016-12-11T09:19:15.999Z</time>
      </trkpt>
      <trkpt lat="47.5208" lon="6.71658">
        <ele>412</ele>
        <time>2016-12-11T09:19:16.999Z</time>
      </trkpt>
      <trkpt lat="47.52083" lon="6.71653">
        <ele>408</ele>
        <time>2016-12-11T09:19:17.999Z</time>
      </trkpt>
      <trkpt lat="47.52087" lon="6.71648">
        <ele>407</ele>
        <time>2016-12-11T09:19:18.999Z</time>
      </trkpt>
      <trkpt lat="47.52091" lon="6.71644">
        <ele>406</ele>
        <time>2016-12-11T09:19:19.999Z</time>
      </trkpt>
      <trkpt lat="47.52095" lon="6.7164">
        <ele>405</ele>
        <time>2016-12-11T09:19:20.999Z</time>
      </trkpt>
      <trkpt lat="47.52098" lon="6.71635">
        <ele>405</ele>
        <time>2016-12-11T09:19:21.999Z</time>
      </trkpt>
      <trkpt lat="47.52101" lon="6.71631">
        <ele>405</ele>
        <time>2016-12-11T09:19:22.999Z</time>
      </trkpt>
      <trkpt lat="47.52105" lon="6.71627">
        <ele>404</ele>
        <time>2016-12-11T09:19:23.999Z</time>
      </trkpt>
      <trkpt lat="47.52109" lon="6.71622">
        <ele>404</ele>
        <time>2016-12-11T09:19:24.999Z</time>
      </trkpt>
      <trkpt lat="47.52113" lon="6.71617">
        <ele>404</ele>
        <time>2016-12-11T09:19:25.999Z</time>
      </trkpt>
      <trkpt lat="47.52117" lon="6.71613">
        <ele>403</ele>
        <time>2016-12-11T09:19:26.999Z</time>
      </trkpt>
      <trkpt lat="47.52121" lon="6.71609">
        <ele>403</ele>
        <time>2016-12-11T09:19:27.999Z</time>
      </trkpt>
      <trkpt lat="47.52126" lon="6.71606">
        <ele>402</ele>
        <time>2016-12-11T09:19:28.999Z</time>
      </trkpt>
      <trkpt lat="47.5213" lon="6.71603">
        <ele>402</ele>
        <time>2016-12-11T09:19:29.999Z</time>
      </trkpt>
      <trkpt lat="47.52135" lon="6.71602">
        <ele>401</ele>
        <time>2016-12-11T09:19:30.999Z</time>
      </trkpt>
      <trkpt lat="47.5214" lon="6.71602">
        <ele>401</ele>
        <time>2016-12-11T09:19:31.999Z</time>
      </trkpt>
      <trkpt lat="47.52143" lon="6.71602">
        <ele>400</ele>
        <time>2016-12-11T09:19:32.999Z</time>
      </trkpt>
      <trkpt lat="47.52148" lon="6.71602">
        <ele>400</ele>
        <time>2016-12-11T09:19:33.999Z</time>
      </trkpt>
      <trkpt lat="47.52151" lon="6.71604">
        <ele>399</ele>
        <time>2016-12-11T09:19:34.999Z</time>
      </trkpt>
      <trkpt lat="47.52153" lon="6.71605">
        <ele>399</ele>
        <time>2016-12-11T09:19:35.999Z</time>
      </trkpt>
      <trkpt lat="47.52156" lon="6.71608">
        <ele>399</ele>
        <time>2016-12-11T09:19:37.999Z</time>
      </trkpt>
      <trkpt lat="47.52157" lon="6.71612">
        <ele>399</ele>
        <time>2016-12-11T09:19:38.999Z</time>
      </trkpt>
      <trkpt lat="47.52157" lon="6.71616">
        <ele>399</ele>
        <time>2016-12-11T09:19:39.999Z</time>
      </trkpt>
      <trkpt lat="47.52157" lon="6.71619">
        <ele>399</ele>
        <time>2016-12-11T09:19:40.999Z</time>
      </trkpt>
      <trkpt lat="47.52158" lon="6.71623">
        <ele>399</ele>
        <time>2016-12-11T09:19:41.999Z</time>
      </trkpt>
      <trkpt lat="47.52159" lon="6.71627">
        <ele>399</ele>
        <time>2016-12-11T09:19:42.999Z</time>
      </trkpt>
      <trkpt lat="47.52162" lon="6.71633">
        <ele>398</ele>
        <time>2016-12-11T09:19:43.999Z</time>
      </trkpt>
      <trkpt lat="47.52164" lon="6.71639">
        <ele>398</ele>
        <time>2016-12-11T09:19:44.999Z</time>
      </trkpt>
      <trkpt lat="47.52167" lon="6.71644">
        <ele>390</ele>
        <time>2016-12-11T09:19:45.999Z</time>
      </trkpt>
      <trkpt lat="47.5217" lon="6.71649">
        <ele>390</ele>
        <time>2016-12-11T09:19:46.999Z</time>
      </trkpt>
      <trkpt lat="47.52173" lon="6.71654">
        <ele>390</ele>
        <time>2016-12-11T09:19:47.999Z</time>
      </trkpt>
      <trkpt lat="47.52176" lon="6.7166">
        <ele>390</ele>
        <time>2016-12-11T09:19:48.999Z</time>
      </trkpt>
      <trkpt lat="47.52179" lon="6.71666">
        <ele>390</ele>
        <time>2016-12-11T09:19:49.999Z</time>
      </trkpt>
      <trkpt lat="47.52183" lon="6.71673">
        <ele>390</ele>
        <time>2016-12-11T09:19:50.999Z</time>
      </trkpt>
      <trkpt lat="47.52188" lon="6.7168">
        <ele>389</ele>
        <time>2016-12-11T09:19:51.999Z</time>
      </trkpt>
      <trkpt lat="47.52192" lon="6.71687">
        <ele>389</ele>
        <time>2016-12-11T09:19:52.999Z</time>
      </trkpt>
      <trkpt lat="47.52197" lon="6.71693">
        <ele>389</ele>
        <time>2016-12-11T09:19:53.999Z</time>
      </trkpt>
      <trkpt lat="47.52202" lon="6.717">
        <ele>389</ele>
        <time>2016-12-11T09:19:54.999Z</time>
      </trkpt>
      <trkpt lat="47.52206" lon="6.71707">
        <ele>389</ele>
        <time>2016-12-11T09:19:55.999Z</time>
      </trkpt>
      <trkpt lat="47.52211" lon="6.71713">
        <ele>389</ele>
        <time>2016-12-11T09:19:56.999Z</time>
      </trkpt>
      <trkpt lat="47.52215" lon="6.71719">
        <ele>389</ele>
        <time>2016-12-11T09:19:57.999Z</time>
      </trkpt>
      <trkpt lat="47.52219" lon="6.71726">
        <ele>389</ele>
        <time>2016-12-11T09:19:58.999Z</time>
      </trkpt>
      <trkpt lat="47.52222" lon="6.71732">
        <ele>389</ele>
        <time>2016-12-11T09:19:59.999Z</time>
      </trkpt>
      <trkpt lat="47.52226" lon="6.71738">
        <ele>389</ele>
        <time>2016-12-11T09:20:00.999Z</time>
      </trkpt>
      <trkpt lat="47.5223" lon="6.71744">
        <ele>388</ele>
        <time>2016-12-11T09:20:01.999Z</time>
      </trkpt>
      <trkpt lat="47.52233" lon="6.71749">
        <ele>388</ele>
        <time>2016-12-11T09:20:02.999Z</time>
      </trkpt>
      <trkpt lat="47.52237" lon="6.71753">
        <ele>389</ele>
        <time>2016-12-11T09:20:03.999Z</time>
      </trkpt>
      <trkpt lat="47.5224" lon="6.71757">
        <ele>389</ele>
        <time>2016-12-11T09:20:04.999Z</time>
      </trkpt>
      <trkpt lat="47.52244" lon="6.71761">
        <ele>389</ele>
        <time>2016-12-11T09:20:05.999Z</time>
      </trkpt>
      <trkpt lat="47.52246" lon="6.71765">
        <ele>389</ele>
        <time>2016-12-11T09:20:06.999Z</time>
      </trkpt>
      <trkpt lat="47.52249" lon="6.71769">
        <ele>389</ele>
        <time>2016-12-11T09:20:07.999Z</time>
      </trkpt>
      <trkpt lat="47.52252" lon="6.71771">
        <ele>389</ele>
        <time>2016-12-11T09:20:08.999Z</time>
      </trkpt>
      <trkpt lat="47.52254" lon="6.71772">
        <ele>389</ele>
        <time>2016-12-11T09:20:09.999Z</time>
      </trkpt>
      <trkpt lat="47.52257" lon="6.7177">
        <ele>389</ele>
        <time>2016-12-11T09:20:10.999Z</time>
      </trkpt>
      <trkpt lat="47.5226" lon="6.71766">
        <ele>388</ele>
        <time>2016-12-11T09:20:11.999Z</time>
      </trkpt>
      <trkpt lat="47.52262" lon="6.71762">
        <ele>388</ele>
        <time>2016-12-11T09:20:12.999Z</time>
      </trkpt>
      <trkpt lat="47.52263" lon="6.71756">
        <ele>388</ele>
        <time>2016-12-11T09:20:13.999Z</time>
      </trkpt>
      <trkpt lat="47.52265" lon="6.71749">
        <ele>387</ele>
        <time>2016-12-11T09:20:14.999Z</time>
      </trkpt>
      <trkpt lat="47.52267" lon="6.71742">
        <ele>387</ele>
        <time>2016-12-11T09:20:15.999Z</time>
      </trkpt>
      <trkpt lat="47.52269" lon="6.71735">
        <ele>387</ele>
        <time>2016-12-11T09:20:16.999Z</time>
      </trkpt>
      <trkpt lat="47.52271" lon="6.71727">
        <ele>386</ele>
        <time>2016-12-11T09:20:17.999Z</time>
      </trkpt>
      <trkpt lat="47.52273" lon="6.7172">
        <ele>386</ele>
        <time>2016-12-11T09:20:18.999Z</time>
      </trkpt>
      <trkpt lat="47.52275" lon="6.71712">
        <ele>386</ele>
        <time>2016-12-11T09:20:19.999Z</time>
      </trkpt>
      <trkpt lat="47.52277" lon="6.71704">
        <ele>386</ele>
        <time>2016-12-11T09:20:20.999Z</time>
      </trkpt>
      <trkpt lat="47.52279" lon="6.71696">
        <ele>386</ele>
        <time>2016-12-11T09:20:21.999Z</time>
      </trkpt>
      <trkpt lat="47.52281" lon="6.71687">
        <ele>385</ele>
        <time>2016-12-11T09:20:22.999Z</time>
      </trkpt>
      <trkpt lat="47.52283" lon="6.71679">
        <ele>385</ele>
        <time>2016-12-11T09:20:23.999Z</time>
      </trkpt>
      <trkpt lat="47.52285" lon="6.7167">
        <ele>385</ele>
        <time>2016-12-11T09:20:24.999Z</time>
      </trkpt>
      <trkpt lat="47.52288" lon="6.71661">
        <ele>383</ele>
        <time>2016-12-11T09:20:25.999Z</time>
      </trkpt>
      <trkpt lat="47.5229" lon="6.71653">
        <ele>383</ele>
        <time>2016-12-11T09:20:26.999Z</time>
      </trkpt>
      <trkpt lat="47.52293" lon="6.71645">
        <ele>383</ele>
        <time>2016-12-11T09:20:27.999Z</time>
      </trkpt>
      <trkpt lat="47.52296" lon="6.71636">
        <ele>383</ele>
        <time>2016-12-11T09:20:28.999Z</time>
      </trkpt>
      <trkpt lat="47.52299" lon="6.71629">
        <ele>383</ele>
        <time>2016-12-11T09:20:29.999Z</time>
      </trkpt>
      <trkpt lat="47.52303" lon="6.71621">
        <ele>382</ele>
        <time>2016-12-11T09:20:30.999Z</time>
      </trkpt>
      <trkpt lat="47.52307" lon="6.71614">
        <ele>382</ele>
        <time>2016-12-11T09:20:31.999Z</time>
      </trkpt>
      <trkpt lat="47.52311" lon="6.71607">
        <ele>382</ele>
        <time>2016-12-11T09:20:32.999Z</time>
      </trkpt>
      <trkpt lat="47.52316" lon="6.716">
        <ele>381</ele>
        <time>2016-12-11T09:20:33.999Z</time>
      </trkpt>
      <trkpt lat="47.52321" lon="6.71593">
        <ele>380</ele>
        <time>2016-12-11T09:20:34.999Z</time>
      </trkpt>
      <trkpt lat="47.52326" lon="6.71585">
        <ele>379</ele>
        <time>2016-12-11T09:20:35.999Z</time>
      </trkpt>
      <trkpt lat="47.52331" lon="6.71578">
        <ele>379</ele>
        <time>2016-12-11T09:20:36.999Z</time>
      </trkpt>
      <trkpt lat="47.52336" lon="6.7157">
        <ele>377</ele>
        <time>2016-12-11T09:20:37.999Z</time>
      </trkpt>
      <trkpt lat="47.52341" lon="6.71561">
        <ele>376</ele>
        <time>2016-12-11T09:20:38.999Z</time>
      </trkpt>
      <trkpt lat="47.52345" lon="6.71551">
        <ele>376</ele>
        <time>2016-12-11T09:20:39.999Z</time>
      </trkpt>
      <trkpt lat="47.5235" lon="6.71542">
        <ele>375</ele>
        <time>2016-12-11T09:20:40.999Z</time>
      </trkpt>
      <trkpt lat="47.52355" lon="6.71531">
        <ele>375</ele>
        <time>2016-12-11T09:20:41.999Z</time>
      </trkpt>
      <trkpt lat="47.52359" lon="6.71521">
        <ele>375</ele>
        <time>2016-12-11T09:20:42.999Z</time>
      </trkpt>
      <trkpt lat="47.52363" lon="6.7151">
        <ele>375</ele>
        <time>2016-12-11T09:20:43.999Z</time>
      </trkpt>
      <trkpt lat="47.52366" lon="6.71501">
        <ele>374</ele>
        <time>2016-12-11T09:20:44.999Z</time>
      </trkpt>
      <trkpt lat="47.5237" lon="6.7149">
        <ele>372</ele>
        <time>2016-12-11T09:20:45.999Z</time>
      </trkpt>
      <trkpt lat="47.52373" lon="6.71479">
        <ele>372</ele>
        <time>2016-12-11T09:20:46.999Z</time>
      </trkpt>
      <trkpt lat="47.52377" lon="6.71468">
        <ele>371</ele>
        <time>2016-12-11T09:20:47.999Z</time>
      </trkpt>
      <trkpt lat="47.52379" lon="6.71456">
        <ele>371</ele>
        <time>2016-12-11T09:20:48.999Z</time>
      </trkpt>
      <trkpt lat="47.5238" lon="6.71444">
        <ele>371</ele>
        <time>2016-12-11T09:20:49.999Z</time>
      </trkpt>
      <trkpt lat="47.5238" lon="6.71431">
        <ele>371</ele>
        <time>2016-12-11T09:20:50.999Z</time>
      </trkpt>
      <trkpt lat="47.5238" lon="6.71418">
        <ele>370</ele>
        <time>2016-12-11T09:20:51.999Z</time>
      </trkpt>
      <trkpt lat="47.5238" lon="6.71405">
        <ele>368</ele>
        <time>2016-12-11T09:20:52.999Z</time>
      </trkpt>
      <trkpt lat="47.5238" lon="6.71393">
        <ele>368</ele>
        <time>2016-12-11T09:20:53.999Z</time>
      </trkpt>
      <trkpt lat="47.52379" lon="6.71381">
        <ele>368</ele>
        <time>2016-12-11T09:20:54.999Z</time>
      </trkpt>
      <trkpt lat="47.52377" lon="6.71369">
        <ele>367</ele>
        <time>2016-12-11T09:20:55.999Z</time>
      </trkpt>
      <trkpt lat="47.52376" lon="6.71356">
        <ele>367</ele>
        <time>2016-12-11T09:20:56.999Z</time>
      </trkpt>
      <trkpt lat="47.52374" lon="6.71343">
        <ele>367</ele>
        <time>2016-12-11T09:20:57.999Z</time>
      </trkpt>
      <trkpt lat="47.52373" lon="6.71329">
        <ele>365</ele>
        <time>2016-12-11T09:20:58.999Z</time>
      </trkpt>
      <trkpt lat="47.52372" lon="6.71317">
        <ele>365</ele>
        <time>2016-12-11T09:20:59.999Z</time>
      </trkpt>
      <trkpt lat="47.5237" lon="6.71305">
        <ele>365</ele>
        <time>2016-12-11T09:21:00.999Z</time>
      </trkpt>
      <trkpt lat="47.52369" lon="6.71293">
        <ele>365</ele>
        <time>2016-12-11T09:21:01.999Z</time>
      </trkpt>
      <trkpt lat="47.52369" lon="6.71281">
        <ele>364</ele>
        <time>2016-12-11T09:21:02.999Z</time>
      </trkpt>
      <trkpt lat="47.52368" lon="6.71269">
        <ele>364</ele>
        <time>2016-12-11T09:21:03.999Z</time>
      </trkpt>
      <trkpt lat="47.52368" lon="6.71258">
        <ele>364</ele>
        <time>2016-12-11T09:21:04.999Z</time>
      </trkpt>
      <trkpt lat="47.52367" lon="6.71247">
        <ele>364</ele>
        <time>2016-12-11T09:21:05.999Z</time>
      </trkpt>
      <trkpt lat="47.52367" lon="6.71236">
        <ele>364</ele>
        <time>2016-12-11T09:21:06.999Z</time>
      </trkpt>
      <trkpt lat="47.52367" lon="6.71227">
        <ele>364</ele>
        <time>2016-12-11T09:21:07.999Z</time>
      </trkpt>
      <trkpt lat="47.52366" lon="6.71218">
        <ele>364</ele>
        <time>2016-12-11T09:21:08.999Z</time>
      </trkpt>
      <trkpt lat="47.52366" lon="6.7121">
        <ele>364</ele>
        <time>2016-12-11T09:21:09.999Z</time>
      </trkpt>
      <trkpt lat="47.52367" lon="6.71201">
        <ele>364</ele>
        <time>2016-12-11T09:21:10.999Z</time>
      </trkpt>
      <trkpt lat="47.5237" lon="6.71193">
        <ele>364</ele>
        <time>2016-12-11T09:21:11.999Z</time>
      </trkpt>
      <trkpt lat="47.52373" lon="6.71191">
        <ele>364</ele>
        <time>2016-12-11T09:21:12.999Z</time>
      </trkpt>
      <trkpt lat="47.52378" lon="6.71189">
        <ele>364</ele>
        <time>2016-12-11T09:21:13.999Z</time>
      </trkpt>
      <trkpt lat="47.52384" lon="6.71189">
        <ele>364</ele>
        <time>2016-12-11T09:21:14.999Z</time>
      </trkpt>
      <trkpt lat="47.52388" lon="6.71188">
        <ele>364</ele>
        <time>2016-12-11T09:21:15.999Z</time>
      </trkpt>
      <trkpt lat="47.52394" lon="6.71188">
        <ele>364</ele>
        <time>2016-12-11T09:21:16.999Z</time>
      </trkpt>
      <trkpt lat="47.524" lon="6.71188">
        <ele>364</ele>
        <time>2016-12-11T09:21:17.999Z</time>
      </trkpt>
      <trkpt lat="47.52405" lon="6.71188">
        <ele>363</ele>
        <time>2016-12-11T09:21:18.999Z</time>
      </trkpt>
      <trkpt lat="47.52412" lon="6.71188">
        <ele>363</ele>
        <time>2016-12-11T09:21:19.999Z</time>
      </trkpt>
      <trkpt lat="47.52418" lon="6.71187">
        <ele>362</ele>
        <time>2016-12-11T09:21:20.999Z</time>
      </trkpt>
      <trkpt lat="47.52425" lon="6.71186">
        <ele>361</ele>
        <time>2016-12-11T09:21:21.999Z</time>
      </trkpt>
      <trkpt lat="47.52431" lon="6.71186">
        <ele>361</ele>
        <time>2016-12-11T09:21:22.999Z</time>
      </trkpt>
      <trkpt lat="47.52437" lon="6.71185">
        <ele>361</ele>
        <time>2016-12-11T09:21:23.999Z</time>
      </trkpt>
      <trkpt lat="47.52443" lon="6.71183">
        <ele>361</ele>
        <time>2016-12-11T09:21:24.999Z</time>
      </trkpt>
      <trkpt lat="47.5245" lon="6.71183">
        <ele>361</ele>
        <time>2016-12-11T09:21:25.999Z</time>
      </trkpt>
      <trkpt lat="47.52455" lon="6.71182">
        <ele>361</ele>
        <time>2016-12-11T09:21:26.999Z</time>
      </trkpt>
      <trkpt lat="47.52461" lon="6.71181">
        <ele>361</ele>
        <time>2016-12-11T09:21:27.999Z</time>
      </trkpt>
      <trkpt lat="47.52467" lon="6.7118">
        <ele>361</ele>
        <time>2016-12-11T09:21:28.999Z</time>
      </trkpt>
      <trkpt lat="47.52474" lon="6.7118">
        <ele>361</ele>
        <time>2016-12-11T09:21:29.999Z</time>
      </trkpt>
      <trkpt lat="47.5248" lon="6.71182">
        <ele>361</ele>
        <time>2016-12-11T09:21:30.999Z</time>
      </trkpt>
      <trkpt lat="47.52486" lon="6.71185">
        <ele>360</ele>
        <time>2016-12-11T09:21:31.999Z</time>
      </trkpt>
      <trkpt lat="47.52492" lon="6.71192">
        <ele>360</ele>
        <time>2016-12-11T09:21:32.999Z</time>
      </trkpt>
      <trkpt lat="47.52496" lon="6.712">
        <ele>360</ele>
        <time>2016-12-11T09:21:33.999Z</time>
      </trkpt>
      <trkpt lat="47.525" lon="6.71208">
        <ele>360</ele>
        <time>2016-12-11T09:21:34.999Z</time>
      </trkpt>
      <trkpt lat="47.52504" lon="6.71215">
        <ele>360</ele>
        <time>2016-12-11T09:21:35.999Z</time>
      </trkpt>
      <trkpt lat="47.52508" lon="6.71222">
        <ele>360</ele>
        <time>2016-12-11T09:21:36.999Z</time>
      </trkpt>
      <trkpt lat="47.52513" lon="6.71227">
        <ele>360</ele>
        <time>2016-12-11T09:21:37.999Z</time>
      </trkpt>
      <trkpt lat="47.52519" lon="6.71233">
        <ele>360</ele>
        <time>2016-12-11T09:21:38.999Z</time>
      </trkpt>
      <trkpt lat="47.52523" lon="6.71235">
        <ele>360</ele>
        <time>2016-12-11T09:21:39.999Z</time>
      </trkpt>
      <trkpt lat="47.52527" lon="6.71238">
        <ele>360</ele>
        <time>2016-12-11T09:21:40.999Z</time>
      </trkpt>
      <trkpt lat="47.52531" lon="6.71242">
        <ele>360</ele>
        <time>2016-12-11T09:21:41.999Z</time>
      </trkpt>
      <trkpt lat="47.52536" lon="6.71246">
        <ele>360</ele>
        <time>2016-12-11T09:21:42.999Z</time>
      </trkpt>
      <trkpt lat="47.52542" lon="6.71251">
        <ele>361</ele>
        <time>2016-12-11T09:21:43.999Z</time>
      </trkpt>
      <trkpt lat="47.52547" lon="6.71255">
        <ele>361</ele>
        <time>2016-12-11T09:21:44.999Z</time>
      </trkpt>
      <trkpt lat="47.52552" lon="6.71258">
        <ele>362</ele>
        <time>2016-12-11T09:21:45.999Z</time>
      </trkpt>
      <trkpt lat="47.52556" lon="6.71261">
        <ele>362</ele>
        <time>2016-12-11T09:21:46.999Z</time>
      </trkpt>
      <trkpt lat="47.52562" lon="6.71264">
        <ele>362</ele>
        <time>2016-12-11T09:21:47.999Z</time>
      </trkpt>
      <trkpt lat="47.52568" lon="6.71267">
        <ele>362</ele>
        <time>2016-12-11T09:21:48.999Z</time>
      </trkpt>
      <trkpt lat="47.52573" lon="6.71269">
        <ele>362</ele>
        <time>2016-12-11T09:21:49.999Z</time>
      </trkpt>
      <trkpt lat="47.52578" lon="6.7127">
        <ele>362</ele>
        <time>2016-12-11T09:21:50.999Z</time>
      </trkpt>
      <trkpt lat="47.52582" lon="6.71271">
        <ele>362</ele>
        <time>2016-12-11T09:21:51.999Z</time>
      </trkpt>
      <trkpt lat="47.52586" lon="6.71272">
        <ele>364</ele>
        <time>2016-12-11T09:21:52.999Z</time>
      </trkpt>
      <trkpt lat="47.52591" lon="6.71274">
        <ele>364</ele>
        <time>2016-12-11T09:21:53.999Z</time>
      </trkpt>
      <trkpt lat="47.52596" lon="6.71275">
        <ele>364</ele>
        <time>2016-12-11T09:21:54.999Z</time>
      </trkpt>
      <trkpt lat="47.52603" lon="6.71277">
        <ele>364</ele>
        <time>2016-12-11T09:21:55.999Z</time>
      </trkpt>
      <trkpt lat="47.52609" lon="6.71278">
        <ele>365</ele>
        <time>2016-12-11T09:21:56.999Z</time>
      </trkpt>
      <trkpt lat="47.52614" lon="6.71279">
        <ele>365</ele>
        <time>2016-12-11T09:21:57.999Z</time>
      </trkpt>
      <trkpt lat="47.52619" lon="6.7128">
        <ele>365</ele>
        <time>2016-12-11T09:21:58.999Z</time>
      </trkpt>
      <trkpt lat="47.52627" lon="6.71281">
        <ele>365</ele>
        <time>2016-12-11T09:21:59.999Z</time>
      </trkpt>
      <trkpt lat="47.52634" lon="6.71283">
        <ele>365</ele>
        <time>2016-12-11T09:22:00.999Z</time>
      </trkpt>
      <trkpt lat="47.5264" lon="6.71284">
        <ele>365</ele>
        <time>2016-12-11T09:22:01.999Z</time>
      </trkpt>
      <trkpt lat="47.52645" lon="6.71285">
        <ele>365</ele>
        <time>2016-12-11T09:22:02.999Z</time>
      </trkpt>
      <trkpt lat="47.52651" lon="6.71287">
        <ele>365</ele>
        <time>2016-12-11T09:22:03.999Z</time>
      </trkpt>
      <trkpt lat="47.52658" lon="6.71288">
        <ele>365</ele>
        <time>2016-12-11T09:22:04.999Z</time>
      </trkpt>
      <trkpt lat="47.52663" lon="6.71289">
        <ele>365</ele>
        <time>2016-12-11T09:22:05.999Z</time>
      </trkpt>
      <trkpt lat="47.5267" lon="6.7129">
        <ele>365</ele>
        <time>2016-12-11T09:22:06.999Z</time>
      </trkpt>
      <trkpt lat="47.52675" lon="6.71294">
        <ele>366</ele>
        <time>2016-12-11T09:22:07.999Z</time>
      </trkpt>
      <trkpt lat="47.52682" lon="6.71294">
        <ele>366</ele>
        <time>2016-12-11T09:22:08.999Z</time>
      </trkpt>
      <trkpt lat="47.52688" lon="6.71294">
        <ele>366</ele>
        <time>2016-12-11T09:22:09.999Z</time>
      </trkpt>
      <trkpt lat="47.52692" lon="6.71291">
        <ele>365</ele>
        <time>2016-12-11T09:22:10.999Z</time>
      </trkpt>
      <trkpt lat="47.52696" lon="6.71288">
        <ele>365</ele>
        <time>2016-12-11T09:22:11.999Z</time>
      </trkpt>
      <trkpt lat="47.52701" lon="6.71286">
        <ele>365</ele>
        <time>2016-12-11T09:22:12.999Z</time>
      </trkpt>
      <trkpt lat="47.52703" lon="6.71283">
        <ele>365</ele>
        <time>2016-12-11T09:22:13.999Z</time>
      </trkpt>
      <trkpt lat="47.52706" lon="6.7128">
        <ele>365</ele>
        <time>2016-12-11T09:22:14.999Z</time>
      </trkpt>
      <trkpt lat="47.52707" lon="6.71275">
        <ele>365</ele>
        <time>2016-12-11T09:22:15.999Z</time>
      </trkpt>
      <trkpt lat="47.52708" lon="6.71272">
        <ele>364</ele>
        <time>2016-12-11T09:22:16.999Z</time>
      </trkpt>
      <trkpt lat="47.52709" lon="6.71268">
        <ele>364</ele>
        <time>2016-12-11T09:22:17.999Z</time>
      </trkpt>
      <trkpt lat="47.52709" lon="6.71265">
        <ele>364</ele>
        <time>2016-12-11T09:22:18.999Z</time>
      </trkpt>
      <trkpt lat="47.5271" lon="6.7126">
        <ele>364</ele>
        <time>2016-12-11T09:22:20.999Z</time>
      </trkpt>
      <trkpt lat="47.5271" lon="6.71256">
        <ele>364</ele>
        <time>2016-12-11T09:22:21.999Z</time>
      </trkpt>
      <trkpt lat="47.5271" lon="6.7125">
        <ele>361</ele>
        <time>2016-12-11T09:22:23.999Z</time>
      </trkpt>
      <trkpt lat="47.52709" lon="6.71249">
        <ele>361</ele>
        <time>2016-12-11T09:22:24.999Z</time>
      </trkpt>
      <trkpt lat="47.52708" lon="6.71244">
        <ele>361</ele>
        <time>2016-12-11T09:22:26.999Z</time>
      </trkpt>
      <trkpt lat="47.52707" lon="6.7124">
        <ele>361</ele>
        <time>2016-12-11T09:22:27.999Z</time>
      </trkpt>
      <trkpt lat="47.52707" lon="6.71235">
        <ele>361</ele>
        <time>2016-12-11T09:22:28.999Z</time>
      </trkpt>
      <trkpt lat="47.52706" lon="6.71227">
        <ele>361</ele>
        <time>2016-12-11T09:22:29.999Z</time>
      </trkpt>
      <trkpt lat="47.52705" lon="6.71221">
        <ele>361</ele>
        <time>2016-12-11T09:22:30.999Z</time>
      </trkpt>
      <trkpt lat="47.52705" lon="6.71215">
        <ele>361</ele>
        <time>2016-12-11T09:22:31.999Z</time>
      </trkpt>
      <trkpt lat="47.52706" lon="6.7121">
        <ele>361</ele>
        <time>2016-12-11T09:22:32.999Z</time>
      </trkpt>
      <trkpt lat="47.52707" lon="6.71206">
        <ele>361</ele>
        <time>2016-12-11T09:22:33.999Z</time>
      </trkpt>
      <trkpt lat="47.52709" lon="6.71201">
        <ele>361</ele>
        <time>2016-12-11T09:22:35.999Z</time>
      </trkpt>
      <trkpt lat="47.5271" lon="6.71199">
        <ele>361</ele>
        <time>2016-12-11T09:22:36.999Z</time>
      </trkpt>
      <trkpt lat="47.52712" lon="6.71195">
        <ele>361</ele>
        <time>2016-12-11T09:22:38.999Z</time>
      </trkpt>
      <trkpt lat="47.52714" lon="6.71193">
        <ele>361</ele>
        <time>2016-12-11T09:22:39.999Z</time>
      </trkpt>
      <trkpt lat="47.52716" lon="6.71189">
        <ele>361</ele>
        <time>2016-12-11T09:22:41.999Z</time>
      </trkpt>
      <trkpt lat="47.52718" lon="6.71188">
        <ele>361</ele>
        <time>2016-12-11T09:22:42.999Z</time>
      </trkpt>
      <trkpt lat="47.52721" lon="6.71187">
        <ele>361</ele>
        <time>2016-12-11T09:22:47.999Z</time>
      </trkpt>
      <trkpt lat="47.52731" lon="6.71177">
        <ele>361</ele>
        <time>2016-12-11T09:22:48.999Z</time>
      </trkpt>
      <trkpt lat="47.52734" lon="6.71172">
        <ele>360</ele>
        <time>2016-12-11T09:22:49.999Z</time>
      </trkpt>
      <trkpt lat="47.52735" lon="6.71164">
        <ele>360</ele>
        <time>2016-12-11T09:22:50.999Z</time>
      </trkpt>
      <trkpt lat="47.52738" lon="6.71154">
        <ele>360</ele>
        <time>2016-12-11T09:22:51.999Z</time>
      </trkpt>
      <trkpt lat="47.52745" lon="6.71143">
        <ele>360</ele>
        <time>2016-12-11T09:22:52.999Z</time>
      </trkpt>
      <trkpt lat="47.52745" lon="6.71135">
        <ele>360</ele>
        <time>2016-12-11T09:22:53.999Z</time>
      </trkpt>
      <trkpt lat="47.52746" lon="6.71126">
        <ele>360</ele>
        <time>2016-12-11T09:22:54.999Z</time>
      </trkpt>
      <trkpt lat="47.52748" lon="6.71118">
        <ele>359</ele>
        <time>2016-12-11T09:22:55.999Z</time>
      </trkpt>
      <trkpt lat="47.52746" lon="6.71108">
        <ele>359</ele>
        <time>2016-12-11T09:22:56.999Z</time>
      </trkpt>
      <trkpt lat="47.52744" lon="6.71096">
        <ele>357</ele>
        <time>2016-12-11T09:22:57.999Z</time>
      </trkpt>
      <trkpt lat="47.52742" lon="6.71084">
        <ele>356</ele>
        <time>2016-12-11T09:22:58.999Z</time>
      </trkpt>
      <trkpt lat="47.5274" lon="6.71073">
        <ele>357</ele>
        <time>2016-12-11T09:22:59.999Z</time>
      </trkpt>
      <trkpt lat="47.52742" lon="6.71063">
        <ele>358</ele>
        <time>2016-12-11T09:23:00.999Z</time>
      </trkpt>
      <trkpt lat="47.52744" lon="6.71053">
        <ele>359</ele>
        <time>2016-12-11T09:23:01.999Z</time>
      </trkpt>
      <trkpt lat="47.52741" lon="6.71042">
        <ele>359</ele>
        <time>2016-12-11T09:23:02.999Z</time>
      </trkpt>
      <trkpt lat="47.52738" lon="6.71033">
        <ele>359</ele>
        <time>2016-12-11T09:23:03.999Z</time>
      </trkpt>
      <trkpt lat="47.52735" lon="6.71025">
        <ele>359</ele>
        <time>2016-12-11T09:23:04.999Z</time>
      </trkpt>
      <trkpt lat="47.52732" lon="6.71017">
        <ele>359</ele>
        <time>2016-12-11T09:23:05.999Z</time>
      </trkpt>
      <trkpt lat="47.5273" lon="6.71012">
        <ele>359</ele>
        <time>2016-12-11T09:23:06.999Z</time>
      </trkpt>
      <trkpt lat="47.52728" lon="6.71005">
        <ele>359</ele>
        <time>2016-12-11T09:23:07.999Z</time>
      </trkpt>
      <trkpt lat="47.52726" lon="6.71">
        <ele>359</ele>
        <time>2016-12-11T09:23:08.999Z</time>
      </trkpt>
      <trkpt lat="47.52724" lon="6.70995">
        <ele>360</ele>
        <time>2016-12-11T09:23:09.999Z</time>
      </trkpt>
      <trkpt lat="47.52722" lon="6.70989">
        <ele>360</ele>
        <time>2016-12-11T09:23:10.999Z</time>
      </trkpt>
      <trkpt lat="47.52721" lon="6.70985">
        <ele>361</ele>
        <time>2016-12-11T09:23:11.999Z</time>
      </trkpt>
      <trkpt lat="47.5272" lon="6.70982">
        <ele>361</ele>
        <time>2016-12-11T09:23:12.999Z</time>
      </trkpt>
      <trkpt lat="47.5272" lon="6.70977">
        <ele>361</ele>
        <time>2016-12-11T09:23:13.999Z</time>
      </trkpt>
      <trkpt lat="47.5272" lon="6.70973">
        <ele>361</ele>
        <time>2016-12-11T09:23:14.999Z</time>
      </trkpt>
      <trkpt lat="47.52719" lon="6.70969">
        <ele>361</ele>
        <time>2016-12-11T09:23:15.999Z</time>
      </trkpt>
      <trkpt lat="47.52718" lon="6.70961">
        <ele>362</ele>
        <time>2016-12-11T09:23:16.999Z</time>
      </trkpt>
      <trkpt lat="47.52717" lon="6.70952">
        <ele>362</ele>
        <time>2016-12-11T09:23:17.999Z</time>
      </trkpt>
      <trkpt lat="47.52718" lon="6.70946">
        <ele>362</ele>
        <time>2016-12-11T09:23:18.999Z</time>
      </trkpt>
      <trkpt lat="47.52718" lon="6.70938">
        <ele>361</ele>
        <time>2016-12-11T09:23:19.999Z</time>
      </trkpt>
      <trkpt lat="47.52717" lon="6.70931">
        <ele>361</ele>
        <time>2016-12-11T09:23:20.999Z</time>
      </trkpt>
      <trkpt lat="47.52717" lon="6.70926">
        <ele>361</ele>
        <time>2016-12-11T09:23:21.999Z</time>
      </trkpt>
      <trkpt lat="47.52717" lon="6.7092">
        <ele>361</ele>
        <time>2016-12-11T09:23:22.999Z</time>
      </trkpt>
      <trkpt lat="47.52717" lon="6.70914">
        <ele>361</ele>
        <time>2016-12-11T09:23:23.999Z</time>
      </trkpt>
      <trkpt lat="47.52718" lon="6.70909">
        <ele>361</ele>
        <time>2016-12-11T09:23:24.999Z</time>
      </trkpt>
      <trkpt lat="47.5272" lon="6.70903">
        <ele>361</ele>
        <time>2016-12-11T09:23:25.999Z</time>
      </trkpt>
      <trkpt lat="47.5272" lon="6.70895">
        <ele>361</ele>
        <time>2016-12-11T09:23:26.999Z</time>
      </trkpt>
      <trkpt lat="47.52722" lon="6.70889">
        <ele>361</ele>
        <time>2016-12-11T09:23:27.999Z</time>
      </trkpt>
      <trkpt lat="47.52722" lon="6.7088">
        <ele>362</ele>
        <time>2016-12-11T09:23:28.999Z</time>
      </trkpt>
      <trkpt lat="47.52723" lon="6.70874">
        <ele>362</ele>
        <time>2016-12-11T09:23:29.999Z</time>
      </trkpt>
      <trkpt lat="47.52723" lon="6.70868">
        <ele>362</ele>
        <time>2016-12-11T09:23:30.999Z</time>
      </trkpt>
      <trkpt lat="47.52722" lon="6.70862">
        <ele>362</ele>
        <time>2016-12-11T09:23:31.999Z</time>
      </trkpt>
      <trkpt lat="47.52722" lon="6.70855">
        <ele>361</ele>
        <time>2016-12-11T09:23:33.999Z</time>
      </trkpt>
      <trkpt lat="47.52721" lon="6.7085">
        <ele>361</ele>
        <time>2016-12-11T09:23:34.999Z</time>
      </trkpt>
      <trkpt lat="47.52719" lon="6.70843">
        <ele>362</ele>
        <time>2016-12-11T09:23:35.999Z</time>
      </trkpt>
      <trkpt lat="47.52718" lon="6.70837">
        <ele>362</ele>
        <time>2016-12-11T09:23:36.999Z</time>
      </trkpt>
      <trkpt lat="47.52717" lon="6.70833">
        <ele>363</ele>
        <time>2016-12-11T09:23:37.999Z</time>
      </trkpt>
      <trkpt lat="47.52717" lon="6.70828">
        <ele>364</ele>
        <time>2016-12-11T09:23:38.999Z</time>
      </trkpt>
      <trkpt lat="47.52716" lon="6.70824">
        <ele>364</ele>
        <time>2016-12-11T09:23:39.999Z</time>
      </trkpt>
      <trkpt lat="47.52716" lon="6.7082">
        <ele>364</ele>
        <time>2016-12-11T09:23:40.999Z</time>
      </trkpt>
      <trkpt lat="47.52715" lon="6.70812">
        <ele>364</ele>
        <time>2016-12-11T09:23:41.999Z</time>
      </trkpt>
      <trkpt lat="47.52715" lon="6.70805">
        <ele>365</ele>
        <time>2016-12-11T09:23:42.999Z</time>
      </trkpt>
      <trkpt lat="47.52715" lon="6.70797">
        <ele>365</ele>
        <time>2016-12-11T09:23:43.999Z</time>
      </trkpt>
      <trkpt lat="47.52715" lon="6.70791">
        <ele>365</ele>
        <time>2016-12-11T09:23:44.999Z</time>
      </trkpt>
      <trkpt lat="47.52716" lon="6.70786">
        <ele>365</ele>
        <time>2016-12-11T09:23:45.999Z</time>
      </trkpt>
      <trkpt lat="47.52717" lon="6.70779">
        <ele>365</ele>
        <time>2016-12-11T09:23:46.999Z</time>
      </trkpt>
      <trkpt lat="47.52719" lon="6.7077">
        <ele>365</ele>
        <time>2016-12-11T09:23:47.999Z</time>
      </trkpt>
      <trkpt lat="47.52719" lon="6.70764">
        <ele>365</ele>
        <time>2016-12-11T09:23:48.999Z</time>
      </trkpt>
      <trkpt lat="47.52719" lon="6.70757">
        <ele>364</ele>
        <time>2016-12-11T09:23:49.999Z</time>
      </trkpt>
      <trkpt lat="47.52721" lon="6.70751">
        <ele>364</ele>
        <time>2016-12-11T09:23:50.999Z</time>
      </trkpt>
      <trkpt lat="47.52721" lon="6.70744">
        <ele>364</ele>
        <time>2016-12-11T09:23:51.999Z</time>
      </trkpt>
      <trkpt lat="47.52721" lon="6.70736">
        <ele>364</ele>
        <time>2016-12-11T09:23:52.999Z</time>
      </trkpt>
      <trkpt lat="47.52722" lon="6.70731">
        <ele>364</ele>
        <time>2016-12-11T09:23:53.999Z</time>
      </trkpt>
      <trkpt lat="47.52722" lon="6.70726">
        <ele>364</ele>
        <time>2016-12-11T09:23:54.999Z</time>
      </trkpt>
      <trkpt lat="47.52723" lon="6.7072">
        <ele>364</ele>
        <time>2016-12-11T09:23:55.999Z</time>
      </trkpt>
      <trkpt lat="47.52723" lon="6.70715">
        <ele>364</ele>
        <time>2016-12-11T09:23:56.999Z</time>
      </trkpt>
      <trkpt lat="47.52723" lon="6.70708">
        <ele>364</ele>
        <time>2016-12-11T09:23:57.999Z</time>
      </trkpt>
      <trkpt lat="47.52724" lon="6.70702">
        <ele>364</ele>
        <time>2016-12-11T09:23:58.999Z</time>
      </trkpt>
      <trkpt lat="47.52724" lon="6.70697">
        <ele>364</ele>
        <time>2016-12-11T09:23:59.999Z</time>
      </trkpt>
      <trkpt lat="47.52724" lon="6.70692">
        <ele>363</ele>
        <time>2016-12-11T09:24:00.999Z</time>
      </trkpt>
      <trkpt lat="47.52724" lon="6.70685">
        <ele>363</ele>
        <time>2016-12-11T09:24:01.999Z</time>
      </trkpt>
      <trkpt lat="47.52725" lon="6.70676">
        <ele>362</ele>
        <time>2016-12-11T09:24:02.999Z</time>
      </trkpt>
      <trkpt lat="47.52725" lon="6.7067">
        <ele>362</ele>
        <time>2016-12-11T09:24:03.999Z</time>
      </trkpt>
      <trkpt lat="47.52725" lon="6.70664">
        <ele>359</ele>
        <time>2016-12-11T09:24:04.999Z</time>
      </trkpt>
      <trkpt lat="47.52725" lon="6.70655">
        <ele>359</ele>
        <time>2016-12-11T09:24:05.999Z</time>
      </trkpt>
      <trkpt lat="47.52724" lon="6.7065">
        <ele>360</ele>
        <time>2016-12-11T09:24:06.999Z</time>
      </trkpt>
      <trkpt lat="47.52723" lon="6.70646">
        <ele>360</ele>
        <time>2016-12-11T09:24:07.999Z</time>
      </trkpt>
      <trkpt lat="47.52723" lon="6.70644">
        <ele>360</ele>
        <time>2016-12-11T09:24:08.999Z</time>
      </trkpt>
      <trkpt lat="47.52722" lon="6.70637">
        <ele>360</ele>
        <time>2016-12-11T09:24:09.999Z</time>
      </trkpt>
      <trkpt lat="47.52721" lon="6.70633">
        <ele>360</ele>
        <time>2016-12-11T09:24:10.999Z</time>
      </trkpt>
      <trkpt lat="47.5272" lon="6.70629">
        <ele>360</ele>
        <time>2016-12-11T09:24:11.999Z</time>
      </trkpt>
      <trkpt lat="47.52722" lon="6.70624">
        <ele>359</ele>
        <time>2016-12-11T09:24:12.999Z</time>
      </trkpt>
      <trkpt lat="47.52728" lon="6.70616">
        <ele>358</ele>
        <time>2016-12-11T09:24:13.999Z</time>
      </trkpt>
      <trkpt lat="47.52733" lon="6.7061">
        <ele>357</ele>
        <time>2016-12-11T09:24:14.999Z</time>
      </trkpt>
      <trkpt lat="47.52737" lon="6.70608">
        <ele>356</ele>
        <time>2016-12-11T09:24:15.999Z</time>
      </trkpt>
      <trkpt lat="47.52743" lon="6.70607">
        <ele>356</ele>
        <time>2016-12-11T09:24:16.999Z</time>
      </trkpt>
      <trkpt lat="47.52747" lon="6.70605">
        <ele>355</ele>
        <time>2016-12-11T09:24:17.999Z</time>
      </trkpt>
      <trkpt lat="47.5275" lon="6.70603">
        <ele>350</ele>
        <time>2016-12-11T09:24:18.999Z</time>
      </trkpt>
      <trkpt lat="47.52754" lon="6.70603">
        <ele>350</ele>
        <time>2016-12-11T09:24:19.999Z</time>
      </trkpt>
      <trkpt lat="47.52757" lon="6.70602">
        <ele>350</ele>
        <time>2016-12-11T09:24:20.999Z</time>
      </trkpt>
      <trkpt lat="47.5276" lon="6.70602">
        <ele>350</ele>
        <time>2016-12-11T09:24:21.999Z</time>
      </trkpt>
      <trkpt lat="47.52763" lon="6.70603">
        <ele>350</ele>
        <time>2016-12-11T09:24:22.999Z</time>
      </trkpt>
      <trkpt lat="47.52766" lon="6.70603">
        <ele>350</ele>
        <time>2016-12-11T09:24:23.999Z</time>
      </trkpt>
      <trkpt lat="47.52769" lon="6.706">
        <ele>350</ele>
        <time>2016-12-11T09:24:25.999Z</time>
      </trkpt>
      <trkpt lat="47.5277" lon="6.70599">
        <ele>350</ele>
        <time>2016-12-11T09:24:26.999Z</time>
      </trkpt>
      <trkpt lat="47.5277" lon="6.70599">
        <ele>350</ele>
        <time>2016-12-11T09:24:29.999Z</time>
      </trkpt>
      <trkpt lat="47.52778" lon="6.70586">
        <ele>350</ele>
        <time>2016-12-11T09:24:30.999Z</time>
      </trkpt>
      <trkpt lat="47.52778" lon="6.70581">
        <ele>348</ele>
        <time>2016-12-11T09:24:31.999Z</time>
      </trkpt>
      <trkpt lat="47.52779" lon="6.70576">
        <ele>348</ele>
        <time>2016-12-11T09:24:32.999Z</time>
      </trkpt>
      <trkpt lat="47.52779" lon="6.7057">
        <ele>348</ele>
        <time>2016-12-11T09:24:34.999Z</time>
      </trkpt>
      <trkpt lat="47.52779" lon="6.70567">
        <ele>348</ele>
        <time>2016-12-11T09:24:35.999Z</time>
      </trkpt>
      <trkpt lat="47.5278" lon="6.70563">
        <ele>348</ele>
        <time>2016-12-11T09:24:36.999Z</time>
      </trkpt>
      <trkpt lat="47.5278" lon="6.7056">
        <ele>348</ele>
        <time>2016-12-11T09:24:37.999Z</time>
      </trkpt>
      <trkpt lat="47.52782" lon="6.70556">
        <ele>348</ele>
        <time>2016-12-11T09:24:52.999Z</time>
      </trkpt>
      <trkpt lat="47.52791" lon="6.70555">
        <ele>348</ele>
        <time>2016-12-11T09:24:53.999Z</time>
      </trkpt>
      <trkpt lat="47.52791" lon="6.70555">
        <ele>348</ele>
        <time>2016-12-11T09:24:59.999Z</time>
      </trkpt>
      <trkpt lat="47.52802" lon="6.70557">
        <ele>348</ele>
        <time>2016-12-11T09:25:00.999Z</time>
      </trkpt>
      <trkpt lat="47.52802" lon="6.70557">
        <ele>348</ele>
        <time>2016-12-11T09:25:05.999Z</time>
      </trkpt>
      <trkpt lat="47.5281" lon="6.70565">
        <ele>349</ele>
        <time>2016-12-11T09:25:06.999Z</time>
      </trkpt>
      <trkpt lat="47.52812" lon="6.70567">
        <ele>349</ele>
        <time>2016-12-11T09:25:08.999Z</time>
      </trkpt>
      <trkpt lat="47.52814" lon="6.70568">
        <ele>349</ele>
        <time>2016-12-11T09:25:09.999Z</time>
      </trkpt>
      <trkpt lat="47.52816" lon="6.70569">
        <ele>349</ele>
        <time>2016-12-11T09:25:10.999Z</time>
      </trkpt>
      <trkpt lat="47.52819" lon="6.70571">
        <ele>349</ele>
        <time>2016-12-11T09:25:11.999Z</time>
      </trkpt>
      <trkpt lat="47.52821" lon="6.70572">
        <ele>349</ele>
        <time>2016-12-11T09:25:12.999Z</time>
      </trkpt>
      <trkpt lat="47.52823" lon="6.70573">
        <ele>349</ele>
        <time>2016-12-11T09:25:13.999Z</time>
      </trkpt>
      <trkpt lat="47.52826" lon="6.70575">
        <ele>349</ele>
        <time>2016-12-11T09:25:14.999Z</time>
      </trkpt>
      <trkpt lat="47.52829" lon="6.70576">
        <ele>349</ele>
        <time>2016-12-11T09:25:15.999Z</time>
      </trkpt>
      <trkpt lat="47.52831" lon="6.70577">
        <ele>350</ele>
        <time>2016-12-11T09:25:20.999Z</time>
      </trkpt>
      <trkpt lat="47.52839" lon="6.70578">
        <ele>352</ele>
        <time>2016-12-11T09:25:21.999Z</time>
      </trkpt>
      <trkpt lat="47.52843" lon="6.70579">
        <ele>353</ele>
        <time>2016-12-11T09:25:30.999Z</time>
      </trkpt>
      <trkpt lat="47.52851" lon="6.70557">
        <ele>355</ele>
        <time>2016-12-11T09:25:31.999Z</time>
      </trkpt>
      <trkpt lat="47.52851" lon="6.70557">
        <ele>355</ele>
        <time>2016-12-11T09:25:33.999Z</time>
      </trkpt>
      <trkpt lat="47.52853" lon="6.70547">
        <ele>355</ele>
        <time>2016-12-11T09:25:34.999Z</time>
      </trkpt>
      <trkpt lat="47.52853" lon="6.70544">
        <ele>355</ele>
        <time>2016-12-11T09:25:35.999Z</time>
      </trkpt>
      <trkpt lat="47.52853" lon="6.7054">
        <ele>355</ele>
        <time>2016-12-11T09:25:36.999Z</time>
      </trkpt>
      <trkpt lat="47.52853" lon="6.70534">
        <ele>355</ele>
        <time>2016-12-11T09:25:38.999Z</time>
      </trkpt>
      <trkpt lat="47.52853" lon="6.70531">
        <ele>355</ele>
        <time>2016-12-11T09:25:39.999Z</time>
      </trkpt>
      <trkpt lat="47.52853" lon="6.70524">
        <ele>355</ele>
        <time>2016-12-11T09:25:41.999Z</time>
      </trkpt>
      <trkpt lat="47.52852" lon="6.7052">
        <ele>354</ele>
        <time>2016-12-11T09:25:42.999Z</time>
      </trkpt>
      <trkpt lat="47.52853" lon="6.70516">
        <ele>354</ele>
        <time>2016-12-11T09:25:43.999Z</time>
      </trkpt>
      <trkpt lat="47.52852" lon="6.70511">
        <ele>354</ele>
        <time>2016-12-11T09:25:44.999Z</time>
      </trkpt>
      <trkpt lat="47.52851" lon="6.70507">
        <ele>353</ele>
        <time>2016-12-11T09:25:45.999Z</time>
      </trkpt>
      <trkpt lat="47.5285" lon="6.70503">
        <ele>353</ele>
        <time>2016-12-11T09:25:46.999Z</time>
      </trkpt>
      <trkpt lat="47.5285" lon="6.70499">
        <ele>351</ele>
        <time>2016-12-11T09:25:47.999Z</time>
      </trkpt>
      <trkpt lat="47.52848" lon="6.70494">
        <ele>351</ele>
        <time>2016-12-11T09:25:48.999Z</time>
      </trkpt>
      <trkpt lat="47.52846" lon="6.70487">
        <ele>351</ele>
        <time>2016-12-11T09:25:49.999Z</time>
      </trkpt>
      <trkpt lat="47.52844" lon="6.70482">
        <ele>351</ele>
        <time>2016-12-11T09:25:50.999Z</time>
      </trkpt>
      <trkpt lat="47.52842" lon="6.70478">
        <ele>351</ele>
        <time>2016-12-11T09:25:51.999Z</time>
      </trkpt>
      <trkpt lat="47.5284" lon="6.70472">
        <ele>351</ele>
        <time>2016-12-11T09:25:52.999Z</time>
      </trkpt>
      <trkpt lat="47.52838" lon="6.70466">
        <ele>351</ele>
        <time>2016-12-11T09:25:53.999Z</time>
      </trkpt>
      <trkpt lat="47.52836" lon="6.70462">
        <ele>351</ele>
        <time>2016-12-11T09:25:54.999Z</time>
      </trkpt>
      <trkpt lat="47.52834" lon="6.70458">
        <ele>350</ele>
        <time>2016-12-11T09:25:55.999Z</time>
      </trkpt>
      <trkpt lat="47.52832" lon="6.70456">
        <ele>346</ele>
        <time>2016-12-11T09:25:56.999Z</time>
      </trkpt>
      <trkpt lat="47.5283" lon="6.70452">
        <ele>346</ele>
        <time>2016-12-11T09:25:57.999Z</time>
      </trkpt>
      <trkpt lat="47.52829" lon="6.70449">
        <ele>346</ele>
        <time>2016-12-11T09:25:58.999Z</time>
      </trkpt>
      <trkpt lat="47.52828" lon="6.70446">
        <ele>346</ele>
        <time>2016-12-11T09:25:59.999Z</time>
      </trkpt>
      <trkpt lat="47.52828" lon="6.70442">
        <ele>346</ele>
        <time>2016-12-11T09:26:00.999Z</time>
      </trkpt>
      <trkpt lat="47.52828" lon="6.70438">
        <ele>346</ele>
        <time>2016-12-11T09:26:01.999Z</time>
      </trkpt>
      <trkpt lat="47.5283" lon="6.70434">
        <ele>346</ele>
        <time>2016-12-11T09:26:02.999Z</time>
      </trkpt>
      <trkpt lat="47.52833" lon="6.70432">
        <ele>346</ele>
        <time>2016-12-11T09:26:04.999Z</time>
      </trkpt>
      <trkpt lat="47.52835" lon="6.70432">
        <ele>349</ele>
        <time>2016-12-11T09:26:05.999Z</time>
      </trkpt>
      <trkpt lat="47.52839" lon="6.70434">
        <ele>349</ele>
        <time>2016-12-11T09:26:07.999Z</time>
      </trkpt>
      <trkpt lat="47.52842" lon="6.70434">
        <ele>349</ele>
        <time>2016-12-11T09:26:08.999Z</time>
      </trkpt>
      <trkpt lat="47.52845" lon="6.70435">
        <ele>349</ele>
        <time>2016-12-11T09:26:09.999Z</time>
      </trkpt>
      <trkpt lat="47.52848" lon="6.70435">
        <ele>350</ele>
        <time>2016-12-11T09:26:10.999Z</time>
      </trkpt>
      <trkpt lat="47.52852" lon="6.70436">
        <ele>350</ele>
        <time>2016-12-11T09:26:12.999Z</time>
      </trkpt>
      <trkpt lat="47.52854" lon="6.70438">
        <ele>350</ele>
        <time>2016-12-11T09:26:13.999Z</time>
      </trkpt>
      <trkpt lat="47.52857" lon="6.70439">
        <ele>350</ele>
        <time>2016-12-11T09:26:14.999Z</time>
      </trkpt>
      <trkpt lat="47.52859" lon="6.70441">
        <ele>351</ele>
        <time>2016-12-11T09:26:15.999Z</time>
      </trkpt>
      <trkpt lat="47.52861" lon="6.70444">
        <ele>351</ele>
        <time>2016-12-11T09:26:16.999Z</time>
      </trkpt>
      <trkpt lat="47.52863" lon="6.70445">
        <ele>351</ele>
        <time>2016-12-11T09:26:17.999Z</time>
      </trkpt>
      <trkpt lat="47.52866" lon="6.70447">
        <ele>351</ele>
        <time>2016-12-11T09:26:19.999Z</time>
      </trkpt>
      <trkpt lat="47.52869" lon="6.70448">
        <ele>352</ele>
        <time>2016-12-11T09:26:20.999Z</time>
      </trkpt>
      <trkpt lat="47.52872" lon="6.70449">
        <ele>352</ele>
        <time>2016-12-11T09:26:21.999Z</time>
      </trkpt>
      <trkpt lat="47.52874" lon="6.7045">
        <ele>352</ele>
        <time>2016-12-11T09:26:22.999Z</time>
      </trkpt>
      <trkpt lat="47.52877" lon="6.70451">
        <ele>352</ele>
        <time>2016-12-11T09:26:24.999Z</time>
      </trkpt>
      <trkpt lat="47.5288" lon="6.70452">
        <ele>352</ele>
        <time>2016-12-11T09:26:25.999Z</time>
      </trkpt>
      <trkpt lat="47.52883" lon="6.70451">
        <ele>352</ele>
        <time>2016-12-11T09:26:27.999Z</time>
      </trkpt>
      <trkpt lat="47.52885" lon="6.70452">
        <ele>353</ele>
        <time>2016-12-11T09:26:28.999Z</time>
      </trkpt>
      <trkpt lat="47.52888" lon="6.70453">
        <ele>353</ele>
        <time>2016-12-11T09:26:29.999Z</time>
      </trkpt>
      <trkpt lat="47.5289" lon="6.70454">
        <ele>353</ele>
        <time>2016-12-11T09:26:30.999Z</time>
      </trkpt>
      <trkpt lat="47.52892" lon="6.70454">
        <ele>353</ele>
        <time>2016-12-11T09:26:31.999Z</time>
      </trkpt>
      <trkpt lat="47.52895" lon="6.70456">
        <ele>353</ele>
        <time>2016-12-11T09:26:32.999Z</time>
      </trkpt>
      <trkpt lat="47.52899" lon="6.70456">
        <ele>353</ele>
        <time>2016-12-11T09:26:34.999Z</time>
      </trkpt>
      <trkpt lat="47.52902" lon="6.70457">
        <ele>354</ele>
        <time>2016-12-11T09:26:35.999Z</time>
      </trkpt>
      <trkpt lat="47.52906" lon="6.70457">
        <ele>354</ele>
        <time>2016-12-11T09:26:37.999Z</time>
      </trkpt>
      <trkpt lat="47.52908" lon="6.70458">
        <ele>354</ele>
        <time>2016-12-11T09:26:38.999Z</time>
      </trkpt>
      <trkpt lat="47.5291" lon="6.70458">
        <ele>354</ele>
        <time>2016-12-11T09:26:39.999Z</time>
      </trkpt>
      <trkpt lat="47.52912" lon="6.70459">
        <ele>354</ele>
        <time>2016-12-11T09:26:40.999Z</time>
      </trkpt>
      <trkpt lat="47.52916" lon="6.7046">
        <ele>354</ele>
        <time>2016-12-11T09:26:42.999Z</time>
      </trkpt>
      <trkpt lat="47.52917" lon="6.7046">
        <ele>361</ele>
        <time>2016-12-11T09:26:43.999Z</time>
      </trkpt>
      <trkpt lat="47.52917" lon="6.7046">
        <ele>361</ele>
        <time>2016-12-11T09:26:47.999Z</time>
      </trkpt>
      <trkpt lat="47.52928" lon="6.70462">
        <ele>361</ele>
        <time>2016-12-11T09:26:48.999Z</time>
      </trkpt>
      <trkpt lat="47.52928" lon="6.70462">
        <ele>361</ele>
        <time>2016-12-11T09:26:49.999Z</time>
      </trkpt>
      <trkpt lat="47.52933" lon="6.70463">
        <ele>362</ele>
        <time>2016-12-11T09:26:50.999Z</time>
      </trkpt>
      <trkpt lat="47.52936" lon="6.70464">
        <ele>362</ele>
        <time>2016-12-11T09:26:51.999Z</time>
      </trkpt>
      <trkpt lat="47.52938" lon="6.70465">
        <ele>362</ele>
        <time>2016-12-11T09:26:52.999Z</time>
      </trkpt>
      <trkpt lat="47.52938" lon="6.70465">
        <ele>362</ele>
        <time>2016-12-11T09:26:59.999Z</time>
      </trkpt>
      <trkpt lat="47.52951" lon="6.70472">
        <ele>363</ele>
        <time>2016-12-11T09:27:00.999Z</time>
      </trkpt>
      <trkpt lat="47.52951" lon="6.70472">
        <ele>363</ele>
        <time>2016-12-11T09:27:08.999Z</time>
      </trkpt>
      <trkpt lat="47.52964" lon="6.70478">
        <ele>365</ele>
        <time>2016-12-11T09:27:09.999Z</time>
      </trkpt>
      <trkpt lat="47.52964" lon="6.70478">
        <ele>365</ele>
        <time>2016-12-11T09:27:16.999Z</time>
      </trkpt>
      <trkpt lat="47.52976" lon="6.70484">
        <ele>366</ele>
        <time>2016-12-11T09:27:17.999Z</time>
      </trkpt>
      <trkpt lat="47.52976" lon="6.70484">
        <ele>366</ele>
        <time>2016-12-11T09:27:21.999Z</time>
      </trkpt>
      <trkpt lat="47.5299" lon="6.70487">
        <ele>368</ele>
        <time>2016-12-11T09:27:22.999Z</time>
      </trkpt>
      <trkpt lat="47.5299" lon="6.70487">
        <ele>368</ele>
        <time>2016-12-11T09:27:32.999Z</time>
      </trkpt>
      <trkpt lat="47.53004" lon="6.70483">
        <ele>375</ele>
        <time>2016-12-11T09:27:33.999Z</time>
      </trkpt>
      <trkpt lat="47.53004" lon="6.70483">
        <ele>375</ele>
        <time>2016-12-11T09:27:38.999Z</time>
      </trkpt>
      <trkpt lat="47.53016" lon="6.70486">
        <ele>376</ele>
        <time>2016-12-11T09:27:39.999Z</time>
      </trkpt>
      <trkpt lat="47.53016" lon="6.70486">
        <ele>376</ele>
        <time>2016-12-11T09:27:46.999Z</time>
      </trkpt>
      <trkpt lat="47.53031" lon="6.70492">
        <ele>377</ele>
        <time>2016-12-11T09:27:47.999Z</time>
      </trkpt>
      <trkpt lat="47.53031" lon="6.70492">
        <ele>377</ele>
        <time>2016-12-11T09:27:50.999Z</time>
      </trkpt>
      <trkpt lat="47.53039" lon="6.70495">
        <ele>378</ele>
        <time>2016-12-11T09:27:51.999Z</time>
      </trkpt>
      <trkpt lat="47.53039" lon="6.70495">
        <ele>378</ele>
        <time>2016-12-11T09:27:55.999Z</time>
      </trkpt>
      <trkpt lat="47.53046" lon="6.705">
        <ele>384</ele>
        <time>2016-12-11T09:27:56.999Z</time>
      </trkpt>
      <trkpt lat="47.53046" lon="6.705">
        <ele>384</ele>
        <time>2016-12-11T09:28:01.999Z</time>
      </trkpt>
      <trkpt lat="47.53053" lon="6.70499">
        <ele>381</ele>
        <time>2016-12-11T09:28:02.999Z</time>
      </trkpt>
      <trkpt lat="47.53057" lon="6.70502">
        <ele>386</ele>
        <time>2016-12-11T09:28:08.999Z</time>
      </trkpt>
      <trkpt lat="47.53057" lon="6.70503">
        <ele>386</ele>
        <time>2016-12-11T09:28:09.999Z</time>
      </trkpt>
      <trkpt lat="47.5306" lon="6.70506">
        <ele>386</ele>
        <time>2016-12-11T09:28:12.999Z</time>
      </trkpt>
      <trkpt lat="47.53062" lon="6.70508">
        <ele>386</ele>
        <time>2016-12-11T09:28:13.999Z</time>
      </trkpt>
      <trkpt lat="47.53066" lon="6.7051">
        <ele>387</ele>
        <time>2016-12-11T09:28:16.999Z</time>
      </trkpt>
      <trkpt lat="47.53067" lon="6.70511">
        <ele>387</ele>
        <time>2016-12-11T09:28:17.999Z</time>
      </trkpt>
      <trkpt lat="47.53069" lon="6.70509">
        <ele>387</ele>
        <time>2016-12-11T09:28:20.999Z</time>
      </trkpt>
      <trkpt lat="47.53071" lon="6.70508">
        <ele>388</ele>
        <time>2016-12-11T09:28:21.999Z</time>
      </trkpt>
      <trkpt lat="47.53074" lon="6.70508">
        <ele>388</ele>
        <time>2016-12-11T09:28:22.999Z</time>
      </trkpt>
      <trkpt lat="47.53076" lon="6.70506">
        <ele>388</ele>
        <time>2016-12-11T09:28:23.999Z</time>
      </trkpt>
      <trkpt lat="47.53079" lon="6.70504">
        <ele>389</ele>
        <time>2016-12-11T09:28:26.999Z</time>
      </trkpt>
      <trkpt lat="47.53081" lon="6.70502">
        <ele>389</ele>
        <time>2016-12-11T09:28:27.999Z</time>
      </trkpt>
      <trkpt lat="47.53085" lon="6.70499">
        <ele>390</ele>
        <time>2016-12-11T09:28:30.999Z</time>
      </trkpt>
      <trkpt lat="47.53086" lon="6.70499">
        <ele>390</ele>
        <time>2016-12-11T09:28:31.999Z</time>
      </trkpt>
      <trkpt lat="47.53089" lon="6.70496">
        <ele>391</ele>
        <time>2016-12-11T09:28:34.999Z</time>
      </trkpt>
      <trkpt lat="47.5309" lon="6.70495">
        <ele>391</ele>
        <time>2016-12-11T09:28:35.999Z</time>
      </trkpt>
      <trkpt lat="47.53092" lon="6.70493">
        <ele>391</ele>
        <time>2016-12-11T09:28:38.999Z</time>
      </trkpt>
      <trkpt lat="47.53094" lon="6.70491">
        <ele>391</ele>
        <time>2016-12-11T09:28:39.999Z</time>
      </trkpt>
      <trkpt lat="47.53096" lon="6.7049">
        <ele>391</ele>
        <time>2016-12-11T09:28:40.999Z</time>
      </trkpt>
      <trkpt lat="47.53098" lon="6.70488">
        <ele>391</ele>
        <time>2016-12-11T09:28:41.999Z</time>
      </trkpt>
      <trkpt lat="47.53101" lon="6.70484">
        <ele>392</ele>
        <time>2016-12-11T09:28:43.999Z</time>
      </trkpt>
      <trkpt lat="47.53103" lon="6.70482">
        <ele>392</ele>
        <time>2016-12-11T09:28:44.999Z</time>
      </trkpt>
      <trkpt lat="47.53106" lon="6.70481">
        <ele>392</ele>
        <time>2016-12-11T09:28:45.999Z</time>
      </trkpt>
      <trkpt lat="47.53108" lon="6.70478">
        <ele>392</ele>
        <time>2016-12-11T09:28:46.999Z</time>
      </trkpt>
      <trkpt lat="47.53111" lon="6.70475">
        <ele>392</ele>
        <time>2016-12-11T09:28:50.999Z</time>
      </trkpt>
      <trkpt lat="47.53112" lon="6.70473">
        <ele>392</ele>
        <time>2016-12-11T09:28:51.999Z</time>
      </trkpt>
      <trkpt lat="47.53115" lon="6.70469">
        <ele>392</ele>
        <time>2016-12-11T09:28:56.999Z</time>
      </trkpt>
      <trkpt lat="47.53115" lon="6.70469">
        <ele>392</ele>
        <time>2016-12-11T09:28:57.999Z</time>
      </trkpt>
      <trkpt lat="47.53119" lon="6.70466">
        <ele>392</ele>
        <time>2016-12-11T09:28:59.999Z</time>
      </trkpt>
      <trkpt lat="47.5312" lon="6.70466">
        <ele>392</ele>
        <time>2016-12-11T09:29:00.999Z</time>
      </trkpt>
      <trkpt lat="47.53123" lon="6.70463">
        <ele>393</ele>
        <time>2016-12-11T09:29:03.999Z</time>
      </trkpt>
      <trkpt lat="47.53123" lon="6.70462">
        <ele>393</ele>
        <time>2016-12-11T09:29:04.999Z</time>
      </trkpt>
      <trkpt lat="47.53126" lon="6.70459">
        <ele>393</ele>
        <time>2016-12-11T09:29:08.999Z</time>
      </trkpt>
      <trkpt lat="47.53127" lon="6.70458">
        <ele>393</ele>
        <time>2016-12-11T09:29:09.999Z</time>
      </trkpt>
      <trkpt lat="47.53131" lon="6.70455">
        <ele>393</ele>
        <time>2016-12-11T09:29:12.999Z</time>
      </trkpt>
      <trkpt lat="47.53133" lon="6.70453">
        <ele>393</ele>
        <time>2016-12-11T09:29:13.999Z</time>
      </trkpt>
      <trkpt lat="47.53135" lon="6.70451">
        <ele>393</ele>
        <time>2016-12-11T09:29:14.999Z</time>
      </trkpt>
      <trkpt lat="47.53137" lon="6.70449">
        <ele>393</ele>
        <time>2016-12-11T09:29:15.999Z</time>
      </trkpt>
      <trkpt lat="47.5314" lon="6.70446">
        <ele>393</ele>
        <time>2016-12-11T09:29:16.999Z</time>
      </trkpt>
      <trkpt lat="47.53143" lon="6.70444">
        <ele>393</ele>
        <time>2016-12-11T09:29:17.999Z</time>
      </trkpt>
      <trkpt lat="47.53145" lon="6.70442">
        <ele>394</ele>
        <time>2016-12-11T09:29:18.999Z</time>
      </trkpt>
      <trkpt lat="47.53148" lon="6.70439">
        <ele>394</ele>
        <time>2016-12-11T09:29:19.999Z</time>
      </trkpt>
      <trkpt lat="47.5315" lon="6.70436">
        <ele>394</ele>
        <time>2016-12-11T09:29:20.999Z</time>
      </trkpt>
      <trkpt lat="47.53152" lon="6.70433">
        <ele>394</ele>
        <time>2016-12-11T09:29:21.999Z</time>
      </trkpt>
      <trkpt lat="47.53155" lon="6.70431">
        <ele>394</ele>
        <time>2016-12-11T09:29:24.999Z</time>
      </trkpt>
      <trkpt lat="47.53156" lon="6.70429">
        <ele>394</ele>
        <time>2016-12-11T09:29:25.999Z</time>
      </trkpt>
      <trkpt lat="47.53158" lon="6.70427">
        <ele>395</ele>
        <time>2016-12-11T09:29:26.999Z</time>
      </trkpt>
      <trkpt lat="47.53161" lon="6.70425">
        <ele>395</ele>
        <time>2016-12-11T09:29:27.999Z</time>
      </trkpt>
      <trkpt lat="47.53164" lon="6.70426">
        <ele>395</ele>
        <time>2016-12-11T09:29:29.999Z</time>
      </trkpt>
      <trkpt lat="47.53165" lon="6.70425">
        <ele>395</ele>
        <time>2016-12-11T09:29:30.999Z</time>
      </trkpt>
      <trkpt lat="47.53169" lon="6.70423">
        <ele>398</ele>
        <time>2016-12-11T09:29:32.999Z</time>
      </trkpt>
      <trkpt lat="47.53171" lon="6.70422">
        <ele>398</ele>
        <time>2016-12-11T09:29:33.999Z</time>
      </trkpt>
      <trkpt lat="47.53175" lon="6.7042">
        <ele>398</ele>
        <time>2016-12-11T09:29:37.999Z</time>
      </trkpt>
      <trkpt lat="47.53176" lon="6.70419">
        <ele>399</ele>
        <time>2016-12-11T09:29:38.999Z</time>
      </trkpt>
      <trkpt lat="47.5318" lon="6.70417">
        <ele>399</ele>
        <time>2016-12-11T09:29:40.999Z</time>
      </trkpt>
      <trkpt lat="47.53182" lon="6.70416">
        <ele>396</ele>
        <time>2016-12-11T09:29:41.999Z</time>
      </trkpt>
      <trkpt lat="47.53186" lon="6.70413">
        <ele>396</ele>
        <time>2016-12-11T09:29:43.999Z</time>
      </trkpt>
      <trkpt lat="47.53188" lon="6.70411">
        <ele>396</ele>
        <time>2016-12-11T09:29:44.999Z</time>
      </trkpt>
      <trkpt lat="47.53195" lon="6.70407">
        <ele>397</ele>
        <time>2016-12-11T09:29:45.999Z</time>
      </trkpt>
      <trkpt lat="47.532" lon="6.70404">
        <ele>397</ele>
        <time>2016-12-11T09:29:46.999Z</time>
      </trkpt>
      <trkpt lat="47.53202" lon="6.70403">
        <ele>397</ele>
        <time>2016-12-11T09:29:47.999Z</time>
      </trkpt>
      <trkpt lat="47.53205" lon="6.704">
        <ele>397</ele>
        <time>2016-12-11T09:29:48.999Z</time>
      </trkpt>
      <trkpt lat="47.53207" lon="6.70398">
        <ele>397</ele>
        <time>2016-12-11T09:29:49.999Z</time>
      </trkpt>
      <trkpt lat="47.53209" lon="6.70396">
        <ele>397</ele>
        <time>2016-12-11T09:29:50.999Z</time>
      </trkpt>
      <trkpt lat="47.53213" lon="6.70393">
        <ele>397</ele>
        <time>2016-12-11T09:29:53.999Z</time>
      </trkpt>
      <trkpt lat="47.53214" lon="6.70392">
        <ele>397</ele>
        <time>2016-12-11T09:29:54.999Z</time>
      </trkpt>
      <trkpt lat="47.53218" lon="6.70389">
        <ele>397</ele>
        <time>2016-12-11T09:29:57.999Z</time>
      </trkpt>
      <trkpt lat="47.53219" lon="6.70389">
        <ele>397</ele>
        <time>2016-12-11T09:29:58.999Z</time>
      </trkpt>
      <trkpt lat="47.53221" lon="6.70388">
        <ele>397</ele>
        <time>2016-12-11T09:30:00.999Z</time>
      </trkpt>
      <trkpt lat="47.53223" lon="6.70387">
        <ele>398</ele>
        <time>2016-12-11T09:30:01.999Z</time>
      </trkpt>
      <trkpt lat="47.53226" lon="6.70385">
        <ele>398</ele>
        <time>2016-12-11T09:30:03.999Z</time>
      </trkpt>
      <trkpt lat="47.53228" lon="6.70384">
        <ele>398</ele>
        <time>2016-12-11T09:30:04.999Z</time>
      </trkpt>
      <trkpt lat="47.53231" lon="6.70382">
        <ele>398</ele>
        <time>2016-12-11T09:30:07.999Z</time>
      </trkpt>
      <trkpt lat="47.53232" lon="6.70382">
        <ele>398</ele>
        <time>2016-12-11T09:30:08.999Z</time>
      </trkpt>
      <trkpt lat="47.53236" lon="6.70379">
        <ele>398</ele>
        <time>2016-12-11T09:30:11.999Z</time>
      </trkpt>
      <trkpt lat="47.53238" lon="6.70378">
        <ele>398</ele>
        <time>2016-12-11T09:30:12.999Z</time>
      </trkpt>
      <trkpt lat="47.53241" lon="6.70376">
        <ele>398</ele>
        <time>2016-12-11T09:30:14.999Z</time>
      </trkpt>
      <trkpt lat="47.53243" lon="6.70375">
        <ele>398</ele>
        <time>2016-12-11T09:30:15.999Z</time>
      </trkpt>
      <trkpt lat="47.53246" lon="6.70373">
        <ele>398</ele>
        <time>2016-12-11T09:30:17.999Z</time>
      </trkpt>
      <trkpt lat="47.53248" lon="6.70373">
        <ele>398</ele>
        <time>2016-12-11T09:30:18.999Z</time>
      </trkpt>
      <trkpt lat="47.53251" lon="6.70372">
        <ele>402</ele>
        <time>2016-12-11T09:30:20.999Z</time>
      </trkpt>
      <trkpt lat="47.53253" lon="6.70371">
        <ele>402</ele>
        <time>2016-12-11T09:30:21.999Z</time>
      </trkpt>
      <trkpt lat="47.53256" lon="6.70369">
        <ele>402</ele>
        <time>2016-12-11T09:30:24.999Z</time>
      </trkpt>
      <trkpt lat="47.53258" lon="6.70368">
        <ele>402</ele>
        <time>2016-12-11T09:30:25.999Z</time>
      </trkpt>
      <trkpt lat="47.53262" lon="6.70367">
        <ele>402</ele>
        <time>2016-12-11T09:30:27.999Z</time>
      </trkpt>
      <trkpt lat="47.53265" lon="6.70366">
        <ele>402</ele>
        <time>2016-12-11T09:30:28.999Z</time>
      </trkpt>
      <trkpt lat="47.53269" lon="6.70366">
        <ele>402</ele>
        <time>2016-12-11T09:30:30.999Z</time>
      </trkpt>
      <trkpt lat="47.53271" lon="6.70367">
        <ele>402</ele>
        <time>2016-12-11T09:30:31.999Z</time>
      </trkpt>
      <trkpt lat="47.53274" lon="6.70366">
        <ele>402</ele>
        <time>2016-12-11T09:30:33.999Z</time>
      </trkpt>
      <trkpt lat="47.53276" lon="6.70365">
        <ele>402</ele>
        <time>2016-12-11T09:30:34.999Z</time>
      </trkpt>
      <trkpt lat="47.5328" lon="6.70363">
        <ele>402</ele>
        <time>2016-12-11T09:30:36.999Z</time>
      </trkpt>
      <trkpt lat="47.53281" lon="6.70363">
        <ele>402</ele>
        <time>2016-12-11T09:30:37.999Z</time>
      </trkpt>
      <trkpt lat="47.53283" lon="6.70362">
        <ele>402</ele>
        <time>2016-12-11T09:30:38.999Z</time>
      </trkpt>
      <trkpt lat="47.53285" lon="6.7036">
        <ele>402</ele>
        <time>2016-12-11T09:30:39.999Z</time>
      </trkpt>
      <trkpt lat="47.53289" lon="6.70358">
        <ele>402</ele>
        <time>2016-12-11T09:31:51.999Z</time>
      </trkpt>
      <trkpt lat="47.5329" lon="6.70359">
        <ele>402</ele>
        <time>2016-12-11T09:31:52.999Z</time>
      </trkpt>
      <trkpt lat="47.53291" lon="6.70354">
        <ele>402</ele>
        <time>2016-12-11T09:32:19.999Z</time>
      </trkpt>
      <trkpt lat="47.53291" lon="6.70351">
        <ele>402</ele>
        <time>2016-12-11T09:32:20.999Z</time>
      </trkpt>
      <trkpt lat="47.53289" lon="6.70347">
        <ele>402</ele>
        <time>2016-12-11T09:32:21.999Z</time>
      </trkpt>
      <trkpt lat="47.53287" lon="6.70339">
        <ele>402</ele>
        <time>2016-12-11T09:32:22.999Z</time>
      </trkpt>
      <trkpt lat="47.53284" lon="6.70334">
        <ele>401</ele>
        <time>2016-12-11T09:32:23.999Z</time>
      </trkpt>
      <trkpt lat="47.53283" lon="6.70324">
        <ele>394</ele>
        <time>2016-12-11T09:32:24.999Z</time>
      </trkpt>
      <trkpt lat="47.53283" lon="6.70312">
        <ele>393</ele>
        <time>2016-12-11T09:32:25.999Z</time>
      </trkpt>
      <trkpt lat="47.53283" lon="6.70299">
        <ele>392</ele>
        <time>2016-12-11T09:32:26.999Z</time>
      </trkpt>
      <trkpt lat="47.53281" lon="6.70286">
        <ele>391</ele>
        <time>2016-12-11T09:32:27.999Z</time>
      </trkpt>
      <trkpt lat="47.53278" lon="6.70277">
        <ele>390</ele>
        <time>2016-12-11T09:32:28.999Z</time>
      </trkpt>
      <trkpt lat="47.53281" lon="6.70259">
        <ele>389</ele>
        <time>2016-12-11T09:32:29.999Z</time>
      </trkpt>
      <trkpt lat="47.53284" lon="6.70249">
        <ele>381</ele>
        <time>2016-12-11T09:32:30.999Z</time>
      </trkpt>
      <trkpt lat="47.53288" lon="6.7024">
        <ele>381</ele>
        <time>2016-12-11T09:32:31.999Z</time>
      </trkpt>
      <trkpt lat="47.53293" lon="6.70229">
        <ele>380</ele>
        <time>2016-12-11T09:32:32.999Z</time>
      </trkpt>
      <trkpt lat="47.53297" lon="6.70218">
        <ele>380</ele>
        <time>2016-12-11T09:32:33.999Z</time>
      </trkpt>
      <trkpt lat="47.53299" lon="6.70207">
        <ele>379</ele>
        <time>2016-12-11T09:32:34.999Z</time>
      </trkpt>
      <trkpt lat="47.53301" lon="6.70198">
        <ele>378</ele>
        <time>2016-12-11T09:32:35.999Z</time>
      </trkpt>
      <trkpt lat="47.53296" lon="6.70189">
        <ele>378</ele>
        <time>2016-12-11T09:32:36.999Z</time>
      </trkpt>
      <trkpt lat="47.53298" lon="6.70177">
        <ele>377</ele>
        <time>2016-12-11T09:32:37.999Z</time>
      </trkpt>
      <trkpt lat="47.533" lon="6.70166">
        <ele>371</ele>
        <time>2016-12-11T09:32:38.999Z</time>
      </trkpt>
      <trkpt lat="47.53302" lon="6.70158">
        <ele>371</ele>
        <time>2016-12-11T09:32:39.999Z</time>
      </trkpt>
      <trkpt lat="47.53307" lon="6.70149">
        <ele>371</ele>
        <time>2016-12-11T09:32:40.999Z</time>
      </trkpt>
      <trkpt lat="47.5331" lon="6.70138">
        <ele>370</ele>
        <time>2016-12-11T09:32:41.999Z</time>
      </trkpt>
      <trkpt lat="47.53311" lon="6.70128">
        <ele>370</ele>
        <time>2016-12-11T09:32:42.999Z</time>
      </trkpt>
      <trkpt lat="47.53314" lon="6.70122">
        <ele>370</ele>
        <time>2016-12-11T09:32:43.999Z</time>
      </trkpt>
      <trkpt lat="47.53315" lon="6.70115">
        <ele>369</ele>
        <time>2016-12-11T09:32:44.999Z</time>
      </trkpt>
      <trkpt lat="47.53317" lon="6.70107">
        <ele>369</ele>
        <time>2016-12-11T09:32:45.999Z</time>
      </trkpt>
      <trkpt lat="47.53318" lon="6.70097">
        <ele>368</ele>
        <time>2016-12-11T09:32:46.999Z</time>
      </trkpt>
      <trkpt lat="47.53317" lon="6.70091">
        <ele>368</ele>
        <time>2016-12-11T09:32:49.999Z</time>
      </trkpt>
      <trkpt lat="47.53316" lon="6.70085">
        <ele>368</ele>
        <time>2016-12-11T09:32:50.999Z</time>
      </trkpt>
      <trkpt lat="47.53316" lon="6.70079">
        <ele>366</ele>
        <time>2016-12-11T09:32:51.999Z</time>
      </trkpt>
      <trkpt lat="47.53317" lon="6.70074">
        <ele>366</ele>
        <time>2016-12-11T09:32:52.999Z</time>
      </trkpt>
      <trkpt lat="47.53318" lon="6.70058">
        <ele>366</ele>
        <time>2016-12-11T09:32:53.999Z</time>
      </trkpt>
      <trkpt lat="47.53318" lon="6.70049">
        <ele>365</ele>
        <time>2016-12-11T09:32:54.999Z</time>
      </trkpt>
      <trkpt lat="47.53315" lon="6.70037">
        <ele>365</ele>
        <time>2016-12-11T09:32:55.999Z</time>
      </trkpt>
      <trkpt lat="47.53314" lon="6.70029">
        <ele>365</ele>
        <time>2016-12-11T09:32:56.999Z</time>
      </trkpt>
      <trkpt lat="47.53311" lon="6.70019">
        <ele>365</ele>
        <time>2016-12-11T09:32:57.999Z</time>
      </trkpt>
      <trkpt lat="47.53308" lon="6.7001">
        <ele>365</ele>
        <time>2016-12-11T09:32:58.999Z</time>
      </trkpt>
      <trkpt lat="47.53305" lon="6.70002">
        <ele>364</ele>
        <time>2016-12-11T09:32:59.999Z</time>
      </trkpt>
      <trkpt lat="47.53302" lon="6.69993">
        <ele>361</ele>
        <time>2016-12-11T09:33:00.999Z</time>
      </trkpt>
      <trkpt lat="47.53299" lon="6.69985">
        <ele>361</ele>
        <time>2016-12-11T09:33:01.999Z</time>
      </trkpt>
      <trkpt lat="47.53297" lon="6.69977">
        <ele>361</ele>
        <time>2016-12-11T09:33:02.999Z</time>
      </trkpt>
      <trkpt lat="47.53296" lon="6.6997">
        <ele>361</ele>
        <time>2016-12-11T09:33:03.999Z</time>
      </trkpt>
      <trkpt lat="47.53295" lon="6.69963">
        <ele>360</ele>
        <time>2016-12-11T09:33:04.999Z</time>
      </trkpt>
      <trkpt lat="47.53295" lon="6.69959">
        <ele>360</ele>
        <time>2016-12-11T09:33:05.999Z</time>
      </trkpt>
      <trkpt lat="47.53297" lon="6.69955">
        <ele>360</ele>
        <time>2016-12-11T09:33:06.999Z</time>
      </trkpt>
      <trkpt lat="47.533" lon="6.69952">
        <ele>360</ele>
        <time>2016-12-11T09:33:07.999Z</time>
      </trkpt>
      <trkpt lat="47.53303" lon="6.69947">
        <ele>360</ele>
        <time>2016-12-11T09:33:08.999Z</time>
      </trkpt>
      <trkpt lat="47.53306" lon="6.69944">
        <ele>360</ele>
        <time>2016-12-11T09:33:09.999Z</time>
      </trkpt>
      <trkpt lat="47.53309" lon="6.6994">
        <ele>360</ele>
        <time>2016-12-11T09:33:10.999Z</time>
      </trkpt>
      <trkpt lat="47.53313" lon="6.69937">
        <ele>360</ele>
        <time>2016-12-11T09:33:11.999Z</time>
      </trkpt>
      <trkpt lat="47.53316" lon="6.69935">
        <ele>360</ele>
        <time>2016-12-11T09:33:12.999Z</time>
      </trkpt>
      <trkpt lat="47.53322" lon="6.69931">
        <ele>359</ele>
        <time>2016-12-11T09:33:13.999Z</time>
      </trkpt>
      <trkpt lat="47.53324" lon="6.69928">
        <ele>359</ele>
        <time>2016-12-11T09:33:14.999Z</time>
      </trkpt>
      <trkpt lat="47.53327" lon="6.69924">
        <ele>359</ele>
        <time>2016-12-11T09:33:15.999Z</time>
      </trkpt>
      <trkpt lat="47.5333" lon="6.69918">
        <ele>359</ele>
        <time>2016-12-11T09:33:16.999Z</time>
      </trkpt>
      <trkpt lat="47.53333" lon="6.6991">
        <ele>357</ele>
        <time>2016-12-11T09:33:17.999Z</time>
      </trkpt>
      <trkpt lat="47.53335" lon="6.69901">
        <ele>358</ele>
        <time>2016-12-11T09:33:18.999Z</time>
      </trkpt>
      <trkpt lat="47.53337" lon="6.69892">
        <ele>358</ele>
        <time>2016-12-11T09:33:19.999Z</time>
      </trkpt>
      <trkpt lat="47.53339" lon="6.69884">
        <ele>357</ele>
        <time>2016-12-11T09:33:20.999Z</time>
      </trkpt>
      <trkpt lat="47.5334" lon="6.69876">
        <ele>357</ele>
        <time>2016-12-11T09:33:21.999Z</time>
      </trkpt>
      <trkpt lat="47.53341" lon="6.69867">
        <ele>356</ele>
        <time>2016-12-11T09:33:22.999Z</time>
      </trkpt>
      <trkpt lat="47.53342" lon="6.6986">
        <ele>355</ele>
        <time>2016-12-11T09:33:23.999Z</time>
      </trkpt>
      <trkpt lat="47.53343" lon="6.69853">
        <ele>355</ele>
        <time>2016-12-11T09:33:24.999Z</time>
      </trkpt>
      <trkpt lat="47.53343" lon="6.69846">
        <ele>354</ele>
        <time>2016-12-11T09:33:25.999Z</time>
      </trkpt>
      <trkpt lat="47.53343" lon="6.69841">
        <ele>353</ele>
        <time>2016-12-11T09:33:26.999Z</time>
      </trkpt>
      <trkpt lat="47.53343" lon="6.69834">
        <ele>353</ele>
        <time>2016-12-11T09:33:27.999Z</time>
      </trkpt>
      <trkpt lat="47.53343" lon="6.69828">
        <ele>350</ele>
        <time>2016-12-11T09:33:28.999Z</time>
      </trkpt>
      <trkpt lat="47.53341" lon="6.69822">
        <ele>350</ele>
        <time>2016-12-11T09:33:29.999Z</time>
      </trkpt>
      <trkpt lat="47.53339" lon="6.69817">
        <ele>350</ele>
        <time>2016-12-11T09:33:30.999Z</time>
      </trkpt>
      <trkpt lat="47.53338" lon="6.69813">
        <ele>350</ele>
        <time>2016-12-11T09:33:31.999Z</time>
      </trkpt>
      <trkpt lat="47.53337" lon="6.69808">
        <ele>350</ele>
        <time>2016-12-11T09:33:32.999Z</time>
      </trkpt>
      <trkpt lat="47.53336" lon="6.69803">
        <ele>349</ele>
        <time>2016-12-11T09:33:33.999Z</time>
      </trkpt>
      <trkpt lat="47.53335" lon="6.69797">
        <ele>349</ele>
        <time>2016-12-11T09:33:34.999Z</time>
      </trkpt>
      <trkpt lat="47.53334" lon="6.6979">
        <ele>349</ele>
        <time>2016-12-11T09:33:35.999Z</time>
      </trkpt>
      <trkpt lat="47.53333" lon="6.69783">
        <ele>347</ele>
        <time>2016-12-11T09:33:36.999Z</time>
      </trkpt>
      <trkpt lat="47.53331" lon="6.69774">
        <ele>346</ele>
        <time>2016-12-11T09:33:37.999Z</time>
      </trkpt>
      <trkpt lat="47.53329" lon="6.69765">
        <ele>346</ele>
        <time>2016-12-11T09:33:38.999Z</time>
      </trkpt>
      <trkpt lat="47.53328" lon="6.69757">
        <ele>346</ele>
        <time>2016-12-11T09:33:39.999Z</time>
      </trkpt>
      <trkpt lat="47.53326" lon="6.69748">
        <ele>345</ele>
        <time>2016-12-11T09:33:40.999Z</time>
      </trkpt>
      <trkpt lat="47.53324" lon="6.6974">
        <ele>345</ele>
        <time>2016-12-11T09:33:41.999Z</time>
      </trkpt>
      <trkpt lat="47.53322" lon="6.69732">
        <ele>346</ele>
        <time>2016-12-11T09:33:42.999Z</time>
      </trkpt>
      <trkpt lat="47.53321" lon="6.69723">
        <ele>346</ele>
        <time>2016-12-11T09:33:43.999Z</time>
      </trkpt>
      <trkpt lat="47.53319" lon="6.69716">
        <ele>346</ele>
        <time>2016-12-11T09:33:44.999Z</time>
      </trkpt>
      <trkpt lat="47.53318" lon="6.69709">
        <ele>346</ele>
        <time>2016-12-11T09:33:45.999Z</time>
      </trkpt>
      <trkpt lat="47.53317" lon="6.69703">
        <ele>346</ele>
        <time>2016-12-11T09:33:46.999Z</time>
      </trkpt>
      <trkpt lat="47.53316" lon="6.69695">
        <ele>346</ele>
        <time>2016-12-11T09:33:47.999Z</time>
      </trkpt>
      <trkpt lat="47.53315" lon="6.69689">
        <ele>346</ele>
        <time>2016-12-11T09:33:48.999Z</time>
      </trkpt>
      <trkpt lat="47.53314" lon="6.69682">
        <ele>346</ele>
        <time>2016-12-11T09:33:49.999Z</time>
      </trkpt>
      <trkpt lat="47.53313" lon="6.69676">
        <ele>346</ele>
        <time>2016-12-11T09:33:50.999Z</time>
      </trkpt>
      <trkpt lat="47.53313" lon="6.6967">
        <ele>345</ele>
        <time>2016-12-11T09:33:51.999Z</time>
      </trkpt>
      <trkpt lat="47.53312" lon="6.69664">
        <ele>346</ele>
        <time>2016-12-11T09:33:52.999Z</time>
      </trkpt>
      <trkpt lat="47.53311" lon="6.69656">
        <ele>346</ele>
        <time>2016-12-11T09:33:53.999Z</time>
      </trkpt>
      <trkpt lat="47.5331" lon="6.69648">
        <ele>346</ele>
        <time>2016-12-11T09:33:54.999Z</time>
      </trkpt>
      <trkpt lat="47.53309" lon="6.69641">
        <ele>346</ele>
        <time>2016-12-11T09:33:55.999Z</time>
      </trkpt>
      <trkpt lat="47.53308" lon="6.69636">
        <ele>346</ele>
        <time>2016-12-11T09:33:56.999Z</time>
      </trkpt>
      <trkpt lat="47.53307" lon="6.6963">
        <ele>346</ele>
        <time>2016-12-11T09:33:57.999Z</time>
      </trkpt>
      <trkpt lat="47.53305" lon="6.69622">
        <ele>347</ele>
        <time>2016-12-11T09:33:58.999Z</time>
      </trkpt>
      <trkpt lat="47.53304" lon="6.69615">
        <ele>347</ele>
        <time>2016-12-11T09:33:59.999Z</time>
      </trkpt>
      <trkpt lat="47.53302" lon="6.69608">
        <ele>347</ele>
        <time>2016-12-11T09:34:00.999Z</time>
      </trkpt>
      <trkpt lat="47.53301" lon="6.69601">
        <ele>347</ele>
        <time>2016-12-11T09:34:01.999Z</time>
      </trkpt>
      <trkpt lat="47.533" lon="6.69596">
        <ele>347</ele>
        <time>2016-12-11T09:34:02.999Z</time>
      </trkpt>
      <trkpt lat="47.53299" lon="6.69589">
        <ele>347</ele>
        <time>2016-12-11T09:34:03.999Z</time>
      </trkpt>
      <trkpt lat="47.53298" lon="6.69582">
        <ele>346</ele>
        <time>2016-12-11T09:34:04.999Z</time>
      </trkpt>
      <trkpt lat="47.53297" lon="6.69575">
        <ele>346</ele>
        <time>2016-12-11T09:34:05.999Z</time>
      </trkpt>
      <trkpt lat="47.53296" lon="6.69569">
        <ele>346</ele>
        <time>2016-12-11T09:34:06.999Z</time>
      </trkpt>
      <trkpt lat="47.53295" lon="6.69564">
        <ele>346</ele>
        <time>2016-12-11T09:34:07.999Z</time>
      </trkpt>
      <trkpt lat="47.53295" lon="6.69559">
        <ele>346</ele>
        <time>2016-12-11T09:34:08.999Z</time>
      </trkpt>
      <trkpt lat="47.53294" lon="6.69554">
        <ele>346</ele>
        <time>2016-12-11T09:34:09.999Z</time>
      </trkpt>
      <trkpt lat="47.53293" lon="6.69549">
        <ele>346</ele>
        <time>2016-12-11T09:34:10.999Z</time>
      </trkpt>
      <trkpt lat="47.53292" lon="6.69544">
        <ele>346</ele>
        <time>2016-12-11T09:34:11.999Z</time>
      </trkpt>
      <trkpt lat="47.53292" lon="6.6954">
        <ele>346</ele>
        <time>2016-12-11T09:34:12.999Z</time>
      </trkpt>
      <trkpt lat="47.53291" lon="6.69534">
        <ele>346</ele>
        <time>2016-12-11T09:34:13.999Z</time>
      </trkpt>
      <trkpt lat="47.53288" lon="6.6953">
        <ele>346</ele>
        <time>2016-12-11T09:34:14.999Z</time>
      </trkpt>
      <trkpt lat="47.53285" lon="6.69528">
        <ele>346</ele>
        <time>2016-12-11T09:34:15.999Z</time>
      </trkpt>
      <trkpt lat="47.53281" lon="6.69527">
        <ele>346</ele>
        <time>2016-12-11T09:34:16.999Z</time>
      </trkpt>
      <trkpt lat="47.53277" lon="6.69525">
        <ele>346</ele>
        <time>2016-12-11T09:34:17.999Z</time>
      </trkpt>
      <trkpt lat="47.53273" lon="6.69525">
        <ele>346</ele>
        <time>2016-12-11T09:34:18.999Z</time>
      </trkpt>
      <trkpt lat="47.53269" lon="6.69524">
        <ele>346</ele>
        <time>2016-12-11T09:34:19.999Z</time>
      </trkpt>
      <trkpt lat="47.53265" lon="6.69525">
        <ele>346</ele>
        <time>2016-12-11T09:34:20.999Z</time>
      </trkpt>
      <trkpt lat="47.53262" lon="6.69526">
        <ele>346</ele>
        <time>2016-12-11T09:34:21.999Z</time>
      </trkpt>
      <trkpt lat="47.53259" lon="6.69527">
        <ele>346</ele>
        <time>2016-12-11T09:34:22.999Z</time>
      </trkpt>
      <trkpt lat="47.53256" lon="6.69527">
        <ele>346</ele>
        <time>2016-12-11T09:34:23.999Z</time>
      </trkpt>
      <trkpt lat="47.53252" lon="6.69528">
        <ele>346</ele>
        <time>2016-12-11T09:34:24.999Z</time>
      </trkpt>
      <trkpt lat="47.53247" lon="6.69528">
        <ele>348</ele>
        <time>2016-12-11T09:34:25.999Z</time>
      </trkpt>
      <trkpt lat="47.53243" lon="6.69529">
        <ele>348</ele>
        <time>2016-12-11T09:34:26.999Z</time>
      </trkpt>
      <trkpt lat="47.53239" lon="6.6953">
        <ele>349</ele>
        <time>2016-12-11T09:34:27.999Z</time>
      </trkpt>
      <trkpt lat="47.53235" lon="6.6953">
        <ele>349</ele>
        <time>2016-12-11T09:34:28.999Z</time>
      </trkpt>
      <trkpt lat="47.53231" lon="6.69531">
        <ele>349</ele>
        <time>2016-12-11T09:34:29.999Z</time>
      </trkpt>
      <trkpt lat="47.53227" lon="6.69533">
        <ele>349</ele>
        <time>2016-12-11T09:34:30.999Z</time>
      </trkpt>
      <trkpt lat="47.53224" lon="6.69534">
        <ele>349</ele>
        <time>2016-12-11T09:34:31.999Z</time>
      </trkpt>
      <trkpt lat="47.5322" lon="6.69535">
        <ele>349</ele>
        <time>2016-12-11T09:34:32.999Z</time>
      </trkpt>
      <trkpt lat="47.53216" lon="6.69535">
        <ele>350</ele>
        <time>2016-12-11T09:34:33.999Z</time>
      </trkpt>
      <trkpt lat="47.53212" lon="6.69536">
        <ele>350</ele>
        <time>2016-12-11T09:34:34.999Z</time>
      </trkpt>
      <trkpt lat="47.53209" lon="6.69537">
        <ele>350</ele>
        <time>2016-12-11T09:34:35.999Z</time>
      </trkpt>
      <trkpt lat="47.53204" lon="6.69538">
        <ele>350</ele>
        <time>2016-12-11T09:34:36.999Z</time>
      </trkpt>
      <trkpt lat="47.532" lon="6.69539">
        <ele>350</ele>
        <time>2016-12-11T09:34:37.999Z</time>
      </trkpt>
      <trkpt lat="47.53196" lon="6.6954">
        <ele>350</ele>
        <time>2016-12-11T09:34:38.999Z</time>
      </trkpt>
      <trkpt lat="47.53193" lon="6.69542">
        <ele>350</ele>
        <time>2016-12-11T09:34:39.999Z</time>
      </trkpt>
      <trkpt lat="47.53189" lon="6.69544">
        <ele>351</ele>
        <time>2016-12-11T09:34:40.999Z</time>
      </trkpt>
      <trkpt lat="47.53185" lon="6.69545">
        <ele>351</ele>
        <time>2016-12-11T09:34:41.999Z</time>
      </trkpt>
      <trkpt lat="47.53182" lon="6.69547">
        <ele>351</ele>
        <time>2016-12-11T09:34:42.999Z</time>
      </trkpt>
      <trkpt lat="47.53178" lon="6.69548">
        <ele>351</ele>
        <time>2016-12-11T09:34:43.999Z</time>
      </trkpt>
      <trkpt lat="47.53174" lon="6.6955">
        <ele>352</ele>
        <time>2016-12-11T09:34:44.999Z</time>
      </trkpt>
      <trkpt lat="47.53169" lon="6.69549">
        <ele>352</ele>
        <time>2016-12-11T09:34:45.999Z</time>
      </trkpt>
      <trkpt lat="47.53164" lon="6.69549">
        <ele>354</ele>
        <time>2016-12-11T09:34:46.999Z</time>
      </trkpt>
      <trkpt lat="47.53159" lon="6.69549">
        <ele>354</ele>
        <time>2016-12-11T09:34:47.999Z</time>
      </trkpt>
      <trkpt lat="47.53155" lon="6.6955">
        <ele>354</ele>
        <time>2016-12-11T09:34:48.999Z</time>
      </trkpt>
      <trkpt lat="47.53151" lon="6.6955">
        <ele>354</ele>
        <time>2016-12-11T09:34:49.999Z</time>
      </trkpt>
      <trkpt lat="47.53146" lon="6.69549">
        <ele>354</ele>
        <time>2016-12-11T09:34:50.999Z</time>
      </trkpt>
      <trkpt lat="47.53141" lon="6.69549">
        <ele>354</ele>
        <time>2016-12-11T09:34:51.999Z</time>
      </trkpt>
      <trkpt lat="47.53137" lon="6.69549">
        <ele>354</ele>
        <time>2016-12-11T09:34:52.999Z</time>
      </trkpt>
      <trkpt lat="47.53133" lon="6.69547">
        <ele>354</ele>
        <time>2016-12-11T09:34:53.999Z</time>
      </trkpt>
      <trkpt lat="47.5313" lon="6.69543">
        <ele>354</ele>
        <time>2016-12-11T09:34:54.999Z</time>
      </trkpt>
      <trkpt lat="47.53127" lon="6.69537">
        <ele>353</ele>
        <time>2016-12-11T09:34:55.999Z</time>
      </trkpt>
      <trkpt lat="47.53125" lon="6.69531">
        <ele>353</ele>
        <time>2016-12-11T09:34:56.999Z</time>
      </trkpt>
      <trkpt lat="47.53125" lon="6.69526">
        <ele>353</ele>
        <time>2016-12-11T09:34:57.999Z</time>
      </trkpt>
      <trkpt lat="47.53125" lon="6.69521">
        <ele>352</ele>
        <time>2016-12-11T09:34:58.999Z</time>
      </trkpt>
      <trkpt lat="47.53125" lon="6.69516">
        <ele>352</ele>
        <time>2016-12-11T09:34:59.999Z</time>
      </trkpt>
      <trkpt lat="47.53125" lon="6.69512">
        <ele>352</ele>
        <time>2016-12-11T09:35:00.999Z</time>
      </trkpt>
      <trkpt lat="47.53125" lon="6.69506">
        <ele>352</ele>
        <time>2016-12-11T09:35:01.999Z</time>
      </trkpt>
      <trkpt lat="47.53125" lon="6.69501">
        <ele>352</ele>
        <time>2016-12-11T09:35:02.999Z</time>
      </trkpt>
      <trkpt lat="47.53125" lon="6.69497">
        <ele>349</ele>
        <time>2016-12-11T09:35:03.999Z</time>
      </trkpt>
      <trkpt lat="47.53125" lon="6.69492">
        <ele>349</ele>
        <time>2016-12-11T09:35:04.999Z</time>
      </trkpt>
      <trkpt lat="47.53125" lon="6.69487">
        <ele>348</ele>
        <time>2016-12-11T09:35:05.999Z</time>
      </trkpt>
      <trkpt lat="47.53125" lon="6.69482">
        <ele>348</ele>
        <time>2016-12-11T09:35:06.999Z</time>
      </trkpt>
      <trkpt lat="47.53125" lon="6.69479">
        <ele>348</ele>
        <time>2016-12-11T09:35:07.999Z</time>
      </trkpt>
      <trkpt lat="47.53125" lon="6.69474">
        <ele>348</ele>
        <time>2016-12-11T09:35:08.999Z</time>
      </trkpt>
      <trkpt lat="47.53124" lon="6.69469">
        <ele>348</ele>
        <time>2016-12-11T09:35:09.999Z</time>
      </trkpt>
      <trkpt lat="47.53124" lon="6.69463">
        <ele>348</ele>
        <time>2016-12-11T09:35:10.999Z</time>
      </trkpt>
      <trkpt lat="47.53124" lon="6.69459">
        <ele>348</ele>
        <time>2016-12-11T09:35:11.999Z</time>
      </trkpt>
      <trkpt lat="47.53123" lon="6.69456">
        <ele>348</ele>
        <time>2016-12-11T09:35:12.999Z</time>
      </trkpt>
      <trkpt lat="47.53123" lon="6.69451">
        <ele>348</ele>
        <time>2016-12-11T09:35:13.999Z</time>
      </trkpt>
      <trkpt lat="47.53122" lon="6.69446">
        <ele>348</ele>
        <time>2016-12-11T09:35:14.999Z</time>
      </trkpt>
      <trkpt lat="47.53122" lon="6.69441">
        <ele>348</ele>
        <time>2016-12-11T09:35:15.999Z</time>
      </trkpt>
      <trkpt lat="47.53121" lon="6.69437">
        <ele>348</ele>
        <time>2016-12-11T09:35:16.999Z</time>
      </trkpt>
      <trkpt lat="47.53121" lon="6.69433">
        <ele>348</ele>
        <time>2016-12-11T09:35:17.999Z</time>
      </trkpt>
      <trkpt lat="47.53121" lon="6.69427">
        <ele>348</ele>
        <time>2016-12-11T09:35:18.999Z</time>
      </trkpt>
      <trkpt lat="47.5312" lon="6.69421">
        <ele>348</ele>
        <time>2016-12-11T09:35:19.999Z</time>
      </trkpt>
      <trkpt lat="47.5312" lon="6.69416">
        <ele>348</ele>
        <time>2016-12-11T09:35:20.999Z</time>
      </trkpt>
      <trkpt lat="47.5312" lon="6.69412">
        <ele>348</ele>
        <time>2016-12-11T09:35:21.999Z</time>
      </trkpt>
      <trkpt lat="47.53119" lon="6.69407">
        <ele>348</ele>
        <time>2016-12-11T09:35:22.999Z</time>
      </trkpt>
      <trkpt lat="47.53119" lon="6.69402">
        <ele>348</ele>
        <time>2016-12-11T09:35:23.999Z</time>
      </trkpt>
      <trkpt lat="47.53119" lon="6.69397">
        <ele>348</ele>
        <time>2016-12-11T09:35:24.999Z</time>
      </trkpt>
      <trkpt lat="47.53119" lon="6.69392">
        <ele>348</ele>
        <time>2016-12-11T09:35:25.999Z</time>
      </trkpt>
      <trkpt lat="47.53118" lon="6.69387">
        <ele>348</ele>
        <time>2016-12-11T09:35:26.999Z</time>
      </trkpt>
      <trkpt lat="47.53118" lon="6.69382">
        <ele>348</ele>
        <time>2016-12-11T09:35:27.999Z</time>
      </trkpt>
      <trkpt lat="47.53118" lon="6.69378">
        <ele>348</ele>
        <time>2016-12-11T09:35:28.999Z</time>
      </trkpt>
      <trkpt lat="47.53117" lon="6.69374">
        <ele>348</ele>
        <time>2016-12-11T09:35:29.999Z</time>
      </trkpt>
      <trkpt lat="47.53117" lon="6.69369">
        <ele>349</ele>
        <time>2016-12-11T09:35:30.999Z</time>
      </trkpt>
      <trkpt lat="47.53117" lon="6.69364">
        <ele>349</ele>
        <time>2016-12-11T09:35:31.999Z</time>
      </trkpt>
      <trkpt lat="47.53117" lon="6.69359">
        <ele>349</ele>
        <time>2016-12-11T09:35:32.999Z</time>
      </trkpt>
      <trkpt lat="47.53117" lon="6.69354">
        <ele>349</ele>
        <time>2016-12-11T09:35:33.999Z</time>
      </trkpt>
      <trkpt lat="47.53117" lon="6.69351">
        <ele>349</ele>
        <time>2016-12-11T09:35:34.999Z</time>
      </trkpt>
      <trkpt lat="47.53116" lon="6.69346">
        <ele>349</ele>
        <time>2016-12-11T09:35:35.999Z</time>
      </trkpt>
      <trkpt lat="47.53116" lon="6.69341">
        <ele>349</ele>
        <time>2016-12-11T09:35:36.999Z</time>
      </trkpt>
      <trkpt lat="47.53116" lon="6.69336">
        <ele>349</ele>
        <time>2016-12-11T09:35:37.999Z</time>
      </trkpt>
      <trkpt lat="47.53116" lon="6.69332">
        <ele>350</ele>
        <time>2016-12-11T09:35:38.999Z</time>
      </trkpt>
      <trkpt lat="47.53116" lon="6.69328">
        <ele>350</ele>
        <time>2016-12-11T09:35:39.999Z</time>
      </trkpt>
      <trkpt lat="47.53116" lon="6.69324">
        <ele>350</ele>
        <time>2016-12-11T09:35:40.999Z</time>
      </trkpt>
      <trkpt lat="47.53116" lon="6.69319">
        <ele>350</ele>
        <time>2016-12-11T09:35:41.999Z</time>
      </trkpt>
      <trkpt lat="47.53116" lon="6.69314">
        <ele>350</ele>
        <time>2016-12-11T09:35:42.999Z</time>
      </trkpt>
      <trkpt lat="47.53115" lon="6.69308">
        <ele>350</ele>
        <time>2016-12-11T09:35:43.999Z</time>
      </trkpt>
      <trkpt lat="47.53115" lon="6.69304">
        <ele>350</ele>
        <time>2016-12-11T09:35:44.999Z</time>
      </trkpt>
      <trkpt lat="47.53115" lon="6.69301">
        <ele>350</ele>
        <time>2016-12-11T09:35:45.999Z</time>
      </trkpt>
      <trkpt lat="47.53114" lon="6.69298">
        <ele>350</ele>
        <time>2016-12-11T09:35:46.999Z</time>
      </trkpt>
      <trkpt lat="47.53114" lon="6.69294">
        <ele>350</ele>
        <time>2016-12-11T09:35:47.999Z</time>
      </trkpt>
      <trkpt lat="47.53114" lon="6.69289">
        <ele>350</ele>
        <time>2016-12-11T09:35:48.999Z</time>
      </trkpt>
      <trkpt lat="47.53114" lon="6.69285">
        <ele>351</ele>
        <time>2016-12-11T09:35:49.999Z</time>
      </trkpt>
      <trkpt lat="47.53113" lon="6.69282">
        <ele>351</ele>
        <time>2016-12-11T09:35:50.999Z</time>
      </trkpt>
      <trkpt lat="47.53113" lon="6.69275">
        <ele>351</ele>
        <time>2016-12-11T09:35:51.999Z</time>
      </trkpt>
      <trkpt lat="47.53112" lon="6.6927">
        <ele>351</ele>
        <time>2016-12-11T09:35:52.999Z</time>
      </trkpt>
      <trkpt lat="47.53112" lon="6.69266">
        <ele>351</ele>
        <time>2016-12-11T09:35:53.999Z</time>
      </trkpt>
      <trkpt lat="47.53112" lon="6.69261">
        <ele>351</ele>
        <time>2016-12-11T09:35:54.999Z</time>
      </trkpt>
      <trkpt lat="47.53111" lon="6.69256">
        <ele>351</ele>
        <time>2016-12-11T09:35:55.999Z</time>
      </trkpt>
      <trkpt lat="47.53111" lon="6.69251">
        <ele>351</ele>
        <time>2016-12-11T09:35:56.999Z</time>
      </trkpt>
      <trkpt lat="47.5311" lon="6.69247">
        <ele>352</ele>
        <time>2016-12-11T09:35:57.999Z</time>
      </trkpt>
      <trkpt lat="47.5311" lon="6.69242">
        <ele>352</ele>
        <time>2016-12-11T09:35:58.999Z</time>
      </trkpt>
      <trkpt lat="47.5311" lon="6.69237">
        <ele>352</ele>
        <time>2016-12-11T09:35:59.999Z</time>
      </trkpt>
      <trkpt lat="47.5311" lon="6.69235">
        <ele>352</ele>
        <time>2016-12-11T09:36:00.999Z</time>
      </trkpt>
      <trkpt lat="47.5311" lon="6.6923">
        <ele>352</ele>
        <time>2016-12-11T09:36:01.999Z</time>
      </trkpt>
      <trkpt lat="47.5311" lon="6.69226">
        <ele>353</ele>
        <time>2016-12-11T09:36:02.999Z</time>
      </trkpt>
      <trkpt lat="47.5311" lon="6.69222">
        <ele>353</ele>
        <time>2016-12-11T09:36:03.999Z</time>
      </trkpt>
      <trkpt lat="47.5311" lon="6.69218">
        <ele>353</ele>
        <time>2016-12-11T09:36:04.999Z</time>
      </trkpt>
      <trkpt lat="47.5311" lon="6.69214">
        <ele>353</ele>
        <time>2016-12-11T09:36:05.999Z</time>
      </trkpt>
      <trkpt lat="47.5311" lon="6.69211">
        <ele>353</ele>
        <time>2016-12-11T09:36:06.999Z</time>
      </trkpt>
      <trkpt lat="47.53109" lon="6.69206">
        <ele>353</ele>
        <time>2016-12-11T09:36:07.999Z</time>
      </trkpt>
      <trkpt lat="47.53109" lon="6.69202">
        <ele>353</ele>
        <time>2016-12-11T09:36:08.999Z</time>
      </trkpt>
      <trkpt lat="47.53109" lon="6.69198">
        <ele>353</ele>
        <time>2016-12-11T09:36:09.999Z</time>
      </trkpt>
      <trkpt lat="47.53108" lon="6.69194">
        <ele>353</ele>
        <time>2016-12-11T09:36:10.999Z</time>
      </trkpt>
      <trkpt lat="47.53108" lon="6.69191">
        <ele>353</ele>
        <time>2016-12-11T09:36:11.999Z</time>
      </trkpt>
      <trkpt lat="47.53108" lon="6.69187">
        <ele>353</ele>
        <time>2016-12-11T09:36:12.999Z</time>
      </trkpt>
      <trkpt lat="47.53107" lon="6.69184">
        <ele>353</ele>
        <time>2016-12-11T09:36:13.999Z</time>
      </trkpt>
      <trkpt lat="47.53107" lon="6.69178">
        <ele>353</ele>
        <time>2016-12-11T09:36:15.999Z</time>
      </trkpt>
      <trkpt lat="47.53107" lon="6.69175">
        <ele>353</ele>
        <time>2016-12-11T09:36:16.999Z</time>
      </trkpt>
      <trkpt lat="47.53107" lon="6.69168">
        <ele>354</ele>
        <time>2016-12-11T09:36:18.999Z</time>
      </trkpt>
      <trkpt lat="47.53107" lon="6.69164">
        <ele>355</ele>
        <time>2016-12-11T09:36:19.999Z</time>
      </trkpt>
      <trkpt lat="47.53107" lon="6.69158">
        <ele>355</ele>
        <time>2016-12-11T09:36:21.999Z</time>
      </trkpt>
      <trkpt lat="47.53107" lon="6.69155">
        <ele>355</ele>
        <time>2016-12-11T09:36:22.999Z</time>
      </trkpt>
      <trkpt lat="47.53106" lon="6.69152">
        <ele>355</ele>
        <time>2016-12-11T09:36:23.999Z</time>
      </trkpt>
      <trkpt lat="47.53106" lon="6.69148">
        <ele>356</ele>
        <time>2016-12-11T09:36:24.999Z</time>
      </trkpt>
      <trkpt lat="47.53106" lon="6.69144">
        <ele>356</ele>
        <time>2016-12-11T09:36:25.999Z</time>
      </trkpt>
      <trkpt lat="47.53106" lon="6.69141">
        <ele>356</ele>
        <time>2016-12-11T09:36:26.999Z</time>
      </trkpt>
      <trkpt lat="47.53105" lon="6.69137">
        <ele>356</ele>
        <time>2016-12-11T09:36:27.999Z</time>
      </trkpt>
      <trkpt lat="47.53105" lon="6.69133">
        <ele>356</ele>
        <time>2016-12-11T09:36:28.999Z</time>
      </trkpt>
      <trkpt lat="47.53104" lon="6.69127">
        <ele>356</ele>
        <time>2016-12-11T09:36:30.999Z</time>
      </trkpt>
      <trkpt lat="47.53104" lon="6.69124">
        <ele>356</ele>
        <time>2016-12-11T09:36:31.999Z</time>
      </trkpt>
      <trkpt lat="47.53104" lon="6.69117">
        <ele>356</ele>
        <time>2016-12-11T09:36:33.999Z</time>
      </trkpt>
      <trkpt lat="47.53104" lon="6.69114">
        <ele>356</ele>
        <time>2016-12-11T09:36:34.999Z</time>
      </trkpt>
      <trkpt lat="47.53104" lon="6.69108">
        <ele>357</ele>
        <time>2016-12-11T09:36:36.999Z</time>
      </trkpt>
      <trkpt lat="47.53104" lon="6.69105">
        <ele>357</ele>
        <time>2016-12-11T09:36:37.999Z</time>
      </trkpt>
      <trkpt lat="47.53104" lon="6.69099">
        <ele>357</ele>
        <time>2016-12-11T09:36:39.999Z</time>
      </trkpt>
      <trkpt lat="47.53103" lon="6.69096">
        <ele>357</ele>
        <time>2016-12-11T09:36:40.999Z</time>
      </trkpt>
      <trkpt lat="47.53103" lon="6.6909">
        <ele>357</ele>
        <time>2016-12-11T09:36:42.999Z</time>
      </trkpt>
      <trkpt lat="47.53103" lon="6.69087">
        <ele>357</ele>
        <time>2016-12-11T09:36:43.999Z</time>
      </trkpt>
      <trkpt lat="47.53103" lon="6.6908">
        <ele>359</ele>
        <time>2016-12-11T09:36:45.999Z</time>
      </trkpt>
      <trkpt lat="47.53103" lon="6.69077">
        <ele>359</ele>
        <time>2016-12-11T09:36:46.999Z</time>
      </trkpt>
      <trkpt lat="47.53103" lon="6.69074">
        <ele>359</ele>
        <time>2016-12-11T09:36:47.999Z</time>
      </trkpt>
      <trkpt lat="47.53102" lon="6.6907">
        <ele>359</ele>
        <time>2016-12-11T09:36:48.999Z</time>
      </trkpt>
      <trkpt lat="47.53102" lon="6.69067">
        <ele>359</ele>
        <time>2016-12-11T09:36:49.999Z</time>
      </trkpt>
      <trkpt lat="47.53102" lon="6.69064">
        <ele>359</ele>
        <time>2016-12-11T09:36:50.999Z</time>
      </trkpt>
      <trkpt lat="47.53101" lon="6.69057">
        <ele>360</ele>
        <time>2016-12-11T09:36:52.999Z</time>
      </trkpt>
      <trkpt lat="47.53101" lon="6.69055">
        <ele>360</ele>
        <time>2016-12-11T09:36:53.999Z</time>
      </trkpt>
      <trkpt lat="47.531" lon="6.69048">
        <ele>360</ele>
        <time>2016-12-11T09:36:55.999Z</time>
      </trkpt>
      <trkpt lat="47.531" lon="6.69044">
        <ele>360</ele>
        <time>2016-12-11T09:36:56.999Z</time>
      </trkpt>
      <trkpt lat="47.53099" lon="6.69039">
        <ele>360</ele>
        <time>2016-12-11T09:36:58.999Z</time>
      </trkpt>
      <trkpt lat="47.53099" lon="6.69036">
        <ele>360</ele>
        <time>2016-12-11T09:36:59.999Z</time>
      </trkpt>
      <trkpt lat="47.53099" lon="6.69033">
        <ele>360</ele>
        <time>2016-12-11T09:37:00.999Z</time>
      </trkpt>
      <trkpt lat="47.53099" lon="6.69029">
        <ele>360</ele>
        <time>2016-12-11T09:37:01.999Z</time>
      </trkpt>
      <trkpt lat="47.53099" lon="6.69026">
        <ele>360</ele>
        <time>2016-12-11T09:37:02.999Z</time>
      </trkpt>
      <trkpt lat="47.53099" lon="6.69022">
        <ele>361</ele>
        <time>2016-12-11T09:37:03.999Z</time>
      </trkpt>
      <trkpt lat="47.53099" lon="6.69019">
        <ele>361</ele>
        <time>2016-12-11T09:37:04.999Z</time>
      </trkpt>
      <trkpt lat="47.53099" lon="6.69015">
        <ele>361</ele>
        <time>2016-12-11T09:37:05.999Z</time>
      </trkpt>
      <trkpt lat="47.53098" lon="6.69009">
        <ele>361</ele>
        <time>2016-12-11T09:37:07.999Z</time>
      </trkpt>
      <trkpt lat="47.53098" lon="6.69005">
        <ele>361</ele>
        <time>2016-12-11T09:37:08.999Z</time>
      </trkpt>
      <trkpt lat="47.53098" lon="6.68999">
        <ele>362</ele>
        <time>2016-12-11T09:37:10.999Z</time>
      </trkpt>
      <trkpt lat="47.53097" lon="6.68996">
        <ele>362</ele>
        <time>2016-12-11T09:37:11.999Z</time>
      </trkpt>
      <trkpt lat="47.53095" lon="6.6899">
        <ele>362</ele>
        <time>2016-12-11T09:37:13.999Z</time>
      </trkpt>
      <trkpt lat="47.53095" lon="6.68987">
        <ele>362</ele>
        <time>2016-12-11T09:37:14.999Z</time>
      </trkpt>
      <trkpt lat="47.53094" lon="6.68981">
        <ele>362</ele>
        <time>2016-12-11T09:37:16.999Z</time>
      </trkpt>
      <trkpt lat="47.53094" lon="6.68977">
        <ele>363</ele>
        <time>2016-12-11T09:37:17.999Z</time>
      </trkpt>
      <trkpt lat="47.53094" lon="6.68972">
        <ele>363</ele>
        <time>2016-12-11T09:37:18.999Z</time>
      </trkpt>
      <trkpt lat="47.53094" lon="6.68969">
        <ele>363</ele>
        <time>2016-12-11T09:37:19.999Z</time>
      </trkpt>
      <trkpt lat="47.53094" lon="6.68965">
        <ele>363</ele>
        <time>2016-12-11T09:37:20.999Z</time>
      </trkpt>
      <trkpt lat="47.53094" lon="6.68961">
        <ele>363</ele>
        <time>2016-12-11T09:37:21.999Z</time>
      </trkpt>
      <trkpt lat="47.53094" lon="6.68958">
        <ele>363</ele>
        <time>2016-12-11T09:37:22.999Z</time>
      </trkpt>
      <trkpt lat="47.53094" lon="6.68954">
        <ele>363</ele>
        <time>2016-12-11T09:37:23.999Z</time>
      </trkpt>
      <trkpt lat="47.53094" lon="6.68948">
        <ele>363</ele>
        <time>2016-12-11T09:37:25.999Z</time>
      </trkpt>
      <trkpt lat="47.53094" lon="6.68944">
        <ele>363</ele>
        <time>2016-12-11T09:37:26.999Z</time>
      </trkpt>
      <trkpt lat="47.53093" lon="6.6894">
        <ele>363</ele>
        <time>2016-12-11T09:37:27.999Z</time>
      </trkpt>
      <trkpt lat="47.53093" lon="6.68936">
        <ele>363</ele>
        <time>2016-12-11T09:37:28.999Z</time>
      </trkpt>
      <trkpt lat="47.53093" lon="6.68929">
        <ele>363</ele>
        <time>2016-12-11T09:37:30.999Z</time>
      </trkpt>
      <trkpt lat="47.53093" lon="6.68926">
        <ele>363</ele>
        <time>2016-12-11T09:37:31.999Z</time>
      </trkpt>
      <trkpt lat="47.53093" lon="6.68922">
        <ele>364</ele>
        <time>2016-12-11T09:37:32.999Z</time>
      </trkpt>
      <trkpt lat="47.53093" lon="6.68919">
        <ele>364</ele>
        <time>2016-12-11T09:37:33.999Z</time>
      </trkpt>
      <trkpt lat="47.53093" lon="6.68916">
        <ele>364</ele>
        <time>2016-12-11T09:37:34.999Z</time>
      </trkpt>
      <trkpt lat="47.53092" lon="6.68912">
        <ele>364</ele>
        <time>2016-12-11T09:37:35.999Z</time>
      </trkpt>
      <trkpt lat="47.53092" lon="6.68909">
        <ele>364</ele>
        <time>2016-12-11T09:37:36.999Z</time>
      </trkpt>
      <trkpt lat="47.53092" lon="6.68905">
        <ele>364</ele>
        <time>2016-12-11T09:37:37.999Z</time>
      </trkpt>
      <trkpt lat="47.53091" lon="6.68899">
        <ele>364</ele>
        <time>2016-12-11T09:37:39.999Z</time>
      </trkpt>
      <trkpt lat="47.53091" lon="6.68897">
        <ele>364</ele>
        <time>2016-12-11T09:37:40.999Z</time>
      </trkpt>
      <trkpt lat="47.53091" lon="6.68891">
        <ele>364</ele>
        <time>2016-12-11T09:37:42.999Z</time>
      </trkpt>
      <trkpt lat="47.53091" lon="6.68887">
        <ele>364</ele>
        <time>2016-12-11T09:37:43.999Z</time>
      </trkpt>
      <trkpt lat="47.53091" lon="6.68883">
        <ele>365</ele>
        <time>2016-12-11T09:37:44.999Z</time>
      </trkpt>
      <trkpt lat="47.53091" lon="6.6888">
        <ele>365</ele>
        <time>2016-12-11T09:37:45.999Z</time>
      </trkpt>
      <trkpt lat="47.53091" lon="6.68876">
        <ele>365</ele>
        <time>2016-12-11T09:37:46.999Z</time>
      </trkpt>
      <trkpt lat="47.53091" lon="6.68872">
        <ele>365</ele>
        <time>2016-12-11T09:37:47.999Z</time>
      </trkpt>
      <trkpt lat="47.53091" lon="6.68868">
        <ele>365</ele>
        <time>2016-12-11T09:37:48.999Z</time>
      </trkpt>
      <trkpt lat="47.53091" lon="6.68864">
        <ele>365</ele>
        <time>2016-12-11T09:37:49.999Z</time>
      </trkpt>
      <trkpt lat="47.53091" lon="6.68858">
        <ele>365</ele>
        <time>2016-12-11T09:37:51.999Z</time>
      </trkpt>
      <trkpt lat="47.53091" lon="6.68854">
        <ele>365</ele>
        <time>2016-12-11T09:37:52.999Z</time>
      </trkpt>
      <trkpt lat="47.53091" lon="6.6885">
        <ele>365</ele>
        <time>2016-12-11T09:37:53.999Z</time>
      </trkpt>
      <trkpt lat="47.53091" lon="6.68846">
        <ele>365</ele>
        <time>2016-12-11T09:37:54.999Z</time>
      </trkpt>
      <trkpt lat="47.53091" lon="6.68842">
        <ele>365</ele>
        <time>2016-12-11T09:37:55.999Z</time>
      </trkpt>
      <trkpt lat="47.53091" lon="6.68838">
        <ele>366</ele>
        <time>2016-12-11T09:37:56.999Z</time>
      </trkpt>
      <trkpt lat="47.53091" lon="6.68833">
        <ele>366</ele>
        <time>2016-12-11T09:37:57.999Z</time>
      </trkpt>
      <trkpt lat="47.53091" lon="6.68828">
        <ele>366</ele>
        <time>2016-12-11T09:37:58.999Z</time>
      </trkpt>
      <trkpt lat="47.53091" lon="6.68823">
        <ele>366</ele>
        <time>2016-12-11T09:37:59.999Z</time>
      </trkpt>
      <trkpt lat="47.53091" lon="6.6882">
        <ele>366</ele>
        <time>2016-12-11T09:38:00.999Z</time>
      </trkpt>
      <trkpt lat="47.53091" lon="6.68815">
        <ele>366</ele>
        <time>2016-12-11T09:38:01.999Z</time>
      </trkpt>
      <trkpt lat="47.53091" lon="6.68811">
        <ele>366</ele>
        <time>2016-12-11T09:38:02.999Z</time>
      </trkpt>
      <trkpt lat="47.5309" lon="6.68807">
        <ele>366</ele>
        <time>2016-12-11T09:38:03.999Z</time>
      </trkpt>
      <trkpt lat="47.5309" lon="6.68804">
        <ele>366</ele>
        <time>2016-12-11T09:38:04.999Z</time>
      </trkpt>
      <trkpt lat="47.5309" lon="6.688">
        <ele>366</ele>
        <time>2016-12-11T09:38:05.999Z</time>
      </trkpt>
      <trkpt lat="47.53089" lon="6.68796">
        <ele>366</ele>
        <time>2016-12-11T09:38:06.999Z</time>
      </trkpt>
      <trkpt lat="47.53089" lon="6.68792">
        <ele>366</ele>
        <time>2016-12-11T09:38:07.999Z</time>
      </trkpt>
      <trkpt lat="47.53089" lon="6.68789">
        <ele>366</ele>
        <time>2016-12-11T09:38:08.999Z</time>
      </trkpt>
      <trkpt lat="47.53088" lon="6.68782">
        <ele>366</ele>
        <time>2016-12-11T09:38:10.999Z</time>
      </trkpt>
      <trkpt lat="47.53088" lon="6.68779">
        <ele>366</ele>
        <time>2016-12-11T09:38:11.999Z</time>
      </trkpt>
      <trkpt lat="47.53088" lon="6.68775">
        <ele>367</ele>
        <time>2016-12-11T09:38:12.999Z</time>
      </trkpt>
      <trkpt lat="47.53088" lon="6.68771">
        <ele>367</ele>
        <time>2016-12-11T09:38:13.999Z</time>
      </trkpt>
      <trkpt lat="47.53087" lon="6.68767">
        <ele>367</ele>
        <time>2016-12-11T09:38:14.999Z</time>
      </trkpt>
      <trkpt lat="47.53087" lon="6.68763">
        <ele>367</ele>
        <time>2016-12-11T09:38:15.999Z</time>
      </trkpt>
      <trkpt lat="47.53087" lon="6.6876">
        <ele>367</ele>
        <time>2016-12-11T09:38:16.999Z</time>
      </trkpt>
      <trkpt lat="47.53087" lon="6.68756">
        <ele>367</ele>
        <time>2016-12-11T09:38:17.999Z</time>
      </trkpt>
      <trkpt lat="47.53086" lon="6.68752">
        <ele>367</ele>
        <time>2016-12-11T09:38:18.999Z</time>
      </trkpt>
      <trkpt lat="47.53086" lon="6.68749">
        <ele>367</ele>
        <time>2016-12-11T09:38:19.999Z</time>
      </trkpt>
      <trkpt lat="47.53086" lon="6.68744">
        <ele>367</ele>
        <time>2016-12-11T09:38:20.999Z</time>
      </trkpt>
      <trkpt lat="47.53086" lon="6.6874">
        <ele>368</ele>
        <time>2016-12-11T09:38:21.999Z</time>
      </trkpt>
      <trkpt lat="47.53086" lon="6.68736">
        <ele>368</ele>
        <time>2016-12-11T09:38:22.999Z</time>
      </trkpt>
      <trkpt lat="47.53085" lon="6.68732">
        <ele>368</ele>
        <time>2016-12-11T09:38:23.999Z</time>
      </trkpt>
      <trkpt lat="47.53085" lon="6.68728">
        <ele>368</ele>
        <time>2016-12-11T09:38:24.999Z</time>
      </trkpt>
      <trkpt lat="47.53085" lon="6.68725">
        <ele>368</ele>
        <time>2016-12-11T09:38:25.999Z</time>
      </trkpt>
      <trkpt lat="47.53085" lon="6.68721">
        <ele>368</ele>
        <time>2016-12-11T09:38:26.999Z</time>
      </trkpt>
      <trkpt lat="47.53084" lon="6.68717">
        <ele>368</ele>
        <time>2016-12-11T09:38:27.999Z</time>
      </trkpt>
      <trkpt lat="47.53084" lon="6.68713">
        <ele>368</ele>
        <time>2016-12-11T09:38:28.999Z</time>
      </trkpt>
      <trkpt lat="47.53084" lon="6.68709">
        <ele>368</ele>
        <time>2016-12-11T09:38:29.999Z</time>
      </trkpt>
      <trkpt lat="47.53084" lon="6.68706">
        <ele>369</ele>
        <time>2016-12-11T09:38:30.999Z</time>
      </trkpt>
      <trkpt lat="47.53084" lon="6.68702">
        <ele>369</ele>
        <time>2016-12-11T09:38:31.999Z</time>
      </trkpt>
      <trkpt lat="47.53083" lon="6.68698">
        <ele>369</ele>
        <time>2016-12-11T09:38:32.999Z</time>
      </trkpt>
      <trkpt lat="47.53083" lon="6.68694">
        <ele>369</ele>
        <time>2016-12-11T09:38:33.999Z</time>
      </trkpt>
      <trkpt lat="47.53083" lon="6.68691">
        <ele>369</ele>
        <time>2016-12-11T09:38:34.999Z</time>
      </trkpt>
      <trkpt lat="47.53083" lon="6.68687">
        <ele>369</ele>
        <time>2016-12-11T09:38:35.999Z</time>
      </trkpt>
      <trkpt lat="47.53083" lon="6.68684">
        <ele>369</ele>
        <time>2016-12-11T09:38:36.999Z</time>
      </trkpt>
      <trkpt lat="47.53083" lon="6.6868">
        <ele>369</ele>
        <time>2016-12-11T09:38:37.999Z</time>
      </trkpt>
      <trkpt lat="47.53082" lon="6.68677">
        <ele>369</ele>
        <time>2016-12-11T09:38:38.999Z</time>
      </trkpt>
      <trkpt lat="47.53082" lon="6.68673">
        <ele>370</ele>
        <time>2016-12-11T09:38:39.999Z</time>
      </trkpt>
      <trkpt lat="47.53082" lon="6.68669">
        <ele>370</ele>
        <time>2016-12-11T09:38:40.999Z</time>
      </trkpt>
      <trkpt lat="47.53081" lon="6.68666">
        <ele>370</ele>
        <time>2016-12-11T09:38:41.999Z</time>
      </trkpt>
      <trkpt lat="47.53081" lon="6.68662">
        <ele>370</ele>
        <time>2016-12-11T09:38:42.999Z</time>
      </trkpt>
      <trkpt lat="47.53081" lon="6.68659">
        <ele>371</ele>
        <time>2016-12-11T09:38:43.999Z</time>
      </trkpt>
      <trkpt lat="47.5308" lon="6.68655">
        <ele>371</ele>
        <time>2016-12-11T09:38:44.999Z</time>
      </trkpt>
      <trkpt lat="47.5308" lon="6.68651">
        <ele>371</ele>
        <time>2016-12-11T09:38:45.999Z</time>
      </trkpt>
      <trkpt lat="47.5308" lon="6.68648">
        <ele>371</ele>
        <time>2016-12-11T09:38:46.999Z</time>
      </trkpt>
      <trkpt lat="47.53079" lon="6.68644">
        <ele>371</ele>
        <time>2016-12-11T09:38:47.999Z</time>
      </trkpt>
      <trkpt lat="47.53079" lon="6.6864">
        <ele>372</ele>
        <time>2016-12-11T09:38:48.999Z</time>
      </trkpt>
      <trkpt lat="47.53079" lon="6.68637">
        <ele>372</ele>
        <time>2016-12-11T09:38:49.999Z</time>
      </trkpt>
      <trkpt lat="47.53078" lon="6.68633">
        <ele>372</ele>
        <time>2016-12-11T09:38:50.999Z</time>
      </trkpt>
      <trkpt lat="47.53078" lon="6.68629">
        <ele>372</ele>
        <time>2016-12-11T09:38:51.999Z</time>
      </trkpt>
      <trkpt lat="47.53078" lon="6.68625">
        <ele>372</ele>
        <time>2016-12-11T09:38:52.999Z</time>
      </trkpt>
      <trkpt lat="47.53077" lon="6.68621">
        <ele>372</ele>
        <time>2016-12-11T09:38:53.999Z</time>
      </trkpt>
      <trkpt lat="47.53077" lon="6.68617">
        <ele>372</ele>
        <time>2016-12-11T09:38:54.999Z</time>
      </trkpt>
      <trkpt lat="47.53077" lon="6.68613">
        <ele>373</ele>
        <time>2016-12-11T09:38:55.999Z</time>
      </trkpt>
      <trkpt lat="47.53076" lon="6.68609">
        <ele>373</ele>
        <time>2016-12-11T09:38:56.999Z</time>
      </trkpt>
      <trkpt lat="47.53076" lon="6.68605">
        <ele>373</ele>
        <time>2016-12-11T09:38:57.999Z</time>
      </trkpt>
      <trkpt lat="47.53075" lon="6.68602">
        <ele>373</ele>
        <time>2016-12-11T09:38:58.999Z</time>
      </trkpt>
      <trkpt lat="47.53074" lon="6.68598">
        <ele>373</ele>
        <time>2016-12-11T09:38:59.999Z</time>
      </trkpt>
      <trkpt lat="47.53073" lon="6.68595">
        <ele>373</ele>
        <time>2016-12-11T09:39:00.999Z</time>
      </trkpt>
      <trkpt lat="47.53072" lon="6.6859">
        <ele>373</ele>
        <time>2016-12-11T09:39:01.999Z</time>
      </trkpt>
      <trkpt lat="47.53071" lon="6.68586">
        <ele>373</ele>
        <time>2016-12-11T09:39:02.999Z</time>
      </trkpt>
      <trkpt lat="47.53071" lon="6.68582">
        <ele>375</ele>
        <time>2016-12-11T09:39:03.999Z</time>
      </trkpt>
      <trkpt lat="47.5307" lon="6.68579">
        <ele>375</ele>
        <time>2016-12-11T09:39:04.999Z</time>
      </trkpt>
      <trkpt lat="47.53069" lon="6.68575">
        <ele>375</ele>
        <time>2016-12-11T09:39:05.999Z</time>
      </trkpt>
      <trkpt lat="47.53068" lon="6.68572">
        <ele>375</ele>
        <time>2016-12-11T09:39:06.999Z</time>
      </trkpt>
      <trkpt lat="47.53067" lon="6.68567">
        <ele>375</ele>
        <time>2016-12-11T09:39:07.999Z</time>
      </trkpt>
      <trkpt lat="47.53066" lon="6.68561">
        <ele>375</ele>
        <time>2016-12-11T09:39:09.999Z</time>
      </trkpt>
      <trkpt lat="47.53065" lon="6.68558">
        <ele>375</ele>
        <time>2016-12-11T09:39:10.999Z</time>
      </trkpt>
      <trkpt lat="47.53064" lon="6.68554">
        <ele>375</ele>
        <time>2016-12-11T09:39:11.999Z</time>
      </trkpt>
      <trkpt lat="47.53064" lon="6.68551">
        <ele>375</ele>
        <time>2016-12-11T09:39:12.999Z</time>
      </trkpt>
      <trkpt lat="47.53062" lon="6.68545">
        <ele>375</ele>
        <time>2016-12-11T09:39:14.999Z</time>
      </trkpt>
      <trkpt lat="47.53061" lon="6.68542">
        <ele>375</ele>
        <time>2016-12-11T09:39:15.999Z</time>
      </trkpt>
      <trkpt lat="47.5306" lon="6.68538">
        <ele>375</ele>
        <time>2016-12-11T09:39:16.999Z</time>
      </trkpt>
      <trkpt lat="47.53059" lon="6.68534">
        <ele>375</ele>
        <time>2016-12-11T09:39:17.999Z</time>
      </trkpt>
      <trkpt lat="47.53058" lon="6.68531">
        <ele>376</ele>
        <time>2016-12-11T09:39:18.999Z</time>
      </trkpt>
      <trkpt lat="47.53057" lon="6.68528">
        <ele>376</ele>
        <time>2016-12-11T09:39:19.999Z</time>
      </trkpt>
      <trkpt lat="47.53056" lon="6.68524">
        <ele>376</ele>
        <time>2016-12-11T09:39:20.999Z</time>
      </trkpt>
      <trkpt lat="47.53055" lon="6.6852">
        <ele>376</ele>
        <time>2016-12-11T09:39:21.999Z</time>
      </trkpt>
      <trkpt lat="47.53055" lon="6.68517">
        <ele>376</ele>
        <time>2016-12-11T09:39:22.999Z</time>
      </trkpt>
      <trkpt lat="47.53054" lon="6.68513">
        <ele>376</ele>
        <time>2016-12-11T09:39:23.999Z</time>
      </trkpt>
      <trkpt lat="47.53053" lon="6.6851">
        <ele>376</ele>
        <time>2016-12-11T09:39:24.999Z</time>
      </trkpt>
      <trkpt lat="47.53053" lon="6.68506">
        <ele>376</ele>
        <time>2016-12-11T09:39:25.999Z</time>
      </trkpt>
      <trkpt lat="47.53052" lon="6.68503">
        <ele>376</ele>
        <time>2016-12-11T09:39:26.999Z</time>
      </trkpt>
      <trkpt lat="47.53051" lon="6.685">
        <ele>377</ele>
        <time>2016-12-11T09:39:27.999Z</time>
      </trkpt>
      <trkpt lat="47.53051" lon="6.68497">
        <ele>377</ele>
        <time>2016-12-11T09:39:28.999Z</time>
      </trkpt>
      <trkpt lat="47.5305" lon="6.68493">
        <ele>377</ele>
        <time>2016-12-11T09:39:29.999Z</time>
      </trkpt>
      <trkpt lat="47.53049" lon="6.6849">
        <ele>377</ele>
        <time>2016-12-11T09:39:30.999Z</time>
      </trkpt>
      <trkpt lat="47.53048" lon="6.68486">
        <ele>377</ele>
        <time>2016-12-11T09:39:31.999Z</time>
      </trkpt>
      <trkpt lat="47.53047" lon="6.68482">
        <ele>377</ele>
        <time>2016-12-11T09:39:32.999Z</time>
      </trkpt>
      <trkpt lat="47.53047" lon="6.68479">
        <ele>377</ele>
        <time>2016-12-11T09:39:33.999Z</time>
      </trkpt>
      <trkpt lat="47.53046" lon="6.68475">
        <ele>377</ele>
        <time>2016-12-11T09:39:34.999Z</time>
      </trkpt>
      <trkpt lat="47.53045" lon="6.68471">
        <ele>377</ele>
        <time>2016-12-11T09:39:35.999Z</time>
      </trkpt>
      <trkpt lat="47.53045" lon="6.68467">
        <ele>377</ele>
        <time>2016-12-11T09:39:36.999Z</time>
      </trkpt>
      <trkpt lat="47.53044" lon="6.68463">
        <ele>377</ele>
        <time>2016-12-11T09:39:37.999Z</time>
      </trkpt>
      <trkpt lat="47.53043" lon="6.68459">
        <ele>377</ele>
        <time>2016-12-11T09:39:38.999Z</time>
      </trkpt>
      <trkpt lat="47.53043" lon="6.68455">
        <ele>378</ele>
        <time>2016-12-11T09:39:39.999Z</time>
      </trkpt>
      <trkpt lat="47.53042" lon="6.68452">
        <ele>378</ele>
        <time>2016-12-11T09:39:40.999Z</time>
      </trkpt>
      <trkpt lat="47.53042" lon="6.68448">
        <ele>378</ele>
        <time>2016-12-11T09:39:41.999Z</time>
      </trkpt>
      <trkpt lat="47.53041" lon="6.68445">
        <ele>378</ele>
        <time>2016-12-11T09:39:42.999Z</time>
      </trkpt>
      <trkpt lat="47.53041" lon="6.68441">
        <ele>378</ele>
        <time>2016-12-11T09:39:43.999Z</time>
      </trkpt>
      <trkpt lat="47.5304" lon="6.68437">
        <ele>378</ele>
        <time>2016-12-11T09:39:44.999Z</time>
      </trkpt>
      <trkpt lat="47.5304" lon="6.68434">
        <ele>378</ele>
        <time>2016-12-11T09:39:45.999Z</time>
      </trkpt>
      <trkpt lat="47.53039" lon="6.6843">
        <ele>378</ele>
        <time>2016-12-11T09:39:46.999Z</time>
      </trkpt>
      <trkpt lat="47.53038" lon="6.68427">
        <ele>378</ele>
        <time>2016-12-11T09:39:47.999Z</time>
      </trkpt>
      <trkpt lat="47.53036" lon="6.68421">
        <ele>378</ele>
        <time>2016-12-11T09:39:49.999Z</time>
      </trkpt>
      <trkpt lat="47.53035" lon="6.68418">
        <ele>378</ele>
        <time>2016-12-11T09:39:50.999Z</time>
      </trkpt>
      <trkpt lat="47.53034" lon="6.68414">
        <ele>379</ele>
        <time>2016-12-11T09:39:51.999Z</time>
      </trkpt>
      <trkpt lat="47.53033" lon="6.6841">
        <ele>379</ele>
        <time>2016-12-11T09:39:52.999Z</time>
      </trkpt>
      <trkpt lat="47.53031" lon="6.68405">
        <ele>379</ele>
        <time>2016-12-11T09:39:54.999Z</time>
      </trkpt>
      <trkpt lat="47.5303" lon="6.68402">
        <ele>379</ele>
        <time>2016-12-11T09:39:55.999Z</time>
      </trkpt>
      <trkpt lat="47.53029" lon="6.68397">
        <ele>379</ele>
        <time>2016-12-11T09:39:57.999Z</time>
      </trkpt>
      <trkpt lat="47.53029" lon="6.68395">
        <ele>379</ele>
        <time>2016-12-11T09:39:58.999Z</time>
      </trkpt>
      <trkpt lat="47.53031" lon="6.68392">
        <ele>379</ele>
        <time>2016-12-11T09:40:00.999Z</time>
      </trkpt>
      <trkpt lat="47.53033" lon="6.68391">
        <ele>379</ele>
        <time>2016-12-11T09:40:01.999Z</time>
      </trkpt>
      <trkpt lat="47.53037" lon="6.6839">
        <ele>379</ele>
        <time>2016-12-11T09:40:03.999Z</time>
      </trkpt>
      <trkpt lat="47.53039" lon="6.6839">
        <ele>380</ele>
        <time>2016-12-11T09:40:04.999Z</time>
      </trkpt>
      <trkpt lat="47.53043" lon="6.68387">
        <ele>380</ele>
        <time>2016-12-11T09:40:07.999Z</time>
      </trkpt>
      <trkpt lat="47.53044" lon="6.68387">
        <ele>380</ele>
        <time>2016-12-11T09:40:08.999Z</time>
      </trkpt>
      <trkpt lat="47.53045" lon="6.68381">
        <ele>380</ele>
        <time>2016-12-11T09:40:42.999Z</time>
      </trkpt>
      <trkpt lat="47.53044" lon="6.6838">
        <ele>380</ele>
        <time>2016-12-11T09:40:43.999Z</time>
      </trkpt>
      <trkpt lat="47.53044" lon="6.68386">
        <ele>380</ele>
        <time>2016-12-11T09:41:13.999Z</time>
      </trkpt>
      <trkpt lat="47.53044" lon="6.68387">
        <ele>380</ele>
        <time>2016-12-11T09:41:14.999Z</time>
      </trkpt>
      <trkpt lat="47.53048" lon="6.68386">
        <ele>380</ele>
        <time>2016-12-11T09:41:41.999Z</time>
      </trkpt>
      <trkpt lat="47.53049" lon="6.68386">
        <ele>380</ele>
        <time>2016-12-11T09:41:42.999Z</time>
      </trkpt>
      <trkpt lat="47.53052" lon="6.68385">
        <ele>380</ele>
        <time>2016-12-11T09:41:44.999Z</time>
      </trkpt>
      <trkpt lat="47.53054" lon="6.68385">
        <ele>380</ele>
        <time>2016-12-11T09:41:45.999Z</time>
      </trkpt>
      <trkpt lat="47.53057" lon="6.68385">
        <ele>380</ele>
        <time>2016-12-11T09:41:46.999Z</time>
      </trkpt>
      <trkpt lat="47.5306" lon="6.68386">
        <ele>380</ele>
        <time>2016-12-11T09:41:47.999Z</time>
      </trkpt>
      <trkpt lat="47.53062" lon="6.68386">
        <ele>380</ele>
        <time>2016-12-11T09:41:48.999Z</time>
      </trkpt>
      <trkpt lat="47.53064" lon="6.68386">
        <ele>380</ele>
        <time>2016-12-11T09:41:49.999Z</time>
      </trkpt>
      <trkpt lat="47.53067" lon="6.68386">
        <ele>380</ele>
        <time>2016-12-11T09:41:50.999Z</time>
      </trkpt>
      <trkpt lat="47.53069" lon="6.68386">
        <ele>380</ele>
        <time>2016-12-11T09:41:51.999Z</time>
      </trkpt>
      <trkpt lat="47.53073" lon="6.68386">
        <ele>380</ele>
        <time>2016-12-11T09:41:53.999Z</time>
      </trkpt>
      <trkpt lat="47.53075" lon="6.68386">
        <ele>380</ele>
        <time>2016-12-11T09:41:54.999Z</time>
      </trkpt>
      <trkpt lat="47.53079" lon="6.68386">
        <ele>380</ele>
        <time>2016-12-11T09:41:56.999Z</time>
      </trkpt>
      <trkpt lat="47.5308" lon="6.68386">
        <ele>380</ele>
        <time>2016-12-11T09:41:57.999Z</time>
      </trkpt>
      <trkpt lat="47.53084" lon="6.68385">
        <ele>381</ele>
        <time>2016-12-11T09:41:59.999Z</time>
      </trkpt>
      <trkpt lat="47.53087" lon="6.68384">
        <ele>381</ele>
        <time>2016-12-11T09:42:00.999Z</time>
      </trkpt>
      <trkpt lat="47.53089" lon="6.68384">
        <ele>381</ele>
        <time>2016-12-11T09:42:01.999Z</time>
      </trkpt>
      <trkpt lat="47.53092" lon="6.68383">
        <ele>381</ele>
        <time>2016-12-11T09:42:02.999Z</time>
      </trkpt>
      <trkpt lat="47.53096" lon="6.68382">
        <ele>381</ele>
        <time>2016-12-11T09:42:03.999Z</time>
      </trkpt>
      <trkpt lat="47.53099" lon="6.68382">
        <ele>381</ele>
        <time>2016-12-11T09:42:04.999Z</time>
      </trkpt>
      <trkpt lat="47.53102" lon="6.68382">
        <ele>381</ele>
        <time>2016-12-11T09:42:05.999Z</time>
      </trkpt>
      <trkpt lat="47.53106" lon="6.68382">
        <ele>381</ele>
        <time>2016-12-11T09:42:06.999Z</time>
      </trkpt>
      <trkpt lat="47.53109" lon="6.68382">
        <ele>381</ele>
        <time>2016-12-11T09:42:07.999Z</time>
      </trkpt>
      <trkpt lat="47.53112" lon="6.68382">
        <ele>381</ele>
        <time>2016-12-11T09:42:08.999Z</time>
      </trkpt>
      <trkpt lat="47.53115" lon="6.68382">
        <ele>381</ele>
        <time>2016-12-11T09:42:09.999Z</time>
      </trkpt>
      <trkpt lat="47.53117" lon="6.68382">
        <ele>381</ele>
        <time>2016-12-11T09:42:10.999Z</time>
      </trkpt>
      <trkpt lat="47.53121" lon="6.68382">
        <ele>381</ele>
        <time>2016-12-11T09:42:11.999Z</time>
      </trkpt>
      <trkpt lat="47.53124" lon="6.68382">
        <ele>381</ele>
        <time>2016-12-11T09:42:12.999Z</time>
      </trkpt>
      <trkpt lat="47.53127" lon="6.68381">
        <ele>381</ele>
        <time>2016-12-11T09:42:13.999Z</time>
      </trkpt>
      <trkpt lat="47.5313" lon="6.68381">
        <ele>381</ele>
        <time>2016-12-11T09:42:14.999Z</time>
      </trkpt>
      <trkpt lat="47.53133" lon="6.68381">
        <ele>382</ele>
        <time>2016-12-11T09:42:15.999Z</time>
      </trkpt>
      <trkpt lat="47.53136" lon="6.68381">
        <ele>382</ele>
        <time>2016-12-11T09:42:16.999Z</time>
      </trkpt>
      <trkpt lat="47.53139" lon="6.68381">
        <ele>382</ele>
        <time>2016-12-11T09:42:17.999Z</time>
      </trkpt>
      <trkpt lat="47.53142" lon="6.68381">
        <ele>382</ele>
        <time>2016-12-11T09:42:18.999Z</time>
      </trkpt>
      <trkpt lat="47.53145" lon="6.68381">
        <ele>382</ele>
        <time>2016-12-11T09:42:19.999Z</time>
      </trkpt>
      <trkpt lat="47.53149" lon="6.68381">
        <ele>382</ele>
        <time>2016-12-11T09:42:20.999Z</time>
      </trkpt>
      <trkpt lat="47.53152" lon="6.68381">
        <ele>382</ele>
        <time>2016-12-11T09:42:21.999Z</time>
      </trkpt>
      <trkpt lat="47.53155" lon="6.68381">
        <ele>382</ele>
        <time>2016-12-11T09:42:22.999Z</time>
      </trkpt>
      <trkpt lat="47.53158" lon="6.6838">
        <ele>382</ele>
        <time>2016-12-11T09:42:23.999Z</time>
      </trkpt>
      <trkpt lat="47.53162" lon="6.6838">
        <ele>382</ele>
        <time>2016-12-11T09:42:24.999Z</time>
      </trkpt>
      <trkpt lat="47.53165" lon="6.6838">
        <ele>382</ele>
        <time>2016-12-11T09:42:25.999Z</time>
      </trkpt>
      <trkpt lat="47.5317" lon="6.6838">
        <ele>378</ele>
        <time>2016-12-11T09:42:26.999Z</time>
      </trkpt>
      <trkpt lat="47.53174" lon="6.68379">
        <ele>378</ele>
        <time>2016-12-11T09:42:27.999Z</time>
      </trkpt>
      <trkpt lat="47.53179" lon="6.68378">
        <ele>378</ele>
        <time>2016-12-11T09:42:28.999Z</time>
      </trkpt>
      <trkpt lat="47.53184" lon="6.68378">
        <ele>377</ele>
        <time>2016-12-11T09:42:29.999Z</time>
      </trkpt>
      <trkpt lat="47.53191" lon="6.68377">
        <ele>377</ele>
        <time>2016-12-11T09:42:30.999Z</time>
      </trkpt>
      <trkpt lat="47.53197" lon="6.68377">
        <ele>376</ele>
        <time>2016-12-11T09:42:31.999Z</time>
      </trkpt>
      <trkpt lat="47.53204" lon="6.68375">
        <ele>376</ele>
        <time>2016-12-11T09:42:32.999Z</time>
      </trkpt>
      <trkpt lat="47.53211" lon="6.68375">
        <ele>375</ele>
        <time>2016-12-11T09:42:33.999Z</time>
      </trkpt>
      <trkpt lat="47.53217" lon="6.68375">
        <ele>375</ele>
        <time>2016-12-11T09:42:34.999Z</time>
      </trkpt>
      <trkpt lat="47.53224" lon="6.68375">
        <ele>374</ele>
        <time>2016-12-11T09:42:35.999Z</time>
      </trkpt>
      <trkpt lat="47.53232" lon="6.68375">
        <ele>374</ele>
        <time>2016-12-11T09:42:36.999Z</time>
      </trkpt>
      <trkpt lat="47.53239" lon="6.68376">
        <ele>373</ele>
        <time>2016-12-11T09:42:37.999Z</time>
      </trkpt>
      <trkpt lat="47.53249" lon="6.68375">
        <ele>373</ele>
        <time>2016-12-11T09:42:38.999Z</time>
      </trkpt>
      <trkpt lat="47.53259" lon="6.68376">
        <ele>366</ele>
        <time>2016-12-11T09:42:39.999Z</time>
      </trkpt>
      <trkpt lat="47.53267" lon="6.68376">
        <ele>366</ele>
        <time>2016-12-11T09:42:40.999Z</time>
      </trkpt>
      <trkpt lat="47.53275" lon="6.68376">
        <ele>366</ele>
        <time>2016-12-11T09:42:41.999Z</time>
      </trkpt>
      <trkpt lat="47.53282" lon="6.68376">
        <ele>366</ele>
        <time>2016-12-11T09:42:42.999Z</time>
      </trkpt>
      <trkpt lat="47.5329" lon="6.68376">
        <ele>365</ele>
        <time>2016-12-11T09:42:43.999Z</time>
      </trkpt>
      <trkpt lat="47.53296" lon="6.68376">
        <ele>365</ele>
        <time>2016-12-11T09:42:44.999Z</time>
      </trkpt>
      <trkpt lat="47.533" lon="6.68376">
        <ele>365</ele>
        <time>2016-12-11T09:42:45.999Z</time>
      </trkpt>
      <trkpt lat="47.53306" lon="6.68376">
        <ele>365</ele>
        <time>2016-12-11T09:42:46.999Z</time>
      </trkpt>
      <trkpt lat="47.53314" lon="6.68378">
        <ele>364</ele>
        <time>2016-12-11T09:42:47.999Z</time>
      </trkpt>
      <trkpt lat="47.53321" lon="6.6838">
        <ele>364</ele>
        <time>2016-12-11T09:42:48.999Z</time>
      </trkpt>
      <trkpt lat="47.53329" lon="6.68382">
        <ele>364</ele>
        <time>2016-12-11T09:42:49.999Z</time>
      </trkpt>
      <trkpt lat="47.53334" lon="6.68382">
        <ele>366</ele>
        <time>2016-12-11T09:42:50.999Z</time>
      </trkpt>
      <trkpt lat="47.53339" lon="6.68382">
        <ele>366</ele>
        <time>2016-12-11T09:42:51.999Z</time>
      </trkpt>
      <trkpt lat="47.53345" lon="6.68382">
        <ele>366</ele>
        <time>2016-12-11T09:42:52.999Z</time>
      </trkpt>
      <trkpt lat="47.5335" lon="6.68382">
        <ele>367</ele>
        <time>2016-12-11T09:42:53.999Z</time>
      </trkpt>
      <trkpt lat="47.53355" lon="6.68384">
        <ele>367</ele>
        <time>2016-12-11T09:42:54.999Z</time>
      </trkpt>
      <trkpt lat="47.5336" lon="6.68385">
        <ele>367</ele>
        <time>2016-12-11T09:42:55.999Z</time>
      </trkpt>
      <trkpt lat="47.53362" lon="6.68388">
        <ele>368</ele>
        <time>2016-12-11T09:42:56.999Z</time>
      </trkpt>
      <trkpt lat="47.53364" lon="6.68389">
        <ele>368</ele>
        <time>2016-12-11T09:42:57.999Z</time>
      </trkpt>
      <trkpt lat="47.53368" lon="6.68389">
        <ele>368</ele>
        <time>2016-12-11T09:42:59.999Z</time>
      </trkpt>
      <trkpt lat="47.5337" lon="6.68388">
        <ele>368</ele>
        <time>2016-12-11T09:43:00.999Z</time>
      </trkpt>
      <trkpt lat="47.53371" lon="6.68385">
        <ele>368</ele>
        <time>2016-12-11T09:43:01.999Z</time>
      </trkpt>
      <trkpt lat="47.53371" lon="6.68381">
        <ele>368</ele>
        <time>2016-12-11T09:43:02.999Z</time>
      </trkpt>
      <trkpt lat="47.53372" lon="6.68375">
        <ele>368</ele>
        <time>2016-12-11T09:43:03.999Z</time>
      </trkpt>
      <trkpt lat="47.53374" lon="6.68373">
        <ele>368</ele>
        <time>2016-12-11T09:43:04.999Z</time>
      </trkpt>
      <trkpt lat="47.53374" lon="6.6837">
        <ele>368</ele>
        <time>2016-12-11T09:43:05.999Z</time>
      </trkpt>
      <trkpt lat="47.53376" lon="6.68367">
        <ele>368</ele>
        <time>2016-12-11T09:43:06.999Z</time>
      </trkpt>
      <trkpt lat="47.53378" lon="6.68365">
        <ele>369</ele>
        <time>2016-12-11T09:43:07.999Z</time>
      </trkpt>
      <trkpt lat="47.53381" lon="6.68365">
        <ele>369</ele>
        <time>2016-12-11T09:43:08.999Z</time>
      </trkpt>
      <trkpt lat="47.53384" lon="6.68366">
        <ele>369</ele>
        <time>2016-12-11T09:43:10.999Z</time>
      </trkpt>
      <trkpt lat="47.53385" lon="6.68367">
        <ele>369</ele>
        <time>2016-12-11T09:43:11.999Z</time>
      </trkpt>
      <trkpt lat="47.53385" lon="6.68367">
        <ele>369</ele>
        <time>2016-12-11T09:43:14.999Z</time>
      </trkpt>
      <trkpt lat="47.53394" lon="6.68369">
        <ele>370</ele>
        <time>2016-12-11T09:43:15.999Z</time>
      </trkpt>
      <trkpt lat="47.53397" lon="6.68371">
        <ele>370</ele>
        <time>2016-12-11T09:43:17.999Z</time>
      </trkpt>
      <trkpt lat="47.534" lon="6.68372">
        <ele>370</ele>
        <time>2016-12-11T09:43:18.999Z</time>
      </trkpt>
      <trkpt lat="47.53402" lon="6.68373">
        <ele>370</ele>
        <time>2016-12-11T09:43:19.999Z</time>
      </trkpt>
      <trkpt lat="47.53404" lon="6.68373">
        <ele>370</ele>
        <time>2016-12-11T09:43:20.999Z</time>
      </trkpt>
      <trkpt lat="47.53407" lon="6.68374">
        <ele>371</ele>
        <time>2016-12-11T09:43:21.999Z</time>
      </trkpt>
      <trkpt lat="47.53409" lon="6.68374">
        <ele>371</ele>
        <time>2016-12-11T09:43:22.999Z</time>
      </trkpt>
      <trkpt lat="47.53411" lon="6.68374">
        <ele>371</ele>
        <time>2016-12-11T09:43:23.999Z</time>
      </trkpt>
      <trkpt lat="47.53414" lon="6.68375">
        <ele>371</ele>
        <time>2016-12-11T09:43:24.999Z</time>
      </trkpt>
      <trkpt lat="47.53418" lon="6.68376">
        <ele>377</ele>
        <time>2016-12-11T09:43:26.999Z</time>
      </trkpt>
      <trkpt lat="47.5342" lon="6.68377">
        <ele>377</ele>
        <time>2016-12-11T09:43:27.999Z</time>
      </trkpt>
      <trkpt lat="47.53424" lon="6.68378">
        <ele>377</ele>
        <time>2016-12-11T09:43:29.999Z</time>
      </trkpt>
      <trkpt lat="47.53425" lon="6.68379">
        <ele>377</ele>
        <time>2016-12-11T09:43:30.999Z</time>
      </trkpt>
      <trkpt lat="47.53429" lon="6.68381">
        <ele>377</ele>
        <time>2016-12-11T09:43:32.999Z</time>
      </trkpt>
      <trkpt lat="47.53431" lon="6.68382">
        <ele>377</ele>
        <time>2016-12-11T09:43:33.999Z</time>
      </trkpt>
      <trkpt lat="47.53434" lon="6.68383">
        <ele>377</ele>
        <time>2016-12-11T09:43:34.999Z</time>
      </trkpt>
      <trkpt lat="47.53436" lon="6.68382">
        <ele>377</ele>
        <time>2016-12-11T09:43:35.999Z</time>
      </trkpt>
      <trkpt lat="47.53441" lon="6.68381">
        <ele>377</ele>
        <time>2016-12-11T09:43:37.999Z</time>
      </trkpt>
      <trkpt lat="47.53442" lon="6.68381">
        <ele>377</ele>
        <time>2016-12-11T09:43:38.999Z</time>
      </trkpt>
      <trkpt lat="47.53445" lon="6.68378">
        <ele>377</ele>
        <time>2016-12-11T09:43:39.999Z</time>
      </trkpt>
      <trkpt lat="47.53447" lon="6.68375">
        <ele>377</ele>
        <time>2016-12-11T09:43:40.999Z</time>
      </trkpt>
      <trkpt lat="47.5345" lon="6.68371">
        <ele>377</ele>
        <time>2016-12-11T09:43:41.999Z</time>
      </trkpt>
      <trkpt lat="47.53454" lon="6.68367">
        <ele>377</ele>
        <time>2016-12-11T09:43:42.999Z</time>
      </trkpt>
      <trkpt lat="47.53457" lon="6.68363">
        <ele>377</ele>
        <time>2016-12-11T09:43:43.999Z</time>
      </trkpt>
      <trkpt lat="47.5346" lon="6.6836">
        <ele>377</ele>
        <time>2016-12-11T09:43:44.999Z</time>
      </trkpt>
      <trkpt lat="47.53463" lon="6.68359">
        <ele>377</ele>
        <time>2016-12-11T09:43:45.999Z</time>
      </trkpt>
      <trkpt lat="47.53468" lon="6.68358">
        <ele>377</ele>
        <time>2016-12-11T09:43:46.999Z</time>
      </trkpt>
      <trkpt lat="47.53474" lon="6.68359">
        <ele>377</ele>
        <time>2016-12-11T09:43:47.999Z</time>
      </trkpt>
      <trkpt lat="47.53478" lon="6.6836">
        <ele>377</ele>
        <time>2016-12-11T09:43:48.999Z</time>
      </trkpt>
      <trkpt lat="47.53483" lon="6.68361">
        <ele>377</ele>
        <time>2016-12-11T09:43:49.999Z</time>
      </trkpt>
      <trkpt lat="47.53485" lon="6.68362">
        <ele>378</ele>
        <time>2016-12-11T09:43:50.999Z</time>
      </trkpt>
      <trkpt lat="47.53487" lon="6.68363">
        <ele>378</ele>
        <time>2016-12-11T09:43:51.999Z</time>
      </trkpt>
      <trkpt lat="47.5349" lon="6.68363">
        <ele>378</ele>
        <time>2016-12-11T09:43:52.999Z</time>
      </trkpt>
      <trkpt lat="47.53493" lon="6.68364">
        <ele>378</ele>
        <time>2016-12-11T09:43:53.999Z</time>
      </trkpt>
      <trkpt lat="47.53495" lon="6.68365">
        <ele>378</ele>
        <time>2016-12-11T09:43:54.999Z</time>
      </trkpt>
      <trkpt lat="47.53497" lon="6.68365">
        <ele>378</ele>
        <time>2016-12-11T09:43:55.999Z</time>
      </trkpt>
      <trkpt lat="47.53501" lon="6.68366">
        <ele>380</ele>
        <time>2016-12-11T09:43:56.999Z</time>
      </trkpt>
      <trkpt lat="47.53505" lon="6.68367">
        <ele>380</ele>
        <time>2016-12-11T09:43:58.999Z</time>
      </trkpt>
      <trkpt lat="47.53508" lon="6.68368">
        <ele>380</ele>
        <time>2016-12-11T09:43:59.999Z</time>
      </trkpt>
      <trkpt lat="47.53511" lon="6.68369">
        <ele>380</ele>
        <time>2016-12-11T09:44:00.999Z</time>
      </trkpt>
      <trkpt lat="47.53515" lon="6.68369">
        <ele>380</ele>
        <time>2016-12-11T09:44:01.999Z</time>
      </trkpt>
      <trkpt lat="47.53518" lon="6.68368">
        <ele>380</ele>
        <time>2016-12-11T09:44:02.999Z</time>
      </trkpt>
      <trkpt lat="47.53521" lon="6.68367">
        <ele>380</ele>
        <time>2016-12-11T09:44:03.999Z</time>
      </trkpt>
      <trkpt lat="47.53523" lon="6.68367">
        <ele>380</ele>
        <time>2016-12-11T09:44:04.999Z</time>
      </trkpt>
      <trkpt lat="47.53525" lon="6.68366">
        <ele>380</ele>
        <time>2016-12-11T09:44:05.999Z</time>
      </trkpt>
      <trkpt lat="47.53528" lon="6.68365">
        <ele>380</ele>
        <time>2016-12-11T09:44:06.999Z</time>
      </trkpt>
      <trkpt lat="47.5353" lon="6.68365">
        <ele>380</ele>
        <time>2016-12-11T09:44:07.999Z</time>
      </trkpt>
      <trkpt lat="47.53534" lon="6.68364">
        <ele>380</ele>
        <time>2016-12-11T09:44:09.999Z</time>
      </trkpt>
      <trkpt lat="47.53537" lon="6.6836">
        <ele>380</ele>
        <time>2016-12-11T09:44:10.999Z</time>
      </trkpt>
      <trkpt lat="47.5354" lon="6.68357">
        <ele>380</ele>
        <time>2016-12-11T09:44:11.999Z</time>
      </trkpt>
      <trkpt lat="47.53543" lon="6.68355">
        <ele>380</ele>
        <time>2016-12-11T09:44:12.999Z</time>
      </trkpt>
      <trkpt lat="47.53546" lon="6.68354">
        <ele>380</ele>
        <time>2016-12-11T09:44:13.999Z</time>
      </trkpt>
      <trkpt lat="47.53549" lon="6.68352">
        <ele>380</ele>
        <time>2016-12-11T09:44:14.999Z</time>
      </trkpt>
      <trkpt lat="47.53553" lon="6.68348">
        <ele>380</ele>
        <time>2016-12-11T09:44:15.999Z</time>
      </trkpt>
      <trkpt lat="47.53556" lon="6.68345">
        <ele>380</ele>
        <time>2016-12-11T09:44:16.999Z</time>
      </trkpt>
      <trkpt lat="47.53559" lon="6.68344">
        <ele>380</ele>
        <time>2016-12-11T09:44:17.999Z</time>
      </trkpt>
      <trkpt lat="47.53561" lon="6.68343">
        <ele>381</ele>
        <time>2016-12-11T09:44:18.999Z</time>
      </trkpt>
      <trkpt lat="47.53565" lon="6.68342">
        <ele>381</ele>
        <time>2016-12-11T09:44:21.999Z</time>
      </trkpt>
      <trkpt lat="47.53567" lon="6.68343">
        <ele>381</ele>
        <time>2016-12-11T09:44:22.999Z</time>
      </trkpt>
      <trkpt lat="47.53569" lon="6.68343">
        <ele>381</ele>
        <time>2016-12-11T09:44:23.999Z</time>
      </trkpt>
      <trkpt lat="47.53572" lon="6.68344">
        <ele>381</ele>
        <time>2016-12-11T09:44:24.999Z</time>
      </trkpt>
      <trkpt lat="47.53574" lon="6.68344">
        <ele>381</ele>
        <time>2016-12-11T09:44:25.999Z</time>
      </trkpt>
      <trkpt lat="47.53577" lon="6.68346">
        <ele>381</ele>
        <time>2016-12-11T09:44:26.999Z</time>
      </trkpt>
      <trkpt lat="47.53581" lon="6.68346">
        <ele>381</ele>
        <time>2016-12-11T09:44:28.999Z</time>
      </trkpt>
      <trkpt lat="47.53584" lon="6.68346">
        <ele>381</ele>
        <time>2016-12-11T09:44:29.999Z</time>
      </trkpt>
      <trkpt lat="47.53587" lon="6.68347">
        <ele>381</ele>
        <time>2016-12-11T09:44:30.999Z</time>
      </trkpt>
      <trkpt lat="47.53591" lon="6.68347">
        <ele>381</ele>
        <time>2016-12-11T09:44:31.999Z</time>
      </trkpt>
      <trkpt lat="47.53595" lon="6.68345">
        <ele>381</ele>
        <time>2016-12-11T09:44:32.999Z</time>
      </trkpt>
      <trkpt lat="47.53597" lon="6.68345">
        <ele>381</ele>
        <time>2016-12-11T09:44:33.999Z</time>
      </trkpt>
      <trkpt lat="47.536" lon="6.68344">
        <ele>381</ele>
        <time>2016-12-11T09:44:34.999Z</time>
      </trkpt>
      <trkpt lat="47.53604" lon="6.68342">
        <ele>381</ele>
        <time>2016-12-11T09:44:35.999Z</time>
      </trkpt>
      <trkpt lat="47.53607" lon="6.68341">
        <ele>381</ele>
        <time>2016-12-11T09:44:36.999Z</time>
      </trkpt>
      <trkpt lat="47.53609" lon="6.68341">
        <ele>381</ele>
        <time>2016-12-11T09:44:37.999Z</time>
      </trkpt>
      <trkpt lat="47.53611" lon="6.68341">
        <ele>381</ele>
        <time>2016-12-11T09:44:38.999Z</time>
      </trkpt>
      <trkpt lat="47.53614" lon="6.68341">
        <ele>381</ele>
        <time>2016-12-11T09:44:39.999Z</time>
      </trkpt>
      <trkpt lat="47.53617" lon="6.6834">
        <ele>381</ele>
        <time>2016-12-11T09:44:40.999Z</time>
      </trkpt>
      <trkpt lat="47.5362" lon="6.68338">
        <ele>381</ele>
        <time>2016-12-11T09:44:41.999Z</time>
      </trkpt>
      <trkpt lat="47.53623" lon="6.68337">
        <ele>381</ele>
        <time>2016-12-11T09:44:42.999Z</time>
      </trkpt>
      <trkpt lat="47.53625" lon="6.68335">
        <ele>381</ele>
        <time>2016-12-11T09:44:43.999Z</time>
      </trkpt>
      <trkpt lat="47.53628" lon="6.68333">
        <ele>382</ele>
        <time>2016-12-11T09:44:44.999Z</time>
      </trkpt>
      <trkpt lat="47.53631" lon="6.68331">
        <ele>382</ele>
        <time>2016-12-11T09:44:45.999Z</time>
      </trkpt>
      <trkpt lat="47.53635" lon="6.68329">
        <ele>382</ele>
        <time>2016-12-11T09:44:46.999Z</time>
      </trkpt>
      <trkpt lat="47.53637" lon="6.68328">
        <ele>382</ele>
        <time>2016-12-11T09:44:47.999Z</time>
      </trkpt>
      <trkpt lat="47.5364" lon="6.68327">
        <ele>382</ele>
        <time>2016-12-11T09:44:48.999Z</time>
      </trkpt>
      <trkpt lat="47.53643" lon="6.68326">
        <ele>382</ele>
        <time>2016-12-11T09:44:49.999Z</time>
      </trkpt>
      <trkpt lat="47.53645" lon="6.68327">
        <ele>382</ele>
        <time>2016-12-11T09:44:50.999Z</time>
      </trkpt>
      <trkpt lat="47.53648" lon="6.68327">
        <ele>382</ele>
        <time>2016-12-11T09:44:51.999Z</time>
      </trkpt>
      <trkpt lat="47.53651" lon="6.68327">
        <ele>382</ele>
        <time>2016-12-11T09:44:52.999Z</time>
      </trkpt>
      <trkpt lat="47.53654" lon="6.68327">
        <ele>382</ele>
        <time>2016-12-11T09:44:53.999Z</time>
      </trkpt>
      <trkpt lat="47.53659" lon="6.68327">
        <ele>382</ele>
        <time>2016-12-11T09:44:54.999Z</time>
      </trkpt>
      <trkpt lat="47.53665" lon="6.68327">
        <ele>383</ele>
        <time>2016-12-11T09:44:55.999Z</time>
      </trkpt>
      <trkpt lat="47.53671" lon="6.68326">
        <ele>384</ele>
        <time>2016-12-11T09:44:56.999Z</time>
      </trkpt>
      <trkpt lat="47.53679" lon="6.68325">
        <ele>384</ele>
        <time>2016-12-11T09:44:57.999Z</time>
      </trkpt>
      <trkpt lat="47.53689" lon="6.68329">
        <ele>384</ele>
        <time>2016-12-11T09:45:00.999Z</time>
      </trkpt>
      <trkpt lat="47.53695" lon="6.68334">
        <ele>382</ele>
        <time>2016-12-11T09:45:01.999Z</time>
      </trkpt>
      <trkpt lat="47.53698" lon="6.68334">
        <ele>382</ele>
        <time>2016-12-11T09:45:02.999Z</time>
      </trkpt>
      <trkpt lat="47.537" lon="6.68333">
        <ele>385</ele>
        <time>2016-12-11T09:45:03.999Z</time>
      </trkpt>
      <trkpt lat="47.53706" lon="6.68331">
        <ele>385</ele>
        <time>2016-12-11T09:45:04.999Z</time>
      </trkpt>
      <trkpt lat="47.53713" lon="6.68328">
        <ele>385</ele>
        <time>2016-12-11T09:45:06.999Z</time>
      </trkpt>
      <trkpt lat="47.53718" lon="6.68324">
        <ele>385</ele>
        <time>2016-12-11T09:45:08.999Z</time>
      </trkpt>
      <trkpt lat="47.5372" lon="6.68322">
        <ele>385</ele>
        <time>2016-12-11T09:45:09.999Z</time>
      </trkpt>
      <trkpt lat="47.53722" lon="6.68319">
        <ele>386</ele>
        <time>2016-12-11T09:45:10.999Z</time>
      </trkpt>
      <trkpt lat="47.53727" lon="6.68315">
        <ele>386</ele>
        <time>2016-12-11T09:45:11.999Z</time>
      </trkpt>
      <trkpt lat="47.53729" lon="6.68312">
        <ele>386</ele>
        <time>2016-12-11T09:45:12.999Z</time>
      </trkpt>
      <trkpt lat="47.53731" lon="6.68309">
        <ele>386</ele>
        <time>2016-12-11T09:45:13.999Z</time>
      </trkpt>
      <trkpt lat="47.53732" lon="6.68305">
        <ele>386</ele>
        <time>2016-12-11T09:45:14.999Z</time>
      </trkpt>
      <trkpt lat="47.53734" lon="6.68301">
        <ele>386</ele>
        <time>2016-12-11T09:45:15.999Z</time>
      </trkpt>
      <trkpt lat="47.53737" lon="6.68298">
        <ele>386</ele>
        <time>2016-12-11T09:45:16.999Z</time>
      </trkpt>
      <trkpt lat="47.53739" lon="6.68294">
        <ele>386</ele>
        <time>2016-12-11T09:45:17.999Z</time>
      </trkpt>
      <trkpt lat="47.53741" lon="6.68291">
        <ele>386</ele>
        <time>2016-12-11T09:45:18.999Z</time>
      </trkpt>
      <trkpt lat="47.53742" lon="6.68289">
        <ele>386</ele>
        <time>2016-12-11T09:45:19.999Z</time>
      </trkpt>
      <trkpt lat="47.53744" lon="6.68284">
        <ele>386</ele>
        <time>2016-12-11T09:45:20.999Z</time>
      </trkpt>
      <trkpt lat="47.53745" lon="6.6828">
        <ele>387</ele>
        <time>2016-12-11T09:45:21.999Z</time>
      </trkpt>
      <trkpt lat="47.53746" lon="6.68276">
        <ele>387</ele>
        <time>2016-12-11T09:45:22.999Z</time>
      </trkpt>
      <trkpt lat="47.53748" lon="6.68272">
        <ele>387</ele>
        <time>2016-12-11T09:45:23.999Z</time>
      </trkpt>
      <trkpt lat="47.53747" lon="6.68266">
        <ele>387</ele>
        <time>2016-12-11T09:45:25.999Z</time>
      </trkpt>
      <trkpt lat="47.53747" lon="6.68264">
        <ele>387</ele>
        <time>2016-12-11T09:45:26.999Z</time>
      </trkpt>
      <trkpt lat="47.53746" lon="6.68259">
        <ele>388</ele>
        <time>2016-12-11T09:45:29.999Z</time>
      </trkpt>
      <trkpt lat="47.53745" lon="6.68255">
        <ele>388</ele>
        <time>2016-12-11T09:45:30.999Z</time>
      </trkpt>
      <trkpt lat="47.53745" lon="6.6825">
        <ele>389</ele>
        <time>2016-12-11T09:45:33.999Z</time>
      </trkpt>
      <trkpt lat="47.53744" lon="6.68246">
        <ele>388</ele>
        <time>2016-12-11T09:45:34.999Z</time>
      </trkpt>
      <trkpt lat="47.53744" lon="6.68243">
        <ele>388</ele>
        <time>2016-12-11T09:45:35.999Z</time>
      </trkpt>
      <trkpt lat="47.53743" lon="6.68238">
        <ele>388</ele>
        <time>2016-12-11T09:45:36.999Z</time>
      </trkpt>
      <trkpt lat="47.53742" lon="6.68233">
        <ele>388</ele>
        <time>2016-12-11T09:45:37.999Z</time>
      </trkpt>
      <trkpt lat="47.53741" lon="6.6823">
        <ele>388</ele>
        <time>2016-12-11T09:45:38.999Z</time>
      </trkpt>
      <trkpt lat="47.53741" lon="6.6823">
        <ele>388</ele>
        <time>2016-12-11T09:45:39.999Z</time>
      </trkpt>
      <trkpt lat="47.53739" lon="6.68222">
        <ele>388</ele>
        <time>2016-12-11T09:45:40.999Z</time>
      </trkpt>
      <trkpt lat="47.53737" lon="6.68215">
        <ele>387</ele>
        <time>2016-12-11T09:45:41.999Z</time>
      </trkpt>
      <trkpt lat="47.53736" lon="6.68208">
        <ele>387</ele>
        <time>2016-12-11T09:45:42.999Z</time>
      </trkpt>
      <trkpt lat="47.53734" lon="6.682">
        <ele>387</ele>
        <time>2016-12-11T09:45:43.999Z</time>
      </trkpt>
      <trkpt lat="47.53735" lon="6.68191">
        <ele>388</ele>
        <time>2016-12-11T09:45:44.999Z</time>
      </trkpt>
      <trkpt lat="47.53737" lon="6.68183">
        <ele>388</ele>
        <time>2016-12-11T09:45:45.999Z</time>
      </trkpt>
      <trkpt lat="47.53738" lon="6.68176">
        <ele>388</ele>
        <time>2016-12-11T09:45:46.999Z</time>
      </trkpt>
      <trkpt lat="47.5374" lon="6.68172">
        <ele>388</ele>
        <time>2016-12-11T09:45:47.999Z</time>
      </trkpt>
      <trkpt lat="47.53741" lon="6.68167">
        <ele>388</ele>
        <time>2016-12-11T09:45:48.999Z</time>
      </trkpt>
      <trkpt lat="47.53742" lon="6.68161">
        <ele>388</ele>
        <time>2016-12-11T09:45:49.999Z</time>
      </trkpt>
      <trkpt lat="47.53742" lon="6.68156">
        <ele>388</ele>
        <time>2016-12-11T09:45:50.999Z</time>
      </trkpt>
      <trkpt lat="47.53743" lon="6.68151">
        <ele>387</ele>
        <time>2016-12-11T09:45:51.999Z</time>
      </trkpt>
      <trkpt lat="47.53743" lon="6.68146">
        <ele>387</ele>
        <time>2016-12-11T09:45:52.999Z</time>
      </trkpt>
      <trkpt lat="47.53744" lon="6.68144">
        <ele>387</ele>
        <time>2016-12-11T09:45:53.999Z</time>
      </trkpt>
      <trkpt lat="47.53743" lon="6.68139">
        <ele>387</ele>
        <time>2016-12-11T09:45:54.999Z</time>
      </trkpt>
      <trkpt lat="47.53743" lon="6.68135">
        <ele>387</ele>
        <time>2016-12-11T09:45:55.999Z</time>
      </trkpt>
      <trkpt lat="47.53744" lon="6.68132">
        <ele>387</ele>
        <time>2016-12-11T09:45:56.999Z</time>
      </trkpt>
      <trkpt lat="47.53742" lon="6.68128">
        <ele>386</ele>
        <time>2016-12-11T09:45:57.999Z</time>
      </trkpt>
      <trkpt lat="47.53742" lon="6.68125">
        <ele>386</ele>
        <time>2016-12-11T09:45:58.999Z</time>
      </trkpt>
      <trkpt lat="47.53741" lon="6.68121">
        <ele>386</ele>
        <time>2016-12-11T09:45:59.999Z</time>
      </trkpt>
      <trkpt lat="47.5374" lon="6.68116">
        <ele>386</ele>
        <time>2016-12-11T09:46:00.999Z</time>
      </trkpt>
      <trkpt lat="47.53739" lon="6.6811">
        <ele>386</ele>
        <time>2016-12-11T09:46:01.999Z</time>
      </trkpt>
      <trkpt lat="47.53738" lon="6.68105">
        <ele>386</ele>
        <time>2016-12-11T09:46:02.999Z</time>
      </trkpt>
      <trkpt lat="47.53738" lon="6.681">
        <ele>386</ele>
        <time>2016-12-11T09:46:03.999Z</time>
      </trkpt>
      <trkpt lat="47.53737" lon="6.68095">
        <ele>386</ele>
        <time>2016-12-11T09:46:04.999Z</time>
      </trkpt>
      <trkpt lat="47.53738" lon="6.68087">
        <ele>386</ele>
        <time>2016-12-11T09:46:05.999Z</time>
      </trkpt>
      <trkpt lat="47.5374" lon="6.68083">
        <ele>384</ele>
        <time>2016-12-11T09:46:06.999Z</time>
      </trkpt>
      <trkpt lat="47.53742" lon="6.68081">
        <ele>384</ele>
        <time>2016-12-11T09:46:07.999Z</time>
      </trkpt>
      <trkpt lat="47.53745" lon="6.6808">
        <ele>385</ele>
        <time>2016-12-11T09:46:08.999Z</time>
      </trkpt>
      <trkpt lat="47.53748" lon="6.6808">
        <ele>385</ele>
        <time>2016-12-11T09:46:09.999Z</time>
      </trkpt>
      <trkpt lat="47.53752" lon="6.6808">
        <ele>385</ele>
        <time>2016-12-11T09:46:10.999Z</time>
      </trkpt>
      <trkpt lat="47.53755" lon="6.68081">
        <ele>385</ele>
        <time>2016-12-11T09:46:11.999Z</time>
      </trkpt>
      <trkpt lat="47.53758" lon="6.68082">
        <ele>384</ele>
        <time>2016-12-11T09:46:12.999Z</time>
      </trkpt>
      <trkpt lat="47.5376" lon="6.68083">
        <ele>386</ele>
        <time>2016-12-11T09:46:13.999Z</time>
      </trkpt>
      <trkpt lat="47.53763" lon="6.68085">
        <ele>385</ele>
        <time>2016-12-11T09:46:14.999Z</time>
      </trkpt>
      <trkpt lat="47.53766" lon="6.68085">
        <ele>385</ele>
        <time>2016-12-11T09:46:15.999Z</time>
      </trkpt>
      <trkpt lat="47.53771" lon="6.68086">
        <ele>385</ele>
        <time>2016-12-11T09:46:17.999Z</time>
      </trkpt>
      <trkpt lat="47.53772" lon="6.68086">
        <ele>385</ele>
        <time>2016-12-11T09:46:18.999Z</time>
      </trkpt>
      <trkpt lat="47.53774" lon="6.68087">
        <ele>385</ele>
        <time>2016-12-11T09:46:19.999Z</time>
      </trkpt>
      <trkpt lat="47.53777" lon="6.68087">
        <ele>385</ele>
        <time>2016-12-11T09:46:20.999Z</time>
      </trkpt>
      <trkpt lat="47.53781" lon="6.68087">
        <ele>385</ele>
        <time>2016-12-11T09:46:22.999Z</time>
      </trkpt>
      <trkpt lat="47.53784" lon="6.68086">
        <ele>385</ele>
        <time>2016-12-11T09:46:23.999Z</time>
      </trkpt>
      <trkpt lat="47.53786" lon="6.68087">
        <ele>385</ele>
        <time>2016-12-11T09:46:24.999Z</time>
      </trkpt>
      <trkpt lat="47.53791" lon="6.68088">
        <ele>384</ele>
        <time>2016-12-11T09:46:25.999Z</time>
      </trkpt>
      <trkpt lat="47.53795" lon="6.6809">
        <ele>384</ele>
        <time>2016-12-11T09:46:26.999Z</time>
      </trkpt>
      <trkpt lat="47.53798" lon="6.68092">
        <ele>384</ele>
        <time>2016-12-11T09:46:27.999Z</time>
      </trkpt>
      <trkpt lat="47.53801" lon="6.68093">
        <ele>384</ele>
        <time>2016-12-11T09:46:28.999Z</time>
      </trkpt>
      <trkpt lat="47.53804" lon="6.68095">
        <ele>384</ele>
        <time>2016-12-11T09:46:29.999Z</time>
      </trkpt>
      <trkpt lat="47.53807" lon="6.68096">
        <ele>384</ele>
        <time>2016-12-11T09:46:30.999Z</time>
      </trkpt>
      <trkpt lat="47.53809" lon="6.68096">
        <ele>383</ele>
        <time>2016-12-11T09:46:31.999Z</time>
      </trkpt>
      <trkpt lat="47.53813" lon="6.68096">
        <ele>383</ele>
        <time>2016-12-11T09:46:33.999Z</time>
      </trkpt>
      <trkpt lat="47.53815" lon="6.68096">
        <ele>383</ele>
        <time>2016-12-11T09:46:34.999Z</time>
      </trkpt>
      <trkpt lat="47.5382" lon="6.68096">
        <ele>383</ele>
        <time>2016-12-11T09:46:36.999Z</time>
      </trkpt>
      <trkpt lat="47.53822" lon="6.68095">
        <ele>382</ele>
        <time>2016-12-11T09:46:37.999Z</time>
      </trkpt>
      <trkpt lat="47.53824" lon="6.68092">
        <ele>382</ele>
        <time>2016-12-11T09:46:38.999Z</time>
      </trkpt>
      <trkpt lat="47.53828" lon="6.68093">
        <ele>382</ele>
        <time>2016-12-11T09:46:39.999Z</time>
      </trkpt>
      <trkpt lat="47.53832" lon="6.68091">
        <ele>381</ele>
        <time>2016-12-11T09:46:40.999Z</time>
      </trkpt>
      <trkpt lat="47.53837" lon="6.68086">
        <ele>380</ele>
        <time>2016-12-11T09:46:41.999Z</time>
      </trkpt>
      <trkpt lat="47.53841" lon="6.68081">
        <ele>379</ele>
        <time>2016-12-11T09:46:42.999Z</time>
      </trkpt>
      <trkpt lat="47.53845" lon="6.68077">
        <ele>378</ele>
        <time>2016-12-11T09:46:43.999Z</time>
      </trkpt>
      <trkpt lat="47.5385" lon="6.68073">
        <ele>378</ele>
        <time>2016-12-11T09:46:44.999Z</time>
      </trkpt>
      <trkpt lat="47.53854" lon="6.6807">
        <ele>377</ele>
        <time>2016-12-11T09:46:45.999Z</time>
      </trkpt>
      <trkpt lat="47.5386" lon="6.68066">
        <ele>377</ele>
        <time>2016-12-11T09:46:46.999Z</time>
      </trkpt>
      <trkpt lat="47.53865" lon="6.68062">
        <ele>376</ele>
        <time>2016-12-11T09:46:47.999Z</time>
      </trkpt>
      <trkpt lat="47.53869" lon="6.68058">
        <ele>376</ele>
        <time>2016-12-11T09:46:48.999Z</time>
      </trkpt>
      <trkpt lat="47.53872" lon="6.68057">
        <ele>376</ele>
        <time>2016-12-11T09:46:56.999Z</time>
      </trkpt>
      <trkpt lat="47.53872" lon="6.68045">
        <ele>376</ele>
        <time>2016-12-11T09:46:57.999Z</time>
      </trkpt>
      <trkpt lat="47.5387" lon="6.6804">
        <ele>376</ele>
        <time>2016-12-11T09:46:58.999Z</time>
      </trkpt>
      <trkpt lat="47.53868" lon="6.68036">
        <ele>376</ele>
        <time>2016-12-11T09:46:59.999Z</time>
      </trkpt>
      <trkpt lat="47.53867" lon="6.68029">
        <ele>376</ele>
        <time>2016-12-11T09:47:00.999Z</time>
      </trkpt>
      <trkpt lat="47.53865" lon="6.68022">
        <ele>375</ele>
        <time>2016-12-11T09:47:01.999Z</time>
      </trkpt>
      <trkpt lat="47.53861" lon="6.68014">
        <ele>375</ele>
        <time>2016-12-11T09:47:02.999Z</time>
      </trkpt>
      <trkpt lat="47.53859" lon="6.68007">
        <ele>375</ele>
        <time>2016-12-11T09:47:03.999Z</time>
      </trkpt>
      <trkpt lat="47.53855" lon="6.68">
        <ele>373</ele>
        <time>2016-12-11T09:47:04.999Z</time>
      </trkpt>
      <trkpt lat="47.53852" lon="6.67993">
        <ele>373</ele>
        <time>2016-12-11T09:47:05.999Z</time>
      </trkpt>
      <trkpt lat="47.53848" lon="6.67986">
        <ele>373</ele>
        <time>2016-12-11T09:47:06.999Z</time>
      </trkpt>
      <trkpt lat="47.53844" lon="6.6798">
        <ele>373</ele>
        <time>2016-12-11T09:47:07.999Z</time>
      </trkpt>
      <trkpt lat="47.53839" lon="6.67973">
        <ele>373</ele>
        <time>2016-12-11T09:47:08.999Z</time>
      </trkpt>
      <trkpt lat="47.53835" lon="6.67966">
        <ele>373</ele>
        <time>2016-12-11T09:47:09.999Z</time>
      </trkpt>
      <trkpt lat="47.5383" lon="6.67959">
        <ele>371</ele>
        <time>2016-12-11T09:47:10.999Z</time>
      </trkpt>
      <trkpt lat="47.53824" lon="6.67952">
        <ele>371</ele>
        <time>2016-12-11T09:47:11.999Z</time>
      </trkpt>
      <trkpt lat="47.53819" lon="6.67946">
        <ele>371</ele>
        <time>2016-12-11T09:47:12.999Z</time>
      </trkpt>
      <trkpt lat="47.53813" lon="6.67939">
        <ele>371</ele>
        <time>2016-12-11T09:47:13.999Z</time>
      </trkpt>
      <trkpt lat="47.53808" lon="6.67933">
        <ele>370</ele>
        <time>2016-12-11T09:47:14.999Z</time>
      </trkpt>
      <trkpt lat="47.53803" lon="6.67927">
        <ele>370</ele>
        <time>2016-12-11T09:47:15.999Z</time>
      </trkpt>
      <trkpt lat="47.53798" lon="6.67921">
        <ele>370</ele>
        <time>2016-12-11T09:47:16.999Z</time>
      </trkpt>
      <trkpt lat="47.53794" lon="6.67916">
        <ele>368</ele>
        <time>2016-12-11T09:47:17.999Z</time>
      </trkpt>
      <trkpt lat="47.5379" lon="6.67912">
        <ele>368</ele>
        <time>2016-12-11T09:47:18.999Z</time>
      </trkpt>
      <trkpt lat="47.53785" lon="6.67907">
        <ele>368</ele>
        <time>2016-12-11T09:47:19.999Z</time>
      </trkpt>
      <trkpt lat="47.5378" lon="6.67902">
        <ele>368</ele>
        <time>2016-12-11T09:47:20.999Z</time>
      </trkpt>
      <trkpt lat="47.53776" lon="6.67897">
        <ele>368</ele>
        <time>2016-12-11T09:47:21.999Z</time>
      </trkpt>
      <trkpt lat="47.53772" lon="6.67892">
        <ele>368</ele>
        <time>2016-12-11T09:47:22.999Z</time>
      </trkpt>
      <trkpt lat="47.53767" lon="6.67887">
        <ele>368</ele>
        <time>2016-12-11T09:47:23.999Z</time>
      </trkpt>
      <trkpt lat="47.53763" lon="6.67883">
        <ele>367</ele>
        <time>2016-12-11T09:47:24.999Z</time>
      </trkpt>
      <trkpt lat="47.53759" lon="6.67877">
        <ele>367</ele>
        <time>2016-12-11T09:47:25.999Z</time>
      </trkpt>
      <trkpt lat="47.53754" lon="6.67872">
        <ele>367</ele>
        <time>2016-12-11T09:47:26.999Z</time>
      </trkpt>
      <trkpt lat="47.5375" lon="6.67867">
        <ele>367</ele>
        <time>2016-12-11T09:47:27.999Z</time>
      </trkpt>
      <trkpt lat="47.53746" lon="6.67862">
        <ele>366</ele>
        <time>2016-12-11T09:47:28.999Z</time>
      </trkpt>
      <trkpt lat="47.53742" lon="6.67857">
        <ele>366</ele>
        <time>2016-12-11T09:47:29.999Z</time>
      </trkpt>
      <trkpt lat="47.53738" lon="6.67853">
        <ele>366</ele>
        <time>2016-12-11T09:47:30.999Z</time>
      </trkpt>
      <trkpt lat="47.53735" lon="6.67848">
        <ele>366</ele>
        <time>2016-12-11T09:47:31.999Z</time>
      </trkpt>
      <trkpt lat="47.53731" lon="6.67844">
        <ele>366</ele>
        <time>2016-12-11T09:47:32.999Z</time>
      </trkpt>
      <trkpt lat="47.53727" lon="6.67839">
        <ele>366</ele>
        <time>2016-12-11T09:47:33.999Z</time>
      </trkpt>
      <trkpt lat="47.53723" lon="6.67834">
        <ele>366</ele>
        <time>2016-12-11T09:47:34.999Z</time>
      </trkpt>
      <trkpt lat="47.5372" lon="6.6783">
        <ele>367</ele>
        <time>2016-12-11T09:47:35.999Z</time>
      </trkpt>
      <trkpt lat="47.53716" lon="6.67825">
        <ele>367</ele>
        <time>2016-12-11T09:47:36.999Z</time>
      </trkpt>
      <trkpt lat="47.53712" lon="6.67821">
        <ele>368</ele>
        <time>2016-12-11T09:47:37.999Z</time>
      </trkpt>
      <trkpt lat="47.53709" lon="6.67816">
        <ele>368</ele>
        <time>2016-12-11T09:47:38.999Z</time>
      </trkpt>
      <trkpt lat="47.53705" lon="6.67811">
        <ele>368</ele>
        <time>2016-12-11T09:47:39.999Z</time>
      </trkpt>
      <trkpt lat="47.537" lon="6.67806">
        <ele>368</ele>
        <time>2016-12-11T09:47:40.999Z</time>
      </trkpt>
      <trkpt lat="47.53696" lon="6.67801">
        <ele>368</ele>
        <time>2016-12-11T09:47:41.999Z</time>
      </trkpt>
      <trkpt lat="47.53693" lon="6.67797">
        <ele>368</ele>
        <time>2016-12-11T09:47:42.999Z</time>
      </trkpt>
      <trkpt lat="47.53689" lon="6.67792">
        <ele>369</ele>
        <time>2016-12-11T09:47:43.999Z</time>
      </trkpt>
      <trkpt lat="47.53687" lon="6.67789">
        <ele>369</ele>
        <time>2016-12-11T09:47:44.999Z</time>
      </trkpt>
      <trkpt lat="47.53684" lon="6.67785">
        <ele>369</ele>
        <time>2016-12-11T09:47:45.999Z</time>
      </trkpt>
      <trkpt lat="47.5368" lon="6.67781">
        <ele>369</ele>
        <time>2016-12-11T09:47:46.999Z</time>
      </trkpt>
      <trkpt lat="47.53677" lon="6.67776">
        <ele>370</ele>
        <time>2016-12-11T09:47:47.999Z</time>
      </trkpt>
      <trkpt lat="47.53675" lon="6.67773">
        <ele>370</ele>
        <time>2016-12-11T09:47:48.999Z</time>
      </trkpt>
      <trkpt lat="47.53673" lon="6.6777">
        <ele>370</ele>
        <time>2016-12-11T09:47:49.999Z</time>
      </trkpt>
      <trkpt lat="47.53672" lon="6.67763">
        <ele>371</ele>
        <time>2016-12-11T09:47:50.999Z</time>
      </trkpt>
      <trkpt lat="47.53674" lon="6.67755">
        <ele>371</ele>
        <time>2016-12-11T09:47:51.999Z</time>
      </trkpt>
      <trkpt lat="47.53678" lon="6.67752">
        <ele>371</ele>
        <time>2016-12-11T09:47:52.999Z</time>
      </trkpt>
      <trkpt lat="47.5368" lon="6.67753">
        <ele>371</ele>
        <time>2016-12-11T09:47:53.999Z</time>
      </trkpt>
      <trkpt lat="47.53685" lon="6.67754">
        <ele>370</ele>
        <time>2016-12-11T09:47:54.999Z</time>
      </trkpt>
      <trkpt lat="47.53689" lon="6.67755">
        <ele>370</ele>
        <time>2016-12-11T09:47:55.999Z</time>
      </trkpt>
      <trkpt lat="47.53694" lon="6.67755">
        <ele>370</ele>
        <time>2016-12-11T09:47:56.999Z</time>
      </trkpt>
      <trkpt lat="47.53697" lon="6.67754">
        <ele>370</ele>
        <time>2016-12-11T09:47:57.999Z</time>
      </trkpt>
      <trkpt lat="47.537" lon="6.67753">
        <ele>370</ele>
        <time>2016-12-11T09:47:58.999Z</time>
      </trkpt>
      <trkpt lat="47.53704" lon="6.67751">
        <ele>370</ele>
        <time>2016-12-11T09:48:00.999Z</time>
      </trkpt>
      <trkpt lat="47.53708" lon="6.67747">
        <ele>373</ele>
        <time>2016-12-11T09:48:01.999Z</time>
      </trkpt>
      <trkpt lat="47.53712" lon="6.67744">
        <ele>373</ele>
        <time>2016-12-11T09:48:02.999Z</time>
      </trkpt>
      <trkpt lat="47.53716" lon="6.67743">
        <ele>373</ele>
        <time>2016-12-11T09:48:03.999Z</time>
      </trkpt>
      <trkpt lat="47.53721" lon="6.67742">
        <ele>373</ele>
        <time>2016-12-11T09:48:04.999Z</time>
      </trkpt>
      <trkpt lat="47.53726" lon="6.67742">
        <ele>373</ele>
        <time>2016-12-11T09:48:05.999Z</time>
      </trkpt>
      <trkpt lat="47.5373" lon="6.67741">
        <ele>373</ele>
        <time>2016-12-11T09:48:06.999Z</time>
      </trkpt>
      <trkpt lat="47.53733" lon="6.67742">
        <ele>373</ele>
        <time>2016-12-11T09:48:07.999Z</time>
      </trkpt>
      <trkpt lat="47.53736" lon="6.67742">
        <ele>373</ele>
        <time>2016-12-11T09:48:08.999Z</time>
      </trkpt>
      <trkpt lat="47.53741" lon="6.67743">
        <ele>372</ele>
        <time>2016-12-11T09:48:09.999Z</time>
      </trkpt>
      <trkpt lat="47.53744" lon="6.67744">
        <ele>372</ele>
        <time>2016-12-11T09:48:10.999Z</time>
      </trkpt>
      <trkpt lat="47.53748" lon="6.67744">
        <ele>372</ele>
        <time>2016-12-11T09:48:11.999Z</time>
      </trkpt>
      <trkpt lat="47.53752" lon="6.67744">
        <ele>372</ele>
        <time>2016-12-11T09:48:12.999Z</time>
      </trkpt>
      <trkpt lat="47.53757" lon="6.67745">
        <ele>372</ele>
        <time>2016-12-11T09:48:13.999Z</time>
      </trkpt>
      <trkpt lat="47.5376" lon="6.67745">
        <ele>373</ele>
        <time>2016-12-11T09:48:14.999Z</time>
      </trkpt>
      <trkpt lat="47.53764" lon="6.67746">
        <ele>373</ele>
        <time>2016-12-11T09:48:15.999Z</time>
      </trkpt>
      <trkpt lat="47.53768" lon="6.67747">
        <ele>373</ele>
        <time>2016-12-11T09:48:16.999Z</time>
      </trkpt>
      <trkpt lat="47.53772" lon="6.67747">
        <ele>373</ele>
        <time>2016-12-11T09:48:17.999Z</time>
      </trkpt>
      <trkpt lat="47.53776" lon="6.67748">
        <ele>374</ele>
        <time>2016-12-11T09:48:18.999Z</time>
      </trkpt>
      <trkpt lat="47.5378" lon="6.67749">
        <ele>374</ele>
        <time>2016-12-11T09:48:19.999Z</time>
      </trkpt>
      <trkpt lat="47.53785" lon="6.6775">
        <ele>374</ele>
        <time>2016-12-11T09:48:20.999Z</time>
      </trkpt>
      <trkpt lat="47.5379" lon="6.6775">
        <ele>371</ele>
        <time>2016-12-11T09:48:21.999Z</time>
      </trkpt>
      <trkpt lat="47.53795" lon="6.67751">
        <ele>371</ele>
        <time>2016-12-11T09:48:22.999Z</time>
      </trkpt>
      <trkpt lat="47.53799" lon="6.67753">
        <ele>371</ele>
        <time>2016-12-11T09:48:23.999Z</time>
      </trkpt>
      <trkpt lat="47.53804" lon="6.67753">
        <ele>372</ele>
        <time>2016-12-11T09:48:24.999Z</time>
      </trkpt>
      <trkpt lat="47.53809" lon="6.67754">
        <ele>372</ele>
        <time>2016-12-11T09:48:25.999Z</time>
      </trkpt>
      <trkpt lat="47.53813" lon="6.67755">
        <ele>372</ele>
        <time>2016-12-11T09:48:26.999Z</time>
      </trkpt>
      <trkpt lat="47.53818" lon="6.67756">
        <ele>372</ele>
        <time>2016-12-11T09:48:27.999Z</time>
      </trkpt>
      <trkpt lat="47.53821" lon="6.67756">
        <ele>373</ele>
        <time>2016-12-11T09:48:28.999Z</time>
      </trkpt>
      <trkpt lat="47.53824" lon="6.67757">
        <ele>373</ele>
        <time>2016-12-11T09:48:29.999Z</time>
      </trkpt>
      <trkpt lat="47.53828" lon="6.67757">
        <ele>373</ele>
        <time>2016-12-11T09:48:30.999Z</time>
      </trkpt>
      <trkpt lat="47.5383" lon="6.67757">
        <ele>373</ele>
        <time>2016-12-11T09:48:31.999Z</time>
      </trkpt>
      <trkpt lat="47.53832" lon="6.67757">
        <ele>373</ele>
        <time>2016-12-11T09:48:32.999Z</time>
      </trkpt>
      <trkpt lat="47.53835" lon="6.67758">
        <ele>374</ele>
        <time>2016-12-11T09:48:33.999Z</time>
      </trkpt>
      <trkpt lat="47.53838" lon="6.67757">
        <ele>374</ele>
        <time>2016-12-11T09:48:34.999Z</time>
      </trkpt>
      <trkpt lat="47.53842" lon="6.67756">
        <ele>374</ele>
        <time>2016-12-11T09:48:35.999Z</time>
      </trkpt>
      <trkpt lat="47.53845" lon="6.67754">
        <ele>374</ele>
        <time>2016-12-11T09:48:36.999Z</time>
      </trkpt>
      <trkpt lat="47.53848" lon="6.67753">
        <ele>374</ele>
        <time>2016-12-11T09:48:37.999Z</time>
      </trkpt>
      <trkpt lat="47.53854" lon="6.67749">
        <ele>374</ele>
        <time>2016-12-11T09:48:38.999Z</time>
      </trkpt>
      <trkpt lat="47.53859" lon="6.67745">
        <ele>374</ele>
        <time>2016-12-11T09:48:39.999Z</time>
      </trkpt>
      <trkpt lat="47.53864" lon="6.67741">
        <ele>374</ele>
        <time>2016-12-11T09:48:40.999Z</time>
      </trkpt>
      <trkpt lat="47.53871" lon="6.67737">
        <ele>374</ele>
        <time>2016-12-11T09:48:41.999Z</time>
      </trkpt>
      <trkpt lat="47.53876" lon="6.67732">
        <ele>374</ele>
        <time>2016-12-11T09:48:42.999Z</time>
      </trkpt>
      <trkpt lat="47.53881" lon="6.67728">
        <ele>374</ele>
        <time>2016-12-11T09:48:43.999Z</time>
      </trkpt>
      <trkpt lat="47.53885" lon="6.67725">
        <ele>374</ele>
        <time>2016-12-11T09:48:44.999Z</time>
      </trkpt>
      <trkpt lat="47.53889" lon="6.67722">
        <ele>374</ele>
        <time>2016-12-11T09:48:45.999Z</time>
      </trkpt>
      <trkpt lat="47.53893" lon="6.67719">
        <ele>374</ele>
        <time>2016-12-11T09:48:46.999Z</time>
      </trkpt>
      <trkpt lat="47.53898" lon="6.67717">
        <ele>374</ele>
        <time>2016-12-11T09:48:47.999Z</time>
      </trkpt>
      <trkpt lat="47.53903" lon="6.67715">
        <ele>374</ele>
        <time>2016-12-11T09:48:48.999Z</time>
      </trkpt>
      <trkpt lat="47.53908" lon="6.67713">
        <ele>374</ele>
        <time>2016-12-11T09:48:49.999Z</time>
      </trkpt>
      <trkpt lat="47.53913" lon="6.6771">
        <ele>374</ele>
        <time>2016-12-11T09:48:50.999Z</time>
      </trkpt>
      <trkpt lat="47.53917" lon="6.67708">
        <ele>374</ele>
        <time>2016-12-11T09:48:51.999Z</time>
      </trkpt>
      <trkpt lat="47.53921" lon="6.67706">
        <ele>374</ele>
        <time>2016-12-11T09:48:52.999Z</time>
      </trkpt>
      <trkpt lat="47.53925" lon="6.67704">
        <ele>374</ele>
        <time>2016-12-11T09:48:53.999Z</time>
      </trkpt>
      <trkpt lat="47.53928" lon="6.67703">
        <ele>374</ele>
        <time>2016-12-11T09:48:54.999Z</time>
      </trkpt>
      <trkpt lat="47.53931" lon="6.67702">
        <ele>374</ele>
        <time>2016-12-11T09:48:55.999Z</time>
      </trkpt>
      <trkpt lat="47.53935" lon="6.67701">
        <ele>374</ele>
        <time>2016-12-11T09:48:56.999Z</time>
      </trkpt>
      <trkpt lat="47.53938" lon="6.67699">
        <ele>375</ele>
        <time>2016-12-11T09:48:57.999Z</time>
      </trkpt>
      <trkpt lat="47.53942" lon="6.67698">
        <ele>375</ele>
        <time>2016-12-11T09:48:58.999Z</time>
      </trkpt>
      <trkpt lat="47.53945" lon="6.67697">
        <ele>375</ele>
        <time>2016-12-11T09:48:59.999Z</time>
      </trkpt>
      <trkpt lat="47.5395" lon="6.67695">
        <ele>375</ele>
        <time>2016-12-11T09:49:00.999Z</time>
      </trkpt>
      <trkpt lat="47.53953" lon="6.67694">
        <ele>375</ele>
        <time>2016-12-11T09:49:01.999Z</time>
      </trkpt>
      <trkpt lat="47.53957" lon="6.67693">
        <ele>375</ele>
        <time>2016-12-11T09:49:02.999Z</time>
      </trkpt>
      <trkpt lat="47.5396" lon="6.67693">
        <ele>375</ele>
        <time>2016-12-11T09:49:03.999Z</time>
      </trkpt>
      <trkpt lat="47.53965" lon="6.67692">
        <ele>375</ele>
        <time>2016-12-11T09:49:04.999Z</time>
      </trkpt>
      <trkpt lat="47.53969" lon="6.6769">
        <ele>375</ele>
        <time>2016-12-11T09:49:05.999Z</time>
      </trkpt>
      <trkpt lat="47.53973" lon="6.67689">
        <ele>375</ele>
        <time>2016-12-11T09:49:06.999Z</time>
      </trkpt>
      <trkpt lat="47.53977" lon="6.67688">
        <ele>375</ele>
        <time>2016-12-11T09:49:07.999Z</time>
      </trkpt>
      <trkpt lat="47.53981" lon="6.67686">
        <ele>375</ele>
        <time>2016-12-11T09:49:08.999Z</time>
      </trkpt>
      <trkpt lat="47.53985" lon="6.67685">
        <ele>375</ele>
        <time>2016-12-11T09:49:09.999Z</time>
      </trkpt>
      <trkpt lat="47.53988" lon="6.67683">
        <ele>375</ele>
        <time>2016-12-11T09:49:10.999Z</time>
      </trkpt>
      <trkpt lat="47.53991" lon="6.67681">
        <ele>375</ele>
        <time>2016-12-11T09:49:11.999Z</time>
      </trkpt>
      <trkpt lat="47.53994" lon="6.67679">
        <ele>375</ele>
        <time>2016-12-11T09:49:12.999Z</time>
      </trkpt>
      <trkpt lat="47.53997" lon="6.67677">
        <ele>375</ele>
        <time>2016-12-11T09:49:13.999Z</time>
      </trkpt>
      <trkpt lat="47.54" lon="6.67674">
        <ele>375</ele>
        <time>2016-12-11T09:49:14.999Z</time>
      </trkpt>
      <trkpt lat="47.54003" lon="6.67671">
        <ele>377</ele>
        <time>2016-12-11T09:49:15.999Z</time>
      </trkpt>
      <trkpt lat="47.54007" lon="6.67668">
        <ele>377</ele>
        <time>2016-12-11T09:49:16.999Z</time>
      </trkpt>
      <trkpt lat="47.54011" lon="6.67664">
        <ele>377</ele>
        <time>2016-12-11T09:49:17.999Z</time>
      </trkpt>
      <trkpt lat="47.54015" lon="6.67661">
        <ele>378</ele>
        <time>2016-12-11T09:49:18.999Z</time>
      </trkpt>
      <trkpt lat="47.54018" lon="6.67658">
        <ele>378</ele>
        <time>2016-12-11T09:49:19.999Z</time>
      </trkpt>
      <trkpt lat="47.54021" lon="6.67655">
        <ele>379</ele>
        <time>2016-12-11T09:49:20.999Z</time>
      </trkpt>
      <trkpt lat="47.54024" lon="6.67651">
        <ele>379</ele>
        <time>2016-12-11T09:49:21.999Z</time>
      </trkpt>
      <trkpt lat="47.54026" lon="6.67647">
        <ele>380</ele>
        <time>2016-12-11T09:49:22.999Z</time>
      </trkpt>
      <trkpt lat="47.54028" lon="6.67642">
        <ele>380</ele>
        <time>2016-12-11T09:49:23.999Z</time>
      </trkpt>
      <trkpt lat="47.5403" lon="6.67639">
        <ele>380</ele>
        <time>2016-12-11T09:49:24.999Z</time>
      </trkpt>
      <trkpt lat="47.54034" lon="6.67633">
        <ele>380</ele>
        <time>2016-12-11T09:49:25.999Z</time>
      </trkpt>
      <trkpt lat="47.54037" lon="6.67628">
        <ele>380</ele>
        <time>2016-12-11T09:49:26.999Z</time>
      </trkpt>
      <trkpt lat="47.5404" lon="6.67625">
        <ele>381</ele>
        <time>2016-12-11T09:49:27.999Z</time>
      </trkpt>
      <trkpt lat="47.54043" lon="6.67623">
        <ele>381</ele>
        <time>2016-12-11T09:49:28.999Z</time>
      </trkpt>
      <trkpt lat="47.54047" lon="6.6762">
        <ele>381</ele>
        <time>2016-12-11T09:49:29.999Z</time>
      </trkpt>
      <trkpt lat="47.5405" lon="6.67622">
        <ele>381</ele>
        <time>2016-12-11T09:49:30.999Z</time>
      </trkpt>
      <trkpt lat="47.54055" lon="6.67624">
        <ele>382</ele>
        <time>2016-12-11T09:49:31.999Z</time>
      </trkpt>
      <trkpt lat="47.54059" lon="6.67626">
        <ele>382</ele>
        <time>2016-12-11T09:49:32.999Z</time>
      </trkpt>
      <trkpt lat="47.54062" lon="6.67627">
        <ele>382</ele>
        <time>2016-12-11T09:49:33.999Z</time>
      </trkpt>
      <trkpt lat="47.54065" lon="6.67628">
        <ele>382</ele>
        <time>2016-12-11T09:49:34.999Z</time>
      </trkpt>
      <trkpt lat="47.54068" lon="6.6763">
        <ele>383</ele>
        <time>2016-12-11T09:49:35.999Z</time>
      </trkpt>
      <trkpt lat="47.54072" lon="6.6763">
        <ele>383</ele>
        <time>2016-12-11T09:49:36.999Z</time>
      </trkpt>
      <trkpt lat="47.54075" lon="6.67631">
        <ele>383</ele>
        <time>2016-12-11T09:49:37.999Z</time>
      </trkpt>
      <trkpt lat="47.54079" lon="6.6763">
        <ele>383</ele>
        <time>2016-12-11T09:49:38.999Z</time>
      </trkpt>
      <trkpt lat="47.54083" lon="6.67632">
        <ele>383</ele>
        <time>2016-12-11T09:49:39.999Z</time>
      </trkpt>
      <trkpt lat="47.54086" lon="6.67634">
        <ele>388</ele>
        <time>2016-12-11T09:49:40.999Z</time>
      </trkpt>
      <trkpt lat="47.5409" lon="6.67633">
        <ele>388</ele>
        <time>2016-12-11T09:49:41.999Z</time>
      </trkpt>
      <trkpt lat="47.54094" lon="6.67632">
        <ele>388</ele>
        <time>2016-12-11T09:49:42.999Z</time>
      </trkpt>
      <trkpt lat="47.54098" lon="6.67631">
        <ele>388</ele>
        <time>2016-12-11T09:49:43.999Z</time>
      </trkpt>
      <trkpt lat="47.54103" lon="6.67631">
        <ele>388</ele>
        <time>2016-12-11T09:49:44.999Z</time>
      </trkpt>
      <trkpt lat="47.54108" lon="6.67631">
        <ele>388</ele>
        <time>2016-12-11T09:49:45.999Z</time>
      </trkpt>
      <trkpt lat="47.54114" lon="6.6763">
        <ele>388</ele>
        <time>2016-12-11T09:49:46.999Z</time>
      </trkpt>
      <trkpt lat="47.54118" lon="6.67629">
        <ele>388</ele>
        <time>2016-12-11T09:49:47.999Z</time>
      </trkpt>
      <trkpt lat="47.54122" lon="6.67627">
        <ele>388</ele>
        <time>2016-12-11T09:49:48.999Z</time>
      </trkpt>
      <trkpt lat="47.54125" lon="6.67626">
        <ele>388</ele>
        <time>2016-12-11T09:49:49.999Z</time>
      </trkpt>
      <trkpt lat="47.54129" lon="6.67626">
        <ele>388</ele>
        <time>2016-12-11T09:49:50.999Z</time>
      </trkpt>
      <trkpt lat="47.54132" lon="6.67625">
        <ele>388</ele>
        <time>2016-12-11T09:49:51.999Z</time>
      </trkpt>
      <trkpt lat="47.54137" lon="6.67623">
        <ele>388</ele>
        <time>2016-12-11T09:49:52.999Z</time>
      </trkpt>
      <trkpt lat="47.54141" lon="6.67622">
        <ele>388</ele>
        <time>2016-12-11T09:49:53.999Z</time>
      </trkpt>
      <trkpt lat="47.54144" lon="6.6762">
        <ele>388</ele>
        <time>2016-12-11T09:49:54.999Z</time>
      </trkpt>
      <trkpt lat="47.54149" lon="6.67619">
        <ele>388</ele>
        <time>2016-12-11T09:49:55.999Z</time>
      </trkpt>
      <trkpt lat="47.54152" lon="6.67614">
        <ele>388</ele>
        <time>2016-12-11T09:49:56.999Z</time>
      </trkpt>
      <trkpt lat="47.54155" lon="6.67608">
        <ele>387</ele>
        <time>2016-12-11T09:49:57.999Z</time>
      </trkpt>
      <trkpt lat="47.54158" lon="6.67606">
        <ele>387</ele>
        <time>2016-12-11T09:49:58.999Z</time>
      </trkpt>
      <trkpt lat="47.54161" lon="6.67606">
        <ele>387</ele>
        <time>2016-12-11T09:49:59.999Z</time>
      </trkpt>
      <trkpt lat="47.54164" lon="6.67607">
        <ele>387</ele>
        <time>2016-12-11T09:50:00.999Z</time>
      </trkpt>
      <trkpt lat="47.54168" lon="6.67607">
        <ele>388</ele>
        <time>2016-12-11T09:50:01.999Z</time>
      </trkpt>
      <trkpt lat="47.54173" lon="6.67605">
        <ele>388</ele>
        <time>2016-12-11T09:50:02.999Z</time>
      </trkpt>
      <trkpt lat="47.54178" lon="6.67603">
        <ele>388</ele>
        <time>2016-12-11T09:50:03.999Z</time>
      </trkpt>
      <trkpt lat="47.54182" lon="6.67602">
        <ele>388</ele>
        <time>2016-12-11T09:50:04.999Z</time>
      </trkpt>
      <trkpt lat="47.54185" lon="6.67603">
        <ele>388</ele>
        <time>2016-12-11T09:50:05.999Z</time>
      </trkpt>
      <trkpt lat="47.54187" lon="6.67602">
        <ele>388</ele>
        <time>2016-12-11T09:50:06.999Z</time>
      </trkpt>
      <trkpt lat="47.5419" lon="6.67602">
        <ele>388</ele>
        <time>2016-12-11T09:50:07.999Z</time>
      </trkpt>
      <trkpt lat="47.54192" lon="6.67603">
        <ele>388</ele>
        <time>2016-12-11T09:50:08.999Z</time>
      </trkpt>
      <trkpt lat="47.54195" lon="6.67602">
        <ele>388</ele>
        <time>2016-12-11T09:50:09.999Z</time>
      </trkpt>
      <trkpt lat="47.54197" lon="6.67603">
        <ele>388</ele>
        <time>2016-12-11T09:50:10.999Z</time>
      </trkpt>
      <trkpt lat="47.542" lon="6.67603">
        <ele>388</ele>
        <time>2016-12-11T09:50:11.999Z</time>
      </trkpt>
      <trkpt lat="47.54204" lon="6.67603">
        <ele>388</ele>
        <time>2016-12-11T09:50:13.999Z</time>
      </trkpt>
      <trkpt lat="47.54207" lon="6.67603">
        <ele>389</ele>
        <time>2016-12-11T09:50:14.999Z</time>
      </trkpt>
      <trkpt lat="47.54211" lon="6.67604">
        <ele>389</ele>
        <time>2016-12-11T09:50:15.999Z</time>
      </trkpt>
      <trkpt lat="47.54213" lon="6.67604">
        <ele>389</ele>
        <time>2016-12-11T09:50:16.999Z</time>
      </trkpt>
      <trkpt lat="47.54217" lon="6.67602">
        <ele>388</ele>
        <time>2016-12-11T09:50:17.999Z</time>
      </trkpt>
      <trkpt lat="47.5422" lon="6.67601">
        <ele>388</ele>
        <time>2016-12-11T09:50:18.999Z</time>
      </trkpt>
      <trkpt lat="47.54223" lon="6.676">
        <ele>388</ele>
        <time>2016-12-11T09:50:19.999Z</time>
      </trkpt>
      <trkpt lat="47.54227" lon="6.67601">
        <ele>388</ele>
        <time>2016-12-11T09:50:20.999Z</time>
      </trkpt>
      <trkpt lat="47.5423" lon="6.67601">
        <ele>388</ele>
        <time>2016-12-11T09:50:21.999Z</time>
      </trkpt>
      <trkpt lat="47.54233" lon="6.67601">
        <ele>388</ele>
        <time>2016-12-11T09:50:22.999Z</time>
      </trkpt>
      <trkpt lat="47.54235" lon="6.67602">
        <ele>388</ele>
        <time>2016-12-11T09:50:23.999Z</time>
      </trkpt>
      <trkpt lat="47.54238" lon="6.67602">
        <ele>388</ele>
        <time>2016-12-11T09:50:24.999Z</time>
      </trkpt>
      <trkpt lat="47.54241" lon="6.67602">
        <ele>388</ele>
        <time>2016-12-11T09:50:25.999Z</time>
      </trkpt>
      <trkpt lat="47.54244" lon="6.67602">
        <ele>387</ele>
        <time>2016-12-11T09:50:26.999Z</time>
      </trkpt>
      <trkpt lat="47.54246" lon="6.67601">
        <ele>387</ele>
        <time>2016-12-11T09:50:27.999Z</time>
      </trkpt>
      <trkpt lat="47.5425" lon="6.676">
        <ele>387</ele>
        <time>2016-12-11T09:50:28.999Z</time>
      </trkpt>
      <trkpt lat="47.54254" lon="6.67598">
        <ele>388</ele>
        <time>2016-12-11T09:50:29.999Z</time>
      </trkpt>
      <trkpt lat="47.54256" lon="6.67597">
        <ele>388</ele>
        <time>2016-12-11T09:50:30.999Z</time>
      </trkpt>
      <trkpt lat="47.54259" lon="6.67594">
        <ele>388</ele>
        <time>2016-12-11T09:50:31.999Z</time>
      </trkpt>
      <trkpt lat="47.54263" lon="6.67591">
        <ele>388</ele>
        <time>2016-12-11T09:50:32.999Z</time>
      </trkpt>
      <trkpt lat="47.54266" lon="6.67588">
        <ele>388</ele>
        <time>2016-12-11T09:50:33.999Z</time>
      </trkpt>
      <trkpt lat="47.54271" lon="6.67585">
        <ele>388</ele>
        <time>2016-12-11T09:50:34.999Z</time>
      </trkpt>
      <trkpt lat="47.54275" lon="6.67582">
        <ele>384</ele>
        <time>2016-12-11T09:50:35.999Z</time>
      </trkpt>
      <trkpt lat="47.54279" lon="6.6758">
        <ele>384</ele>
        <time>2016-12-11T09:50:36.999Z</time>
      </trkpt>
      <trkpt lat="47.54281" lon="6.67578">
        <ele>384</ele>
        <time>2016-12-11T09:50:37.999Z</time>
      </trkpt>
      <trkpt lat="47.54284" lon="6.67577">
        <ele>384</ele>
        <time>2016-12-11T09:50:38.999Z</time>
      </trkpt>
      <trkpt lat="47.54288" lon="6.67575">
        <ele>384</ele>
        <time>2016-12-11T09:50:39.999Z</time>
      </trkpt>
      <trkpt lat="47.54292" lon="6.67573">
        <ele>384</ele>
        <time>2016-12-11T09:50:40.999Z</time>
      </trkpt>
      <trkpt lat="47.54295" lon="6.67572">
        <ele>385</ele>
        <time>2016-12-11T09:50:41.999Z</time>
      </trkpt>
      <trkpt lat="47.54298" lon="6.67569">
        <ele>385</ele>
        <time>2016-12-11T09:50:42.999Z</time>
      </trkpt>
      <trkpt lat="47.54302" lon="6.67567">
        <ele>385</ele>
        <time>2016-12-11T09:50:43.999Z</time>
      </trkpt>
      <trkpt lat="47.54305" lon="6.67565">
        <ele>385</ele>
        <time>2016-12-11T09:50:44.999Z</time>
      </trkpt>
      <trkpt lat="47.54309" lon="6.67563">
        <ele>385</ele>
        <time>2016-12-11T09:50:45.999Z</time>
      </trkpt>
      <trkpt lat="47.54316" lon="6.6756">
        <ele>385</ele>
        <time>2016-12-11T09:50:46.999Z</time>
      </trkpt>
      <trkpt lat="47.54322" lon="6.67558">
        <ele>385</ele>
        <time>2016-12-11T09:50:47.999Z</time>
      </trkpt>
      <trkpt lat="47.5433" lon="6.67555">
        <ele>385</ele>
        <time>2016-12-11T09:50:48.999Z</time>
      </trkpt>
      <trkpt lat="47.54336" lon="6.67553">
        <ele>388</ele>
        <time>2016-12-11T09:50:49.999Z</time>
      </trkpt>
      <trkpt lat="47.54341" lon="6.67551">
        <ele>389</ele>
        <time>2016-12-11T09:50:50.999Z</time>
      </trkpt>
      <trkpt lat="47.54345" lon="6.6755">
        <ele>389</ele>
        <time>2016-12-11T09:50:51.999Z</time>
      </trkpt>
      <trkpt lat="47.54349" lon="6.67549">
        <ele>389</ele>
        <time>2016-12-11T09:50:52.999Z</time>
      </trkpt>
      <trkpt lat="47.54355" lon="6.67546">
        <ele>389</ele>
        <time>2016-12-11T09:50:53.999Z</time>
      </trkpt>
      <trkpt lat="47.54359" lon="6.67546">
        <ele>389</ele>
        <time>2016-12-11T09:50:54.999Z</time>
      </trkpt>
      <trkpt lat="47.54362" lon="6.67545">
        <ele>389</ele>
        <time>2016-12-11T09:50:55.999Z</time>
      </trkpt>
      <trkpt lat="47.54365" lon="6.67545">
        <ele>389</ele>
        <time>2016-12-11T09:50:56.999Z</time>
      </trkpt>
      <trkpt lat="47.54368" lon="6.67543">
        <ele>389</ele>
        <time>2016-12-11T09:50:57.999Z</time>
      </trkpt>
      <trkpt lat="47.54373" lon="6.67541">
        <ele>389</ele>
        <time>2016-12-11T09:50:58.999Z</time>
      </trkpt>
      <trkpt lat="47.54376" lon="6.67541">
        <ele>390</ele>
        <time>2016-12-11T09:50:59.999Z</time>
      </trkpt>
      <trkpt lat="47.5438" lon="6.6754">
        <ele>390</ele>
        <time>2016-12-11T09:51:00.999Z</time>
      </trkpt>
      <trkpt lat="47.54382" lon="6.67537">
        <ele>390</ele>
        <time>2016-12-11T09:51:01.999Z</time>
      </trkpt>
      <trkpt lat="47.54387" lon="6.67535">
        <ele>390</ele>
        <time>2016-12-11T09:51:02.999Z</time>
      </trkpt>
      <trkpt lat="47.5439" lon="6.67534">
        <ele>390</ele>
        <time>2016-12-11T09:51:03.999Z</time>
      </trkpt>
      <trkpt lat="47.54393" lon="6.67534">
        <ele>390</ele>
        <time>2016-12-11T09:51:04.999Z</time>
      </trkpt>
      <trkpt lat="47.54396" lon="6.67533">
        <ele>390</ele>
        <time>2016-12-11T09:51:05.999Z</time>
      </trkpt>
      <trkpt lat="47.54399" lon="6.67533">
        <ele>390</ele>
        <time>2016-12-11T09:51:06.999Z</time>
      </trkpt>
      <trkpt lat="47.54402" lon="6.67532">
        <ele>390</ele>
        <time>2016-12-11T09:51:07.999Z</time>
      </trkpt>
      <trkpt lat="47.54405" lon="6.6753">
        <ele>390</ele>
        <time>2016-12-11T09:51:08.999Z</time>
      </trkpt>
      <trkpt lat="47.54408" lon="6.6753">
        <ele>390</ele>
        <time>2016-12-11T09:51:09.999Z</time>
      </trkpt>
      <trkpt lat="47.5441" lon="6.67529">
        <ele>390</ele>
        <time>2016-12-11T09:51:10.999Z</time>
      </trkpt>
      <trkpt lat="47.54413" lon="6.67527">
        <ele>390</ele>
        <time>2016-12-11T09:51:11.999Z</time>
      </trkpt>
      <trkpt lat="47.54415" lon="6.67527">
        <ele>390</ele>
        <time>2016-12-11T09:51:12.999Z</time>
      </trkpt>
      <trkpt lat="47.54418" lon="6.67525">
        <ele>393</ele>
        <time>2016-12-11T09:51:13.999Z</time>
      </trkpt>
      <trkpt lat="47.54421" lon="6.67524">
        <ele>393</ele>
        <time>2016-12-11T09:51:14.999Z</time>
      </trkpt>
      <trkpt lat="47.54423" lon="6.67522">
        <ele>392</ele>
        <time>2016-12-11T09:51:15.999Z</time>
      </trkpt>
      <trkpt lat="47.54425" lon="6.67523">
        <ele>393</ele>
        <time>2016-12-11T09:51:16.999Z</time>
      </trkpt>
      <trkpt lat="47.54428" lon="6.67523">
        <ele>393</ele>
        <time>2016-12-11T09:51:17.999Z</time>
      </trkpt>
      <trkpt lat="47.54431" lon="6.67522">
        <ele>393</ele>
        <time>2016-12-11T09:51:18.999Z</time>
      </trkpt>
      <trkpt lat="47.54436" lon="6.67521">
        <ele>393</ele>
        <time>2016-12-11T09:51:19.999Z</time>
      </trkpt>
      <trkpt lat="47.5444" lon="6.67521">
        <ele>393</ele>
        <time>2016-12-11T09:51:20.999Z</time>
      </trkpt>
      <trkpt lat="47.54442" lon="6.67521">
        <ele>393</ele>
        <time>2016-12-11T09:51:21.999Z</time>
      </trkpt>
      <trkpt lat="47.54446" lon="6.67521">
        <ele>394</ele>
        <time>2016-12-11T09:51:22.999Z</time>
      </trkpt>
      <trkpt lat="47.54451" lon="6.67521">
        <ele>394</ele>
        <time>2016-12-11T09:51:23.999Z</time>
      </trkpt>
      <trkpt lat="47.54456" lon="6.67521">
        <ele>394</ele>
        <time>2016-12-11T09:51:24.999Z</time>
      </trkpt>
      <trkpt lat="47.54461" lon="6.6752">
        <ele>394</ele>
        <time>2016-12-11T09:51:25.999Z</time>
      </trkpt>
      <trkpt lat="47.54464" lon="6.67519">
        <ele>394</ele>
        <time>2016-12-11T09:51:26.999Z</time>
      </trkpt>
      <trkpt lat="47.54467" lon="6.67518">
        <ele>394</ele>
        <time>2016-12-11T09:51:27.999Z</time>
      </trkpt>
      <trkpt lat="47.54471" lon="6.67517">
        <ele>394</ele>
        <time>2016-12-11T09:51:28.999Z</time>
      </trkpt>
      <trkpt lat="47.54474" lon="6.67515">
        <ele>394</ele>
        <time>2016-12-11T09:51:29.999Z</time>
      </trkpt>
      <trkpt lat="47.54478" lon="6.67515">
        <ele>394</ele>
        <time>2016-12-11T09:51:30.999Z</time>
      </trkpt>
      <trkpt lat="47.54483" lon="6.67514">
        <ele>393</ele>
        <time>2016-12-11T09:51:31.999Z</time>
      </trkpt>
      <trkpt lat="47.54488" lon="6.67511">
        <ele>393</ele>
        <time>2016-12-11T09:51:32.999Z</time>
      </trkpt>
      <trkpt lat="47.54492" lon="6.67511">
        <ele>393</ele>
        <time>2016-12-11T09:51:33.999Z</time>
      </trkpt>
      <trkpt lat="47.54495" lon="6.67511">
        <ele>392</ele>
        <time>2016-12-11T09:51:34.999Z</time>
      </trkpt>
      <trkpt lat="47.545" lon="6.6751">
        <ele>393</ele>
        <time>2016-12-11T09:51:35.999Z</time>
      </trkpt>
      <trkpt lat="47.54504" lon="6.6751">
        <ele>393</ele>
        <time>2016-12-11T09:51:36.999Z</time>
      </trkpt>
      <trkpt lat="47.54508" lon="6.6751">
        <ele>394</ele>
        <time>2016-12-11T09:51:37.999Z</time>
      </trkpt>
      <trkpt lat="47.54512" lon="6.6751">
        <ele>394</ele>
        <time>2016-12-11T09:51:38.999Z</time>
      </trkpt>
      <trkpt lat="47.54515" lon="6.6751">
        <ele>395</ele>
        <time>2016-12-11T09:51:39.999Z</time>
      </trkpt>
      <trkpt lat="47.5452" lon="6.67509">
        <ele>395</ele>
        <time>2016-12-11T09:51:41.999Z</time>
      </trkpt>
      <trkpt lat="47.54522" lon="6.67508">
        <ele>395</ele>
        <time>2016-12-11T09:51:42.999Z</time>
      </trkpt>
      <trkpt lat="47.54525" lon="6.67508">
        <ele>395</ele>
        <time>2016-12-11T09:51:43.999Z</time>
      </trkpt>
      <trkpt lat="47.54527" lon="6.67507">
        <ele>396</ele>
        <time>2016-12-11T09:51:44.999Z</time>
      </trkpt>
      <trkpt lat="47.5453" lon="6.67507">
        <ele>396</ele>
        <time>2016-12-11T09:51:45.999Z</time>
      </trkpt>
      <trkpt lat="47.54533" lon="6.67508">
        <ele>396</ele>
        <time>2016-12-11T09:51:46.999Z</time>
      </trkpt>
      <trkpt lat="47.54535" lon="6.67508">
        <ele>396</ele>
        <time>2016-12-11T09:51:47.999Z</time>
      </trkpt>
      <trkpt lat="47.54541" lon="6.67509">
        <ele>397</ele>
        <time>2016-12-11T09:51:48.999Z</time>
      </trkpt>
      <trkpt lat="47.54548" lon="6.67509">
        <ele>397</ele>
        <time>2016-12-11T09:51:49.999Z</time>
      </trkpt>
      <trkpt lat="47.54551" lon="6.67509">
        <ele>396</ele>
        <time>2016-12-11T09:51:50.999Z</time>
      </trkpt>
      <trkpt lat="47.54554" lon="6.67508">
        <ele>396</ele>
        <time>2016-12-11T09:51:51.999Z</time>
      </trkpt>
      <trkpt lat="47.54558" lon="6.67509">
        <ele>396</ele>
        <time>2016-12-11T09:51:52.999Z</time>
      </trkpt>
      <trkpt lat="47.54561" lon="6.6751">
        <ele>396</ele>
        <time>2016-12-11T09:51:53.999Z</time>
      </trkpt>
      <trkpt lat="47.54565" lon="6.6751">
        <ele>396</ele>
        <time>2016-12-11T09:51:55.999Z</time>
      </trkpt>
      <trkpt lat="47.54569" lon="6.67509">
        <ele>395</ele>
        <time>2016-12-11T09:51:56.999Z</time>
      </trkpt>
      <trkpt lat="47.54572" lon="6.67509">
        <ele>395</ele>
        <time>2016-12-11T09:51:57.999Z</time>
      </trkpt>
      <trkpt lat="47.54575" lon="6.67509">
        <ele>395</ele>
        <time>2016-12-11T09:51:58.999Z</time>
      </trkpt>
      <trkpt lat="47.54577" lon="6.67509">
        <ele>395</ele>
        <time>2016-12-11T09:51:59.999Z</time>
      </trkpt>
      <trkpt lat="47.54579" lon="6.67508">
        <ele>394</ele>
        <time>2016-12-11T09:52:00.999Z</time>
      </trkpt>
      <trkpt lat="47.54582" lon="6.67508">
        <ele>394</ele>
        <time>2016-12-11T09:52:01.999Z</time>
      </trkpt>
      <trkpt lat="47.54584" lon="6.67509">
        <ele>395</ele>
        <time>2016-12-11T09:52:02.999Z</time>
      </trkpt>
      <trkpt lat="47.54588" lon="6.6751">
        <ele>395</ele>
        <time>2016-12-11T09:52:04.999Z</time>
      </trkpt>
      <trkpt lat="47.54591" lon="6.67511">
        <ele>396</ele>
        <time>2016-12-11T09:52:05.999Z</time>
      </trkpt>
      <trkpt lat="47.54594" lon="6.6751">
        <ele>396</ele>
        <time>2016-12-11T09:52:06.999Z</time>
      </trkpt>
      <trkpt lat="47.54597" lon="6.67512">
        <ele>397</ele>
        <time>2016-12-11T09:52:07.999Z</time>
      </trkpt>
      <trkpt lat="47.546" lon="6.67515">
        <ele>397</ele>
        <time>2016-12-11T09:52:08.999Z</time>
      </trkpt>
      <trkpt lat="47.54603" lon="6.67517">
        <ele>398</ele>
        <time>2016-12-11T09:52:09.999Z</time>
      </trkpt>
      <trkpt lat="47.54605" lon="6.67517">
        <ele>398</ele>
        <time>2016-12-11T09:52:10.999Z</time>
      </trkpt>
      <trkpt lat="47.54608" lon="6.67518">
        <ele>398</ele>
        <time>2016-12-11T09:52:11.999Z</time>
      </trkpt>
      <trkpt lat="47.54611" lon="6.67518">
        <ele>398</ele>
        <time>2016-12-11T09:52:12.999Z</time>
      </trkpt>
      <trkpt lat="47.54614" lon="6.6752">
        <ele>399</ele>
        <time>2016-12-11T09:52:13.999Z</time>
      </trkpt>
      <trkpt lat="47.54616" lon="6.67522">
        <ele>399</ele>
        <time>2016-12-11T09:52:14.999Z</time>
      </trkpt>
      <trkpt lat="47.54618" lon="6.67524">
        <ele>399</ele>
        <time>2016-12-11T09:52:15.999Z</time>
      </trkpt>
      <trkpt lat="47.5462" lon="6.67525">
        <ele>399</ele>
        <time>2016-12-11T09:52:16.999Z</time>
      </trkpt>
      <trkpt lat="47.54622" lon="6.67526">
        <ele>399</ele>
        <time>2016-12-11T09:52:17.999Z</time>
      </trkpt>
      <trkpt lat="47.54624" lon="6.67529">
        <ele>400</ele>
        <time>2016-12-11T09:52:20.999Z</time>
      </trkpt>
      <trkpt lat="47.54627" lon="6.67529">
        <ele>400</ele>
        <time>2016-12-11T09:52:21.999Z</time>
      </trkpt>
      <trkpt lat="47.54631" lon="6.67529">
        <ele>400</ele>
        <time>2016-12-11T09:52:23.999Z</time>
      </trkpt>
      <trkpt lat="47.54634" lon="6.67528">
        <ele>400</ele>
        <time>2016-12-11T09:52:24.999Z</time>
      </trkpt>
      <trkpt lat="47.54636" lon="6.67528">
        <ele>400</ele>
        <time>2016-12-11T09:52:25.999Z</time>
      </trkpt>
      <trkpt lat="47.5464" lon="6.67528">
        <ele>400</ele>
        <time>2016-12-11T09:52:26.999Z</time>
      </trkpt>
      <trkpt lat="47.54643" lon="6.67529">
        <ele>400</ele>
        <time>2016-12-11T09:52:27.999Z</time>
      </trkpt>
      <trkpt lat="47.54647" lon="6.6753">
        <ele>400</ele>
        <time>2016-12-11T09:52:28.999Z</time>
      </trkpt>
      <trkpt lat="47.5465" lon="6.67531">
        <ele>400</ele>
        <time>2016-12-11T09:52:29.999Z</time>
      </trkpt>
      <trkpt lat="47.54652" lon="6.67533">
        <ele>400</ele>
        <time>2016-12-11T09:52:30.999Z</time>
      </trkpt>
      <trkpt lat="47.54656" lon="6.67535">
        <ele>400</ele>
        <time>2016-12-11T09:52:31.999Z</time>
      </trkpt>
      <trkpt lat="47.54659" lon="6.67536">
        <ele>400</ele>
        <time>2016-12-11T09:52:32.999Z</time>
      </trkpt>
      <trkpt lat="47.54662" lon="6.67537">
        <ele>401</ele>
        <time>2016-12-11T09:52:33.999Z</time>
      </trkpt>
      <trkpt lat="47.54665" lon="6.67538">
        <ele>401</ele>
        <time>2016-12-11T09:52:34.999Z</time>
      </trkpt>
      <trkpt lat="47.54668" lon="6.6754">
        <ele>403</ele>
        <time>2016-12-11T09:52:35.999Z</time>
      </trkpt>
      <trkpt lat="47.54671" lon="6.6754">
        <ele>403</ele>
        <time>2016-12-11T09:52:36.999Z</time>
      </trkpt>
      <trkpt lat="47.54675" lon="6.6754">
        <ele>404</ele>
        <time>2016-12-11T09:52:37.999Z</time>
      </trkpt>
      <trkpt lat="47.54678" lon="6.6754">
        <ele>404</ele>
        <time>2016-12-11T09:52:38.999Z</time>
      </trkpt>
      <trkpt lat="47.54681" lon="6.67541">
        <ele>404</ele>
        <time>2016-12-11T09:52:39.999Z</time>
      </trkpt>
      <trkpt lat="47.54685" lon="6.6754">
        <ele>404</ele>
        <time>2016-12-11T09:52:40.999Z</time>
      </trkpt>
      <trkpt lat="47.54688" lon="6.67539">
        <ele>404</ele>
        <time>2016-12-11T09:52:41.999Z</time>
      </trkpt>
      <trkpt lat="47.54692" lon="6.6754">
        <ele>404</ele>
        <time>2016-12-11T09:52:42.999Z</time>
      </trkpt>
      <trkpt lat="47.54697" lon="6.6754">
        <ele>404</ele>
        <time>2016-12-11T09:52:43.999Z</time>
      </trkpt>
      <trkpt lat="47.54701" lon="6.67537">
        <ele>404</ele>
        <time>2016-12-11T09:52:44.999Z</time>
      </trkpt>
      <trkpt lat="47.54707" lon="6.67536">
        <ele>404</ele>
        <time>2016-12-11T09:52:45.999Z</time>
      </trkpt>
      <trkpt lat="47.54713" lon="6.67536">
        <ele>405</ele>
        <time>2016-12-11T09:52:46.999Z</time>
      </trkpt>
      <trkpt lat="47.5472" lon="6.67536">
        <ele>405</ele>
        <time>2016-12-11T09:52:47.999Z</time>
      </trkpt>
      <trkpt lat="47.54729" lon="6.67537">
        <ele>405</ele>
        <time>2016-12-11T09:52:48.999Z</time>
      </trkpt>
      <trkpt lat="47.54736" lon="6.67539">
        <ele>406</ele>
        <time>2016-12-11T09:52:49.999Z</time>
      </trkpt>
      <trkpt lat="47.54742" lon="6.67539">
        <ele>406</ele>
        <time>2016-12-11T09:52:50.999Z</time>
      </trkpt>
      <trkpt lat="47.54747" lon="6.6754">
        <ele>406</ele>
        <time>2016-12-11T09:52:51.999Z</time>
      </trkpt>
      <trkpt lat="47.54751" lon="6.67541">
        <ele>411</ele>
        <time>2016-12-11T09:52:52.999Z</time>
      </trkpt>
      <trkpt lat="47.54755" lon="6.67541">
        <ele>411</ele>
        <time>2016-12-11T09:52:53.999Z</time>
      </trkpt>
      <trkpt lat="47.54758" lon="6.67541">
        <ele>411</ele>
        <time>2016-12-11T09:52:54.999Z</time>
      </trkpt>
      <trkpt lat="47.54761" lon="6.67542">
        <ele>412</ele>
        <time>2016-12-11T09:52:55.999Z</time>
      </trkpt>
      <trkpt lat="47.54763" lon="6.67542">
        <ele>412</ele>
        <time>2016-12-11T09:52:56.999Z</time>
      </trkpt>
      <trkpt lat="47.54766" lon="6.67543">
        <ele>412</ele>
        <time>2016-12-11T09:52:57.999Z</time>
      </trkpt>
      <trkpt lat="47.54769" lon="6.67543">
        <ele>412</ele>
        <time>2016-12-11T09:52:58.999Z</time>
      </trkpt>
      <trkpt lat="47.54772" lon="6.67542">
        <ele>412</ele>
        <time>2016-12-11T09:52:59.999Z</time>
      </trkpt>
      <trkpt lat="47.54775" lon="6.67541">
        <ele>412</ele>
        <time>2016-12-11T09:53:00.999Z</time>
      </trkpt>
      <trkpt lat="47.54778" lon="6.67541">
        <ele>412</ele>
        <time>2016-12-11T09:53:01.999Z</time>
      </trkpt>
      <trkpt lat="47.5478" lon="6.67541">
        <ele>412</ele>
        <time>2016-12-11T09:53:02.999Z</time>
      </trkpt>
      <trkpt lat="47.54785" lon="6.67541">
        <ele>413</ele>
        <time>2016-12-11T09:53:04.999Z</time>
      </trkpt>
      <trkpt lat="47.54787" lon="6.67542">
        <ele>413</ele>
        <time>2016-12-11T09:53:05.999Z</time>
      </trkpt>
      <trkpt lat="47.54789" lon="6.67543">
        <ele>413</ele>
        <time>2016-12-11T09:53:06.999Z</time>
      </trkpt>
      <trkpt lat="47.54791" lon="6.67544">
        <ele>413</ele>
        <time>2016-12-11T09:53:07.999Z</time>
      </trkpt>
      <trkpt lat="47.54794" lon="6.67545">
        <ele>413</ele>
        <time>2016-12-11T09:53:08.999Z</time>
      </trkpt>
      <trkpt lat="47.54796" lon="6.67546">
        <ele>414</ele>
        <time>2016-12-11T09:53:09.999Z</time>
      </trkpt>
      <trkpt lat="47.54799" lon="6.67547">
        <ele>414</ele>
        <time>2016-12-11T09:53:10.999Z</time>
      </trkpt>
      <trkpt lat="47.54801" lon="6.67547">
        <ele>414</ele>
        <time>2016-12-11T09:53:11.999Z</time>
      </trkpt>
      <trkpt lat="47.54803" lon="6.67547">
        <ele>414</ele>
        <time>2016-12-11T09:53:12.999Z</time>
      </trkpt>
      <trkpt lat="47.54805" lon="6.67548">
        <ele>414</ele>
        <time>2016-12-11T09:53:13.999Z</time>
      </trkpt>
      <trkpt lat="47.54809" lon="6.6755">
        <ele>415</ele>
        <time>2016-12-11T09:53:15.999Z</time>
      </trkpt>
      <trkpt lat="47.54811" lon="6.6755">
        <ele>415</ele>
        <time>2016-12-11T09:53:16.999Z</time>
      </trkpt>
      <trkpt lat="47.54815" lon="6.67552">
        <ele>415</ele>
        <time>2016-12-11T09:53:17.999Z</time>
      </trkpt>
      <trkpt lat="47.5482" lon="6.67552">
        <ele>416</ele>
        <time>2016-12-11T09:53:18.999Z</time>
      </trkpt>
      <trkpt lat="47.54827" lon="6.67553">
        <ele>416</ele>
        <time>2016-12-11T09:53:19.999Z</time>
      </trkpt>
      <trkpt lat="47.54834" lon="6.67553">
        <ele>421</ele>
        <time>2016-12-11T09:53:20.999Z</time>
      </trkpt>
      <trkpt lat="47.54839" lon="6.67554">
        <ele>421</ele>
        <time>2016-12-11T09:53:21.999Z</time>
      </trkpt>
      <trkpt lat="47.54843" lon="6.67554">
        <ele>421</ele>
        <time>2016-12-11T09:53:22.999Z</time>
      </trkpt>
      <trkpt lat="47.54846" lon="6.67554">
        <ele>421</ele>
        <time>2016-12-11T09:53:23.999Z</time>
      </trkpt>
      <trkpt lat="47.5485" lon="6.67555">
        <ele>421</ele>
        <time>2016-12-11T09:53:24.999Z</time>
      </trkpt>
      <trkpt lat="47.54854" lon="6.67555">
        <ele>421</ele>
        <time>2016-12-11T09:53:25.999Z</time>
      </trkpt>
      <trkpt lat="47.54859" lon="6.67556">
        <ele>421</ele>
        <time>2016-12-11T09:53:26.999Z</time>
      </trkpt>
      <trkpt lat="47.54863" lon="6.67557">
        <ele>421</ele>
        <time>2016-12-11T09:53:27.999Z</time>
      </trkpt>
      <trkpt lat="47.54866" lon="6.67558">
        <ele>421</ele>
        <time>2016-12-11T09:53:28.999Z</time>
      </trkpt>
      <trkpt lat="47.5487" lon="6.67559">
        <ele>421</ele>
        <time>2016-12-11T09:53:30.999Z</time>
      </trkpt>
      <trkpt lat="47.54874" lon="6.67559">
        <ele>421</ele>
        <time>2016-12-11T09:53:31.999Z</time>
      </trkpt>
      <trkpt lat="47.54879" lon="6.67559">
        <ele>422</ele>
        <time>2016-12-11T09:53:32.999Z</time>
      </trkpt>
      <trkpt lat="47.54882" lon="6.67559">
        <ele>422</ele>
        <time>2016-12-11T09:53:33.999Z</time>
      </trkpt>
      <trkpt lat="47.54885" lon="6.67559">
        <ele>422</ele>
        <time>2016-12-11T09:53:34.999Z</time>
      </trkpt>
      <trkpt lat="47.54888" lon="6.67559">
        <ele>422</ele>
        <time>2016-12-11T09:53:35.999Z</time>
      </trkpt>
      <trkpt lat="47.54892" lon="6.67559">
        <ele>422</ele>
        <time>2016-12-11T09:53:36.999Z</time>
      </trkpt>
      <trkpt lat="47.54896" lon="6.67559">
        <ele>422</ele>
        <time>2016-12-11T09:53:37.999Z</time>
      </trkpt>
      <trkpt lat="47.549" lon="6.6756">
        <ele>423</ele>
        <time>2016-12-11T09:53:38.999Z</time>
      </trkpt>
      <trkpt lat="47.54903" lon="6.6756">
        <ele>423</ele>
        <time>2016-12-11T09:53:39.999Z</time>
      </trkpt>
      <trkpt lat="47.54907" lon="6.67561">
        <ele>423</ele>
        <time>2016-12-11T09:53:40.999Z</time>
      </trkpt>
      <trkpt lat="47.5491" lon="6.67562">
        <ele>424</ele>
        <time>2016-12-11T09:53:41.999Z</time>
      </trkpt>
      <trkpt lat="47.54913" lon="6.67562">
        <ele>424</ele>
        <time>2016-12-11T09:53:42.999Z</time>
      </trkpt>
      <trkpt lat="47.54916" lon="6.67563">
        <ele>424</ele>
        <time>2016-12-11T09:53:43.999Z</time>
      </trkpt>
      <trkpt lat="47.5492" lon="6.67564">
        <ele>426</ele>
        <time>2016-12-11T09:53:44.999Z</time>
      </trkpt>
      <trkpt lat="47.54922" lon="6.67563">
        <ele>426</ele>
        <time>2016-12-11T09:53:45.999Z</time>
      </trkpt>
      <trkpt lat="47.54925" lon="6.67563">
        <ele>426</ele>
        <time>2016-12-11T09:53:46.999Z</time>
      </trkpt>
      <trkpt lat="47.54928" lon="6.67563">
        <ele>426</ele>
        <time>2016-12-11T09:53:47.999Z</time>
      </trkpt>
      <trkpt lat="47.54932" lon="6.67563">
        <ele>426</ele>
        <time>2016-12-11T09:53:48.999Z</time>
      </trkpt>
      <trkpt lat="47.54935" lon="6.67564">
        <ele>426</ele>
        <time>2016-12-11T09:53:49.999Z</time>
      </trkpt>
      <trkpt lat="47.54938" lon="6.67565">
        <ele>426</ele>
        <time>2016-12-11T09:53:50.999Z</time>
      </trkpt>
      <trkpt lat="47.5494" lon="6.67565">
        <ele>426</ele>
        <time>2016-12-11T09:53:51.999Z</time>
      </trkpt>
      <trkpt lat="47.54943" lon="6.67565">
        <ele>426</ele>
        <time>2016-12-11T09:53:52.999Z</time>
      </trkpt>
      <trkpt lat="47.54946" lon="6.67566">
        <ele>426</ele>
        <time>2016-12-11T09:53:53.999Z</time>
      </trkpt>
      <trkpt lat="47.5495" lon="6.67566">
        <ele>426</ele>
        <time>2016-12-11T09:53:54.999Z</time>
      </trkpt>
      <trkpt lat="47.54953" lon="6.67566">
        <ele>426</ele>
        <time>2016-12-11T09:53:55.999Z</time>
      </trkpt>
      <trkpt lat="47.54956" lon="6.67566">
        <ele>426</ele>
        <time>2016-12-11T09:53:56.999Z</time>
      </trkpt>
      <trkpt lat="47.5496" lon="6.67566">
        <ele>426</ele>
        <time>2016-12-11T09:53:57.999Z</time>
      </trkpt>
      <trkpt lat="47.54963" lon="6.67565">
        <ele>426</ele>
        <time>2016-12-11T09:53:58.999Z</time>
      </trkpt>
      <trkpt lat="47.54965" lon="6.67565">
        <ele>426</ele>
        <time>2016-12-11T09:53:59.999Z</time>
      </trkpt>
      <trkpt lat="47.54968" lon="6.67565">
        <ele>426</ele>
        <time>2016-12-11T09:54:00.999Z</time>
      </trkpt>
      <trkpt lat="47.54971" lon="6.67566">
        <ele>426</ele>
        <time>2016-12-11T09:54:01.999Z</time>
      </trkpt>
      <trkpt lat="47.54974" lon="6.67566">
        <ele>426</ele>
        <time>2016-12-11T09:54:02.999Z</time>
      </trkpt>
      <trkpt lat="47.54977" lon="6.67566">
        <ele>427</ele>
        <time>2016-12-11T09:54:03.999Z</time>
      </trkpt>
      <trkpt lat="47.54981" lon="6.67566">
        <ele>427</ele>
        <time>2016-12-11T09:54:04.999Z</time>
      </trkpt>
      <trkpt lat="47.54984" lon="6.67567">
        <ele>427</ele>
        <time>2016-12-11T09:54:05.999Z</time>
      </trkpt>
      <trkpt lat="47.54987" lon="6.67567">
        <ele>428</ele>
        <time>2016-12-11T09:54:06.999Z</time>
      </trkpt>
      <trkpt lat="47.54989" lon="6.67566">
        <ele>428</ele>
        <time>2016-12-11T09:54:07.999Z</time>
      </trkpt>
      <trkpt lat="47.54992" lon="6.67566">
        <ele>428</ele>
        <time>2016-12-11T09:54:08.999Z</time>
      </trkpt>
      <trkpt lat="47.54996" lon="6.67565">
        <ele>428</ele>
        <time>2016-12-11T09:54:09.999Z</time>
      </trkpt>
      <trkpt lat="47.55" lon="6.67565">
        <ele>428</ele>
        <time>2016-12-11T09:54:10.999Z</time>
      </trkpt>
      <trkpt lat="47.55003" lon="6.67564">
        <ele>430</ele>
        <time>2016-12-11T09:54:11.999Z</time>
      </trkpt>
      <trkpt lat="47.55007" lon="6.67564">
        <ele>430</ele>
        <time>2016-12-11T09:54:12.999Z</time>
      </trkpt>
      <trkpt lat="47.5501" lon="6.67564">
        <ele>430</ele>
        <time>2016-12-11T09:54:13.999Z</time>
      </trkpt>
      <trkpt lat="47.55012" lon="6.67563">
        <ele>429</ele>
        <time>2016-12-11T09:54:14.999Z</time>
      </trkpt>
      <trkpt lat="47.55015" lon="6.67563">
        <ele>429</ele>
        <time>2016-12-11T09:54:15.999Z</time>
      </trkpt>
      <trkpt lat="47.55018" lon="6.67562">
        <ele>429</ele>
        <time>2016-12-11T09:54:16.999Z</time>
      </trkpt>
      <trkpt lat="47.55021" lon="6.67562">
        <ele>429</ele>
        <time>2016-12-11T09:54:17.999Z</time>
      </trkpt>
      <trkpt lat="47.55024" lon="6.67561">
        <ele>429</ele>
        <time>2016-12-11T09:54:18.999Z</time>
      </trkpt>
      <trkpt lat="47.55028" lon="6.67561">
        <ele>429</ele>
        <time>2016-12-11T09:54:19.999Z</time>
      </trkpt>
      <trkpt lat="47.55032" lon="6.6756">
        <ele>429</ele>
        <time>2016-12-11T09:54:20.999Z</time>
      </trkpt>
      <trkpt lat="47.55036" lon="6.67561">
        <ele>429</ele>
        <time>2016-12-11T09:54:21.999Z</time>
      </trkpt>
      <trkpt lat="47.55038" lon="6.6756">
        <ele>429</ele>
        <time>2016-12-11T09:54:22.999Z</time>
      </trkpt>
      <trkpt lat="47.5504" lon="6.67561">
        <ele>429</ele>
        <time>2016-12-11T09:54:23.999Z</time>
      </trkpt>
      <trkpt lat="47.55044" lon="6.6756">
        <ele>429</ele>
        <time>2016-12-11T09:54:24.999Z</time>
      </trkpt>
      <trkpt lat="47.55048" lon="6.67561">
        <ele>429</ele>
        <time>2016-12-11T09:54:25.999Z</time>
      </trkpt>
      <trkpt lat="47.55052" lon="6.67561">
        <ele>430</ele>
        <time>2016-12-11T09:54:26.999Z</time>
      </trkpt>
      <trkpt lat="47.55055" lon="6.67561">
        <ele>430</ele>
        <time>2016-12-11T09:54:27.999Z</time>
      </trkpt>
      <trkpt lat="47.55058" lon="6.67562">
        <ele>430</ele>
        <time>2016-12-11T09:54:28.999Z</time>
      </trkpt>
      <trkpt lat="47.55061" lon="6.67564">
        <ele>430</ele>
        <time>2016-12-11T09:54:29.999Z</time>
      </trkpt>
      <trkpt lat="47.55062" lon="6.67565">
        <ele>431</ele>
        <time>2016-12-11T09:54:30.999Z</time>
      </trkpt>
      <trkpt lat="47.55065" lon="6.67566">
        <ele>431</ele>
        <time>2016-12-11T09:54:31.999Z</time>
      </trkpt>
      <trkpt lat="47.55068" lon="6.67567">
        <ele>431</ele>
        <time>2016-12-11T09:54:32.999Z</time>
      </trkpt>
      <trkpt lat="47.5507" lon="6.67567">
        <ele>431</ele>
        <time>2016-12-11T09:54:33.999Z</time>
      </trkpt>
      <trkpt lat="47.55073" lon="6.67567">
        <ele>432</ele>
        <time>2016-12-11T09:54:34.999Z</time>
      </trkpt>
      <trkpt lat="47.55077" lon="6.67568">
        <ele>432</ele>
        <time>2016-12-11T09:54:35.999Z</time>
      </trkpt>
      <trkpt lat="47.5508" lon="6.67569">
        <ele>432</ele>
        <time>2016-12-11T09:54:36.999Z</time>
      </trkpt>
      <trkpt lat="47.55083" lon="6.67569">
        <ele>432</ele>
        <time>2016-12-11T09:54:37.999Z</time>
      </trkpt>
      <trkpt lat="47.55085" lon="6.67569">
        <ele>435</ele>
        <time>2016-12-11T09:54:38.999Z</time>
      </trkpt>
      <trkpt lat="47.55088" lon="6.67569">
        <ele>435</ele>
        <time>2016-12-11T09:54:39.999Z</time>
      </trkpt>
      <trkpt lat="47.55091" lon="6.6757">
        <ele>435</ele>
        <time>2016-12-11T09:54:40.999Z</time>
      </trkpt>
      <trkpt lat="47.55093" lon="6.6757">
        <ele>435</ele>
        <time>2016-12-11T09:54:41.999Z</time>
      </trkpt>
      <trkpt lat="47.55096" lon="6.67571">
        <ele>435</ele>
        <time>2016-12-11T09:54:42.999Z</time>
      </trkpt>
      <trkpt lat="47.55099" lon="6.67572">
        <ele>435</ele>
        <time>2016-12-11T09:54:43.999Z</time>
      </trkpt>
      <trkpt lat="47.55102" lon="6.67573">
        <ele>435</ele>
        <time>2016-12-11T09:54:44.999Z</time>
      </trkpt>
      <trkpt lat="47.55105" lon="6.67573">
        <ele>435</ele>
        <time>2016-12-11T09:54:45.999Z</time>
      </trkpt>
      <trkpt lat="47.55108" lon="6.67574">
        <ele>435</ele>
        <time>2016-12-11T09:54:46.999Z</time>
      </trkpt>
      <trkpt lat="47.55112" lon="6.67575">
        <ele>435</ele>
        <time>2016-12-11T09:54:47.999Z</time>
      </trkpt>
      <trkpt lat="47.55116" lon="6.67576">
        <ele>435</ele>
        <time>2016-12-11T09:54:48.999Z</time>
      </trkpt>
      <trkpt lat="47.5512" lon="6.67577">
        <ele>435</ele>
        <time>2016-12-11T09:54:49.999Z</time>
      </trkpt>
      <trkpt lat="47.55124" lon="6.67577">
        <ele>435</ele>
        <time>2016-12-11T09:54:50.999Z</time>
      </trkpt>
      <trkpt lat="47.55128" lon="6.67577">
        <ele>435</ele>
        <time>2016-12-11T09:54:51.999Z</time>
      </trkpt>
      <trkpt lat="47.5513" lon="6.67578">
        <ele>435</ele>
        <time>2016-12-11T09:54:52.999Z</time>
      </trkpt>
      <trkpt lat="47.55133" lon="6.67579">
        <ele>436</ele>
        <time>2016-12-11T09:54:53.999Z</time>
      </trkpt>
      <trkpt lat="47.55137" lon="6.67579">
        <ele>436</ele>
        <time>2016-12-11T09:54:54.999Z</time>
      </trkpt>
      <trkpt lat="47.5514" lon="6.67579">
        <ele>436</ele>
        <time>2016-12-11T09:54:55.999Z</time>
      </trkpt>
      <trkpt lat="47.55143" lon="6.6758">
        <ele>436</ele>
        <time>2016-12-11T09:54:56.999Z</time>
      </trkpt>
      <trkpt lat="47.55145" lon="6.67581">
        <ele>437</ele>
        <time>2016-12-11T09:54:57.999Z</time>
      </trkpt>
      <trkpt lat="47.55148" lon="6.67581">
        <ele>437</ele>
        <time>2016-12-11T09:54:58.999Z</time>
      </trkpt>
      <trkpt lat="47.55151" lon="6.67582">
        <ele>437</ele>
        <time>2016-12-11T09:54:59.999Z</time>
      </trkpt>
      <trkpt lat="47.55155" lon="6.67583">
        <ele>438</ele>
        <time>2016-12-11T09:55:00.999Z</time>
      </trkpt>
      <trkpt lat="47.5516" lon="6.67583">
        <ele>438</ele>
        <time>2016-12-11T09:55:01.999Z</time>
      </trkpt>
      <trkpt lat="47.55162" lon="6.67583">
        <ele>439</ele>
        <time>2016-12-11T09:55:02.999Z</time>
      </trkpt>
      <trkpt lat="47.55164" lon="6.67583">
        <ele>439</ele>
        <time>2016-12-11T09:55:03.999Z</time>
      </trkpt>
      <trkpt lat="47.55167" lon="6.67583">
        <ele>440</ele>
        <time>2016-12-11T09:55:04.999Z</time>
      </trkpt>
      <trkpt lat="47.5517" lon="6.67583">
        <ele>440</ele>
        <time>2016-12-11T09:55:05.999Z</time>
      </trkpt>
      <trkpt lat="47.55173" lon="6.67583">
        <ele>442</ele>
        <time>2016-12-11T09:55:06.999Z</time>
      </trkpt>
      <trkpt lat="47.55176" lon="6.67583">
        <ele>443</ele>
        <time>2016-12-11T09:55:07.999Z</time>
      </trkpt>
      <trkpt lat="47.55179" lon="6.67583">
        <ele>443</ele>
        <time>2016-12-11T09:55:08.999Z</time>
      </trkpt>
      <trkpt lat="47.55181" lon="6.67583">
        <ele>439</ele>
        <time>2016-12-11T09:55:09.999Z</time>
      </trkpt>
      <trkpt lat="47.55184" lon="6.67583">
        <ele>439</ele>
        <time>2016-12-11T09:55:10.999Z</time>
      </trkpt>
      <trkpt lat="47.55186" lon="6.67583">
        <ele>439</ele>
        <time>2016-12-11T09:55:11.999Z</time>
      </trkpt>
      <trkpt lat="47.55188" lon="6.67584">
        <ele>445</ele>
        <time>2016-12-11T09:55:12.999Z</time>
      </trkpt>
      <trkpt lat="47.55192" lon="6.67584">
        <ele>445</ele>
        <time>2016-12-11T09:55:13.999Z</time>
      </trkpt>
      <trkpt lat="47.55195" lon="6.67584">
        <ele>446</ele>
        <time>2016-12-11T09:55:14.999Z</time>
      </trkpt>
      <trkpt lat="47.55197" lon="6.67584">
        <ele>446</ele>
        <time>2016-12-11T09:55:15.999Z</time>
      </trkpt>
      <trkpt lat="47.55199" lon="6.67582">
        <ele>439</ele>
        <time>2016-12-11T09:55:16.999Z</time>
      </trkpt>
      <trkpt lat="47.55201" lon="6.67581">
        <ele>439</ele>
        <time>2016-12-11T09:55:17.999Z</time>
      </trkpt>
      <trkpt lat="47.55205" lon="6.67581">
        <ele>439</ele>
        <time>2016-12-11T09:55:18.999Z</time>
      </trkpt>
      <trkpt lat="47.55208" lon="6.67581">
        <ele>439</ele>
        <time>2016-12-11T09:55:19.999Z</time>
      </trkpt>
      <trkpt lat="47.55211" lon="6.67581">
        <ele>439</ele>
        <time>2016-12-11T09:55:20.999Z</time>
      </trkpt>
      <trkpt lat="47.55213" lon="6.67582">
        <ele>439</ele>
        <time>2016-12-11T09:55:21.999Z</time>
      </trkpt>
      <trkpt lat="47.55215" lon="6.67584">
        <ele>446</ele>
        <time>2016-12-11T09:55:22.999Z</time>
      </trkpt>
      <trkpt lat="47.55218" lon="6.67585">
        <ele>446</ele>
        <time>2016-12-11T09:55:23.999Z</time>
      </trkpt>
      <trkpt lat="47.55221" lon="6.67585">
        <ele>446</ele>
        <time>2016-12-11T09:55:24.999Z</time>
      </trkpt>
      <trkpt lat="47.55224" lon="6.67586">
        <ele>446</ele>
        <time>2016-12-11T09:55:25.999Z</time>
      </trkpt>
      <trkpt lat="47.55226" lon="6.67587">
        <ele>446</ele>
        <time>2016-12-11T09:55:26.999Z</time>
      </trkpt>
      <trkpt lat="47.55228" lon="6.67589">
        <ele>446</ele>
        <time>2016-12-11T09:55:27.999Z</time>
      </trkpt>
      <trkpt lat="47.55231" lon="6.6759">
        <ele>446</ele>
        <time>2016-12-11T09:55:28.999Z</time>
      </trkpt>
      <trkpt lat="47.55235" lon="6.67591">
        <ele>445</ele>
        <time>2016-12-11T09:55:30.999Z</time>
      </trkpt>
      <trkpt lat="47.55237" lon="6.67592">
        <ele>445</ele>
        <time>2016-12-11T09:55:31.999Z</time>
      </trkpt>
      <trkpt lat="47.55239" lon="6.67593">
        <ele>445</ele>
        <time>2016-12-11T09:55:32.999Z</time>
      </trkpt>
      <trkpt lat="47.55242" lon="6.67594">
        <ele>445</ele>
        <time>2016-12-11T09:55:33.999Z</time>
      </trkpt>
      <trkpt lat="47.55245" lon="6.67595">
        <ele>445</ele>
        <time>2016-12-11T09:55:34.999Z</time>
      </trkpt>
      <trkpt lat="47.55248" lon="6.67597">
        <ele>445</ele>
        <time>2016-12-11T09:55:35.999Z</time>
      </trkpt>
      <trkpt lat="47.55251" lon="6.67597">
        <ele>445</ele>
        <time>2016-12-11T09:55:36.999Z</time>
      </trkpt>
      <trkpt lat="47.55255" lon="6.67597">
        <ele>445</ele>
        <time>2016-12-11T09:55:37.999Z</time>
      </trkpt>
      <trkpt lat="47.55257" lon="6.67597">
        <ele>445</ele>
        <time>2016-12-11T09:55:38.999Z</time>
      </trkpt>
      <trkpt lat="47.55259" lon="6.67598">
        <ele>445</ele>
        <time>2016-12-11T09:55:39.999Z</time>
      </trkpt>
      <trkpt lat="47.55262" lon="6.67598">
        <ele>446</ele>
        <time>2016-12-11T09:55:40.999Z</time>
      </trkpt>
      <trkpt lat="47.55266" lon="6.67599">
        <ele>446</ele>
        <time>2016-12-11T09:55:41.999Z</time>
      </trkpt>
      <trkpt lat="47.5527" lon="6.67599">
        <ele>446</ele>
        <time>2016-12-11T09:55:43.999Z</time>
      </trkpt>
      <trkpt lat="47.55273" lon="6.676">
        <ele>446</ele>
        <time>2016-12-11T09:55:44.999Z</time>
      </trkpt>
      <trkpt lat="47.55276" lon="6.676">
        <ele>447</ele>
        <time>2016-12-11T09:55:45.999Z</time>
      </trkpt>
      <trkpt lat="47.55278" lon="6.676">
        <ele>447</ele>
        <time>2016-12-11T09:55:46.999Z</time>
      </trkpt>
      <trkpt lat="47.55281" lon="6.676">
        <ele>447</ele>
        <time>2016-12-11T09:55:47.999Z</time>
      </trkpt>
      <trkpt lat="47.55283" lon="6.676">
        <ele>447</ele>
        <time>2016-12-11T09:55:48.999Z</time>
      </trkpt>
      <trkpt lat="47.55286" lon="6.676">
        <ele>447</ele>
        <time>2016-12-11T09:55:49.999Z</time>
      </trkpt>
      <trkpt lat="47.5529" lon="6.67601">
        <ele>447</ele>
        <time>2016-12-11T09:55:50.999Z</time>
      </trkpt>
      <trkpt lat="47.55292" lon="6.67601">
        <ele>447</ele>
        <time>2016-12-11T09:55:51.999Z</time>
      </trkpt>
      <trkpt lat="47.55295" lon="6.676">
        <ele>447</ele>
        <time>2016-12-11T09:55:52.999Z</time>
      </trkpt>
      <trkpt lat="47.55299" lon="6.67601">
        <ele>446</ele>
        <time>2016-12-11T09:55:54.999Z</time>
      </trkpt>
      <trkpt lat="47.55302" lon="6.67602">
        <ele>446</ele>
        <time>2016-12-11T09:55:55.999Z</time>
      </trkpt>
      <trkpt lat="47.55304" lon="6.67604">
        <ele>446</ele>
        <time>2016-12-11T09:55:56.999Z</time>
      </trkpt>
      <trkpt lat="47.55306" lon="6.67605">
        <ele>446</ele>
        <time>2016-12-11T09:55:57.999Z</time>
      </trkpt>
      <trkpt lat="47.55308" lon="6.67606">
        <ele>446</ele>
        <time>2016-12-11T09:55:58.999Z</time>
      </trkpt>
      <trkpt lat="47.55311" lon="6.67607">
        <ele>446</ele>
        <time>2016-12-11T09:55:59.999Z</time>
      </trkpt>
      <trkpt lat="47.55315" lon="6.67607">
        <ele>446</ele>
        <time>2016-12-11T09:56:01.999Z</time>
      </trkpt>
      <trkpt lat="47.55317" lon="6.67607">
        <ele>446</ele>
        <time>2016-12-11T09:56:02.999Z</time>
      </trkpt>
      <trkpt lat="47.55321" lon="6.67607">
        <ele>446</ele>
        <time>2016-12-11T09:56:04.999Z</time>
      </trkpt>
      <trkpt lat="47.55323" lon="6.67607">
        <ele>446</ele>
        <time>2016-12-11T09:56:05.999Z</time>
      </trkpt>
      <trkpt lat="47.55326" lon="6.67608">
        <ele>445</ele>
        <time>2016-12-11T09:56:07.999Z</time>
      </trkpt>
      <trkpt lat="47.55329" lon="6.67608">
        <ele>445</ele>
        <time>2016-12-11T09:56:08.999Z</time>
      </trkpt>
      <trkpt lat="47.55332" lon="6.67609">
        <ele>445</ele>
        <time>2016-12-11T09:56:10.999Z</time>
      </trkpt>
      <trkpt lat="47.55335" lon="6.6761">
        <ele>447</ele>
        <time>2016-12-11T09:56:11.999Z</time>
      </trkpt>
      <trkpt lat="47.55339" lon="6.67611">
        <ele>447</ele>
        <time>2016-12-11T09:56:13.999Z</time>
      </trkpt>
      <trkpt lat="47.55341" lon="6.67612">
        <ele>447</ele>
        <time>2016-12-11T09:56:14.999Z</time>
      </trkpt>
      <trkpt lat="47.55343" lon="6.67613">
        <ele>448</ele>
        <time>2016-12-11T09:56:15.999Z</time>
      </trkpt>
      <trkpt lat="47.55347" lon="6.67613">
        <ele>448</ele>
        <time>2016-12-11T09:56:16.999Z</time>
      </trkpt>
      <trkpt lat="47.55351" lon="6.67613">
        <ele>448</ele>
        <time>2016-12-11T09:56:17.999Z</time>
      </trkpt>
      <trkpt lat="47.55354" lon="6.67613">
        <ele>448</ele>
        <time>2016-12-11T09:56:18.999Z</time>
      </trkpt>
      <trkpt lat="47.55358" lon="6.67613">
        <ele>449</ele>
        <time>2016-12-11T09:56:20.999Z</time>
      </trkpt>
      <trkpt lat="47.5536" lon="6.67614">
        <ele>449</ele>
        <time>2016-12-11T09:56:21.999Z</time>
      </trkpt>
      <trkpt lat="47.55361" lon="6.67615">
        <ele>449</ele>
        <time>2016-12-11T09:56:22.999Z</time>
      </trkpt>
      <trkpt lat="47.55365" lon="6.67617">
        <ele>450</ele>
        <time>2016-12-11T09:56:23.999Z</time>
      </trkpt>
      <trkpt lat="47.55369" lon="6.67618">
        <ele>450</ele>
        <time>2016-12-11T09:56:24.999Z</time>
      </trkpt>
      <trkpt lat="47.55373" lon="6.67619">
        <ele>450</ele>
        <time>2016-12-11T09:56:25.999Z</time>
      </trkpt>
      <trkpt lat="47.55376" lon="6.67619">
        <ele>450</ele>
        <time>2016-12-11T09:56:26.999Z</time>
      </trkpt>
      <trkpt lat="47.55379" lon="6.6762">
        <ele>451</ele>
        <time>2016-12-11T09:56:27.999Z</time>
      </trkpt>
      <trkpt lat="47.55382" lon="6.67621">
        <ele>451</ele>
        <time>2016-12-11T09:56:28.999Z</time>
      </trkpt>
      <trkpt lat="47.55385" lon="6.67621">
        <ele>451</ele>
        <time>2016-12-11T09:56:29.999Z</time>
      </trkpt>
      <trkpt lat="47.55387" lon="6.67622">
        <ele>451</ele>
        <time>2016-12-11T09:56:30.999Z</time>
      </trkpt>
      <trkpt lat="47.5539" lon="6.67622">
        <ele>451</ele>
        <time>2016-12-11T09:56:31.999Z</time>
      </trkpt>
      <trkpt lat="47.55393" lon="6.67623">
        <ele>451</ele>
        <time>2016-12-11T09:56:33.999Z</time>
      </trkpt>
      <trkpt lat="47.55394" lon="6.67623">
        <ele>451</ele>
        <time>2016-12-11T09:56:34.999Z</time>
      </trkpt>
      <trkpt lat="47.55396" lon="6.67623">
        <ele>451</ele>
        <time>2016-12-11T09:56:35.999Z</time>
      </trkpt>
      <trkpt lat="47.55399" lon="6.67623">
        <ele>452</ele>
        <time>2016-12-11T09:56:36.999Z</time>
      </trkpt>
      <trkpt lat="47.55402" lon="6.67623">
        <ele>452</ele>
        <time>2016-12-11T09:56:37.999Z</time>
      </trkpt>
      <trkpt lat="47.55405" lon="6.67623">
        <ele>452</ele>
        <time>2016-12-11T09:56:38.999Z</time>
      </trkpt>
      <trkpt lat="47.55407" lon="6.67622">
        <ele>451</ele>
        <time>2016-12-11T09:56:39.999Z</time>
      </trkpt>
      <trkpt lat="47.55409" lon="6.67621">
        <ele>451</ele>
        <time>2016-12-11T09:56:40.999Z</time>
      </trkpt>
      <trkpt lat="47.55412" lon="6.6762">
        <ele>451</ele>
        <time>2016-12-11T09:56:41.999Z</time>
      </trkpt>
      <trkpt lat="47.55414" lon="6.6762">
        <ele>451</ele>
        <time>2016-12-11T09:56:42.999Z</time>
      </trkpt>
      <trkpt lat="47.55416" lon="6.67619">
        <ele>451</ele>
        <time>2016-12-11T09:56:43.999Z</time>
      </trkpt>
      <trkpt lat="47.55419" lon="6.67618">
        <ele>456</ele>
        <time>2016-12-11T09:56:44.999Z</time>
      </trkpt>
      <trkpt lat="47.55421" lon="6.67617">
        <ele>456</ele>
        <time>2016-12-11T09:56:45.999Z</time>
      </trkpt>
      <trkpt lat="47.55423" lon="6.67615">
        <ele>455</ele>
        <time>2016-12-11T09:56:46.999Z</time>
      </trkpt>
      <trkpt lat="47.55425" lon="6.67614">
        <ele>455</ele>
        <time>2016-12-11T09:56:47.999Z</time>
      </trkpt>
      <trkpt lat="47.55427" lon="6.67612">
        <ele>455</ele>
        <time>2016-12-11T09:56:48.999Z</time>
      </trkpt>
      <trkpt lat="47.5543" lon="6.67608">
        <ele>455</ele>
        <time>2016-12-11T09:56:50.999Z</time>
      </trkpt>
      <trkpt lat="47.55432" lon="6.67606">
        <ele>454</ele>
        <time>2016-12-11T09:56:51.999Z</time>
      </trkpt>
      <trkpt lat="47.55434" lon="6.67605">
        <ele>454</ele>
        <time>2016-12-11T09:56:53.999Z</time>
      </trkpt>
      <trkpt lat="47.55436" lon="6.67602">
        <ele>454</ele>
        <time>2016-12-11T09:56:54.999Z</time>
      </trkpt>
      <trkpt lat="47.55439" lon="6.67599">
        <ele>454</ele>
        <time>2016-12-11T09:56:56.999Z</time>
      </trkpt>
      <trkpt lat="47.5544" lon="6.67598">
        <ele>454</ele>
        <time>2016-12-11T09:56:57.999Z</time>
      </trkpt>
      <trkpt lat="47.55444" lon="6.67598">
        <ele>455</ele>
        <time>2016-12-11T09:56:59.999Z</time>
      </trkpt>
      <trkpt lat="47.55445" lon="6.67598">
        <ele>455</ele>
        <time>2016-12-11T09:57:00.999Z</time>
      </trkpt>
      <trkpt lat="47.55449" lon="6.67596">
        <ele>455</ele>
        <time>2016-12-11T09:57:02.999Z</time>
      </trkpt>
      <trkpt lat="47.5545" lon="6.67595">
        <ele>455</ele>
        <time>2016-12-11T09:57:03.999Z</time>
      </trkpt>
      <trkpt lat="47.55454" lon="6.67595">
        <ele>456</ele>
        <time>2016-12-11T09:57:05.999Z</time>
      </trkpt>
      <trkpt lat="47.55455" lon="6.67594">
        <ele>456</ele>
        <time>2016-12-11T09:57:06.999Z</time>
      </trkpt>
      <trkpt lat="47.55458" lon="6.67591">
        <ele>456</ele>
        <time>2016-12-11T09:57:08.999Z</time>
      </trkpt>
      <trkpt lat="47.55461" lon="6.6759">
        <ele>456</ele>
        <time>2016-12-11T09:57:09.999Z</time>
      </trkpt>
      <trkpt lat="47.55464" lon="6.67587">
        <ele>457</ele>
        <time>2016-12-11T09:57:11.999Z</time>
      </trkpt>
      <trkpt lat="47.55466" lon="6.67587">
        <ele>457</ele>
        <time>2016-12-11T09:57:12.999Z</time>
      </trkpt>
      <trkpt lat="47.55469" lon="6.67586">
        <ele>457</ele>
        <time>2016-12-11T09:57:14.999Z</time>
      </trkpt>
      <trkpt lat="47.5547" lon="6.67587">
        <ele>457</ele>
        <time>2016-12-11T09:57:15.999Z</time>
      </trkpt>
      <trkpt lat="47.55474" lon="6.67586">
        <ele>457</ele>
        <time>2016-12-11T09:57:17.999Z</time>
      </trkpt>
      <trkpt lat="47.55475" lon="6.67585">
        <ele>457</ele>
        <time>2016-12-11T09:57:18.999Z</time>
      </trkpt>
      <trkpt lat="47.55478" lon="6.67585">
        <ele>457</ele>
        <time>2016-12-11T09:57:20.999Z</time>
      </trkpt>
      <trkpt lat="47.5548" lon="6.67584">
        <ele>457</ele>
        <time>2016-12-11T09:57:21.999Z</time>
      </trkpt>
      <trkpt lat="47.55483" lon="6.67582">
        <ele>454</ele>
        <time>2016-12-11T09:57:23.999Z</time>
      </trkpt>
      <trkpt lat="47.55485" lon="6.67581">
        <ele>454</ele>
        <time>2016-12-11T09:57:24.999Z</time>
      </trkpt>
      <trkpt lat="47.55488" lon="6.67579">
        <ele>455</ele>
        <time>2016-12-11T09:57:26.999Z</time>
      </trkpt>
      <trkpt lat="47.5549" lon="6.67577">
        <ele>455</ele>
        <time>2016-12-11T09:57:27.999Z</time>
      </trkpt>
      <trkpt lat="47.55492" lon="6.67574">
        <ele>455</ele>
        <time>2016-12-11T09:57:29.999Z</time>
      </trkpt>
      <trkpt lat="47.55493" lon="6.67572">
        <ele>455</ele>
        <time>2016-12-11T09:57:30.999Z</time>
      </trkpt>
      <trkpt lat="47.55495" lon="6.67567">
        <ele>454</ele>
        <time>2016-12-11T09:57:32.999Z</time>
      </trkpt>
      <trkpt lat="47.55496" lon="6.67563">
        <ele>454</ele>
        <time>2016-12-11T09:57:33.999Z</time>
      </trkpt>
      <trkpt lat="47.55498" lon="6.67559">
        <ele>453</ele>
        <time>2016-12-11T09:57:34.999Z</time>
      </trkpt>
      <trkpt lat="47.555" lon="6.67557">
        <ele>453</ele>
        <time>2016-12-11T09:57:35.999Z</time>
      </trkpt>
      <trkpt lat="47.55502" lon="6.67555">
        <ele>458</ele>
        <time>2016-12-11T09:57:36.999Z</time>
      </trkpt>
      <trkpt lat="47.55503" lon="6.67552">
        <ele>458</ele>
        <time>2016-12-11T09:57:37.999Z</time>
      </trkpt>
      <trkpt lat="47.55505" lon="6.6755">
        <ele>458</ele>
        <time>2016-12-11T09:57:38.999Z</time>
      </trkpt>
      <trkpt lat="47.55509" lon="6.67546">
        <ele>458</ele>
        <time>2016-12-11T09:57:39.999Z</time>
      </trkpt>
      <trkpt lat="47.55511" lon="6.67545">
        <ele>458</ele>
        <time>2016-12-11T09:57:40.999Z</time>
      </trkpt>
      <trkpt lat="47.55513" lon="6.67543">
        <ele>458</ele>
        <time>2016-12-11T09:57:41.999Z</time>
      </trkpt>
      <trkpt lat="47.55516" lon="6.6754">
        <ele>458</ele>
        <time>2016-12-11T09:57:43.999Z</time>
      </trkpt>
      <trkpt lat="47.55518" lon="6.67539">
        <ele>458</ele>
        <time>2016-12-11T09:57:44.999Z</time>
      </trkpt>
      <trkpt lat="47.55521" lon="6.67536">
        <ele>458</ele>
        <time>2016-12-11T09:57:46.999Z</time>
      </trkpt>
      <trkpt lat="47.55522" lon="6.67534">
        <ele>458</ele>
        <time>2016-12-11T09:57:47.999Z</time>
      </trkpt>
      <trkpt lat="47.55525" lon="6.6753">
        <ele>458</ele>
        <time>2016-12-11T09:57:50.999Z</time>
      </trkpt>
      <trkpt lat="47.55525" lon="6.67527">
        <ele>458</ele>
        <time>2016-12-11T09:57:51.999Z</time>
      </trkpt>
      <trkpt lat="47.55527" lon="6.67524">
        <ele>458</ele>
        <time>2016-12-11T09:57:53.999Z</time>
      </trkpt>
      <trkpt lat="47.5553" lon="6.6752">
        <ele>458</ele>
        <time>2016-12-11T09:57:54.999Z</time>
      </trkpt>
      <trkpt lat="47.55531" lon="6.67517">
        <ele>458</ele>
        <time>2016-12-11T09:57:55.999Z</time>
      </trkpt>
      <trkpt lat="47.55533" lon="6.67514">
        <ele>459</ele>
        <time>2016-12-11T09:57:56.999Z</time>
      </trkpt>
      <trkpt lat="47.55535" lon="6.67509">
        <ele>459</ele>
        <time>2016-12-11T09:57:58.999Z</time>
      </trkpt>
      <trkpt lat="47.55536" lon="6.67508">
        <ele>459</ele>
        <time>2016-12-11T09:57:59.999Z</time>
      </trkpt>
      <trkpt lat="47.5554" lon="6.67503">
        <ele>459</ele>
        <time>2016-12-11T09:58:03.999Z</time>
      </trkpt>
      <trkpt lat="47.55541" lon="6.67502">
        <ele>459</ele>
        <time>2016-12-11T09:58:04.999Z</time>
      </trkpt>
      <trkpt lat="47.55542" lon="6.67497">
        <ele>462</ele>
        <time>2016-12-11T09:58:09.999Z</time>
      </trkpt>
      <trkpt lat="47.55543" lon="6.67495">
        <ele>462</ele>
        <time>2016-12-11T09:58:10.999Z</time>
      </trkpt>
      <trkpt lat="47.55543" lon="6.6749">
        <ele>462</ele>
        <time>2016-12-11T09:58:12.999Z</time>
      </trkpt>
      <trkpt lat="47.55543" lon="6.67486">
        <ele>462</ele>
        <time>2016-12-11T09:58:13.999Z</time>
      </trkpt>
      <trkpt lat="47.55544" lon="6.67482">
        <ele>462</ele>
        <time>2016-12-11T09:58:15.999Z</time>
      </trkpt>
      <trkpt lat="47.55544" lon="6.67479">
        <ele>462</ele>
        <time>2016-12-11T09:58:16.999Z</time>
      </trkpt>
      <trkpt lat="47.55545" lon="6.67473">
        <ele>462</ele>
        <time>2016-12-11T09:58:18.999Z</time>
      </trkpt>
      <trkpt lat="47.55544" lon="6.67469">
        <ele>463</ele>
        <time>2016-12-11T09:58:19.999Z</time>
      </trkpt>
      <trkpt lat="47.55546" lon="6.67464">
        <ele>463</ele>
        <time>2016-12-11T09:58:21.999Z</time>
      </trkpt>
      <trkpt lat="47.55546" lon="6.6746">
        <ele>463</ele>
        <time>2016-12-11T09:58:22.999Z</time>
      </trkpt>
      <trkpt lat="47.55546" lon="6.67455">
        <ele>463</ele>
        <time>2016-12-11T09:58:24.999Z</time>
      </trkpt>
      <trkpt lat="47.55547" lon="6.67452">
        <ele>463</ele>
        <time>2016-12-11T09:58:25.999Z</time>
      </trkpt>
      <trkpt lat="47.55548" lon="6.67446">
        <ele>464</ele>
        <time>2016-12-11T09:58:27.999Z</time>
      </trkpt>
      <trkpt lat="47.55548" lon="6.67444">
        <ele>464</ele>
        <time>2016-12-11T09:58:28.999Z</time>
      </trkpt>
      <trkpt lat="47.55549" lon="6.67439">
        <ele>464</ele>
        <time>2016-12-11T09:58:30.999Z</time>
      </trkpt>
      <trkpt lat="47.55549" lon="6.67437">
        <ele>464</ele>
        <time>2016-12-11T09:58:31.999Z</time>
      </trkpt>
      <trkpt lat="47.55551" lon="6.67432">
        <ele>465</ele>
        <time>2016-12-11T09:58:42.999Z</time>
      </trkpt>
      <trkpt lat="47.55551" lon="6.6743">
        <ele>465</ele>
        <time>2016-12-11T09:58:43.999Z</time>
      </trkpt>
      <trkpt lat="47.55552" lon="6.67435">
        <ele>465</ele>
        <time>2016-12-11T09:59:51.000Z</time>
      </trkpt>
      <trkpt lat="47.55554" lon="6.67436">
        <ele>465</ele>
        <time>2016-12-11T09:59:52.000Z</time>
      </trkpt>
      <trkpt lat="47.55558" lon="6.67438">
        <ele>465</ele>
        <time>2016-12-11T10:02:46.000Z</time>
      </trkpt>
      <trkpt lat="47.55559" lon="6.67438">
        <ele>465</ele>
        <time>2016-12-11T10:02:47.000Z</time>
      </trkpt>
      <trkpt lat="47.55562" lon="6.67438">
        <ele>465</ele>
        <time>2016-12-11T10:02:50.000Z</time>
      </trkpt>
      <trkpt lat="47.55564" lon="6.67438">
        <ele>466</ele>
        <time>2016-12-11T10:02:51.000Z</time>
      </trkpt>
      <trkpt lat="47.55566" lon="6.67437">
        <ele>466</ele>
        <time>2016-12-11T10:02:52.000Z</time>
      </trkpt>
      <trkpt lat="47.55568" lon="6.67435">
        <ele>466</ele>
        <time>2016-12-11T10:02:53.000Z</time>
      </trkpt>
      <trkpt lat="47.55569" lon="6.67433">
        <ele>467</ele>
        <time>2016-12-11T10:02:54.000Z</time>
      </trkpt>
      <trkpt lat="47.55571" lon="6.6743">
        <ele>467</ele>
        <time>2016-12-11T10:02:55.000Z</time>
      </trkpt>
      <trkpt lat="47.55572" lon="6.67427">
        <ele>468</ele>
        <time>2016-12-11T10:02:56.000Z</time>
      </trkpt>
      <trkpt lat="47.55573" lon="6.67423">
        <ele>468</ele>
        <time>2016-12-11T10:02:57.000Z</time>
      </trkpt>
      <trkpt lat="47.55575" lon="6.67417">
        <ele>469</ele>
        <time>2016-12-11T10:03:00.000Z</time>
      </trkpt>
      <trkpt lat="47.55575" lon="6.67416">
        <ele>471</ele>
        <time>2016-12-11T10:03:01.000Z</time>
      </trkpt>
      <trkpt lat="47.55577" lon="6.67412">
        <ele>471</ele>
        <time>2016-12-11T10:03:03.000Z</time>
      </trkpt>
      <trkpt lat="47.55578" lon="6.6741">
        <ele>471</ele>
        <time>2016-12-11T10:03:04.000Z</time>
      </trkpt>
      <trkpt lat="47.5558" lon="6.67407">
        <ele>471</ele>
        <time>2016-12-11T10:03:07.000Z</time>
      </trkpt>
      <trkpt lat="47.55581" lon="6.67405">
        <ele>471</ele>
        <time>2016-12-11T10:03:08.000Z</time>
      </trkpt>
      <trkpt lat="47.55583" lon="6.67401">
        <ele>472</ele>
        <time>2016-12-11T10:03:11.000Z</time>
      </trkpt>
      <trkpt lat="47.55585" lon="6.67398">
        <ele>472</ele>
        <time>2016-12-11T10:03:12.000Z</time>
      </trkpt>
      <trkpt lat="47.55586" lon="6.67396">
        <ele>472</ele>
        <time>2016-12-11T10:03:13.000Z</time>
      </trkpt>
      <trkpt lat="47.55589" lon="6.67393">
        <ele>472</ele>
        <time>2016-12-11T10:03:14.000Z</time>
      </trkpt>
      <trkpt lat="47.55591" lon="6.67389">
        <ele>472</ele>
        <time>2016-12-11T10:03:15.000Z</time>
      </trkpt>
      <trkpt lat="47.55592" lon="6.67386">
        <ele>472</ele>
        <time>2016-12-11T10:03:16.000Z</time>
      </trkpt>
      <trkpt lat="47.55594" lon="6.67381">
        <ele>472</ele>
        <time>2016-12-11T10:03:19.000Z</time>
      </trkpt>
      <trkpt lat="47.55595" lon="6.67378">
        <ele>472</ele>
        <time>2016-12-11T10:03:20.000Z</time>
      </trkpt>
      <trkpt lat="47.55596" lon="6.67373">
        <ele>472</ele>
        <time>2016-12-11T10:03:22.000Z</time>
      </trkpt>
      <trkpt lat="47.55598" lon="6.67372">
        <ele>472</ele>
        <time>2016-12-11T10:03:23.000Z</time>
      </trkpt>
      <trkpt lat="47.55599" lon="6.67368">
        <ele>473</ele>
        <time>2016-12-11T10:03:25.000Z</time>
      </trkpt>
      <trkpt lat="47.556" lon="6.67365">
        <ele>473</ele>
        <time>2016-12-11T10:03:26.000Z</time>
      </trkpt>
      <trkpt lat="47.55603" lon="6.6736">
        <ele>473</ele>
        <time>2016-12-11T10:03:28.000Z</time>
      </trkpt>
      <trkpt lat="47.55604" lon="6.67357">
        <ele>473</ele>
        <time>2016-12-11T10:03:29.000Z</time>
      </trkpt>
      <trkpt lat="47.55606" lon="6.67353">
        <ele>473</ele>
        <time>2016-12-11T10:03:31.000Z</time>
      </trkpt>
      <trkpt lat="47.55607" lon="6.67351">
        <ele>473</ele>
        <time>2016-12-11T10:03:32.000Z</time>
      </trkpt>
      <trkpt lat="47.55607" lon="6.67351">
        <ele>473</ele>
        <time>2016-12-11T10:03:33.000Z</time>
      </trkpt>
      <trkpt lat="47.55611" lon="6.67344">
        <ele>474</ele>
        <time>2016-12-11T10:03:34.000Z</time>
      </trkpt>
      <trkpt lat="47.55613" lon="6.67339">
        <ele>474</ele>
        <time>2016-12-11T10:03:36.000Z</time>
      </trkpt>
      <trkpt lat="47.55615" lon="6.67338">
        <ele>474</ele>
        <time>2016-12-11T10:03:37.000Z</time>
      </trkpt>
      <trkpt lat="47.55615" lon="6.67333">
        <ele>480</ele>
        <time>2016-12-11T10:03:39.000Z</time>
      </trkpt>
      <trkpt lat="47.55616" lon="6.6733">
        <ele>480</ele>
        <time>2016-12-11T10:03:40.000Z</time>
      </trkpt>
      <trkpt lat="47.55617" lon="6.67324">
        <ele>480</ele>
        <time>2016-12-11T10:03:45.000Z</time>
      </trkpt>
      <trkpt lat="47.55617" lon="6.67323">
        <ele>480</ele>
        <time>2016-12-11T10:03:46.000Z</time>
      </trkpt>
      <trkpt lat="47.5562" lon="6.67318">
        <ele>480</ele>
        <time>2016-12-11T10:03:50.000Z</time>
      </trkpt>
      <trkpt lat="47.55621" lon="6.67315">
        <ele>480</ele>
        <time>2016-12-11T10:03:51.000Z</time>
      </trkpt>
      <trkpt lat="47.55622" lon="6.6731">
        <ele>481</ele>
        <time>2016-12-11T10:03:54.000Z</time>
      </trkpt>
      <trkpt lat="47.55623" lon="6.67309">
        <ele>481</ele>
        <time>2016-12-11T10:03:55.000Z</time>
      </trkpt>
      <trkpt lat="47.55624" lon="6.67303">
        <ele>481</ele>
        <time>2016-12-11T10:03:59.000Z</time>
      </trkpt>
      <trkpt lat="47.55624" lon="6.67302">
        <ele>481</ele>
        <time>2016-12-11T10:04:00.000Z</time>
      </trkpt>
      <trkpt lat="47.55626" lon="6.67297">
        <ele>481</ele>
        <time>2016-12-11T10:04:04.000Z</time>
      </trkpt>
      <trkpt lat="47.55627" lon="6.67295">
        <ele>481</ele>
        <time>2016-12-11T10:04:05.000Z</time>
      </trkpt>
      <trkpt lat="47.55627" lon="6.6729">
        <ele>482</ele>
        <time>2016-12-11T10:04:10.000Z</time>
      </trkpt>
      <trkpt lat="47.55628" lon="6.67288">
        <ele>482</ele>
        <time>2016-12-11T10:04:11.000Z</time>
      </trkpt>
      <trkpt lat="47.55632" lon="6.67285">
        <ele>482</ele>
        <time>2016-12-11T10:04:17.000Z</time>
      </trkpt>
      <trkpt lat="47.55632" lon="6.67284">
        <ele>482</ele>
        <time>2016-12-11T10:04:18.000Z</time>
      </trkpt>
      <trkpt lat="47.55636" lon="6.67281">
        <ele>482</ele>
        <time>2016-12-11T10:04:21.000Z</time>
      </trkpt>
      <trkpt lat="47.55637" lon="6.67281">
        <ele>482</ele>
        <time>2016-12-11T10:04:22.000Z</time>
      </trkpt>
      <trkpt lat="47.55639" lon="6.67278">
        <ele>483</ele>
        <time>2016-12-11T10:04:24.000Z</time>
      </trkpt>
      <trkpt lat="47.5564" lon="6.67276">
        <ele>483</ele>
        <time>2016-12-11T10:04:25.000Z</time>
      </trkpt>
      <trkpt lat="47.55643" lon="6.67272">
        <ele>483</ele>
        <time>2016-12-11T10:04:27.000Z</time>
      </trkpt>
      <trkpt lat="47.55644" lon="6.67271">
        <ele>483</ele>
        <time>2016-12-11T10:04:28.000Z</time>
      </trkpt>
      <trkpt lat="47.55646" lon="6.67268">
        <ele>484</ele>
        <time>2016-12-11T10:04:29.000Z</time>
      </trkpt>
      <trkpt lat="47.55647" lon="6.67267">
        <ele>484</ele>
        <time>2016-12-11T10:04:30.000Z</time>
      </trkpt>
      <trkpt lat="47.55651" lon="6.67264">
        <ele>485</ele>
        <time>2016-12-11T10:04:33.000Z</time>
      </trkpt>
      <trkpt lat="47.55651" lon="6.67264">
        <ele>485</ele>
        <time>2016-12-11T10:04:34.000Z</time>
      </trkpt>
      <trkpt lat="47.55654" lon="6.67262">
        <ele>485</ele>
        <time>2016-12-11T10:04:36.000Z</time>
      </trkpt>
      <trkpt lat="47.55656" lon="6.67262">
        <ele>485</ele>
        <time>2016-12-11T10:04:37.000Z</time>
      </trkpt>
      <trkpt lat="47.5566" lon="6.6726">
        <ele>486</ele>
        <time>2016-12-11T10:04:40.000Z</time>
      </trkpt>
      <trkpt lat="47.55661" lon="6.67259">
        <ele>486</ele>
        <time>2016-12-11T10:04:41.000Z</time>
      </trkpt>
      <trkpt lat="47.55664" lon="6.67258">
        <ele>487</ele>
        <time>2016-12-11T10:04:45.000Z</time>
      </trkpt>
      <trkpt lat="47.55666" lon="6.67257">
        <ele>487</ele>
        <time>2016-12-11T10:04:46.000Z</time>
      </trkpt>
      <trkpt lat="47.5567" lon="6.67255">
        <ele>488</ele>
        <time>2016-12-11T10:04:48.000Z</time>
      </trkpt>
      <trkpt lat="47.55671" lon="6.67255">
        <ele>488</ele>
        <time>2016-12-11T10:04:49.000Z</time>
      </trkpt>
      <trkpt lat="47.55674" lon="6.67254">
        <ele>487</ele>
        <time>2016-12-11T10:04:52.000Z</time>
      </trkpt>
      <trkpt lat="47.55676" lon="6.67253">
        <ele>487</ele>
        <time>2016-12-11T10:04:53.000Z</time>
      </trkpt>
      <trkpt lat="47.55681" lon="6.67251">
        <ele>487</ele>
        <time>2016-12-11T10:04:58.000Z</time>
      </trkpt>
      <trkpt lat="47.55681" lon="6.67251">
        <ele>487</ele>
        <time>2016-12-11T10:04:59.000Z</time>
      </trkpt>
      <trkpt lat="47.55682" lon="6.6725">
        <ele>487</ele>
        <time>2016-12-11T10:05:01.000Z</time>
      </trkpt>
      <trkpt lat="47.55686" lon="6.67249">
        <ele>493</ele>
        <time>2016-12-11T10:05:02.000Z</time>
      </trkpt>
      <trkpt lat="47.55689" lon="6.67248">
        <ele>493</ele>
        <time>2016-12-11T10:05:03.000Z</time>
      </trkpt>
      <trkpt lat="47.5569" lon="6.67247">
        <ele>494</ele>
        <time>2016-12-11T10:05:04.000Z</time>
      </trkpt>
      <trkpt lat="47.55693" lon="6.67243">
        <ele>494</ele>
        <time>2016-12-11T10:05:07.000Z</time>
      </trkpt>
      <trkpt lat="47.55694" lon="6.67243">
        <ele>494</ele>
        <time>2016-12-11T10:05:08.000Z</time>
      </trkpt>
      <trkpt lat="47.55696" lon="6.67241">
        <ele>494</ele>
        <time>2016-12-11T10:05:10.000Z</time>
      </trkpt>
      <trkpt lat="47.55699" lon="6.67238">
        <ele>495</ele>
        <time>2016-12-11T10:05:11.000Z</time>
      </trkpt>
      <trkpt lat="47.55701" lon="6.67237">
        <ele>495</ele>
        <time>2016-12-11T10:05:12.000Z</time>
      </trkpt>
      <trkpt lat="47.55704" lon="6.67235">
        <ele>495</ele>
        <time>2016-12-11T10:05:13.000Z</time>
      </trkpt>
      <trkpt lat="47.55707" lon="6.67233">
        <ele>496</ele>
        <time>2016-12-11T10:05:17.000Z</time>
      </trkpt>
      <trkpt lat="47.55709" lon="6.67232">
        <ele>496</ele>
        <time>2016-12-11T10:05:18.000Z</time>
      </trkpt>
      <trkpt lat="47.55711" lon="6.67229">
        <ele>496</ele>
        <time>2016-12-11T10:05:21.000Z</time>
      </trkpt>
      <trkpt lat="47.55712" lon="6.67228">
        <ele>496</ele>
        <time>2016-12-11T10:05:22.000Z</time>
      </trkpt>
      <trkpt lat="47.55716" lon="6.67225">
        <ele>496</ele>
        <time>2016-12-11T10:05:27.000Z</time>
      </trkpt>
      <trkpt lat="47.55716" lon="6.67224">
        <ele>496</ele>
        <time>2016-12-11T10:05:28.000Z</time>
      </trkpt>
      <trkpt lat="47.55718" lon="6.67219">
        <ele>497</ele>
        <time>2016-12-11T10:05:31.000Z</time>
      </trkpt>
      <trkpt lat="47.55719" lon="6.67218">
        <ele>497</ele>
        <time>2016-12-11T10:05:32.000Z</time>
      </trkpt>
      <trkpt lat="47.55723" lon="6.67215">
        <ele>497</ele>
        <time>2016-12-11T10:05:37.000Z</time>
      </trkpt>
      <trkpt lat="47.55723" lon="6.67215">
        <ele>497</ele>
        <time>2016-12-11T10:05:38.000Z</time>
      </trkpt>
      <trkpt lat="47.55724" lon="6.67209">
        <ele>498</ele>
        <time>2016-12-11T10:05:55.000Z</time>
      </trkpt>
      <trkpt lat="47.55724" lon="6.67208">
        <ele>498</ele>
        <time>2016-12-11T10:05:56.000Z</time>
      </trkpt>
      <trkpt lat="47.55728" lon="6.67209">
        <ele>498</ele>
        <time>2016-12-11T10:06:01.000Z</time>
      </trkpt>
      <trkpt lat="47.55729" lon="6.67209">
        <ele>498</ele>
        <time>2016-12-11T10:06:02.000Z</time>
      </trkpt>
      <trkpt lat="47.55732" lon="6.67208">
        <ele>498</ele>
        <time>2016-12-11T10:06:05.000Z</time>
      </trkpt>
      <trkpt lat="47.55734" lon="6.67205">
        <ele>498</ele>
        <time>2016-12-11T10:06:06.000Z</time>
      </trkpt>
      <trkpt lat="47.55736" lon="6.672">
        <ele>499</ele>
        <time>2016-12-11T10:06:11.000Z</time>
      </trkpt>
      <trkpt lat="47.55736" lon="6.67198">
        <ele>499</ele>
        <time>2016-12-11T10:06:12.000Z</time>
      </trkpt>
      <trkpt lat="47.55734" lon="6.67192">
        <ele>500</ele>
        <time>2016-12-11T10:06:14.000Z</time>
      </trkpt>
      <trkpt lat="47.55733" lon="6.6719">
        <ele>500</ele>
        <time>2016-12-11T10:06:15.000Z</time>
      </trkpt>
      <trkpt lat="47.55734" lon="6.67192">
        <ele>500</ele>
        <time>2016-12-11T10:06:23.000Z</time>
      </trkpt>
      <trkpt lat="47.55735" lon="6.67197">
        <ele>499</ele>
        <time>2016-12-11T10:06:24.000Z</time>
      </trkpt>
      <trkpt lat="47.55736" lon="6.67201">
        <ele>499</ele>
        <time>2016-12-11T10:06:25.000Z</time>
      </trkpt>
      <trkpt lat="47.55736" lon="6.67205">
        <ele>498</ele>
        <time>2016-12-11T10:06:26.000Z</time>
      </trkpt>
      <trkpt lat="47.55735" lon="6.67211">
        <ele>498</ele>
        <time>2016-12-11T10:06:30.000Z</time>
      </trkpt>
      <trkpt lat="47.55734" lon="6.67211">
        <ele>498</ele>
        <time>2016-12-11T10:06:31.000Z</time>
      </trkpt>
      <trkpt lat="47.5573" lon="6.67211">
        <ele>498</ele>
        <time>2016-12-11T10:06:33.000Z</time>
      </trkpt>
      <trkpt lat="47.55729" lon="6.6721">
        <ele>498</ele>
        <time>2016-12-11T10:06:34.000Z</time>
      </trkpt>
      <trkpt lat="47.55728" lon="6.67216">
        <ele>497</ele>
        <time>2016-12-11T10:06:39.000Z</time>
      </trkpt>
      <trkpt lat="47.55727" lon="6.67218">
        <ele>497</ele>
        <time>2016-12-11T10:06:40.000Z</time>
      </trkpt>
      <trkpt lat="47.55726" lon="6.67224">
        <ele>497</ele>
        <time>2016-12-11T10:06:50.000Z</time>
      </trkpt>
      <trkpt lat="47.55726" lon="6.67225">
        <ele>497</ele>
        <time>2016-12-11T10:06:51.000Z</time>
      </trkpt>
      <trkpt lat="47.55729" lon="6.67222">
        <ele>497</ele>
        <time>2016-12-11T10:06:54.000Z</time>
      </trkpt>
      <trkpt lat="47.55731" lon="6.67219">
        <ele>497</ele>
        <time>2016-12-11T10:06:55.000Z</time>
      </trkpt>
      <trkpt lat="47.5573" lon="6.67213">
        <ele>498</ele>
        <time>2016-12-11T10:06:58.000Z</time>
      </trkpt>
      <trkpt lat="47.55729" lon="6.67212">
        <ele>498</ele>
        <time>2016-12-11T10:06:59.000Z</time>
      </trkpt>
      <trkpt lat="47.55731" lon="6.67207">
        <ele>498</ele>
        <time>2016-12-11T10:07:04.000Z</time>
      </trkpt>
      <trkpt lat="47.55732" lon="6.67206">
        <ele>498</ele>
        <time>2016-12-11T10:07:05.000Z</time>
      </trkpt>
      <trkpt lat="47.55734" lon="6.67203">
        <ele>498</ele>
        <time>2016-12-11T10:07:07.000Z</time>
      </trkpt>
      <trkpt lat="47.55734" lon="6.67199">
        <ele>499</ele>
        <time>2016-12-11T10:07:08.000Z</time>
      </trkpt>
      <trkpt lat="47.55733" lon="6.67194">
        <ele>499</ele>
        <time>2016-12-11T10:07:10.000Z</time>
      </trkpt>
      <trkpt lat="47.55733" lon="6.67192">
        <ele>499</ele>
        <time>2016-12-11T10:07:11.000Z</time>
      </trkpt>
      <trkpt lat="47.55733" lon="6.67185">
        <ele>500</ele>
        <time>2016-12-11T10:07:17.000Z</time>
      </trkpt>
      <trkpt lat="47.55733" lon="6.67184">
        <ele>500</ele>
        <time>2016-12-11T10:07:18.000Z</time>
      </trkpt>
      <trkpt lat="47.55733" lon="6.67179">
        <ele>501</ele>
        <time>2016-12-11T10:07:22.000Z</time>
      </trkpt>
      <trkpt lat="47.55733" lon="6.67177">
        <ele>501</ele>
        <time>2016-12-11T10:07:23.000Z</time>
      </trkpt>
      <trkpt lat="47.55733" lon="6.67172">
        <ele>501</ele>
        <time>2016-12-11T10:07:26.000Z</time>
      </trkpt>
      <trkpt lat="47.55734" lon="6.67166">
        <ele>506</ele>
        <time>2016-12-11T10:07:27.000Z</time>
      </trkpt>
      <trkpt lat="47.55735" lon="6.6716">
        <ele>506</ele>
        <time>2016-12-11T10:07:29.000Z</time>
      </trkpt>
      <trkpt lat="47.55735" lon="6.67159">
        <ele>506</ele>
        <time>2016-12-11T10:07:30.000Z</time>
      </trkpt>
      <trkpt lat="47.55736" lon="6.67154">
        <ele>506</ele>
        <time>2016-12-11T10:07:33.000Z</time>
      </trkpt>
      <trkpt lat="47.55738" lon="6.67149">
        <ele>506</ele>
        <time>2016-12-11T10:07:34.000Z</time>
      </trkpt>
      <trkpt lat="47.5574" lon="6.67146">
        <ele>506</ele>
        <time>2016-12-11T10:07:36.000Z</time>
      </trkpt>
      <trkpt lat="47.55743" lon="6.67143">
        <ele>506</ele>
        <time>2016-12-11T10:07:37.000Z</time>
      </trkpt>
      <trkpt lat="47.55747" lon="6.6714">
        <ele>506</ele>
        <time>2016-12-11T10:07:40.000Z</time>
      </trkpt>
      <trkpt lat="47.55748" lon="6.67137">
        <ele>506</ele>
        <time>2016-12-11T10:07:41.000Z</time>
      </trkpt>
      <trkpt lat="47.5575" lon="6.67132">
        <ele>506</ele>
        <time>2016-12-11T10:07:44.000Z</time>
      </trkpt>
      <trkpt lat="47.55751" lon="6.67131">
        <ele>506</ele>
        <time>2016-12-11T10:07:45.000Z</time>
      </trkpt>
      <trkpt lat="47.55754" lon="6.67129">
        <ele>506</ele>
        <time>2016-12-11T10:07:47.000Z</time>
      </trkpt>
      <trkpt lat="47.55755" lon="6.67127">
        <ele>506</ele>
        <time>2016-12-11T10:07:48.000Z</time>
      </trkpt>
      <trkpt lat="47.55757" lon="6.67124">
        <ele>507</ele>
        <time>2016-12-11T10:07:49.000Z</time>
      </trkpt>
      <trkpt lat="47.55759" lon="6.67122">
        <ele>507</ele>
        <time>2016-12-11T10:07:50.000Z</time>
      </trkpt>
      <trkpt lat="47.55762" lon="6.67118">
        <ele>507</ele>
        <time>2016-12-11T10:07:52.000Z</time>
      </trkpt>
      <trkpt lat="47.55763" lon="6.67115">
        <ele>507</ele>
        <time>2016-12-11T10:07:53.000Z</time>
      </trkpt>
      <trkpt lat="47.55764" lon="6.67112">
        <ele>507</ele>
        <time>2016-12-11T10:07:54.000Z</time>
      </trkpt>
      <trkpt lat="47.55766" lon="6.67109">
        <ele>507</ele>
        <time>2016-12-11T10:07:55.000Z</time>
      </trkpt>
      <trkpt lat="47.55768" lon="6.67105">
        <ele>507</ele>
        <time>2016-12-11T10:07:56.000Z</time>
      </trkpt>
      <trkpt lat="47.5577" lon="6.67102">
        <ele>507</ele>
        <time>2016-12-11T10:07:57.000Z</time>
      </trkpt>
      <trkpt lat="47.55773" lon="6.67096">
        <ele>507</ele>
        <time>2016-12-11T10:07:59.000Z</time>
      </trkpt>
      <trkpt lat="47.55774" lon="6.67094">
        <ele>507</ele>
        <time>2016-12-11T10:08:00.000Z</time>
      </trkpt>
      <trkpt lat="47.55776" lon="6.6709">
        <ele>507</ele>
        <time>2016-12-11T10:08:03.000Z</time>
      </trkpt>
      <trkpt lat="47.55777" lon="6.67088">
        <ele>507</ele>
        <time>2016-12-11T10:08:04.000Z</time>
      </trkpt>
      <trkpt lat="47.55779" lon="6.67085">
        <ele>507</ele>
        <time>2016-12-11T10:08:06.000Z</time>
      </trkpt>
      <trkpt lat="47.5578" lon="6.67083">
        <ele>505</ele>
        <time>2016-12-11T10:08:07.000Z</time>
      </trkpt>
      <trkpt lat="47.55783" lon="6.67078">
        <ele>504</ele>
        <time>2016-12-11T10:08:18.000Z</time>
      </trkpt>
      <trkpt lat="47.55784" lon="6.67078">
        <ele>504</ele>
        <time>2016-12-11T10:08:19.000Z</time>
      </trkpt>
      <trkpt lat="47.55786" lon="6.67075">
        <ele>504</ele>
        <time>2016-12-11T10:08:21.000Z</time>
      </trkpt>
      <trkpt lat="47.55788" lon="6.67073">
        <ele>503</ele>
        <time>2016-12-11T10:08:22.000Z</time>
      </trkpt>
      <trkpt lat="47.55789" lon="6.67069">
        <ele>503</ele>
        <time>2016-12-11T10:08:24.000Z</time>
      </trkpt>
      <trkpt lat="47.55791" lon="6.67067">
        <ele>503</ele>
        <time>2016-12-11T10:08:25.000Z</time>
      </trkpt>
      <trkpt lat="47.55793" lon="6.67064">
        <ele>503</ele>
        <time>2016-12-11T10:08:26.000Z</time>
      </trkpt>
      <trkpt lat="47.55794" lon="6.67062">
        <ele>502</ele>
        <time>2016-12-11T10:08:27.000Z</time>
      </trkpt>
      <trkpt lat="47.55796" lon="6.67057">
        <ele>502</ele>
        <time>2016-12-11T10:08:32.000Z</time>
      </trkpt>
      <trkpt lat="47.55795" lon="6.67055">
        <ele>502</ele>
        <time>2016-12-11T10:08:33.000Z</time>
      </trkpt>
      <trkpt lat="47.55791" lon="6.67052">
        <ele>502</ele>
        <time>2016-12-11T10:08:35.000Z</time>
      </trkpt>
      <trkpt lat="47.55789" lon="6.6705">
        <ele>502</ele>
        <time>2016-12-11T10:08:36.000Z</time>
      </trkpt>
      <trkpt lat="47.55787" lon="6.6705">
        <ele>502</ele>
        <time>2016-12-11T10:08:37.000Z</time>
      </trkpt>
      <trkpt lat="47.55784" lon="6.6705">
        <ele>503</ele>
        <time>2016-12-11T10:08:38.000Z</time>
      </trkpt>
      <trkpt lat="47.55781" lon="6.67047">
        <ele>503</ele>
        <time>2016-12-11T10:08:40.000Z</time>
      </trkpt>
      <trkpt lat="47.55779" lon="6.67046">
        <ele>503</ele>
        <time>2016-12-11T10:08:41.000Z</time>
      </trkpt>
      <trkpt lat="47.55776" lon="6.67043">
        <ele>503</ele>
        <time>2016-12-11T10:08:45.000Z</time>
      </trkpt>
      <trkpt lat="47.55775" lon="6.67042">
        <ele>503</ele>
        <time>2016-12-11T10:08:46.000Z</time>
      </trkpt>
      <trkpt lat="47.55771" lon="6.67041">
        <ele>503</ele>
        <time>2016-12-11T10:08:49.000Z</time>
      </trkpt>
      <trkpt lat="47.55769" lon="6.67039">
        <ele>503</ele>
        <time>2016-12-11T10:08:50.000Z</time>
      </trkpt>
      <trkpt lat="47.55765" lon="6.67038">
        <ele>503</ele>
        <time>2016-12-11T10:08:52.000Z</time>
      </trkpt>
      <trkpt lat="47.55762" lon="6.67038">
        <ele>503</ele>
        <time>2016-12-11T10:08:53.000Z</time>
      </trkpt>
      <trkpt lat="47.55758" lon="6.67038">
        <ele>503</ele>
        <time>2016-12-11T10:08:55.000Z</time>
      </trkpt>
      <trkpt lat="47.55757" lon="6.67038">
        <ele>504</ele>
        <time>2016-12-11T10:08:56.000Z</time>
      </trkpt>
      <trkpt lat="47.55753" lon="6.67038">
        <ele>504</ele>
        <time>2016-12-11T10:08:58.000Z</time>
      </trkpt>
      <trkpt lat="47.55751" lon="6.67037">
        <ele>504</ele>
        <time>2016-12-11T10:08:59.000Z</time>
      </trkpt>
      <trkpt lat="47.55749" lon="6.67035">
        <ele>508</ele>
        <time>2016-12-11T10:09:00.000Z</time>
      </trkpt>
      <trkpt lat="47.55747" lon="6.67032">
        <ele>508</ele>
        <time>2016-12-11T10:09:01.000Z</time>
      </trkpt>
      <trkpt lat="47.55745" lon="6.6703">
        <ele>508</ele>
        <time>2016-12-11T10:09:02.000Z</time>
      </trkpt>
      <trkpt lat="47.55743" lon="6.67027">
        <ele>507</ele>
        <time>2016-12-11T10:09:03.000Z</time>
      </trkpt>
      <trkpt lat="47.55741" lon="6.67025">
        <ele>507</ele>
        <time>2016-12-11T10:09:04.000Z</time>
      </trkpt>
      <trkpt lat="47.55739" lon="6.67023">
        <ele>507</ele>
        <time>2016-12-11T10:09:05.000Z</time>
      </trkpt>
      <trkpt lat="47.55736" lon="6.6702">
        <ele>507</ele>
        <time>2016-12-11T10:09:06.000Z</time>
      </trkpt>
      <trkpt lat="47.55734" lon="6.67018">
        <ele>507</ele>
        <time>2016-12-11T10:09:07.000Z</time>
      </trkpt>
      <trkpt lat="47.55731" lon="6.67016">
        <ele>507</ele>
        <time>2016-12-11T10:09:08.000Z</time>
      </trkpt>
      <trkpt lat="47.55728" lon="6.67014">
        <ele>507</ele>
        <time>2016-12-11T10:09:09.000Z</time>
      </trkpt>
      <trkpt lat="47.55725" lon="6.6701">
        <ele>507</ele>
        <time>2016-12-11T10:09:11.000Z</time>
      </trkpt>
      <trkpt lat="47.55724" lon="6.67007">
        <ele>507</ele>
        <time>2016-12-11T10:09:12.000Z</time>
      </trkpt>
      <trkpt lat="47.55723" lon="6.67002">
        <ele>507</ele>
        <time>2016-12-11T10:09:14.000Z</time>
      </trkpt>
      <trkpt lat="47.55725" lon="6.67">
        <ele>503</ele>
        <time>2016-12-11T10:09:15.000Z</time>
      </trkpt>
      <trkpt lat="47.55725" lon="6.66995">
        <ele>503</ele>
        <time>2016-12-11T10:09:18.000Z</time>
      </trkpt>
      <trkpt lat="47.55726" lon="6.66991">
        <ele>503</ele>
        <time>2016-12-11T10:09:19.000Z</time>
      </trkpt>
      <trkpt lat="47.55724" lon="6.66985">
        <ele>502</ele>
        <time>2016-12-11T10:09:26.000Z</time>
      </trkpt>
      <trkpt lat="47.55724" lon="6.66984">
        <ele>502</ele>
        <time>2016-12-11T10:09:27.000Z</time>
      </trkpt>
      <trkpt lat="47.55719" lon="6.66984">
        <ele>502</ele>
        <time>2016-12-11T10:09:35.000Z</time>
      </trkpt>
      <trkpt lat="47.55719" lon="6.66984">
        <ele>502</ele>
        <time>2016-12-11T10:09:36.000Z</time>
      </trkpt>
      <trkpt lat="47.55719" lon="6.66978">
        <ele>502</ele>
        <time>2016-12-11T10:09:51.000Z</time>
      </trkpt>
      <trkpt lat="47.55719" lon="6.66977">
        <ele>502</ele>
        <time>2016-12-11T10:09:52.000Z</time>
      </trkpt>
      <trkpt lat="47.55718" lon="6.66971">
        <ele>501</ele>
        <time>2016-12-11T10:10:00.000Z</time>
      </trkpt>
      <trkpt lat="47.55718" lon="6.66969">
        <ele>501</ele>
        <time>2016-12-11T10:10:01.000Z</time>
      </trkpt>
      <trkpt lat="47.55714" lon="6.6697">
        <ele>502</ele>
        <time>2016-12-11T10:10:07.000Z</time>
      </trkpt>
      <trkpt lat="47.5571" lon="6.66969">
        <ele>502</ele>
        <time>2016-12-11T10:10:08.000Z</time>
      </trkpt>
      <trkpt lat="47.55707" lon="6.6697">
        <ele>502</ele>
        <time>2016-12-11T10:10:09.000Z</time>
      </trkpt>
      <trkpt lat="47.55706" lon="6.66972">
        <ele>502</ele>
        <time>2016-12-11T10:10:10.000Z</time>
      </trkpt>
      <trkpt lat="47.55703" lon="6.6697">
        <ele>502</ele>
        <time>2016-12-11T10:10:12.000Z</time>
      </trkpt>
      <trkpt lat="47.55701" lon="6.66969">
        <ele>502</ele>
        <time>2016-12-11T10:10:13.000Z</time>
      </trkpt>
      <trkpt lat="47.55697" lon="6.66968">
        <ele>502</ele>
        <time>2016-12-11T10:10:15.000Z</time>
      </trkpt>
      <trkpt lat="47.55695" lon="6.66966">
        <ele>502</ele>
        <time>2016-12-11T10:10:16.000Z</time>
      </trkpt>
      <trkpt lat="47.55692" lon="6.66965">
        <ele>502</ele>
        <time>2016-12-11T10:10:17.000Z</time>
      </trkpt>
      <trkpt lat="47.55689" lon="6.66963">
        <ele>503</ele>
        <time>2016-12-11T10:10:18.000Z</time>
      </trkpt>
      <trkpt lat="47.55685" lon="6.66963">
        <ele>503</ele>
        <time>2016-12-11T10:10:19.000Z</time>
      </trkpt>
      <trkpt lat="47.55683" lon="6.66962">
        <ele>503</ele>
        <time>2016-12-11T10:10:20.000Z</time>
      </trkpt>
      <trkpt lat="47.55682" lon="6.66962">
        <ele>503</ele>
        <time>2016-12-11T10:10:21.000Z</time>
      </trkpt>
      <trkpt lat="47.55679" lon="6.66961">
        <ele>503</ele>
        <time>2016-12-11T10:10:22.000Z</time>
      </trkpt>
      <trkpt lat="47.55675" lon="6.66959">
        <ele>503</ele>
        <time>2016-12-11T10:10:23.000Z</time>
      </trkpt>
      <trkpt lat="47.55672" lon="6.66957">
        <ele>503</ele>
        <time>2016-12-11T10:10:24.000Z</time>
      </trkpt>
      <trkpt lat="47.55668" lon="6.66955">
        <ele>503</ele>
        <time>2016-12-11T10:10:25.000Z</time>
      </trkpt>
      <trkpt lat="47.55663" lon="6.66952">
        <ele>504</ele>
        <time>2016-12-11T10:10:26.000Z</time>
      </trkpt>
      <trkpt lat="47.55658" lon="6.6695">
        <ele>504</ele>
        <time>2016-12-11T10:10:27.000Z</time>
      </trkpt>
      <trkpt lat="47.55654" lon="6.66947">
        <ele>504</ele>
        <time>2016-12-11T10:10:28.000Z</time>
      </trkpt>
      <trkpt lat="47.55649" lon="6.66943">
        <ele>504</ele>
        <time>2016-12-11T10:10:29.000Z</time>
      </trkpt>
      <trkpt lat="47.55643" lon="6.6694">
        <ele>503</ele>
        <time>2016-12-11T10:10:30.000Z</time>
      </trkpt>
      <trkpt lat="47.55637" lon="6.66938">
        <ele>503</ele>
        <time>2016-12-11T10:10:31.000Z</time>
      </trkpt>
      <trkpt lat="47.55631" lon="6.66933">
        <ele>503</ele>
        <time>2016-12-11T10:10:32.000Z</time>
      </trkpt>
      <trkpt lat="47.55626" lon="6.66931">
        <ele>503</ele>
        <time>2016-12-11T10:10:33.000Z</time>
      </trkpt>
      <trkpt lat="47.55619" lon="6.66927">
        <ele>503</ele>
        <time>2016-12-11T10:10:34.000Z</time>
      </trkpt>
      <trkpt lat="47.55613" lon="6.66924">
        <ele>503</ele>
        <time>2016-12-11T10:10:35.000Z</time>
      </trkpt>
      <trkpt lat="47.55607" lon="6.6692">
        <ele>503</ele>
        <time>2016-12-11T10:10:36.000Z</time>
      </trkpt>
      <trkpt lat="47.556" lon="6.66915">
        <ele>502</ele>
        <time>2016-12-11T10:10:37.000Z</time>
      </trkpt>
      <trkpt lat="47.55594" lon="6.6691">
        <ele>502</ele>
        <time>2016-12-11T10:10:38.000Z</time>
      </trkpt>
      <trkpt lat="47.55587" lon="6.66904">
        <ele>502</ele>
        <time>2016-12-11T10:10:39.000Z</time>
      </trkpt>
      <trkpt lat="47.55582" lon="6.66899">
        <ele>501</ele>
        <time>2016-12-11T10:10:40.000Z</time>
      </trkpt>
      <trkpt lat="47.55577" lon="6.66894">
        <ele>500</ele>
        <time>2016-12-11T10:10:41.000Z</time>
      </trkpt>
      <trkpt lat="47.55572" lon="6.66889">
        <ele>500</ele>
        <time>2016-12-11T10:10:42.000Z</time>
      </trkpt>
      <trkpt lat="47.55568" lon="6.66884">
        <ele>499</ele>
        <time>2016-12-11T10:10:43.000Z</time>
      </trkpt>
      <trkpt lat="47.55563" lon="6.66879">
        <ele>499</ele>
        <time>2016-12-11T10:10:44.000Z</time>
      </trkpt>
      <trkpt lat="47.55558" lon="6.66874">
        <ele>499</ele>
        <time>2016-12-11T10:10:45.000Z</time>
      </trkpt>
      <trkpt lat="47.55552" lon="6.66868">
        <ele>499</ele>
        <time>2016-12-11T10:10:46.000Z</time>
      </trkpt>
      <trkpt lat="47.55546" lon="6.66862">
        <ele>498</ele>
        <time>2016-12-11T10:10:47.000Z</time>
      </trkpt>
      <trkpt lat="47.55541" lon="6.66857">
        <ele>498</ele>
        <time>2016-12-11T10:10:48.000Z</time>
      </trkpt>
      <trkpt lat="47.55536" lon="6.66851">
        <ele>498</ele>
        <time>2016-12-11T10:10:49.000Z</time>
      </trkpt>
      <trkpt lat="47.55532" lon="6.66844">
        <ele>498</ele>
        <time>2016-12-11T10:10:50.000Z</time>
      </trkpt>
      <trkpt lat="47.55528" lon="6.66838">
        <ele>498</ele>
        <time>2016-12-11T10:10:51.000Z</time>
      </trkpt>
      <trkpt lat="47.55524" lon="6.6683">
        <ele>498</ele>
        <time>2016-12-11T10:10:52.000Z</time>
      </trkpt>
      <trkpt lat="47.5552" lon="6.66823">
        <ele>498</ele>
        <time>2016-12-11T10:10:53.000Z</time>
      </trkpt>
      <trkpt lat="47.55517" lon="6.66818">
        <ele>498</ele>
        <time>2016-12-11T10:10:54.000Z</time>
      </trkpt>
      <trkpt lat="47.55513" lon="6.66813">
        <ele>499</ele>
        <time>2016-12-11T10:10:55.000Z</time>
      </trkpt>
      <trkpt lat="47.55509" lon="6.66805">
        <ele>499</ele>
        <time>2016-12-11T10:10:56.000Z</time>
      </trkpt>
      <trkpt lat="47.55505" lon="6.66799">
        <ele>499</ele>
        <time>2016-12-11T10:10:57.000Z</time>
      </trkpt>
      <trkpt lat="47.55502" lon="6.66794">
        <ele>499</ele>
        <time>2016-12-11T10:10:58.000Z</time>
      </trkpt>
      <trkpt lat="47.55499" lon="6.66789">
        <ele>499</ele>
        <time>2016-12-11T10:10:59.000Z</time>
      </trkpt>
      <trkpt lat="47.55496" lon="6.66785">
        <ele>499</ele>
        <time>2016-12-11T10:11:00.000Z</time>
      </trkpt>
      <trkpt lat="47.55493" lon="6.66781">
        <ele>499</ele>
        <time>2016-12-11T10:11:01.000Z</time>
      </trkpt>
      <trkpt lat="47.55492" lon="6.66776">
        <ele>500</ele>
        <time>2016-12-11T10:11:02.000Z</time>
      </trkpt>
      <trkpt lat="47.55489" lon="6.6677">
        <ele>500</ele>
        <time>2016-12-11T10:11:03.000Z</time>
      </trkpt>
      <trkpt lat="47.55485" lon="6.66766">
        <ele>500</ele>
        <time>2016-12-11T10:11:04.000Z</time>
      </trkpt>
      <trkpt lat="47.55482" lon="6.66761">
        <ele>500</ele>
        <time>2016-12-11T10:11:05.000Z</time>
      </trkpt>
      <trkpt lat="47.5548" lon="6.66757">
        <ele>500</ele>
        <time>2016-12-11T10:11:06.000Z</time>
      </trkpt>
      <trkpt lat="47.55477" lon="6.66753">
        <ele>500</ele>
        <time>2016-12-11T10:11:07.000Z</time>
      </trkpt>
      <trkpt lat="47.55474" lon="6.6675">
        <ele>501</ele>
        <time>2016-12-11T10:11:08.000Z</time>
      </trkpt>
      <trkpt lat="47.55472" lon="6.66746">
        <ele>501</ele>
        <time>2016-12-11T10:11:09.000Z</time>
      </trkpt>
      <trkpt lat="47.55468" lon="6.66742">
        <ele>501</ele>
        <time>2016-12-11T10:11:10.000Z</time>
      </trkpt>
      <trkpt lat="47.55465" lon="6.66736">
        <ele>501</ele>
        <time>2016-12-11T10:11:11.000Z</time>
      </trkpt>
      <trkpt lat="47.55463" lon="6.66731">
        <ele>501</ele>
        <time>2016-12-11T10:11:12.000Z</time>
      </trkpt>
      <trkpt lat="47.55459" lon="6.66724">
        <ele>500</ele>
        <time>2016-12-11T10:11:13.000Z</time>
      </trkpt>
      <trkpt lat="47.55456" lon="6.66717">
        <ele>500</ele>
        <time>2016-12-11T10:11:14.000Z</time>
      </trkpt>
      <trkpt lat="47.55452" lon="6.66712">
        <ele>500</ele>
        <time>2016-12-11T10:11:15.000Z</time>
      </trkpt>
      <trkpt lat="47.55449" lon="6.66707">
        <ele>500</ele>
        <time>2016-12-11T10:11:16.000Z</time>
      </trkpt>
      <trkpt lat="47.55446" lon="6.66702">
        <ele>500</ele>
        <time>2016-12-11T10:11:17.000Z</time>
      </trkpt>
      <trkpt lat="47.55443" lon="6.66696">
        <ele>500</ele>
        <time>2016-12-11T10:11:18.000Z</time>
      </trkpt>
      <trkpt lat="47.55441" lon="6.66691">
        <ele>500</ele>
        <time>2016-12-11T10:11:19.000Z</time>
      </trkpt>
      <trkpt lat="47.55438" lon="6.66686">
        <ele>501</ele>
        <time>2016-12-11T10:11:20.000Z</time>
      </trkpt>
      <trkpt lat="47.55435" lon="6.66682">
        <ele>501</ele>
        <time>2016-12-11T10:11:21.000Z</time>
      </trkpt>
      <trkpt lat="47.55432" lon="6.66677">
        <ele>501</ele>
        <time>2016-12-11T10:11:22.000Z</time>
      </trkpt>
      <trkpt lat="47.55428" lon="6.66673">
        <ele>501</ele>
        <time>2016-12-11T10:11:23.000Z</time>
      </trkpt>
      <trkpt lat="47.55424" lon="6.66668">
        <ele>501</ele>
        <time>2016-12-11T10:11:24.000Z</time>
      </trkpt>
      <trkpt lat="47.55422" lon="6.66663">
        <ele>501</ele>
        <time>2016-12-11T10:11:25.000Z</time>
      </trkpt>
      <trkpt lat="47.55419" lon="6.66659">
        <ele>501</ele>
        <time>2016-12-11T10:11:26.000Z</time>
      </trkpt>
      <trkpt lat="47.55415" lon="6.66656">
        <ele>501</ele>
        <time>2016-12-11T10:11:27.000Z</time>
      </trkpt>
      <trkpt lat="47.55411" lon="6.66652">
        <ele>501</ele>
        <time>2016-12-11T10:11:28.000Z</time>
      </trkpt>
      <trkpt lat="47.55407" lon="6.66647">
        <ele>501</ele>
        <time>2016-12-11T10:11:29.000Z</time>
      </trkpt>
      <trkpt lat="47.55405" lon="6.66643">
        <ele>501</ele>
        <time>2016-12-11T10:11:30.000Z</time>
      </trkpt>
      <trkpt lat="47.55404" lon="6.66639">
        <ele>501</ele>
        <time>2016-12-11T10:11:31.000Z</time>
      </trkpt>
      <trkpt lat="47.55401" lon="6.66634">
        <ele>501</ele>
        <time>2016-12-11T10:11:32.000Z</time>
      </trkpt>
      <trkpt lat="47.55399" lon="6.66629">
        <ele>501</ele>
        <time>2016-12-11T10:11:34.000Z</time>
      </trkpt>
      <trkpt lat="47.55397" lon="6.66623">
        <ele>501</ele>
        <time>2016-12-11T10:11:35.000Z</time>
      </trkpt>
      <trkpt lat="47.55396" lon="6.66619">
        <ele>501</ele>
        <time>2016-12-11T10:11:36.000Z</time>
      </trkpt>
      <trkpt lat="47.55394" lon="6.66615">
        <ele>501</ele>
        <time>2016-12-11T10:11:37.000Z</time>
      </trkpt>
      <trkpt lat="47.55392" lon="6.66608">
        <ele>501</ele>
        <time>2016-12-11T10:11:38.000Z</time>
      </trkpt>
      <trkpt lat="47.55391" lon="6.66603">
        <ele>501</ele>
        <time>2016-12-11T10:11:39.000Z</time>
      </trkpt>
      <trkpt lat="47.55389" lon="6.66598">
        <ele>501</ele>
        <time>2016-12-11T10:11:40.000Z</time>
      </trkpt>
      <trkpt lat="47.55388" lon="6.66593">
        <ele>501</ele>
        <time>2016-12-11T10:11:41.000Z</time>
      </trkpt>
      <trkpt lat="47.55387" lon="6.66588">
        <ele>501</ele>
        <time>2016-12-11T10:11:42.000Z</time>
      </trkpt>
      <trkpt lat="47.55385" lon="6.66584">
        <ele>501</ele>
        <time>2016-12-11T10:11:43.000Z</time>
      </trkpt>
      <trkpt lat="47.55383" lon="6.6658">
        <ele>501</ele>
        <time>2016-12-11T10:11:44.000Z</time>
      </trkpt>
      <trkpt lat="47.55381" lon="6.66574">
        <ele>501</ele>
        <time>2016-12-11T10:11:45.000Z</time>
      </trkpt>
      <trkpt lat="47.55379" lon="6.6657">
        <ele>501</ele>
        <time>2016-12-11T10:11:46.000Z</time>
      </trkpt>
      <trkpt lat="47.55375" lon="6.66566">
        <ele>501</ele>
        <time>2016-12-11T10:11:47.000Z</time>
      </trkpt>
      <trkpt lat="47.55372" lon="6.66563">
        <ele>501</ele>
        <time>2016-12-11T10:11:48.000Z</time>
      </trkpt>
      <trkpt lat="47.55369" lon="6.6656">
        <ele>501</ele>
        <time>2016-12-11T10:11:49.000Z</time>
      </trkpt>
      <trkpt lat="47.55367" lon="6.66558">
        <ele>501</ele>
        <time>2016-12-11T10:11:50.000Z</time>
      </trkpt>
      <trkpt lat="47.55363" lon="6.66554">
        <ele>501</ele>
        <time>2016-12-11T10:11:51.000Z</time>
      </trkpt>
      <trkpt lat="47.5536" lon="6.6655">
        <ele>501</ele>
        <time>2016-12-11T10:11:52.000Z</time>
      </trkpt>
      <trkpt lat="47.55358" lon="6.66547">
        <ele>501</ele>
        <time>2016-12-11T10:11:53.000Z</time>
      </trkpt>
      <trkpt lat="47.55355" lon="6.66543">
        <ele>502</ele>
        <time>2016-12-11T10:11:54.000Z</time>
      </trkpt>
      <trkpt lat="47.55353" lon="6.66539">
        <ele>502</ele>
        <time>2016-12-11T10:11:55.000Z</time>
      </trkpt>
      <trkpt lat="47.55351" lon="6.66534">
        <ele>502</ele>
        <time>2016-12-11T10:11:56.000Z</time>
      </trkpt>
      <trkpt lat="47.55349" lon="6.6653">
        <ele>502</ele>
        <time>2016-12-11T10:11:57.000Z</time>
      </trkpt>
      <trkpt lat="47.55347" lon="6.66525">
        <ele>503</ele>
        <time>2016-12-11T10:11:58.000Z</time>
      </trkpt>
      <trkpt lat="47.55345" lon="6.6652">
        <ele>503</ele>
        <time>2016-12-11T10:11:59.000Z</time>
      </trkpt>
      <trkpt lat="47.55343" lon="6.66516">
        <ele>504</ele>
        <time>2016-12-11T10:12:00.000Z</time>
      </trkpt>
      <trkpt lat="47.55341" lon="6.66512">
        <ele>504</ele>
        <time>2016-12-11T10:12:01.000Z</time>
      </trkpt>
      <trkpt lat="47.55339" lon="6.66508">
        <ele>505</ele>
        <time>2016-12-11T10:12:02.000Z</time>
      </trkpt>
      <trkpt lat="47.55337" lon="6.66504">
        <ele>506</ele>
        <time>2016-12-11T10:12:03.000Z</time>
      </trkpt>
      <trkpt lat="47.55335" lon="6.66499">
        <ele>506</ele>
        <time>2016-12-11T10:12:05.000Z</time>
      </trkpt>
      <trkpt lat="47.55333" lon="6.66495">
        <ele>507</ele>
        <time>2016-12-11T10:12:06.000Z</time>
      </trkpt>
      <trkpt lat="47.55331" lon="6.66492">
        <ele>507</ele>
        <time>2016-12-11T10:12:07.000Z</time>
      </trkpt>
      <trkpt lat="47.5533" lon="6.66489">
        <ele>507</ele>
        <time>2016-12-11T10:12:08.000Z</time>
      </trkpt>
      <trkpt lat="47.55328" lon="6.66486">
        <ele>508</ele>
        <time>2016-12-11T10:12:09.000Z</time>
      </trkpt>
      <trkpt lat="47.55326" lon="6.66481">
        <ele>508</ele>
        <time>2016-12-11T10:12:10.000Z</time>
      </trkpt>
      <trkpt lat="47.55324" lon="6.66478">
        <ele>508</ele>
        <time>2016-12-11T10:12:11.000Z</time>
      </trkpt>
      <trkpt lat="47.55323" lon="6.66475">
        <ele>508</ele>
        <time>2016-12-11T10:12:12.000Z</time>
      </trkpt>
      <trkpt lat="47.55321" lon="6.66472">
        <ele>508</ele>
        <time>2016-12-11T10:12:13.000Z</time>
      </trkpt>
      <trkpt lat="47.5532" lon="6.66469">
        <ele>508</ele>
        <time>2016-12-11T10:12:14.000Z</time>
      </trkpt>
      <trkpt lat="47.55318" lon="6.66466">
        <ele>508</ele>
        <time>2016-12-11T10:12:16.000Z</time>
      </trkpt>
      <trkpt lat="47.55317" lon="6.66463">
        <ele>508</ele>
        <time>2016-12-11T10:12:17.000Z</time>
      </trkpt>
      <trkpt lat="47.55314" lon="6.66459">
        <ele>508</ele>
        <time>2016-12-11T10:12:19.000Z</time>
      </trkpt>
      <trkpt lat="47.55313" lon="6.66457">
        <ele>508</ele>
        <time>2016-12-11T10:12:20.000Z</time>
      </trkpt>
      <trkpt lat="47.5531" lon="6.66453">
        <ele>508</ele>
        <time>2016-12-11T10:12:22.000Z</time>
      </trkpt>
      <trkpt lat="47.55309" lon="6.66451">
        <ele>508</ele>
        <time>2016-12-11T10:12:23.000Z</time>
      </trkpt>
      <trkpt lat="47.55305" lon="6.66447">
        <ele>508</ele>
        <time>2016-12-11T10:12:26.000Z</time>
      </trkpt>
      <trkpt lat="47.55304" lon="6.66445">
        <ele>508</ele>
        <time>2016-12-11T10:12:27.000Z</time>
      </trkpt>
      <trkpt lat="47.55302" lon="6.66439">
        <ele>508</ele>
        <time>2016-12-11T10:12:29.000Z</time>
      </trkpt>
      <trkpt lat="47.55301" lon="6.66435">
        <ele>508</ele>
        <time>2016-12-11T10:12:30.000Z</time>
      </trkpt>
      <trkpt lat="47.55299" lon="6.6643">
        <ele>509</ele>
        <time>2016-12-11T10:12:31.000Z</time>
      </trkpt>
      <trkpt lat="47.55298" lon="6.66425">
        <ele>509</ele>
        <time>2016-12-11T10:12:32.000Z</time>
      </trkpt>
      <trkpt lat="47.55298" lon="6.66422">
        <ele>509</ele>
        <time>2016-12-11T10:12:33.000Z</time>
      </trkpt>
      <trkpt lat="47.55297" lon="6.66419">
        <ele>509</ele>
        <time>2016-12-11T10:12:34.000Z</time>
      </trkpt>
      <trkpt lat="47.55295" lon="6.66414">
        <ele>508</ele>
        <time>2016-12-11T10:12:36.000Z</time>
      </trkpt>
      <trkpt lat="47.55294" lon="6.66412">
        <ele>508</ele>
        <time>2016-12-11T10:12:37.000Z</time>
      </trkpt>
      <trkpt lat="47.55292" lon="6.66407">
        <ele>508</ele>
        <time>2016-12-11T10:12:39.000Z</time>
      </trkpt>
      <trkpt lat="47.55291" lon="6.66405">
        <ele>508</ele>
        <time>2016-12-11T10:12:40.000Z</time>
      </trkpt>
      <trkpt lat="47.55289" lon="6.664">
        <ele>508</ele>
        <time>2016-12-11T10:12:42.000Z</time>
      </trkpt>
      <trkpt lat="47.55289" lon="6.66397">
        <ele>508</ele>
        <time>2016-12-11T10:12:43.000Z</time>
      </trkpt>
      <trkpt lat="47.55289" lon="6.66394">
        <ele>508</ele>
        <time>2016-12-11T10:12:44.000Z</time>
      </trkpt>
      <trkpt lat="47.55289" lon="6.66389">
        <ele>508</ele>
        <time>2016-12-11T10:12:45.000Z</time>
      </trkpt>
      <trkpt lat="47.55289" lon="6.66383">
        <ele>508</ele>
        <time>2016-12-11T10:12:47.000Z</time>
      </trkpt>
      <trkpt lat="47.55288" lon="6.6638">
        <ele>508</ele>
        <time>2016-12-11T10:12:48.000Z</time>
      </trkpt>
      <trkpt lat="47.55285" lon="6.66377">
        <ele>508</ele>
        <time>2016-12-11T10:12:51.000Z</time>
      </trkpt>
      <trkpt lat="47.55283" lon="6.66376">
        <ele>508</ele>
        <time>2016-12-11T10:12:52.000Z</time>
      </trkpt>
      <trkpt lat="47.55281" lon="6.66373">
        <ele>508</ele>
        <time>2016-12-11T10:13:02.000Z</time>
      </trkpt>
      <trkpt lat="47.55271" lon="6.66359">
        <ele>509</ele>
        <time>2016-12-11T10:13:03.000Z</time>
      </trkpt>
      <trkpt lat="47.55271" lon="6.66359">
        <ele>509</ele>
        <time>2016-12-11T10:13:04.000Z</time>
      </trkpt>
      <trkpt lat="47.55266" lon="6.66353">
        <ele>510</ele>
        <time>2016-12-11T10:13:05.000Z</time>
      </trkpt>
      <trkpt lat="47.55263" lon="6.66351">
        <ele>510</ele>
        <time>2016-12-11T10:13:06.000Z</time>
      </trkpt>
      <trkpt lat="47.55262" lon="6.66348">
        <ele>510</ele>
        <time>2016-12-11T10:13:07.000Z</time>
      </trkpt>
      <trkpt lat="47.55259" lon="6.66346">
        <ele>511</ele>
        <time>2016-12-11T10:13:09.000Z</time>
      </trkpt>
      <trkpt lat="47.55255" lon="6.66345">
        <ele>511</ele>
        <time>2016-12-11T10:13:10.000Z</time>
      </trkpt>
      <trkpt lat="47.55251" lon="6.66341">
        <ele>512</ele>
        <time>2016-12-11T10:13:11.000Z</time>
      </trkpt>
      <trkpt lat="47.55248" lon="6.66337">
        <ele>514</ele>
        <time>2016-12-11T10:13:12.000Z</time>
      </trkpt>
      <trkpt lat="47.55245" lon="6.66333">
        <ele>514</ele>
        <time>2016-12-11T10:13:13.000Z</time>
      </trkpt>
      <trkpt lat="47.55241" lon="6.66329">
        <ele>513</ele>
        <time>2016-12-11T10:13:14.000Z</time>
      </trkpt>
      <trkpt lat="47.55238" lon="6.66326">
        <ele>513</ele>
        <time>2016-12-11T10:13:15.000Z</time>
      </trkpt>
      <trkpt lat="47.55235" lon="6.66323">
        <ele>513</ele>
        <time>2016-12-11T10:13:16.000Z</time>
      </trkpt>
      <trkpt lat="47.55231" lon="6.66318">
        <ele>513</ele>
        <time>2016-12-11T10:13:17.000Z</time>
      </trkpt>
      <trkpt lat="47.55227" lon="6.66312">
        <ele>512</ele>
        <time>2016-12-11T10:13:18.000Z</time>
      </trkpt>
      <trkpt lat="47.55224" lon="6.66306">
        <ele>512</ele>
        <time>2016-12-11T10:13:19.000Z</time>
      </trkpt>
      <trkpt lat="47.55223" lon="6.663">
        <ele>512</ele>
        <time>2016-12-11T10:13:20.000Z</time>
      </trkpt>
      <trkpt lat="47.55223" lon="6.66294">
        <ele>512</ele>
        <time>2016-12-11T10:13:21.000Z</time>
      </trkpt>
      <trkpt lat="47.55221" lon="6.66289">
        <ele>512</ele>
        <time>2016-12-11T10:13:22.000Z</time>
      </trkpt>
      <trkpt lat="47.55219" lon="6.66283">
        <ele>512</ele>
        <time>2016-12-11T10:13:23.000Z</time>
      </trkpt>
      <trkpt lat="47.55216" lon="6.66279">
        <ele>512</ele>
        <time>2016-12-11T10:13:24.000Z</time>
      </trkpt>
      <trkpt lat="47.55213" lon="6.66274">
        <ele>512</ele>
        <time>2016-12-11T10:13:25.000Z</time>
      </trkpt>
      <trkpt lat="47.55211" lon="6.66269">
        <ele>512</ele>
        <time>2016-12-11T10:13:26.000Z</time>
      </trkpt>
      <trkpt lat="47.55211" lon="6.6626">
        <ele>512</ele>
        <time>2016-12-11T10:13:27.000Z</time>
      </trkpt>
      <trkpt lat="47.5521" lon="6.66254">
        <ele>512</ele>
        <time>2016-12-11T10:13:28.000Z</time>
      </trkpt>
      <trkpt lat="47.55208" lon="6.66249">
        <ele>506</ele>
        <time>2016-12-11T10:13:29.000Z</time>
      </trkpt>
      <trkpt lat="47.55206" lon="6.66245">
        <ele>506</ele>
        <time>2016-12-11T10:13:30.000Z</time>
      </trkpt>
      <trkpt lat="47.55203" lon="6.66242">
        <ele>506</ele>
        <time>2016-12-11T10:13:31.000Z</time>
      </trkpt>
      <trkpt lat="47.552" lon="6.6624">
        <ele>507</ele>
        <time>2016-12-11T10:13:32.000Z</time>
      </trkpt>
      <trkpt lat="47.55198" lon="6.66237">
        <ele>507</ele>
        <time>2016-12-11T10:13:33.000Z</time>
      </trkpt>
      <trkpt lat="47.55196" lon="6.66236">
        <ele>507</ele>
        <time>2016-12-11T10:13:34.000Z</time>
      </trkpt>
      <trkpt lat="47.55193" lon="6.66234">
        <ele>507</ele>
        <time>2016-12-11T10:13:35.000Z</time>
      </trkpt>
      <trkpt lat="47.55191" lon="6.6623">
        <ele>507</ele>
        <time>2016-12-11T10:13:36.000Z</time>
      </trkpt>
      <trkpt lat="47.55188" lon="6.66229">
        <ele>507</ele>
        <time>2016-12-11T10:13:37.000Z</time>
      </trkpt>
      <trkpt lat="47.55185" lon="6.66227">
        <ele>507</ele>
        <time>2016-12-11T10:13:38.000Z</time>
      </trkpt>
      <trkpt lat="47.55181" lon="6.66226">
        <ele>507</ele>
        <time>2016-12-11T10:13:39.000Z</time>
      </trkpt>
      <trkpt lat="47.55178" lon="6.66228">
        <ele>508</ele>
        <time>2016-12-11T10:13:40.000Z</time>
      </trkpt>
      <trkpt lat="47.55176" lon="6.66227">
        <ele>508</ele>
        <time>2016-12-11T10:13:41.000Z</time>
      </trkpt>
      <trkpt lat="47.55174" lon="6.66225">
        <ele>508</ele>
        <time>2016-12-11T10:13:42.000Z</time>
      </trkpt>
      <trkpt lat="47.55169" lon="6.66223">
        <ele>508</ele>
        <time>2016-12-11T10:13:43.000Z</time>
      </trkpt>
      <trkpt lat="47.55164" lon="6.66227">
        <ele>513</ele>
        <time>2016-12-11T10:13:44.000Z</time>
      </trkpt>
      <trkpt lat="47.55161" lon="6.66227">
        <ele>513</ele>
        <time>2016-12-11T10:13:45.000Z</time>
      </trkpt>
      <trkpt lat="47.55159" lon="6.66226">
        <ele>513</ele>
        <time>2016-12-11T10:13:46.000Z</time>
      </trkpt>
      <trkpt lat="47.55156" lon="6.66225">
        <ele>513</ele>
        <time>2016-12-11T10:13:47.000Z</time>
      </trkpt>
      <trkpt lat="47.55154" lon="6.66224">
        <ele>513</ele>
        <time>2016-12-11T10:13:48.000Z</time>
      </trkpt>
      <trkpt lat="47.55151" lon="6.66222">
        <ele>512</ele>
        <time>2016-12-11T10:13:49.000Z</time>
      </trkpt>
      <trkpt lat="47.55147" lon="6.66221">
        <ele>512</ele>
        <time>2016-12-11T10:13:50.000Z</time>
      </trkpt>
      <trkpt lat="47.55143" lon="6.66221">
        <ele>512</ele>
        <time>2016-12-11T10:13:52.000Z</time>
      </trkpt>
      <trkpt lat="47.5514" lon="6.66219">
        <ele>512</ele>
        <time>2016-12-11T10:13:53.000Z</time>
      </trkpt>
      <trkpt lat="47.55137" lon="6.66218">
        <ele>512</ele>
        <time>2016-12-11T10:13:54.000Z</time>
      </trkpt>
      <trkpt lat="47.55135" lon="6.66217">
        <ele>512</ele>
        <time>2016-12-11T10:13:55.000Z</time>
      </trkpt>
      <trkpt lat="47.55131" lon="6.66216">
        <ele>512</ele>
        <time>2016-12-11T10:13:56.000Z</time>
      </trkpt>
      <trkpt lat="47.55128" lon="6.66215">
        <ele>512</ele>
        <time>2016-12-11T10:13:57.000Z</time>
      </trkpt>
      <trkpt lat="47.55123" lon="6.66212">
        <ele>512</ele>
        <time>2016-12-11T10:13:58.000Z</time>
      </trkpt>
      <trkpt lat="47.55118" lon="6.66209">
        <ele>512</ele>
        <time>2016-12-11T10:13:59.000Z</time>
      </trkpt>
      <trkpt lat="47.55113" lon="6.66206">
        <ele>513</ele>
        <time>2016-12-11T10:14:00.000Z</time>
      </trkpt>
      <trkpt lat="47.55108" lon="6.66204">
        <ele>513</ele>
        <time>2016-12-11T10:14:01.000Z</time>
      </trkpt>
      <trkpt lat="47.55104" lon="6.66201">
        <ele>513</ele>
        <time>2016-12-11T10:14:02.000Z</time>
      </trkpt>
      <trkpt lat="47.551" lon="6.66199">
        <ele>513</ele>
        <time>2016-12-11T10:14:03.000Z</time>
      </trkpt>
      <trkpt lat="47.55092" lon="6.66195">
        <ele>513</ele>
        <time>2016-12-11T10:14:04.000Z</time>
      </trkpt>
      <trkpt lat="47.55086" lon="6.66192">
        <ele>513</ele>
        <time>2016-12-11T10:14:05.000Z</time>
      </trkpt>
      <trkpt lat="47.55082" lon="6.6619">
        <ele>515</ele>
        <time>2016-12-11T10:14:06.000Z</time>
      </trkpt>
      <trkpt lat="47.55078" lon="6.66187">
        <ele>515</ele>
        <time>2016-12-11T10:14:07.000Z</time>
      </trkpt>
      <trkpt lat="47.55075" lon="6.66185">
        <ele>515</ele>
        <time>2016-12-11T10:14:08.000Z</time>
      </trkpt>
      <trkpt lat="47.55071" lon="6.66183">
        <ele>515</ele>
        <time>2016-12-11T10:14:09.000Z</time>
      </trkpt>
      <trkpt lat="47.55067" lon="6.66182">
        <ele>515</ele>
        <time>2016-12-11T10:14:10.000Z</time>
      </trkpt>
      <trkpt lat="47.55064" lon="6.6618">
        <ele>515</ele>
        <time>2016-12-11T10:14:11.000Z</time>
      </trkpt>
      <trkpt lat="47.5506" lon="6.66177">
        <ele>515</ele>
        <time>2016-12-11T10:14:12.000Z</time>
      </trkpt>
      <trkpt lat="47.55056" lon="6.66173">
        <ele>515</ele>
        <time>2016-12-11T10:14:13.000Z</time>
      </trkpt>
      <trkpt lat="47.55052" lon="6.66171">
        <ele>515</ele>
        <time>2016-12-11T10:14:14.000Z</time>
      </trkpt>
      <trkpt lat="47.55048" lon="6.66169">
        <ele>515</ele>
        <time>2016-12-11T10:14:15.000Z</time>
      </trkpt>
      <trkpt lat="47.55043" lon="6.66167">
        <ele>511</ele>
        <time>2016-12-11T10:14:16.000Z</time>
      </trkpt>
      <trkpt lat="47.55039" lon="6.66163">
        <ele>511</ele>
        <time>2016-12-11T10:14:17.000Z</time>
      </trkpt>
      <trkpt lat="47.55035" lon="6.6616">
        <ele>511</ele>
        <time>2016-12-11T10:14:18.000Z</time>
      </trkpt>
      <trkpt lat="47.5503" lon="6.66158">
        <ele>511</ele>
        <time>2016-12-11T10:14:19.000Z</time>
      </trkpt>
      <trkpt lat="47.55025" lon="6.66157">
        <ele>512</ele>
        <time>2016-12-11T10:14:20.000Z</time>
      </trkpt>
      <trkpt lat="47.55021" lon="6.66157">
        <ele>512</ele>
        <time>2016-12-11T10:14:21.000Z</time>
      </trkpt>
      <trkpt lat="47.55018" lon="6.66156">
        <ele>512</ele>
        <time>2016-12-11T10:14:22.000Z</time>
      </trkpt>
      <trkpt lat="47.55014" lon="6.66156">
        <ele>512</ele>
        <time>2016-12-11T10:14:23.000Z</time>
      </trkpt>
      <trkpt lat="47.55007" lon="6.66157">
        <ele>513</ele>
        <time>2016-12-11T10:14:24.000Z</time>
      </trkpt>
      <trkpt lat="47.55003" lon="6.66153">
        <ele>513</ele>
        <time>2016-12-11T10:14:25.000Z</time>
      </trkpt>
      <trkpt lat="47.54998" lon="6.66149">
        <ele>514</ele>
        <time>2016-12-11T10:14:26.000Z</time>
      </trkpt>
      <trkpt lat="47.54994" lon="6.66144">
        <ele>514</ele>
        <time>2016-12-11T10:14:27.000Z</time>
      </trkpt>
      <trkpt lat="47.5499" lon="6.66138">
        <ele>513</ele>
        <time>2016-12-11T10:14:28.000Z</time>
      </trkpt>
      <trkpt lat="47.54986" lon="6.66133">
        <ele>513</ele>
        <time>2016-12-11T10:14:29.000Z</time>
      </trkpt>
      <trkpt lat="47.54979" lon="6.6613">
        <ele>513</ele>
        <time>2016-12-11T10:14:30.000Z</time>
      </trkpt>
      <trkpt lat="47.54975" lon="6.66126">
        <ele>513</ele>
        <time>2016-12-11T10:14:31.000Z</time>
      </trkpt>
      <trkpt lat="47.5497" lon="6.66122">
        <ele>513</ele>
        <time>2016-12-11T10:14:32.000Z</time>
      </trkpt>
      <trkpt lat="47.54967" lon="6.66119">
        <ele>513</ele>
        <time>2016-12-11T10:14:33.000Z</time>
      </trkpt>
      <trkpt lat="47.54963" lon="6.66116">
        <ele>513</ele>
        <time>2016-12-11T10:14:34.000Z</time>
      </trkpt>
      <trkpt lat="47.54961" lon="6.66114">
        <ele>513</ele>
        <time>2016-12-11T10:14:35.000Z</time>
      </trkpt>
      <trkpt lat="47.54958" lon="6.6611">
        <ele>513</ele>
        <time>2016-12-11T10:14:36.000Z</time>
      </trkpt>
      <trkpt lat="47.54956" lon="6.66105">
        <ele>513</ele>
        <time>2016-12-11T10:14:37.000Z</time>
      </trkpt>
      <trkpt lat="47.54954" lon="6.661">
        <ele>513</ele>
        <time>2016-12-11T10:14:38.000Z</time>
      </trkpt>
      <trkpt lat="47.54951" lon="6.66094">
        <ele>513</ele>
        <time>2016-12-11T10:14:40.000Z</time>
      </trkpt>
      <trkpt lat="47.54948" lon="6.66089">
        <ele>513</ele>
        <time>2016-12-11T10:14:41.000Z</time>
      </trkpt>
      <trkpt lat="47.54945" lon="6.66085">
        <ele>513</ele>
        <time>2016-12-11T10:14:42.000Z</time>
      </trkpt>
      <trkpt lat="47.54942" lon="6.66081">
        <ele>509</ele>
        <time>2016-12-11T10:14:43.000Z</time>
      </trkpt>
      <trkpt lat="47.54939" lon="6.66077">
        <ele>509</ele>
        <time>2016-12-11T10:14:44.000Z</time>
      </trkpt>
      <trkpt lat="47.54937" lon="6.66074">
        <ele>509</ele>
        <time>2016-12-11T10:14:45.000Z</time>
      </trkpt>
      <trkpt lat="47.54934" lon="6.66071">
        <ele>509</ele>
        <time>2016-12-11T10:14:46.000Z</time>
      </trkpt>
      <trkpt lat="47.54928" lon="6.66062">
        <ele>509</ele>
        <time>2016-12-11T10:14:47.000Z</time>
      </trkpt>
      <trkpt lat="47.54922" lon="6.66057">
        <ele>509</ele>
        <time>2016-12-11T10:14:48.000Z</time>
      </trkpt>
      <trkpt lat="47.54918" lon="6.66052">
        <ele>508</ele>
        <time>2016-12-11T10:14:49.000Z</time>
      </trkpt>
      <trkpt lat="47.54914" lon="6.66047">
        <ele>512</ele>
        <time>2016-12-11T10:14:50.000Z</time>
      </trkpt>
      <trkpt lat="47.54909" lon="6.66044">
        <ele>511</ele>
        <time>2016-12-11T10:14:51.000Z</time>
      </trkpt>
      <trkpt lat="47.54905" lon="6.66043">
        <ele>511</ele>
        <time>2016-12-11T10:14:52.000Z</time>
      </trkpt>
      <trkpt lat="47.54902" lon="6.6604">
        <ele>511</ele>
        <time>2016-12-11T10:14:53.000Z</time>
      </trkpt>
      <trkpt lat="47.54899" lon="6.66037">
        <ele>511</ele>
        <time>2016-12-11T10:14:54.000Z</time>
      </trkpt>
      <trkpt lat="47.54895" lon="6.66034">
        <ele>511</ele>
        <time>2016-12-11T10:14:55.000Z</time>
      </trkpt>
      <trkpt lat="47.54892" lon="6.66031">
        <ele>511</ele>
        <time>2016-12-11T10:14:56.000Z</time>
      </trkpt>
      <trkpt lat="47.54887" lon="6.66028">
        <ele>511</ele>
        <time>2016-12-11T10:14:57.000Z</time>
      </trkpt>
      <trkpt lat="47.54884" lon="6.66026">
        <ele>511</ele>
        <time>2016-12-11T10:14:58.000Z</time>
      </trkpt>
      <trkpt lat="47.5488" lon="6.66023">
        <ele>511</ele>
        <time>2016-12-11T10:14:59.000Z</time>
      </trkpt>
      <trkpt lat="47.54876" lon="6.6602">
        <ele>512</ele>
        <time>2016-12-11T10:15:00.000Z</time>
      </trkpt>
      <trkpt lat="47.5487" lon="6.66017">
        <ele>512</ele>
        <time>2016-12-11T10:15:01.000Z</time>
      </trkpt>
      <trkpt lat="47.54864" lon="6.66014">
        <ele>512</ele>
        <time>2016-12-11T10:15:02.000Z</time>
      </trkpt>
      <trkpt lat="47.54859" lon="6.66011">
        <ele>512</ele>
        <time>2016-12-11T10:15:03.000Z</time>
      </trkpt>
      <trkpt lat="47.54856" lon="6.6601">
        <ele>512</ele>
        <time>2016-12-11T10:15:04.000Z</time>
      </trkpt>
      <trkpt lat="47.54853" lon="6.66009">
        <ele>512</ele>
        <time>2016-12-11T10:15:05.000Z</time>
      </trkpt>
      <trkpt lat="47.54849" lon="6.66008">
        <ele>512</ele>
        <time>2016-12-11T10:15:06.000Z</time>
      </trkpt>
      <trkpt lat="47.54843" lon="6.66006">
        <ele>513</ele>
        <time>2016-12-11T10:15:07.000Z</time>
      </trkpt>
      <trkpt lat="47.54839" lon="6.66005">
        <ele>513</ele>
        <time>2016-12-11T10:15:08.000Z</time>
      </trkpt>
      <trkpt lat="47.54835" lon="6.66004">
        <ele>513</ele>
        <time>2016-12-11T10:15:09.000Z</time>
      </trkpt>
      <trkpt lat="47.5483" lon="6.66002">
        <ele>513</ele>
        <time>2016-12-11T10:15:10.000Z</time>
      </trkpt>
      <trkpt lat="47.54826" lon="6.66">
        <ele>512</ele>
        <time>2016-12-11T10:15:11.000Z</time>
      </trkpt>
      <trkpt lat="47.54821" lon="6.65996">
        <ele>512</ele>
        <time>2016-12-11T10:15:12.000Z</time>
      </trkpt>
      <trkpt lat="47.54817" lon="6.65994">
        <ele>512</ele>
        <time>2016-12-11T10:15:13.000Z</time>
      </trkpt>
      <trkpt lat="47.54812" lon="6.65992">
        <ele>511</ele>
        <time>2016-12-11T10:15:14.000Z</time>
      </trkpt>
      <trkpt lat="47.54807" lon="6.65989">
        <ele>511</ele>
        <time>2016-12-11T10:15:15.000Z</time>
      </trkpt>
      <trkpt lat="47.54802" lon="6.65987">
        <ele>511</ele>
        <time>2016-12-11T10:15:16.000Z</time>
      </trkpt>
      <trkpt lat="47.54798" lon="6.65985">
        <ele>511</ele>
        <time>2016-12-11T10:15:17.000Z</time>
      </trkpt>
      <trkpt lat="47.54794" lon="6.65983">
        <ele>511</ele>
        <time>2016-12-11T10:15:18.000Z</time>
      </trkpt>
      <trkpt lat="47.54789" lon="6.6598">
        <ele>511</ele>
        <time>2016-12-11T10:15:19.000Z</time>
      </trkpt>
      <trkpt lat="47.54784" lon="6.65976">
        <ele>511</ele>
        <time>2016-12-11T10:15:20.000Z</time>
      </trkpt>
      <trkpt lat="47.54778" lon="6.65972">
        <ele>511</ele>
        <time>2016-12-11T10:15:21.000Z</time>
      </trkpt>
      <trkpt lat="47.54772" lon="6.65967">
        <ele>511</ele>
        <time>2016-12-11T10:15:22.000Z</time>
      </trkpt>
      <trkpt lat="47.54768" lon="6.65965">
        <ele>511</ele>
        <time>2016-12-11T10:15:23.000Z</time>
      </trkpt>
      <trkpt lat="47.54763" lon="6.65962">
        <ele>511</ele>
        <time>2016-12-11T10:15:24.000Z</time>
      </trkpt>
      <trkpt lat="47.54759" lon="6.65959">
        <ele>511</ele>
        <time>2016-12-11T10:15:25.000Z</time>
      </trkpt>
      <trkpt lat="47.54753" lon="6.65958">
        <ele>511</ele>
        <time>2016-12-11T10:15:26.000Z</time>
      </trkpt>
      <trkpt lat="47.54748" lon="6.65957">
        <ele>512</ele>
        <time>2016-12-11T10:15:27.000Z</time>
      </trkpt>
      <trkpt lat="47.54743" lon="6.65958">
        <ele>512</ele>
        <time>2016-12-11T10:15:28.000Z</time>
      </trkpt>
      <trkpt lat="47.54739" lon="6.65959">
        <ele>512</ele>
        <time>2016-12-11T10:15:29.000Z</time>
      </trkpt>
      <trkpt lat="47.54734" lon="6.65961">
        <ele>513</ele>
        <time>2016-12-11T10:15:30.000Z</time>
      </trkpt>
      <trkpt lat="47.54729" lon="6.65959">
        <ele>513</ele>
        <time>2016-12-11T10:15:31.000Z</time>
      </trkpt>
      <trkpt lat="47.54725" lon="6.65956">
        <ele>513</ele>
        <time>2016-12-11T10:15:32.000Z</time>
      </trkpt>
      <trkpt lat="47.54721" lon="6.65953">
        <ele>513</ele>
        <time>2016-12-11T10:15:33.000Z</time>
      </trkpt>
      <trkpt lat="47.54717" lon="6.65949">
        <ele>513</ele>
        <time>2016-12-11T10:15:34.000Z</time>
      </trkpt>
      <trkpt lat="47.54712" lon="6.65946">
        <ele>513</ele>
        <time>2016-12-11T10:15:35.000Z</time>
      </trkpt>
      <trkpt lat="47.54707" lon="6.65944">
        <ele>513</ele>
        <time>2016-12-11T10:15:36.000Z</time>
      </trkpt>
      <trkpt lat="47.54703" lon="6.65941">
        <ele>513</ele>
        <time>2016-12-11T10:15:37.000Z</time>
      </trkpt>
      <trkpt lat="47.54699" lon="6.65937">
        <ele>513</ele>
        <time>2016-12-11T10:15:38.000Z</time>
      </trkpt>
      <trkpt lat="47.54693" lon="6.65934">
        <ele>513</ele>
        <time>2016-12-11T10:15:39.000Z</time>
      </trkpt>
      <trkpt lat="47.54688" lon="6.65934">
        <ele>513</ele>
        <time>2016-12-11T10:15:40.000Z</time>
      </trkpt>
      <trkpt lat="47.54685" lon="6.65934">
        <ele>513</ele>
        <time>2016-12-11T10:15:41.000Z</time>
      </trkpt>
      <trkpt lat="47.54681" lon="6.65932">
        <ele>513</ele>
        <time>2016-12-11T10:15:42.000Z</time>
      </trkpt>
      <trkpt lat="47.54678" lon="6.6593">
        <ele>513</ele>
        <time>2016-12-11T10:15:43.000Z</time>
      </trkpt>
      <trkpt lat="47.54675" lon="6.65928">
        <ele>514</ele>
        <time>2016-12-11T10:15:44.000Z</time>
      </trkpt>
      <trkpt lat="47.54672" lon="6.65926">
        <ele>514</ele>
        <time>2016-12-11T10:15:45.000Z</time>
      </trkpt>
      <trkpt lat="47.54668" lon="6.65924">
        <ele>514</ele>
        <time>2016-12-11T10:15:46.000Z</time>
      </trkpt>
      <trkpt lat="47.54664" lon="6.65922">
        <ele>514</ele>
        <time>2016-12-11T10:15:47.000Z</time>
      </trkpt>
      <trkpt lat="47.54655" lon="6.65918">
        <ele>514</ele>
        <time>2016-12-11T10:15:48.000Z</time>
      </trkpt>
      <trkpt lat="47.54651" lon="6.65916">
        <ele>513</ele>
        <time>2016-12-11T10:15:49.000Z</time>
      </trkpt>
      <trkpt lat="47.54647" lon="6.65913">
        <ele>512</ele>
        <time>2016-12-11T10:15:50.000Z</time>
      </trkpt>
      <trkpt lat="47.54643" lon="6.65911">
        <ele>512</ele>
        <time>2016-12-11T10:15:51.000Z</time>
      </trkpt>
      <trkpt lat="47.54639" lon="6.65909">
        <ele>512</ele>
        <time>2016-12-11T10:15:52.000Z</time>
      </trkpt>
      <trkpt lat="47.54634" lon="6.65906">
        <ele>512</ele>
        <time>2016-12-11T10:15:53.000Z</time>
      </trkpt>
      <trkpt lat="47.5463" lon="6.65902">
        <ele>512</ele>
        <time>2016-12-11T10:15:54.000Z</time>
      </trkpt>
      <trkpt lat="47.54626" lon="6.659">
        <ele>512</ele>
        <time>2016-12-11T10:15:55.000Z</time>
      </trkpt>
      <trkpt lat="47.54619" lon="6.65896">
        <ele>512</ele>
        <time>2016-12-11T10:15:56.000Z</time>
      </trkpt>
      <trkpt lat="47.54613" lon="6.65893">
        <ele>512</ele>
        <time>2016-12-11T10:15:57.000Z</time>
      </trkpt>
      <trkpt lat="47.54609" lon="6.65891">
        <ele>512</ele>
        <time>2016-12-11T10:15:58.000Z</time>
      </trkpt>
      <trkpt lat="47.54605" lon="6.65888">
        <ele>511</ele>
        <time>2016-12-11T10:15:59.000Z</time>
      </trkpt>
      <trkpt lat="47.546" lon="6.65884">
        <ele>511</ele>
        <time>2016-12-11T10:16:00.000Z</time>
      </trkpt>
      <trkpt lat="47.54596" lon="6.65881">
        <ele>511</ele>
        <time>2016-12-11T10:16:01.000Z</time>
      </trkpt>
      <trkpt lat="47.54591" lon="6.65877">
        <ele>511</ele>
        <time>2016-12-11T10:16:02.000Z</time>
      </trkpt>
      <trkpt lat="47.54585" lon="6.65873">
        <ele>511</ele>
        <time>2016-12-11T10:16:03.000Z</time>
      </trkpt>
      <trkpt lat="47.54581" lon="6.65871">
        <ele>512</ele>
        <time>2016-12-11T10:16:04.000Z</time>
      </trkpt>
      <trkpt lat="47.54577" lon="6.65866">
        <ele>512</ele>
        <time>2016-12-11T10:16:05.000Z</time>
      </trkpt>
      <trkpt lat="47.54574" lon="6.65863">
        <ele>512</ele>
        <time>2016-12-11T10:16:06.000Z</time>
      </trkpt>
      <trkpt lat="47.54571" lon="6.65859">
        <ele>512</ele>
        <time>2016-12-11T10:16:07.000Z</time>
      </trkpt>
      <trkpt lat="47.54569" lon="6.65855">
        <ele>512</ele>
        <time>2016-12-11T10:16:08.000Z</time>
      </trkpt>
      <trkpt lat="47.54565" lon="6.65853">
        <ele>512</ele>
        <time>2016-12-11T10:16:09.000Z</time>
      </trkpt>
      <trkpt lat="47.54561" lon="6.6585">
        <ele>512</ele>
        <time>2016-12-11T10:16:10.000Z</time>
      </trkpt>
      <trkpt lat="47.54558" lon="6.65847">
        <ele>512</ele>
        <time>2016-12-11T10:16:11.000Z</time>
      </trkpt>
      <trkpt lat="47.54554" lon="6.65843">
        <ele>512</ele>
        <time>2016-12-11T10:16:12.000Z</time>
      </trkpt>
      <trkpt lat="47.54549" lon="6.65839">
        <ele>512</ele>
        <time>2016-12-11T10:16:13.000Z</time>
      </trkpt>
      <trkpt lat="47.54545" lon="6.65835">
        <ele>513</ele>
        <time>2016-12-11T10:16:14.000Z</time>
      </trkpt>
      <trkpt lat="47.5454" lon="6.65831">
        <ele>511</ele>
        <time>2016-12-11T10:16:15.000Z</time>
      </trkpt>
      <trkpt lat="47.54536" lon="6.65827">
        <ele>511</ele>
        <time>2016-12-11T10:16:16.000Z</time>
      </trkpt>
      <trkpt lat="47.54533" lon="6.65822">
        <ele>511</ele>
        <time>2016-12-11T10:16:17.000Z</time>
      </trkpt>
      <trkpt lat="47.54529" lon="6.65819">
        <ele>511</ele>
        <time>2016-12-11T10:16:18.000Z</time>
      </trkpt>
      <trkpt lat="47.54525" lon="6.65814">
        <ele>511</ele>
        <time>2016-12-11T10:16:19.000Z</time>
      </trkpt>
      <trkpt lat="47.54519" lon="6.65811">
        <ele>511</ele>
        <time>2016-12-11T10:16:20.000Z</time>
      </trkpt>
      <trkpt lat="47.54512" lon="6.65805">
        <ele>511</ele>
        <time>2016-12-11T10:16:21.000Z</time>
      </trkpt>
      <trkpt lat="47.54508" lon="6.65801">
        <ele>511</ele>
        <time>2016-12-11T10:16:22.000Z</time>
      </trkpt>
      <trkpt lat="47.54505" lon="6.65798">
        <ele>511</ele>
        <time>2016-12-11T10:16:23.000Z</time>
      </trkpt>
      <trkpt lat="47.54501" lon="6.65793">
        <ele>511</ele>
        <time>2016-12-11T10:16:24.000Z</time>
      </trkpt>
      <trkpt lat="47.54497" lon="6.65788">
        <ele>513</ele>
        <time>2016-12-11T10:16:25.000Z</time>
      </trkpt>
      <trkpt lat="47.54493" lon="6.65783">
        <ele>513</ele>
        <time>2016-12-11T10:16:26.000Z</time>
      </trkpt>
      <trkpt lat="47.54489" lon="6.65779">
        <ele>513</ele>
        <time>2016-12-11T10:16:27.000Z</time>
      </trkpt>
      <trkpt lat="47.54485" lon="6.65775">
        <ele>513</ele>
        <time>2016-12-11T10:16:28.000Z</time>
      </trkpt>
      <trkpt lat="47.5448" lon="6.6577">
        <ele>513</ele>
        <time>2016-12-11T10:16:29.000Z</time>
      </trkpt>
      <trkpt lat="47.54477" lon="6.65766">
        <ele>513</ele>
        <time>2016-12-11T10:16:30.000Z</time>
      </trkpt>
      <trkpt lat="47.54474" lon="6.65763">
        <ele>513</ele>
        <time>2016-12-11T10:16:31.000Z</time>
      </trkpt>
      <trkpt lat="47.5447" lon="6.65761">
        <ele>513</ele>
        <time>2016-12-11T10:16:32.000Z</time>
      </trkpt>
      <trkpt lat="47.54466" lon="6.65756">
        <ele>513</ele>
        <time>2016-12-11T10:16:33.000Z</time>
      </trkpt>
      <trkpt lat="47.54461" lon="6.65751">
        <ele>513</ele>
        <time>2016-12-11T10:16:34.000Z</time>
      </trkpt>
      <trkpt lat="47.54455" lon="6.65744">
        <ele>511</ele>
        <time>2016-12-11T10:16:35.000Z</time>
      </trkpt>
      <trkpt lat="47.54452" lon="6.6574">
        <ele>511</ele>
        <time>2016-12-11T10:16:36.000Z</time>
      </trkpt>
      <trkpt lat="47.54449" lon="6.65735">
        <ele>511</ele>
        <time>2016-12-11T10:16:37.000Z</time>
      </trkpt>
      <trkpt lat="47.54443" lon="6.65727">
        <ele>511</ele>
        <time>2016-12-11T10:16:38.000Z</time>
      </trkpt>
      <trkpt lat="47.5444" lon="6.65724">
        <ele>511</ele>
        <time>2016-12-11T10:16:39.000Z</time>
      </trkpt>
      <trkpt lat="47.54438" lon="6.65721">
        <ele>511</ele>
        <time>2016-12-11T10:16:40.000Z</time>
      </trkpt>
      <trkpt lat="47.54434" lon="6.65716">
        <ele>511</ele>
        <time>2016-12-11T10:16:41.000Z</time>
      </trkpt>
      <trkpt lat="47.54431" lon="6.65712">
        <ele>511</ele>
        <time>2016-12-11T10:16:42.000Z</time>
      </trkpt>
      <trkpt lat="47.54427" lon="6.65708">
        <ele>511</ele>
        <time>2016-12-11T10:16:43.000Z</time>
      </trkpt>
      <trkpt lat="47.54422" lon="6.65701">
        <ele>511</ele>
        <time>2016-12-11T10:16:44.000Z</time>
      </trkpt>
      <trkpt lat="47.54419" lon="6.65696">
        <ele>511</ele>
        <time>2016-12-11T10:16:45.000Z</time>
      </trkpt>
      <trkpt lat="47.54414" lon="6.65691">
        <ele>512</ele>
        <time>2016-12-11T10:16:46.000Z</time>
      </trkpt>
      <trkpt lat="47.54408" lon="6.65689">
        <ele>512</ele>
        <time>2016-12-11T10:16:47.000Z</time>
      </trkpt>
      <trkpt lat="47.54403" lon="6.65686">
        <ele>512</ele>
        <time>2016-12-11T10:16:48.000Z</time>
      </trkpt>
      <trkpt lat="47.54398" lon="6.6568">
        <ele>512</ele>
        <time>2016-12-11T10:16:49.000Z</time>
      </trkpt>
      <trkpt lat="47.54395" lon="6.65673">
        <ele>512</ele>
        <time>2016-12-11T10:16:50.000Z</time>
      </trkpt>
      <trkpt lat="47.54391" lon="6.65671">
        <ele>512</ele>
        <time>2016-12-11T10:16:51.000Z</time>
      </trkpt>
      <trkpt lat="47.54387" lon="6.65668">
        <ele>512</ele>
        <time>2016-12-11T10:16:52.000Z</time>
      </trkpt>
      <trkpt lat="47.54382" lon="6.65662">
        <ele>510</ele>
        <time>2016-12-11T10:16:53.000Z</time>
      </trkpt>
      <trkpt lat="47.54378" lon="6.65656">
        <ele>510</ele>
        <time>2016-12-11T10:16:54.000Z</time>
      </trkpt>
      <trkpt lat="47.54372" lon="6.6565">
        <ele>510</ele>
        <time>2016-12-11T10:16:55.000Z</time>
      </trkpt>
      <trkpt lat="47.54367" lon="6.65646">
        <ele>510</ele>
        <time>2016-12-11T10:16:56.000Z</time>
      </trkpt>
      <trkpt lat="47.54361" lon="6.65641">
        <ele>510</ele>
        <time>2016-12-11T10:16:57.000Z</time>
      </trkpt>
      <trkpt lat="47.54357" lon="6.65637">
        <ele>510</ele>
        <time>2016-12-11T10:16:58.000Z</time>
      </trkpt>
      <trkpt lat="47.54352" lon="6.65632">
        <ele>510</ele>
        <time>2016-12-11T10:16:59.000Z</time>
      </trkpt>
      <trkpt lat="47.54347" lon="6.65628">
        <ele>510</ele>
        <time>2016-12-11T10:17:00.000Z</time>
      </trkpt>
      <trkpt lat="47.54341" lon="6.65625">
        <ele>510</ele>
        <time>2016-12-11T10:17:01.000Z</time>
      </trkpt>
      <trkpt lat="47.54337" lon="6.65621">
        <ele>509</ele>
        <time>2016-12-11T10:17:02.000Z</time>
      </trkpt>
      <trkpt lat="47.54333" lon="6.65615">
        <ele>510</ele>
        <time>2016-12-11T10:17:03.000Z</time>
      </trkpt>
      <trkpt lat="47.54329" lon="6.65609">
        <ele>510</ele>
        <time>2016-12-11T10:17:04.000Z</time>
      </trkpt>
      <trkpt lat="47.54325" lon="6.65605">
        <ele>509</ele>
        <time>2016-12-11T10:17:05.000Z</time>
      </trkpt>
      <trkpt lat="47.5432" lon="6.656">
        <ele>509</ele>
        <time>2016-12-11T10:17:06.000Z</time>
      </trkpt>
      <trkpt lat="47.54316" lon="6.65596">
        <ele>509</ele>
        <time>2016-12-11T10:17:07.000Z</time>
      </trkpt>
      <trkpt lat="47.54311" lon="6.6559">
        <ele>509</ele>
        <time>2016-12-11T10:17:08.000Z</time>
      </trkpt>
      <trkpt lat="47.54306" lon="6.65585">
        <ele>509</ele>
        <time>2016-12-11T10:17:09.000Z</time>
      </trkpt>
      <trkpt lat="47.54301" lon="6.65579">
        <ele>506</ele>
        <time>2016-12-11T10:17:10.000Z</time>
      </trkpt>
      <trkpt lat="47.54297" lon="6.65575">
        <ele>506</ele>
        <time>2016-12-11T10:17:11.000Z</time>
      </trkpt>
      <trkpt lat="47.54293" lon="6.65571">
        <ele>506</ele>
        <time>2016-12-11T10:17:12.000Z</time>
      </trkpt>
      <trkpt lat="47.54291" lon="6.65567">
        <ele>506</ele>
        <time>2016-12-11T10:17:13.000Z</time>
      </trkpt>
      <trkpt lat="47.54288" lon="6.65563">
        <ele>506</ele>
        <time>2016-12-11T10:17:14.000Z</time>
      </trkpt>
      <trkpt lat="47.54284" lon="6.65559">
        <ele>506</ele>
        <time>2016-12-11T10:17:15.000Z</time>
      </trkpt>
      <trkpt lat="47.5428" lon="6.65557">
        <ele>506</ele>
        <time>2016-12-11T10:17:16.000Z</time>
      </trkpt>
      <trkpt lat="47.54277" lon="6.65557">
        <ele>506</ele>
        <time>2016-12-11T10:17:17.000Z</time>
      </trkpt>
      <trkpt lat="47.54273" lon="6.65558">
        <ele>506</ele>
        <time>2016-12-11T10:17:18.000Z</time>
      </trkpt>
      <trkpt lat="47.54268" lon="6.65557">
        <ele>507</ele>
        <time>2016-12-11T10:17:19.000Z</time>
      </trkpt>
      <trkpt lat="47.54263" lon="6.65554">
        <ele>506</ele>
        <time>2016-12-11T10:17:20.000Z</time>
      </trkpt>
      <trkpt lat="47.54258" lon="6.6555">
        <ele>506</ele>
        <time>2016-12-11T10:17:21.000Z</time>
      </trkpt>
      <trkpt lat="47.54255" lon="6.65544">
        <ele>506</ele>
        <time>2016-12-11T10:17:22.000Z</time>
      </trkpt>
      <trkpt lat="47.54252" lon="6.6554">
        <ele>506</ele>
        <time>2016-12-11T10:17:23.000Z</time>
      </trkpt>
      <trkpt lat="47.54249" lon="6.65536">
        <ele>507</ele>
        <time>2016-12-11T10:17:24.000Z</time>
      </trkpt>
      <trkpt lat="47.54247" lon="6.65531">
        <ele>506</ele>
        <time>2016-12-11T10:17:25.000Z</time>
      </trkpt>
      <trkpt lat="47.54244" lon="6.65525">
        <ele>506</ele>
        <time>2016-12-11T10:17:26.000Z</time>
      </trkpt>
      <trkpt lat="47.54242" lon="6.65522">
        <ele>506</ele>
        <time>2016-12-11T10:17:27.000Z</time>
      </trkpt>
      <trkpt lat="47.54239" lon="6.65516">
        <ele>506</ele>
        <time>2016-12-11T10:17:28.000Z</time>
      </trkpt>
      <trkpt lat="47.54236" lon="6.65512">
        <ele>505</ele>
        <time>2016-12-11T10:17:29.000Z</time>
      </trkpt>
      <trkpt lat="47.54232" lon="6.65506">
        <ele>505</ele>
        <time>2016-12-11T10:17:30.000Z</time>
      </trkpt>
      <trkpt lat="47.54228" lon="6.65502">
        <ele>505</ele>
        <time>2016-12-11T10:17:31.000Z</time>
      </trkpt>
      <trkpt lat="47.54224" lon="6.65497">
        <ele>502</ele>
        <time>2016-12-11T10:17:32.000Z</time>
      </trkpt>
      <trkpt lat="47.5422" lon="6.65493">
        <ele>502</ele>
        <time>2016-12-11T10:17:33.000Z</time>
      </trkpt>
      <trkpt lat="47.54216" lon="6.65489">
        <ele>502</ele>
        <time>2016-12-11T10:17:34.000Z</time>
      </trkpt>
      <trkpt lat="47.54212" lon="6.65484">
        <ele>502</ele>
        <time>2016-12-11T10:17:35.000Z</time>
      </trkpt>
      <trkpt lat="47.54208" lon="6.6548">
        <ele>502</ele>
        <time>2016-12-11T10:17:36.000Z</time>
      </trkpt>
      <trkpt lat="47.54204" lon="6.65478">
        <ele>502</ele>
        <time>2016-12-11T10:17:37.000Z</time>
      </trkpt>
      <trkpt lat="47.542" lon="6.65475">
        <ele>502</ele>
        <time>2016-12-11T10:17:38.000Z</time>
      </trkpt>
      <trkpt lat="47.54197" lon="6.65473">
        <ele>502</ele>
        <time>2016-12-11T10:17:39.000Z</time>
      </trkpt>
      <trkpt lat="47.54194" lon="6.65469">
        <ele>502</ele>
        <time>2016-12-11T10:17:40.000Z</time>
      </trkpt>
      <trkpt lat="47.54191" lon="6.65466">
        <ele>501</ele>
        <time>2016-12-11T10:17:41.000Z</time>
      </trkpt>
      <trkpt lat="47.54188" lon="6.65462">
        <ele>501</ele>
        <time>2016-12-11T10:17:42.000Z</time>
      </trkpt>
      <trkpt lat="47.54185" lon="6.65459">
        <ele>501</ele>
        <time>2016-12-11T10:17:43.000Z</time>
      </trkpt>
      <trkpt lat="47.5418" lon="6.65451">
        <ele>501</ele>
        <time>2016-12-11T10:17:44.000Z</time>
      </trkpt>
      <trkpt lat="47.54175" lon="6.65445">
        <ele>501</ele>
        <time>2016-12-11T10:17:45.000Z</time>
      </trkpt>
      <trkpt lat="47.54172" lon="6.65439">
        <ele>501</ele>
        <time>2016-12-11T10:17:46.000Z</time>
      </trkpt>
      <trkpt lat="47.54168" lon="6.65433">
        <ele>501</ele>
        <time>2016-12-11T10:17:47.000Z</time>
      </trkpt>
      <trkpt lat="47.54164" lon="6.65429">
        <ele>501</ele>
        <time>2016-12-11T10:17:48.000Z</time>
      </trkpt>
      <trkpt lat="47.54161" lon="6.65425">
        <ele>501</ele>
        <time>2016-12-11T10:17:49.000Z</time>
      </trkpt>
      <trkpt lat="47.54158" lon="6.65421">
        <ele>501</ele>
        <time>2016-12-11T10:17:50.000Z</time>
      </trkpt>
      <trkpt lat="47.54155" lon="6.65417">
        <ele>499</ele>
        <time>2016-12-11T10:17:51.000Z</time>
      </trkpt>
      <trkpt lat="47.54152" lon="6.65412">
        <ele>499</ele>
        <time>2016-12-11T10:17:52.000Z</time>
      </trkpt>
      <trkpt lat="47.54149" lon="6.65411">
        <ele>499</ele>
        <time>2016-12-11T10:17:53.000Z</time>
      </trkpt>
      <trkpt lat="47.54147" lon="6.65408">
        <ele>499</ele>
        <time>2016-12-11T10:17:54.000Z</time>
      </trkpt>
      <trkpt lat="47.54145" lon="6.65404">
        <ele>499</ele>
        <time>2016-12-11T10:17:55.000Z</time>
      </trkpt>
      <trkpt lat="47.54141" lon="6.654">
        <ele>498</ele>
        <time>2016-12-11T10:17:56.000Z</time>
      </trkpt>
      <trkpt lat="47.54136" lon="6.65395">
        <ele>498</ele>
        <time>2016-12-11T10:17:57.000Z</time>
      </trkpt>
      <trkpt lat="47.54131" lon="6.65389">
        <ele>498</ele>
        <time>2016-12-11T10:17:58.000Z</time>
      </trkpt>
      <trkpt lat="47.54126" lon="6.65381">
        <ele>498</ele>
        <time>2016-12-11T10:17:59.000Z</time>
      </trkpt>
      <trkpt lat="47.54121" lon="6.65373">
        <ele>497</ele>
        <time>2016-12-11T10:18:00.000Z</time>
      </trkpt>
      <trkpt lat="47.54114" lon="6.65359">
        <ele>497</ele>
        <time>2016-12-11T10:18:01.000Z</time>
      </trkpt>
      <trkpt lat="47.5411" lon="6.65352">
        <ele>497</ele>
        <time>2016-12-11T10:18:02.000Z</time>
      </trkpt>
      <trkpt lat="47.54107" lon="6.65346">
        <ele>496</ele>
        <time>2016-12-11T10:18:03.000Z</time>
      </trkpt>
      <trkpt lat="47.54103" lon="6.65341">
        <ele>496</ele>
        <time>2016-12-11T10:18:04.000Z</time>
      </trkpt>
      <trkpt lat="47.54099" lon="6.65336">
        <ele>496</ele>
        <time>2016-12-11T10:18:05.000Z</time>
      </trkpt>
      <trkpt lat="47.54095" lon="6.65331">
        <ele>493</ele>
        <time>2016-12-11T10:18:06.000Z</time>
      </trkpt>
      <trkpt lat="47.54091" lon="6.65325">
        <ele>493</ele>
        <time>2016-12-11T10:18:07.000Z</time>
      </trkpt>
      <trkpt lat="47.54085" lon="6.65316">
        <ele>492</ele>
        <time>2016-12-11T10:18:08.000Z</time>
      </trkpt>
      <trkpt lat="47.54081" lon="6.65309">
        <ele>494</ele>
        <time>2016-12-11T10:18:09.000Z</time>
      </trkpt>
      <trkpt lat="47.54077" lon="6.65302">
        <ele>493</ele>
        <time>2016-12-11T10:18:10.000Z</time>
      </trkpt>
      <trkpt lat="47.54071" lon="6.65294">
        <ele>493</ele>
        <time>2016-12-11T10:18:11.000Z</time>
      </trkpt>
      <trkpt lat="47.54067" lon="6.65287">
        <ele>492</ele>
        <time>2016-12-11T10:18:12.000Z</time>
      </trkpt>
      <trkpt lat="47.54063" lon="6.65281">
        <ele>492</ele>
        <time>2016-12-11T10:18:13.000Z</time>
      </trkpt>
      <trkpt lat="47.54058" lon="6.65275">
        <ele>492</ele>
        <time>2016-12-11T10:18:14.000Z</time>
      </trkpt>
      <trkpt lat="47.54054" lon="6.65268">
        <ele>492</ele>
        <time>2016-12-11T10:18:15.000Z</time>
      </trkpt>
      <trkpt lat="47.5405" lon="6.65261">
        <ele>492</ele>
        <time>2016-12-11T10:18:16.000Z</time>
      </trkpt>
      <trkpt lat="47.54045" lon="6.65255">
        <ele>492</ele>
        <time>2016-12-11T10:18:17.000Z</time>
      </trkpt>
      <trkpt lat="47.54041" lon="6.65249">
        <ele>487</ele>
        <time>2016-12-11T10:18:18.000Z</time>
      </trkpt>
      <trkpt lat="47.54038" lon="6.65243">
        <ele>487</ele>
        <time>2016-12-11T10:18:19.000Z</time>
      </trkpt>
      <trkpt lat="47.54035" lon="6.65237">
        <ele>487</ele>
        <time>2016-12-11T10:18:20.000Z</time>
      </trkpt>
      <trkpt lat="47.54031" lon="6.6523">
        <ele>486</ele>
        <time>2016-12-11T10:18:21.000Z</time>
      </trkpt>
      <trkpt lat="47.54027" lon="6.65225">
        <ele>486</ele>
        <time>2016-12-11T10:18:22.000Z</time>
      </trkpt>
      <trkpt lat="47.54023" lon="6.65219">
        <ele>486</ele>
        <time>2016-12-11T10:18:23.000Z</time>
      </trkpt>
      <trkpt lat="47.5402" lon="6.65213">
        <ele>486</ele>
        <time>2016-12-11T10:18:24.000Z</time>
      </trkpt>
      <trkpt lat="47.54017" lon="6.65208">
        <ele>486</ele>
        <time>2016-12-11T10:18:25.000Z</time>
      </trkpt>
      <trkpt lat="47.54013" lon="6.65203">
        <ele>485</ele>
        <time>2016-12-11T10:18:26.000Z</time>
      </trkpt>
      <trkpt lat="47.54009" lon="6.652">
        <ele>485</ele>
        <time>2016-12-11T10:18:27.000Z</time>
      </trkpt>
      <trkpt lat="47.54004" lon="6.65197">
        <ele>485</ele>
        <time>2016-12-11T10:18:28.000Z</time>
      </trkpt>
      <trkpt lat="47.53999" lon="6.65193">
        <ele>487</ele>
        <time>2016-12-11T10:18:29.000Z</time>
      </trkpt>
      <trkpt lat="47.53997" lon="6.65189">
        <ele>487</ele>
        <time>2016-12-11T10:18:30.000Z</time>
      </trkpt>
      <trkpt lat="47.53994" lon="6.65186">
        <ele>486</ele>
        <time>2016-12-11T10:18:31.000Z</time>
      </trkpt>
      <trkpt lat="47.53992" lon="6.65182">
        <ele>486</ele>
        <time>2016-12-11T10:18:32.000Z</time>
      </trkpt>
      <trkpt lat="47.5399" lon="6.6518">
        <ele>486</ele>
        <time>2016-12-11T10:18:33.000Z</time>
      </trkpt>
      <trkpt lat="47.53988" lon="6.65176">
        <ele>486</ele>
        <time>2016-12-11T10:18:34.000Z</time>
      </trkpt>
      <trkpt lat="47.53986" lon="6.65172">
        <ele>486</ele>
        <time>2016-12-11T10:18:35.000Z</time>
      </trkpt>
      <trkpt lat="47.53985" lon="6.65168">
        <ele>486</ele>
        <time>2016-12-11T10:18:36.000Z</time>
      </trkpt>
      <trkpt lat="47.53982" lon="6.65163">
        <ele>483</ele>
        <time>2016-12-11T10:18:37.000Z</time>
      </trkpt>
      <trkpt lat="47.53979" lon="6.65156">
        <ele>483</ele>
        <time>2016-12-11T10:18:38.000Z</time>
      </trkpt>
      <trkpt lat="47.53976" lon="6.65151">
        <ele>483</ele>
        <time>2016-12-11T10:18:39.000Z</time>
      </trkpt>
      <trkpt lat="47.53973" lon="6.65147">
        <ele>483</ele>
        <time>2016-12-11T10:18:40.000Z</time>
      </trkpt>
      <trkpt lat="47.5397" lon="6.65143">
        <ele>484</ele>
        <time>2016-12-11T10:18:41.000Z</time>
      </trkpt>
      <trkpt lat="47.53968" lon="6.65134">
        <ele>483</ele>
        <time>2016-12-11T10:18:42.000Z</time>
      </trkpt>
      <trkpt lat="47.53966" lon="6.65129">
        <ele>483</ele>
        <time>2016-12-11T10:18:43.000Z</time>
      </trkpt>
      <trkpt lat="47.53963" lon="6.65126">
        <ele>483</ele>
        <time>2016-12-11T10:18:44.000Z</time>
      </trkpt>
      <trkpt lat="47.53961" lon="6.65124">
        <ele>483</ele>
        <time>2016-12-11T10:18:45.000Z</time>
      </trkpt>
      <trkpt lat="47.53959" lon="6.65122">
        <ele>483</ele>
        <time>2016-12-11T10:18:46.000Z</time>
      </trkpt>
      <trkpt lat="47.53957" lon="6.65118">
        <ele>483</ele>
        <time>2016-12-11T10:18:47.000Z</time>
      </trkpt>
      <trkpt lat="47.53954" lon="6.65115">
        <ele>483</ele>
        <time>2016-12-11T10:18:48.000Z</time>
      </trkpt>
      <trkpt lat="47.53951" lon="6.65112">
        <ele>483</ele>
        <time>2016-12-11T10:18:49.000Z</time>
      </trkpt>
      <trkpt lat="47.53949" lon="6.6511">
        <ele>484</ele>
        <time>2016-12-11T10:18:50.000Z</time>
      </trkpt>
      <trkpt lat="47.53946" lon="6.65107">
        <ele>484</ele>
        <time>2016-12-11T10:18:51.000Z</time>
      </trkpt>
      <trkpt lat="47.53942" lon="6.65104">
        <ele>484</ele>
        <time>2016-12-11T10:18:52.000Z</time>
      </trkpt>
      <trkpt lat="47.53936" lon="6.65102">
        <ele>484</ele>
        <time>2016-12-11T10:18:53.000Z</time>
      </trkpt>
      <trkpt lat="47.53931" lon="6.65101">
        <ele>484</ele>
        <time>2016-12-11T10:18:54.000Z</time>
      </trkpt>
      <trkpt lat="47.53927" lon="6.651">
        <ele>484</ele>
        <time>2016-12-11T10:18:55.000Z</time>
      </trkpt>
      <trkpt lat="47.53926" lon="6.65099">
        <ele>484</ele>
        <time>2016-12-11T10:18:56.000Z</time>
      </trkpt>
      <trkpt lat="47.53922" lon="6.65096">
        <ele>484</ele>
        <time>2016-12-11T10:18:58.000Z</time>
      </trkpt>
      <trkpt lat="47.5392" lon="6.65091">
        <ele>485</ele>
        <time>2016-12-11T10:18:59.000Z</time>
      </trkpt>
      <trkpt lat="47.53917" lon="6.65087">
        <ele>485</ele>
        <time>2016-12-11T10:19:00.000Z</time>
      </trkpt>
      <trkpt lat="47.53914" lon="6.65083">
        <ele>485</ele>
        <time>2016-12-11T10:19:01.000Z</time>
      </trkpt>
      <trkpt lat="47.53908" lon="6.6508">
        <ele>484</ele>
        <time>2016-12-11T10:19:02.000Z</time>
      </trkpt>
      <trkpt lat="47.53905" lon="6.65076">
        <ele>484</ele>
        <time>2016-12-11T10:19:03.000Z</time>
      </trkpt>
      <trkpt lat="47.53902" lon="6.65071">
        <ele>483</ele>
        <time>2016-12-11T10:19:04.000Z</time>
      </trkpt>
      <trkpt lat="47.53898" lon="6.65069">
        <ele>483</ele>
        <time>2016-12-11T10:19:05.000Z</time>
      </trkpt>
      <trkpt lat="47.53894" lon="6.65065">
        <ele>483</ele>
        <time>2016-12-11T10:19:06.000Z</time>
      </trkpt>
      <trkpt lat="47.5389" lon="6.6506">
        <ele>483</ele>
        <time>2016-12-11T10:19:07.000Z</time>
      </trkpt>
      <trkpt lat="47.53886" lon="6.65057">
        <ele>482</ele>
        <time>2016-12-11T10:19:08.000Z</time>
      </trkpt>
      <trkpt lat="47.53882" lon="6.65052">
        <ele>482</ele>
        <time>2016-12-11T10:19:09.000Z</time>
      </trkpt>
      <trkpt lat="47.53877" lon="6.65043">
        <ele>482</ele>
        <time>2016-12-11T10:19:10.000Z</time>
      </trkpt>
      <trkpt lat="47.53873" lon="6.65036">
        <ele>481</ele>
        <time>2016-12-11T10:19:11.000Z</time>
      </trkpt>
      <trkpt lat="47.53869" lon="6.65033">
        <ele>481</ele>
        <time>2016-12-11T10:19:12.000Z</time>
      </trkpt>
      <trkpt lat="47.53865" lon="6.65031">
        <ele>481</ele>
        <time>2016-12-11T10:19:13.000Z</time>
      </trkpt>
      <trkpt lat="47.53862" lon="6.65028">
        <ele>481</ele>
        <time>2016-12-11T10:19:14.000Z</time>
      </trkpt>
      <trkpt lat="47.53856" lon="6.65026">
        <ele>481</ele>
        <time>2016-12-11T10:19:15.000Z</time>
      </trkpt>
      <trkpt lat="47.53852" lon="6.65025">
        <ele>481</ele>
        <time>2016-12-11T10:19:16.000Z</time>
      </trkpt>
      <trkpt lat="47.53849" lon="6.65022">
        <ele>481</ele>
        <time>2016-12-11T10:19:17.000Z</time>
      </trkpt>
      <trkpt lat="47.53845" lon="6.6502">
        <ele>481</ele>
        <time>2016-12-11T10:19:18.000Z</time>
      </trkpt>
      <trkpt lat="47.53842" lon="6.65018">
        <ele>481</ele>
        <time>2016-12-11T10:19:19.000Z</time>
      </trkpt>
      <trkpt lat="47.53837" lon="6.65015">
        <ele>481</ele>
        <time>2016-12-11T10:19:20.000Z</time>
      </trkpt>
      <trkpt lat="47.53833" lon="6.65011">
        <ele>481</ele>
        <time>2016-12-11T10:19:21.000Z</time>
      </trkpt>
      <trkpt lat="47.53827" lon="6.65008">
        <ele>481</ele>
        <time>2016-12-11T10:19:22.000Z</time>
      </trkpt>
      <trkpt lat="47.53822" lon="6.65006">
        <ele>481</ele>
        <time>2016-12-11T10:19:23.000Z</time>
      </trkpt>
      <trkpt lat="47.53818" lon="6.65003">
        <ele>481</ele>
        <time>2016-12-11T10:19:24.000Z</time>
      </trkpt>
      <trkpt lat="47.53815" lon="6.65002">
        <ele>481</ele>
        <time>2016-12-11T10:19:25.000Z</time>
      </trkpt>
      <trkpt lat="47.53812" lon="6.65004">
        <ele>481</ele>
        <time>2016-12-11T10:19:28.000Z</time>
      </trkpt>
      <trkpt lat="47.53811" lon="6.65006">
        <ele>481</ele>
        <time>2016-12-11T10:19:29.000Z</time>
      </trkpt>
      <trkpt lat="47.53808" lon="6.6501">
        <ele>481</ele>
        <time>2016-12-11T10:19:31.000Z</time>
      </trkpt>
      <trkpt lat="47.53807" lon="6.65012">
        <ele>482</ele>
        <time>2016-12-11T10:19:32.000Z</time>
      </trkpt>
      <trkpt lat="47.53805" lon="6.65014">
        <ele>482</ele>
        <time>2016-12-11T10:19:33.000Z</time>
      </trkpt>
      <trkpt lat="47.53801" lon="6.65013">
        <ele>482</ele>
        <time>2016-12-11T10:19:34.000Z</time>
      </trkpt>
      <trkpt lat="47.53798" lon="6.65011">
        <ele>481</ele>
        <time>2016-12-11T10:19:35.000Z</time>
      </trkpt>
      <trkpt lat="47.53796" lon="6.65008">
        <ele>481</ele>
        <time>2016-12-11T10:19:36.000Z</time>
      </trkpt>
      <trkpt lat="47.53794" lon="6.65005">
        <ele>481</ele>
        <time>2016-12-11T10:19:37.000Z</time>
      </trkpt>
      <trkpt lat="47.53791" lon="6.65002">
        <ele>481</ele>
        <time>2016-12-11T10:19:38.000Z</time>
      </trkpt>
      <trkpt lat="47.53788" lon="6.65">
        <ele>476</ele>
        <time>2016-12-11T10:19:39.000Z</time>
      </trkpt>
      <trkpt lat="47.5378" lon="6.64997">
        <ele>476</ele>
        <time>2016-12-11T10:19:40.000Z</time>
      </trkpt>
      <trkpt lat="47.53775" lon="6.64994">
        <ele>476</ele>
        <time>2016-12-11T10:19:41.000Z</time>
      </trkpt>
      <trkpt lat="47.53771" lon="6.64991">
        <ele>476</ele>
        <time>2016-12-11T10:19:42.000Z</time>
      </trkpt>
      <trkpt lat="47.53767" lon="6.64988">
        <ele>476</ele>
        <time>2016-12-11T10:19:43.000Z</time>
      </trkpt>
      <trkpt lat="47.53764" lon="6.64985">
        <ele>476</ele>
        <time>2016-12-11T10:19:44.000Z</time>
      </trkpt>
      <trkpt lat="47.5376" lon="6.64982">
        <ele>476</ele>
        <time>2016-12-11T10:19:45.000Z</time>
      </trkpt>
      <trkpt lat="47.53753" lon="6.6498">
        <ele>476</ele>
        <time>2016-12-11T10:19:46.000Z</time>
      </trkpt>
      <trkpt lat="47.53745" lon="6.64975">
        <ele>475</ele>
        <time>2016-12-11T10:19:47.000Z</time>
      </trkpt>
      <trkpt lat="47.53737" lon="6.64972">
        <ele>475</ele>
        <time>2016-12-11T10:19:48.000Z</time>
      </trkpt>
      <trkpt lat="47.5373" lon="6.64971">
        <ele>474</ele>
        <time>2016-12-11T10:19:49.000Z</time>
      </trkpt>
      <trkpt lat="47.53723" lon="6.6497">
        <ele>474</ele>
        <time>2016-12-11T10:19:50.000Z</time>
      </trkpt>
      <trkpt lat="47.53717" lon="6.64968">
        <ele>474</ele>
        <time>2016-12-11T10:19:51.000Z</time>
      </trkpt>
      <trkpt lat="47.53711" lon="6.64969">
        <ele>474</ele>
        <time>2016-12-11T10:19:52.000Z</time>
      </trkpt>
      <trkpt lat="47.53707" lon="6.64971">
        <ele>474</ele>
        <time>2016-12-11T10:19:53.000Z</time>
      </trkpt>
      <trkpt lat="47.53705" lon="6.64975">
        <ele>474</ele>
        <time>2016-12-11T10:19:54.000Z</time>
      </trkpt>
      <trkpt lat="47.53703" lon="6.64981">
        <ele>474</ele>
        <time>2016-12-11T10:19:56.000Z</time>
      </trkpt>
      <trkpt lat="47.53702" lon="6.64983">
        <ele>474</ele>
        <time>2016-12-11T10:19:57.000Z</time>
      </trkpt>
      <trkpt lat="47.53701" lon="6.64986">
        <ele>474</ele>
        <time>2016-12-11T10:19:58.000Z</time>
      </trkpt>
      <trkpt lat="47.537" lon="6.64989">
        <ele>474</ele>
        <time>2016-12-11T10:19:59.000Z</time>
      </trkpt>
      <trkpt lat="47.53697" lon="6.64991">
        <ele>474</ele>
        <time>2016-12-11T10:20:00.000Z</time>
      </trkpt>
      <trkpt lat="47.53694" lon="6.64994">
        <ele>474</ele>
        <time>2016-12-11T10:20:01.000Z</time>
      </trkpt>
      <trkpt lat="47.53691" lon="6.64999">
        <ele>474</ele>
        <time>2016-12-11T10:20:02.000Z</time>
      </trkpt>
      <trkpt lat="47.53688" lon="6.65001">
        <ele>477</ele>
        <time>2016-12-11T10:20:03.000Z</time>
      </trkpt>
      <trkpt lat="47.53685" lon="6.65003">
        <ele>477</ele>
        <time>2016-12-11T10:20:04.000Z</time>
      </trkpt>
      <trkpt lat="47.53682" lon="6.65005">
        <ele>477</ele>
        <time>2016-12-11T10:20:05.000Z</time>
      </trkpt>
      <trkpt lat="47.53681" lon="6.65006">
        <ele>477</ele>
        <time>2016-12-11T10:20:06.000Z</time>
      </trkpt>
      <trkpt lat="47.53678" lon="6.65009">
        <ele>477</ele>
        <time>2016-12-11T10:20:07.000Z</time>
      </trkpt>
      <trkpt lat="47.53675" lon="6.65011">
        <ele>477</ele>
        <time>2016-12-11T10:20:08.000Z</time>
      </trkpt>
      <trkpt lat="47.53673" lon="6.65012">
        <ele>477</ele>
        <time>2016-12-11T10:20:09.000Z</time>
      </trkpt>
      <trkpt lat="47.53671" lon="6.65014">
        <ele>477</ele>
        <time>2016-12-11T10:20:10.000Z</time>
      </trkpt>
      <trkpt lat="47.53668" lon="6.65017">
        <ele>477</ele>
        <time>2016-12-11T10:20:11.000Z</time>
      </trkpt>
      <trkpt lat="47.53665" lon="6.6502">
        <ele>475</ele>
        <time>2016-12-11T10:20:12.000Z</time>
      </trkpt>
      <trkpt lat="47.53662" lon="6.65023">
        <ele>475</ele>
        <time>2016-12-11T10:20:13.000Z</time>
      </trkpt>
      <trkpt lat="47.53659" lon="6.65026">
        <ele>475</ele>
        <time>2016-12-11T10:20:14.000Z</time>
      </trkpt>
      <trkpt lat="47.53656" lon="6.65029">
        <ele>475</ele>
        <time>2016-12-11T10:20:15.000Z</time>
      </trkpt>
      <trkpt lat="47.53653" lon="6.65033">
        <ele>475</ele>
        <time>2016-12-11T10:20:16.000Z</time>
      </trkpt>
      <trkpt lat="47.5365" lon="6.65036">
        <ele>475</ele>
        <time>2016-12-11T10:20:17.000Z</time>
      </trkpt>
      <trkpt lat="47.53647" lon="6.65038">
        <ele>475</ele>
        <time>2016-12-11T10:20:18.000Z</time>
      </trkpt>
      <trkpt lat="47.53644" lon="6.6504">
        <ele>475</ele>
        <time>2016-12-11T10:20:19.000Z</time>
      </trkpt>
      <trkpt lat="47.5364" lon="6.65044">
        <ele>475</ele>
        <time>2016-12-11T10:20:20.000Z</time>
      </trkpt>
      <trkpt lat="47.53636" lon="6.65046">
        <ele>475</ele>
        <time>2016-12-11T10:20:21.000Z</time>
      </trkpt>
      <trkpt lat="47.53632" lon="6.65049">
        <ele>475</ele>
        <time>2016-12-11T10:20:22.000Z</time>
      </trkpt>
      <trkpt lat="47.53628" lon="6.65052">
        <ele>475</ele>
        <time>2016-12-11T10:20:23.000Z</time>
      </trkpt>
      <trkpt lat="47.53624" lon="6.65055">
        <ele>475</ele>
        <time>2016-12-11T10:20:24.000Z</time>
      </trkpt>
      <trkpt lat="47.5362" lon="6.65057">
        <ele>475</ele>
        <time>2016-12-11T10:20:25.000Z</time>
      </trkpt>
      <trkpt lat="47.53616" lon="6.65061">
        <ele>475</ele>
        <time>2016-12-11T10:20:26.000Z</time>
      </trkpt>
      <trkpt lat="47.53614" lon="6.65064">
        <ele>474</ele>
        <time>2016-12-11T10:20:27.000Z</time>
      </trkpt>
      <trkpt lat="47.5361" lon="6.65065">
        <ele>474</ele>
        <time>2016-12-11T10:20:28.000Z</time>
      </trkpt>
      <trkpt lat="47.53607" lon="6.65069">
        <ele>474</ele>
        <time>2016-12-11T10:20:29.000Z</time>
      </trkpt>
      <trkpt lat="47.53603" lon="6.65073">
        <ele>474</ele>
        <time>2016-12-11T10:20:30.000Z</time>
      </trkpt>
      <trkpt lat="47.536" lon="6.65076">
        <ele>474</ele>
        <time>2016-12-11T10:20:31.000Z</time>
      </trkpt>
      <trkpt lat="47.53597" lon="6.65083">
        <ele>474</ele>
        <time>2016-12-11T10:20:32.000Z</time>
      </trkpt>
      <trkpt lat="47.53592" lon="6.65088">
        <ele>475</ele>
        <time>2016-12-11T10:20:33.000Z</time>
      </trkpt>
      <trkpt lat="47.53588" lon="6.65092">
        <ele>474</ele>
        <time>2016-12-11T10:20:34.000Z</time>
      </trkpt>
      <trkpt lat="47.53583" lon="6.65094">
        <ele>475</ele>
        <time>2016-12-11T10:20:35.000Z</time>
      </trkpt>
      <trkpt lat="47.53579" lon="6.65099">
        <ele>472</ele>
        <time>2016-12-11T10:20:36.000Z</time>
      </trkpt>
      <trkpt lat="47.53575" lon="6.65103">
        <ele>472</ele>
        <time>2016-12-11T10:20:37.000Z</time>
      </trkpt>
      <trkpt lat="47.53572" lon="6.65107">
        <ele>471</ele>
        <time>2016-12-11T10:20:38.000Z</time>
      </trkpt>
      <trkpt lat="47.53569" lon="6.65111">
        <ele>471</ele>
        <time>2016-12-11T10:20:39.000Z</time>
      </trkpt>
      <trkpt lat="47.53566" lon="6.65114">
        <ele>471</ele>
        <time>2016-12-11T10:20:40.000Z</time>
      </trkpt>
      <trkpt lat="47.53562" lon="6.65116">
        <ele>471</ele>
        <time>2016-12-11T10:20:41.000Z</time>
      </trkpt>
      <trkpt lat="47.53556" lon="6.65118">
        <ele>471</ele>
        <time>2016-12-11T10:20:42.000Z</time>
      </trkpt>
      <trkpt lat="47.53551" lon="6.65119">
        <ele>471</ele>
        <time>2016-12-11T10:20:43.000Z</time>
      </trkpt>
      <trkpt lat="47.53545" lon="6.65121">
        <ele>470</ele>
        <time>2016-12-11T10:20:44.000Z</time>
      </trkpt>
      <trkpt lat="47.53541" lon="6.65123">
        <ele>470</ele>
        <time>2016-12-11T10:20:45.000Z</time>
      </trkpt>
      <trkpt lat="47.53535" lon="6.65128">
        <ele>470</ele>
        <time>2016-12-11T10:20:46.000Z</time>
      </trkpt>
      <trkpt lat="47.53529" lon="6.65133">
        <ele>470</ele>
        <time>2016-12-11T10:20:47.000Z</time>
      </trkpt>
      <trkpt lat="47.53525" lon="6.65137">
        <ele>470</ele>
        <time>2016-12-11T10:20:48.000Z</time>
      </trkpt>
      <trkpt lat="47.53522" lon="6.65142">
        <ele>469</ele>
        <time>2016-12-11T10:20:49.000Z</time>
      </trkpt>
      <trkpt lat="47.53519" lon="6.65148">
        <ele>469</ele>
        <time>2016-12-11T10:20:50.000Z</time>
      </trkpt>
      <trkpt lat="47.53515" lon="6.65153">
        <ele>469</ele>
        <time>2016-12-11T10:20:51.000Z</time>
      </trkpt>
      <trkpt lat="47.53511" lon="6.65158">
        <ele>468</ele>
        <time>2016-12-11T10:20:52.000Z</time>
      </trkpt>
      <trkpt lat="47.53506" lon="6.65163">
        <ele>468</ele>
        <time>2016-12-11T10:20:53.000Z</time>
      </trkpt>
      <trkpt lat="47.53501" lon="6.65169">
        <ele>467</ele>
        <time>2016-12-11T10:20:54.000Z</time>
      </trkpt>
      <trkpt lat="47.53496" lon="6.65174">
        <ele>466</ele>
        <time>2016-12-11T10:20:55.000Z</time>
      </trkpt>
      <trkpt lat="47.53492" lon="6.6518">
        <ele>465</ele>
        <time>2016-12-11T10:20:56.000Z</time>
      </trkpt>
      <trkpt lat="47.53487" lon="6.65188">
        <ele>465</ele>
        <time>2016-12-11T10:20:57.000Z</time>
      </trkpt>
      <trkpt lat="47.53483" lon="6.65193">
        <ele>464</ele>
        <time>2016-12-11T10:20:58.000Z</time>
      </trkpt>
      <trkpt lat="47.53479" lon="6.652">
        <ele>464</ele>
        <time>2016-12-11T10:20:59.000Z</time>
      </trkpt>
      <trkpt lat="47.53475" lon="6.65206">
        <ele>464</ele>
        <time>2016-12-11T10:21:00.000Z</time>
      </trkpt>
      <trkpt lat="47.53471" lon="6.65212">
        <ele>464</ele>
        <time>2016-12-11T10:21:01.000Z</time>
      </trkpt>
      <trkpt lat="47.53468" lon="6.65217">
        <ele>464</ele>
        <time>2016-12-11T10:21:02.000Z</time>
      </trkpt>
      <trkpt lat="47.53463" lon="6.65222">
        <ele>463</ele>
        <time>2016-12-11T10:21:03.000Z</time>
      </trkpt>
      <trkpt lat="47.53457" lon="6.65228">
        <ele>463</ele>
        <time>2016-12-11T10:21:04.000Z</time>
      </trkpt>
      <trkpt lat="47.53451" lon="6.65233">
        <ele>463</ele>
        <time>2016-12-11T10:21:05.000Z</time>
      </trkpt>
      <trkpt lat="47.53443" lon="6.65234">
        <ele>462</ele>
        <time>2016-12-11T10:21:06.000Z</time>
      </trkpt>
      <trkpt lat="47.53436" lon="6.65233">
        <ele>462</ele>
        <time>2016-12-11T10:21:07.000Z</time>
      </trkpt>
      <trkpt lat="47.53432" lon="6.6523">
        <ele>462</ele>
        <time>2016-12-11T10:21:08.000Z</time>
      </trkpt>
      <trkpt lat="47.53428" lon="6.65226">
        <ele>462</ele>
        <time>2016-12-11T10:21:09.000Z</time>
      </trkpt>
      <trkpt lat="47.53424" lon="6.65221">
        <ele>462</ele>
        <time>2016-12-11T10:21:10.000Z</time>
      </trkpt>
      <trkpt lat="47.53419" lon="6.65216">
        <ele>462</ele>
        <time>2016-12-11T10:21:11.000Z</time>
      </trkpt>
      <trkpt lat="47.53414" lon="6.6521">
        <ele>457</ele>
        <time>2016-12-11T10:21:12.000Z</time>
      </trkpt>
      <trkpt lat="47.53409" lon="6.65204">
        <ele>457</ele>
        <time>2016-12-11T10:21:13.000Z</time>
      </trkpt>
      <trkpt lat="47.53404" lon="6.65197">
        <ele>457</ele>
        <time>2016-12-11T10:21:14.000Z</time>
      </trkpt>
      <trkpt lat="47.53399" lon="6.6519">
        <ele>457</ele>
        <time>2016-12-11T10:21:15.000Z</time>
      </trkpt>
      <trkpt lat="47.53393" lon="6.65183">
        <ele>457</ele>
        <time>2016-12-11T10:21:16.000Z</time>
      </trkpt>
      <trkpt lat="47.53388" lon="6.65175">
        <ele>457</ele>
        <time>2016-12-11T10:21:17.000Z</time>
      </trkpt>
      <trkpt lat="47.53382" lon="6.65169">
        <ele>456</ele>
        <time>2016-12-11T10:21:18.000Z</time>
      </trkpt>
      <trkpt lat="47.53376" lon="6.65161">
        <ele>455</ele>
        <time>2016-12-11T10:21:19.000Z</time>
      </trkpt>
      <trkpt lat="47.53371" lon="6.65155">
        <ele>455</ele>
        <time>2016-12-11T10:21:20.000Z</time>
      </trkpt>
      <trkpt lat="47.53365" lon="6.65149">
        <ele>454</ele>
        <time>2016-12-11T10:21:21.000Z</time>
      </trkpt>
      <trkpt lat="47.5336" lon="6.65142">
        <ele>454</ele>
        <time>2016-12-11T10:21:22.000Z</time>
      </trkpt>
      <trkpt lat="47.53355" lon="6.65134">
        <ele>454</ele>
        <time>2016-12-11T10:21:23.000Z</time>
      </trkpt>
      <trkpt lat="47.53349" lon="6.65126">
        <ele>454</ele>
        <time>2016-12-11T10:21:24.000Z</time>
      </trkpt>
      <trkpt lat="47.53344" lon="6.65119">
        <ele>454</ele>
        <time>2016-12-11T10:21:25.000Z</time>
      </trkpt>
      <trkpt lat="47.53339" lon="6.65112">
        <ele>453</ele>
        <time>2016-12-11T10:21:26.000Z</time>
      </trkpt>
      <trkpt lat="47.53334" lon="6.65105">
        <ele>453</ele>
        <time>2016-12-11T10:21:27.000Z</time>
      </trkpt>
      <trkpt lat="47.53328" lon="6.651">
        <ele>450</ele>
        <time>2016-12-11T10:21:28.000Z</time>
      </trkpt>
      <trkpt lat="47.53321" lon="6.65092">
        <ele>450</ele>
        <time>2016-12-11T10:21:29.000Z</time>
      </trkpt>
      <trkpt lat="47.53314" lon="6.65084">
        <ele>450</ele>
        <time>2016-12-11T10:21:30.000Z</time>
      </trkpt>
      <trkpt lat="47.53307" lon="6.65075">
        <ele>447</ele>
        <time>2016-12-11T10:21:31.000Z</time>
      </trkpt>
      <trkpt lat="47.53301" lon="6.65067">
        <ele>447</ele>
        <time>2016-12-11T10:21:32.000Z</time>
      </trkpt>
      <trkpt lat="47.53295" lon="6.65061">
        <ele>446</ele>
        <time>2016-12-11T10:21:33.000Z</time>
      </trkpt>
      <trkpt lat="47.53289" lon="6.65054">
        <ele>446</ele>
        <time>2016-12-11T10:21:34.000Z</time>
      </trkpt>
      <trkpt lat="47.53285" lon="6.65049">
        <ele>446</ele>
        <time>2016-12-11T10:21:35.000Z</time>
      </trkpt>
      <trkpt lat="47.53278" lon="6.65041">
        <ele>445</ele>
        <time>2016-12-11T10:21:36.000Z</time>
      </trkpt>
      <trkpt lat="47.53272" lon="6.65034">
        <ele>445</ele>
        <time>2016-12-11T10:21:37.000Z</time>
      </trkpt>
      <trkpt lat="47.53266" lon="6.65031">
        <ele>444</ele>
        <time>2016-12-11T10:21:38.000Z</time>
      </trkpt>
      <trkpt lat="47.53261" lon="6.65028">
        <ele>444</ele>
        <time>2016-12-11T10:21:39.000Z</time>
      </trkpt>
      <trkpt lat="47.53255" lon="6.65027">
        <ele>444</ele>
        <time>2016-12-11T10:21:40.000Z</time>
      </trkpt>
      <trkpt lat="47.53249" lon="6.65026">
        <ele>440</ele>
        <time>2016-12-11T10:21:41.000Z</time>
      </trkpt>
      <trkpt lat="47.53241" lon="6.65025">
        <ele>440</ele>
        <time>2016-12-11T10:21:42.000Z</time>
      </trkpt>
      <trkpt lat="47.53233" lon="6.65024">
        <ele>440</ele>
        <time>2016-12-11T10:21:43.000Z</time>
      </trkpt>
      <trkpt lat="47.53225" lon="6.65023">
        <ele>440</ele>
        <time>2016-12-11T10:21:44.000Z</time>
      </trkpt>
      <trkpt lat="47.53218" lon="6.65022">
        <ele>439</ele>
        <time>2016-12-11T10:21:45.000Z</time>
      </trkpt>
      <trkpt lat="47.53209" lon="6.6502">
        <ele>439</ele>
        <time>2016-12-11T10:21:46.000Z</time>
      </trkpt>
      <trkpt lat="47.53201" lon="6.65016">
        <ele>439</ele>
        <time>2016-12-11T10:21:47.000Z</time>
      </trkpt>
      <trkpt lat="47.53195" lon="6.65014">
        <ele>438</ele>
        <time>2016-12-11T10:21:48.000Z</time>
      </trkpt>
      <trkpt lat="47.5319" lon="6.65015">
        <ele>438</ele>
        <time>2016-12-11T10:21:49.000Z</time>
      </trkpt>
      <trkpt lat="47.53185" lon="6.65019">
        <ele>438</ele>
        <time>2016-12-11T10:21:50.000Z</time>
      </trkpt>
      <trkpt lat="47.53181" lon="6.65025">
        <ele>438</ele>
        <time>2016-12-11T10:21:51.000Z</time>
      </trkpt>
      <trkpt lat="47.53179" lon="6.65029">
        <ele>438</ele>
        <time>2016-12-11T10:21:52.000Z</time>
      </trkpt>
      <trkpt lat="47.53178" lon="6.65035">
        <ele>439</ele>
        <time>2016-12-11T10:21:53.000Z</time>
      </trkpt>
      <trkpt lat="47.53174" lon="6.65041">
        <ele>439</ele>
        <time>2016-12-11T10:21:54.000Z</time>
      </trkpt>
      <trkpt lat="47.5317" lon="6.65043">
        <ele>439</ele>
        <time>2016-12-11T10:21:55.000Z</time>
      </trkpt>
      <trkpt lat="47.53165" lon="6.65041">
        <ele>435</ele>
        <time>2016-12-11T10:21:56.000Z</time>
      </trkpt>
      <trkpt lat="47.53161" lon="6.65037">
        <ele>435</ele>
        <time>2016-12-11T10:21:57.000Z</time>
      </trkpt>
      <trkpt lat="47.53157" lon="6.65035">
        <ele>435</ele>
        <time>2016-12-11T10:21:58.000Z</time>
      </trkpt>
      <trkpt lat="47.53151" lon="6.65034">
        <ele>435</ele>
        <time>2016-12-11T10:21:59.000Z</time>
      </trkpt>
      <trkpt lat="47.53144" lon="6.65032">
        <ele>434</ele>
        <time>2016-12-11T10:22:00.000Z</time>
      </trkpt>
      <trkpt lat="47.53138" lon="6.65031">
        <ele>434</ele>
        <time>2016-12-11T10:22:01.000Z</time>
      </trkpt>
      <trkpt lat="47.53133" lon="6.65029">
        <ele>434</ele>
        <time>2016-12-11T10:22:02.000Z</time>
      </trkpt>
      <trkpt lat="47.53127" lon="6.65031">
        <ele>434</ele>
        <time>2016-12-11T10:22:03.000Z</time>
      </trkpt>
      <trkpt lat="47.53121" lon="6.65032">
        <ele>434</ele>
        <time>2016-12-11T10:22:04.000Z</time>
      </trkpt>
      <trkpt lat="47.53115" lon="6.65035">
        <ele>433</ele>
        <time>2016-12-11T10:22:05.000Z</time>
      </trkpt>
      <trkpt lat="47.53109" lon="6.65038">
        <ele>433</ele>
        <time>2016-12-11T10:22:06.000Z</time>
      </trkpt>
      <trkpt lat="47.53104" lon="6.65043">
        <ele>433</ele>
        <time>2016-12-11T10:22:07.000Z</time>
      </trkpt>
      <trkpt lat="47.53097" lon="6.6505">
        <ele>433</ele>
        <time>2016-12-11T10:22:08.000Z</time>
      </trkpt>
      <trkpt lat="47.53089" lon="6.65054">
        <ele>433</ele>
        <time>2016-12-11T10:22:09.000Z</time>
      </trkpt>
      <trkpt lat="47.53081" lon="6.65058">
        <ele>429</ele>
        <time>2016-12-11T10:22:10.000Z</time>
      </trkpt>
      <trkpt lat="47.53073" lon="6.65062">
        <ele>429</ele>
        <time>2016-12-11T10:22:11.000Z</time>
      </trkpt>
      <trkpt lat="47.53065" lon="6.65066">
        <ele>429</ele>
        <time>2016-12-11T10:22:12.000Z</time>
      </trkpt>
      <trkpt lat="47.53057" lon="6.65072">
        <ele>429</ele>
        <time>2016-12-11T10:22:13.000Z</time>
      </trkpt>
      <trkpt lat="47.5305" lon="6.65077">
        <ele>428</ele>
        <time>2016-12-11T10:22:14.000Z</time>
      </trkpt>
      <trkpt lat="47.53043" lon="6.65082">
        <ele>428</ele>
        <time>2016-12-11T10:22:15.000Z</time>
      </trkpt>
      <trkpt lat="47.53036" lon="6.65089">
        <ele>429</ele>
        <time>2016-12-11T10:22:16.000Z</time>
      </trkpt>
      <trkpt lat="47.53028" lon="6.65095">
        <ele>429</ele>
        <time>2016-12-11T10:22:17.000Z</time>
      </trkpt>
      <trkpt lat="47.53019" lon="6.65101">
        <ele>428</ele>
        <time>2016-12-11T10:22:18.000Z</time>
      </trkpt>
      <trkpt lat="47.5301" lon="6.65103">
        <ele>428</ele>
        <time>2016-12-11T10:22:19.000Z</time>
      </trkpt>
      <trkpt lat="47.53002" lon="6.65104">
        <ele>428</ele>
        <time>2016-12-11T10:22:20.000Z</time>
      </trkpt>
      <trkpt lat="47.52991" lon="6.65104">
        <ele>423</ele>
        <time>2016-12-11T10:22:21.000Z</time>
      </trkpt>
      <trkpt lat="47.5298" lon="6.65105">
        <ele>423</ele>
        <time>2016-12-11T10:22:22.000Z</time>
      </trkpt>
      <trkpt lat="47.52972" lon="6.65104">
        <ele>422</ele>
        <time>2016-12-11T10:22:23.000Z</time>
      </trkpt>
      <trkpt lat="47.52962" lon="6.65107">
        <ele>422</ele>
        <time>2016-12-11T10:22:24.000Z</time>
      </trkpt>
      <trkpt lat="47.52952" lon="6.6511">
        <ele>421</ele>
        <time>2016-12-11T10:22:25.000Z</time>
      </trkpt>
      <trkpt lat="47.5294" lon="6.65115">
        <ele>420</ele>
        <time>2016-12-11T10:22:26.000Z</time>
      </trkpt>
      <trkpt lat="47.52929" lon="6.65119">
        <ele>420</ele>
        <time>2016-12-11T10:22:27.000Z</time>
      </trkpt>
      <trkpt lat="47.52919" lon="6.65122">
        <ele>420</ele>
        <time>2016-12-11T10:22:28.000Z</time>
      </trkpt>
      <trkpt lat="47.5291" lon="6.65125">
        <ele>414</ele>
        <time>2016-12-11T10:22:29.000Z</time>
      </trkpt>
      <trkpt lat="47.52902" lon="6.65127">
        <ele>413</ele>
        <time>2016-12-11T10:22:30.000Z</time>
      </trkpt>
      <trkpt lat="47.52893" lon="6.65129">
        <ele>413</ele>
        <time>2016-12-11T10:22:31.000Z</time>
      </trkpt>
      <trkpt lat="47.52887" lon="6.6513">
        <ele>413</ele>
        <time>2016-12-11T10:22:32.000Z</time>
      </trkpt>
      <trkpt lat="47.52881" lon="6.65134">
        <ele>412</ele>
        <time>2016-12-11T10:22:33.000Z</time>
      </trkpt>
      <trkpt lat="47.52876" lon="6.65138">
        <ele>412</ele>
        <time>2016-12-11T10:22:34.000Z</time>
      </trkpt>
      <trkpt lat="47.52868" lon="6.65145">
        <ele>412</ele>
        <time>2016-12-11T10:22:35.000Z</time>
      </trkpt>
      <trkpt lat="47.5286" lon="6.65154">
        <ele>411</ele>
        <time>2016-12-11T10:22:36.000Z</time>
      </trkpt>
      <trkpt lat="47.52854" lon="6.65163">
        <ele>411</ele>
        <time>2016-12-11T10:22:37.000Z</time>
      </trkpt>
      <trkpt lat="47.52847" lon="6.6517">
        <ele>411</ele>
        <time>2016-12-11T10:22:38.000Z</time>
      </trkpt>
      <trkpt lat="47.5284" lon="6.65177">
        <ele>410</ele>
        <time>2016-12-11T10:22:39.000Z</time>
      </trkpt>
      <trkpt lat="47.52832" lon="6.65183">
        <ele>406</ele>
        <time>2016-12-11T10:22:40.000Z</time>
      </trkpt>
      <trkpt lat="47.52824" lon="6.65186">
        <ele>405</ele>
        <time>2016-12-11T10:22:41.000Z</time>
      </trkpt>
      <trkpt lat="47.52817" lon="6.65193">
        <ele>404</ele>
        <time>2016-12-11T10:22:42.000Z</time>
      </trkpt>
      <trkpt lat="47.5281" lon="6.652">
        <ele>404</ele>
        <time>2016-12-11T10:22:43.000Z</time>
      </trkpt>
      <trkpt lat="47.52803" lon="6.65209">
        <ele>403</ele>
        <time>2016-12-11T10:22:44.000Z</time>
      </trkpt>
      <trkpt lat="47.52799" lon="6.65214">
        <ele>403</ele>
        <time>2016-12-11T10:22:45.000Z</time>
      </trkpt>
      <trkpt lat="47.52794" lon="6.65217">
        <ele>403</ele>
        <time>2016-12-11T10:22:46.000Z</time>
      </trkpt>
      <trkpt lat="47.52788" lon="6.65218">
        <ele>402</ele>
        <time>2016-12-11T10:22:47.000Z</time>
      </trkpt>
      <trkpt lat="47.52783" lon="6.65217">
        <ele>402</ele>
        <time>2016-12-11T10:22:48.000Z</time>
      </trkpt>
      <trkpt lat="47.52776" lon="6.65216">
        <ele>401</ele>
        <time>2016-12-11T10:22:49.000Z</time>
      </trkpt>
      <trkpt lat="47.5277" lon="6.65215">
        <ele>401</ele>
        <time>2016-12-11T10:22:50.000Z</time>
      </trkpt>
      <trkpt lat="47.52767" lon="6.65211">
        <ele>401</ele>
        <time>2016-12-11T10:22:51.000Z</time>
      </trkpt>
      <trkpt lat="47.52764" lon="6.65205">
        <ele>401</ele>
        <time>2016-12-11T10:22:52.000Z</time>
      </trkpt>
      <trkpt lat="47.52762" lon="6.65199">
        <ele>401</ele>
        <time>2016-12-11T10:22:53.000Z</time>
      </trkpt>
      <trkpt lat="47.52758" lon="6.65195">
        <ele>400</ele>
        <time>2016-12-11T10:22:54.000Z</time>
      </trkpt>
      <trkpt lat="47.52753" lon="6.65192">
        <ele>400</ele>
        <time>2016-12-11T10:22:55.000Z</time>
      </trkpt>
      <trkpt lat="47.52748" lon="6.65192">
        <ele>393</ele>
        <time>2016-12-11T10:22:56.000Z</time>
      </trkpt>
      <trkpt lat="47.52744" lon="6.65193">
        <ele>393</ele>
        <time>2016-12-11T10:23:07.000Z</time>
      </trkpt>
      <trkpt lat="47.52737" lon="6.65201">
        <ele>392</ele>
        <time>2016-12-11T10:23:08.000Z</time>
      </trkpt>
      <trkpt lat="47.52737" lon="6.65201">
        <ele>392</ele>
        <time>2016-12-11T10:23:49.000Z</time>
      </trkpt>
      <trkpt lat="47.5273" lon="6.65208">
        <ele>392</ele>
        <time>2016-12-11T10:23:50.000Z</time>
      </trkpt>
      <trkpt lat="47.52726" lon="6.65214">
        <ele>392</ele>
        <time>2016-12-11T10:23:51.000Z</time>
      </trkpt>
      <trkpt lat="47.52723" lon="6.65219">
        <ele>391</ele>
        <time>2016-12-11T10:23:52.000Z</time>
      </trkpt>
      <trkpt lat="47.52719" lon="6.65224">
        <ele>391</ele>
        <time>2016-12-11T10:23:53.000Z</time>
      </trkpt>
      <trkpt lat="47.52715" lon="6.65228">
        <ele>391</ele>
        <time>2016-12-11T10:23:54.000Z</time>
      </trkpt>
      <trkpt lat="47.52712" lon="6.65233">
        <ele>391</ele>
        <time>2016-12-11T10:23:55.000Z</time>
      </trkpt>
      <trkpt lat="47.52708" lon="6.65239">
        <ele>390</ele>
        <time>2016-12-11T10:23:56.000Z</time>
      </trkpt>
      <trkpt lat="47.52704" lon="6.65245">
        <ele>390</ele>
        <time>2016-12-11T10:23:57.000Z</time>
      </trkpt>
      <trkpt lat="47.52701" lon="6.65248">
        <ele>389</ele>
        <time>2016-12-11T10:23:58.000Z</time>
      </trkpt>
      <trkpt lat="47.52697" lon="6.65254">
        <ele>388</ele>
        <time>2016-12-11T10:23:59.000Z</time>
      </trkpt>
      <trkpt lat="47.52694" lon="6.6526">
        <ele>388</ele>
        <time>2016-12-11T10:24:00.000Z</time>
      </trkpt>
      <trkpt lat="47.52689" lon="6.65267">
        <ele>387</ele>
        <time>2016-12-11T10:24:01.000Z</time>
      </trkpt>
      <trkpt lat="47.52686" lon="6.65273">
        <ele>387</ele>
        <time>2016-12-11T10:24:02.000Z</time>
      </trkpt>
      <trkpt lat="47.52682" lon="6.65278">
        <ele>387</ele>
        <time>2016-12-11T10:24:03.000Z</time>
      </trkpt>
      <trkpt lat="47.52677" lon="6.65285">
        <ele>387</ele>
        <time>2016-12-11T10:24:04.000Z</time>
      </trkpt>
      <trkpt lat="47.52671" lon="6.6529">
        <ele>387</ele>
        <time>2016-12-11T10:24:05.000Z</time>
      </trkpt>
      <trkpt lat="47.52666" lon="6.65294">
        <ele>381</ele>
        <time>2016-12-11T10:24:06.000Z</time>
      </trkpt>
      <trkpt lat="47.5266" lon="6.65299">
        <ele>381</ele>
        <time>2016-12-11T10:24:07.000Z</time>
      </trkpt>
      <trkpt lat="47.52654" lon="6.65304">
        <ele>380</ele>
        <time>2016-12-11T10:24:08.000Z</time>
      </trkpt>
      <trkpt lat="47.52647" lon="6.65309">
        <ele>380</ele>
        <time>2016-12-11T10:24:09.000Z</time>
      </trkpt>
      <trkpt lat="47.52641" lon="6.65313">
        <ele>380</ele>
        <time>2016-12-11T10:24:10.000Z</time>
      </trkpt>
      <trkpt lat="47.52636" lon="6.65318">
        <ele>380</ele>
        <time>2016-12-11T10:24:11.000Z</time>
      </trkpt>
      <trkpt lat="47.5263" lon="6.65324">
        <ele>379</ele>
        <time>2016-12-11T10:24:12.000Z</time>
      </trkpt>
      <trkpt lat="47.52625" lon="6.65329">
        <ele>379</ele>
        <time>2016-12-11T10:24:13.000Z</time>
      </trkpt>
      <trkpt lat="47.5262" lon="6.65335">
        <ele>378</ele>
        <time>2016-12-11T10:24:14.000Z</time>
      </trkpt>
      <trkpt lat="47.52614" lon="6.65343">
        <ele>378</ele>
        <time>2016-12-11T10:24:15.000Z</time>
      </trkpt>
      <trkpt lat="47.52609" lon="6.6535">
        <ele>378</ele>
        <time>2016-12-11T10:24:16.000Z</time>
      </trkpt>
      <trkpt lat="47.52605" lon="6.65357">
        <ele>378</ele>
        <time>2016-12-11T10:24:17.000Z</time>
      </trkpt>
      <trkpt lat="47.526" lon="6.65364">
        <ele>377</ele>
        <time>2016-12-11T10:24:18.000Z</time>
      </trkpt>
      <trkpt lat="47.52595" lon="6.65372">
        <ele>377</ele>
        <time>2016-12-11T10:24:19.000Z</time>
      </trkpt>
      <trkpt lat="47.5259" lon="6.65382">
        <ele>377</ele>
        <time>2016-12-11T10:24:20.000Z</time>
      </trkpt>
      <trkpt lat="47.52585" lon="6.65393">
        <ele>376</ele>
        <time>2016-12-11T10:24:21.000Z</time>
      </trkpt>
      <trkpt lat="47.5258" lon="6.65404">
        <ele>374</ele>
        <time>2016-12-11T10:24:22.000Z</time>
      </trkpt>
      <trkpt lat="47.52575" lon="6.65415">
        <ele>374</ele>
        <time>2016-12-11T10:24:23.000Z</time>
      </trkpt>
      <trkpt lat="47.52571" lon="6.65426">
        <ele>373</ele>
        <time>2016-12-11T10:24:24.000Z</time>
      </trkpt>
      <trkpt lat="47.52567" lon="6.65439">
        <ele>372</ele>
        <time>2016-12-11T10:24:25.000Z</time>
      </trkpt>
      <trkpt lat="47.52563" lon="6.65451">
        <ele>372</ele>
        <time>2016-12-11T10:24:26.000Z</time>
      </trkpt>
      <trkpt lat="47.52559" lon="6.65462">
        <ele>371</ele>
        <time>2016-12-11T10:24:27.000Z</time>
      </trkpt>
      <trkpt lat="47.52555" lon="6.65473">
        <ele>371</ele>
        <time>2016-12-11T10:24:28.000Z</time>
      </trkpt>
      <trkpt lat="47.52552" lon="6.65484">
        <ele>371</ele>
        <time>2016-12-11T10:24:29.000Z</time>
      </trkpt>
      <trkpt lat="47.52549" lon="6.65493">
        <ele>371</ele>
        <time>2016-12-11T10:24:30.000Z</time>
      </trkpt>
      <trkpt lat="47.52547" lon="6.65504">
        <ele>369</ele>
        <time>2016-12-11T10:24:31.000Z</time>
      </trkpt>
      <trkpt lat="47.52544" lon="6.65514">
        <ele>369</ele>
        <time>2016-12-11T10:24:32.000Z</time>
      </trkpt>
      <trkpt lat="47.5254" lon="6.65524">
        <ele>369</ele>
        <time>2016-12-11T10:24:33.000Z</time>
      </trkpt>
      <trkpt lat="47.52536" lon="6.65533">
        <ele>369</ele>
        <time>2016-12-11T10:24:34.000Z</time>
      </trkpt>
      <trkpt lat="47.52532" lon="6.65544">
        <ele>369</ele>
        <time>2016-12-11T10:24:35.000Z</time>
      </trkpt>
      <trkpt lat="47.52528" lon="6.65554">
        <ele>369</ele>
        <time>2016-12-11T10:24:36.000Z</time>
      </trkpt>
      <trkpt lat="47.52523" lon="6.65564">
        <ele>369</ele>
        <time>2016-12-11T10:24:37.000Z</time>
      </trkpt>
      <trkpt lat="47.52518" lon="6.65573">
        <ele>369</ele>
        <time>2016-12-11T10:24:38.000Z</time>
      </trkpt>
      <trkpt lat="47.52514" lon="6.65583">
        <ele>368</ele>
        <time>2016-12-11T10:24:39.000Z</time>
      </trkpt>
      <trkpt lat="47.52508" lon="6.65593">
        <ele>368</ele>
        <time>2016-12-11T10:24:40.000Z</time>
      </trkpt>
      <trkpt lat="47.52503" lon="6.65602">
        <ele>368</ele>
        <time>2016-12-11T10:24:41.000Z</time>
      </trkpt>
      <trkpt lat="47.52498" lon="6.65612">
        <ele>366</ele>
        <time>2016-12-11T10:24:42.000Z</time>
      </trkpt>
      <trkpt lat="47.52494" lon="6.65622">
        <ele>366</ele>
        <time>2016-12-11T10:24:43.000Z</time>
      </trkpt>
      <trkpt lat="47.5249" lon="6.65631">
        <ele>366</ele>
        <time>2016-12-11T10:24:44.000Z</time>
      </trkpt>
      <trkpt lat="47.52486" lon="6.65639">
        <ele>366</ele>
        <time>2016-12-11T10:24:45.000Z</time>
      </trkpt>
      <trkpt lat="47.52482" lon="6.65647">
        <ele>366</ele>
        <time>2016-12-11T10:24:46.000Z</time>
      </trkpt>
      <trkpt lat="47.52479" lon="6.65655">
        <ele>366</ele>
        <time>2016-12-11T10:24:47.000Z</time>
      </trkpt>
      <trkpt lat="47.52475" lon="6.65664">
        <ele>366</ele>
        <time>2016-12-11T10:24:48.000Z</time>
      </trkpt>
      <trkpt lat="47.52471" lon="6.65672">
        <ele>365</ele>
        <time>2016-12-11T10:24:49.000Z</time>
      </trkpt>
      <trkpt lat="47.52467" lon="6.6568">
        <ele>365</ele>
        <time>2016-12-11T10:24:50.000Z</time>
      </trkpt>
      <trkpt lat="47.52464" lon="6.65688">
        <ele>365</ele>
        <time>2016-12-11T10:24:51.000Z</time>
      </trkpt>
      <trkpt lat="47.5246" lon="6.65696">
        <ele>365</ele>
        <time>2016-12-11T10:24:52.000Z</time>
      </trkpt>
      <trkpt lat="47.52456" lon="6.65703">
        <ele>365</ele>
        <time>2016-12-11T10:24:53.000Z</time>
      </trkpt>
      <trkpt lat="47.52452" lon="6.6571">
        <ele>365</ele>
        <time>2016-12-11T10:24:54.000Z</time>
      </trkpt>
      <trkpt lat="47.52449" lon="6.65718">
        <ele>365</ele>
        <time>2016-12-11T10:24:55.000Z</time>
      </trkpt>
      <trkpt lat="47.52445" lon="6.65725">
        <ele>365</ele>
        <time>2016-12-11T10:24:56.000Z</time>
      </trkpt>
      <trkpt lat="47.52442" lon="6.65732">
        <ele>365</ele>
        <time>2016-12-11T10:24:57.000Z</time>
      </trkpt>
      <trkpt lat="47.52439" lon="6.65738">
        <ele>365</ele>
        <time>2016-12-11T10:24:58.000Z</time>
      </trkpt>
      <trkpt lat="47.52436" lon="6.65744">
        <ele>365</ele>
        <time>2016-12-11T10:24:59.000Z</time>
      </trkpt>
      <trkpt lat="47.52433" lon="6.6575">
        <ele>365</ele>
        <time>2016-12-11T10:25:00.000Z</time>
      </trkpt>
      <trkpt lat="47.5243" lon="6.65757">
        <ele>365</ele>
        <time>2016-12-11T10:25:01.000Z</time>
      </trkpt>
      <trkpt lat="47.52427" lon="6.65764">
        <ele>365</ele>
        <time>2016-12-11T10:25:02.000Z</time>
      </trkpt>
      <trkpt lat="47.52424" lon="6.6577">
        <ele>365</ele>
        <time>2016-12-11T10:25:03.000Z</time>
      </trkpt>
      <trkpt lat="47.52421" lon="6.65776">
        <ele>365</ele>
        <time>2016-12-11T10:25:04.000Z</time>
      </trkpt>
      <trkpt lat="47.52417" lon="6.65782">
        <ele>365</ele>
        <time>2016-12-11T10:25:05.000Z</time>
      </trkpt>
      <trkpt lat="47.52414" lon="6.65789">
        <ele>366</ele>
        <time>2016-12-11T10:25:06.000Z</time>
      </trkpt>
      <trkpt lat="47.52411" lon="6.65794">
        <ele>366</ele>
        <time>2016-12-11T10:25:07.000Z</time>
      </trkpt>
      <trkpt lat="47.52407" lon="6.65801">
        <ele>366</ele>
        <time>2016-12-11T10:25:08.000Z</time>
      </trkpt>
      <trkpt lat="47.52403" lon="6.6581">
        <ele>366</ele>
        <time>2016-12-11T10:25:09.000Z</time>
      </trkpt>
      <trkpt lat="47.524" lon="6.65817">
        <ele>366</ele>
        <time>2016-12-11T10:25:10.000Z</time>
      </trkpt>
      <trkpt lat="47.52396" lon="6.65823">
        <ele>366</ele>
        <time>2016-12-11T10:25:11.000Z</time>
      </trkpt>
      <trkpt lat="47.52394" lon="6.65829">
        <ele>366</ele>
        <time>2016-12-11T10:25:12.000Z</time>
      </trkpt>
      <trkpt lat="47.52391" lon="6.65835">
        <ele>367</ele>
        <time>2016-12-11T10:25:13.000Z</time>
      </trkpt>
      <trkpt lat="47.52388" lon="6.6584">
        <ele>367</ele>
        <time>2016-12-11T10:25:14.000Z</time>
      </trkpt>
      <trkpt lat="47.52385" lon="6.65846">
        <ele>367</ele>
        <time>2016-12-11T10:25:15.000Z</time>
      </trkpt>
      <trkpt lat="47.52381" lon="6.65851">
        <ele>367</ele>
        <time>2016-12-11T10:25:16.000Z</time>
      </trkpt>
      <trkpt lat="47.52378" lon="6.65858">
        <ele>367</ele>
        <time>2016-12-11T10:25:17.000Z</time>
      </trkpt>
      <trkpt lat="47.52375" lon="6.65864">
        <ele>367</ele>
        <time>2016-12-11T10:25:18.000Z</time>
      </trkpt>
      <trkpt lat="47.52371" lon="6.6587">
        <ele>367</ele>
        <time>2016-12-11T10:25:19.000Z</time>
      </trkpt>
      <trkpt lat="47.52368" lon="6.65877">
        <ele>367</ele>
        <time>2016-12-11T10:25:20.000Z</time>
      </trkpt>
      <trkpt lat="47.52365" lon="6.65883">
        <ele>367</ele>
        <time>2016-12-11T10:25:21.000Z</time>
      </trkpt>
      <trkpt lat="47.52362" lon="6.65887">
        <ele>367</ele>
        <time>2016-12-11T10:25:22.000Z</time>
      </trkpt>
      <trkpt lat="47.52359" lon="6.65893">
        <ele>367</ele>
        <time>2016-12-11T10:25:23.000Z</time>
      </trkpt>
      <trkpt lat="47.52356" lon="6.65898">
        <ele>367</ele>
        <time>2016-12-11T10:25:24.000Z</time>
      </trkpt>
      <trkpt lat="47.52352" lon="6.65904">
        <ele>367</ele>
        <time>2016-12-11T10:25:25.000Z</time>
      </trkpt>
      <trkpt lat="47.52349" lon="6.6591">
        <ele>367</ele>
        <time>2016-12-11T10:25:26.000Z</time>
      </trkpt>
      <trkpt lat="47.52346" lon="6.65914">
        <ele>367</ele>
        <time>2016-12-11T10:25:27.000Z</time>
      </trkpt>
      <trkpt lat="47.52343" lon="6.65919">
        <ele>367</ele>
        <time>2016-12-11T10:25:28.000Z</time>
      </trkpt>
      <trkpt lat="47.52339" lon="6.65925">
        <ele>368</ele>
        <time>2016-12-11T10:25:29.000Z</time>
      </trkpt>
      <trkpt lat="47.52335" lon="6.65931">
        <ele>368</ele>
        <time>2016-12-11T10:25:30.000Z</time>
      </trkpt>
      <trkpt lat="47.52332" lon="6.65935">
        <ele>367</ele>
        <time>2016-12-11T10:25:31.000Z</time>
      </trkpt>
      <trkpt lat="47.5233" lon="6.6594">
        <ele>368</ele>
        <time>2016-12-11T10:25:32.000Z</time>
      </trkpt>
      <trkpt lat="47.52327" lon="6.65945">
        <ele>368</ele>
        <time>2016-12-11T10:25:33.000Z</time>
      </trkpt>
      <trkpt lat="47.52324" lon="6.6595">
        <ele>368</ele>
        <time>2016-12-11T10:25:34.000Z</time>
      </trkpt>
      <trkpt lat="47.52322" lon="6.65955">
        <ele>368</ele>
        <time>2016-12-11T10:25:35.000Z</time>
      </trkpt>
      <trkpt lat="47.52319" lon="6.6596">
        <ele>368</ele>
        <time>2016-12-11T10:25:36.000Z</time>
      </trkpt>
      <trkpt lat="47.52317" lon="6.65965">
        <ele>368</ele>
        <time>2016-12-11T10:25:37.000Z</time>
      </trkpt>
      <trkpt lat="47.52315" lon="6.6597">
        <ele>368</ele>
        <time>2016-12-11T10:25:38.000Z</time>
      </trkpt>
      <trkpt lat="47.52311" lon="6.65976">
        <ele>368</ele>
        <time>2016-12-11T10:25:39.000Z</time>
      </trkpt>
      <trkpt lat="47.52309" lon="6.6598">
        <ele>368</ele>
        <time>2016-12-11T10:25:40.000Z</time>
      </trkpt>
      <trkpt lat="47.52306" lon="6.65985">
        <ele>368</ele>
        <time>2016-12-11T10:25:41.000Z</time>
      </trkpt>
      <trkpt lat="47.52304" lon="6.65989">
        <ele>368</ele>
        <time>2016-12-11T10:25:42.000Z</time>
      </trkpt>
      <trkpt lat="47.52301" lon="6.65995">
        <ele>369</ele>
        <time>2016-12-11T10:25:43.000Z</time>
      </trkpt>
      <trkpt lat="47.52299" lon="6.66001">
        <ele>371</ele>
        <time>2016-12-11T10:25:44.000Z</time>
      </trkpt>
      <trkpt lat="47.52297" lon="6.66008">
        <ele>371</ele>
        <time>2016-12-11T10:25:45.000Z</time>
      </trkpt>
      <trkpt lat="47.52294" lon="6.66014">
        <ele>371</ele>
        <time>2016-12-11T10:25:46.000Z</time>
      </trkpt>
      <trkpt lat="47.5229" lon="6.66021">
        <ele>371</ele>
        <time>2016-12-11T10:25:47.000Z</time>
      </trkpt>
      <trkpt lat="47.52287" lon="6.66028">
        <ele>371</ele>
        <time>2016-12-11T10:25:48.000Z</time>
      </trkpt>
      <trkpt lat="47.52284" lon="6.66035">
        <ele>371</ele>
        <time>2016-12-11T10:25:49.000Z</time>
      </trkpt>
      <trkpt lat="47.52281" lon="6.66042">
        <ele>371</ele>
        <time>2016-12-11T10:25:50.000Z</time>
      </trkpt>
      <trkpt lat="47.52278" lon="6.66047">
        <ele>371</ele>
        <time>2016-12-11T10:25:51.000Z</time>
      </trkpt>
      <trkpt lat="47.52275" lon="6.66052">
        <ele>371</ele>
        <time>2016-12-11T10:25:52.000Z</time>
      </trkpt>
      <trkpt lat="47.52272" lon="6.66056">
        <ele>372</ele>
        <time>2016-12-11T10:25:53.000Z</time>
      </trkpt>
      <trkpt lat="47.52269" lon="6.66061">
        <ele>372</ele>
        <time>2016-12-11T10:25:54.000Z</time>
      </trkpt>
      <trkpt lat="47.52266" lon="6.66064">
        <ele>372</ele>
        <time>2016-12-11T10:25:55.000Z</time>
      </trkpt>
      <trkpt lat="47.52265" lon="6.66068">
        <ele>372</ele>
        <time>2016-12-11T10:25:56.000Z</time>
      </trkpt>
      <trkpt lat="47.52263" lon="6.66072">
        <ele>372</ele>
        <time>2016-12-11T10:25:57.000Z</time>
      </trkpt>
      <trkpt lat="47.52261" lon="6.66074">
        <ele>372</ele>
        <time>2016-12-11T10:25:58.000Z</time>
      </trkpt>
      <trkpt lat="47.52258" lon="6.66077">
        <ele>372</ele>
        <time>2016-12-11T10:25:59.000Z</time>
      </trkpt>
      <trkpt lat="47.52256" lon="6.6608">
        <ele>373</ele>
        <time>2016-12-11T10:26:00.000Z</time>
      </trkpt>
      <trkpt lat="47.52254" lon="6.66084">
        <ele>373</ele>
        <time>2016-12-11T10:26:01.000Z</time>
      </trkpt>
      <trkpt lat="47.52252" lon="6.66088">
        <ele>373</ele>
        <time>2016-12-11T10:26:02.000Z</time>
      </trkpt>
      <trkpt lat="47.52252" lon="6.66091">
        <ele>373</ele>
        <time>2016-12-11T10:26:03.000Z</time>
      </trkpt>
      <trkpt lat="47.52252" lon="6.66095">
        <ele>374</ele>
        <time>2016-12-11T10:26:04.000Z</time>
      </trkpt>
      <trkpt lat="47.52253" lon="6.66101">
        <ele>374</ele>
        <time>2016-12-11T10:26:05.000Z</time>
      </trkpt>
      <trkpt lat="47.52254" lon="6.66103">
        <ele>374</ele>
        <time>2016-12-11T10:26:06.000Z</time>
      </trkpt>
      <trkpt lat="47.52252" lon="6.66107">
        <ele>374</ele>
        <time>2016-12-11T10:26:07.000Z</time>
      </trkpt>
      <trkpt lat="47.5225" lon="6.66111">
        <ele>375</ele>
        <time>2016-12-11T10:26:08.000Z</time>
      </trkpt>
      <trkpt lat="47.52247" lon="6.66115">
        <ele>375</ele>
        <time>2016-12-11T10:26:09.000Z</time>
      </trkpt>
      <trkpt lat="47.52245" lon="6.66119">
        <ele>375</ele>
        <time>2016-12-11T10:26:10.000Z</time>
      </trkpt>
      <trkpt lat="47.52243" lon="6.66123">
        <ele>375</ele>
        <time>2016-12-11T10:26:11.000Z</time>
      </trkpt>
      <trkpt lat="47.5224" lon="6.66126">
        <ele>375</ele>
        <time>2016-12-11T10:26:12.000Z</time>
      </trkpt>
      <trkpt lat="47.52238" lon="6.66131">
        <ele>375</ele>
        <time>2016-12-11T10:26:13.000Z</time>
      </trkpt>
      <trkpt lat="47.52235" lon="6.66135">
        <ele>375</ele>
        <time>2016-12-11T10:26:14.000Z</time>
      </trkpt>
      <trkpt lat="47.52232" lon="6.66139">
        <ele>375</ele>
        <time>2016-12-11T10:26:15.000Z</time>
      </trkpt>
      <trkpt lat="47.5223" lon="6.66142">
        <ele>375</ele>
        <time>2016-12-11T10:26:16.000Z</time>
      </trkpt>
      <trkpt lat="47.52228" lon="6.66145">
        <ele>375</ele>
        <time>2016-12-11T10:26:17.000Z</time>
      </trkpt>
      <trkpt lat="47.52226" lon="6.66149">
        <ele>376</ele>
        <time>2016-12-11T10:26:18.000Z</time>
      </trkpt>
      <trkpt lat="47.52223" lon="6.66153">
        <ele>376</ele>
        <time>2016-12-11T10:26:19.000Z</time>
      </trkpt>
      <trkpt lat="47.52221" lon="6.66156">
        <ele>376</ele>
        <time>2016-12-11T10:26:20.000Z</time>
      </trkpt>
      <trkpt lat="47.52218" lon="6.6616">
        <ele>376</ele>
        <time>2016-12-11T10:26:21.000Z</time>
      </trkpt>
      <trkpt lat="47.52215" lon="6.66163">
        <ele>376</ele>
        <time>2016-12-11T10:26:22.000Z</time>
      </trkpt>
      <trkpt lat="47.52212" lon="6.66167">
        <ele>376</ele>
        <time>2016-12-11T10:26:23.000Z</time>
      </trkpt>
      <trkpt lat="47.52209" lon="6.6617">
        <ele>378</ele>
        <time>2016-12-11T10:26:24.000Z</time>
      </trkpt>
      <trkpt lat="47.52208" lon="6.66172">
        <ele>378</ele>
        <time>2016-12-11T10:26:25.000Z</time>
      </trkpt>
      <trkpt lat="47.52206" lon="6.66174">
        <ele>378</ele>
        <time>2016-12-11T10:26:26.000Z</time>
      </trkpt>
      <trkpt lat="47.52204" lon="6.66176">
        <ele>378</ele>
        <time>2016-12-11T10:26:27.000Z</time>
      </trkpt>
      <trkpt lat="47.52202" lon="6.6618">
        <ele>378</ele>
        <time>2016-12-11T10:26:28.000Z</time>
      </trkpt>
      <trkpt lat="47.522" lon="6.66184">
        <ele>378</ele>
        <time>2016-12-11T10:26:29.000Z</time>
      </trkpt>
      <trkpt lat="47.52198" lon="6.66187">
        <ele>378</ele>
        <time>2016-12-11T10:26:30.000Z</time>
      </trkpt>
      <trkpt lat="47.52196" lon="6.6619">
        <ele>378</ele>
        <time>2016-12-11T10:26:31.000Z</time>
      </trkpt>
      <trkpt lat="47.52194" lon="6.66193">
        <ele>378</ele>
        <time>2016-12-11T10:26:32.000Z</time>
      </trkpt>
      <trkpt lat="47.52192" lon="6.66198">
        <ele>378</ele>
        <time>2016-12-11T10:26:33.000Z</time>
      </trkpt>
      <trkpt lat="47.5219" lon="6.66202">
        <ele>378</ele>
        <time>2016-12-11T10:26:34.000Z</time>
      </trkpt>
      <trkpt lat="47.52187" lon="6.66206">
        <ele>378</ele>
        <time>2016-12-11T10:26:35.000Z</time>
      </trkpt>
      <trkpt lat="47.52185" lon="6.6621">
        <ele>378</ele>
        <time>2016-12-11T10:26:36.000Z</time>
      </trkpt>
      <trkpt lat="47.52183" lon="6.66213">
        <ele>378</ele>
        <time>2016-12-11T10:26:37.000Z</time>
      </trkpt>
      <trkpt lat="47.5218" lon="6.66217">
        <ele>378</ele>
        <time>2016-12-11T10:26:38.000Z</time>
      </trkpt>
      <trkpt lat="47.52178" lon="6.6622">
        <ele>378</ele>
        <time>2016-12-11T10:26:39.000Z</time>
      </trkpt>
      <trkpt lat="47.52175" lon="6.66223">
        <ele>378</ele>
        <time>2016-12-11T10:26:40.000Z</time>
      </trkpt>
      <trkpt lat="47.52173" lon="6.66227">
        <ele>378</ele>
        <time>2016-12-11T10:26:41.000Z</time>
      </trkpt>
      <trkpt lat="47.5217" lon="6.66231">
        <ele>378</ele>
        <time>2016-12-11T10:26:42.000Z</time>
      </trkpt>
      <trkpt lat="47.52168" lon="6.66234">
        <ele>379</ele>
        <time>2016-12-11T10:26:43.000Z</time>
      </trkpt>
      <trkpt lat="47.52166" lon="6.66238">
        <ele>379</ele>
        <time>2016-12-11T10:26:44.000Z</time>
      </trkpt>
      <trkpt lat="47.52163" lon="6.66241">
        <ele>379</ele>
        <time>2016-12-11T10:26:45.000Z</time>
      </trkpt>
      <trkpt lat="47.5216" lon="6.66244">
        <ele>379</ele>
        <time>2016-12-11T10:26:46.000Z</time>
      </trkpt>
      <trkpt lat="47.52157" lon="6.66247">
        <ele>379</ele>
        <time>2016-12-11T10:26:47.000Z</time>
      </trkpt>
      <trkpt lat="47.52154" lon="6.6625">
        <ele>379</ele>
        <time>2016-12-11T10:26:48.000Z</time>
      </trkpt>
      <trkpt lat="47.5215" lon="6.66253">
        <ele>379</ele>
        <time>2016-12-11T10:26:49.000Z</time>
      </trkpt>
      <trkpt lat="47.52148" lon="6.66257">
        <ele>378</ele>
        <time>2016-12-11T10:26:50.000Z</time>
      </trkpt>
      <trkpt lat="47.52146" lon="6.66261">
        <ele>378</ele>
        <time>2016-12-11T10:26:51.000Z</time>
      </trkpt>
      <trkpt lat="47.52144" lon="6.66266">
        <ele>378</ele>
        <time>2016-12-11T10:26:52.000Z</time>
      </trkpt>
      <trkpt lat="47.52142" lon="6.66269">
        <ele>378</ele>
        <time>2016-12-11T10:26:53.000Z</time>
      </trkpt>
      <trkpt lat="47.52138" lon="6.66273">
        <ele>378</ele>
        <time>2016-12-11T10:26:54.000Z</time>
      </trkpt>
      <trkpt lat="47.52134" lon="6.66276">
        <ele>378</ele>
        <time>2016-12-11T10:26:55.000Z</time>
      </trkpt>
      <trkpt lat="47.52131" lon="6.6628">
        <ele>378</ele>
        <time>2016-12-11T10:26:56.000Z</time>
      </trkpt>
      <trkpt lat="47.52129" lon="6.66284">
        <ele>378</ele>
        <time>2016-12-11T10:26:57.000Z</time>
      </trkpt>
      <trkpt lat="47.52125" lon="6.66289">
        <ele>378</ele>
        <time>2016-12-11T10:26:58.000Z</time>
      </trkpt>
      <trkpt lat="47.52121" lon="6.66295">
        <ele>378</ele>
        <time>2016-12-11T10:26:59.000Z</time>
      </trkpt>
      <trkpt lat="47.52116" lon="6.66301">
        <ele>378</ele>
        <time>2016-12-11T10:27:00.000Z</time>
      </trkpt>
      <trkpt lat="47.52112" lon="6.66308">
        <ele>378</ele>
        <time>2016-12-11T10:27:01.000Z</time>
      </trkpt>
      <trkpt lat="47.52108" lon="6.66315">
        <ele>378</ele>
        <time>2016-12-11T10:27:02.000Z</time>
      </trkpt>
      <trkpt lat="47.52104" lon="6.66321">
        <ele>377</ele>
        <time>2016-12-11T10:27:03.000Z</time>
      </trkpt>
      <trkpt lat="47.52102" lon="6.66328">
        <ele>377</ele>
        <time>2016-12-11T10:27:04.000Z</time>
      </trkpt>
      <trkpt lat="47.521" lon="6.66334">
        <ele>377</ele>
        <time>2016-12-11T10:27:05.000Z</time>
      </trkpt>
      <trkpt lat="47.52101" lon="6.66341">
        <ele>377</ele>
        <time>2016-12-11T10:27:06.000Z</time>
      </trkpt>
      <trkpt lat="47.52102" lon="6.66347">
        <ele>377</ele>
        <time>2016-12-11T10:27:07.000Z</time>
      </trkpt>
      <trkpt lat="47.52103" lon="6.66355">
        <ele>377</ele>
        <time>2016-12-11T10:27:08.000Z</time>
      </trkpt>
      <trkpt lat="47.52104" lon="6.66361">
        <ele>377</ele>
        <time>2016-12-11T10:27:09.000Z</time>
      </trkpt>
      <trkpt lat="47.52105" lon="6.66368">
        <ele>377</ele>
        <time>2016-12-11T10:27:10.000Z</time>
      </trkpt>
      <trkpt lat="47.52106" lon="6.66374">
        <ele>377</ele>
        <time>2016-12-11T10:27:11.000Z</time>
      </trkpt>
      <trkpt lat="47.52107" lon="6.6638">
        <ele>377</ele>
        <time>2016-12-11T10:27:12.000Z</time>
      </trkpt>
      <trkpt lat="47.52108" lon="6.66385">
        <ele>377</ele>
        <time>2016-12-11T10:27:13.000Z</time>
      </trkpt>
      <trkpt lat="47.52109" lon="6.66391">
        <ele>377</ele>
        <time>2016-12-11T10:27:14.000Z</time>
      </trkpt>
      <trkpt lat="47.52111" lon="6.66397">
        <ele>377</ele>
        <time>2016-12-11T10:27:15.000Z</time>
      </trkpt>
      <trkpt lat="47.52112" lon="6.66404">
        <ele>377</ele>
        <time>2016-12-11T10:27:16.000Z</time>
      </trkpt>
      <trkpt lat="47.52113" lon="6.66411">
        <ele>377</ele>
        <time>2016-12-11T10:27:17.000Z</time>
      </trkpt>
      <trkpt lat="47.52113" lon="6.66417">
        <ele>377</ele>
        <time>2016-12-11T10:27:18.000Z</time>
      </trkpt>
      <trkpt lat="47.52114" lon="6.66423">
        <ele>377</ele>
        <time>2016-12-11T10:27:19.000Z</time>
      </trkpt>
      <trkpt lat="47.52114" lon="6.6643">
        <ele>377</ele>
        <time>2016-12-11T10:27:20.000Z</time>
      </trkpt>
      <trkpt lat="47.52115" lon="6.66436">
        <ele>377</ele>
        <time>2016-12-11T10:27:21.000Z</time>
      </trkpt>
      <trkpt lat="47.52115" lon="6.66443">
        <ele>378</ele>
        <time>2016-12-11T10:27:22.000Z</time>
      </trkpt>
      <trkpt lat="47.52116" lon="6.66449">
        <ele>378</ele>
        <time>2016-12-11T10:27:23.000Z</time>
      </trkpt>
      <trkpt lat="47.52116" lon="6.66454">
        <ele>378</ele>
        <time>2016-12-11T10:27:24.000Z</time>
      </trkpt>
      <trkpt lat="47.52116" lon="6.6646">
        <ele>378</ele>
        <time>2016-12-11T10:27:25.000Z</time>
      </trkpt>
      <trkpt lat="47.52117" lon="6.66467">
        <ele>378</ele>
        <time>2016-12-11T10:27:26.000Z</time>
      </trkpt>
      <trkpt lat="47.52117" lon="6.66474">
        <ele>378</ele>
        <time>2016-12-11T10:27:27.000Z</time>
      </trkpt>
      <trkpt lat="47.52117" lon="6.66481">
        <ele>378</ele>
        <time>2016-12-11T10:27:28.000Z</time>
      </trkpt>
      <trkpt lat="47.52117" lon="6.66487">
        <ele>378</ele>
        <time>2016-12-11T10:27:29.000Z</time>
      </trkpt>
      <trkpt lat="47.52116" lon="6.66492">
        <ele>378</ele>
        <time>2016-12-11T10:27:30.000Z</time>
      </trkpt>
      <trkpt lat="47.52116" lon="6.66498">
        <ele>378</ele>
        <time>2016-12-11T10:27:31.000Z</time>
      </trkpt>
      <trkpt lat="47.52116" lon="6.66504">
        <ele>378</ele>
        <time>2016-12-11T10:27:32.000Z</time>
      </trkpt>
      <trkpt lat="47.52115" lon="6.66513">
        <ele>378</ele>
        <time>2016-12-11T10:27:33.000Z</time>
      </trkpt>
      <trkpt lat="47.52114" lon="6.66521">
        <ele>378</ele>
        <time>2016-12-11T10:27:34.000Z</time>
      </trkpt>
      <trkpt lat="47.52114" lon="6.66528">
        <ele>378</ele>
        <time>2016-12-11T10:27:35.000Z</time>
      </trkpt>
      <trkpt lat="47.52113" lon="6.66534">
        <ele>378</ele>
        <time>2016-12-11T10:27:36.000Z</time>
      </trkpt>
      <trkpt lat="47.52113" lon="6.6654">
        <ele>378</ele>
        <time>2016-12-11T10:27:37.000Z</time>
      </trkpt>
      <trkpt lat="47.52112" lon="6.66545">
        <ele>378</ele>
        <time>2016-12-11T10:27:38.000Z</time>
      </trkpt>
      <trkpt lat="47.52112" lon="6.66552">
        <ele>378</ele>
        <time>2016-12-11T10:27:39.000Z</time>
      </trkpt>
      <trkpt lat="47.52111" lon="6.66557">
        <ele>378</ele>
        <time>2016-12-11T10:27:40.000Z</time>
      </trkpt>
      <trkpt lat="47.52111" lon="6.66562">
        <ele>378</ele>
        <time>2016-12-11T10:27:41.000Z</time>
      </trkpt>
      <trkpt lat="47.5211" lon="6.66568">
        <ele>378</ele>
        <time>2016-12-11T10:27:42.000Z</time>
      </trkpt>
      <trkpt lat="47.5211" lon="6.66573">
        <ele>378</ele>
        <time>2016-12-11T10:27:43.000Z</time>
      </trkpt>
      <trkpt lat="47.5211" lon="6.66579">
        <ele>377</ele>
        <time>2016-12-11T10:27:44.000Z</time>
      </trkpt>
      <trkpt lat="47.5211" lon="6.66586">
        <ele>377</ele>
        <time>2016-12-11T10:27:45.000Z</time>
      </trkpt>
      <trkpt lat="47.5211" lon="6.66592">
        <ele>378</ele>
        <time>2016-12-11T10:27:46.000Z</time>
      </trkpt>
      <trkpt lat="47.5211" lon="6.66598">
        <ele>378</ele>
        <time>2016-12-11T10:27:47.000Z</time>
      </trkpt>
      <trkpt lat="47.5211" lon="6.66604">
        <ele>378</ele>
        <time>2016-12-11T10:27:48.000Z</time>
      </trkpt>
      <trkpt lat="47.52109" lon="6.6661">
        <ele>378</ele>
        <time>2016-12-11T10:27:49.000Z</time>
      </trkpt>
      <trkpt lat="47.52109" lon="6.66617">
        <ele>378</ele>
        <time>2016-12-11T10:27:50.000Z</time>
      </trkpt>
      <trkpt lat="47.52109" lon="6.66625">
        <ele>378</ele>
        <time>2016-12-11T10:27:51.000Z</time>
      </trkpt>
      <trkpt lat="47.5211" lon="6.6663">
        <ele>378</ele>
        <time>2016-12-11T10:27:52.000Z</time>
      </trkpt>
      <trkpt lat="47.5211" lon="6.66635">
        <ele>378</ele>
        <time>2016-12-11T10:27:53.000Z</time>
      </trkpt>
      <trkpt lat="47.52111" lon="6.66642">
        <ele>378</ele>
        <time>2016-12-11T10:27:54.000Z</time>
      </trkpt>
      <trkpt lat="47.52111" lon="6.66649">
        <ele>378</ele>
        <time>2016-12-11T10:27:55.000Z</time>
      </trkpt>
      <trkpt lat="47.52111" lon="6.66655">
        <ele>378</ele>
        <time>2016-12-11T10:27:56.000Z</time>
      </trkpt>
      <trkpt lat="47.52111" lon="6.66663">
        <ele>378</ele>
        <time>2016-12-11T10:27:57.000Z</time>
      </trkpt>
      <trkpt lat="47.52111" lon="6.6667">
        <ele>377</ele>
        <time>2016-12-11T10:27:58.000Z</time>
      </trkpt>
      <trkpt lat="47.52111" lon="6.66676">
        <ele>377</ele>
        <time>2016-12-11T10:27:59.000Z</time>
      </trkpt>
      <trkpt lat="47.52111" lon="6.66683">
        <ele>377</ele>
        <time>2016-12-11T10:28:00.000Z</time>
      </trkpt>
      <trkpt lat="47.5211" lon="6.6669">
        <ele>377</ele>
        <time>2016-12-11T10:28:01.000Z</time>
      </trkpt>
      <trkpt lat="47.5211" lon="6.66698">
        <ele>377</ele>
        <time>2016-12-11T10:28:02.000Z</time>
      </trkpt>
      <trkpt lat="47.5211" lon="6.66705">
        <ele>377</ele>
        <time>2016-12-11T10:28:03.000Z</time>
      </trkpt>
      <trkpt lat="47.5211" lon="6.66713">
        <ele>377</ele>
        <time>2016-12-11T10:28:04.000Z</time>
      </trkpt>
      <trkpt lat="47.52109" lon="6.66719">
        <ele>377</ele>
        <time>2016-12-11T10:28:05.000Z</time>
      </trkpt>
      <trkpt lat="47.52109" lon="6.66725">
        <ele>377</ele>
        <time>2016-12-11T10:28:06.000Z</time>
      </trkpt>
      <trkpt lat="47.52109" lon="6.66732">
        <ele>377</ele>
        <time>2016-12-11T10:28:07.000Z</time>
      </trkpt>
      <trkpt lat="47.52108" lon="6.6674">
        <ele>377</ele>
        <time>2016-12-11T10:28:08.000Z</time>
      </trkpt>
      <trkpt lat="47.52108" lon="6.66748">
        <ele>377</ele>
        <time>2016-12-11T10:28:09.000Z</time>
      </trkpt>
      <trkpt lat="47.52107" lon="6.66756">
        <ele>377</ele>
        <time>2016-12-11T10:28:10.000Z</time>
      </trkpt>
      <trkpt lat="47.52107" lon="6.66763">
        <ele>377</ele>
        <time>2016-12-11T10:28:11.000Z</time>
      </trkpt>
      <trkpt lat="47.52107" lon="6.6677">
        <ele>377</ele>
        <time>2016-12-11T10:28:12.000Z</time>
      </trkpt>
      <trkpt lat="47.52106" lon="6.66777">
        <ele>377</ele>
        <time>2016-12-11T10:28:13.000Z</time>
      </trkpt>
      <trkpt lat="47.52106" lon="6.66784">
        <ele>377</ele>
        <time>2016-12-11T10:28:14.000Z</time>
      </trkpt>
      <trkpt lat="47.52106" lon="6.66791">
        <ele>377</ele>
        <time>2016-12-11T10:28:15.000Z</time>
      </trkpt>
      <trkpt lat="47.52106" lon="6.66799">
        <ele>377</ele>
        <time>2016-12-11T10:28:16.000Z</time>
      </trkpt>
      <trkpt lat="47.52106" lon="6.66805">
        <ele>377</ele>
        <time>2016-12-11T10:28:17.000Z</time>
      </trkpt>
      <trkpt lat="47.52106" lon="6.66815">
        <ele>377</ele>
        <time>2016-12-11T10:28:18.000Z</time>
      </trkpt>
      <trkpt lat="47.52107" lon="6.66824">
        <ele>376</ele>
        <time>2016-12-11T10:28:19.000Z</time>
      </trkpt>
      <trkpt lat="47.52107" lon="6.66833">
        <ele>376</ele>
        <time>2016-12-11T10:28:20.000Z</time>
      </trkpt>
      <trkpt lat="47.52108" lon="6.66842">
        <ele>376</ele>
        <time>2016-12-11T10:28:21.000Z</time>
      </trkpt>
      <trkpt lat="47.52109" lon="6.66851">
        <ele>376</ele>
        <time>2016-12-11T10:28:22.000Z</time>
      </trkpt>
      <trkpt lat="47.5211" lon="6.66859">
        <ele>376</ele>
        <time>2016-12-11T10:28:23.000Z</time>
      </trkpt>
      <trkpt lat="47.5211" lon="6.66868">
        <ele>376</ele>
        <time>2016-12-11T10:28:24.000Z</time>
      </trkpt>
      <trkpt lat="47.5211" lon="6.66877">
        <ele>376</ele>
        <time>2016-12-11T10:28:25.000Z</time>
      </trkpt>
      <trkpt lat="47.5211" lon="6.66885">
        <ele>376</ele>
        <time>2016-12-11T10:28:26.000Z</time>
      </trkpt>
      <trkpt lat="47.5211" lon="6.66894">
        <ele>376</ele>
        <time>2016-12-11T10:28:27.000Z</time>
      </trkpt>
      <trkpt lat="47.5211" lon="6.66902">
        <ele>376</ele>
        <time>2016-12-11T10:28:28.000Z</time>
      </trkpt>
      <trkpt lat="47.5211" lon="6.66911">
        <ele>376</ele>
        <time>2016-12-11T10:28:29.000Z</time>
      </trkpt>
      <trkpt lat="47.52111" lon="6.66919">
        <ele>375</ele>
        <time>2016-12-11T10:28:30.000Z</time>
      </trkpt>
      <trkpt lat="47.52111" lon="6.66927">
        <ele>375</ele>
        <time>2016-12-11T10:28:31.000Z</time>
      </trkpt>
      <trkpt lat="47.52111" lon="6.66935">
        <ele>375</ele>
        <time>2016-12-11T10:28:32.000Z</time>
      </trkpt>
      <trkpt lat="47.52112" lon="6.66943">
        <ele>375</ele>
        <time>2016-12-11T10:28:33.000Z</time>
      </trkpt>
      <trkpt lat="47.52112" lon="6.66951">
        <ele>375</ele>
        <time>2016-12-11T10:28:34.000Z</time>
      </trkpt>
      <trkpt lat="47.52112" lon="6.66958">
        <ele>375</ele>
        <time>2016-12-11T10:28:35.000Z</time>
      </trkpt>
      <trkpt lat="47.52112" lon="6.66965">
        <ele>375</ele>
        <time>2016-12-11T10:28:36.000Z</time>
      </trkpt>
      <trkpt lat="47.52112" lon="6.66975">
        <ele>375</ele>
        <time>2016-12-11T10:28:37.000Z</time>
      </trkpt>
      <trkpt lat="47.52113" lon="6.66983">
        <ele>375</ele>
        <time>2016-12-11T10:28:38.000Z</time>
      </trkpt>
      <trkpt lat="47.52114" lon="6.66993">
        <ele>375</ele>
        <time>2016-12-11T10:28:39.000Z</time>
      </trkpt>
      <trkpt lat="47.52115" lon="6.67001">
        <ele>374</ele>
        <time>2016-12-11T10:28:40.000Z</time>
      </trkpt>
      <trkpt lat="47.52116" lon="6.6701">
        <ele>374</ele>
        <time>2016-12-11T10:28:41.000Z</time>
      </trkpt>
      <trkpt lat="47.52117" lon="6.67018">
        <ele>374</ele>
        <time>2016-12-11T10:28:42.000Z</time>
      </trkpt>
      <trkpt lat="47.52119" lon="6.67027">
        <ele>374</ele>
        <time>2016-12-11T10:28:43.000Z</time>
      </trkpt>
      <trkpt lat="47.52121" lon="6.67036">
        <ele>374</ele>
        <time>2016-12-11T10:28:44.000Z</time>
      </trkpt>
      <trkpt lat="47.52122" lon="6.67043">
        <ele>374</ele>
        <time>2016-12-11T10:28:45.000Z</time>
      </trkpt>
      <trkpt lat="47.52124" lon="6.67052">
        <ele>374</ele>
        <time>2016-12-11T10:28:46.000Z</time>
      </trkpt>
      <trkpt lat="47.52126" lon="6.67062">
        <ele>374</ele>
        <time>2016-12-11T10:28:47.000Z</time>
      </trkpt>
      <trkpt lat="47.52128" lon="6.6707">
        <ele>374</ele>
        <time>2016-12-11T10:28:48.000Z</time>
      </trkpt>
      <trkpt lat="47.5213" lon="6.67078">
        <ele>373</ele>
        <time>2016-12-11T10:28:49.000Z</time>
      </trkpt>
      <trkpt lat="47.52132" lon="6.67086">
        <ele>373</ele>
        <time>2016-12-11T10:28:50.000Z</time>
      </trkpt>
      <trkpt lat="47.52133" lon="6.67093">
        <ele>373</ele>
        <time>2016-12-11T10:28:51.000Z</time>
      </trkpt>
      <trkpt lat="47.52135" lon="6.67101">
        <ele>372</ele>
        <time>2016-12-11T10:28:52.000Z</time>
      </trkpt>
      <trkpt lat="47.52137" lon="6.6711">
        <ele>372</ele>
        <time>2016-12-11T10:28:53.000Z</time>
      </trkpt>
      <trkpt lat="47.52138" lon="6.67118">
        <ele>372</ele>
        <time>2016-12-11T10:28:54.000Z</time>
      </trkpt>
      <trkpt lat="47.5214" lon="6.67127">
        <ele>372</ele>
        <time>2016-12-11T10:28:55.000Z</time>
      </trkpt>
      <trkpt lat="47.52142" lon="6.67136">
        <ele>372</ele>
        <time>2016-12-11T10:28:56.000Z</time>
      </trkpt>
      <trkpt lat="47.52144" lon="6.67145">
        <ele>372</ele>
        <time>2016-12-11T10:28:57.000Z</time>
      </trkpt>
      <trkpt lat="47.52145" lon="6.67152">
        <ele>372</ele>
        <time>2016-12-11T10:28:58.000Z</time>
      </trkpt>
      <trkpt lat="47.52146" lon="6.6716">
        <ele>372</ele>
        <time>2016-12-11T10:28:59.000Z</time>
      </trkpt>
      <trkpt lat="47.52148" lon="6.67169">
        <ele>372</ele>
        <time>2016-12-11T10:29:00.000Z</time>
      </trkpt>
      <trkpt lat="47.5215" lon="6.67177">
        <ele>372</ele>
        <time>2016-12-11T10:29:01.000Z</time>
      </trkpt>
      <trkpt lat="47.52152" lon="6.67186">
        <ele>372</ele>
        <time>2016-12-11T10:29:02.000Z</time>
      </trkpt>
      <trkpt lat="47.52154" lon="6.67194">
        <ele>372</ele>
        <time>2016-12-11T10:29:03.000Z</time>
      </trkpt>
      <trkpt lat="47.52155" lon="6.67202">
        <ele>371</ele>
        <time>2016-12-11T10:29:04.000Z</time>
      </trkpt>
      <trkpt lat="47.52157" lon="6.67209">
        <ele>371</ele>
        <time>2016-12-11T10:29:05.000Z</time>
      </trkpt>
      <trkpt lat="47.52158" lon="6.67216">
        <ele>372</ele>
        <time>2016-12-11T10:29:06.000Z</time>
      </trkpt>
      <trkpt lat="47.52159" lon="6.67223">
        <ele>372</ele>
        <time>2016-12-11T10:29:07.000Z</time>
      </trkpt>
      <trkpt lat="47.52161" lon="6.67231">
        <ele>372</ele>
        <time>2016-12-11T10:29:08.000Z</time>
      </trkpt>
      <trkpt lat="47.52163" lon="6.67239">
        <ele>372</ele>
        <time>2016-12-11T10:29:09.000Z</time>
      </trkpt>
      <trkpt lat="47.52164" lon="6.67247">
        <ele>372</ele>
        <time>2016-12-11T10:29:10.000Z</time>
      </trkpt>
      <trkpt lat="47.52166" lon="6.67254">
        <ele>372</ele>
        <time>2016-12-11T10:29:11.000Z</time>
      </trkpt>
      <trkpt lat="47.52167" lon="6.67261">
        <ele>372</ele>
        <time>2016-12-11T10:29:12.000Z</time>
      </trkpt>
      <trkpt lat="47.52168" lon="6.67268">
        <ele>372</ele>
        <time>2016-12-11T10:29:13.000Z</time>
      </trkpt>
      <trkpt lat="47.52169" lon="6.67275">
        <ele>372</ele>
        <time>2016-12-11T10:29:14.000Z</time>
      </trkpt>
      <trkpt lat="47.5217" lon="6.67282">
        <ele>372</ele>
        <time>2016-12-11T10:29:15.000Z</time>
      </trkpt>
      <trkpt lat="47.52171" lon="6.6729">
        <ele>372</ele>
        <time>2016-12-11T10:29:16.000Z</time>
      </trkpt>
      <trkpt lat="47.52171" lon="6.67298">
        <ele>372</ele>
        <time>2016-12-11T10:29:17.000Z</time>
      </trkpt>
      <trkpt lat="47.52172" lon="6.67306">
        <ele>372</ele>
        <time>2016-12-11T10:29:18.000Z</time>
      </trkpt>
      <trkpt lat="47.52172" lon="6.67315">
        <ele>372</ele>
        <time>2016-12-11T10:29:19.000Z</time>
      </trkpt>
      <trkpt lat="47.52172" lon="6.67324">
        <ele>372</ele>
        <time>2016-12-11T10:29:20.000Z</time>
      </trkpt>
      <trkpt lat="47.52173" lon="6.67333">
        <ele>372</ele>
        <time>2016-12-11T10:29:21.000Z</time>
      </trkpt>
      <trkpt lat="47.52173" lon="6.67341">
        <ele>372</ele>
        <time>2016-12-11T10:29:22.000Z</time>
      </trkpt>
      <trkpt lat="47.52174" lon="6.6735">
        <ele>372</ele>
        <time>2016-12-11T10:29:23.000Z</time>
      </trkpt>
      <trkpt lat="47.52175" lon="6.6736">
        <ele>372</ele>
        <time>2016-12-11T10:29:24.000Z</time>
      </trkpt>
      <trkpt lat="47.52176" lon="6.6737">
        <ele>372</ele>
        <time>2016-12-11T10:29:25.000Z</time>
      </trkpt>
      <trkpt lat="47.52178" lon="6.67379">
        <ele>372</ele>
        <time>2016-12-11T10:29:26.000Z</time>
      </trkpt>
      <trkpt lat="47.5218" lon="6.67388">
        <ele>372</ele>
        <time>2016-12-11T10:29:27.000Z</time>
      </trkpt>
      <trkpt lat="47.52182" lon="6.67397">
        <ele>371</ele>
        <time>2016-12-11T10:29:28.000Z</time>
      </trkpt>
      <trkpt lat="47.52185" lon="6.67406">
        <ele>371</ele>
        <time>2016-12-11T10:29:29.000Z</time>
      </trkpt>
      <trkpt lat="47.52187" lon="6.67414">
        <ele>371</ele>
        <time>2016-12-11T10:29:30.000Z</time>
      </trkpt>
      <trkpt lat="47.5219" lon="6.67422">
        <ele>371</ele>
        <time>2016-12-11T10:29:31.000Z</time>
      </trkpt>
      <trkpt lat="47.52193" lon="6.6743">
        <ele>371</ele>
        <time>2016-12-11T10:29:32.000Z</time>
      </trkpt>
      <trkpt lat="47.52195" lon="6.67437">
        <ele>371</ele>
        <time>2016-12-11T10:29:33.000Z</time>
      </trkpt>
      <trkpt lat="47.52198" lon="6.67443">
        <ele>371</ele>
        <time>2016-12-11T10:29:34.000Z</time>
      </trkpt>
      <trkpt lat="47.522" lon="6.6745">
        <ele>371</ele>
        <time>2016-12-11T10:29:35.000Z</time>
      </trkpt>
      <trkpt lat="47.52202" lon="6.67456">
        <ele>371</ele>
        <time>2016-12-11T10:29:36.000Z</time>
      </trkpt>
      <trkpt lat="47.52204" lon="6.67464">
        <ele>371</ele>
        <time>2016-12-11T10:29:37.000Z</time>
      </trkpt>
      <trkpt lat="47.52206" lon="6.67471">
        <ele>371</ele>
        <time>2016-12-11T10:29:38.000Z</time>
      </trkpt>
      <trkpt lat="47.52208" lon="6.67475">
        <ele>371</ele>
        <time>2016-12-11T10:29:39.000Z</time>
      </trkpt>
      <trkpt lat="47.52208" lon="6.67483">
        <ele>371</ele>
        <time>2016-12-11T10:29:40.000Z</time>
      </trkpt>
      <trkpt lat="47.52208" lon="6.67489">
        <ele>371</ele>
        <time>2016-12-11T10:29:41.000Z</time>
      </trkpt>
      <trkpt lat="47.52209" lon="6.67497">
        <ele>372</ele>
        <time>2016-12-11T10:29:42.000Z</time>
      </trkpt>
      <trkpt lat="47.52209" lon="6.67504">
        <ele>371</ele>
        <time>2016-12-11T10:29:43.000Z</time>
      </trkpt>
      <trkpt lat="47.52209" lon="6.6751">
        <ele>371</ele>
        <time>2016-12-11T10:29:44.000Z</time>
      </trkpt>
      <trkpt lat="47.52208" lon="6.67517">
        <ele>371</ele>
        <time>2016-12-11T10:29:45.000Z</time>
      </trkpt>
      <trkpt lat="47.52208" lon="6.67525">
        <ele>371</ele>
        <time>2016-12-11T10:29:46.000Z</time>
      </trkpt>
      <trkpt lat="47.52208" lon="6.67533">
        <ele>371</ele>
        <time>2016-12-11T10:29:47.000Z</time>
      </trkpt>
      <trkpt lat="47.52207" lon="6.6754">
        <ele>371</ele>
        <time>2016-12-11T10:29:48.000Z</time>
      </trkpt>
      <trkpt lat="47.52207" lon="6.67548">
        <ele>371</ele>
        <time>2016-12-11T10:29:49.000Z</time>
      </trkpt>
      <trkpt lat="47.52207" lon="6.67556">
        <ele>371</ele>
        <time>2016-12-11T10:29:50.000Z</time>
      </trkpt>
      <trkpt lat="47.52207" lon="6.67564">
        <ele>371</ele>
        <time>2016-12-11T10:29:51.000Z</time>
      </trkpt>
      <trkpt lat="47.52207" lon="6.67571">
        <ele>371</ele>
        <time>2016-12-11T10:29:52.000Z</time>
      </trkpt>
      <trkpt lat="47.52207" lon="6.67578">
        <ele>370</ele>
        <time>2016-12-11T10:29:53.000Z</time>
      </trkpt>
      <trkpt lat="47.52207" lon="6.67585">
        <ele>369</ele>
        <time>2016-12-11T10:29:54.000Z</time>
      </trkpt>
      <trkpt lat="47.52207" lon="6.67593">
        <ele>369</ele>
        <time>2016-12-11T10:29:55.000Z</time>
      </trkpt>
      <trkpt lat="47.52207" lon="6.67601">
        <ele>369</ele>
        <time>2016-12-11T10:29:56.000Z</time>
      </trkpt>
      <trkpt lat="47.52207" lon="6.67608">
        <ele>369</ele>
        <time>2016-12-11T10:29:57.000Z</time>
      </trkpt>
      <trkpt lat="47.52206" lon="6.67618">
        <ele>369</ele>
        <time>2016-12-11T10:29:58.000Z</time>
      </trkpt>
      <trkpt lat="47.52206" lon="6.67627">
        <ele>369</ele>
        <time>2016-12-11T10:29:59.000Z</time>
      </trkpt>
      <trkpt lat="47.52206" lon="6.67635">
        <ele>369</ele>
        <time>2016-12-11T10:30:00.000Z</time>
      </trkpt>
      <trkpt lat="47.52205" lon="6.67644">
        <ele>368</ele>
        <time>2016-12-11T10:30:01.000Z</time>
      </trkpt>
      <trkpt lat="47.52204" lon="6.67651">
        <ele>368</ele>
        <time>2016-12-11T10:30:02.000Z</time>
      </trkpt>
      <trkpt lat="47.52204" lon="6.6766">
        <ele>368</ele>
        <time>2016-12-11T10:30:03.000Z</time>
      </trkpt>
      <trkpt lat="47.52204" lon="6.67667">
        <ele>367</ele>
        <time>2016-12-11T10:30:04.000Z</time>
      </trkpt>
      <trkpt lat="47.52203" lon="6.67676">
        <ele>367</ele>
        <time>2016-12-11T10:30:05.000Z</time>
      </trkpt>
      <trkpt lat="47.52203" lon="6.67685">
        <ele>367</ele>
        <time>2016-12-11T10:30:06.000Z</time>
      </trkpt>
      <trkpt lat="47.52202" lon="6.67694">
        <ele>367</ele>
        <time>2016-12-11T10:30:07.000Z</time>
      </trkpt>
      <trkpt lat="47.52202" lon="6.67703">
        <ele>367</ele>
        <time>2016-12-11T10:30:08.000Z</time>
      </trkpt>
      <trkpt lat="47.52201" lon="6.67712">
        <ele>367</ele>
        <time>2016-12-11T10:30:09.000Z</time>
      </trkpt>
      <trkpt lat="47.52201" lon="6.67721">
        <ele>367</ele>
        <time>2016-12-11T10:30:10.000Z</time>
      </trkpt>
      <trkpt lat="47.522" lon="6.6773">
        <ele>367</ele>
        <time>2016-12-11T10:30:11.000Z</time>
      </trkpt>
      <trkpt lat="47.522" lon="6.67739">
        <ele>367</ele>
        <time>2016-12-11T10:30:12.000Z</time>
      </trkpt>
      <trkpt lat="47.52199" lon="6.67748">
        <ele>367</ele>
        <time>2016-12-11T10:30:13.000Z</time>
      </trkpt>
      <trkpt lat="47.52199" lon="6.67757">
        <ele>366</ele>
        <time>2016-12-11T10:30:14.000Z</time>
      </trkpt>
      <trkpt lat="47.52198" lon="6.67767">
        <ele>366</ele>
        <time>2016-12-11T10:30:15.000Z</time>
      </trkpt>
      <trkpt lat="47.52197" lon="6.67776">
        <ele>366</ele>
        <time>2016-12-11T10:30:16.000Z</time>
      </trkpt>
      <trkpt lat="47.52196" lon="6.67786">
        <ele>366</ele>
        <time>2016-12-11T10:30:17.000Z</time>
      </trkpt>
      <trkpt lat="47.52196" lon="6.67796">
        <ele>366</ele>
        <time>2016-12-11T10:30:18.000Z</time>
      </trkpt>
      <trkpt lat="47.52195" lon="6.67804">
        <ele>366</ele>
        <time>2016-12-11T10:30:19.000Z</time>
      </trkpt>
      <trkpt lat="47.52195" lon="6.67812">
        <ele>366</ele>
        <time>2016-12-11T10:30:20.000Z</time>
      </trkpt>
      <trkpt lat="47.52194" lon="6.67821">
        <ele>365</ele>
        <time>2016-12-11T10:30:21.000Z</time>
      </trkpt>
      <trkpt lat="47.52193" lon="6.6783">
        <ele>365</ele>
        <time>2016-12-11T10:30:22.000Z</time>
      </trkpt>
      <trkpt lat="47.52193" lon="6.6784">
        <ele>365</ele>
        <time>2016-12-11T10:30:23.000Z</time>
      </trkpt>
      <trkpt lat="47.52192" lon="6.67849">
        <ele>365</ele>
        <time>2016-12-11T10:30:24.000Z</time>
      </trkpt>
      <trkpt lat="47.52192" lon="6.67858">
        <ele>365</ele>
        <time>2016-12-11T10:30:25.000Z</time>
      </trkpt>
      <trkpt lat="47.52191" lon="6.67865">
        <ele>365</ele>
        <time>2016-12-11T10:30:26.000Z</time>
      </trkpt>
      <trkpt lat="47.52191" lon="6.67874">
        <ele>365</ele>
        <time>2016-12-11T10:30:27.000Z</time>
      </trkpt>
      <trkpt lat="47.5219" lon="6.67883">
        <ele>364</ele>
        <time>2016-12-11T10:30:28.000Z</time>
      </trkpt>
      <trkpt lat="47.52189" lon="6.67891">
        <ele>364</ele>
        <time>2016-12-11T10:30:29.000Z</time>
      </trkpt>
      <trkpt lat="47.52188" lon="6.67899">
        <ele>364</ele>
        <time>2016-12-11T10:30:30.000Z</time>
      </trkpt>
      <trkpt lat="47.52188" lon="6.67907">
        <ele>364</ele>
        <time>2016-12-11T10:30:31.000Z</time>
      </trkpt>
      <trkpt lat="47.52187" lon="6.67915">
        <ele>364</ele>
        <time>2016-12-11T10:30:32.000Z</time>
      </trkpt>
      <trkpt lat="47.52186" lon="6.67924">
        <ele>364</ele>
        <time>2016-12-11T10:30:33.000Z</time>
      </trkpt>
      <trkpt lat="47.52186" lon="6.67932">
        <ele>364</ele>
        <time>2016-12-11T10:30:34.000Z</time>
      </trkpt>
      <trkpt lat="47.52185" lon="6.67941">
        <ele>364</ele>
        <time>2016-12-11T10:30:35.000Z</time>
      </trkpt>
      <trkpt lat="47.52185" lon="6.6795">
        <ele>364</ele>
        <time>2016-12-11T10:30:36.000Z</time>
      </trkpt>
      <trkpt lat="47.52184" lon="6.67959">
        <ele>363</ele>
        <time>2016-12-11T10:30:37.000Z</time>
      </trkpt>
      <trkpt lat="47.52184" lon="6.67968">
        <ele>363</ele>
        <time>2016-12-11T10:30:38.000Z</time>
      </trkpt>
      <trkpt lat="47.52183" lon="6.67978">
        <ele>363</ele>
        <time>2016-12-11T10:30:39.000Z</time>
      </trkpt>
      <trkpt lat="47.52182" lon="6.67987">
        <ele>363</ele>
        <time>2016-12-11T10:30:40.000Z</time>
      </trkpt>
      <trkpt lat="47.52182" lon="6.67995">
        <ele>363</ele>
        <time>2016-12-11T10:30:41.000Z</time>
      </trkpt>
      <trkpt lat="47.52181" lon="6.68005">
        <ele>363</ele>
        <time>2016-12-11T10:30:42.000Z</time>
      </trkpt>
      <trkpt lat="47.52181" lon="6.68012">
        <ele>363</ele>
        <time>2016-12-11T10:30:43.000Z</time>
      </trkpt>
      <trkpt lat="47.5218" lon="6.68021">
        <ele>363</ele>
        <time>2016-12-11T10:30:44.000Z</time>
      </trkpt>
      <trkpt lat="47.5218" lon="6.6803">
        <ele>363</ele>
        <time>2016-12-11T10:30:45.000Z</time>
      </trkpt>
      <trkpt lat="47.52179" lon="6.68039">
        <ele>363</ele>
        <time>2016-12-11T10:30:46.000Z</time>
      </trkpt>
      <trkpt lat="47.52178" lon="6.68047">
        <ele>362</ele>
        <time>2016-12-11T10:30:47.000Z</time>
      </trkpt>
      <trkpt lat="47.52178" lon="6.68055">
        <ele>362</ele>
        <time>2016-12-11T10:30:48.000Z</time>
      </trkpt>
      <trkpt lat="47.52177" lon="6.68063">
        <ele>362</ele>
        <time>2016-12-11T10:30:49.000Z</time>
      </trkpt>
      <trkpt lat="47.52176" lon="6.68071">
        <ele>362</ele>
        <time>2016-12-11T10:30:50.000Z</time>
      </trkpt>
      <trkpt lat="47.52175" lon="6.68079">
        <ele>362</ele>
        <time>2016-12-11T10:30:51.000Z</time>
      </trkpt>
      <trkpt lat="47.52175" lon="6.68087">
        <ele>362</ele>
        <time>2016-12-11T10:30:52.000Z</time>
      </trkpt>
      <trkpt lat="47.52174" lon="6.68095">
        <ele>362</ele>
        <time>2016-12-11T10:30:53.000Z</time>
      </trkpt>
      <trkpt lat="47.52173" lon="6.68104">
        <ele>361</ele>
        <time>2016-12-11T10:30:54.000Z</time>
      </trkpt>
      <trkpt lat="47.52172" lon="6.68112">
        <ele>361</ele>
        <time>2016-12-11T10:30:55.000Z</time>
      </trkpt>
      <trkpt lat="47.52171" lon="6.6812">
        <ele>361</ele>
        <time>2016-12-11T10:30:56.000Z</time>
      </trkpt>
      <trkpt lat="47.52168" lon="6.68127">
        <ele>361</ele>
        <time>2016-12-11T10:30:57.000Z</time>
      </trkpt>
      <trkpt lat="47.52165" lon="6.68135">
        <ele>361</ele>
        <time>2016-12-11T10:30:58.000Z</time>
      </trkpt>
      <trkpt lat="47.52162" lon="6.68142">
        <ele>361</ele>
        <time>2016-12-11T10:30:59.000Z</time>
      </trkpt>
      <trkpt lat="47.52161" lon="6.6815">
        <ele>361</ele>
        <time>2016-12-11T10:31:00.000Z</time>
      </trkpt>
      <trkpt lat="47.5216" lon="6.6816">
        <ele>361</ele>
        <time>2016-12-11T10:31:01.000Z</time>
      </trkpt>
      <trkpt lat="47.5216" lon="6.68168">
        <ele>360</ele>
        <time>2016-12-11T10:31:02.000Z</time>
      </trkpt>
      <trkpt lat="47.5216" lon="6.68177">
        <ele>360</ele>
        <time>2016-12-11T10:31:03.000Z</time>
      </trkpt>
      <trkpt lat="47.52161" lon="6.68186">
        <ele>360</ele>
        <time>2016-12-11T10:31:04.000Z</time>
      </trkpt>
      <trkpt lat="47.52161" lon="6.68195">
        <ele>360</ele>
        <time>2016-12-11T10:31:05.000Z</time>
      </trkpt>
      <trkpt lat="47.52162" lon="6.68204">
        <ele>360</ele>
        <time>2016-12-11T10:31:06.000Z</time>
      </trkpt>
      <trkpt lat="47.52163" lon="6.68213">
        <ele>360</ele>
        <time>2016-12-11T10:31:07.000Z</time>
      </trkpt>
      <trkpt lat="47.52164" lon="6.68224">
        <ele>360</ele>
        <time>2016-12-11T10:31:08.000Z</time>
      </trkpt>
      <trkpt lat="47.52165" lon="6.68235">
        <ele>360</ele>
        <time>2016-12-11T10:31:09.000Z</time>
      </trkpt>
      <trkpt lat="47.52168" lon="6.68244">
        <ele>359</ele>
        <time>2016-12-11T10:31:10.000Z</time>
      </trkpt>
      <trkpt lat="47.52171" lon="6.68253">
        <ele>359</ele>
        <time>2016-12-11T10:31:11.000Z</time>
      </trkpt>
      <trkpt lat="47.52174" lon="6.68262">
        <ele>359</ele>
        <time>2016-12-11T10:31:12.000Z</time>
      </trkpt>
      <trkpt lat="47.52176" lon="6.6827">
        <ele>359</ele>
        <time>2016-12-11T10:31:13.000Z</time>
      </trkpt>
      <trkpt lat="47.52178" lon="6.6828">
        <ele>359</ele>
        <time>2016-12-11T10:31:14.000Z</time>
      </trkpt>
      <trkpt lat="47.5218" lon="6.68289">
        <ele>359</ele>
        <time>2016-12-11T10:31:15.000Z</time>
      </trkpt>
      <trkpt lat="47.52181" lon="6.68297">
        <ele>359</ele>
        <time>2016-12-11T10:31:16.000Z</time>
      </trkpt>
      <trkpt lat="47.52183" lon="6.68304">
        <ele>359</ele>
        <time>2016-12-11T10:31:17.000Z</time>
      </trkpt>
      <trkpt lat="47.52184" lon="6.6831">
        <ele>359</ele>
        <time>2016-12-11T10:31:18.000Z</time>
      </trkpt>
      <trkpt lat="47.52186" lon="6.68317">
        <ele>359</ele>
        <time>2016-12-11T10:31:19.000Z</time>
      </trkpt>
      <trkpt lat="47.52187" lon="6.68324">
        <ele>359</ele>
        <time>2016-12-11T10:31:20.000Z</time>
      </trkpt>
      <trkpt lat="47.52189" lon="6.68331">
        <ele>359</ele>
        <time>2016-12-11T10:31:21.000Z</time>
      </trkpt>
      <trkpt lat="47.5219" lon="6.68337">
        <ele>359</ele>
        <time>2016-12-11T10:31:22.000Z</time>
      </trkpt>
      <trkpt lat="47.52192" lon="6.68342">
        <ele>359</ele>
        <time>2016-12-11T10:31:23.000Z</time>
      </trkpt>
      <trkpt lat="47.52193" lon="6.68346">
        <ele>359</ele>
        <time>2016-12-11T10:31:24.000Z</time>
      </trkpt>
      <trkpt lat="47.52194" lon="6.68352">
        <ele>359</ele>
        <time>2016-12-11T10:31:25.000Z</time>
      </trkpt>
      <trkpt lat="47.52195" lon="6.6836">
        <ele>359</ele>
        <time>2016-12-11T10:31:26.000Z</time>
      </trkpt>
      <trkpt lat="47.52196" lon="6.68367">
        <ele>359</ele>
        <time>2016-12-11T10:31:27.000Z</time>
      </trkpt>
      <trkpt lat="47.52198" lon="6.68374">
        <ele>359</ele>
        <time>2016-12-11T10:31:28.000Z</time>
      </trkpt>
      <trkpt lat="47.52199" lon="6.6838">
        <ele>359</ele>
        <time>2016-12-11T10:31:29.000Z</time>
      </trkpt>
      <trkpt lat="47.522" lon="6.68386">
        <ele>359</ele>
        <time>2016-12-11T10:31:30.000Z</time>
      </trkpt>
      <trkpt lat="47.52201" lon="6.68392">
        <ele>359</ele>
        <time>2016-12-11T10:31:31.000Z</time>
      </trkpt>
      <trkpt lat="47.52202" lon="6.684">
        <ele>359</ele>
        <time>2016-12-11T10:31:32.000Z</time>
      </trkpt>
      <trkpt lat="47.52203" lon="6.68408">
        <ele>359</ele>
        <time>2016-12-11T10:31:33.000Z</time>
      </trkpt>
      <trkpt lat="47.52204" lon="6.68415">
        <ele>359</ele>
        <time>2016-12-11T10:31:34.000Z</time>
      </trkpt>
      <trkpt lat="47.52205" lon="6.68422">
        <ele>358</ele>
        <time>2016-12-11T10:31:35.000Z</time>
      </trkpt>
      <trkpt lat="47.52207" lon="6.6843">
        <ele>358</ele>
        <time>2016-12-11T10:31:36.000Z</time>
      </trkpt>
      <trkpt lat="47.52208" lon="6.68436">
        <ele>358</ele>
        <time>2016-12-11T10:31:37.000Z</time>
      </trkpt>
      <trkpt lat="47.52209" lon="6.68444">
        <ele>359</ele>
        <time>2016-12-11T10:31:38.000Z</time>
      </trkpt>
      <trkpt lat="47.52211" lon="6.68451">
        <ele>359</ele>
        <time>2016-12-11T10:31:39.000Z</time>
      </trkpt>
      <trkpt lat="47.52212" lon="6.68458">
        <ele>359</ele>
        <time>2016-12-11T10:31:40.000Z</time>
      </trkpt>
      <trkpt lat="47.52214" lon="6.68465">
        <ele>359</ele>
        <time>2016-12-11T10:31:41.000Z</time>
      </trkpt>
      <trkpt lat="47.52215" lon="6.68471">
        <ele>359</ele>
        <time>2016-12-11T10:31:42.000Z</time>
      </trkpt>
      <trkpt lat="47.52217" lon="6.68479">
        <ele>359</ele>
        <time>2016-12-11T10:31:43.000Z</time>
      </trkpt>
      <trkpt lat="47.52218" lon="6.68487">
        <ele>359</ele>
        <time>2016-12-11T10:31:44.000Z</time>
      </trkpt>
      <trkpt lat="47.5222" lon="6.68494">
        <ele>359</ele>
        <time>2016-12-11T10:31:45.000Z</time>
      </trkpt>
      <trkpt lat="47.52221" lon="6.68499">
        <ele>359</ele>
        <time>2016-12-11T10:31:46.000Z</time>
      </trkpt>
      <trkpt lat="47.52223" lon="6.68506">
        <ele>360</ele>
        <time>2016-12-11T10:31:47.000Z</time>
      </trkpt>
      <trkpt lat="47.52224" lon="6.68511">
        <ele>360</ele>
        <time>2016-12-11T10:31:48.000Z</time>
      </trkpt>
      <trkpt lat="47.52226" lon="6.68517">
        <ele>360</ele>
        <time>2016-12-11T10:31:49.000Z</time>
      </trkpt>
      <trkpt lat="47.52228" lon="6.68522">
        <ele>360</ele>
        <time>2016-12-11T10:31:50.000Z</time>
      </trkpt>
      <trkpt lat="47.5223" lon="6.68527">
        <ele>360</ele>
        <time>2016-12-11T10:31:51.000Z</time>
      </trkpt>
      <trkpt lat="47.52232" lon="6.68532">
        <ele>360</ele>
        <time>2016-12-11T10:31:52.000Z</time>
      </trkpt>
      <trkpt lat="47.52234" lon="6.68537">
        <ele>360</ele>
        <time>2016-12-11T10:31:53.000Z</time>
      </trkpt>
      <trkpt lat="47.52235" lon="6.68541">
        <ele>360</ele>
        <time>2016-12-11T10:31:54.000Z</time>
      </trkpt>
      <trkpt lat="47.52237" lon="6.68545">
        <ele>360</ele>
        <time>2016-12-11T10:31:55.000Z</time>
      </trkpt>
      <trkpt lat="47.52239" lon="6.68548">
        <ele>360</ele>
        <time>2016-12-11T10:31:56.000Z</time>
      </trkpt>
      <trkpt lat="47.52241" lon="6.68551">
        <ele>361</ele>
        <time>2016-12-11T10:31:57.000Z</time>
      </trkpt>
      <trkpt lat="47.52244" lon="6.68555">
        <ele>361</ele>
        <time>2016-12-11T10:31:58.000Z</time>
      </trkpt>
      <trkpt lat="47.52247" lon="6.68559">
        <ele>361</ele>
        <time>2016-12-11T10:31:59.000Z</time>
      </trkpt>
      <trkpt lat="47.52249" lon="6.68563">
        <ele>361</ele>
        <time>2016-12-11T10:32:00.000Z</time>
      </trkpt>
      <trkpt lat="47.52252" lon="6.68566">
        <ele>364</ele>
        <time>2016-12-11T10:32:01.000Z</time>
      </trkpt>
      <trkpt lat="47.52254" lon="6.68569">
        <ele>364</ele>
        <time>2016-12-11T10:32:02.000Z</time>
      </trkpt>
      <trkpt lat="47.52257" lon="6.68571">
        <ele>364</ele>
        <time>2016-12-11T10:32:03.000Z</time>
      </trkpt>
      <trkpt lat="47.5226" lon="6.68572">
        <ele>364</ele>
        <time>2016-12-11T10:32:04.000Z</time>
      </trkpt>
      <trkpt lat="47.52262" lon="6.68574">
        <ele>364</ele>
        <time>2016-12-11T10:32:05.000Z</time>
      </trkpt>
      <trkpt lat="47.52264" lon="6.68575">
        <ele>364</ele>
        <time>2016-12-11T10:32:06.000Z</time>
      </trkpt>
      <trkpt lat="47.52266" lon="6.68577">
        <ele>364</ele>
        <time>2016-12-11T10:32:07.000Z</time>
      </trkpt>
      <trkpt lat="47.52269" lon="6.68578">
        <ele>365</ele>
        <time>2016-12-11T10:32:08.000Z</time>
      </trkpt>
      <trkpt lat="47.52272" lon="6.68578">
        <ele>365</ele>
        <time>2016-12-11T10:32:09.000Z</time>
      </trkpt>
      <trkpt lat="47.52274" lon="6.68578">
        <ele>365</ele>
        <time>2016-12-11T10:32:10.000Z</time>
      </trkpt>
      <trkpt lat="47.52277" lon="6.68577">
        <ele>365</ele>
        <time>2016-12-11T10:32:11.000Z</time>
      </trkpt>
      <trkpt lat="47.52279" lon="6.68577">
        <ele>365</ele>
        <time>2016-12-11T10:32:12.000Z</time>
      </trkpt>
      <trkpt lat="47.52282" lon="6.68576">
        <ele>365</ele>
        <time>2016-12-11T10:32:13.000Z</time>
      </trkpt>
      <trkpt lat="47.52284" lon="6.68575">
        <ele>366</ele>
        <time>2016-12-11T10:32:14.000Z</time>
      </trkpt>
      <trkpt lat="47.52287" lon="6.68574">
        <ele>366</ele>
        <time>2016-12-11T10:32:15.000Z</time>
      </trkpt>
      <trkpt lat="47.5229" lon="6.68573">
        <ele>366</ele>
        <time>2016-12-11T10:32:16.000Z</time>
      </trkpt>
      <trkpt lat="47.52293" lon="6.68572">
        <ele>366</ele>
        <time>2016-12-11T10:32:17.000Z</time>
      </trkpt>
      <trkpt lat="47.52297" lon="6.6857">
        <ele>366</ele>
        <time>2016-12-11T10:32:19.000Z</time>
      </trkpt>
      <trkpt lat="47.52298" lon="6.68569">
        <ele>367</ele>
        <time>2016-12-11T10:32:20.000Z</time>
      </trkpt>
      <trkpt lat="47.523" lon="6.68567">
        <ele>367</ele>
        <time>2016-12-11T10:32:21.000Z</time>
      </trkpt>
      <trkpt lat="47.52303" lon="6.68567">
        <ele>367</ele>
        <time>2016-12-11T10:32:22.000Z</time>
      </trkpt>
      <trkpt lat="47.52307" lon="6.68565">
        <ele>367</ele>
        <time>2016-12-11T10:32:25.000Z</time>
      </trkpt>
      <trkpt lat="47.52309" lon="6.68565">
        <ele>367</ele>
        <time>2016-12-11T10:32:26.000Z</time>
      </trkpt>
      <trkpt lat="47.52313" lon="6.68564">
        <ele>367</ele>
        <time>2016-12-11T10:32:28.000Z</time>
      </trkpt>
      <trkpt lat="47.52315" lon="6.68562">
        <ele>368</ele>
        <time>2016-12-11T10:32:29.000Z</time>
      </trkpt>
      <trkpt lat="47.52317" lon="6.68561">
        <ele>368</ele>
        <time>2016-12-11T10:32:30.000Z</time>
      </trkpt>
      <trkpt lat="47.52319" lon="6.68561">
        <ele>368</ele>
        <time>2016-12-11T10:32:31.000Z</time>
      </trkpt>
      <trkpt lat="47.52322" lon="6.68561">
        <ele>368</ele>
        <time>2016-12-11T10:32:32.000Z</time>
      </trkpt>
      <trkpt lat="47.52325" lon="6.6856">
        <ele>368</ele>
        <time>2016-12-11T10:32:33.000Z</time>
      </trkpt>
      <trkpt lat="47.52328" lon="6.68559">
        <ele>368</ele>
        <time>2016-12-11T10:32:34.000Z</time>
      </trkpt>
      <trkpt lat="47.52331" lon="6.68557">
        <ele>368</ele>
        <time>2016-12-11T10:32:35.000Z</time>
      </trkpt>
      <trkpt lat="47.52334" lon="6.68556">
        <ele>371</ele>
        <time>2016-12-11T10:32:36.000Z</time>
      </trkpt>
      <trkpt lat="47.52336" lon="6.68555">
        <ele>371</ele>
        <time>2016-12-11T10:32:37.000Z</time>
      </trkpt>
      <trkpt lat="47.52338" lon="6.68553">
        <ele>371</ele>
        <time>2016-12-11T10:32:38.000Z</time>
      </trkpt>
      <trkpt lat="47.52341" lon="6.68551">
        <ele>371</ele>
        <time>2016-12-11T10:32:39.000Z</time>
      </trkpt>
      <trkpt lat="47.52344" lon="6.68549">
        <ele>371</ele>
        <time>2016-12-11T10:32:40.000Z</time>
      </trkpt>
      <trkpt lat="47.52346" lon="6.68548">
        <ele>371</ele>
        <time>2016-12-11T10:32:41.000Z</time>
      </trkpt>
      <trkpt lat="47.5235" lon="6.68546">
        <ele>371</ele>
        <time>2016-12-11T10:32:43.000Z</time>
      </trkpt>
      <trkpt lat="47.52352" lon="6.68546">
        <ele>371</ele>
        <time>2016-12-11T10:32:44.000Z</time>
      </trkpt>
      <trkpt lat="47.52355" lon="6.68546">
        <ele>371</ele>
        <time>2016-12-11T10:32:45.000Z</time>
      </trkpt>
      <trkpt lat="47.5236" lon="6.68546">
        <ele>371</ele>
        <time>2016-12-11T10:32:46.000Z</time>
      </trkpt>
      <trkpt lat="47.52365" lon="6.68547">
        <ele>371</ele>
        <time>2016-12-11T10:32:47.000Z</time>
      </trkpt>
      <trkpt lat="47.52369" lon="6.68551">
        <ele>372</ele>
        <time>2016-12-11T10:32:48.000Z</time>
      </trkpt>
      <trkpt lat="47.52373" lon="6.68556">
        <ele>372</ele>
        <time>2016-12-11T10:32:49.000Z</time>
      </trkpt>
      <trkpt lat="47.52374" lon="6.6856">
        <ele>372</ele>
        <time>2016-12-11T10:32:50.000Z</time>
      </trkpt>
      <trkpt lat="47.52375" lon="6.68563">
        <ele>372</ele>
        <time>2016-12-11T10:32:51.000Z</time>
      </trkpt>
      <trkpt lat="47.52376" lon="6.68568">
        <ele>372</ele>
        <time>2016-12-11T10:32:52.000Z</time>
      </trkpt>
      <trkpt lat="47.52377" lon="6.68572">
        <ele>372</ele>
        <time>2016-12-11T10:32:53.000Z</time>
      </trkpt>
      <trkpt lat="47.52377" lon="6.68576">
        <ele>372</ele>
        <time>2016-12-11T10:32:54.000Z</time>
      </trkpt>
      <trkpt lat="47.52378" lon="6.6858">
        <ele>372</ele>
        <time>2016-12-11T10:32:55.000Z</time>
      </trkpt>
      <trkpt lat="47.52377" lon="6.68584">
        <ele>373</ele>
        <time>2016-12-11T10:32:56.000Z</time>
      </trkpt>
      <trkpt lat="47.52376" lon="6.68588">
        <ele>373</ele>
        <time>2016-12-11T10:32:57.000Z</time>
      </trkpt>
      <trkpt lat="47.52375" lon="6.68592">
        <ele>373</ele>
        <time>2016-12-11T10:32:58.000Z</time>
      </trkpt>
      <trkpt lat="47.52373" lon="6.68596">
        <ele>373</ele>
        <time>2016-12-11T10:32:59.000Z</time>
      </trkpt>
      <trkpt lat="47.52372" lon="6.68599">
        <ele>373</ele>
        <time>2016-12-11T10:33:00.000Z</time>
      </trkpt>
      <trkpt lat="47.52371" lon="6.68603">
        <ele>373</ele>
        <time>2016-12-11T10:33:01.000Z</time>
      </trkpt>
      <trkpt lat="47.52369" lon="6.68607">
        <ele>373</ele>
        <time>2016-12-11T10:33:02.000Z</time>
      </trkpt>
      <trkpt lat="47.52368" lon="6.6861">
        <ele>372</ele>
        <time>2016-12-11T10:33:03.000Z</time>
      </trkpt>
      <trkpt lat="47.52367" lon="6.68614">
        <ele>372</ele>
        <time>2016-12-11T10:33:04.000Z</time>
      </trkpt>
      <trkpt lat="47.52366" lon="6.68617">
        <ele>372</ele>
        <time>2016-12-11T10:33:05.000Z</time>
      </trkpt>
      <trkpt lat="47.52364" lon="6.6862">
        <ele>372</ele>
        <time>2016-12-11T10:33:06.000Z</time>
      </trkpt>
      <trkpt lat="47.52362" lon="6.68623">
        <ele>372</ele>
        <time>2016-12-11T10:33:07.000Z</time>
      </trkpt>
      <trkpt lat="47.5236" lon="6.68627">
        <ele>372</ele>
        <time>2016-12-11T10:33:08.000Z</time>
      </trkpt>
      <trkpt lat="47.52359" lon="6.68632">
        <ele>372</ele>
        <time>2016-12-11T10:33:09.000Z</time>
      </trkpt>
      <trkpt lat="47.52358" lon="6.68636">
        <ele>372</ele>
        <time>2016-12-11T10:33:10.000Z</time>
      </trkpt>
      <trkpt lat="47.52356" lon="6.6864">
        <ele>372</ele>
        <time>2016-12-11T10:33:11.000Z</time>
      </trkpt>
      <trkpt lat="47.52355" lon="6.68644">
        <ele>372</ele>
        <time>2016-12-11T10:33:12.000Z</time>
      </trkpt>
      <trkpt lat="47.52354" lon="6.68648">
        <ele>372</ele>
        <time>2016-12-11T10:33:13.000Z</time>
      </trkpt>
      <trkpt lat="47.52353" lon="6.68653">
        <ele>372</ele>
        <time>2016-12-11T10:33:14.000Z</time>
      </trkpt>
      <trkpt lat="47.52351" lon="6.68659">
        <ele>372</ele>
        <time>2016-12-11T10:33:15.000Z</time>
      </trkpt>
      <trkpt lat="47.5235" lon="6.68664">
        <ele>372</ele>
        <time>2016-12-11T10:33:16.000Z</time>
      </trkpt>
      <trkpt lat="47.52348" lon="6.6867">
        <ele>371</ele>
        <time>2016-12-11T10:33:17.000Z</time>
      </trkpt>
      <trkpt lat="47.52348" lon="6.68673">
        <ele>371</ele>
        <time>2016-12-11T10:33:18.000Z</time>
      </trkpt>
      <trkpt lat="47.52347" lon="6.68678">
        <ele>371</ele>
        <time>2016-12-11T10:33:19.000Z</time>
      </trkpt>
      <trkpt lat="47.52347" lon="6.68682">
        <ele>371</ele>
        <time>2016-12-11T10:33:20.000Z</time>
      </trkpt>
      <trkpt lat="47.52346" lon="6.68687">
        <ele>371</ele>
        <time>2016-12-11T10:33:21.000Z</time>
      </trkpt>
      <trkpt lat="47.52347" lon="6.68692">
        <ele>371</ele>
        <time>2016-12-11T10:33:22.000Z</time>
      </trkpt>
      <trkpt lat="47.52347" lon="6.68695">
        <ele>371</ele>
        <time>2016-12-11T10:33:23.000Z</time>
      </trkpt>
      <trkpt lat="47.52348" lon="6.68697">
        <ele>371</ele>
        <time>2016-12-11T10:33:24.000Z</time>
      </trkpt>
      <trkpt lat="47.52349" lon="6.68701">
        <ele>371</ele>
        <time>2016-12-11T10:33:25.000Z</time>
      </trkpt>
      <trkpt lat="47.52351" lon="6.68706">
        <ele>371</ele>
        <time>2016-12-11T10:33:26.000Z</time>
      </trkpt>
      <trkpt lat="47.52352" lon="6.6871">
        <ele>371</ele>
        <time>2016-12-11T10:33:27.000Z</time>
      </trkpt>
      <trkpt lat="47.52354" lon="6.68714">
        <ele>371</ele>
        <time>2016-12-11T10:33:28.000Z</time>
      </trkpt>
      <trkpt lat="47.52356" lon="6.68718">
        <ele>371</ele>
        <time>2016-12-11T10:33:29.000Z</time>
      </trkpt>
      <trkpt lat="47.52358" lon="6.68722">
        <ele>371</ele>
        <time>2016-12-11T10:33:30.000Z</time>
      </trkpt>
      <trkpt lat="47.52359" lon="6.68726">
        <ele>371</ele>
        <time>2016-12-11T10:33:31.000Z</time>
      </trkpt>
      <trkpt lat="47.52361" lon="6.6873">
        <ele>371</ele>
        <time>2016-12-11T10:33:32.000Z</time>
      </trkpt>
      <trkpt lat="47.52362" lon="6.68735">
        <ele>371</ele>
        <time>2016-12-11T10:33:33.000Z</time>
      </trkpt>
      <trkpt lat="47.52364" lon="6.6874">
        <ele>371</ele>
        <time>2016-12-11T10:33:34.000Z</time>
      </trkpt>
      <trkpt lat="47.52366" lon="6.68744">
        <ele>371</ele>
        <time>2016-12-11T10:33:35.000Z</time>
      </trkpt>
      <trkpt lat="47.52367" lon="6.68748">
        <ele>371</ele>
        <time>2016-12-11T10:33:36.000Z</time>
      </trkpt>
      <trkpt lat="47.52368" lon="6.68753">
        <ele>371</ele>
        <time>2016-12-11T10:33:37.000Z</time>
      </trkpt>
      <trkpt lat="47.5237" lon="6.68758">
        <ele>371</ele>
        <time>2016-12-11T10:33:38.000Z</time>
      </trkpt>
      <trkpt lat="47.52371" lon="6.68762">
        <ele>371</ele>
        <time>2016-12-11T10:33:39.000Z</time>
      </trkpt>
      <trkpt lat="47.52372" lon="6.68767">
        <ele>371</ele>
        <time>2016-12-11T10:33:40.000Z</time>
      </trkpt>
      <trkpt lat="47.52374" lon="6.68772">
        <ele>371</ele>
        <time>2016-12-11T10:33:41.000Z</time>
      </trkpt>
      <trkpt lat="47.52376" lon="6.68777">
        <ele>371</ele>
        <time>2016-12-11T10:33:42.000Z</time>
      </trkpt>
      <trkpt lat="47.52377" lon="6.68781">
        <ele>371</ele>
        <time>2016-12-11T10:33:43.000Z</time>
      </trkpt>
      <trkpt lat="47.52378" lon="6.68786">
        <ele>371</ele>
        <time>2016-12-11T10:33:44.000Z</time>
      </trkpt>
      <trkpt lat="47.52379" lon="6.68791">
        <ele>371</ele>
        <time>2016-12-11T10:33:45.000Z</time>
      </trkpt>
      <trkpt lat="47.5238" lon="6.68795">
        <ele>371</ele>
        <time>2016-12-11T10:33:46.000Z</time>
      </trkpt>
      <trkpt lat="47.52382" lon="6.688">
        <ele>371</ele>
        <time>2016-12-11T10:33:47.000Z</time>
      </trkpt>
      <trkpt lat="47.52384" lon="6.68806">
        <ele>371</ele>
        <time>2016-12-11T10:33:48.000Z</time>
      </trkpt>
      <trkpt lat="47.52386" lon="6.68812">
        <ele>371</ele>
        <time>2016-12-11T10:33:49.000Z</time>
      </trkpt>
      <trkpt lat="47.52387" lon="6.68817">
        <ele>371</ele>
        <time>2016-12-11T10:33:50.000Z</time>
      </trkpt>
      <trkpt lat="47.52388" lon="6.68821">
        <ele>371</ele>
        <time>2016-12-11T10:34:00.000Z</time>
      </trkpt>
      <trkpt lat="47.52395" lon="6.68831">
        <ele>370</ele>
        <time>2016-12-11T10:34:01.000Z</time>
      </trkpt>
      <trkpt lat="47.52397" lon="6.68834">
        <ele>370</ele>
        <time>2016-12-11T10:34:03.000Z</time>
      </trkpt>
      <trkpt lat="47.52399" lon="6.68837">
        <ele>370</ele>
        <time>2016-12-11T10:34:04.000Z</time>
      </trkpt>
      <trkpt lat="47.524" lon="6.68841">
        <ele>370</ele>
        <time>2016-12-11T10:34:05.000Z</time>
      </trkpt>
      <trkpt lat="47.52402" lon="6.68844">
        <ele>370</ele>
        <time>2016-12-11T10:34:06.000Z</time>
      </trkpt>
      <trkpt lat="47.52404" lon="6.68849">
        <ele>370</ele>
        <time>2016-12-11T10:34:07.000Z</time>
      </trkpt>
      <trkpt lat="47.52405" lon="6.68852">
        <ele>370</ele>
        <time>2016-12-11T10:34:08.000Z</time>
      </trkpt>
      <trkpt lat="47.52408" lon="6.68857">
        <ele>369</ele>
        <time>2016-12-11T10:34:09.000Z</time>
      </trkpt>
      <trkpt lat="47.52411" lon="6.68862">
        <ele>369</ele>
        <time>2016-12-11T10:34:10.000Z</time>
      </trkpt>
      <trkpt lat="47.52414" lon="6.68868">
        <ele>369</ele>
        <time>2016-12-11T10:34:11.000Z</time>
      </trkpt>
      <trkpt lat="47.52417" lon="6.68873">
        <ele>368</ele>
        <time>2016-12-11T10:34:12.000Z</time>
      </trkpt>
      <trkpt lat="47.5242" lon="6.68877">
        <ele>368</ele>
        <time>2016-12-11T10:34:13.000Z</time>
      </trkpt>
      <trkpt lat="47.52423" lon="6.68881">
        <ele>368</ele>
        <time>2016-12-11T10:34:14.000Z</time>
      </trkpt>
      <trkpt lat="47.52426" lon="6.68887">
        <ele>368</ele>
        <time>2016-12-11T10:34:15.000Z</time>
      </trkpt>
      <trkpt lat="47.5243" lon="6.68893">
        <ele>368</ele>
        <time>2016-12-11T10:34:16.000Z</time>
      </trkpt>
      <trkpt lat="47.52435" lon="6.68901">
        <ele>368</ele>
        <time>2016-12-11T10:34:17.000Z</time>
      </trkpt>
      <trkpt lat="47.5244" lon="6.68908">
        <ele>368</ele>
        <time>2016-12-11T10:34:18.000Z</time>
      </trkpt>
      <trkpt lat="47.52445" lon="6.68915">
        <ele>368</ele>
        <time>2016-12-11T10:34:19.000Z</time>
      </trkpt>
      <trkpt lat="47.52449" lon="6.68923">
        <ele>366</ele>
        <time>2016-12-11T10:34:20.000Z</time>
      </trkpt>
      <trkpt lat="47.52454" lon="6.68931">
        <ele>366</ele>
        <time>2016-12-11T10:34:21.000Z</time>
      </trkpt>
      <trkpt lat="47.52459" lon="6.68939">
        <ele>366</ele>
        <time>2016-12-11T10:34:22.000Z</time>
      </trkpt>
      <trkpt lat="47.52462" lon="6.68944">
        <ele>365</ele>
        <time>2016-12-11T10:34:23.000Z</time>
      </trkpt>
      <trkpt lat="47.52467" lon="6.68952">
        <ele>365</ele>
        <time>2016-12-11T10:34:24.000Z</time>
      </trkpt>
      <trkpt lat="47.52471" lon="6.68959">
        <ele>365</ele>
        <time>2016-12-11T10:34:25.000Z</time>
      </trkpt>
      <trkpt lat="47.52475" lon="6.68967">
        <ele>365</ele>
        <time>2016-12-11T10:34:26.000Z</time>
      </trkpt>
      <trkpt lat="47.52479" lon="6.68973">
        <ele>365</ele>
        <time>2016-12-11T10:34:27.000Z</time>
      </trkpt>
      <trkpt lat="47.52484" lon="6.6898">
        <ele>364</ele>
        <time>2016-12-11T10:34:28.000Z</time>
      </trkpt>
      <trkpt lat="47.52489" lon="6.68987">
        <ele>364</ele>
        <time>2016-12-11T10:34:29.000Z</time>
      </trkpt>
      <trkpt lat="47.52494" lon="6.68994">
        <ele>364</ele>
        <time>2016-12-11T10:34:30.000Z</time>
      </trkpt>
      <trkpt lat="47.52499" lon="6.69001">
        <ele>363</ele>
        <time>2016-12-11T10:34:31.000Z</time>
      </trkpt>
      <trkpt lat="47.52505" lon="6.69008">
        <ele>362</ele>
        <time>2016-12-11T10:34:32.000Z</time>
      </trkpt>
      <trkpt lat="47.5251" lon="6.69014">
        <ele>362</ele>
        <time>2016-12-11T10:34:33.000Z</time>
      </trkpt>
      <trkpt lat="47.52515" lon="6.69021">
        <ele>362</ele>
        <time>2016-12-11T10:34:34.000Z</time>
      </trkpt>
      <trkpt lat="47.5252" lon="6.69027">
        <ele>361</ele>
        <time>2016-12-11T10:34:35.000Z</time>
      </trkpt>
      <trkpt lat="47.52525" lon="6.69033">
        <ele>361</ele>
        <time>2016-12-11T10:34:36.000Z</time>
      </trkpt>
      <trkpt lat="47.5253" lon="6.6904">
        <ele>361</ele>
        <time>2016-12-11T10:34:37.000Z</time>
      </trkpt>
      <trkpt lat="47.52535" lon="6.69047">
        <ele>361</ele>
        <time>2016-12-11T10:34:38.000Z</time>
      </trkpt>
      <trkpt lat="47.52541" lon="6.69054">
        <ele>361</ele>
        <time>2016-12-11T10:34:39.000Z</time>
      </trkpt>
      <trkpt lat="47.52546" lon="6.69061">
        <ele>361</ele>
        <time>2016-12-11T10:34:40.000Z</time>
      </trkpt>
      <trkpt lat="47.52551" lon="6.69068">
        <ele>360</ele>
        <time>2016-12-11T10:34:41.000Z</time>
      </trkpt>
      <trkpt lat="47.52556" lon="6.69075">
        <ele>360</ele>
        <time>2016-12-11T10:34:42.000Z</time>
      </trkpt>
      <trkpt lat="47.5256" lon="6.69083">
        <ele>359</ele>
        <time>2016-12-11T10:34:43.000Z</time>
      </trkpt>
      <trkpt lat="47.52564" lon="6.69092">
        <ele>359</ele>
        <time>2016-12-11T10:34:44.000Z</time>
      </trkpt>
      <trkpt lat="47.52568" lon="6.69101">
        <ele>359</ele>
        <time>2016-12-11T10:34:45.000Z</time>
      </trkpt>
      <trkpt lat="47.52571" lon="6.6911">
        <ele>358</ele>
        <time>2016-12-11T10:34:46.000Z</time>
      </trkpt>
      <trkpt lat="47.52574" lon="6.69119">
        <ele>358</ele>
        <time>2016-12-11T10:34:47.000Z</time>
      </trkpt>
      <trkpt lat="47.52577" lon="6.69127">
        <ele>358</ele>
        <time>2016-12-11T10:34:48.000Z</time>
      </trkpt>
      <trkpt lat="47.52579" lon="6.69136">
        <ele>358</ele>
        <time>2016-12-11T10:34:49.000Z</time>
      </trkpt>
      <trkpt lat="47.5258" lon="6.69147">
        <ele>357</ele>
        <time>2016-12-11T10:34:50.000Z</time>
      </trkpt>
      <trkpt lat="47.52582" lon="6.69156">
        <ele>357</ele>
        <time>2016-12-11T10:34:51.000Z</time>
      </trkpt>
      <trkpt lat="47.52584" lon="6.69165">
        <ele>356</ele>
        <time>2016-12-11T10:34:52.000Z</time>
      </trkpt>
      <trkpt lat="47.52585" lon="6.69174">
        <ele>356</ele>
        <time>2016-12-11T10:34:53.000Z</time>
      </trkpt>
      <trkpt lat="47.52587" lon="6.69183">
        <ele>356</ele>
        <time>2016-12-11T10:34:54.000Z</time>
      </trkpt>
      <trkpt lat="47.52588" lon="6.6919">
        <ele>356</ele>
        <time>2016-12-11T10:34:55.000Z</time>
      </trkpt>
      <trkpt lat="47.52589" lon="6.69198">
        <ele>355</ele>
        <time>2016-12-11T10:34:56.000Z</time>
      </trkpt>
      <trkpt lat="47.5259" lon="6.69206">
        <ele>355</ele>
        <time>2016-12-11T10:34:57.000Z</time>
      </trkpt>
      <trkpt lat="47.52592" lon="6.69214">
        <ele>355</ele>
        <time>2016-12-11T10:34:58.000Z</time>
      </trkpt>
      <trkpt lat="47.52593" lon="6.69224">
        <ele>355</ele>
        <time>2016-12-11T10:34:59.000Z</time>
      </trkpt>
      <trkpt lat="47.52594" lon="6.69234">
        <ele>355</ele>
        <time>2016-12-11T10:35:00.000Z</time>
      </trkpt>
      <trkpt lat="47.52595" lon="6.69242">
        <ele>354</ele>
        <time>2016-12-11T10:35:01.000Z</time>
      </trkpt>
      <trkpt lat="47.52595" lon="6.69252">
        <ele>353</ele>
        <time>2016-12-11T10:35:02.000Z</time>
      </trkpt>
      <trkpt lat="47.52596" lon="6.69262">
        <ele>353</ele>
        <time>2016-12-11T10:35:03.000Z</time>
      </trkpt>
      <trkpt lat="47.52597" lon="6.69272">
        <ele>353</ele>
        <time>2016-12-11T10:35:04.000Z</time>
      </trkpt>
      <trkpt lat="47.52598" lon="6.69282">
        <ele>353</ele>
        <time>2016-12-11T10:35:05.000Z</time>
      </trkpt>
      <trkpt lat="47.52598" lon="6.69292">
        <ele>352</ele>
        <time>2016-12-11T10:35:06.000Z</time>
      </trkpt>
      <trkpt lat="47.52599" lon="6.69302">
        <ele>352</ele>
        <time>2016-12-11T10:35:07.000Z</time>
      </trkpt>
      <trkpt lat="47.52599" lon="6.69311">
        <ele>352</ele>
        <time>2016-12-11T10:35:08.000Z</time>
      </trkpt>
      <trkpt lat="47.52599" lon="6.69321">
        <ele>352</ele>
        <time>2016-12-11T10:35:09.000Z</time>
      </trkpt>
      <trkpt lat="47.52599" lon="6.6933">
        <ele>352</ele>
        <time>2016-12-11T10:35:10.000Z</time>
      </trkpt>
      <trkpt lat="47.52598" lon="6.6934">
        <ele>350</ele>
        <time>2016-12-11T10:35:11.000Z</time>
      </trkpt>
      <trkpt lat="47.52597" lon="6.69349">
        <ele>350</ele>
        <time>2016-12-11T10:35:12.000Z</time>
      </trkpt>
      <trkpt lat="47.52596" lon="6.69359">
        <ele>350</ele>
        <time>2016-12-11T10:35:13.000Z</time>
      </trkpt>
      <trkpt lat="47.52595" lon="6.69369">
        <ele>350</ele>
        <time>2016-12-11T10:35:14.000Z</time>
      </trkpt>
      <trkpt lat="47.52595" lon="6.69378">
        <ele>349</ele>
        <time>2016-12-11T10:35:15.000Z</time>
      </trkpt>
      <trkpt lat="47.52595" lon="6.69388">
        <ele>349</ele>
        <time>2016-12-11T10:35:16.000Z</time>
      </trkpt>
      <trkpt lat="47.52595" lon="6.69398">
        <ele>349</ele>
        <time>2016-12-11T10:35:17.000Z</time>
      </trkpt>
      <trkpt lat="47.52596" lon="6.69406">
        <ele>349</ele>
        <time>2016-12-11T10:35:18.000Z</time>
      </trkpt>
      <trkpt lat="47.52596" lon="6.69415">
        <ele>349</ele>
        <time>2016-12-11T10:35:19.000Z</time>
      </trkpt>
      <trkpt lat="47.52597" lon="6.69424">
        <ele>348</ele>
        <time>2016-12-11T10:35:20.000Z</time>
      </trkpt>
      <trkpt lat="47.52597" lon="6.69435">
        <ele>347</ele>
        <time>2016-12-11T10:35:21.000Z</time>
      </trkpt>
      <trkpt lat="47.52598" lon="6.69446">
        <ele>347</ele>
        <time>2016-12-11T10:35:22.000Z</time>
      </trkpt>
      <trkpt lat="47.52599" lon="6.69455">
        <ele>347</ele>
        <time>2016-12-11T10:35:23.000Z</time>
      </trkpt>
      <trkpt lat="47.52601" lon="6.6946">
        <ele>347</ele>
        <time>2016-12-11T10:35:24.000Z</time>
      </trkpt>
      <trkpt lat="47.52601" lon="6.69465">
        <ele>347</ele>
        <time>2016-12-11T10:35:25.000Z</time>
      </trkpt>
      <trkpt lat="47.52602" lon="6.6947">
        <ele>347</ele>
        <time>2016-12-11T10:35:26.000Z</time>
      </trkpt>
      <trkpt lat="47.52603" lon="6.69474">
        <ele>347</ele>
        <time>2016-12-11T10:35:27.000Z</time>
      </trkpt>
      <trkpt lat="47.52606" lon="6.69475">
        <ele>347</ele>
        <time>2016-12-11T10:35:28.000Z</time>
      </trkpt>
      <trkpt lat="47.5261" lon="6.69474">
        <ele>347</ele>
        <time>2016-12-11T10:35:29.000Z</time>
      </trkpt>
      <trkpt lat="47.52614" lon="6.69475">
        <ele>347</ele>
        <time>2016-12-11T10:35:30.000Z</time>
      </trkpt>
      <trkpt lat="47.52619" lon="6.69477">
        <ele>347</ele>
        <time>2016-12-11T10:35:31.000Z</time>
      </trkpt>
      <trkpt lat="47.52623" lon="6.69478">
        <ele>347</ele>
        <time>2016-12-11T10:35:32.000Z</time>
      </trkpt>
      <trkpt lat="47.52628" lon="6.69482">
        <ele>347</ele>
        <time>2016-12-11T10:35:33.000Z</time>
      </trkpt>
      <trkpt lat="47.5263" lon="6.69489">
        <ele>347</ele>
        <time>2016-12-11T10:35:34.000Z</time>
      </trkpt>
      <trkpt lat="47.5263" lon="6.69498">
        <ele>347</ele>
        <time>2016-12-11T10:35:35.000Z</time>
      </trkpt>
      <trkpt lat="47.52629" lon="6.69508">
        <ele>345</ele>
        <time>2016-12-11T10:35:36.000Z</time>
      </trkpt>
      <trkpt lat="47.52627" lon="6.69516">
        <ele>345</ele>
        <time>2016-12-11T10:35:37.000Z</time>
      </trkpt>
      <trkpt lat="47.52625" lon="6.69525">
        <ele>345</ele>
        <time>2016-12-11T10:35:38.000Z</time>
      </trkpt>
      <trkpt lat="47.52625" lon="6.69533">
        <ele>345</ele>
        <time>2016-12-11T10:35:39.000Z</time>
      </trkpt>
      <trkpt lat="47.52624" lon="6.69541">
        <ele>345</ele>
        <time>2016-12-11T10:35:40.000Z</time>
      </trkpt>
      <trkpt lat="47.52623" lon="6.69548">
        <ele>345</ele>
        <time>2016-12-11T10:35:41.000Z</time>
      </trkpt>
      <trkpt lat="47.52622" lon="6.69555">
        <ele>345</ele>
        <time>2016-12-11T10:35:42.000Z</time>
      </trkpt>
      <trkpt lat="47.5262" lon="6.69562">
        <ele>345</ele>
        <time>2016-12-11T10:35:43.000Z</time>
      </trkpt>
      <trkpt lat="47.52619" lon="6.69568">
        <ele>345</ele>
        <time>2016-12-11T10:35:44.000Z</time>
      </trkpt>
      <trkpt lat="47.52618" lon="6.69575">
        <ele>345</ele>
        <time>2016-12-11T10:35:45.000Z</time>
      </trkpt>
      <trkpt lat="47.52617" lon="6.69584">
        <ele>345</ele>
        <time>2016-12-11T10:35:46.000Z</time>
      </trkpt>
      <trkpt lat="47.52617" lon="6.69593">
        <ele>345</ele>
        <time>2016-12-11T10:35:47.000Z</time>
      </trkpt>
      <trkpt lat="47.52617" lon="6.69601">
        <ele>345</ele>
        <time>2016-12-11T10:35:48.000Z</time>
      </trkpt>
      <trkpt lat="47.52616" lon="6.69608">
        <ele>346</ele>
        <time>2016-12-11T10:35:49.000Z</time>
      </trkpt>
      <trkpt lat="47.52617" lon="6.69616">
        <ele>346</ele>
        <time>2016-12-11T10:35:50.000Z</time>
      </trkpt>
      <trkpt lat="47.52617" lon="6.69623">
        <ele>346</ele>
        <time>2016-12-11T10:35:51.000Z</time>
      </trkpt>
      <trkpt lat="47.52617" lon="6.69631">
        <ele>346</ele>
        <time>2016-12-11T10:35:52.000Z</time>
      </trkpt>
      <trkpt lat="47.52618" lon="6.69638">
        <ele>346</ele>
        <time>2016-12-11T10:35:53.000Z</time>
      </trkpt>
      <trkpt lat="47.52619" lon="6.69645">
        <ele>346</ele>
        <time>2016-12-11T10:35:54.000Z</time>
      </trkpt>
      <trkpt lat="47.52619" lon="6.6965">
        <ele>346</ele>
        <time>2016-12-11T10:35:55.000Z</time>
      </trkpt>
      <trkpt lat="47.5262" lon="6.69656">
        <ele>346</ele>
        <time>2016-12-11T10:35:56.000Z</time>
      </trkpt>
      <trkpt lat="47.5262" lon="6.69662">
        <ele>346</ele>
        <time>2016-12-11T10:35:57.000Z</time>
      </trkpt>
      <trkpt lat="47.5262" lon="6.69667">
        <ele>346</ele>
        <time>2016-12-11T10:35:58.000Z</time>
      </trkpt>
      <trkpt lat="47.5262" lon="6.69673">
        <ele>349</ele>
        <time>2016-12-11T10:35:59.000Z</time>
      </trkpt>
      <trkpt lat="47.5262" lon="6.69678">
        <ele>349</ele>
        <time>2016-12-11T10:36:00.000Z</time>
      </trkpt>
      <trkpt lat="47.5262" lon="6.69683">
        <ele>349</ele>
        <time>2016-12-11T10:36:01.000Z</time>
      </trkpt>
      <trkpt lat="47.52619" lon="6.6969">
        <ele>349</ele>
        <time>2016-12-11T10:36:02.000Z</time>
      </trkpt>
      <trkpt lat="47.52616" lon="6.69697">
        <ele>349</ele>
        <time>2016-12-11T10:36:03.000Z</time>
      </trkpt>
      <trkpt lat="47.52614" lon="6.69703">
        <ele>350</ele>
        <time>2016-12-11T10:36:04.000Z</time>
      </trkpt>
      <trkpt lat="47.5261" lon="6.69709">
        <ele>350</ele>
        <time>2016-12-11T10:36:05.000Z</time>
      </trkpt>
      <trkpt lat="47.52606" lon="6.69712">
        <ele>350</ele>
        <time>2016-12-11T10:36:06.000Z</time>
      </trkpt>
      <trkpt lat="47.52601" lon="6.69715">
        <ele>350</ele>
        <time>2016-12-11T10:36:07.000Z</time>
      </trkpt>
      <trkpt lat="47.52598" lon="6.69717">
        <ele>350</ele>
        <time>2016-12-11T10:36:08.000Z</time>
      </trkpt>
      <trkpt lat="47.52593" lon="6.69719">
        <ele>350</ele>
        <time>2016-12-11T10:36:09.000Z</time>
      </trkpt>
      <trkpt lat="47.52588" lon="6.6972">
        <ele>350</ele>
        <time>2016-12-11T10:36:10.000Z</time>
      </trkpt>
      <trkpt lat="47.52583" lon="6.69719">
        <ele>352</ele>
        <time>2016-12-11T10:36:11.000Z</time>
      </trkpt>
      <trkpt lat="47.52579" lon="6.69718">
        <ele>352</ele>
        <time>2016-12-11T10:36:12.000Z</time>
      </trkpt>
      <trkpt lat="47.52576" lon="6.69717">
        <ele>352</ele>
        <time>2016-12-11T10:36:13.000Z</time>
      </trkpt>
      <trkpt lat="47.52572" lon="6.69716">
        <ele>352</ele>
        <time>2016-12-11T10:36:14.000Z</time>
      </trkpt>
      <trkpt lat="47.52567" lon="6.69715">
        <ele>352</ele>
        <time>2016-12-11T10:36:15.000Z</time>
      </trkpt>
      <trkpt lat="47.52563" lon="6.69714">
        <ele>352</ele>
        <time>2016-12-11T10:36:16.000Z</time>
      </trkpt>
      <trkpt lat="47.52557" lon="6.69713">
        <ele>352</ele>
        <time>2016-12-11T10:36:17.000Z</time>
      </trkpt>
      <trkpt lat="47.52551" lon="6.69711">
        <ele>352</ele>
        <time>2016-12-11T10:36:18.000Z</time>
      </trkpt>
      <trkpt lat="47.52547" lon="6.6971">
        <ele>352</ele>
        <time>2016-12-11T10:36:19.000Z</time>
      </trkpt>
      <trkpt lat="47.52542" lon="6.69709">
        <ele>352</ele>
        <time>2016-12-11T10:36:20.000Z</time>
      </trkpt>
      <trkpt lat="47.52539" lon="6.69708">
        <ele>352</ele>
        <time>2016-12-11T10:36:21.000Z</time>
      </trkpt>
      <trkpt lat="47.52535" lon="6.69706">
        <ele>352</ele>
        <time>2016-12-11T10:36:22.000Z</time>
      </trkpt>
      <trkpt lat="47.5253" lon="6.69704">
        <ele>352</ele>
        <time>2016-12-11T10:36:23.000Z</time>
      </trkpt>
      <trkpt lat="47.52525" lon="6.69702">
        <ele>352</ele>
        <time>2016-12-11T10:36:24.000Z</time>
      </trkpt>
      <trkpt lat="47.52521" lon="6.697">
        <ele>352</ele>
        <time>2016-12-11T10:36:25.000Z</time>
      </trkpt>
      <trkpt lat="47.52517" lon="6.69698">
        <ele>352</ele>
        <time>2016-12-11T10:36:26.000Z</time>
      </trkpt>
      <trkpt lat="47.52512" lon="6.69695">
        <ele>351</ele>
        <time>2016-12-11T10:36:27.000Z</time>
      </trkpt>
      <trkpt lat="47.52509" lon="6.69693">
        <ele>351</ele>
        <time>2016-12-11T10:36:28.000Z</time>
      </trkpt>
      <trkpt lat="47.52505" lon="6.69692">
        <ele>351</ele>
        <time>2016-12-11T10:36:29.000Z</time>
      </trkpt>
      <trkpt lat="47.525" lon="6.69691">
        <ele>351</ele>
        <time>2016-12-11T10:36:30.000Z</time>
      </trkpt>
      <trkpt lat="47.52496" lon="6.6969">
        <ele>352</ele>
        <time>2016-12-11T10:36:31.000Z</time>
      </trkpt>
      <trkpt lat="47.5249" lon="6.69689">
        <ele>352</ele>
        <time>2016-12-11T10:36:32.000Z</time>
      </trkpt>
      <trkpt lat="47.52486" lon="6.69688">
        <ele>352</ele>
        <time>2016-12-11T10:36:33.000Z</time>
      </trkpt>
      <trkpt lat="47.52482" lon="6.69687">
        <ele>352</ele>
        <time>2016-12-11T10:36:34.000Z</time>
      </trkpt>
      <trkpt lat="47.52476" lon="6.69686">
        <ele>353</ele>
        <time>2016-12-11T10:36:35.000Z</time>
      </trkpt>
      <trkpt lat="47.52471" lon="6.69687">
        <ele>353</ele>
        <time>2016-12-11T10:36:36.000Z</time>
      </trkpt>
      <trkpt lat="47.52467" lon="6.69687">
        <ele>353</ele>
        <time>2016-12-11T10:36:37.000Z</time>
      </trkpt>
      <trkpt lat="47.52461" lon="6.69688">
        <ele>353</ele>
        <time>2016-12-11T10:36:38.000Z</time>
      </trkpt>
      <trkpt lat="47.52457" lon="6.69689">
        <ele>353</ele>
        <time>2016-12-11T10:36:39.000Z</time>
      </trkpt>
      <trkpt lat="47.52452" lon="6.69691">
        <ele>353</ele>
        <time>2016-12-11T10:36:40.000Z</time>
      </trkpt>
      <trkpt lat="47.52447" lon="6.69692">
        <ele>353</ele>
        <time>2016-12-11T10:36:41.000Z</time>
      </trkpt>
      <trkpt lat="47.52442" lon="6.69694">
        <ele>353</ele>
        <time>2016-12-11T10:36:42.000Z</time>
      </trkpt>
      <trkpt lat="47.52437" lon="6.69696">
        <ele>353</ele>
        <time>2016-12-11T10:36:43.000Z</time>
      </trkpt>
      <trkpt lat="47.52433" lon="6.69697">
        <ele>354</ele>
        <time>2016-12-11T10:36:44.000Z</time>
      </trkpt>
      <trkpt lat="47.52429" lon="6.69699">
        <ele>354</ele>
        <time>2016-12-11T10:36:45.000Z</time>
      </trkpt>
      <trkpt lat="47.52425" lon="6.69701">
        <ele>354</ele>
        <time>2016-12-11T10:36:46.000Z</time>
      </trkpt>
      <trkpt lat="47.52421" lon="6.69703">
        <ele>354</ele>
        <time>2016-12-11T10:36:47.000Z</time>
      </trkpt>
      <trkpt lat="47.52416" lon="6.69705">
        <ele>354</ele>
        <time>2016-12-11T10:36:48.000Z</time>
      </trkpt>
      <trkpt lat="47.5241" lon="6.69706">
        <ele>354</ele>
        <time>2016-12-11T10:36:49.000Z</time>
      </trkpt>
      <trkpt lat="47.52406" lon="6.69708">
        <ele>354</ele>
        <time>2016-12-11T10:36:50.000Z</time>
      </trkpt>
      <trkpt lat="47.524" lon="6.6971">
        <ele>354</ele>
        <time>2016-12-11T10:36:51.000Z</time>
      </trkpt>
      <trkpt lat="47.52396" lon="6.69711">
        <ele>354</ele>
        <time>2016-12-11T10:36:52.000Z</time>
      </trkpt>
      <trkpt lat="47.52391" lon="6.69712">
        <ele>354</ele>
        <time>2016-12-11T10:36:53.000Z</time>
      </trkpt>
      <trkpt lat="47.52389" lon="6.69714">
        <ele>354</ele>
        <time>2016-12-11T10:36:54.000Z</time>
      </trkpt>
      <trkpt lat="47.52384" lon="6.69716">
        <ele>355</ele>
        <time>2016-12-11T10:36:55.000Z</time>
      </trkpt>
      <trkpt lat="47.52379" lon="6.69719">
        <ele>355</ele>
        <time>2016-12-11T10:36:56.000Z</time>
      </trkpt>
      <trkpt lat="47.52374" lon="6.69722">
        <ele>355</ele>
        <time>2016-12-11T10:36:57.000Z</time>
      </trkpt>
      <trkpt lat="47.52371" lon="6.69724">
        <ele>355</ele>
        <time>2016-12-11T10:36:58.000Z</time>
      </trkpt>
      <trkpt lat="47.52367" lon="6.69727">
        <ele>355</ele>
        <time>2016-12-11T10:36:59.000Z</time>
      </trkpt>
      <trkpt lat="47.52364" lon="6.6973">
        <ele>355</ele>
        <time>2016-12-11T10:37:00.000Z</time>
      </trkpt>
      <trkpt lat="47.5236" lon="6.69733">
        <ele>355</ele>
        <time>2016-12-11T10:37:01.000Z</time>
      </trkpt>
      <trkpt lat="47.52356" lon="6.69738">
        <ele>356</ele>
        <time>2016-12-11T10:37:02.000Z</time>
      </trkpt>
      <trkpt lat="47.52353" lon="6.69742">
        <ele>356</ele>
        <time>2016-12-11T10:37:03.000Z</time>
      </trkpt>
      <trkpt lat="47.5235" lon="6.69747">
        <ele>356</ele>
        <time>2016-12-11T10:37:04.000Z</time>
      </trkpt>
      <trkpt lat="47.52347" lon="6.69753">
        <ele>359</ele>
        <time>2016-12-11T10:37:05.000Z</time>
      </trkpt>
      <trkpt lat="47.52345" lon="6.6976">
        <ele>360</ele>
        <time>2016-12-11T10:37:06.000Z</time>
      </trkpt>
      <trkpt lat="47.52343" lon="6.69766">
        <ele>360</ele>
        <time>2016-12-11T10:37:07.000Z</time>
      </trkpt>
      <trkpt lat="47.52341" lon="6.69771">
        <ele>360</ele>
        <time>2016-12-11T10:37:08.000Z</time>
      </trkpt>
      <trkpt lat="47.52339" lon="6.69777">
        <ele>360</ele>
        <time>2016-12-11T10:37:09.000Z</time>
      </trkpt>
      <trkpt lat="47.52337" lon="6.69781">
        <ele>361</ele>
        <time>2016-12-11T10:37:10.000Z</time>
      </trkpt>
      <trkpt lat="47.52334" lon="6.69784">
        <ele>361</ele>
        <time>2016-12-11T10:37:11.000Z</time>
      </trkpt>
      <trkpt lat="47.52332" lon="6.6979">
        <ele>357</ele>
        <time>2016-12-11T10:37:12.000Z</time>
      </trkpt>
      <trkpt lat="47.5233" lon="6.69794">
        <ele>357</ele>
        <time>2016-12-11T10:37:13.000Z</time>
      </trkpt>
      <trkpt lat="47.52327" lon="6.69798">
        <ele>357</ele>
        <time>2016-12-11T10:37:14.000Z</time>
      </trkpt>
      <trkpt lat="47.52324" lon="6.69803">
        <ele>357</ele>
        <time>2016-12-11T10:37:15.000Z</time>
      </trkpt>
      <trkpt lat="47.52321" lon="6.69808">
        <ele>358</ele>
        <time>2016-12-11T10:37:16.000Z</time>
      </trkpt>
      <trkpt lat="47.52318" lon="6.69813">
        <ele>358</ele>
        <time>2016-12-11T10:37:17.000Z</time>
      </trkpt>
      <trkpt lat="47.52315" lon="6.69818">
        <ele>358</ele>
        <time>2016-12-11T10:37:18.000Z</time>
      </trkpt>
      <trkpt lat="47.52312" lon="6.69824">
        <ele>358</ele>
        <time>2016-12-11T10:37:19.000Z</time>
      </trkpt>
      <trkpt lat="47.52309" lon="6.69832">
        <ele>358</ele>
        <time>2016-12-11T10:37:20.000Z</time>
      </trkpt>
      <trkpt lat="47.52306" lon="6.69838">
        <ele>358</ele>
        <time>2016-12-11T10:37:21.000Z</time>
      </trkpt>
      <trkpt lat="47.52304" lon="6.69842">
        <ele>357</ele>
        <time>2016-12-11T10:37:22.000Z</time>
      </trkpt>
      <trkpt lat="47.52302" lon="6.69847">
        <ele>357</ele>
        <time>2016-12-11T10:37:23.000Z</time>
      </trkpt>
      <trkpt lat="47.52299" lon="6.69853">
        <ele>357</ele>
        <time>2016-12-11T10:37:24.000Z</time>
      </trkpt>
      <trkpt lat="47.52296" lon="6.6986">
        <ele>357</ele>
        <time>2016-12-11T10:37:25.000Z</time>
      </trkpt>
      <trkpt lat="47.52293" lon="6.69866">
        <ele>356</ele>
        <time>2016-12-11T10:37:26.000Z</time>
      </trkpt>
      <trkpt lat="47.5229" lon="6.69874">
        <ele>356</ele>
        <time>2016-12-11T10:37:27.000Z</time>
      </trkpt>
      <trkpt lat="47.52287" lon="6.69881">
        <ele>356</ele>
        <time>2016-12-11T10:37:28.000Z</time>
      </trkpt>
      <trkpt lat="47.52285" lon="6.69889">
        <ele>356</ele>
        <time>2016-12-11T10:37:29.000Z</time>
      </trkpt>
      <trkpt lat="47.52282" lon="6.69897">
        <ele>355</ele>
        <time>2016-12-11T10:37:30.000Z</time>
      </trkpt>
      <trkpt lat="47.52279" lon="6.69906">
        <ele>355</ele>
        <time>2016-12-11T10:37:31.000Z</time>
      </trkpt>
      <trkpt lat="47.52276" lon="6.69914">
        <ele>355</ele>
        <time>2016-12-11T10:37:32.000Z</time>
      </trkpt>
      <trkpt lat="47.52273" lon="6.69922">
        <ele>353</ele>
        <time>2016-12-11T10:37:33.000Z</time>
      </trkpt>
      <trkpt lat="47.5227" lon="6.69929">
        <ele>353</ele>
        <time>2016-12-11T10:37:34.000Z</time>
      </trkpt>
      <trkpt lat="47.52268" lon="6.69936">
        <ele>353</ele>
        <time>2016-12-11T10:37:35.000Z</time>
      </trkpt>
      <trkpt lat="47.52265" lon="6.69944">
        <ele>353</ele>
        <time>2016-12-11T10:37:36.000Z</time>
      </trkpt>
      <trkpt lat="47.52262" lon="6.69952">
        <ele>353</ele>
        <time>2016-12-11T10:37:37.000Z</time>
      </trkpt>
      <trkpt lat="47.52258" lon="6.6996">
        <ele>353</ele>
        <time>2016-12-11T10:37:38.000Z</time>
      </trkpt>
      <trkpt lat="47.52255" lon="6.69968">
        <ele>352</ele>
        <time>2016-12-11T10:37:39.000Z</time>
      </trkpt>
      <trkpt lat="47.52251" lon="6.69978">
        <ele>352</ele>
        <time>2016-12-11T10:37:40.000Z</time>
      </trkpt>
      <trkpt lat="47.52248" lon="6.69987">
        <ele>348</ele>
        <time>2016-12-11T10:37:41.000Z</time>
      </trkpt>
      <trkpt lat="47.52244" lon="6.69996">
        <ele>349</ele>
        <time>2016-12-11T10:37:42.000Z</time>
      </trkpt>
      <trkpt lat="47.52241" lon="6.70005">
        <ele>348</ele>
        <time>2016-12-11T10:37:43.000Z</time>
      </trkpt>
      <trkpt lat="47.52237" lon="6.70014">
        <ele>347</ele>
        <time>2016-12-11T10:37:44.000Z</time>
      </trkpt>
      <trkpt lat="47.52234" lon="6.70023">
        <ele>347</ele>
        <time>2016-12-11T10:37:45.000Z</time>
      </trkpt>
      <trkpt lat="47.52231" lon="6.70031">
        <ele>346</ele>
        <time>2016-12-11T10:37:46.000Z</time>
      </trkpt>
      <trkpt lat="47.52228" lon="6.70039">
        <ele>346</ele>
        <time>2016-12-11T10:37:47.000Z</time>
      </trkpt>
      <trkpt lat="47.52225" lon="6.70048">
        <ele>346</ele>
        <time>2016-12-11T10:37:48.000Z</time>
      </trkpt>
      <trkpt lat="47.52223" lon="6.70055">
        <ele>346</ele>
        <time>2016-12-11T10:37:49.000Z</time>
      </trkpt>
      <trkpt lat="47.52221" lon="6.70061">
        <ele>346</ele>
        <time>2016-12-11T10:37:50.000Z</time>
      </trkpt>
      <trkpt lat="47.52219" lon="6.70069">
        <ele>346</ele>
        <time>2016-12-11T10:37:51.000Z</time>
      </trkpt>
      <trkpt lat="47.52217" lon="6.70076">
        <ele>346</ele>
        <time>2016-12-11T10:37:52.000Z</time>
      </trkpt>
      <trkpt lat="47.52214" lon="6.70085">
        <ele>345</ele>
        <time>2016-12-11T10:37:53.000Z</time>
      </trkpt>
      <trkpt lat="47.52212" lon="6.70094">
        <ele>345</ele>
        <time>2016-12-11T10:37:54.000Z</time>
      </trkpt>
      <trkpt lat="47.5221" lon="6.70103">
        <ele>345</ele>
        <time>2016-12-11T10:37:55.000Z</time>
      </trkpt>
      <trkpt lat="47.52208" lon="6.70111">
        <ele>345</ele>
        <time>2016-12-11T10:37:56.000Z</time>
      </trkpt>
      <trkpt lat="47.52205" lon="6.7012">
        <ele>345</ele>
        <time>2016-12-11T10:37:57.000Z</time>
      </trkpt>
      <trkpt lat="47.52204" lon="6.70127">
        <ele>345</ele>
        <time>2016-12-11T10:37:58.000Z</time>
      </trkpt>
      <trkpt lat="47.52202" lon="6.70134">
        <ele>345</ele>
        <time>2016-12-11T10:37:59.000Z</time>
      </trkpt>
      <trkpt lat="47.522" lon="6.70141">
        <ele>346</ele>
        <time>2016-12-11T10:38:00.000Z</time>
      </trkpt>
      <trkpt lat="47.52198" lon="6.70149">
        <ele>346</ele>
        <time>2016-12-11T10:38:01.000Z</time>
      </trkpt>
      <trkpt lat="47.52197" lon="6.70155">
        <ele>346</ele>
        <time>2016-12-11T10:38:02.000Z</time>
      </trkpt>
      <trkpt lat="47.52196" lon="6.70161">
        <ele>346</ele>
        <time>2016-12-11T10:38:03.000Z</time>
      </trkpt>
      <trkpt lat="47.52194" lon="6.70166">
        <ele>346</ele>
        <time>2016-12-11T10:38:04.000Z</time>
      </trkpt>
      <trkpt lat="47.52192" lon="6.70171">
        <ele>347</ele>
        <time>2016-12-11T10:38:05.000Z</time>
      </trkpt>
      <trkpt lat="47.5219" lon="6.70177">
        <ele>347</ele>
        <time>2016-12-11T10:38:06.000Z</time>
      </trkpt>
      <trkpt lat="47.52187" lon="6.70182">
        <ele>348</ele>
        <time>2016-12-11T10:38:07.000Z</time>
      </trkpt>
      <trkpt lat="47.52185" lon="6.70189">
        <ele>348</ele>
        <time>2016-12-11T10:38:08.000Z</time>
      </trkpt>
      <trkpt lat="47.52183" lon="6.70196">
        <ele>348</ele>
        <time>2016-12-11T10:38:09.000Z</time>
      </trkpt>
      <trkpt lat="47.52181" lon="6.70202">
        <ele>348</ele>
        <time>2016-12-11T10:38:10.000Z</time>
      </trkpt>
      <trkpt lat="47.52179" lon="6.70209">
        <ele>348</ele>
        <time>2016-12-11T10:38:11.000Z</time>
      </trkpt>
      <trkpt lat="47.52177" lon="6.70214">
        <ele>348</ele>
        <time>2016-12-11T10:38:12.000Z</time>
      </trkpt>
      <trkpt lat="47.52176" lon="6.70219">
        <ele>349</ele>
        <time>2016-12-11T10:38:13.000Z</time>
      </trkpt>
      <trkpt lat="47.52174" lon="6.70226">
        <ele>349</ele>
        <time>2016-12-11T10:38:14.000Z</time>
      </trkpt>
      <trkpt lat="47.52172" lon="6.70232">
        <ele>350</ele>
        <time>2016-12-11T10:38:15.000Z</time>
      </trkpt>
      <trkpt lat="47.52171" lon="6.70238">
        <ele>350</ele>
        <time>2016-12-11T10:38:16.000Z</time>
      </trkpt>
      <trkpt lat="47.52169" lon="6.70243">
        <ele>351</ele>
        <time>2016-12-11T10:38:17.000Z</time>
      </trkpt>
      <trkpt lat="47.52168" lon="6.70245">
        <ele>352</ele>
        <time>2016-12-11T10:38:18.000Z</time>
      </trkpt>
      <trkpt lat="47.52167" lon="6.7025">
        <ele>353</ele>
        <time>2016-12-11T10:38:19.000Z</time>
      </trkpt>
      <trkpt lat="47.52166" lon="6.70254">
        <ele>353</ele>
        <time>2016-12-11T10:38:20.000Z</time>
      </trkpt>
      <trkpt lat="47.52164" lon="6.70259">
        <ele>354</ele>
        <time>2016-12-11T10:38:21.000Z</time>
      </trkpt>
      <trkpt lat="47.52163" lon="6.70262">
        <ele>354</ele>
        <time>2016-12-11T10:38:22.000Z</time>
      </trkpt>
      <trkpt lat="47.5216" lon="6.70266">
        <ele>355</ele>
        <time>2016-12-11T10:38:23.000Z</time>
      </trkpt>
      <trkpt lat="47.52159" lon="6.70271">
        <ele>355</ele>
        <time>2016-12-11T10:38:24.000Z</time>
      </trkpt>
      <trkpt lat="47.52157" lon="6.70278">
        <ele>355</ele>
        <time>2016-12-11T10:38:25.000Z</time>
      </trkpt>
      <trkpt lat="47.52155" lon="6.70283">
        <ele>355</ele>
        <time>2016-12-11T10:38:26.000Z</time>
      </trkpt>
      <trkpt lat="47.52154" lon="6.70287">
        <ele>355</ele>
        <time>2016-12-11T10:38:27.000Z</time>
      </trkpt>
      <trkpt lat="47.52153" lon="6.70293">
        <ele>355</ele>
        <time>2016-12-11T10:38:28.000Z</time>
      </trkpt>
      <trkpt lat="47.52151" lon="6.70298">
        <ele>355</ele>
        <time>2016-12-11T10:38:29.000Z</time>
      </trkpt>
      <trkpt lat="47.5215" lon="6.70303">
        <ele>355</ele>
        <time>2016-12-11T10:38:30.000Z</time>
      </trkpt>
      <trkpt lat="47.52148" lon="6.70308">
        <ele>355</ele>
        <time>2016-12-11T10:38:31.000Z</time>
      </trkpt>
      <trkpt lat="47.52147" lon="6.70313">
        <ele>355</ele>
        <time>2016-12-11T10:38:32.000Z</time>
      </trkpt>
      <trkpt lat="47.52145" lon="6.70319">
        <ele>355</ele>
        <time>2016-12-11T10:38:33.000Z</time>
      </trkpt>
      <trkpt lat="47.52144" lon="6.70325">
        <ele>355</ele>
        <time>2016-12-11T10:38:34.000Z</time>
      </trkpt>
      <trkpt lat="47.52143" lon="6.70328">
        <ele>355</ele>
        <time>2016-12-11T10:38:35.000Z</time>
      </trkpt>
      <trkpt lat="47.52141" lon="6.70333">
        <ele>355</ele>
        <time>2016-12-11T10:38:36.000Z</time>
      </trkpt>
      <trkpt lat="47.52139" lon="6.70338">
        <ele>355</ele>
        <time>2016-12-11T10:38:37.000Z</time>
      </trkpt>
      <trkpt lat="47.52138" lon="6.70342">
        <ele>355</ele>
        <time>2016-12-11T10:38:38.000Z</time>
      </trkpt>
      <trkpt lat="47.52137" lon="6.70346">
        <ele>356</ele>
        <time>2016-12-11T10:38:39.000Z</time>
      </trkpt>
      <trkpt lat="47.52136" lon="6.70351">
        <ele>356</ele>
        <time>2016-12-11T10:38:40.000Z</time>
      </trkpt>
      <trkpt lat="47.52134" lon="6.70357">
        <ele>356</ele>
        <time>2016-12-11T10:38:41.000Z</time>
      </trkpt>
      <trkpt lat="47.52132" lon="6.70363">
        <ele>356</ele>
        <time>2016-12-11T10:38:42.000Z</time>
      </trkpt>
      <trkpt lat="47.5213" lon="6.70368">
        <ele>356</ele>
        <time>2016-12-11T10:38:43.000Z</time>
      </trkpt>
      <trkpt lat="47.52128" lon="6.70374">
        <ele>357</ele>
        <time>2016-12-11T10:38:44.000Z</time>
      </trkpt>
      <trkpt lat="47.52126" lon="6.70379">
        <ele>357</ele>
        <time>2016-12-11T10:38:45.000Z</time>
      </trkpt>
      <trkpt lat="47.52124" lon="6.70384">
        <ele>357</ele>
        <time>2016-12-11T10:38:46.000Z</time>
      </trkpt>
      <trkpt lat="47.52122" lon="6.7039">
        <ele>357</ele>
        <time>2016-12-11T10:38:47.000Z</time>
      </trkpt>
      <trkpt lat="47.5212" lon="6.70397">
        <ele>357</ele>
        <time>2016-12-11T10:38:48.000Z</time>
      </trkpt>
      <trkpt lat="47.52118" lon="6.70401">
        <ele>357</ele>
        <time>2016-12-11T10:38:49.000Z</time>
      </trkpt>
      <trkpt lat="47.52116" lon="6.70406">
        <ele>358</ele>
        <time>2016-12-11T10:38:50.000Z</time>
      </trkpt>
      <trkpt lat="47.52114" lon="6.70411">
        <ele>358</ele>
        <time>2016-12-11T10:38:51.000Z</time>
      </trkpt>
      <trkpt lat="47.52114" lon="6.70415">
        <ele>358</ele>
        <time>2016-12-11T10:38:52.000Z</time>
      </trkpt>
      <trkpt lat="47.52113" lon="6.7042">
        <ele>357</ele>
        <time>2016-12-11T10:38:53.000Z</time>
      </trkpt>
      <trkpt lat="47.52112" lon="6.70425">
        <ele>357</ele>
        <time>2016-12-11T10:38:54.000Z</time>
      </trkpt>
      <trkpt lat="47.5211" lon="6.70431">
        <ele>357</ele>
        <time>2016-12-11T10:38:55.000Z</time>
      </trkpt>
      <trkpt lat="47.52109" lon="6.70436">
        <ele>357</ele>
        <time>2016-12-11T10:38:56.000Z</time>
      </trkpt>
      <trkpt lat="47.52107" lon="6.70442">
        <ele>357</ele>
        <time>2016-12-11T10:38:57.000Z</time>
      </trkpt>
      <trkpt lat="47.52105" lon="6.70448">
        <ele>357</ele>
        <time>2016-12-11T10:38:58.000Z</time>
      </trkpt>
      <trkpt lat="47.52103" lon="6.70453">
        <ele>357</ele>
        <time>2016-12-11T10:38:59.000Z</time>
      </trkpt>
      <trkpt lat="47.52102" lon="6.70458">
        <ele>357</ele>
        <time>2016-12-11T10:39:00.000Z</time>
      </trkpt>
      <trkpt lat="47.52101" lon="6.70461">
        <ele>357</ele>
        <time>2016-12-11T10:39:01.000Z</time>
      </trkpt>
      <trkpt lat="47.521" lon="6.70466">
        <ele>357</ele>
        <time>2016-12-11T10:39:02.000Z</time>
      </trkpt>
      <trkpt lat="47.52099" lon="6.70471">
        <ele>357</ele>
        <time>2016-12-11T10:39:03.000Z</time>
      </trkpt>
      <trkpt lat="47.52097" lon="6.70477">
        <ele>357</ele>
        <time>2016-12-11T10:39:04.000Z</time>
      </trkpt>
      <trkpt lat="47.52096" lon="6.70482">
        <ele>357</ele>
        <time>2016-12-11T10:39:05.000Z</time>
      </trkpt>
      <trkpt lat="47.52094" lon="6.70488">
        <ele>358</ele>
        <time>2016-12-11T10:39:06.000Z</time>
      </trkpt>
      <trkpt lat="47.52093" lon="6.70493">
        <ele>358</ele>
        <time>2016-12-11T10:39:07.000Z</time>
      </trkpt>
      <trkpt lat="47.52092" lon="6.70497">
        <ele>358</ele>
        <time>2016-12-11T10:39:08.000Z</time>
      </trkpt>
      <trkpt lat="47.5209" lon="6.70502">
        <ele>358</ele>
        <time>2016-12-11T10:39:09.000Z</time>
      </trkpt>
      <trkpt lat="47.5209" lon="6.70506">
        <ele>358</ele>
        <time>2016-12-11T10:39:10.000Z</time>
      </trkpt>
      <trkpt lat="47.52088" lon="6.7051">
        <ele>357</ele>
        <time>2016-12-11T10:39:11.000Z</time>
      </trkpt>
      <trkpt lat="47.52087" lon="6.70515">
        <ele>356</ele>
        <time>2016-12-11T10:39:12.000Z</time>
      </trkpt>
      <trkpt lat="47.52085" lon="6.7052">
        <ele>356</ele>
        <time>2016-12-11T10:39:13.000Z</time>
      </trkpt>
      <trkpt lat="47.52083" lon="6.70525">
        <ele>355</ele>
        <time>2016-12-11T10:39:14.000Z</time>
      </trkpt>
      <trkpt lat="47.52082" lon="6.70529">
        <ele>359</ele>
        <time>2016-12-11T10:39:15.000Z</time>
      </trkpt>
      <trkpt lat="47.5208" lon="6.70535">
        <ele>359</ele>
        <time>2016-12-11T10:39:16.000Z</time>
      </trkpt>
      <trkpt lat="47.52078" lon="6.7054">
        <ele>358</ele>
        <time>2016-12-11T10:39:17.000Z</time>
      </trkpt>
      <trkpt lat="47.52076" lon="6.70545">
        <ele>358</ele>
        <time>2016-12-11T10:39:18.000Z</time>
      </trkpt>
      <trkpt lat="47.52075" lon="6.7055">
        <ele>358</ele>
        <time>2016-12-11T10:39:19.000Z</time>
      </trkpt>
      <trkpt lat="47.52073" lon="6.70554">
        <ele>358</ele>
        <time>2016-12-11T10:39:20.000Z</time>
      </trkpt>
      <trkpt lat="47.52071" lon="6.70559">
        <ele>357</ele>
        <time>2016-12-11T10:39:21.000Z</time>
      </trkpt>
      <trkpt lat="47.52069" lon="6.70566">
        <ele>357</ele>
        <time>2016-12-11T10:39:22.000Z</time>
      </trkpt>
      <trkpt lat="47.52066" lon="6.70572">
        <ele>357</ele>
        <time>2016-12-11T10:39:23.000Z</time>
      </trkpt>
      <trkpt lat="47.52065" lon="6.70576">
        <ele>357</ele>
        <time>2016-12-11T10:39:24.000Z</time>
      </trkpt>
      <trkpt lat="47.52063" lon="6.70581">
        <ele>357</ele>
        <time>2016-12-11T10:39:25.000Z</time>
      </trkpt>
      <trkpt lat="47.52061" lon="6.70586">
        <ele>355</ele>
        <time>2016-12-11T10:39:26.000Z</time>
      </trkpt>
      <trkpt lat="47.52059" lon="6.70592">
        <ele>355</ele>
        <time>2016-12-11T10:39:27.000Z</time>
      </trkpt>
      <trkpt lat="47.52057" lon="6.70597">
        <ele>355</ele>
        <time>2016-12-11T10:39:28.000Z</time>
      </trkpt>
      <trkpt lat="47.52056" lon="6.70602">
        <ele>355</ele>
        <time>2016-12-11T10:39:29.000Z</time>
      </trkpt>
      <trkpt lat="47.52056" lon="6.70606">
        <ele>355</ele>
        <time>2016-12-11T10:39:30.000Z</time>
      </trkpt>
      <trkpt lat="47.52054" lon="6.7061">
        <ele>355</ele>
        <time>2016-12-11T10:39:31.000Z</time>
      </trkpt>
      <trkpt lat="47.52052" lon="6.70614">
        <ele>355</ele>
        <time>2016-12-11T10:39:32.000Z</time>
      </trkpt>
      <trkpt lat="47.5205" lon="6.7062">
        <ele>355</ele>
        <time>2016-12-11T10:39:33.000Z</time>
      </trkpt>
      <trkpt lat="47.52048" lon="6.70623">
        <ele>355</ele>
        <time>2016-12-11T10:39:34.000Z</time>
      </trkpt>
      <trkpt lat="47.52046" lon="6.70629">
        <ele>355</ele>
        <time>2016-12-11T10:39:35.000Z</time>
      </trkpt>
      <trkpt lat="47.52044" lon="6.70634">
        <ele>355</ele>
        <time>2016-12-11T10:39:36.000Z</time>
      </trkpt>
      <trkpt lat="47.52042" lon="6.70639">
        <ele>355</ele>
        <time>2016-12-11T10:39:37.000Z</time>
      </trkpt>
      <trkpt lat="47.52041" lon="6.70644">
        <ele>355</ele>
        <time>2016-12-11T10:39:38.000Z</time>
      </trkpt>
      <trkpt lat="47.52039" lon="6.7065">
        <ele>355</ele>
        <time>2016-12-11T10:39:39.000Z</time>
      </trkpt>
      <trkpt lat="47.52038" lon="6.70655">
        <ele>355</ele>
        <time>2016-12-11T10:39:40.000Z</time>
      </trkpt>
      <trkpt lat="47.52037" lon="6.7066">
        <ele>355</ele>
        <time>2016-12-11T10:39:41.000Z</time>
      </trkpt>
      <trkpt lat="47.52036" lon="6.70665">
        <ele>355</ele>
        <time>2016-12-11T10:39:42.000Z</time>
      </trkpt>
      <trkpt lat="47.52035" lon="6.70671">
        <ele>354</ele>
        <time>2016-12-11T10:39:43.000Z</time>
      </trkpt>
      <trkpt lat="47.52034" lon="6.70675">
        <ele>354</ele>
        <time>2016-12-11T10:39:44.000Z</time>
      </trkpt>
      <trkpt lat="47.52032" lon="6.70682">
        <ele>354</ele>
        <time>2016-12-11T10:39:45.000Z</time>
      </trkpt>
      <trkpt lat="47.52031" lon="6.70687">
        <ele>354</ele>
        <time>2016-12-11T10:39:46.000Z</time>
      </trkpt>
      <trkpt lat="47.5203" lon="6.70693">
        <ele>354</ele>
        <time>2016-12-11T10:39:47.000Z</time>
      </trkpt>
      <trkpt lat="47.52029" lon="6.70699">
        <ele>354</ele>
        <time>2016-12-11T10:39:48.000Z</time>
      </trkpt>
      <trkpt lat="47.52028" lon="6.70703">
        <ele>354</ele>
        <time>2016-12-11T10:39:49.000Z</time>
      </trkpt>
      <trkpt lat="47.52027" lon="6.70707">
        <ele>354</ele>
        <time>2016-12-11T10:39:50.000Z</time>
      </trkpt>
      <trkpt lat="47.52027" lon="6.70711">
        <ele>354</ele>
        <time>2016-12-11T10:39:51.000Z</time>
      </trkpt>
      <trkpt lat="47.52026" lon="6.70717">
        <ele>355</ele>
        <time>2016-12-11T10:39:52.000Z</time>
      </trkpt>
      <trkpt lat="47.52025" lon="6.70722">
        <ele>355</ele>
        <time>2016-12-11T10:39:53.000Z</time>
      </trkpt>
      <trkpt lat="47.52024" lon="6.70727">
        <ele>355</ele>
        <time>2016-12-11T10:39:54.000Z</time>
      </trkpt>
      <trkpt lat="47.52023" lon="6.70732">
        <ele>355</ele>
        <time>2016-12-11T10:39:55.000Z</time>
      </trkpt>
      <trkpt lat="47.52022" lon="6.70738">
        <ele>355</ele>
        <time>2016-12-11T10:39:56.000Z</time>
      </trkpt>
      <trkpt lat="47.52021" lon="6.70744">
        <ele>355</ele>
        <time>2016-12-11T10:39:57.000Z</time>
      </trkpt>
      <trkpt lat="47.5202" lon="6.70749">
        <ele>355</ele>
        <time>2016-12-11T10:39:58.000Z</time>
      </trkpt>
      <trkpt lat="47.52019" lon="6.70754">
        <ele>356</ele>
        <time>2016-12-11T10:39:59.000Z</time>
      </trkpt>
      <trkpt lat="47.52017" lon="6.70758">
        <ele>356</ele>
        <time>2016-12-11T10:40:00.000Z</time>
      </trkpt>
      <trkpt lat="47.52016" lon="6.70763">
        <ele>356</ele>
        <time>2016-12-11T10:40:01.000Z</time>
      </trkpt>
      <trkpt lat="47.52014" lon="6.70768">
        <ele>356</ele>
        <time>2016-12-11T10:40:02.000Z</time>
      </trkpt>
      <trkpt lat="47.52013" lon="6.70773">
        <ele>356</ele>
        <time>2016-12-11T10:40:03.000Z</time>
      </trkpt>
      <trkpt lat="47.52011" lon="6.70776">
        <ele>356</ele>
        <time>2016-12-11T10:40:04.000Z</time>
      </trkpt>
      <trkpt lat="47.5201" lon="6.70781">
        <ele>356</ele>
        <time>2016-12-11T10:40:05.000Z</time>
      </trkpt>
      <trkpt lat="47.52008" lon="6.70785">
        <ele>357</ele>
        <time>2016-12-11T10:40:06.000Z</time>
      </trkpt>
      <trkpt lat="47.52007" lon="6.70789">
        <ele>357</ele>
        <time>2016-12-11T10:40:07.000Z</time>
      </trkpt>
      <trkpt lat="47.52005" lon="6.70793">
        <ele>357</ele>
        <time>2016-12-11T10:40:08.000Z</time>
      </trkpt>
      <trkpt lat="47.52004" lon="6.70796">
        <ele>357</ele>
        <time>2016-12-11T10:40:09.000Z</time>
      </trkpt>
      <trkpt lat="47.52002" lon="6.70801">
        <ele>357</ele>
        <time>2016-12-11T10:40:10.000Z</time>
      </trkpt>
      <trkpt lat="47.52" lon="6.70806">
        <ele>357</ele>
        <time>2016-12-11T10:40:11.000Z</time>
      </trkpt>
      <trkpt lat="47.51998" lon="6.70812">
        <ele>359</ele>
        <time>2016-12-11T10:40:12.000Z</time>
      </trkpt>
      <trkpt lat="47.51996" lon="6.70817">
        <ele>359</ele>
        <time>2016-12-11T10:40:13.000Z</time>
      </trkpt>
      <trkpt lat="47.51994" lon="6.70823">
        <ele>359</ele>
        <time>2016-12-11T10:40:14.000Z</time>
      </trkpt>
      <trkpt lat="47.51992" lon="6.70828">
        <ele>359</ele>
        <time>2016-12-11T10:40:15.000Z</time>
      </trkpt>
      <trkpt lat="47.5199" lon="6.70833">
        <ele>360</ele>
        <time>2016-12-11T10:40:16.000Z</time>
      </trkpt>
      <trkpt lat="47.51989" lon="6.70838">
        <ele>361</ele>
        <time>2016-12-11T10:40:17.000Z</time>
      </trkpt>
      <trkpt lat="47.51987" lon="6.70842">
        <ele>361</ele>
        <time>2016-12-11T10:40:18.000Z</time>
      </trkpt>
      <trkpt lat="47.51986" lon="6.70846">
        <ele>361</ele>
        <time>2016-12-11T10:40:19.000Z</time>
      </trkpt>
      <trkpt lat="47.51984" lon="6.7085">
        <ele>362</ele>
        <time>2016-12-11T10:40:20.000Z</time>
      </trkpt>
      <trkpt lat="47.51983" lon="6.70855">
        <ele>362</ele>
        <time>2016-12-11T10:40:21.000Z</time>
      </trkpt>
      <trkpt lat="47.51982" lon="6.70859">
        <ele>362</ele>
        <time>2016-12-11T10:40:22.000Z</time>
      </trkpt>
      <trkpt lat="47.5198" lon="6.70865">
        <ele>363</ele>
        <time>2016-12-11T10:40:23.000Z</time>
      </trkpt>
      <trkpt lat="47.5198" lon="6.70869">
        <ele>363</ele>
        <time>2016-12-11T10:40:24.000Z</time>
      </trkpt>
      <trkpt lat="47.51979" lon="6.70873">
        <ele>363</ele>
        <time>2016-12-11T10:40:25.000Z</time>
      </trkpt>
      <trkpt lat="47.51978" lon="6.70877">
        <ele>363</ele>
        <time>2016-12-11T10:40:26.000Z</time>
      </trkpt>
      <trkpt lat="47.51977" lon="6.70882">
        <ele>363</ele>
        <time>2016-12-11T10:40:27.000Z</time>
      </trkpt>
      <trkpt lat="47.51978" lon="6.70887">
        <ele>363</ele>
        <time>2016-12-11T10:40:28.000Z</time>
      </trkpt>
      <trkpt lat="47.51978" lon="6.70891">
        <ele>363</ele>
        <time>2016-12-11T10:40:29.000Z</time>
      </trkpt>
      <trkpt lat="47.51979" lon="6.70896">
        <ele>363</ele>
        <time>2016-12-11T10:40:30.000Z</time>
      </trkpt>
      <trkpt lat="47.5198" lon="6.709">
        <ele>363</ele>
        <time>2016-12-11T10:40:31.000Z</time>
      </trkpt>
      <trkpt lat="47.51981" lon="6.70904">
        <ele>363</ele>
        <time>2016-12-11T10:40:32.000Z</time>
      </trkpt>
      <trkpt lat="47.51982" lon="6.70909">
        <ele>363</ele>
        <time>2016-12-11T10:40:33.000Z</time>
      </trkpt>
      <trkpt lat="47.51983" lon="6.70914">
        <ele>363</ele>
        <time>2016-12-11T10:40:34.000Z</time>
      </trkpt>
      <trkpt lat="47.51984" lon="6.70917">
        <ele>367</ele>
        <time>2016-12-11T10:40:35.000Z</time>
      </trkpt>
      <trkpt lat="47.51986" lon="6.70921">
        <ele>367</ele>
        <time>2016-12-11T10:40:36.000Z</time>
      </trkpt>
      <trkpt lat="47.51989" lon="6.70925">
        <ele>366</ele>
        <time>2016-12-11T10:40:37.000Z</time>
      </trkpt>
      <trkpt lat="47.51992" lon="6.7093">
        <ele>367</ele>
        <time>2016-12-11T10:40:38.000Z</time>
      </trkpt>
      <trkpt lat="47.51995" lon="6.70934">
        <ele>367</ele>
        <time>2016-12-11T10:40:39.000Z</time>
      </trkpt>
      <trkpt lat="47.51998" lon="6.70938">
        <ele>368</ele>
        <time>2016-12-11T10:40:40.000Z</time>
      </trkpt>
      <trkpt lat="47.52001" lon="6.70941">
        <ele>364</ele>
        <time>2016-12-11T10:40:41.000Z</time>
      </trkpt>
      <trkpt lat="47.52004" lon="6.70944">
        <ele>364</ele>
        <time>2016-12-11T10:40:42.000Z</time>
      </trkpt>
      <trkpt lat="47.52006" lon="6.70946">
        <ele>364</ele>
        <time>2016-12-11T10:40:43.000Z</time>
      </trkpt>
      <trkpt lat="47.52009" lon="6.70949">
        <ele>364</ele>
        <time>2016-12-11T10:40:44.000Z</time>
      </trkpt>
      <trkpt lat="47.52011" lon="6.70952">
        <ele>365</ele>
        <time>2016-12-11T10:40:45.000Z</time>
      </trkpt>
      <trkpt lat="47.52014" lon="6.70955">
        <ele>365</ele>
        <time>2016-12-11T10:40:46.000Z</time>
      </trkpt>
      <trkpt lat="47.52017" lon="6.70958">
        <ele>365</ele>
        <time>2016-12-11T10:40:47.000Z</time>
      </trkpt>
      <trkpt lat="47.5202" lon="6.7096">
        <ele>365</ele>
        <time>2016-12-11T10:40:48.000Z</time>
      </trkpt>
      <trkpt lat="47.52022" lon="6.70963">
        <ele>365</ele>
        <time>2016-12-11T10:40:49.000Z</time>
      </trkpt>
      <trkpt lat="47.52024" lon="6.70966">
        <ele>366</ele>
        <time>2016-12-11T10:40:50.000Z</time>
      </trkpt>
      <trkpt lat="47.52027" lon="6.70969">
        <ele>366</ele>
        <time>2016-12-11T10:40:51.000Z</time>
      </trkpt>
      <trkpt lat="47.5203" lon="6.70973">
        <ele>366</ele>
        <time>2016-12-11T10:40:52.000Z</time>
      </trkpt>
      <trkpt lat="47.52032" lon="6.70976">
        <ele>366</ele>
        <time>2016-12-11T10:40:53.000Z</time>
      </trkpt>
      <trkpt lat="47.52034" lon="6.7098">
        <ele>366</ele>
        <time>2016-12-11T10:40:54.000Z</time>
      </trkpt>
      <trkpt lat="47.52036" lon="6.70984">
        <ele>366</ele>
        <time>2016-12-11T10:40:55.000Z</time>
      </trkpt>
      <trkpt lat="47.52038" lon="6.70988">
        <ele>366</ele>
        <time>2016-12-11T10:40:56.000Z</time>
      </trkpt>
      <trkpt lat="47.5204" lon="6.70992">
        <ele>366</ele>
        <time>2016-12-11T10:40:58.000Z</time>
      </trkpt>
      <trkpt lat="47.52041" lon="6.70995">
        <ele>366</ele>
        <time>2016-12-11T10:40:59.000Z</time>
      </trkpt>
      <trkpt lat="47.52039" lon="6.71">
        <ele>375</ele>
        <time>2016-12-11T10:41:01.000Z</time>
      </trkpt>
      <trkpt lat="47.52037" lon="6.71002">
        <ele>375</ele>
        <time>2016-12-11T10:41:02.000Z</time>
      </trkpt>
      <trkpt lat="47.52034" lon="6.71">
        <ele>367</ele>
        <time>2016-12-11T10:41:04.000Z</time>
      </trkpt>
      <trkpt lat="47.52032" lon="6.70999">
        <ele>367</ele>
        <time>2016-12-11T10:41:05.000Z</time>
      </trkpt>
      <trkpt lat="47.52028" lon="6.70996">
        <ele>368</ele>
        <time>2016-12-11T10:41:07.000Z</time>
      </trkpt>
      <trkpt lat="47.52026" lon="6.70994">
        <ele>368</ele>
        <time>2016-12-11T10:41:08.000Z</time>
      </trkpt>
      <trkpt lat="47.52022" lon="6.70991">
        <ele>368</ele>
        <time>2016-12-11T10:41:10.000Z</time>
      </trkpt>
      <trkpt lat="47.52019" lon="6.7099">
        <ele>368</ele>
        <time>2016-12-11T10:41:11.000Z</time>
      </trkpt>
      <trkpt lat="47.52015" lon="6.70988">
        <ele>369</ele>
        <time>2016-12-11T10:41:13.000Z</time>
      </trkpt>
      <trkpt lat="47.52013" lon="6.70987">
        <ele>369</ele>
        <time>2016-12-11T10:41:14.000Z</time>
      </trkpt>
      <trkpt lat="47.52011" lon="6.70985">
        <ele>369</ele>
        <time>2016-12-11T10:41:15.000Z</time>
      </trkpt>
      <trkpt lat="47.52008" lon="6.70984">
        <ele>369</ele>
        <time>2016-12-11T10:41:16.000Z</time>
      </trkpt>
      <trkpt lat="47.52006" lon="6.70984">
        <ele>369</ele>
        <time>2016-12-11T10:41:17.000Z</time>
      </trkpt>
      <trkpt lat="47.52003" lon="6.70983">
        <ele>369</ele>
        <time>2016-12-11T10:41:18.000Z</time>
      </trkpt>
      <trkpt lat="47.52" lon="6.70983">
        <ele>369</ele>
        <time>2016-12-11T10:41:19.000Z</time>
      </trkpt>
      <trkpt lat="47.51998" lon="6.70982">
        <ele>373</ele>
        <time>2016-12-11T10:41:20.000Z</time>
      </trkpt>
      <trkpt lat="47.51994" lon="6.70982">
        <ele>373</ele>
        <time>2016-12-11T10:41:22.000Z</time>
      </trkpt>
      <trkpt lat="47.51993" lon="6.70982">
        <ele>374</ele>
        <time>2016-12-11T10:41:23.000Z</time>
      </trkpt>
      <trkpt lat="47.51988" lon="6.70981">
        <ele>374</ele>
        <time>2016-12-11T10:41:25.000Z</time>
      </trkpt>
      <trkpt lat="47.51986" lon="6.70982">
        <ele>374</ele>
        <time>2016-12-11T10:41:26.000Z</time>
      </trkpt>
      <trkpt lat="47.51982" lon="6.70984">
        <ele>374</ele>
        <time>2016-12-11T10:41:28.000Z</time>
      </trkpt>
      <trkpt lat="47.51981" lon="6.70984">
        <ele>374</ele>
        <time>2016-12-11T10:41:29.000Z</time>
      </trkpt>
      <trkpt lat="47.51977" lon="6.70984">
        <ele>374</ele>
        <time>2016-12-11T10:41:31.000Z</time>
      </trkpt>
      <trkpt lat="47.51974" lon="6.70984">
        <ele>374</ele>
        <time>2016-12-11T10:41:32.000Z</time>
      </trkpt>
      <trkpt lat="47.51972" lon="6.70984">
        <ele>375</ele>
        <time>2016-12-11T10:41:33.000Z</time>
      </trkpt>
      <trkpt lat="47.51969" lon="6.70984">
        <ele>375</ele>
        <time>2016-12-11T10:41:34.000Z</time>
      </trkpt>
      <trkpt lat="47.51966" lon="6.70986">
        <ele>375</ele>
        <time>2016-12-11T10:41:36.000Z</time>
      </trkpt>
      <trkpt lat="47.51964" lon="6.70986">
        <ele>375</ele>
        <time>2016-12-11T10:41:37.000Z</time>
      </trkpt>
      <trkpt lat="47.5196" lon="6.70988">
        <ele>376</ele>
        <time>2016-12-11T10:41:40.000Z</time>
      </trkpt>
      <trkpt lat="47.51957" lon="6.70989">
        <ele>376</ele>
        <time>2016-12-11T10:41:41.000Z</time>
      </trkpt>
      <trkpt lat="47.51953" lon="6.7099">
        <ele>377</ele>
        <time>2016-12-11T10:41:43.000Z</time>
      </trkpt>
      <trkpt lat="47.5195" lon="6.70991">
        <ele>377</ele>
        <time>2016-12-11T10:41:44.000Z</time>
      </trkpt>
      <trkpt lat="47.51947" lon="6.70991">
        <ele>377</ele>
        <time>2016-12-11T10:41:45.000Z</time>
      </trkpt>
      <trkpt lat="47.51945" lon="6.70991">
        <ele>378</ele>
        <time>2016-12-11T10:41:46.000Z</time>
      </trkpt>
      <trkpt lat="47.51942" lon="6.70991">
        <ele>378</ele>
        <time>2016-12-11T10:41:47.000Z</time>
      </trkpt>
      <trkpt lat="47.5194" lon="6.7099">
        <ele>379</ele>
        <time>2016-12-11T10:41:48.000Z</time>
      </trkpt>
      <trkpt lat="47.51936" lon="6.70988">
        <ele>379</ele>
        <time>2016-12-11T10:41:51.000Z</time>
      </trkpt>
      <trkpt lat="47.51935" lon="6.70988">
        <ele>379</ele>
        <time>2016-12-11T10:41:52.000Z</time>
      </trkpt>
      <trkpt lat="47.51931" lon="6.70989">
        <ele>380</ele>
        <time>2016-12-11T10:41:54.000Z</time>
      </trkpt>
      <trkpt lat="47.51929" lon="6.70989">
        <ele>381</ele>
        <time>2016-12-11T10:41:55.000Z</time>
      </trkpt>
      <trkpt lat="47.51926" lon="6.70989">
        <ele>381</ele>
        <time>2016-12-11T10:41:57.000Z</time>
      </trkpt>
      <trkpt lat="47.51924" lon="6.70989">
        <ele>381</ele>
        <time>2016-12-11T10:41:58.000Z</time>
      </trkpt>
      <trkpt lat="47.51921" lon="6.70989">
        <ele>382</ele>
        <time>2016-12-11T10:42:07.000Z</time>
      </trkpt>
      <trkpt lat="47.51912" lon="6.70993">
        <ele>386</ele>
        <time>2016-12-11T10:42:08.000Z</time>
      </trkpt>
      <trkpt lat="47.51912" lon="6.70993">
        <ele>386</ele>
        <time>2016-12-11T10:42:13.000Z</time>
      </trkpt>
      <trkpt lat="47.51904" lon="6.70996">
        <ele>386</ele>
        <time>2016-12-11T10:42:14.000Z</time>
      </trkpt>
      <trkpt lat="47.519" lon="6.70998">
        <ele>386</ele>
        <time>2016-12-11T10:42:18.000Z</time>
      </trkpt>
      <trkpt lat="47.51899" lon="6.70998">
        <ele>386</ele>
        <time>2016-12-11T10:42:19.000Z</time>
      </trkpt>
      <trkpt lat="47.51895" lon="6.71">
        <ele>392</ele>
        <time>2016-12-11T10:42:22.000Z</time>
      </trkpt>
      <trkpt lat="47.51893" lon="6.71001">
        <ele>393</ele>
        <time>2016-12-11T10:42:23.000Z</time>
      </trkpt>
      <trkpt lat="47.5189" lon="6.71002">
        <ele>393</ele>
        <time>2016-12-11T10:42:25.000Z</time>
      </trkpt>
      <trkpt lat="47.51888" lon="6.71002">
        <ele>393</ele>
        <time>2016-12-11T10:42:26.000Z</time>
      </trkpt>
      <trkpt lat="47.51884" lon="6.71">
        <ele>394</ele>
        <time>2016-12-11T10:42:28.000Z</time>
      </trkpt>
      <trkpt lat="47.51883" lon="6.71">
        <ele>387</ele>
        <time>2016-12-11T10:42:29.000Z</time>
      </trkpt>
      <trkpt lat="47.51883" lon="6.71">
        <ele>387</ele>
        <time>2016-12-11T10:42:35.000Z</time>
      </trkpt>
      <trkpt lat="47.51874" lon="6.71">
        <ele>387</ele>
        <time>2016-12-11T10:42:36.000Z</time>
      </trkpt>
      <trkpt lat="47.51874" lon="6.71">
        <ele>387</ele>
        <time>2016-12-11T10:42:45.000Z</time>
      </trkpt>
      <trkpt lat="47.5186" lon="6.71005">
        <ele>395</ele>
        <time>2016-12-11T10:42:46.000Z</time>
      </trkpt>
      <trkpt lat="47.5186" lon="6.71005">
        <ele>395</ele>
        <time>2016-12-11T10:42:49.000Z</time>
      </trkpt>
      <trkpt lat="47.51854" lon="6.71005">
        <ele>395</ele>
        <time>2016-12-11T10:42:50.000Z</time>
      </trkpt>
      <trkpt lat="47.51851" lon="6.71006">
        <ele>395</ele>
        <time>2016-12-11T10:42:52.000Z</time>
      </trkpt>
      <trkpt lat="47.51849" lon="6.71006">
        <ele>395</ele>
        <time>2016-12-11T10:42:53.000Z</time>
      </trkpt>
      <trkpt lat="47.51845" lon="6.71006">
        <ele>395</ele>
        <time>2016-12-11T10:42:56.000Z</time>
      </trkpt>
      <trkpt lat="47.51843" lon="6.71007">
        <ele>395</ele>
        <time>2016-12-11T10:42:57.000Z</time>
      </trkpt>
      <trkpt lat="47.51839" lon="6.71009">
        <ele>395</ele>
        <time>2016-12-11T10:43:00.000Z</time>
      </trkpt>
      <trkpt lat="47.51837" lon="6.71009">
        <ele>395</ele>
        <time>2016-12-11T10:43:01.000Z</time>
      </trkpt>
      <trkpt lat="47.51834" lon="6.71007">
        <ele>395</ele>
        <time>2016-12-11T10:43:03.000Z</time>
      </trkpt>
      <trkpt lat="47.51833" lon="6.71007">
        <ele>395</ele>
        <time>2016-12-11T10:43:04.000Z</time>
      </trkpt>
      <trkpt lat="47.51829" lon="6.71009">
        <ele>396</ele>
        <time>2016-12-11T10:43:07.000Z</time>
      </trkpt>
      <trkpt lat="47.51828" lon="6.7101">
        <ele>396</ele>
        <time>2016-12-11T10:43:08.000Z</time>
      </trkpt>
      <trkpt lat="47.51824" lon="6.71011">
        <ele>396</ele>
        <time>2016-12-11T10:43:11.000Z</time>
      </trkpt>
      <trkpt lat="47.51823" lon="6.71011">
        <ele>397</ele>
        <time>2016-12-11T10:43:12.000Z</time>
      </trkpt>
      <trkpt lat="47.5182" lon="6.71012">
        <ele>397</ele>
        <time>2016-12-11T10:43:13.000Z</time>
      </trkpt>
      <trkpt lat="47.51818" lon="6.71013">
        <ele>397</ele>
        <time>2016-12-11T10:43:14.000Z</time>
      </trkpt>
      <trkpt lat="47.51813" lon="6.71014">
        <ele>397</ele>
        <time>2016-12-11T10:43:17.000Z</time>
      </trkpt>
      <trkpt lat="47.51813" lon="6.71014">
        <ele>398</ele>
        <time>2016-12-11T10:43:18.000Z</time>
      </trkpt>
      <trkpt lat="47.51808" lon="6.71015">
        <ele>398</ele>
        <time>2016-12-11T10:43:21.000Z</time>
      </trkpt>
      <trkpt lat="47.51806" lon="6.71015">
        <ele>398</ele>
        <time>2016-12-11T10:43:22.000Z</time>
      </trkpt>
      <trkpt lat="47.51803" lon="6.71015">
        <ele>398</ele>
        <time>2016-12-11T10:43:25.000Z</time>
      </trkpt>
      <trkpt lat="47.51801" lon="6.71015">
        <ele>398</ele>
        <time>2016-12-11T10:43:26.000Z</time>
      </trkpt>
      <trkpt lat="47.51797" lon="6.71015">
        <ele>398</ele>
        <time>2016-12-11T10:43:29.000Z</time>
      </trkpt>
      <trkpt lat="47.51796" lon="6.71014">
        <ele>398</ele>
        <time>2016-12-11T10:43:30.000Z</time>
      </trkpt>
      <trkpt lat="47.51793" lon="6.71014">
        <ele>398</ele>
        <time>2016-12-11T10:43:32.000Z</time>
      </trkpt>
      <trkpt lat="47.51791" lon="6.71014">
        <ele>398</ele>
        <time>2016-12-11T10:43:33.000Z</time>
      </trkpt>
      <trkpt lat="47.51786" lon="6.71014">
        <ele>398</ele>
        <time>2016-12-11T10:43:37.000Z</time>
      </trkpt>
      <trkpt lat="47.51785" lon="6.71013">
        <ele>398</ele>
        <time>2016-12-11T10:43:38.000Z</time>
      </trkpt>
      <trkpt lat="47.51781" lon="6.71015">
        <ele>398</ele>
        <time>2016-12-11T10:43:41.000Z</time>
      </trkpt>
      <trkpt lat="47.51778" lon="6.71015">
        <ele>398</ele>
        <time>2016-12-11T10:43:42.000Z</time>
      </trkpt>
      <trkpt lat="47.51774" lon="6.71017">
        <ele>398</ele>
        <time>2016-12-11T10:43:44.000Z</time>
      </trkpt>
      <trkpt lat="47.51772" lon="6.71018">
        <ele>399</ele>
        <time>2016-12-11T10:43:45.000Z</time>
      </trkpt>
      <trkpt lat="47.51768" lon="6.7102">
        <ele>399</ele>
        <time>2016-12-11T10:43:48.000Z</time>
      </trkpt>
      <trkpt lat="47.51766" lon="6.7102">
        <ele>399</ele>
        <time>2016-12-11T10:43:49.000Z</time>
      </trkpt>
      <trkpt lat="47.51763" lon="6.71021">
        <ele>399</ele>
        <time>2016-12-11T10:43:51.000Z</time>
      </trkpt>
      <trkpt lat="47.51762" lon="6.71022">
        <ele>399</ele>
        <time>2016-12-11T10:43:52.000Z</time>
      </trkpt>
      <trkpt lat="47.51758" lon="6.71023">
        <ele>399</ele>
        <time>2016-12-11T10:43:54.000Z</time>
      </trkpt>
      <trkpt lat="47.51757" lon="6.71023">
        <ele>399</ele>
        <time>2016-12-11T10:43:55.000Z</time>
      </trkpt>
      <trkpt lat="47.51754" lon="6.71024">
        <ele>399</ele>
        <time>2016-12-11T10:43:57.000Z</time>
      </trkpt>
      <trkpt lat="47.51752" lon="6.71024">
        <ele>399</ele>
        <time>2016-12-11T10:43:58.000Z</time>
      </trkpt>
      <trkpt lat="47.51749" lon="6.71025">
        <ele>404</ele>
        <time>2016-12-11T10:44:00.000Z</time>
      </trkpt>
      <trkpt lat="47.51747" lon="6.71025">
        <ele>404</ele>
        <time>2016-12-11T10:44:01.000Z</time>
      </trkpt>
      <trkpt lat="47.51743" lon="6.71025">
        <ele>404</ele>
        <time>2016-12-11T10:44:03.000Z</time>
      </trkpt>
      <trkpt lat="47.51742" lon="6.71026">
        <ele>404</ele>
        <time>2016-12-11T10:44:04.000Z</time>
      </trkpt>
      <trkpt lat="47.51737" lon="6.71025">
        <ele>405</ele>
        <time>2016-12-11T10:44:06.000Z</time>
      </trkpt>
      <trkpt lat="47.51736" lon="6.71026">
        <ele>405</ele>
        <time>2016-12-11T10:44:07.000Z</time>
      </trkpt>
      <trkpt lat="47.51731" lon="6.71026">
        <ele>405</ele>
        <time>2016-12-11T10:44:10.000Z</time>
      </trkpt>
      <trkpt lat="47.51729" lon="6.71026">
        <ele>406</ele>
        <time>2016-12-11T10:44:11.000Z</time>
      </trkpt>
      <trkpt lat="47.51726" lon="6.71026">
        <ele>406</ele>
        <time>2016-12-11T10:44:13.000Z</time>
      </trkpt>
      <trkpt lat="47.51724" lon="6.71026">
        <ele>406</ele>
        <time>2016-12-11T10:44:14.000Z</time>
      </trkpt>
      <trkpt lat="47.51721" lon="6.71027">
        <ele>407</ele>
        <time>2016-12-11T10:44:16.000Z</time>
      </trkpt>
      <trkpt lat="47.51719" lon="6.71026">
        <ele>407</ele>
        <time>2016-12-11T10:44:17.000Z</time>
      </trkpt>
      <trkpt lat="47.51716" lon="6.71025">
        <ele>407</ele>
        <time>2016-12-11T10:44:19.000Z</time>
      </trkpt>
      <trkpt lat="47.51714" lon="6.71024">
        <ele>407</ele>
        <time>2016-12-11T10:44:20.000Z</time>
      </trkpt>
      <trkpt lat="47.51711" lon="6.71023">
        <ele>408</ele>
        <time>2016-12-11T10:44:22.000Z</time>
      </trkpt>
      <trkpt lat="47.51709" lon="6.71022">
        <ele>408</ele>
        <time>2016-12-11T10:44:23.000Z</time>
      </trkpt>
      <trkpt lat="47.51705" lon="6.71021">
        <ele>408</ele>
        <time>2016-12-11T10:44:25.000Z</time>
      </trkpt>
      <trkpt lat="47.51703" lon="6.71021">
        <ele>408</ele>
        <time>2016-12-11T10:44:26.000Z</time>
      </trkpt>
      <trkpt lat="47.51699" lon="6.71019">
        <ele>409</ele>
        <time>2016-12-11T10:44:28.000Z</time>
      </trkpt>
      <trkpt lat="47.51697" lon="6.71018">
        <ele>409</ele>
        <time>2016-12-11T10:44:29.000Z</time>
      </trkpt>
      <trkpt lat="47.51694" lon="6.71018">
        <ele>409</ele>
        <time>2016-12-11T10:44:31.000Z</time>
      </trkpt>
      <trkpt lat="47.51692" lon="6.71017">
        <ele>409</ele>
        <time>2016-12-11T10:44:32.000Z</time>
      </trkpt>
      <trkpt lat="47.51689" lon="6.71017">
        <ele>410</ele>
        <time>2016-12-11T10:44:34.000Z</time>
      </trkpt>
      <trkpt lat="47.51687" lon="6.71016">
        <ele>410</ele>
        <time>2016-12-11T10:44:35.000Z</time>
      </trkpt>
      <trkpt lat="47.51685" lon="6.71017">
        <ele>410</ele>
        <time>2016-12-11T10:44:36.000Z</time>
      </trkpt>
      <trkpt lat="47.51682" lon="6.71016">
        <ele>410</ele>
        <time>2016-12-11T10:44:37.000Z</time>
      </trkpt>
      <trkpt lat="47.5168" lon="6.71015">
        <ele>410</ele>
        <time>2016-12-11T10:44:38.000Z</time>
      </trkpt>
      <trkpt lat="47.51677" lon="6.71014">
        <ele>411</ele>
        <time>2016-12-11T10:44:39.000Z</time>
      </trkpt>
      <trkpt lat="47.51675" lon="6.71014">
        <ele>411</ele>
        <time>2016-12-11T10:44:40.000Z</time>
      </trkpt>
      <trkpt lat="47.51672" lon="6.71015">
        <ele>411</ele>
        <time>2016-12-11T10:44:41.000Z</time>
      </trkpt>
      <trkpt lat="47.51668" lon="6.71015">
        <ele>411</ele>
        <time>2016-12-11T10:44:42.000Z</time>
      </trkpt>
      <trkpt lat="47.51666" lon="6.71015">
        <ele>418</ele>
        <time>2016-12-11T10:44:43.000Z</time>
      </trkpt>
      <trkpt lat="47.51662" lon="6.71014">
        <ele>419</ele>
        <time>2016-12-11T10:44:45.000Z</time>
      </trkpt>
      <trkpt lat="47.51661" lon="6.71015">
        <ele>419</ele>
        <time>2016-12-11T10:44:46.000Z</time>
      </trkpt>
      <trkpt lat="47.51659" lon="6.71014">
        <ele>419</ele>
        <time>2016-12-11T10:44:48.000Z</time>
      </trkpt>
      <trkpt lat="47.51656" lon="6.71014">
        <ele>419</ele>
        <time>2016-12-11T10:44:49.000Z</time>
      </trkpt>
      <trkpt lat="47.51653" lon="6.71013">
        <ele>420</ele>
        <time>2016-12-11T10:44:50.000Z</time>
      </trkpt>
      <trkpt lat="47.51651" lon="6.71013">
        <ele>420</ele>
        <time>2016-12-11T10:44:51.000Z</time>
      </trkpt>
      <trkpt lat="47.51647" lon="6.7101">
        <ele>421</ele>
        <time>2016-12-11T10:44:53.000Z</time>
      </trkpt>
      <trkpt lat="47.51645" lon="6.7101">
        <ele>421</ele>
        <time>2016-12-11T10:44:54.000Z</time>
      </trkpt>
      <trkpt lat="47.51643" lon="6.7101">
        <ele>422</ele>
        <time>2016-12-11T10:44:55.000Z</time>
      </trkpt>
      <trkpt lat="47.5164" lon="6.7101">
        <ele>422</ele>
        <time>2016-12-11T10:44:56.000Z</time>
      </trkpt>
      <trkpt lat="47.51636" lon="6.7101">
        <ele>423</ele>
        <time>2016-12-11T10:44:58.000Z</time>
      </trkpt>
      <trkpt lat="47.51634" lon="6.7101">
        <ele>424</ele>
        <time>2016-12-11T10:44:59.000Z</time>
      </trkpt>
      <trkpt lat="47.51631" lon="6.71009">
        <ele>424</ele>
        <time>2016-12-11T10:45:01.000Z</time>
      </trkpt>
      <trkpt lat="47.51629" lon="6.71009">
        <ele>425</ele>
        <time>2016-12-11T10:45:02.000Z</time>
      </trkpt>
      <trkpt lat="47.51626" lon="6.71008">
        <ele>425</ele>
        <time>2016-12-11T10:45:04.000Z</time>
      </trkpt>
      <trkpt lat="47.51624" lon="6.71007">
        <ele>425</ele>
        <time>2016-12-11T10:45:05.000Z</time>
      </trkpt>
      <trkpt lat="47.51621" lon="6.71005">
        <ele>426</ele>
        <time>2016-12-11T10:45:07.000Z</time>
      </trkpt>
      <trkpt lat="47.51619" lon="6.71004">
        <ele>426</ele>
        <time>2016-12-11T10:45:08.000Z</time>
      </trkpt>
      <trkpt lat="47.51615" lon="6.71005">
        <ele>427</ele>
        <time>2016-12-11T10:45:12.000Z</time>
      </trkpt>
      <trkpt lat="47.51612" lon="6.71005">
        <ele>428</ele>
        <time>2016-12-11T10:45:13.000Z</time>
      </trkpt>
      <trkpt lat="47.51608" lon="6.71005">
        <ele>428</ele>
        <time>2016-12-11T10:45:14.000Z</time>
      </trkpt>
      <trkpt lat="47.51606" lon="6.71004">
        <ele>429</ele>
        <time>2016-12-11T10:45:15.000Z</time>
      </trkpt>
      <trkpt lat="47.51603" lon="6.71004">
        <ele>429</ele>
        <time>2016-12-11T10:45:16.000Z</time>
      </trkpt>
      <trkpt lat="47.516" lon="6.71003">
        <ele>429</ele>
        <time>2016-12-11T10:45:17.000Z</time>
      </trkpt>
      <trkpt lat="47.51597" lon="6.71003">
        <ele>430</ele>
        <time>2016-12-11T10:45:18.000Z</time>
      </trkpt>
      <trkpt lat="47.51594" lon="6.71002">
        <ele>431</ele>
        <time>2016-12-11T10:45:19.000Z</time>
      </trkpt>
      <trkpt lat="47.5159" lon="6.71">
        <ele>431</ele>
        <time>2016-12-11T10:45:21.000Z</time>
      </trkpt>
      <trkpt lat="47.51588" lon="6.71">
        <ele>430</ele>
        <time>2016-12-11T10:45:22.000Z</time>
      </trkpt>
      <trkpt lat="47.51586" lon="6.70998">
        <ele>431</ele>
        <time>2016-12-11T10:45:24.000Z</time>
      </trkpt>
      <trkpt lat="47.51582" lon="6.70996">
        <ele>433</ele>
        <time>2016-12-11T10:45:25.000Z</time>
      </trkpt>
      <trkpt lat="47.51578" lon="6.70993">
        <ele>433</ele>
        <time>2016-12-11T10:45:27.000Z</time>
      </trkpt>
      <trkpt lat="47.51576" lon="6.70991">
        <ele>433</ele>
        <time>2016-12-11T10:45:28.000Z</time>
      </trkpt>
      <trkpt lat="47.51573" lon="6.7099">
        <ele>433</ele>
        <time>2016-12-11T10:45:29.000Z</time>
      </trkpt>
      <trkpt lat="47.5157" lon="6.70989">
        <ele>433</ele>
        <time>2016-12-11T10:45:30.000Z</time>
      </trkpt>
      <trkpt lat="47.51567" lon="6.70988">
        <ele>433</ele>
        <time>2016-12-11T10:45:31.000Z</time>
      </trkpt>
      <trkpt lat="47.51565" lon="6.70986">
        <ele>433</ele>
        <time>2016-12-11T10:45:32.000Z</time>
      </trkpt>
      <trkpt lat="47.51561" lon="6.70984">
        <ele>433</ele>
        <time>2016-12-11T10:45:34.000Z</time>
      </trkpt>
      <trkpt lat="47.51559" lon="6.70983">
        <ele>433</ele>
        <time>2016-12-11T10:45:35.000Z</time>
      </trkpt>
      <trkpt lat="47.51557" lon="6.70981">
        <ele>433</ele>
        <time>2016-12-11T10:45:36.000Z</time>
      </trkpt>
      <trkpt lat="47.51555" lon="6.70979">
        <ele>433</ele>
        <time>2016-12-11T10:45:37.000Z</time>
      </trkpt>
      <trkpt lat="47.51552" lon="6.70977">
        <ele>433</ele>
        <time>2016-12-11T10:45:39.000Z</time>
      </trkpt>
      <trkpt lat="47.5155" lon="6.70976">
        <ele>433</ele>
        <time>2016-12-11T10:45:40.000Z</time>
      </trkpt>
      <trkpt lat="47.51547" lon="6.70974">
        <ele>433</ele>
        <time>2016-12-11T10:45:42.000Z</time>
      </trkpt>
      <trkpt lat="47.51545" lon="6.70973">
        <ele>433</ele>
        <time>2016-12-11T10:45:43.000Z</time>
      </trkpt>
      <trkpt lat="47.51541" lon="6.70971">
        <ele>433</ele>
        <time>2016-12-11T10:45:46.000Z</time>
      </trkpt>
      <trkpt lat="47.5154" lon="6.70971">
        <ele>433</ele>
        <time>2016-12-11T10:45:47.000Z</time>
      </trkpt>
      <trkpt lat="47.51537" lon="6.70972">
        <ele>434</ele>
        <time>2016-12-11T10:45:51.000Z</time>
      </trkpt>
      <trkpt lat="47.51535" lon="6.70972">
        <ele>434</ele>
        <time>2016-12-11T10:45:52.000Z</time>
      </trkpt>
      <trkpt lat="47.51531" lon="6.70971">
        <ele>434</ele>
        <time>2016-12-11T10:45:56.000Z</time>
      </trkpt>
      <trkpt lat="47.5153" lon="6.7097">
        <ele>434</ele>
        <time>2016-12-11T10:45:57.000Z</time>
      </trkpt>
      <trkpt lat="47.51526" lon="6.7097">
        <ele>435</ele>
        <time>2016-12-11T10:45:59.000Z</time>
      </trkpt>
      <trkpt lat="47.51524" lon="6.7097">
        <ele>435</ele>
        <time>2016-12-11T10:46:00.000Z</time>
      </trkpt>
      <trkpt lat="47.51522" lon="6.70968">
        <ele>435</ele>
        <time>2016-12-11T10:46:01.000Z</time>
      </trkpt>
      <trkpt lat="47.51516" lon="6.70967">
        <ele>435</ele>
        <time>2016-12-11T10:46:02.000Z</time>
      </trkpt>
      <trkpt lat="47.51512" lon="6.70967">
        <ele>435</ele>
        <time>2016-12-11T10:46:03.000Z</time>
      </trkpt>
      <trkpt lat="47.51508" lon="6.70965">
        <ele>435</ele>
        <time>2016-12-11T10:46:04.000Z</time>
      </trkpt>
      <trkpt lat="47.51503" lon="6.70963">
        <ele>435</ele>
        <time>2016-12-11T10:46:05.000Z</time>
      </trkpt>
      <trkpt lat="47.515" lon="6.70961">
        <ele>442</ele>
        <time>2016-12-11T10:46:08.000Z</time>
      </trkpt>
      <trkpt lat="47.51498" lon="6.7096">
        <ele>442</ele>
        <time>2016-12-11T10:46:09.000Z</time>
      </trkpt>
      <trkpt lat="47.51495" lon="6.7096">
        <ele>442</ele>
        <time>2016-12-11T10:46:11.000Z</time>
      </trkpt>
      <trkpt lat="47.51493" lon="6.7096">
        <ele>443</ele>
        <time>2016-12-11T10:46:12.000Z</time>
      </trkpt>
      <trkpt lat="47.51492" lon="6.70961">
        <ele>443</ele>
        <time>2016-12-11T10:46:13.000Z</time>
      </trkpt>
      <trkpt lat="47.51489" lon="6.70961">
        <ele>443</ele>
        <time>2016-12-11T10:46:14.000Z</time>
      </trkpt>
      <trkpt lat="47.51486" lon="6.70961">
        <ele>443</ele>
        <time>2016-12-11T10:46:15.000Z</time>
      </trkpt>
      <trkpt lat="47.51484" lon="6.70959">
        <ele>443</ele>
        <time>2016-12-11T10:46:16.000Z</time>
      </trkpt>
      <trkpt lat="47.51482" lon="6.70959">
        <ele>443</ele>
        <time>2016-12-11T10:46:17.000Z</time>
      </trkpt>
      <trkpt lat="47.5148" lon="6.70958">
        <ele>443</ele>
        <time>2016-12-11T10:46:18.000Z</time>
      </trkpt>
      <trkpt lat="47.51476" lon="6.70957">
        <ele>443</ele>
        <time>2016-12-11T10:46:21.000Z</time>
      </trkpt>
      <trkpt lat="47.51475" lon="6.70956">
        <ele>443</ele>
        <time>2016-12-11T10:46:22.000Z</time>
      </trkpt>
      <trkpt lat="47.51471" lon="6.70956">
        <ele>444</ele>
        <time>2016-12-11T10:46:25.000Z</time>
      </trkpt>
      <trkpt lat="47.5147" lon="6.70956">
        <ele>444</ele>
        <time>2016-12-11T10:46:26.000Z</time>
      </trkpt>
      <trkpt lat="47.51466" lon="6.70952">
        <ele>444</ele>
        <time>2016-12-11T10:46:29.000Z</time>
      </trkpt>
      <trkpt lat="47.51464" lon="6.70951">
        <ele>444</ele>
        <time>2016-12-11T10:46:30.000Z</time>
      </trkpt>
      <trkpt lat="47.5146" lon="6.7095">
        <ele>444</ele>
        <time>2016-12-11T10:46:33.000Z</time>
      </trkpt>
      <trkpt lat="47.51458" lon="6.70951">
        <ele>444</ele>
        <time>2016-12-11T10:46:34.000Z</time>
      </trkpt>
      <trkpt lat="47.51454" lon="6.70951">
        <ele>445</ele>
        <time>2016-12-11T10:46:36.000Z</time>
      </trkpt>
      <trkpt lat="47.51452" lon="6.7095">
        <ele>445</ele>
        <time>2016-12-11T10:46:37.000Z</time>
      </trkpt>
      <trkpt lat="47.5145" lon="6.7095">
        <ele>445</ele>
        <time>2016-12-11T10:46:38.000Z</time>
      </trkpt>
      <trkpt lat="47.51447" lon="6.70949">
        <ele>445</ele>
        <time>2016-12-11T10:46:39.000Z</time>
      </trkpt>
      <trkpt lat="47.51444" lon="6.70948">
        <ele>445</ele>
        <time>2016-12-11T10:46:40.000Z</time>
      </trkpt>
      <trkpt lat="47.5144" lon="6.70946">
        <ele>445</ele>
        <time>2016-12-11T10:46:41.000Z</time>
      </trkpt>
      <trkpt lat="47.51436" lon="6.70943">
        <ele>446</ele>
        <time>2016-12-11T10:46:42.000Z</time>
      </trkpt>
      <trkpt lat="47.51433" lon="6.70942">
        <ele>446</ele>
        <time>2016-12-11T10:46:43.000Z</time>
      </trkpt>
      <trkpt lat="47.5143" lon="6.7094">
        <ele>446</ele>
        <time>2016-12-11T10:46:44.000Z</time>
      </trkpt>
      <trkpt lat="47.51427" lon="6.70938">
        <ele>446</ele>
        <time>2016-12-11T10:46:45.000Z</time>
      </trkpt>
      <trkpt lat="47.51424" lon="6.70937">
        <ele>447</ele>
        <time>2016-12-11T10:46:46.000Z</time>
      </trkpt>
      <trkpt lat="47.51422" lon="6.70935">
        <ele>447</ele>
        <time>2016-12-11T10:46:47.000Z</time>
      </trkpt>
      <trkpt lat="47.5142" lon="6.70934">
        <ele>447</ele>
        <time>2016-12-11T10:46:48.000Z</time>
      </trkpt>
      <trkpt lat="47.51418" lon="6.70932">
        <ele>447</ele>
        <time>2016-12-11T10:46:49.000Z</time>
      </trkpt>
      <trkpt lat="47.51415" lon="6.7093">
        <ele>451</ele>
        <time>2016-12-11T10:46:50.000Z</time>
      </trkpt>
      <trkpt lat="47.51413" lon="6.70928">
        <ele>451</ele>
        <time>2016-12-11T10:46:51.000Z</time>
      </trkpt>
      <trkpt lat="47.51409" lon="6.70926">
        <ele>451</ele>
        <time>2016-12-11T10:46:53.000Z</time>
      </trkpt>
      <trkpt lat="47.51408" lon="6.70925">
        <ele>451</ele>
        <time>2016-12-11T10:46:54.000Z</time>
      </trkpt>
      <trkpt lat="47.51405" lon="6.70923">
        <ele>451</ele>
        <time>2016-12-11T10:46:56.000Z</time>
      </trkpt>
      <trkpt lat="47.51401" lon="6.70921">
        <ele>452</ele>
        <time>2016-12-11T10:46:57.000Z</time>
      </trkpt>
      <trkpt lat="47.51397" lon="6.7092">
        <ele>452</ele>
        <time>2016-12-11T10:46:59.000Z</time>
      </trkpt>
      <trkpt lat="47.51396" lon="6.7092">
        <ele>452</ele>
        <time>2016-12-11T10:47:00.000Z</time>
      </trkpt>
      <trkpt lat="47.51393" lon="6.70919">
        <ele>452</ele>
        <time>2016-12-11T10:47:01.000Z</time>
      </trkpt>
      <trkpt lat="47.51391" lon="6.70919">
        <ele>453</ele>
        <time>2016-12-11T10:47:02.000Z</time>
      </trkpt>
      <trkpt lat="47.51388" lon="6.70919">
        <ele>453</ele>
        <time>2016-12-11T10:47:03.000Z</time>
      </trkpt>
      <trkpt lat="47.51385" lon="6.70918">
        <ele>453</ele>
        <time>2016-12-11T10:47:04.000Z</time>
      </trkpt>
      <trkpt lat="47.51382" lon="6.70917">
        <ele>453</ele>
        <time>2016-12-11T10:47:06.000Z</time>
      </trkpt>
      <trkpt lat="47.51381" lon="6.70916">
        <ele>451</ele>
        <time>2016-12-11T10:47:07.000Z</time>
      </trkpt>
      <trkpt lat="47.51377" lon="6.70914">
        <ele>451</ele>
        <time>2016-12-11T10:47:10.000Z</time>
      </trkpt>
      <trkpt lat="47.51376" lon="6.70913">
        <ele>451</ele>
        <time>2016-12-11T10:47:11.000Z</time>
      </trkpt>
      <trkpt lat="47.51372" lon="6.70913">
        <ele>451</ele>
        <time>2016-12-11T10:47:13.000Z</time>
      </trkpt>
      <trkpt lat="47.5137" lon="6.70913">
        <ele>451</ele>
        <time>2016-12-11T10:47:14.000Z</time>
      </trkpt>
      <trkpt lat="47.51366" lon="6.70912">
        <ele>452</ele>
        <time>2016-12-11T10:47:16.000Z</time>
      </trkpt>
      <trkpt lat="47.51363" lon="6.70912">
        <ele>452</ele>
        <time>2016-12-11T10:47:17.000Z</time>
      </trkpt>
      <trkpt lat="47.51361" lon="6.70912">
        <ele>452</ele>
        <time>2016-12-11T10:47:18.000Z</time>
      </trkpt>
      <trkpt lat="47.51358" lon="6.70911">
        <ele>453</ele>
        <time>2016-12-11T10:47:19.000Z</time>
      </trkpt>
      <trkpt lat="47.51356" lon="6.70909">
        <ele>453</ele>
        <time>2016-12-11T10:47:20.000Z</time>
      </trkpt>
      <trkpt lat="47.51354" lon="6.70908">
        <ele>453</ele>
        <time>2016-12-11T10:47:21.000Z</time>
      </trkpt>
      <trkpt lat="47.5135" lon="6.70907">
        <ele>453</ele>
        <time>2016-12-11T10:47:23.000Z</time>
      </trkpt>
      <trkpt lat="47.51349" lon="6.70906">
        <ele>453</ele>
        <time>2016-12-11T10:47:24.000Z</time>
      </trkpt>
      <trkpt lat="47.51344" lon="6.70905">
        <ele>454</ele>
        <time>2016-12-11T10:47:27.000Z</time>
      </trkpt>
      <trkpt lat="47.51342" lon="6.70904">
        <ele>454</ele>
        <time>2016-12-11T10:47:28.000Z</time>
      </trkpt>
      <trkpt lat="47.51338" lon="6.70903">
        <ele>454</ele>
        <time>2016-12-11T10:47:30.000Z</time>
      </trkpt>
      <trkpt lat="47.51334" lon="6.70901">
        <ele>454</ele>
        <time>2016-12-11T10:47:31.000Z</time>
      </trkpt>
      <trkpt lat="47.5133" lon="6.70899">
        <ele>455</ele>
        <time>2016-12-11T10:47:32.000Z</time>
      </trkpt>
      <trkpt lat="47.51328" lon="6.70897">
        <ele>455</ele>
        <time>2016-12-11T10:47:33.000Z</time>
      </trkpt>
      <trkpt lat="47.51326" lon="6.70896">
        <ele>454</ele>
        <time>2016-12-11T10:47:35.000Z</time>
      </trkpt>
      <trkpt lat="47.51323" lon="6.70896">
        <ele>454</ele>
        <time>2016-12-11T10:47:36.000Z</time>
      </trkpt>
      <trkpt lat="47.51321" lon="6.70896">
        <ele>454</ele>
        <time>2016-12-11T10:47:37.000Z</time>
      </trkpt>
      <trkpt lat="47.51318" lon="6.70895">
        <ele>454</ele>
        <time>2016-12-11T10:47:38.000Z</time>
      </trkpt>
      <trkpt lat="47.51314" lon="6.70894">
        <ele>454</ele>
        <time>2016-12-11T10:47:40.000Z</time>
      </trkpt>
      <trkpt lat="47.51313" lon="6.70895">
        <ele>454</ele>
        <time>2016-12-11T10:47:41.000Z</time>
      </trkpt>
      <trkpt lat="47.51309" lon="6.70898">
        <ele>454</ele>
        <time>2016-12-11T10:47:42.000Z</time>
      </trkpt>
      <trkpt lat="47.51307" lon="6.70898">
        <ele>454</ele>
        <time>2016-12-11T10:47:43.000Z</time>
      </trkpt>
      <trkpt lat="47.51303" lon="6.70899">
        <ele>453</ele>
        <time>2016-12-11T10:47:45.000Z</time>
      </trkpt>
      <trkpt lat="47.51301" lon="6.709">
        <ele>453</ele>
        <time>2016-12-11T10:47:46.000Z</time>
      </trkpt>
      <trkpt lat="47.51298" lon="6.70903">
        <ele>453</ele>
        <time>2016-12-11T10:47:49.000Z</time>
      </trkpt>
      <trkpt lat="47.51296" lon="6.70905">
        <ele>453</ele>
        <time>2016-12-11T10:47:50.000Z</time>
      </trkpt>
      <trkpt lat="47.51293" lon="6.70906">
        <ele>453</ele>
        <time>2016-12-11T10:47:55.000Z</time>
      </trkpt>
      <trkpt lat="47.51291" lon="6.70905">
        <ele>453</ele>
        <time>2016-12-11T10:47:56.000Z</time>
      </trkpt>
      <trkpt lat="47.51288" lon="6.70903">
        <ele>453</ele>
        <time>2016-12-11T10:47:57.000Z</time>
      </trkpt>
      <trkpt lat="47.51286" lon="6.70901">
        <ele>453</ele>
        <time>2016-12-11T10:47:58.000Z</time>
      </trkpt>
      <trkpt lat="47.51287" lon="6.70905">
        <ele>453</ele>
        <time>2016-12-11T10:48:05.000Z</time>
      </trkpt>
      <trkpt lat="47.51288" lon="6.70907">
        <ele>453</ele>
        <time>2016-12-11T10:48:06.000Z</time>
      </trkpt>
      <trkpt lat="47.51291" lon="6.70912">
        <ele>453</ele>
        <time>2016-12-11T10:48:08.000Z</time>
      </trkpt>
      <trkpt lat="47.51291" lon="6.70912">
        <ele>453</ele>
        <time>2016-12-11T10:48:09.000Z</time>
      </trkpt>
      <trkpt lat="47.51293" lon="6.70909">
        <ele>453</ele>
        <time>2016-12-11T10:48:12.000Z</time>
      </trkpt>
      <trkpt lat="47.51291" lon="6.70904">
        <ele>453</ele>
        <time>2016-12-11T10:48:13.000Z</time>
      </trkpt>
      <trkpt lat="47.51287" lon="6.70903">
        <ele>453</ele>
        <time>2016-12-11T10:48:23.999Z</time>
      </trkpt>
      <trkpt lat="47.51286" lon="6.70903">
        <ele>453</ele>
        <time>2016-12-11T10:48:24.999Z</time>
      </trkpt>
      <trkpt lat="47.51283" lon="6.70906">
        <ele>453</ele>
        <time>2016-12-11T10:48:26.999Z</time>
      </trkpt>
      <trkpt lat="47.51282" lon="6.70908">
        <ele>453</ele>
        <time>2016-12-11T10:48:27.999Z</time>
      </trkpt>
      <trkpt lat="47.51281" lon="6.7091">
        <ele>452</ele>
        <time>2016-12-11T10:48:28.999Z</time>
      </trkpt>
      <trkpt lat="47.5128" lon="6.70915">
        <ele>452</ele>
        <time>2016-12-11T10:48:29.999Z</time>
      </trkpt>
      <trkpt lat="47.51277" lon="6.70912">
        <ele>452</ele>
        <time>2016-12-11T10:48:37.999Z</time>
      </trkpt>
      <trkpt lat="47.51276" lon="6.70911">
        <ele>452</ele>
        <time>2016-12-11T10:48:38.999Z</time>
      </trkpt>
      <trkpt lat="47.51279" lon="6.70906">
        <ele>452</ele>
        <time>2016-12-11T10:48:46.999Z</time>
      </trkpt>
      <trkpt lat="47.51279" lon="6.70906">
        <ele>452</ele>
        <time>2016-12-11T10:48:47.999Z</time>
      </trkpt>
      <trkpt lat="47.51283" lon="6.70907">
        <ele>453</ele>
        <time>2016-12-11T10:48:49.999Z</time>
      </trkpt>
      <trkpt lat="47.51284" lon="6.70909">
        <ele>453</ele>
        <time>2016-12-11T10:48:50.999Z</time>
      </trkpt>
      <trkpt lat="47.51281" lon="6.70906">
        <ele>452</ele>
        <time>2016-12-11T10:48:57.999Z</time>
      </trkpt>
      <trkpt lat="47.51281" lon="6.70904">
        <ele>452</ele>
        <time>2016-12-11T10:48:58.999Z</time>
      </trkpt>
      <trkpt lat="47.51284" lon="6.70901">
        <ele>453</ele>
        <time>2016-12-11T10:49:03.999Z</time>
      </trkpt>
      <trkpt lat="47.51286" lon="6.70901">
        <ele>453</ele>
        <time>2016-12-11T10:49:04.999Z</time>
      </trkpt>
      <trkpt lat="47.51284" lon="6.70906">
        <ele>453</ele>
        <time>2016-12-11T10:49:19.999Z</time>
      </trkpt>
      <trkpt lat="47.51283" lon="6.70907">
        <ele>453</ele>
        <time>2016-12-11T10:49:20.999Z</time>
      </trkpt>
      <trkpt lat="47.51286" lon="6.70905">
        <ele>453</ele>
        <time>2016-12-11T10:49:34.999Z</time>
      </trkpt>
      <trkpt lat="47.51289" lon="6.70902">
        <ele>453</ele>
        <time>2016-12-11T10:49:35.999Z</time>
      </trkpt>
      <trkpt lat="47.51291" lon="6.70898">
        <ele>453</ele>
        <time>2016-12-11T10:49:36.999Z</time>
      </trkpt>
      <trkpt lat="47.51292" lon="6.70894">
        <ele>453</ele>
        <time>2016-12-11T10:49:37.999Z</time>
      </trkpt>
      <trkpt lat="47.51289" lon="6.70897">
        <ele>453</ele>
        <time>2016-12-11T10:49:43.999Z</time>
      </trkpt>
      <trkpt lat="47.51287" lon="6.70901">
        <ele>453</ele>
        <time>2016-12-11T10:49:44.999Z</time>
      </trkpt>
      <trkpt lat="47.51285" lon="6.70906">
        <ele>453</ele>
        <time>2016-12-11T10:49:45.999Z</time>
      </trkpt>
      <trkpt lat="47.51284" lon="6.70913">
        <ele>453</ele>
        <time>2016-12-11T10:49:46.999Z</time>
      </trkpt>
      <trkpt lat="47.51284" lon="6.70919">
        <ele>454</ele>
        <time>2016-12-11T10:49:50.999Z</time>
      </trkpt>
      <trkpt lat="47.51285" lon="6.7092">
        <ele>454</ele>
        <time>2016-12-11T10:49:51.999Z</time>
      </trkpt>
      <trkpt lat="47.51281" lon="6.70924">
        <ele>454</ele>
        <time>2016-12-11T10:50:12.999Z</time>
      </trkpt>
      <trkpt lat="47.51281" lon="6.70926">
        <ele>454</ele>
        <time>2016-12-11T10:50:13.999Z</time>
      </trkpt>
      <trkpt lat="47.51278" lon="6.7093">
        <ele>454</ele>
        <time>2016-12-11T10:50:29.999Z</time>
      </trkpt>
      <trkpt lat="47.51277" lon="6.70931">
        <ele>454</ele>
        <time>2016-12-11T10:50:30.999Z</time>
      </trkpt>
      <trkpt lat="47.51274" lon="6.70931">
        <ele>454</ele>
        <time>2016-12-11T10:50:49.999Z</time>
      </trkpt>
      <trkpt lat="47.51271" lon="6.70933">
        <ele>454</ele>
        <time>2016-12-11T10:50:50.999Z</time>
      </trkpt>
      <trkpt lat="47.51275" lon="6.70929">
        <ele>454</ele>
        <time>2016-12-11T10:51:07.999Z</time>
      </trkpt>
      <trkpt lat="47.51275" lon="6.70929">
        <ele>454</ele>
        <time>2016-12-11T10:51:08.999Z</time>
      </trkpt>
      <trkpt lat="47.5128" lon="6.7093">
        <ele>454</ele>
        <time>2016-12-11T10:51:11.999Z</time>
      </trkpt>
      <trkpt lat="47.51281" lon="6.70933">
        <ele>454</ele>
        <time>2016-12-11T10:51:12.999Z</time>
      </trkpt>
      <trkpt lat="47.5128" lon="6.70936">
        <ele>454</ele>
        <time>2016-12-11T10:51:13.999Z</time>
      </trkpt>
      <trkpt lat="47.51278" lon="6.7094">
        <ele>454</ele>
        <time>2016-12-11T10:51:14.999Z</time>
      </trkpt>
      <trkpt lat="47.51274" lon="6.70943">
        <ele>454</ele>
        <time>2016-12-11T10:51:33.999Z</time>
      </trkpt>
      <trkpt lat="47.51272" lon="6.70946">
        <ele>454</ele>
        <time>2016-12-11T10:51:34.999Z</time>
      </trkpt>
      <trkpt lat="47.5127" lon="6.70951">
        <ele>454</ele>
        <time>2016-12-11T10:51:37.999Z</time>
      </trkpt>
      <trkpt lat="47.51269" lon="6.70952">
        <ele>454</ele>
        <time>2016-12-11T10:51:38.999Z</time>
      </trkpt>
      <trkpt lat="47.51268" lon="6.70956">
        <ele>454</ele>
        <time>2016-12-11T10:51:40.999Z</time>
      </trkpt>
      <trkpt lat="47.51268" lon="6.70959">
        <ele>454</ele>
        <time>2016-12-11T10:51:41.999Z</time>
      </trkpt>
      <trkpt lat="47.51267" lon="6.70963">
        <ele>454</ele>
        <time>2016-12-11T10:51:42.999Z</time>
      </trkpt>
      <trkpt lat="47.51267" lon="6.70966">
        <ele>454</ele>
        <time>2016-12-11T10:51:43.999Z</time>
      </trkpt>
      <trkpt lat="47.51267" lon="6.70971">
        <ele>454</ele>
        <time>2016-12-11T10:51:44.999Z</time>
      </trkpt>
      <trkpt lat="47.51267" lon="6.70974">
        <ele>454</ele>
        <time>2016-12-11T10:51:45.999Z</time>
      </trkpt>
      <trkpt lat="47.51267" lon="6.70978">
        <ele>454</ele>
        <time>2016-12-11T10:51:46.999Z</time>
      </trkpt>
      <trkpt lat="47.51267" lon="6.70982">
        <ele>454</ele>
        <time>2016-12-11T10:51:47.999Z</time>
      </trkpt>
      <trkpt lat="47.51266" lon="6.70986">
        <ele>454</ele>
        <time>2016-12-11T10:51:48.999Z</time>
      </trkpt>
      <trkpt lat="47.51266" lon="6.70991">
        <ele>454</ele>
        <time>2016-12-11T10:51:49.999Z</time>
      </trkpt>
      <trkpt lat="47.51267" lon="6.70997">
        <ele>454</ele>
        <time>2016-12-11T10:51:52.999Z</time>
      </trkpt>
      <trkpt lat="47.51266" lon="6.71001">
        <ele>455</ele>
        <time>2016-12-11T10:51:53.999Z</time>
      </trkpt>
      <trkpt lat="47.51265" lon="6.71007">
        <ele>455</ele>
        <time>2016-12-11T10:51:55.999Z</time>
      </trkpt>
      <trkpt lat="47.51264" lon="6.71012">
        <ele>456</ele>
        <time>2016-12-11T10:51:56.999Z</time>
      </trkpt>
      <trkpt lat="47.51263" lon="6.71018">
        <ele>456</ele>
        <time>2016-12-11T10:51:57.999Z</time>
      </trkpt>
      <trkpt lat="47.51262" lon="6.71024">
        <ele>456</ele>
        <time>2016-12-11T10:51:58.999Z</time>
      </trkpt>
      <trkpt lat="47.51259" lon="6.71041">
        <ele>457</ele>
        <time>2016-12-11T10:51:59.999Z</time>
      </trkpt>
      <trkpt lat="47.51257" lon="6.7105">
        <ele>457</ele>
        <time>2016-12-11T10:52:00.999Z</time>
      </trkpt>
      <trkpt lat="47.51256" lon="6.71057">
        <ele>457</ele>
        <time>2016-12-11T10:52:01.999Z</time>
      </trkpt>
      <trkpt lat="47.51257" lon="6.71063">
        <ele>457</ele>
        <time>2016-12-11T10:52:02.999Z</time>
      </trkpt>
      <trkpt lat="47.51257" lon="6.71068">
        <ele>457</ele>
        <time>2016-12-11T10:52:03.999Z</time>
      </trkpt>
      <trkpt lat="47.51256" lon="6.71073">
        <ele>457</ele>
        <time>2016-12-11T10:52:04.999Z</time>
      </trkpt>
      <trkpt lat="47.51256" lon="6.71077">
        <ele>457</ele>
        <time>2016-12-11T10:52:05.999Z</time>
      </trkpt>
      <trkpt lat="47.51255" lon="6.71081">
        <ele>456</ele>
        <time>2016-12-11T10:52:06.999Z</time>
      </trkpt>
      <trkpt lat="47.51255" lon="6.71086">
        <ele>456</ele>
        <time>2016-12-11T10:52:07.999Z</time>
      </trkpt>
      <trkpt lat="47.51256" lon="6.71089">
        <ele>457</ele>
        <time>2016-12-11T10:52:08.999Z</time>
      </trkpt>
      <trkpt lat="47.51256" lon="6.71094">
        <ele>457</ele>
        <time>2016-12-11T10:52:09.999Z</time>
      </trkpt>
      <trkpt lat="47.51257" lon="6.71097">
        <ele>457</ele>
        <time>2016-12-11T10:52:10.999Z</time>
      </trkpt>
      <trkpt lat="47.51257" lon="6.71101">
        <ele>457</ele>
        <time>2016-12-11T10:52:11.999Z</time>
      </trkpt>
      <trkpt lat="47.51257" lon="6.71103">
        <ele>457</ele>
        <time>2016-12-11T10:52:12.999Z</time>
      </trkpt>
      <trkpt lat="47.51257" lon="6.71109">
        <ele>457</ele>
        <time>2016-12-11T10:52:13.999Z</time>
      </trkpt>
      <trkpt lat="47.51258" lon="6.71114">
        <ele>457</ele>
        <time>2016-12-11T10:52:14.999Z</time>
      </trkpt>
      <trkpt lat="47.51257" lon="6.71118">
        <ele>457</ele>
        <time>2016-12-11T10:52:15.999Z</time>
      </trkpt>
      <trkpt lat="47.51257" lon="6.71125">
        <ele>457</ele>
        <time>2016-12-11T10:52:16.999Z</time>
      </trkpt>
      <trkpt lat="47.51257" lon="6.7113">
        <ele>457</ele>
        <time>2016-12-11T10:52:17.999Z</time>
      </trkpt>
      <trkpt lat="47.51257" lon="6.71134">
        <ele>457</ele>
        <time>2016-12-11T10:52:18.999Z</time>
      </trkpt>
      <trkpt lat="47.51257" lon="6.71139">
        <ele>457</ele>
        <time>2016-12-11T10:52:19.999Z</time>
      </trkpt>
      <trkpt lat="47.51257" lon="6.71143">
        <ele>457</ele>
        <time>2016-12-11T10:52:20.999Z</time>
      </trkpt>
      <trkpt lat="47.51257" lon="6.71149">
        <ele>457</ele>
        <time>2016-12-11T10:52:21.999Z</time>
      </trkpt>
      <trkpt lat="47.51256" lon="6.71159">
        <ele>456</ele>
        <time>2016-12-11T10:52:22.999Z</time>
      </trkpt>
      <trkpt lat="47.51256" lon="6.71167">
        <ele>456</ele>
        <time>2016-12-11T10:52:23.999Z</time>
      </trkpt>
      <trkpt lat="47.51255" lon="6.71174">
        <ele>456</ele>
        <time>2016-12-11T10:52:24.999Z</time>
      </trkpt>
      <trkpt lat="47.51255" lon="6.71181">
        <ele>456</ele>
        <time>2016-12-11T10:52:25.999Z</time>
      </trkpt>
      <trkpt lat="47.51254" lon="6.71188">
        <ele>457</ele>
        <time>2016-12-11T10:52:26.999Z</time>
      </trkpt>
      <trkpt lat="47.51252" lon="6.71195">
        <ele>457</ele>
        <time>2016-12-11T10:52:27.999Z</time>
      </trkpt>
      <trkpt lat="47.51251" lon="6.71202">
        <ele>457</ele>
        <time>2016-12-11T10:52:28.999Z</time>
      </trkpt>
      <trkpt lat="47.5125" lon="6.71208">
        <ele>450</ele>
        <time>2016-12-11T10:52:29.999Z</time>
      </trkpt>
      <trkpt lat="47.51249" lon="6.71215">
        <ele>450</ele>
        <time>2016-12-11T10:52:30.999Z</time>
      </trkpt>
      <trkpt lat="47.51249" lon="6.71222">
        <ele>451</ele>
        <time>2016-12-11T10:52:31.999Z</time>
      </trkpt>
      <trkpt lat="47.5125" lon="6.71229">
        <ele>452</ele>
        <time>2016-12-11T10:52:32.999Z</time>
      </trkpt>
      <trkpt lat="47.51249" lon="6.71236">
        <ele>453</ele>
        <time>2016-12-11T10:52:33.999Z</time>
      </trkpt>
      <trkpt lat="47.51248" lon="6.71243">
        <ele>454</ele>
        <time>2016-12-11T10:52:34.999Z</time>
      </trkpt>
      <trkpt lat="47.51247" lon="6.71249">
        <ele>456</ele>
        <time>2016-12-11T10:52:35.999Z</time>
      </trkpt>
      <trkpt lat="47.51245" lon="6.71255">
        <ele>455</ele>
        <time>2016-12-11T10:52:36.999Z</time>
      </trkpt>
      <trkpt lat="47.51243" lon="6.71262">
        <ele>453</ele>
        <time>2016-12-11T10:52:37.999Z</time>
      </trkpt>
      <trkpt lat="47.51242" lon="6.7127">
        <ele>452</ele>
        <time>2016-12-11T10:52:38.999Z</time>
      </trkpt>
      <trkpt lat="47.51241" lon="6.71277">
        <ele>452</ele>
        <time>2016-12-11T10:52:39.999Z</time>
      </trkpt>
      <trkpt lat="47.51241" lon="6.71284">
        <ele>451</ele>
        <time>2016-12-11T10:52:40.999Z</time>
      </trkpt>
      <trkpt lat="47.51241" lon="6.71293">
        <ele>451</ele>
        <time>2016-12-11T10:52:41.999Z</time>
      </trkpt>
      <trkpt lat="47.51242" lon="6.71301">
        <ele>451</ele>
        <time>2016-12-11T10:52:42.999Z</time>
      </trkpt>
      <trkpt lat="47.51243" lon="6.71308">
        <ele>452</ele>
        <time>2016-12-11T10:52:43.999Z</time>
      </trkpt>
      <trkpt lat="47.51243" lon="6.71314">
        <ele>452</ele>
        <time>2016-12-11T10:52:44.999Z</time>
      </trkpt>
      <trkpt lat="47.51243" lon="6.71319">
        <ele>453</ele>
        <time>2016-12-11T10:52:45.999Z</time>
      </trkpt>
      <trkpt lat="47.5124" lon="6.71327">
        <ele>453</ele>
        <time>2016-12-11T10:52:46.999Z</time>
      </trkpt>
      <trkpt lat="47.51239" lon="6.71336">
        <ele>454</ele>
        <time>2016-12-11T10:52:47.999Z</time>
      </trkpt>
      <trkpt lat="47.51237" lon="6.71345">
        <ele>453</ele>
        <time>2016-12-11T10:52:48.999Z</time>
      </trkpt>
      <trkpt lat="47.51236" lon="6.71355">
        <ele>452</ele>
        <time>2016-12-11T10:52:49.999Z</time>
      </trkpt>
      <trkpt lat="47.51235" lon="6.71362">
        <ele>452</ele>
        <time>2016-12-11T10:52:50.999Z</time>
      </trkpt>
      <trkpt lat="47.51234" lon="6.71368">
        <ele>452</ele>
        <time>2016-12-11T10:52:51.999Z</time>
      </trkpt>
      <trkpt lat="47.51234" lon="6.71374">
        <ele>452</ele>
        <time>2016-12-11T10:52:52.999Z</time>
      </trkpt>
      <trkpt lat="47.51234" lon="6.7138">
        <ele>452</ele>
        <time>2016-12-11T10:52:53.999Z</time>
      </trkpt>
      <trkpt lat="47.51233" lon="6.71387">
        <ele>452</ele>
        <time>2016-12-11T10:52:54.999Z</time>
      </trkpt>
      <trkpt lat="47.51233" lon="6.71392">
        <ele>452</ele>
        <time>2016-12-11T10:52:55.999Z</time>
      </trkpt>
      <trkpt lat="47.51233" lon="6.71401">
        <ele>452</ele>
        <time>2016-12-11T10:52:56.999Z</time>
      </trkpt>
      <trkpt lat="47.51234" lon="6.71407">
        <ele>452</ele>
        <time>2016-12-11T10:52:57.999Z</time>
      </trkpt>
      <trkpt lat="47.51234" lon="6.71413">
        <ele>453</ele>
        <time>2016-12-11T10:52:58.999Z</time>
      </trkpt>
      <trkpt lat="47.51234" lon="6.71418">
        <ele>453</ele>
        <time>2016-12-11T10:52:59.999Z</time>
      </trkpt>
      <trkpt lat="47.51233" lon="6.71423">
        <ele>453</ele>
        <time>2016-12-11T10:53:00.999Z</time>
      </trkpt>
      <trkpt lat="47.51233" lon="6.71428">
        <ele>453</ele>
        <time>2016-12-11T10:53:01.999Z</time>
      </trkpt>
      <trkpt lat="47.51233" lon="6.71435">
        <ele>453</ele>
        <time>2016-12-11T10:53:02.999Z</time>
      </trkpt>
      <trkpt lat="47.51233" lon="6.71441">
        <ele>453</ele>
        <time>2016-12-11T10:53:03.999Z</time>
      </trkpt>
      <trkpt lat="47.51234" lon="6.71446">
        <ele>453</ele>
        <time>2016-12-11T10:53:04.999Z</time>
      </trkpt>
      <trkpt lat="47.51233" lon="6.7145">
        <ele>453</ele>
        <time>2016-12-11T10:53:05.999Z</time>
      </trkpt>
      <trkpt lat="47.51232" lon="6.7146">
        <ele>453</ele>
        <time>2016-12-11T10:53:06.999Z</time>
      </trkpt>
      <trkpt lat="47.51231" lon="6.71465">
        <ele>453</ele>
        <time>2016-12-11T10:53:07.999Z</time>
      </trkpt>
      <trkpt lat="47.51231" lon="6.71469">
        <ele>453</ele>
        <time>2016-12-11T10:53:08.999Z</time>
      </trkpt>
      <trkpt lat="47.51231" lon="6.71475">
        <ele>453</ele>
        <time>2016-12-11T10:53:09.999Z</time>
      </trkpt>
      <trkpt lat="47.51231" lon="6.71483">
        <ele>453</ele>
        <time>2016-12-11T10:53:10.999Z</time>
      </trkpt>
      <trkpt lat="47.51232" lon="6.71488">
        <ele>454</ele>
        <time>2016-12-11T10:53:11.999Z</time>
      </trkpt>
      <trkpt lat="47.51232" lon="6.71494">
        <ele>454</ele>
        <time>2016-12-11T10:53:12.999Z</time>
      </trkpt>
      <trkpt lat="47.51232" lon="6.715">
        <ele>454</ele>
        <time>2016-12-11T10:53:13.999Z</time>
      </trkpt>
      <trkpt lat="47.51231" lon="6.71506">
        <ele>455</ele>
        <time>2016-12-11T10:53:14.999Z</time>
      </trkpt>
      <trkpt lat="47.51231" lon="6.71512">
        <ele>454</ele>
        <time>2016-12-11T10:53:15.999Z</time>
      </trkpt>
      <trkpt lat="47.51231" lon="6.71516">
        <ele>454</ele>
        <time>2016-12-11T10:53:16.999Z</time>
      </trkpt>
      <trkpt lat="47.51232" lon="6.7152">
        <ele>454</ele>
        <time>2016-12-11T10:53:17.999Z</time>
      </trkpt>
      <trkpt lat="47.51231" lon="6.71524">
        <ele>454</ele>
        <time>2016-12-11T10:53:18.999Z</time>
      </trkpt>
      <trkpt lat="47.51231" lon="6.7153">
        <ele>454</ele>
        <time>2016-12-11T10:53:19.999Z</time>
      </trkpt>
      <trkpt lat="47.5123" lon="6.71534">
        <ele>454</ele>
        <time>2016-12-11T10:53:20.999Z</time>
      </trkpt>
      <trkpt lat="47.51228" lon="6.71538">
        <ele>454</ele>
        <time>2016-12-11T10:53:21.999Z</time>
      </trkpt>
      <trkpt lat="47.51226" lon="6.71542">
        <ele>454</ele>
        <time>2016-12-11T10:53:22.999Z</time>
      </trkpt>
      <trkpt lat="47.51224" lon="6.71546">
        <ele>454</ele>
        <time>2016-12-11T10:53:23.999Z</time>
      </trkpt>
      <trkpt lat="47.51222" lon="6.7155">
        <ele>454</ele>
        <time>2016-12-11T10:53:24.999Z</time>
      </trkpt>
      <trkpt lat="47.5122" lon="6.71555">
        <ele>454</ele>
        <time>2016-12-11T10:53:26.999Z</time>
      </trkpt>
      <trkpt lat="47.5122" lon="6.7156">
        <ele>454</ele>
        <time>2016-12-11T10:53:27.999Z</time>
      </trkpt>
      <trkpt lat="47.51219" lon="6.71565">
        <ele>454</ele>
        <time>2016-12-11T10:53:28.999Z</time>
      </trkpt>
      <trkpt lat="47.51218" lon="6.7157">
        <ele>454</ele>
        <time>2016-12-11T10:53:29.999Z</time>
      </trkpt>
      <trkpt lat="47.51217" lon="6.71578">
        <ele>454</ele>
        <time>2016-12-11T10:53:30.999Z</time>
      </trkpt>
      <trkpt lat="47.51215" lon="6.71585">
        <ele>455</ele>
        <time>2016-12-11T10:53:31.999Z</time>
      </trkpt>
      <trkpt lat="47.51214" lon="6.71591">
        <ele>454</ele>
        <time>2016-12-11T10:53:32.999Z</time>
      </trkpt>
      <trkpt lat="47.51213" lon="6.71597">
        <ele>454</ele>
        <time>2016-12-11T10:53:33.999Z</time>
      </trkpt>
      <trkpt lat="47.51212" lon="6.71602">
        <ele>454</ele>
        <time>2016-12-11T10:53:34.999Z</time>
      </trkpt>
      <trkpt lat="47.51212" lon="6.71606">
        <ele>454</ele>
        <time>2016-12-11T10:53:35.999Z</time>
      </trkpt>
      <trkpt lat="47.51212" lon="6.71613">
        <ele>454</ele>
        <time>2016-12-11T10:53:36.999Z</time>
      </trkpt>
      <trkpt lat="47.51211" lon="6.7162">
        <ele>454</ele>
        <time>2016-12-11T10:53:37.999Z</time>
      </trkpt>
      <trkpt lat="47.5121" lon="6.71626">
        <ele>454</ele>
        <time>2016-12-11T10:53:38.999Z</time>
      </trkpt>
      <trkpt lat="47.51209" lon="6.71632">
        <ele>454</ele>
        <time>2016-12-11T10:53:39.999Z</time>
      </trkpt>
      <trkpt lat="47.51209" lon="6.7164">
        <ele>454</ele>
        <time>2016-12-11T10:53:40.999Z</time>
      </trkpt>
      <trkpt lat="47.51208" lon="6.71647">
        <ele>454</ele>
        <time>2016-12-11T10:53:41.999Z</time>
      </trkpt>
      <trkpt lat="47.51208" lon="6.71653">
        <ele>454</ele>
        <time>2016-12-11T10:53:42.999Z</time>
      </trkpt>
      <trkpt lat="47.51208" lon="6.71659">
        <ele>454</ele>
        <time>2016-12-11T10:53:43.999Z</time>
      </trkpt>
      <trkpt lat="47.51208" lon="6.71664">
        <ele>454</ele>
        <time>2016-12-11T10:53:44.999Z</time>
      </trkpt>
      <trkpt lat="47.51208" lon="6.71669">
        <ele>454</ele>
        <time>2016-12-11T10:53:45.999Z</time>
      </trkpt>
      <trkpt lat="47.51209" lon="6.71676">
        <ele>454</ele>
        <time>2016-12-11T10:53:46.999Z</time>
      </trkpt>
      <trkpt lat="47.5121" lon="6.71682">
        <ele>454</ele>
        <time>2016-12-11T10:53:47.999Z</time>
      </trkpt>
      <trkpt lat="47.51211" lon="6.71689">
        <ele>454</ele>
        <time>2016-12-11T10:53:48.999Z</time>
      </trkpt>
      <trkpt lat="47.51212" lon="6.71694">
        <ele>454</ele>
        <time>2016-12-11T10:53:49.999Z</time>
      </trkpt>
      <trkpt lat="47.51214" lon="6.71699">
        <ele>454</ele>
        <time>2016-12-11T10:53:50.999Z</time>
      </trkpt>
      <trkpt lat="47.51214" lon="6.71705">
        <ele>454</ele>
        <time>2016-12-11T10:53:51.999Z</time>
      </trkpt>
      <trkpt lat="47.51214" lon="6.71714">
        <ele>454</ele>
        <time>2016-12-11T10:53:52.999Z</time>
      </trkpt>
      <trkpt lat="47.51213" lon="6.71719">
        <ele>454</ele>
        <time>2016-12-11T10:53:53.999Z</time>
      </trkpt>
      <trkpt lat="47.51212" lon="6.71725">
        <ele>454</ele>
        <time>2016-12-11T10:53:54.999Z</time>
      </trkpt>
      <trkpt lat="47.51212" lon="6.71731">
        <ele>454</ele>
        <time>2016-12-11T10:53:55.999Z</time>
      </trkpt>
      <trkpt lat="47.51212" lon="6.71737">
        <ele>454</ele>
        <time>2016-12-11T10:53:56.999Z</time>
      </trkpt>
      <trkpt lat="47.51212" lon="6.71742">
        <ele>454</ele>
        <time>2016-12-11T10:53:57.999Z</time>
      </trkpt>
      <trkpt lat="47.51211" lon="6.71748">
        <ele>454</ele>
        <time>2016-12-11T10:53:58.999Z</time>
      </trkpt>
      <trkpt lat="47.5121" lon="6.71754">
        <ele>453</ele>
        <time>2016-12-11T10:53:59.999Z</time>
      </trkpt>
      <trkpt lat="47.5121" lon="6.71759">
        <ele>453</ele>
        <time>2016-12-11T10:54:00.999Z</time>
      </trkpt>
      <trkpt lat="47.51211" lon="6.71763">
        <ele>453</ele>
        <time>2016-12-11T10:54:01.999Z</time>
      </trkpt>
      <trkpt lat="47.51212" lon="6.7177">
        <ele>453</ele>
        <time>2016-12-11T10:54:02.999Z</time>
      </trkpt>
      <trkpt lat="47.51213" lon="6.71776">
        <ele>453</ele>
        <time>2016-12-11T10:54:03.999Z</time>
      </trkpt>
      <trkpt lat="47.51212" lon="6.71781">
        <ele>452</ele>
        <time>2016-12-11T10:54:04.999Z</time>
      </trkpt>
      <trkpt lat="47.51211" lon="6.71787">
        <ele>452</ele>
        <time>2016-12-11T10:54:05.999Z</time>
      </trkpt>
      <trkpt lat="47.51211" lon="6.71796">
        <ele>452</ele>
        <time>2016-12-11T10:54:06.999Z</time>
      </trkpt>
      <trkpt lat="47.51212" lon="6.718">
        <ele>452</ele>
        <time>2016-12-11T10:54:07.999Z</time>
      </trkpt>
      <trkpt lat="47.51214" lon="6.71804">
        <ele>452</ele>
        <time>2016-12-11T10:54:08.999Z</time>
      </trkpt>
      <trkpt lat="47.51216" lon="6.71807">
        <ele>452</ele>
        <time>2016-12-11T10:54:09.999Z</time>
      </trkpt>
      <trkpt lat="47.51219" lon="6.71812">
        <ele>452</ele>
        <time>2016-12-11T10:54:10.999Z</time>
      </trkpt>
      <trkpt lat="47.51222" lon="6.71818">
        <ele>452</ele>
        <time>2016-12-11T10:54:11.999Z</time>
      </trkpt>
      <trkpt lat="47.51224" lon="6.71823">
        <ele>453</ele>
        <time>2016-12-11T10:54:12.999Z</time>
      </trkpt>
      <trkpt lat="47.51225" lon="6.7183">
        <ele>453</ele>
        <time>2016-12-11T10:54:13.999Z</time>
      </trkpt>
      <trkpt lat="47.51226" lon="6.71836">
        <ele>451</ele>
        <time>2016-12-11T10:54:14.999Z</time>
      </trkpt>
      <trkpt lat="47.51227" lon="6.71842">
        <ele>451</ele>
        <time>2016-12-11T10:54:15.999Z</time>
      </trkpt>
      <trkpt lat="47.51228" lon="6.71849">
        <ele>451</ele>
        <time>2016-12-11T10:54:16.999Z</time>
      </trkpt>
      <trkpt lat="47.51228" lon="6.71857">
        <ele>451</ele>
        <time>2016-12-11T10:54:17.999Z</time>
      </trkpt>
      <trkpt lat="47.51228" lon="6.71864">
        <ele>451</ele>
        <time>2016-12-11T10:54:18.999Z</time>
      </trkpt>
      <trkpt lat="47.51229" lon="6.71878">
        <ele>451</ele>
        <time>2016-12-11T10:54:19.999Z</time>
      </trkpt>
      <trkpt lat="47.51228" lon="6.71889">
        <ele>451</ele>
        <time>2016-12-11T10:54:20.999Z</time>
      </trkpt>
      <trkpt lat="47.51228" lon="6.71901">
        <ele>451</ele>
        <time>2016-12-11T10:54:21.999Z</time>
      </trkpt>
      <trkpt lat="47.51229" lon="6.7191">
        <ele>451</ele>
        <time>2016-12-11T10:54:22.999Z</time>
      </trkpt>
      <trkpt lat="47.5123" lon="6.71919">
        <ele>450</ele>
        <time>2016-12-11T10:54:23.999Z</time>
      </trkpt>
      <trkpt lat="47.5123" lon="6.71927">
        <ele>450</ele>
        <time>2016-12-11T10:54:24.999Z</time>
      </trkpt>
      <trkpt lat="47.51231" lon="6.71934">
        <ele>450</ele>
        <time>2016-12-11T10:54:25.999Z</time>
      </trkpt>
      <trkpt lat="47.51233" lon="6.7194">
        <ele>449</ele>
        <time>2016-12-11T10:54:26.999Z</time>
      </trkpt>
      <trkpt lat="47.51233" lon="6.71948">
        <ele>449</ele>
        <time>2016-12-11T10:54:27.999Z</time>
      </trkpt>
      <trkpt lat="47.51234" lon="6.71957">
        <ele>449</ele>
        <time>2016-12-11T10:54:28.999Z</time>
      </trkpt>
      <trkpt lat="47.51235" lon="6.71965">
        <ele>449</ele>
        <time>2016-12-11T10:54:29.999Z</time>
      </trkpt>
      <trkpt lat="47.51236" lon="6.71974">
        <ele>449</ele>
        <time>2016-12-11T10:54:30.999Z</time>
      </trkpt>
      <trkpt lat="47.51235" lon="6.71979">
        <ele>449</ele>
        <time>2016-12-11T10:54:31.999Z</time>
      </trkpt>
      <trkpt lat="47.51233" lon="6.7199">
        <ele>449</ele>
        <time>2016-12-11T10:54:32.999Z</time>
      </trkpt>
      <trkpt lat="47.51231" lon="6.72">
        <ele>449</ele>
        <time>2016-12-11T10:54:33.999Z</time>
      </trkpt>
      <trkpt lat="47.51232" lon="6.72008">
        <ele>449</ele>
        <time>2016-12-11T10:54:34.999Z</time>
      </trkpt>
      <trkpt lat="47.51231" lon="6.72019">
        <ele>448</ele>
        <time>2016-12-11T10:54:35.999Z</time>
      </trkpt>
      <trkpt lat="47.51229" lon="6.72029">
        <ele>448</ele>
        <time>2016-12-11T10:54:36.999Z</time>
      </trkpt>
      <trkpt lat="47.51228" lon="6.72041">
        <ele>448</ele>
        <time>2016-12-11T10:54:37.999Z</time>
      </trkpt>
      <trkpt lat="47.51229" lon="6.72052">
        <ele>448</ele>
        <time>2016-12-11T10:54:38.999Z</time>
      </trkpt>
      <trkpt lat="47.51229" lon="6.72063">
        <ele>448</ele>
        <time>2016-12-11T10:54:39.999Z</time>
      </trkpt>
      <trkpt lat="47.51229" lon="6.7207">
        <ele>448</ele>
        <time>2016-12-11T10:54:40.999Z</time>
      </trkpt>
      <trkpt lat="47.51229" lon="6.72079">
        <ele>448</ele>
        <time>2016-12-11T10:54:41.999Z</time>
      </trkpt>
      <trkpt lat="47.51231" lon="6.72087">
        <ele>447</ele>
        <time>2016-12-11T10:54:42.999Z</time>
      </trkpt>
      <trkpt lat="47.51232" lon="6.72092">
        <ele>447</ele>
        <time>2016-12-11T10:54:43.999Z</time>
      </trkpt>
      <trkpt lat="47.51233" lon="6.72098">
        <ele>447</ele>
        <time>2016-12-11T10:54:44.999Z</time>
      </trkpt>
      <trkpt lat="47.51233" lon="6.72104">
        <ele>446</ele>
        <time>2016-12-11T10:54:45.999Z</time>
      </trkpt>
      <trkpt lat="47.51234" lon="6.7211">
        <ele>446</ele>
        <time>2016-12-11T10:54:46.999Z</time>
      </trkpt>
      <trkpt lat="47.51235" lon="6.72118">
        <ele>446</ele>
        <time>2016-12-11T10:54:47.999Z</time>
      </trkpt>
      <trkpt lat="47.51236" lon="6.72125">
        <ele>446</ele>
        <time>2016-12-11T10:54:48.999Z</time>
      </trkpt>
      <trkpt lat="47.51238" lon="6.72131">
        <ele>445</ele>
        <time>2016-12-11T10:54:49.999Z</time>
      </trkpt>
      <trkpt lat="47.51239" lon="6.72142">
        <ele>445</ele>
        <time>2016-12-11T10:54:50.999Z</time>
      </trkpt>
      <trkpt lat="47.51238" lon="6.72147">
        <ele>445</ele>
        <time>2016-12-11T10:54:51.999Z</time>
      </trkpt>
      <trkpt lat="47.51239" lon="6.72154">
        <ele>445</ele>
        <time>2016-12-11T10:54:52.999Z</time>
      </trkpt>
      <trkpt lat="47.51239" lon="6.72162">
        <ele>445</ele>
        <time>2016-12-11T10:54:53.999Z</time>
      </trkpt>
      <trkpt lat="47.51239" lon="6.72172">
        <ele>444</ele>
        <time>2016-12-11T10:54:54.999Z</time>
      </trkpt>
      <trkpt lat="47.51238" lon="6.72186">
        <ele>443</ele>
        <time>2016-12-11T10:54:55.999Z</time>
      </trkpt>
      <trkpt lat="47.51237" lon="6.72197">
        <ele>442</ele>
        <time>2016-12-11T10:54:56.999Z</time>
      </trkpt>
      <trkpt lat="47.51237" lon="6.72207">
        <ele>442</ele>
        <time>2016-12-11T10:54:57.999Z</time>
      </trkpt>
      <trkpt lat="47.51237" lon="6.72217">
        <ele>442</ele>
        <time>2016-12-11T10:54:58.999Z</time>
      </trkpt>
      <trkpt lat="47.51237" lon="6.72224">
        <ele>442</ele>
        <time>2016-12-11T10:54:59.999Z</time>
      </trkpt>
      <trkpt lat="47.51236" lon="6.72235">
        <ele>442</ele>
        <time>2016-12-11T10:55:00.999Z</time>
      </trkpt>
      <trkpt lat="47.51236" lon="6.72239">
        <ele>442</ele>
        <time>2016-12-11T10:55:01.999Z</time>
      </trkpt>
      <trkpt lat="47.51235" lon="6.72244">
        <ele>442</ele>
        <time>2016-12-11T10:55:02.999Z</time>
      </trkpt>
      <trkpt lat="47.51234" lon="6.72253">
        <ele>442</ele>
        <time>2016-12-11T10:55:03.999Z</time>
      </trkpt>
      <trkpt lat="47.51234" lon="6.72263">
        <ele>442</ele>
        <time>2016-12-11T10:55:04.999Z</time>
      </trkpt>
      <trkpt lat="47.51233" lon="6.72268">
        <ele>442</ele>
        <time>2016-12-11T10:55:05.999Z</time>
      </trkpt>
      <trkpt lat="47.51232" lon="6.72278">
        <ele>442</ele>
        <time>2016-12-11T10:55:06.999Z</time>
      </trkpt>
      <trkpt lat="47.51232" lon="6.72281">
        <ele>442</ele>
        <time>2016-12-11T10:55:07.999Z</time>
      </trkpt>
      <trkpt lat="47.51232" lon="6.72287">
        <ele>442</ele>
        <time>2016-12-11T10:55:08.999Z</time>
      </trkpt>
      <trkpt lat="47.51232" lon="6.72292">
        <ele>442</ele>
        <time>2016-12-11T10:55:09.999Z</time>
      </trkpt>
      <trkpt lat="47.51232" lon="6.72301">
        <ele>442</ele>
        <time>2016-12-11T10:55:10.999Z</time>
      </trkpt>
      <trkpt lat="47.51233" lon="6.72305">
        <ele>442</ele>
        <time>2016-12-11T10:55:11.999Z</time>
      </trkpt>
      <trkpt lat="47.51233" lon="6.7231">
        <ele>442</ele>
        <time>2016-12-11T10:55:12.999Z</time>
      </trkpt>
      <trkpt lat="47.51232" lon="6.72317">
        <ele>443</ele>
        <time>2016-12-11T10:55:13.999Z</time>
      </trkpt>
      <trkpt lat="47.51229" lon="6.72329">
        <ele>443</ele>
        <time>2016-12-11T10:55:14.999Z</time>
      </trkpt>
      <trkpt lat="47.51228" lon="6.72338">
        <ele>443</ele>
        <time>2016-12-11T10:55:15.999Z</time>
      </trkpt>
      <trkpt lat="47.51226" lon="6.72343">
        <ele>443</ele>
        <time>2016-12-11T10:55:17.999Z</time>
      </trkpt>
      <trkpt lat="47.51226" lon="6.72346">
        <ele>443</ele>
        <time>2016-12-11T10:55:18.999Z</time>
      </trkpt>
      <trkpt lat="47.51225" lon="6.72351">
        <ele>443</ele>
        <time>2016-12-11T10:55:19.999Z</time>
      </trkpt>
      <trkpt lat="47.51225" lon="6.72355">
        <ele>443</ele>
        <time>2016-12-11T10:55:20.999Z</time>
      </trkpt>
      <trkpt lat="47.51224" lon="6.72361">
        <ele>443</ele>
        <time>2016-12-11T10:55:21.999Z</time>
      </trkpt>
      <trkpt lat="47.51222" lon="6.72368">
        <ele>442</ele>
        <time>2016-12-11T10:55:22.999Z</time>
      </trkpt>
      <trkpt lat="47.51221" lon="6.72374">
        <ele>442</ele>
        <time>2016-12-11T10:55:23.999Z</time>
      </trkpt>
      <trkpt lat="47.51219" lon="6.72382">
        <ele>442</ele>
        <time>2016-12-11T10:55:24.999Z</time>
      </trkpt>
      <trkpt lat="47.51218" lon="6.72391">
        <ele>442</ele>
        <time>2016-12-11T10:55:25.999Z</time>
      </trkpt>
      <trkpt lat="47.51216" lon="6.724">
        <ele>442</ele>
        <time>2016-12-11T10:55:26.999Z</time>
      </trkpt>
      <trkpt lat="47.51214" lon="6.7241">
        <ele>442</ele>
        <time>2016-12-11T10:55:27.999Z</time>
      </trkpt>
      <trkpt lat="47.51213" lon="6.72417">
        <ele>439</ele>
        <time>2016-12-11T10:55:28.999Z</time>
      </trkpt>
      <trkpt lat="47.5121" lon="6.72424">
        <ele>439</ele>
        <time>2016-12-11T10:55:29.999Z</time>
      </trkpt>
      <trkpt lat="47.51208" lon="6.72432">
        <ele>439</ele>
        <time>2016-12-11T10:55:30.999Z</time>
      </trkpt>
      <trkpt lat="47.51207" lon="6.72441">
        <ele>438</ele>
        <time>2016-12-11T10:55:31.999Z</time>
      </trkpt>
      <trkpt lat="47.51204" lon="6.7245">
        <ele>438</ele>
        <time>2016-12-11T10:55:32.999Z</time>
      </trkpt>
      <trkpt lat="47.51201" lon="6.7246">
        <ele>438</ele>
        <time>2016-12-11T10:55:33.999Z</time>
      </trkpt>
      <trkpt lat="47.51199" lon="6.72469">
        <ele>437</ele>
        <time>2016-12-11T10:55:34.999Z</time>
      </trkpt>
      <trkpt lat="47.51196" lon="6.72478">
        <ele>437</ele>
        <time>2016-12-11T10:55:35.999Z</time>
      </trkpt>
      <trkpt lat="47.51188" lon="6.72493">
        <ele>436</ele>
        <time>2016-12-11T10:55:36.999Z</time>
      </trkpt>
      <trkpt lat="47.51184" lon="6.72502">
        <ele>432</ele>
        <time>2016-12-11T10:55:37.999Z</time>
      </trkpt>
      <trkpt lat="47.51181" lon="6.72511">
        <ele>432</ele>
        <time>2016-12-11T10:55:38.999Z</time>
      </trkpt>
      <trkpt lat="47.51177" lon="6.72518">
        <ele>432</ele>
        <time>2016-12-11T10:55:39.999Z</time>
      </trkpt>
      <trkpt lat="47.51174" lon="6.72524">
        <ele>432</ele>
        <time>2016-12-11T10:55:40.999Z</time>
      </trkpt>
      <trkpt lat="47.51172" lon="6.72531">
        <ele>431</ele>
        <time>2016-12-11T10:55:41.999Z</time>
      </trkpt>
      <trkpt lat="47.5117" lon="6.72539">
        <ele>431</ele>
        <time>2016-12-11T10:55:42.999Z</time>
      </trkpt>
      <trkpt lat="47.51165" lon="6.72549">
        <ele>430</ele>
        <time>2016-12-11T10:55:43.999Z</time>
      </trkpt>
      <trkpt lat="47.51161" lon="6.72554">
        <ele>430</ele>
        <time>2016-12-11T10:55:44.999Z</time>
      </trkpt>
      <trkpt lat="47.51157" lon="6.72561">
        <ele>430</ele>
        <time>2016-12-11T10:55:45.999Z</time>
      </trkpt>
      <trkpt lat="47.51154" lon="6.72567">
        <ele>430</ele>
        <time>2016-12-11T10:55:46.999Z</time>
      </trkpt>
      <trkpt lat="47.51151" lon="6.72573">
        <ele>429</ele>
        <time>2016-12-11T10:55:47.999Z</time>
      </trkpt>
      <trkpt lat="47.51147" lon="6.72579">
        <ele>429</ele>
        <time>2016-12-11T10:55:48.999Z</time>
      </trkpt>
      <trkpt lat="47.51142" lon="6.72586">
        <ele>426</ele>
        <time>2016-12-11T10:55:49.999Z</time>
      </trkpt>
      <trkpt lat="47.51137" lon="6.72591">
        <ele>426</ele>
        <time>2016-12-11T10:55:50.999Z</time>
      </trkpt>
      <trkpt lat="47.51132" lon="6.72596">
        <ele>426</ele>
        <time>2016-12-11T10:55:51.999Z</time>
      </trkpt>
      <trkpt lat="47.51127" lon="6.72601">
        <ele>426</ele>
        <time>2016-12-11T10:55:52.999Z</time>
      </trkpt>
      <trkpt lat="47.51122" lon="6.72605">
        <ele>426</ele>
        <time>2016-12-11T10:55:53.999Z</time>
      </trkpt>
      <trkpt lat="47.51118" lon="6.72609">
        <ele>426</ele>
        <time>2016-12-11T10:55:54.999Z</time>
      </trkpt>
      <trkpt lat="47.51113" lon="6.72612">
        <ele>425</ele>
        <time>2016-12-11T10:55:55.999Z</time>
      </trkpt>
      <trkpt lat="47.51108" lon="6.72616">
        <ele>425</ele>
        <time>2016-12-11T10:55:56.999Z</time>
      </trkpt>
      <trkpt lat="47.51103" lon="6.72619">
        <ele>425</ele>
        <time>2016-12-11T10:55:57.999Z</time>
      </trkpt>
      <trkpt lat="47.51097" lon="6.72621">
        <ele>425</ele>
        <time>2016-12-11T10:55:58.999Z</time>
      </trkpt>
      <trkpt lat="47.51091" lon="6.72625">
        <ele>425</ele>
        <time>2016-12-11T10:55:59.999Z</time>
      </trkpt>
      <trkpt lat="47.51085" lon="6.72629">
        <ele>425</ele>
        <time>2016-12-11T10:56:00.999Z</time>
      </trkpt>
      <trkpt lat="47.5108" lon="6.72634">
        <ele>425</ele>
        <time>2016-12-11T10:56:01.999Z</time>
      </trkpt>
      <trkpt lat="47.51075" lon="6.72638">
        <ele>425</ele>
        <time>2016-12-11T10:56:02.999Z</time>
      </trkpt>
      <trkpt lat="47.51069" lon="6.72641">
        <ele>425</ele>
        <time>2016-12-11T10:56:03.999Z</time>
      </trkpt>
      <trkpt lat="47.51057" lon="6.72653">
        <ele>425</ele>
        <time>2016-12-11T10:56:04.999Z</time>
      </trkpt>
      <trkpt lat="47.5105" lon="6.72661">
        <ele>425</ele>
        <time>2016-12-11T10:56:05.999Z</time>
      </trkpt>
      <trkpt lat="47.51047" lon="6.72665">
        <ele>425</ele>
        <time>2016-12-11T10:56:06.999Z</time>
      </trkpt>
      <trkpt lat="47.51044" lon="6.72668">
        <ele>423</ele>
        <time>2016-12-11T10:56:07.999Z</time>
      </trkpt>
      <trkpt lat="47.51041" lon="6.72668">
        <ele>423</ele>
        <time>2016-12-11T10:56:08.999Z</time>
      </trkpt>
      <trkpt lat="47.51037" lon="6.72671">
        <ele>424</ele>
        <time>2016-12-11T10:56:09.999Z</time>
      </trkpt>
      <trkpt lat="47.51034" lon="6.72674">
        <ele>424</ele>
        <time>2016-12-11T10:56:10.999Z</time>
      </trkpt>
      <trkpt lat="47.51026" lon="6.7268">
        <ele>424</ele>
        <time>2016-12-11T10:56:11.999Z</time>
      </trkpt>
      <trkpt lat="47.51022" lon="6.72683">
        <ele>424</ele>
        <time>2016-12-11T10:56:12.999Z</time>
      </trkpt>
      <trkpt lat="47.5102" lon="6.72686">
        <ele>424</ele>
        <time>2016-12-11T10:56:13.999Z</time>
      </trkpt>
      <trkpt lat="47.51016" lon="6.72692">
        <ele>424</ele>
        <time>2016-12-11T10:56:14.999Z</time>
      </trkpt>
      <trkpt lat="47.51014" lon="6.72696">
        <ele>424</ele>
        <time>2016-12-11T10:56:15.999Z</time>
      </trkpt>
      <trkpt lat="47.51011" lon="6.72698">
        <ele>424</ele>
        <time>2016-12-11T10:56:16.999Z</time>
      </trkpt>
      <trkpt lat="47.51009" lon="6.727">
        <ele>424</ele>
        <time>2016-12-11T10:56:17.999Z</time>
      </trkpt>
      <trkpt lat="47.51007" lon="6.72703">
        <ele>424</ele>
        <time>2016-12-11T10:56:18.999Z</time>
      </trkpt>
      <trkpt lat="47.51004" lon="6.72706">
        <ele>424</ele>
        <time>2016-12-11T10:56:19.999Z</time>
      </trkpt>
      <trkpt lat="47.51001" lon="6.7271">
        <ele>424</ele>
        <time>2016-12-11T10:56:20.999Z</time>
      </trkpt>
      <trkpt lat="47.50998" lon="6.72713">
        <ele>427</ele>
        <time>2016-12-11T10:56:21.999Z</time>
      </trkpt>
      <trkpt lat="47.50995" lon="6.72716">
        <ele>427</ele>
        <time>2016-12-11T10:56:22.999Z</time>
      </trkpt>
      <trkpt lat="47.50991" lon="6.7272">
        <ele>427</ele>
        <time>2016-12-11T10:56:23.999Z</time>
      </trkpt>
      <trkpt lat="47.50989" lon="6.72722">
        <ele>427</ele>
        <time>2016-12-11T10:56:24.999Z</time>
      </trkpt>
      <trkpt lat="47.50986" lon="6.72725">
        <ele>427</ele>
        <time>2016-12-11T10:56:25.999Z</time>
      </trkpt>
      <trkpt lat="47.50984" lon="6.72728">
        <ele>427</ele>
        <time>2016-12-11T10:56:26.999Z</time>
      </trkpt>
      <trkpt lat="47.50981" lon="6.72732">
        <ele>427</ele>
        <time>2016-12-11T10:56:27.999Z</time>
      </trkpt>
      <trkpt lat="47.50979" lon="6.72735">
        <ele>427</ele>
        <time>2016-12-11T10:56:28.999Z</time>
      </trkpt>
      <trkpt lat="47.50976" lon="6.72738">
        <ele>427</ele>
        <time>2016-12-11T10:56:29.999Z</time>
      </trkpt>
      <trkpt lat="47.50973" lon="6.72743">
        <ele>427</ele>
        <time>2016-12-11T10:56:30.999Z</time>
      </trkpt>
      <trkpt lat="47.50971" lon="6.72746">
        <ele>427</ele>
        <time>2016-12-11T10:56:31.999Z</time>
      </trkpt>
      <trkpt lat="47.50967" lon="6.72756">
        <ele>427</ele>
        <time>2016-12-11T10:56:32.999Z</time>
      </trkpt>
      <trkpt lat="47.50965" lon="6.72759">
        <ele>427</ele>
        <time>2016-12-11T10:56:34.999Z</time>
      </trkpt>
      <trkpt lat="47.50964" lon="6.72762">
        <ele>427</ele>
        <time>2016-12-11T10:56:35.999Z</time>
      </trkpt>
      <trkpt lat="47.50963" lon="6.72766">
        <ele>427</ele>
        <time>2016-12-11T10:56:36.999Z</time>
      </trkpt>
      <trkpt lat="47.50961" lon="6.72769">
        <ele>427</ele>
        <time>2016-12-11T10:56:37.999Z</time>
      </trkpt>
      <trkpt lat="47.50959" lon="6.72772">
        <ele>427</ele>
        <time>2016-12-11T10:56:38.999Z</time>
      </trkpt>
      <trkpt lat="47.50956" lon="6.72776">
        <ele>427</ele>
        <time>2016-12-11T10:56:39.999Z</time>
      </trkpt>
      <trkpt lat="47.50953" lon="6.7278">
        <ele>427</ele>
        <time>2016-12-11T10:56:40.999Z</time>
      </trkpt>
      <trkpt lat="47.50949" lon="6.72787">
        <ele>428</ele>
        <time>2016-12-11T10:56:41.999Z</time>
      </trkpt>
      <trkpt lat="47.50945" lon="6.72793">
        <ele>428</ele>
        <time>2016-12-11T10:56:42.999Z</time>
      </trkpt>
      <trkpt lat="47.50943" lon="6.72798">
        <ele>428</ele>
        <time>2016-12-11T10:56:43.999Z</time>
      </trkpt>
      <trkpt lat="47.50942" lon="6.72803">
        <ele>428</ele>
        <time>2016-12-11T10:56:44.999Z</time>
      </trkpt>
      <trkpt lat="47.5094" lon="6.72806">
        <ele>428</ele>
        <time>2016-12-11T10:56:45.999Z</time>
      </trkpt>
      <trkpt lat="47.50938" lon="6.7281">
        <ele>428</ele>
        <time>2016-12-11T10:56:46.999Z</time>
      </trkpt>
      <trkpt lat="47.50936" lon="6.72815">
        <ele>428</ele>
        <time>2016-12-11T10:56:48.999Z</time>
      </trkpt>
      <trkpt lat="47.50935" lon="6.72817">
        <ele>428</ele>
        <time>2016-12-11T10:56:49.999Z</time>
      </trkpt>
      <trkpt lat="47.50933" lon="6.7282">
        <ele>429</ele>
        <time>2016-12-11T10:56:50.999Z</time>
      </trkpt>
      <trkpt lat="47.50932" lon="6.72824">
        <ele>429</ele>
        <time>2016-12-11T10:56:51.999Z</time>
      </trkpt>
      <trkpt lat="47.50931" lon="6.72829">
        <ele>429</ele>
        <time>2016-12-11T10:56:52.999Z</time>
      </trkpt>
      <trkpt lat="47.5093" lon="6.72832">
        <ele>429</ele>
        <time>2016-12-11T10:56:53.999Z</time>
      </trkpt>
      <trkpt lat="47.50929" lon="6.72837">
        <ele>429</ele>
        <time>2016-12-11T10:56:54.999Z</time>
      </trkpt>
      <trkpt lat="47.50927" lon="6.72844">
        <ele>428</ele>
        <time>2016-12-11T10:56:55.999Z</time>
      </trkpt>
      <trkpt lat="47.50925" lon="6.72848">
        <ele>428</ele>
        <time>2016-12-11T10:56:56.999Z</time>
      </trkpt>
      <trkpt lat="47.50924" lon="6.72853">
        <ele>428</ele>
        <time>2016-12-11T10:56:57.999Z</time>
      </trkpt>
      <trkpt lat="47.50922" lon="6.72858">
        <ele>428</ele>
        <time>2016-12-11T10:56:58.999Z</time>
      </trkpt>
      <trkpt lat="47.50919" lon="6.72863">
        <ele>427</ele>
        <time>2016-12-11T10:56:59.999Z</time>
      </trkpt>
      <trkpt lat="47.50918" lon="6.72867">
        <ele>427</ele>
        <time>2016-12-11T10:57:00.999Z</time>
      </trkpt>
      <trkpt lat="47.50917" lon="6.72871">
        <ele>427</ele>
        <time>2016-12-11T10:57:01.999Z</time>
      </trkpt>
      <trkpt lat="47.50917" lon="6.72877">
        <ele>431</ele>
        <time>2016-12-11T10:57:02.999Z</time>
      </trkpt>
      <trkpt lat="47.50915" lon="6.72883">
        <ele>431</ele>
        <time>2016-12-11T10:57:03.999Z</time>
      </trkpt>
      <trkpt lat="47.50914" lon="6.72887">
        <ele>430</ele>
        <time>2016-12-11T10:57:04.999Z</time>
      </trkpt>
      <trkpt lat="47.50912" lon="6.72891">
        <ele>430</ele>
        <time>2016-12-11T10:57:05.999Z</time>
      </trkpt>
      <trkpt lat="47.5091" lon="6.72895">
        <ele>430</ele>
        <time>2016-12-11T10:57:06.999Z</time>
      </trkpt>
      <trkpt lat="47.50908" lon="6.72901">
        <ele>430</ele>
        <time>2016-12-11T10:57:07.999Z</time>
      </trkpt>
      <trkpt lat="47.50906" lon="6.72907">
        <ele>430</ele>
        <time>2016-12-11T10:57:08.999Z</time>
      </trkpt>
      <trkpt lat="47.50905" lon="6.72912">
        <ele>430</ele>
        <time>2016-12-11T10:57:09.999Z</time>
      </trkpt>
      <trkpt lat="47.50903" lon="6.72917">
        <ele>429</ele>
        <time>2016-12-11T10:57:10.999Z</time>
      </trkpt>
      <trkpt lat="47.50901" lon="6.72924">
        <ele>430</ele>
        <time>2016-12-11T10:57:11.999Z</time>
      </trkpt>
      <trkpt lat="47.509" lon="6.72932">
        <ele>430</ele>
        <time>2016-12-11T10:57:12.999Z</time>
      </trkpt>
      <trkpt lat="47.50899" lon="6.7294">
        <ele>430</ele>
        <time>2016-12-11T10:57:13.999Z</time>
      </trkpt>
      <trkpt lat="47.50896" lon="6.72946">
        <ele>430</ele>
        <time>2016-12-11T10:57:14.999Z</time>
      </trkpt>
      <trkpt lat="47.50893" lon="6.72951">
        <ele>431</ele>
        <time>2016-12-11T10:57:15.999Z</time>
      </trkpt>
      <trkpt lat="47.50892" lon="6.72954">
        <ele>431</ele>
        <time>2016-12-11T10:57:16.999Z</time>
      </trkpt>
      <trkpt lat="47.50888" lon="6.72962">
        <ele>431</ele>
        <time>2016-12-11T10:57:17.999Z</time>
      </trkpt>
      <trkpt lat="47.50886" lon="6.72966">
        <ele>431</ele>
        <time>2016-12-11T10:57:18.999Z</time>
      </trkpt>
      <trkpt lat="47.50884" lon="6.72973">
        <ele>431</ele>
        <time>2016-12-11T10:57:19.999Z</time>
      </trkpt>
      <trkpt lat="47.50881" lon="6.72989">
        <ele>431</ele>
        <time>2016-12-11T10:57:20.999Z</time>
      </trkpt>
      <trkpt lat="47.50877" lon="6.72998">
        <ele>431</ele>
        <time>2016-12-11T10:57:21.999Z</time>
      </trkpt>
      <trkpt lat="47.50875" lon="6.73007">
        <ele>431</ele>
        <time>2016-12-11T10:57:22.999Z</time>
      </trkpt>
      <trkpt lat="47.50873" lon="6.73015">
        <ele>431</ele>
        <time>2016-12-11T10:57:23.999Z</time>
      </trkpt>
      <trkpt lat="47.50871" lon="6.73021">
        <ele>431</ele>
        <time>2016-12-11T10:57:24.999Z</time>
      </trkpt>
      <trkpt lat="47.5087" lon="6.73029">
        <ele>431</ele>
        <time>2016-12-11T10:57:25.999Z</time>
      </trkpt>
      <trkpt lat="47.50869" lon="6.73036">
        <ele>431</ele>
        <time>2016-12-11T10:57:26.999Z</time>
      </trkpt>
      <trkpt lat="47.50867" lon="6.73044">
        <ele>431</ele>
        <time>2016-12-11T10:57:27.999Z</time>
      </trkpt>
      <trkpt lat="47.50867" lon="6.73053">
        <ele>431</ele>
        <time>2016-12-11T10:57:28.999Z</time>
      </trkpt>
      <trkpt lat="47.50866" lon="6.7306">
        <ele>431</ele>
        <time>2016-12-11T10:57:29.999Z</time>
      </trkpt>
      <trkpt lat="47.50865" lon="6.73069">
        <ele>431</ele>
        <time>2016-12-11T10:57:30.999Z</time>
      </trkpt>
      <trkpt lat="47.50863" lon="6.73079">
        <ele>431</ele>
        <time>2016-12-11T10:57:31.999Z</time>
      </trkpt>
      <trkpt lat="47.50859" lon="6.73087">
        <ele>430</ele>
        <time>2016-12-11T10:57:32.999Z</time>
      </trkpt>
      <trkpt lat="47.50857" lon="6.73095">
        <ele>429</ele>
        <time>2016-12-11T10:57:33.999Z</time>
      </trkpt>
      <trkpt lat="47.50855" lon="6.73103">
        <ele>429</ele>
        <time>2016-12-11T10:57:34.999Z</time>
      </trkpt>
      <trkpt lat="47.50853" lon="6.7311">
        <ele>429</ele>
        <time>2016-12-11T10:57:35.999Z</time>
      </trkpt>
      <trkpt lat="47.50851" lon="6.73119">
        <ele>428</ele>
        <time>2016-12-11T10:57:36.999Z</time>
      </trkpt>
      <trkpt lat="47.5085" lon="6.73128">
        <ele>428</ele>
        <time>2016-12-11T10:57:37.999Z</time>
      </trkpt>
      <trkpt lat="47.50848" lon="6.73136">
        <ele>427</ele>
        <time>2016-12-11T10:57:38.999Z</time>
      </trkpt>
      <trkpt lat="47.50846" lon="6.73145">
        <ele>427</ele>
        <time>2016-12-11T10:57:39.999Z</time>
      </trkpt>
      <trkpt lat="47.50843" lon="6.73154">
        <ele>427</ele>
        <time>2016-12-11T10:57:40.999Z</time>
      </trkpt>
      <trkpt lat="47.5084" lon="6.73161">
        <ele>426</ele>
        <time>2016-12-11T10:57:41.999Z</time>
      </trkpt>
      <trkpt lat="47.50836" lon="6.73165">
        <ele>426</ele>
        <time>2016-12-11T10:57:42.999Z</time>
      </trkpt>
      <trkpt lat="47.50832" lon="6.7317">
        <ele>425</ele>
        <time>2016-12-11T10:57:43.999Z</time>
      </trkpt>
      <trkpt lat="47.50823" lon="6.73178">
        <ele>423</ele>
        <time>2016-12-11T10:57:44.999Z</time>
      </trkpt>
      <trkpt lat="47.50819" lon="6.73183">
        <ele>422</ele>
        <time>2016-12-11T10:57:45.999Z</time>
      </trkpt>
      <trkpt lat="47.50813" lon="6.73191">
        <ele>421</ele>
        <time>2016-12-11T10:57:46.999Z</time>
      </trkpt>
      <trkpt lat="47.50808" lon="6.73197">
        <ele>421</ele>
        <time>2016-12-11T10:57:47.999Z</time>
      </trkpt>
      <trkpt lat="47.50804" lon="6.73208">
        <ele>420</ele>
        <time>2016-12-11T10:57:48.999Z</time>
      </trkpt>
      <trkpt lat="47.50798" lon="6.73219">
        <ele>419</ele>
        <time>2016-12-11T10:57:49.999Z</time>
      </trkpt>
      <trkpt lat="47.50793" lon="6.73229">
        <ele>419</ele>
        <time>2016-12-11T10:57:50.999Z</time>
      </trkpt>
      <trkpt lat="47.50789" lon="6.73238">
        <ele>418</ele>
        <time>2016-12-11T10:57:51.999Z</time>
      </trkpt>
      <trkpt lat="47.50783" lon="6.73248">
        <ele>418</ele>
        <time>2016-12-11T10:57:52.999Z</time>
      </trkpt>
      <trkpt lat="47.50776" lon="6.73255">
        <ele>411</ele>
        <time>2016-12-11T10:57:53.999Z</time>
      </trkpt>
      <trkpt lat="47.5077" lon="6.73259">
        <ele>412</ele>
        <time>2016-12-11T10:57:54.999Z</time>
      </trkpt>
      <trkpt lat="47.50765" lon="6.73266">
        <ele>411</ele>
        <time>2016-12-11T10:57:55.999Z</time>
      </trkpt>
      <trkpt lat="47.50759" lon="6.73273">
        <ele>411</ele>
        <time>2016-12-11T10:57:56.999Z</time>
      </trkpt>
      <trkpt lat="47.50754" lon="6.73281">
        <ele>410</ele>
        <time>2016-12-11T10:57:57.999Z</time>
      </trkpt>
      <trkpt lat="47.50748" lon="6.7329">
        <ele>408</ele>
        <time>2016-12-11T10:57:58.999Z</time>
      </trkpt>
      <trkpt lat="47.50743" lon="6.73298">
        <ele>407</ele>
        <time>2016-12-11T10:57:59.999Z</time>
      </trkpt>
      <trkpt lat="47.50735" lon="6.73312">
        <ele>406</ele>
        <time>2016-12-11T10:58:00.999Z</time>
      </trkpt>
      <trkpt lat="47.5073" lon="6.73322">
        <ele>406</ele>
        <time>2016-12-11T10:58:01.999Z</time>
      </trkpt>
      <trkpt lat="47.50726" lon="6.73328">
        <ele>406</ele>
        <time>2016-12-11T10:58:02.999Z</time>
      </trkpt>
      <trkpt lat="47.50721" lon="6.73338">
        <ele>400</ele>
        <time>2016-12-11T10:58:03.999Z</time>
      </trkpt>
      <trkpt lat="47.50715" lon="6.73344">
        <ele>399</ele>
        <time>2016-12-11T10:58:04.999Z</time>
      </trkpt>
      <trkpt lat="47.5071" lon="6.73349">
        <ele>399</ele>
        <time>2016-12-11T10:58:05.999Z</time>
      </trkpt>
      <trkpt lat="47.50707" lon="6.73355">
        <ele>398</ele>
        <time>2016-12-11T10:58:06.999Z</time>
      </trkpt>
      <trkpt lat="47.50703" lon="6.73362">
        <ele>398</ele>
        <time>2016-12-11T10:58:07.999Z</time>
      </trkpt>
      <trkpt lat="47.50698" lon="6.73372">
        <ele>397</ele>
        <time>2016-12-11T10:58:08.999Z</time>
      </trkpt>
      <trkpt lat="47.50696" lon="6.7338">
        <ele>397</ele>
        <time>2016-12-11T10:58:09.999Z</time>
      </trkpt>
      <trkpt lat="47.50695" lon="6.73391">
        <ele>397</ele>
        <time>2016-12-11T10:58:10.999Z</time>
      </trkpt>
      <trkpt lat="47.50694" lon="6.73401">
        <ele>396</ele>
        <time>2016-12-11T10:58:11.999Z</time>
      </trkpt>
      <trkpt lat="47.50691" lon="6.73412">
        <ele>396</ele>
        <time>2016-12-11T10:58:12.999Z</time>
      </trkpt>
      <trkpt lat="47.50688" lon="6.73421">
        <ele>390</ele>
        <time>2016-12-11T10:58:13.999Z</time>
      </trkpt>
      <trkpt lat="47.50684" lon="6.73431">
        <ele>390</ele>
        <time>2016-12-11T10:58:14.999Z</time>
      </trkpt>
      <trkpt lat="47.50679" lon="6.73442">
        <ele>389</ele>
        <time>2016-12-11T10:58:15.999Z</time>
      </trkpt>
      <trkpt lat="47.50676" lon="6.73449">
        <ele>388</ele>
        <time>2016-12-11T10:58:16.999Z</time>
      </trkpt>
      <trkpt lat="47.50671" lon="6.73457">
        <ele>387</ele>
        <time>2016-12-11T10:58:17.999Z</time>
      </trkpt>
      <trkpt lat="47.50669" lon="6.73465">
        <ele>387</ele>
        <time>2016-12-11T10:58:18.999Z</time>
      </trkpt>
      <trkpt lat="47.50667" lon="6.73472">
        <ele>386</ele>
        <time>2016-12-11T10:58:19.999Z</time>
      </trkpt>
      <trkpt lat="47.50665" lon="6.73481">
        <ele>386</ele>
        <time>2016-12-11T10:58:20.999Z</time>
      </trkpt>
      <trkpt lat="47.50662" lon="6.73485">
        <ele>386</ele>
        <time>2016-12-11T10:58:21.999Z</time>
      </trkpt>
      <trkpt lat="47.5066" lon="6.73489">
        <ele>386</ele>
        <time>2016-12-11T10:58:22.999Z</time>
      </trkpt>
      <trkpt lat="47.50658" lon="6.73494">
        <ele>385</ele>
        <time>2016-12-11T10:58:23.999Z</time>
      </trkpt>
      <trkpt lat="47.50656" lon="6.73501">
        <ele>383</ele>
        <time>2016-12-11T10:58:24.999Z</time>
      </trkpt>
      <trkpt lat="47.50654" lon="6.73505">
        <ele>383</ele>
        <time>2016-12-11T10:58:25.999Z</time>
      </trkpt>
      <trkpt lat="47.50651" lon="6.73508">
        <ele>382</ele>
        <time>2016-12-11T10:58:26.999Z</time>
      </trkpt>
      <trkpt lat="47.50646" lon="6.73514">
        <ele>381</ele>
        <time>2016-12-11T10:58:27.999Z</time>
      </trkpt>
      <trkpt lat="47.50642" lon="6.73522">
        <ele>380</ele>
        <time>2016-12-11T10:58:28.999Z</time>
      </trkpt>
      <trkpt lat="47.50637" lon="6.73531">
        <ele>379</ele>
        <time>2016-12-11T10:58:29.999Z</time>
      </trkpt>
      <trkpt lat="47.50632" lon="6.7354">
        <ele>379</ele>
        <time>2016-12-11T10:58:30.999Z</time>
      </trkpt>
      <trkpt lat="47.50628" lon="6.73546">
        <ele>379</ele>
        <time>2016-12-11T10:58:31.999Z</time>
      </trkpt>
      <trkpt lat="47.50627" lon="6.73552">
        <ele>378</ele>
        <time>2016-12-11T10:58:32.999Z</time>
      </trkpt>
      <trkpt lat="47.50627" lon="6.73554">
        <ele>378</ele>
        <time>2016-12-11T10:58:33.999Z</time>
      </trkpt>
      <trkpt lat="47.50629" lon="6.73558">
        <ele>378</ele>
        <time>2016-12-11T10:58:50.999Z</time>
      </trkpt>
      <trkpt lat="47.50629" lon="6.73573">
        <ele>378</ele>
        <time>2016-12-11T10:58:51.999Z</time>
      </trkpt>
      <trkpt lat="47.50629" lon="6.73573">
        <ele>378</ele>
        <time>2016-12-11T11:00:13.999Z</time>
      </trkpt>
      <trkpt lat="47.50633" lon="6.73583">
        <ele>377</ele>
        <time>2016-12-11T11:00:14.999Z</time>
      </trkpt>
      <trkpt lat="47.50636" lon="6.73587">
        <ele>374</ele>
        <time>2016-12-11T11:00:15.999Z</time>
      </trkpt>
      <trkpt lat="47.50638" lon="6.73592">
        <ele>374</ele>
        <time>2016-12-11T11:00:16.999Z</time>
      </trkpt>
      <trkpt lat="47.50641" lon="6.73597">
        <ele>373</ele>
        <time>2016-12-11T11:00:17.999Z</time>
      </trkpt>
      <trkpt lat="47.50644" lon="6.73603">
        <ele>373</ele>
        <time>2016-12-11T11:00:18.999Z</time>
      </trkpt>
      <trkpt lat="47.50647" lon="6.73608">
        <ele>373</ele>
        <time>2016-12-11T11:00:19.999Z</time>
      </trkpt>
      <trkpt lat="47.5065" lon="6.73615">
        <ele>373</ele>
        <time>2016-12-11T11:00:20.999Z</time>
      </trkpt>
      <trkpt lat="47.50653" lon="6.73621">
        <ele>372</ele>
        <time>2016-12-11T11:00:21.999Z</time>
      </trkpt>
      <trkpt lat="47.50656" lon="6.73628">
        <ele>372</ele>
        <time>2016-12-11T11:00:22.999Z</time>
      </trkpt>
      <trkpt lat="47.50656" lon="6.73635">
        <ele>371</ele>
        <time>2016-12-11T11:00:23.999Z</time>
      </trkpt>
      <trkpt lat="47.50656" lon="6.73641">
        <ele>370</ele>
        <time>2016-12-11T11:00:24.999Z</time>
      </trkpt>
      <trkpt lat="47.50656" lon="6.73648">
        <ele>369</ele>
        <time>2016-12-11T11:00:25.999Z</time>
      </trkpt>
      <trkpt lat="47.50655" lon="6.73654">
        <ele>368</ele>
        <time>2016-12-11T11:00:26.999Z</time>
      </trkpt>
      <trkpt lat="47.50655" lon="6.73661">
        <ele>367</ele>
        <time>2016-12-11T11:00:27.999Z</time>
      </trkpt>
      <trkpt lat="47.50655" lon="6.73668">
        <ele>366</ele>
        <time>2016-12-11T11:00:28.999Z</time>
      </trkpt>
      <trkpt lat="47.50655" lon="6.73675">
        <ele>366</ele>
        <time>2016-12-11T11:00:29.999Z</time>
      </trkpt>
      <trkpt lat="47.50655" lon="6.73681">
        <ele>367</ele>
        <time>2016-12-11T11:00:30.999Z</time>
      </trkpt>
      <trkpt lat="47.50655" lon="6.73688">
        <ele>368</ele>
        <time>2016-12-11T11:00:31.999Z</time>
      </trkpt>
      <trkpt lat="47.50655" lon="6.73694">
        <ele>368</ele>
        <time>2016-12-11T11:00:32.999Z</time>
      </trkpt>
      <trkpt lat="47.50655" lon="6.73699">
        <ele>369</ele>
        <time>2016-12-11T11:00:33.999Z</time>
      </trkpt>
      <trkpt lat="47.50655" lon="6.73706">
        <ele>369</ele>
        <time>2016-12-11T11:00:34.999Z</time>
      </trkpt>
      <trkpt lat="47.50655" lon="6.73711">
        <ele>369</ele>
        <time>2016-12-11T11:00:35.999Z</time>
      </trkpt>
      <trkpt lat="47.50655" lon="6.73717">
        <ele>369</ele>
        <time>2016-12-11T11:00:36.999Z</time>
      </trkpt>
      <trkpt lat="47.50654" lon="6.73724">
        <ele>368</ele>
        <time>2016-12-11T11:00:37.999Z</time>
      </trkpt>
      <trkpt lat="47.50654" lon="6.73731">
        <ele>368</ele>
        <time>2016-12-11T11:00:38.999Z</time>
      </trkpt>
      <trkpt lat="47.50654" lon="6.73739">
        <ele>367</ele>
        <time>2016-12-11T11:00:39.999Z</time>
      </trkpt>
      <trkpt lat="47.50654" lon="6.73748">
        <ele>366</ele>
        <time>2016-12-11T11:00:40.999Z</time>
      </trkpt>
      <trkpt lat="47.50653" lon="6.73756">
        <ele>366</ele>
        <time>2016-12-11T11:00:41.999Z</time>
      </trkpt>
      <trkpt lat="47.50653" lon="6.73764">
        <ele>367</ele>
        <time>2016-12-11T11:00:42.999Z</time>
      </trkpt>
      <trkpt lat="47.50653" lon="6.73772">
        <ele>367</ele>
        <time>2016-12-11T11:00:43.999Z</time>
      </trkpt>
      <trkpt lat="47.50652" lon="6.7378">
        <ele>368</ele>
        <time>2016-12-11T11:00:44.999Z</time>
      </trkpt>
      <trkpt lat="47.50652" lon="6.73788">
        <ele>368</ele>
        <time>2016-12-11T11:00:45.999Z</time>
      </trkpt>
      <trkpt lat="47.50651" lon="6.73795">
        <ele>368</ele>
        <time>2016-12-11T11:00:46.999Z</time>
      </trkpt>
      <trkpt lat="47.5065" lon="6.73804">
        <ele>368</ele>
        <time>2016-12-11T11:00:47.999Z</time>
      </trkpt>
      <trkpt lat="47.50649" lon="6.73812">
        <ele>367</ele>
        <time>2016-12-11T11:00:48.999Z</time>
      </trkpt>
      <trkpt lat="47.50648" lon="6.7382">
        <ele>367</ele>
        <time>2016-12-11T11:00:49.999Z</time>
      </trkpt>
      <trkpt lat="47.50647" lon="6.73829">
        <ele>366</ele>
        <time>2016-12-11T11:00:50.999Z</time>
      </trkpt>
      <trkpt lat="47.50646" lon="6.73838">
        <ele>365</ele>
        <time>2016-12-11T11:00:51.999Z</time>
      </trkpt>
      <trkpt lat="47.50646" lon="6.73847">
        <ele>365</ele>
        <time>2016-12-11T11:00:52.999Z</time>
      </trkpt>
      <trkpt lat="47.50644" lon="6.73856">
        <ele>366</ele>
        <time>2016-12-11T11:00:53.999Z</time>
      </trkpt>
      <trkpt lat="47.50642" lon="6.73864">
        <ele>366</ele>
        <time>2016-12-11T11:00:54.999Z</time>
      </trkpt>
      <trkpt lat="47.50639" lon="6.73871">
        <ele>366</ele>
        <time>2016-12-11T11:00:55.999Z</time>
      </trkpt>
      <trkpt lat="47.50637" lon="6.73877">
        <ele>366</ele>
        <time>2016-12-11T11:00:56.999Z</time>
      </trkpt>
      <trkpt lat="47.50635" lon="6.73881">
        <ele>366</ele>
        <time>2016-12-11T11:00:57.999Z</time>
      </trkpt>
      <trkpt lat="47.50633" lon="6.73886">
        <ele>366</ele>
        <time>2016-12-11T11:00:58.999Z</time>
      </trkpt>
      <trkpt lat="47.50632" lon="6.73893">
        <ele>366</ele>
        <time>2016-12-11T11:00:59.999Z</time>
      </trkpt>
      <trkpt lat="47.5063" lon="6.73896">
        <ele>366</ele>
        <time>2016-12-11T11:01:00.999Z</time>
      </trkpt>
      <trkpt lat="47.50627" lon="6.73901">
        <ele>366</ele>
        <time>2016-12-11T11:01:01.999Z</time>
      </trkpt>
      <trkpt lat="47.50624" lon="6.73908">
        <ele>367</ele>
        <time>2016-12-11T11:01:02.999Z</time>
      </trkpt>
      <trkpt lat="47.50621" lon="6.73915">
        <ele>367</ele>
        <time>2016-12-11T11:01:03.999Z</time>
      </trkpt>
      <trkpt lat="47.50618" lon="6.73921">
        <ele>363</ele>
        <time>2016-12-11T11:01:04.999Z</time>
      </trkpt>
      <trkpt lat="47.50615" lon="6.73926">
        <ele>363</ele>
        <time>2016-12-11T11:01:05.999Z</time>
      </trkpt>
      <trkpt lat="47.50613" lon="6.73931">
        <ele>363</ele>
        <time>2016-12-11T11:01:06.999Z</time>
      </trkpt>
      <trkpt lat="47.50611" lon="6.73937">
        <ele>363</ele>
        <time>2016-12-11T11:01:07.999Z</time>
      </trkpt>
      <trkpt lat="47.50608" lon="6.73943">
        <ele>363</ele>
        <time>2016-12-11T11:01:08.999Z</time>
      </trkpt>
      <trkpt lat="47.50606" lon="6.7395">
        <ele>362</ele>
        <time>2016-12-11T11:01:09.999Z</time>
      </trkpt>
      <trkpt lat="47.50603" lon="6.73959">
        <ele>362</ele>
        <time>2016-12-11T11:01:10.999Z</time>
      </trkpt>
      <trkpt lat="47.506" lon="6.73967">
        <ele>362</ele>
        <time>2016-12-11T11:01:11.999Z</time>
      </trkpt>
      <trkpt lat="47.50597" lon="6.73975">
        <ele>361</ele>
        <time>2016-12-11T11:01:12.999Z</time>
      </trkpt>
      <trkpt lat="47.50593" lon="6.73983">
        <ele>362</ele>
        <time>2016-12-11T11:01:13.999Z</time>
      </trkpt>
      <trkpt lat="47.50589" lon="6.73992">
        <ele>362</ele>
        <time>2016-12-11T11:01:14.999Z</time>
      </trkpt>
      <trkpt lat="47.50585" lon="6.74001">
        <ele>362</ele>
        <time>2016-12-11T11:01:15.999Z</time>
      </trkpt>
      <trkpt lat="47.50582" lon="6.74011">
        <ele>365</ele>
        <time>2016-12-11T11:01:16.999Z</time>
      </trkpt>
      <trkpt lat="47.50578" lon="6.74021">
        <ele>366</ele>
        <time>2016-12-11T11:01:17.999Z</time>
      </trkpt>
      <trkpt lat="47.50575" lon="6.74028">
        <ele>366</ele>
        <time>2016-12-11T11:01:18.999Z</time>
      </trkpt>
      <trkpt lat="47.50571" lon="6.74037">
        <ele>366</ele>
        <time>2016-12-11T11:01:19.999Z</time>
      </trkpt>
      <trkpt lat="47.50567" lon="6.74045">
        <ele>366</ele>
        <time>2016-12-11T11:01:20.999Z</time>
      </trkpt>
      <trkpt lat="47.50564" lon="6.74052">
        <ele>366</ele>
        <time>2016-12-11T11:01:21.999Z</time>
      </trkpt>
      <trkpt lat="47.50561" lon="6.74058">
        <ele>365</ele>
        <time>2016-12-11T11:01:22.999Z</time>
      </trkpt>
      <trkpt lat="47.50557" lon="6.74065">
        <ele>365</ele>
        <time>2016-12-11T11:01:23.999Z</time>
      </trkpt>
      <trkpt lat="47.50554" lon="6.74071">
        <ele>365</ele>
        <time>2016-12-11T11:01:24.999Z</time>
      </trkpt>
      <trkpt lat="47.50551" lon="6.74076">
        <ele>366</ele>
        <time>2016-12-11T11:01:25.999Z</time>
      </trkpt>
      <trkpt lat="47.50549" lon="6.74079">
        <ele>366</ele>
        <time>2016-12-11T11:01:26.999Z</time>
      </trkpt>
      <trkpt lat="47.50548" lon="6.74081">
        <ele>366</ele>
        <time>2016-12-11T11:01:27.999Z</time>
      </trkpt>
      <trkpt lat="47.50546" lon="6.74084">
        <ele>362</ele>
        <time>2016-12-11T11:01:28.999Z</time>
      </trkpt>
      <trkpt lat="47.50543" lon="6.7409">
        <ele>363</ele>
        <time>2016-12-11T11:01:29.999Z</time>
      </trkpt>
      <trkpt lat="47.50541" lon="6.74095">
        <ele>363</ele>
        <time>2016-12-11T11:01:30.999Z</time>
      </trkpt>
      <trkpt lat="47.50538" lon="6.741">
        <ele>364</ele>
        <time>2016-12-11T11:01:31.999Z</time>
      </trkpt>
      <trkpt lat="47.50535" lon="6.74105">
        <ele>364</ele>
        <time>2016-12-11T11:01:32.999Z</time>
      </trkpt>
      <trkpt lat="47.50532" lon="6.74108">
        <ele>364</ele>
        <time>2016-12-11T11:01:33.999Z</time>
      </trkpt>
      <trkpt lat="47.5053" lon="6.74112">
        <ele>364</ele>
        <time>2016-12-11T11:01:34.999Z</time>
      </trkpt>
      <trkpt lat="47.50528" lon="6.74115">
        <ele>364</ele>
        <time>2016-12-11T11:01:35.999Z</time>
      </trkpt>
      <trkpt lat="47.50526" lon="6.74121">
        <ele>364</ele>
        <time>2016-12-11T11:01:36.999Z</time>
      </trkpt>
      <trkpt lat="47.50524" lon="6.74126">
        <ele>364</ele>
        <time>2016-12-11T11:01:37.999Z</time>
      </trkpt>
      <trkpt lat="47.50522" lon="6.74132">
        <ele>364</ele>
        <time>2016-12-11T11:01:38.999Z</time>
      </trkpt>
      <trkpt lat="47.50519" lon="6.7414">
        <ele>365</ele>
        <time>2016-12-11T11:01:39.999Z</time>
      </trkpt>
      <trkpt lat="47.50516" lon="6.74146">
        <ele>365</ele>
        <time>2016-12-11T11:01:40.999Z</time>
      </trkpt>
      <trkpt lat="47.50514" lon="6.74153">
        <ele>366</ele>
        <time>2016-12-11T11:01:41.999Z</time>
      </trkpt>
      <trkpt lat="47.50511" lon="6.74163">
        <ele>368</ele>
        <time>2016-12-11T11:01:42.999Z</time>
      </trkpt>
      <trkpt lat="47.50509" lon="6.74168">
        <ele>368</ele>
        <time>2016-12-11T11:01:43.999Z</time>
      </trkpt>
      <trkpt lat="47.50507" lon="6.74171">
        <ele>368</ele>
        <time>2016-12-11T11:01:44.999Z</time>
      </trkpt>
      <trkpt lat="47.50505" lon="6.74175">
        <ele>367</ele>
        <time>2016-12-11T11:01:45.999Z</time>
      </trkpt>
      <trkpt lat="47.50502" lon="6.7418">
        <ele>367</ele>
        <time>2016-12-11T11:01:46.999Z</time>
      </trkpt>
      <trkpt lat="47.50501" lon="6.74182">
        <ele>366</ele>
        <time>2016-12-11T11:01:47.999Z</time>
      </trkpt>
      <trkpt lat="47.50499" lon="6.74186">
        <ele>373</ele>
        <time>2016-12-11T11:01:48.999Z</time>
      </trkpt>
      <trkpt lat="47.50497" lon="6.74191">
        <ele>373</ele>
        <time>2016-12-11T11:01:49.999Z</time>
      </trkpt>
      <trkpt lat="47.50495" lon="6.74195">
        <ele>373</ele>
        <time>2016-12-11T11:01:50.999Z</time>
      </trkpt>
      <trkpt lat="47.50493" lon="6.74199">
        <ele>373</ele>
        <time>2016-12-11T11:01:51.999Z</time>
      </trkpt>
      <trkpt lat="47.5049" lon="6.74203">
        <ele>373</ele>
        <time>2016-12-11T11:01:52.999Z</time>
      </trkpt>
      <trkpt lat="47.50487" lon="6.74207">
        <ele>373</ele>
        <time>2016-12-11T11:01:53.999Z</time>
      </trkpt>
      <trkpt lat="47.50485" lon="6.74212">
        <ele>373</ele>
        <time>2016-12-11T11:01:54.999Z</time>
      </trkpt>
      <trkpt lat="47.50483" lon="6.74217">
        <ele>373</ele>
        <time>2016-12-11T11:01:55.999Z</time>
      </trkpt>
      <trkpt lat="47.50481" lon="6.74221">
        <ele>373</ele>
        <time>2016-12-11T11:01:56.999Z</time>
      </trkpt>
      <trkpt lat="47.50481" lon="6.74225">
        <ele>373</ele>
        <time>2016-12-11T11:01:57.999Z</time>
      </trkpt>
      <trkpt lat="47.5048" lon="6.7423">
        <ele>373</ele>
        <time>2016-12-11T11:01:58.999Z</time>
      </trkpt>
      <trkpt lat="47.50478" lon="6.74237">
        <ele>373</ele>
        <time>2016-12-11T11:01:59.999Z</time>
      </trkpt>
      <trkpt lat="47.50476" lon="6.74245">
        <ele>373</ele>
        <time>2016-12-11T11:02:00.999Z</time>
      </trkpt>
      <trkpt lat="47.50473" lon="6.74254">
        <ele>370</ele>
        <time>2016-12-11T11:02:01.999Z</time>
      </trkpt>
      <trkpt lat="47.50469" lon="6.74263">
        <ele>370</ele>
        <time>2016-12-11T11:02:02.999Z</time>
      </trkpt>
      <trkpt lat="47.50465" lon="6.74272">
        <ele>370</ele>
        <time>2016-12-11T11:02:03.999Z</time>
      </trkpt>
      <trkpt lat="47.50462" lon="6.74279">
        <ele>370</ele>
        <time>2016-12-11T11:02:04.999Z</time>
      </trkpt>
      <trkpt lat="47.50459" lon="6.74286">
        <ele>370</ele>
        <time>2016-12-11T11:02:05.999Z</time>
      </trkpt>
      <trkpt lat="47.50456" lon="6.74292">
        <ele>370</ele>
        <time>2016-12-11T11:02:06.999Z</time>
      </trkpt>
      <trkpt lat="47.50453" lon="6.74299">
        <ele>370</ele>
        <time>2016-12-11T11:02:07.999Z</time>
      </trkpt>
      <trkpt lat="47.50449" lon="6.74305">
        <ele>370</ele>
        <time>2016-12-11T11:02:08.999Z</time>
      </trkpt>
      <trkpt lat="47.50447" lon="6.74312">
        <ele>370</ele>
        <time>2016-12-11T11:02:09.999Z</time>
      </trkpt>
      <trkpt lat="47.50444" lon="6.74318">
        <ele>370</ele>
        <time>2016-12-11T11:02:10.999Z</time>
      </trkpt>
      <trkpt lat="47.50441" lon="6.74324">
        <ele>369</ele>
        <time>2016-12-11T11:02:11.999Z</time>
      </trkpt>
      <trkpt lat="47.50439" lon="6.7433">
        <ele>370</ele>
        <time>2016-12-11T11:02:12.999Z</time>
      </trkpt>
      <trkpt lat="47.50436" lon="6.74336">
        <ele>366</ele>
        <time>2016-12-11T11:02:13.999Z</time>
      </trkpt>
      <trkpt lat="47.50433" lon="6.74342">
        <ele>366</ele>
        <time>2016-12-11T11:02:14.999Z</time>
      </trkpt>
      <trkpt lat="47.50431" lon="6.74347">
        <ele>365</ele>
        <time>2016-12-11T11:02:15.999Z</time>
      </trkpt>
      <trkpt lat="47.5043" lon="6.74352">
        <ele>365</ele>
        <time>2016-12-11T11:02:16.999Z</time>
      </trkpt>
      <trkpt lat="47.50428" lon="6.74358">
        <ele>364</ele>
        <time>2016-12-11T11:02:17.999Z</time>
      </trkpt>
      <trkpt lat="47.50425" lon="6.74365">
        <ele>364</ele>
        <time>2016-12-11T11:02:18.999Z</time>
      </trkpt>
      <trkpt lat="47.50422" lon="6.74372">
        <ele>363</ele>
        <time>2016-12-11T11:02:19.999Z</time>
      </trkpt>
      <trkpt lat="47.50419" lon="6.74379">
        <ele>363</ele>
        <time>2016-12-11T11:02:20.999Z</time>
      </trkpt>
      <trkpt lat="47.50416" lon="6.74386">
        <ele>363</ele>
        <time>2016-12-11T11:02:21.999Z</time>
      </trkpt>
      <trkpt lat="47.50413" lon="6.74392">
        <ele>362</ele>
        <time>2016-12-11T11:02:22.999Z</time>
      </trkpt>
      <trkpt lat="47.5041" lon="6.74398">
        <ele>362</ele>
        <time>2016-12-11T11:02:23.999Z</time>
      </trkpt>
      <trkpt lat="47.50407" lon="6.74404">
        <ele>362</ele>
        <time>2016-12-11T11:02:24.999Z</time>
      </trkpt>
      <trkpt lat="47.50403" lon="6.74411">
        <ele>361</ele>
        <time>2016-12-11T11:02:25.999Z</time>
      </trkpt>
      <trkpt lat="47.504" lon="6.74417">
        <ele>358</ele>
        <time>2016-12-11T11:02:26.999Z</time>
      </trkpt>
      <trkpt lat="47.50397" lon="6.74423">
        <ele>357</ele>
        <time>2016-12-11T11:02:27.999Z</time>
      </trkpt>
      <trkpt lat="47.50394" lon="6.7443">
        <ele>357</ele>
        <time>2016-12-11T11:02:28.999Z</time>
      </trkpt>
      <trkpt lat="47.5039" lon="6.74437">
        <ele>356</ele>
        <time>2016-12-11T11:02:29.999Z</time>
      </trkpt>
      <trkpt lat="47.50387" lon="6.74444">
        <ele>356</ele>
        <time>2016-12-11T11:02:30.999Z</time>
      </trkpt>
      <trkpt lat="47.50386" lon="6.7445">
        <ele>356</ele>
        <time>2016-12-11T11:02:31.999Z</time>
      </trkpt>
      <trkpt lat="47.50383" lon="6.74457">
        <ele>356</ele>
        <time>2016-12-11T11:02:32.999Z</time>
      </trkpt>
      <trkpt lat="47.5038" lon="6.74464">
        <ele>355</ele>
        <time>2016-12-11T11:02:33.999Z</time>
      </trkpt>
      <trkpt lat="47.50377" lon="6.74471">
        <ele>355</ele>
        <time>2016-12-11T11:02:34.999Z</time>
      </trkpt>
      <trkpt lat="47.50375" lon="6.74478">
        <ele>355</ele>
        <time>2016-12-11T11:02:35.999Z</time>
      </trkpt>
      <trkpt lat="47.50374" lon="6.74484">
        <ele>355</ele>
        <time>2016-12-11T11:02:36.999Z</time>
      </trkpt>
      <trkpt lat="47.50374" lon="6.7449">
        <ele>355</ele>
        <time>2016-12-11T11:02:37.999Z</time>
      </trkpt>
      <trkpt lat="47.50374" lon="6.74497">
        <ele>355</ele>
        <time>2016-12-11T11:02:38.999Z</time>
      </trkpt>
      <trkpt lat="47.50375" lon="6.74505">
        <ele>353</ele>
        <time>2016-12-11T11:02:39.999Z</time>
      </trkpt>
      <trkpt lat="47.50377" lon="6.74511">
        <ele>353</ele>
        <time>2016-12-11T11:02:40.999Z</time>
      </trkpt>
      <trkpt lat="47.50378" lon="6.74519">
        <ele>353</ele>
        <time>2016-12-11T11:02:41.999Z</time>
      </trkpt>
      <trkpt lat="47.5038" lon="6.74529">
        <ele>353</ele>
        <time>2016-12-11T11:02:42.999Z</time>
      </trkpt>
      <trkpt lat="47.50382" lon="6.74537">
        <ele>353</ele>
        <time>2016-12-11T11:02:43.999Z</time>
      </trkpt>
      <trkpt lat="47.50383" lon="6.74544">
        <ele>353</ele>
        <time>2016-12-11T11:02:44.999Z</time>
      </trkpt>
      <trkpt lat="47.50385" lon="6.74551">
        <ele>353</ele>
        <time>2016-12-11T11:02:45.999Z</time>
      </trkpt>
      <trkpt lat="47.50386" lon="6.74558">
        <ele>353</ele>
        <time>2016-12-11T11:02:46.999Z</time>
      </trkpt>
      <trkpt lat="47.50386" lon="6.74567">
        <ele>353</ele>
        <time>2016-12-11T11:02:47.999Z</time>
      </trkpt>
      <trkpt lat="47.50387" lon="6.74574">
        <ele>353</ele>
        <time>2016-12-11T11:02:48.999Z</time>
      </trkpt>
      <trkpt lat="47.50388" lon="6.74582">
        <ele>353</ele>
        <time>2016-12-11T11:02:49.999Z</time>
      </trkpt>
      <trkpt lat="47.50389" lon="6.7459">
        <ele>352</ele>
        <time>2016-12-11T11:02:50.999Z</time>
      </trkpt>
      <trkpt lat="47.5039" lon="6.74598">
        <ele>352</ele>
        <time>2016-12-11T11:02:51.999Z</time>
      </trkpt>
      <trkpt lat="47.50391" lon="6.74605">
        <ele>352</ele>
        <time>2016-12-11T11:02:52.999Z</time>
      </trkpt>
      <trkpt lat="47.50393" lon="6.74614">
        <ele>352</ele>
        <time>2016-12-11T11:02:53.999Z</time>
      </trkpt>
      <trkpt lat="47.50394" lon="6.74623">
        <ele>352</ele>
        <time>2016-12-11T11:02:54.999Z</time>
      </trkpt>
      <trkpt lat="47.50395" lon="6.74631">
        <ele>352</ele>
        <time>2016-12-11T11:02:55.999Z</time>
      </trkpt>
      <trkpt lat="47.50396" lon="6.74639">
        <ele>352</ele>
        <time>2016-12-11T11:02:56.999Z</time>
      </trkpt>
      <trkpt lat="47.50397" lon="6.74646">
        <ele>352</ele>
        <time>2016-12-11T11:02:57.999Z</time>
      </trkpt>
      <trkpt lat="47.50398" lon="6.74654">
        <ele>352</ele>
        <time>2016-12-11T11:02:58.999Z</time>
      </trkpt>
      <trkpt lat="47.50399" lon="6.74662">
        <ele>352</ele>
        <time>2016-12-11T11:02:59.999Z</time>
      </trkpt>
      <trkpt lat="47.50399" lon="6.74669">
        <ele>352</ele>
        <time>2016-12-11T11:03:00.999Z</time>
      </trkpt>
      <trkpt lat="47.50399" lon="6.74678">
        <ele>352</ele>
        <time>2016-12-11T11:03:01.999Z</time>
      </trkpt>
      <trkpt lat="47.50398" lon="6.74685">
        <ele>352</ele>
        <time>2016-12-11T11:03:02.999Z</time>
      </trkpt>
      <trkpt lat="47.50396" lon="6.74692">
        <ele>352</ele>
        <time>2016-12-11T11:03:03.999Z</time>
      </trkpt>
      <trkpt lat="47.50394" lon="6.74699">
        <ele>351</ele>
        <time>2016-12-11T11:03:04.999Z</time>
      </trkpt>
      <trkpt lat="47.50391" lon="6.74706">
        <ele>351</ele>
        <time>2016-12-11T11:03:05.999Z</time>
      </trkpt>
      <trkpt lat="47.50389" lon="6.74713">
        <ele>351</ele>
        <time>2016-12-11T11:03:06.999Z</time>
      </trkpt>
      <trkpt lat="47.50387" lon="6.74719">
        <ele>351</ele>
        <time>2016-12-11T11:03:07.999Z</time>
      </trkpt>
      <trkpt lat="47.50384" lon="6.74727">
        <ele>351</ele>
        <time>2016-12-11T11:03:08.999Z</time>
      </trkpt>
      <trkpt lat="47.50382" lon="6.74736">
        <ele>351</ele>
        <time>2016-12-11T11:03:09.999Z</time>
      </trkpt>
      <trkpt lat="47.50378" lon="6.74746">
        <ele>351</ele>
        <time>2016-12-11T11:03:10.999Z</time>
      </trkpt>
      <trkpt lat="47.50376" lon="6.74754">
        <ele>350</ele>
        <time>2016-12-11T11:03:11.999Z</time>
      </trkpt>
      <trkpt lat="47.50373" lon="6.74763">
        <ele>350</ele>
        <time>2016-12-11T11:03:12.999Z</time>
      </trkpt>
      <trkpt lat="47.50371" lon="6.74771">
        <ele>350</ele>
        <time>2016-12-11T11:03:13.999Z</time>
      </trkpt>
      <trkpt lat="47.50369" lon="6.74778">
        <ele>350</ele>
        <time>2016-12-11T11:03:14.999Z</time>
      </trkpt>
      <trkpt lat="47.50367" lon="6.74785">
        <ele>350</ele>
        <time>2016-12-11T11:03:15.999Z</time>
      </trkpt>
      <trkpt lat="47.50364" lon="6.74793">
        <ele>350</ele>
        <time>2016-12-11T11:03:16.999Z</time>
      </trkpt>
      <trkpt lat="47.50362" lon="6.748">
        <ele>349</ele>
        <time>2016-12-11T11:03:17.999Z</time>
      </trkpt>
      <trkpt lat="47.50359" lon="6.74808">
        <ele>349</ele>
        <time>2016-12-11T11:03:18.999Z</time>
      </trkpt>
      <trkpt lat="47.50357" lon="6.74817">
        <ele>349</ele>
        <time>2016-12-11T11:03:19.999Z</time>
      </trkpt>
      <trkpt lat="47.50354" lon="6.74826">
        <ele>349</ele>
        <time>2016-12-11T11:03:20.999Z</time>
      </trkpt>
      <trkpt lat="47.50352" lon="6.74835">
        <ele>348</ele>
        <time>2016-12-11T11:03:21.999Z</time>
      </trkpt>
      <trkpt lat="47.50349" lon="6.74845">
        <ele>348</ele>
        <time>2016-12-11T11:03:22.999Z</time>
      </trkpt>
      <trkpt lat="47.50347" lon="6.74853">
        <ele>348</ele>
        <time>2016-12-11T11:03:23.999Z</time>
      </trkpt>
      <trkpt lat="47.50344" lon="6.74861">
        <ele>348</ele>
        <time>2016-12-11T11:03:24.999Z</time>
      </trkpt>
      <trkpt lat="47.50342" lon="6.74869">
        <ele>348</ele>
        <time>2016-12-11T11:03:25.999Z</time>
      </trkpt>
      <trkpt lat="47.50339" lon="6.74877">
        <ele>348</ele>
        <time>2016-12-11T11:03:26.999Z</time>
      </trkpt>
      <trkpt lat="47.50337" lon="6.74885">
        <ele>348</ele>
        <time>2016-12-11T11:03:27.999Z</time>
      </trkpt>
      <trkpt lat="47.50335" lon="6.74894">
        <ele>347</ele>
        <time>2016-12-11T11:03:28.999Z</time>
      </trkpt>
      <trkpt lat="47.50332" lon="6.74903">
        <ele>344</ele>
        <time>2016-12-11T11:03:29.999Z</time>
      </trkpt>
      <trkpt lat="47.5033" lon="6.74913">
        <ele>345</ele>
        <time>2016-12-11T11:03:30.999Z</time>
      </trkpt>
      <trkpt lat="47.50328" lon="6.7492">
        <ele>345</ele>
        <time>2016-12-11T11:03:31.999Z</time>
      </trkpt>
      <trkpt lat="47.50326" lon="6.74928">
        <ele>345</ele>
        <time>2016-12-11T11:03:32.999Z</time>
      </trkpt>
      <trkpt lat="47.50324" lon="6.74936">
        <ele>344</ele>
        <time>2016-12-11T11:03:33.999Z</time>
      </trkpt>
      <trkpt lat="47.50322" lon="6.74943">
        <ele>344</ele>
        <time>2016-12-11T11:03:34.999Z</time>
      </trkpt>
      <trkpt lat="47.5032" lon="6.74952">
        <ele>344</ele>
        <time>2016-12-11T11:03:35.999Z</time>
      </trkpt>
      <trkpt lat="47.50316" lon="6.74963">
        <ele>344</ele>
        <time>2016-12-11T11:03:36.999Z</time>
      </trkpt>
      <trkpt lat="47.50314" lon="6.74971">
        <ele>344</ele>
        <time>2016-12-11T11:03:37.999Z</time>
      </trkpt>
      <trkpt lat="47.50311" lon="6.74978">
        <ele>344</ele>
        <time>2016-12-11T11:03:38.999Z</time>
      </trkpt>
      <trkpt lat="47.50306" lon="6.74987">
        <ele>344</ele>
        <time>2016-12-11T11:03:39.999Z</time>
      </trkpt>
      <trkpt lat="47.50301" lon="6.74994">
        <ele>344</ele>
        <time>2016-12-11T11:03:40.999Z</time>
      </trkpt>
      <trkpt lat="47.50296" lon="6.75">
        <ele>343</ele>
        <time>2016-12-11T11:03:41.999Z</time>
      </trkpt>
      <trkpt lat="47.5029" lon="6.75006">
        <ele>343</ele>
        <time>2016-12-11T11:03:42.999Z</time>
      </trkpt>
      <trkpt lat="47.50285" lon="6.75011">
        <ele>343</ele>
        <time>2016-12-11T11:03:43.999Z</time>
      </trkpt>
      <trkpt lat="47.50279" lon="6.75015">
        <ele>342</ele>
        <time>2016-12-11T11:03:44.999Z</time>
      </trkpt>
      <trkpt lat="47.50274" lon="6.75019">
        <ele>342</ele>
        <time>2016-12-11T11:03:45.999Z</time>
      </trkpt>
      <trkpt lat="47.5027" lon="6.75024">
        <ele>342</ele>
        <time>2016-12-11T11:03:46.999Z</time>
      </trkpt>
      <trkpt lat="47.50266" lon="6.75027">
        <ele>342</ele>
        <time>2016-12-11T11:03:47.999Z</time>
      </trkpt>
      <trkpt lat="47.50262" lon="6.75025">
        <ele>341</ele>
        <time>2016-12-11T11:03:48.999Z</time>
      </trkpt>
      <trkpt lat="47.50258" lon="6.7502">
        <ele>341</ele>
        <time>2016-12-11T11:03:49.999Z</time>
      </trkpt>
      <trkpt lat="47.50255" lon="6.75012">
        <ele>340</ele>
        <time>2016-12-11T11:03:50.999Z</time>
      </trkpt>
      <trkpt lat="47.50254" lon="6.75004">
        <ele>338</ele>
        <time>2016-12-11T11:03:51.999Z</time>
      </trkpt>
      <trkpt lat="47.50253" lon="6.74997">
        <ele>338</ele>
        <time>2016-12-11T11:03:52.999Z</time>
      </trkpt>
      <trkpt lat="47.5025" lon="6.74989">
        <ele>339</ele>
        <time>2016-12-11T11:03:53.999Z</time>
      </trkpt>
      <trkpt lat="47.50248" lon="6.74983">
        <ele>336</ele>
        <time>2016-12-11T11:03:54.999Z</time>
      </trkpt>
      <trkpt lat="47.50245" lon="6.74978">
        <ele>336</ele>
        <time>2016-12-11T11:03:55.999Z</time>
      </trkpt>
      <trkpt lat="47.50242" lon="6.74974">
        <ele>336</ele>
        <time>2016-12-11T11:03:56.999Z</time>
      </trkpt>
      <trkpt lat="47.50239" lon="6.7497">
        <ele>336</ele>
        <time>2016-12-11T11:03:57.999Z</time>
      </trkpt>
      <trkpt lat="47.50235" lon="6.74965">
        <ele>336</ele>
        <time>2016-12-11T11:03:58.999Z</time>
      </trkpt>
      <trkpt lat="47.50231" lon="6.74961">
        <ele>336</ele>
        <time>2016-12-11T11:03:59.999Z</time>
      </trkpt>
      <trkpt lat="47.50226" lon="6.7496">
        <ele>336</ele>
        <time>2016-12-11T11:04:00.999Z</time>
      </trkpt>
      <trkpt lat="47.50224" lon="6.74961">
        <ele>336</ele>
        <time>2016-12-11T11:04:01.999Z</time>
      </trkpt>
      <trkpt lat="47.5022" lon="6.74965">
        <ele>336</ele>
        <time>2016-12-11T11:04:02.999Z</time>
      </trkpt>
      <trkpt lat="47.50216" lon="6.74969">
        <ele>336</ele>
        <time>2016-12-11T11:04:03.999Z</time>
      </trkpt>
      <trkpt lat="47.50213" lon="6.74974">
        <ele>336</ele>
        <time>2016-12-11T11:04:04.999Z</time>
      </trkpt>
      <trkpt lat="47.50209" lon="6.74978">
        <ele>336</ele>
        <time>2016-12-11T11:04:05.999Z</time>
      </trkpt>
      <trkpt lat="47.50205" lon="6.74985">
        <ele>335</ele>
        <time>2016-12-11T11:04:06.999Z</time>
      </trkpt>
      <trkpt lat="47.50201" lon="6.74991">
        <ele>335</ele>
        <time>2016-12-11T11:04:07.999Z</time>
      </trkpt>
      <trkpt lat="47.50199" lon="6.74997">
        <ele>335</ele>
        <time>2016-12-11T11:04:08.999Z</time>
      </trkpt>
      <trkpt lat="47.50197" lon="6.75005">
        <ele>334</ele>
        <time>2016-12-11T11:04:09.999Z</time>
      </trkpt>
      <trkpt lat="47.50196" lon="6.75012">
        <ele>334</ele>
        <time>2016-12-11T11:04:10.999Z</time>
      </trkpt>
      <trkpt lat="47.50194" lon="6.75021">
        <ele>334</ele>
        <time>2016-12-11T11:04:11.999Z</time>
      </trkpt>
      <trkpt lat="47.50192" lon="6.75031">
        <ele>333</ele>
        <time>2016-12-11T11:04:12.999Z</time>
      </trkpt>
      <trkpt lat="47.50191" lon="6.75039">
        <ele>333</ele>
        <time>2016-12-11T11:04:13.999Z</time>
      </trkpt>
      <trkpt lat="47.50189" lon="6.75049">
        <ele>333</ele>
        <time>2016-12-11T11:04:14.999Z</time>
      </trkpt>
      <trkpt lat="47.50188" lon="6.7506">
        <ele>332</ele>
        <time>2016-12-11T11:04:15.999Z</time>
      </trkpt>
      <trkpt lat="47.50186" lon="6.75071">
        <ele>332</ele>
        <time>2016-12-11T11:04:16.999Z</time>
      </trkpt>
      <trkpt lat="47.50185" lon="6.75081">
        <ele>331</ele>
        <time>2016-12-11T11:04:17.999Z</time>
      </trkpt>
      <trkpt lat="47.50184" lon="6.75091">
        <ele>329</ele>
        <time>2016-12-11T11:04:18.999Z</time>
      </trkpt>
      <trkpt lat="47.50182" lon="6.75101">
        <ele>329</ele>
        <time>2016-12-11T11:04:19.999Z</time>
      </trkpt>
      <trkpt lat="47.50181" lon="6.7511">
        <ele>329</ele>
        <time>2016-12-11T11:04:20.999Z</time>
      </trkpt>
      <trkpt lat="47.50178" lon="6.75118">
        <ele>328</ele>
        <time>2016-12-11T11:04:21.999Z</time>
      </trkpt>
      <trkpt lat="47.50175" lon="6.75125">
        <ele>328</ele>
        <time>2016-12-11T11:04:22.999Z</time>
      </trkpt>
      <trkpt lat="47.5017" lon="6.75132">
        <ele>328</ele>
        <time>2016-12-11T11:04:23.999Z</time>
      </trkpt>
      <trkpt lat="47.50165" lon="6.75137">
        <ele>326</ele>
        <time>2016-12-11T11:04:24.999Z</time>
      </trkpt>
      <trkpt lat="47.5016" lon="6.75142">
        <ele>326</ele>
        <time>2016-12-11T11:04:25.999Z</time>
      </trkpt>
      <trkpt lat="47.50155" lon="6.75148">
        <ele>325</ele>
        <time>2016-12-11T11:04:26.999Z</time>
      </trkpt>
      <trkpt lat="47.50149" lon="6.75154">
        <ele>325</ele>
        <time>2016-12-11T11:04:27.999Z</time>
      </trkpt>
      <trkpt lat="47.50143" lon="6.7516">
        <ele>325</ele>
        <time>2016-12-11T11:04:28.999Z</time>
      </trkpt>
      <trkpt lat="47.50138" lon="6.75164">
        <ele>325</ele>
        <time>2016-12-11T11:04:29.999Z</time>
      </trkpt>
      <trkpt lat="47.50131" lon="6.75169">
        <ele>323</ele>
        <time>2016-12-11T11:04:30.999Z</time>
      </trkpt>
      <trkpt lat="47.50125" lon="6.75174">
        <ele>323</ele>
        <time>2016-12-11T11:04:31.999Z</time>
      </trkpt>
      <trkpt lat="47.50119" lon="6.75178">
        <ele>323</ele>
        <time>2016-12-11T11:04:32.999Z</time>
      </trkpt>
      <trkpt lat="47.50112" lon="6.75182">
        <ele>323</ele>
        <time>2016-12-11T11:04:33.999Z</time>
      </trkpt>
      <trkpt lat="47.50106" lon="6.75185">
        <ele>323</ele>
        <time>2016-12-11T11:04:34.999Z</time>
      </trkpt>
      <trkpt lat="47.50099" lon="6.75188">
        <ele>323</ele>
        <time>2016-12-11T11:04:35.999Z</time>
      </trkpt>
      <trkpt lat="47.50093" lon="6.75191">
        <ele>323</ele>
        <time>2016-12-11T11:04:36.999Z</time>
      </trkpt>
      <trkpt lat="47.50086" lon="6.75194">
        <ele>323</ele>
        <time>2016-12-11T11:04:37.999Z</time>
      </trkpt>
      <trkpt lat="47.5008" lon="6.75196">
        <ele>323</ele>
        <time>2016-12-11T11:04:38.999Z</time>
      </trkpt>
      <trkpt lat="47.50074" lon="6.75199">
        <ele>322</ele>
        <time>2016-12-11T11:04:39.999Z</time>
      </trkpt>
      <trkpt lat="47.50067" lon="6.75201">
        <ele>322</ele>
        <time>2016-12-11T11:04:40.999Z</time>
      </trkpt>
      <trkpt lat="47.50061" lon="6.75202">
        <ele>322</ele>
        <time>2016-12-11T11:04:41.999Z</time>
      </trkpt>
      <trkpt lat="47.50055" lon="6.75203">
        <ele>322</ele>
        <time>2016-12-11T11:04:42.999Z</time>
      </trkpt>
      <trkpt lat="47.50049" lon="6.75203">
        <ele>322</ele>
        <time>2016-12-11T11:04:43.999Z</time>
      </trkpt>
      <trkpt lat="47.50044" lon="6.75203">
        <ele>322</ele>
        <time>2016-12-11T11:04:44.999Z</time>
      </trkpt>
      <trkpt lat="47.50039" lon="6.75205">
        <ele>322</ele>
        <time>2016-12-11T11:04:45.999Z</time>
      </trkpt>
      <trkpt lat="47.50033" lon="6.75207">
        <ele>322</ele>
        <time>2016-12-11T11:04:46.999Z</time>
      </trkpt>
      <trkpt lat="47.50028" lon="6.75212">
        <ele>322</ele>
        <time>2016-12-11T11:04:47.999Z</time>
      </trkpt>
      <trkpt lat="47.50022" lon="6.75217">
        <ele>322</ele>
        <time>2016-12-11T11:04:48.999Z</time>
      </trkpt>
      <trkpt lat="47.50017" lon="6.75223">
        <ele>322</ele>
        <time>2016-12-11T11:04:49.999Z</time>
      </trkpt>
      <trkpt lat="47.50014" lon="6.75231">
        <ele>322</ele>
        <time>2016-12-11T11:04:50.999Z</time>
      </trkpt>
      <trkpt lat="47.50011" lon="6.75238">
        <ele>322</ele>
        <time>2016-12-11T11:04:51.999Z</time>
      </trkpt>
      <trkpt lat="47.5001" lon="6.75246">
        <ele>321</ele>
        <time>2016-12-11T11:04:52.999Z</time>
      </trkpt>
      <trkpt lat="47.50008" lon="6.75255">
        <ele>321</ele>
        <time>2016-12-11T11:04:53.999Z</time>
      </trkpt>
      <trkpt lat="47.50006" lon="6.75264">
        <ele>322</ele>
        <time>2016-12-11T11:04:54.999Z</time>
      </trkpt>
      <trkpt lat="47.50006" lon="6.75273">
        <ele>322</ele>
        <time>2016-12-11T11:04:55.999Z</time>
      </trkpt>
      <trkpt lat="47.50006" lon="6.75283">
        <ele>322</ele>
        <time>2016-12-11T11:04:56.999Z</time>
      </trkpt>
      <trkpt lat="47.50006" lon="6.75289">
        <ele>322</ele>
        <time>2016-12-11T11:04:57.999Z</time>
      </trkpt>
      <trkpt lat="47.50007" lon="6.75297">
        <ele>322</ele>
        <time>2016-12-11T11:04:58.999Z</time>
      </trkpt>
      <trkpt lat="47.50007" lon="6.75303">
        <ele>322</ele>
        <time>2016-12-11T11:04:59.999Z</time>
      </trkpt>
      <trkpt lat="47.50008" lon="6.7531">
        <ele>323</ele>
        <time>2016-12-11T11:05:00.999Z</time>
      </trkpt>
      <trkpt lat="47.50008" lon="6.75317">
        <ele>323</ele>
        <time>2016-12-11T11:05:01.999Z</time>
      </trkpt>
      <trkpt lat="47.50009" lon="6.75324">
        <ele>323</ele>
        <time>2016-12-11T11:05:02.999Z</time>
      </trkpt>
      <trkpt lat="47.5001" lon="6.75331">
        <ele>323</ele>
        <time>2016-12-11T11:05:03.999Z</time>
      </trkpt>
      <trkpt lat="47.5001" lon="6.75339">
        <ele>325</ele>
        <time>2016-12-11T11:05:04.999Z</time>
      </trkpt>
      <trkpt lat="47.50011" lon="6.75346">
        <ele>326</ele>
        <time>2016-12-11T11:05:05.999Z</time>
      </trkpt>
      <trkpt lat="47.50011" lon="6.75353">
        <ele>326</ele>
        <time>2016-12-11T11:05:06.999Z</time>
      </trkpt>
      <trkpt lat="47.5001" lon="6.75361">
        <ele>327</ele>
        <time>2016-12-11T11:05:07.999Z</time>
      </trkpt>
      <trkpt lat="47.50008" lon="6.75367">
        <ele>328</ele>
        <time>2016-12-11T11:05:08.999Z</time>
      </trkpt>
      <trkpt lat="47.50007" lon="6.75372">
        <ele>328</ele>
        <time>2016-12-11T11:05:09.999Z</time>
      </trkpt>
      <trkpt lat="47.50005" lon="6.75378">
        <ele>328</ele>
        <time>2016-12-11T11:05:10.999Z</time>
      </trkpt>
      <trkpt lat="47.50003" lon="6.75383">
        <ele>329</ele>
        <time>2016-12-11T11:05:11.999Z</time>
      </trkpt>
      <trkpt lat="47.50002" lon="6.75387">
        <ele>329</ele>
        <time>2016-12-11T11:05:12.999Z</time>
      </trkpt>
      <trkpt lat="47.5" lon="6.75391">
        <ele>327</ele>
        <time>2016-12-11T11:05:13.999Z</time>
      </trkpt>
      <trkpt lat="47.49997" lon="6.75395">
        <ele>328</ele>
        <time>2016-12-11T11:05:14.999Z</time>
      </trkpt>
      <trkpt lat="47.49994" lon="6.754">
        <ele>328</ele>
        <time>2016-12-11T11:05:15.999Z</time>
      </trkpt>
      <trkpt lat="47.49992" lon="6.75404">
        <ele>329</ele>
        <time>2016-12-11T11:05:16.999Z</time>
      </trkpt>
      <trkpt lat="47.49989" lon="6.75408">
        <ele>329</ele>
        <time>2016-12-11T11:05:17.999Z</time>
      </trkpt>
      <trkpt lat="47.49989" lon="6.75413">
        <ele>329</ele>
        <time>2016-12-11T11:05:18.999Z</time>
      </trkpt>
      <trkpt lat="47.49988" lon="6.75416">
        <ele>329</ele>
        <time>2016-12-11T11:05:19.999Z</time>
      </trkpt>
      <trkpt lat="47.49988" lon="6.75418">
        <ele>333</ele>
        <time>2016-12-11T11:05:43.999Z</time>
      </trkpt>
      <trkpt lat="47.49991" lon="6.75428">
        <ele>334</ele>
        <time>2016-12-11T11:05:44.999Z</time>
      </trkpt>
      <trkpt lat="47.49991" lon="6.75431">
        <ele>334</ele>
        <time>2016-12-11T11:05:45.999Z</time>
      </trkpt>
      <trkpt lat="47.49992" lon="6.75436">
        <ele>335</ele>
        <time>2016-12-11T11:05:46.999Z</time>
      </trkpt>
      <trkpt lat="47.49993" lon="6.75441">
        <ele>335</ele>
        <time>2016-12-11T11:05:47.999Z</time>
      </trkpt>
      <trkpt lat="47.49994" lon="6.75444">
        <ele>336</ele>
        <time>2016-12-11T11:05:48.999Z</time>
      </trkpt>
      <trkpt lat="47.49996" lon="6.75447">
        <ele>336</ele>
        <time>2016-12-11T11:05:49.999Z</time>
      </trkpt>
      <trkpt lat="47.49998" lon="6.75449">
        <ele>336</ele>
        <time>2016-12-11T11:05:50.999Z</time>
      </trkpt>
      <trkpt lat="47.49998" lon="6.75452">
        <ele>337</ele>
        <time>2016-12-11T11:05:51.999Z</time>
      </trkpt>
      <trkpt lat="47.49999" lon="6.75456">
        <ele>337</ele>
        <time>2016-12-11T11:05:52.999Z</time>
      </trkpt>
      <trkpt lat="47.50001" lon="6.75459">
        <ele>338</ele>
        <time>2016-12-11T11:05:53.999Z</time>
      </trkpt>
      <trkpt lat="47.50003" lon="6.75462">
        <ele>338</ele>
        <time>2016-12-11T11:05:54.999Z</time>
      </trkpt>
      <trkpt lat="47.50005" lon="6.75464">
        <ele>338</ele>
        <time>2016-12-11T11:05:55.999Z</time>
      </trkpt>
      <trkpt lat="47.50006" lon="6.75467">
        <ele>339</ele>
        <time>2016-12-11T11:05:56.999Z</time>
      </trkpt>
      <trkpt lat="47.50008" lon="6.75471">
        <ele>339</ele>
        <time>2016-12-11T11:05:57.999Z</time>
      </trkpt>
      <trkpt lat="47.50009" lon="6.75474">
        <ele>340</ele>
        <time>2016-12-11T11:05:58.999Z</time>
      </trkpt>
      <trkpt lat="47.5001" lon="6.75478">
        <ele>340</ele>
        <time>2016-12-11T11:05:59.999Z</time>
      </trkpt>
      <trkpt lat="47.50011" lon="6.75482">
        <ele>340</ele>
        <time>2016-12-11T11:06:00.999Z</time>
      </trkpt>
      <trkpt lat="47.50012" lon="6.75486">
        <ele>341</ele>
        <time>2016-12-11T11:06:01.999Z</time>
      </trkpt>
      <trkpt lat="47.50014" lon="6.75489">
        <ele>341</ele>
        <time>2016-12-11T11:06:02.999Z</time>
      </trkpt>
      <trkpt lat="47.50015" lon="6.75495">
        <ele>341</ele>
        <time>2016-12-11T11:06:04.999Z</time>
      </trkpt>
      <trkpt lat="47.50016" lon="6.75499">
        <ele>341</ele>
        <time>2016-12-11T11:06:05.999Z</time>
      </trkpt>
      <trkpt lat="47.50017" lon="6.75502">
        <ele>345</ele>
        <time>2016-12-11T11:06:06.999Z</time>
      </trkpt>
      <trkpt lat="47.50018" lon="6.75506">
        <ele>345</ele>
        <time>2016-12-11T11:06:07.999Z</time>
      </trkpt>
      <trkpt lat="47.50019" lon="6.75511">
        <ele>345</ele>
        <time>2016-12-11T11:06:09.999Z</time>
      </trkpt>
      <trkpt lat="47.5002" lon="6.75514">
        <ele>345</ele>
        <time>2016-12-11T11:06:10.999Z</time>
      </trkpt>
      <trkpt lat="47.5002" lon="6.75517">
        <ele>345</ele>
        <time>2016-12-11T11:06:11.999Z</time>
      </trkpt>
      <trkpt lat="47.50021" lon="6.7552">
        <ele>345</ele>
        <time>2016-12-11T11:06:12.999Z</time>
      </trkpt>
      <trkpt lat="47.50022" lon="6.75523">
        <ele>345</ele>
        <time>2016-12-11T11:06:13.999Z</time>
      </trkpt>
      <trkpt lat="47.50023" lon="6.75527">
        <ele>345</ele>
        <time>2016-12-11T11:06:14.999Z</time>
      </trkpt>
      <trkpt lat="47.50023" lon="6.7553">
        <ele>345</ele>
        <time>2016-12-11T11:06:15.999Z</time>
      </trkpt>
      <trkpt lat="47.50024" lon="6.75533">
        <ele>345</ele>
        <time>2016-12-11T11:06:16.999Z</time>
      </trkpt>
      <trkpt lat="47.50026" lon="6.75539">
        <ele>346</ele>
        <time>2016-12-11T11:06:18.999Z</time>
      </trkpt>
      <trkpt lat="47.50026" lon="6.75542">
        <ele>346</ele>
        <time>2016-12-11T11:06:19.999Z</time>
      </trkpt>
      <trkpt lat="47.50027" lon="6.75545">
        <ele>346</ele>
        <time>2016-12-11T11:06:20.999Z</time>
      </trkpt>
      <trkpt lat="47.50029" lon="6.75548">
        <ele>346</ele>
        <time>2016-12-11T11:06:21.999Z</time>
      </trkpt>
      <trkpt lat="47.5003" lon="6.75551">
        <ele>346</ele>
        <time>2016-12-11T11:06:22.999Z</time>
      </trkpt>
      <trkpt lat="47.50031" lon="6.75555">
        <ele>346</ele>
        <time>2016-12-11T11:06:23.999Z</time>
      </trkpt>
      <trkpt lat="47.50033" lon="6.75561">
        <ele>346</ele>
        <time>2016-12-11T11:06:25.999Z</time>
      </trkpt>
      <trkpt lat="47.50034" lon="6.75564">
        <ele>346</ele>
        <time>2016-12-11T11:06:26.999Z</time>
      </trkpt>
      <trkpt lat="47.50035" lon="6.75566">
        <ele>346</ele>
        <time>2016-12-11T11:06:27.999Z</time>
      </trkpt>
      <trkpt lat="47.50036" lon="6.75569">
        <ele>346</ele>
        <time>2016-12-11T11:06:28.999Z</time>
      </trkpt>
      <trkpt lat="47.50038" lon="6.75575">
        <ele>346</ele>
        <time>2016-12-11T11:06:30.999Z</time>
      </trkpt>
      <trkpt lat="47.50039" lon="6.75578">
        <ele>346</ele>
        <time>2016-12-11T11:06:31.999Z</time>
      </trkpt>
      <trkpt lat="47.5004" lon="6.75581">
        <ele>346</ele>
        <time>2016-12-11T11:06:32.999Z</time>
      </trkpt>
      <trkpt lat="47.50042" lon="6.75584">
        <ele>352</ele>
        <time>2016-12-11T11:06:33.999Z</time>
      </trkpt>
      <trkpt lat="47.50043" lon="6.75588">
        <ele>352</ele>
        <time>2016-12-11T11:06:34.999Z</time>
      </trkpt>
      <trkpt lat="47.50045" lon="6.7559">
        <ele>352</ele>
        <time>2016-12-11T11:06:35.999Z</time>
      </trkpt>
      <trkpt lat="47.50048" lon="6.75595">
        <ele>351</ele>
        <time>2016-12-11T11:06:37.999Z</time>
      </trkpt>
      <trkpt lat="47.50049" lon="6.75597">
        <ele>351</ele>
        <time>2016-12-11T11:06:38.999Z</time>
      </trkpt>
      <trkpt lat="47.50051" lon="6.756">
        <ele>351</ele>
        <time>2016-12-11T11:06:40.999Z</time>
      </trkpt>
      <trkpt lat="47.50052" lon="6.75602">
        <ele>352</ele>
        <time>2016-12-11T11:06:41.999Z</time>
      </trkpt>
      <trkpt lat="47.50054" lon="6.75605">
        <ele>352</ele>
        <time>2016-12-11T11:06:42.999Z</time>
      </trkpt>
      <trkpt lat="47.50055" lon="6.75608">
        <ele>352</ele>
        <time>2016-12-11T11:06:43.999Z</time>
      </trkpt>
      <trkpt lat="47.50057" lon="6.75611">
        <ele>352</ele>
        <time>2016-12-11T11:06:44.999Z</time>
      </trkpt>
      <trkpt lat="47.50058" lon="6.75613">
        <ele>352</ele>
        <time>2016-12-11T11:06:45.999Z</time>
      </trkpt>
      <trkpt lat="47.5006" lon="6.75618">
        <ele>352</ele>
        <time>2016-12-11T11:06:47.999Z</time>
      </trkpt>
      <trkpt lat="47.50062" lon="6.7562">
        <ele>352</ele>
        <time>2016-12-11T11:06:48.999Z</time>
      </trkpt>
      <trkpt lat="47.50064" lon="6.75625">
        <ele>353</ele>
        <time>2016-12-11T11:06:50.999Z</time>
      </trkpt>
      <trkpt lat="47.50066" lon="6.75628">
        <ele>353</ele>
        <time>2016-12-11T11:06:51.999Z</time>
      </trkpt>
      <trkpt lat="47.50068" lon="6.75632">
        <ele>353</ele>
        <time>2016-12-11T11:06:53.999Z</time>
      </trkpt>
      <trkpt lat="47.50069" lon="6.75634">
        <ele>353</ele>
        <time>2016-12-11T11:06:54.999Z</time>
      </trkpt>
      <trkpt lat="47.5007" lon="6.7564">
        <ele>353</ele>
        <time>2016-12-11T11:06:56.999Z</time>
      </trkpt>
      <trkpt lat="47.50071" lon="6.75642">
        <ele>353</ele>
        <time>2016-12-11T11:06:57.999Z</time>
      </trkpt>
      <trkpt lat="47.50074" lon="6.75647">
        <ele>353</ele>
        <time>2016-12-11T11:06:59.999Z</time>
      </trkpt>
      <trkpt lat="47.50075" lon="6.75649">
        <ele>353</ele>
        <time>2016-12-11T11:07:00.999Z</time>
      </trkpt>
      <trkpt lat="47.50077" lon="6.75654">
        <ele>353</ele>
        <time>2016-12-11T11:07:02.999Z</time>
      </trkpt>
      <trkpt lat="47.50078" lon="6.75657">
        <ele>353</ele>
        <time>2016-12-11T11:07:03.999Z</time>
      </trkpt>
      <trkpt lat="47.5008" lon="6.75662">
        <ele>353</ele>
        <time>2016-12-11T11:07:05.999Z</time>
      </trkpt>
      <trkpt lat="47.50081" lon="6.75663">
        <ele>353</ele>
        <time>2016-12-11T11:07:06.999Z</time>
      </trkpt>
      <trkpt lat="47.50084" lon="6.75668">
        <ele>353</ele>
        <time>2016-12-11T11:07:09.999Z</time>
      </trkpt>
      <trkpt lat="47.50085" lon="6.7567">
        <ele>354</ele>
        <time>2016-12-11T11:07:10.999Z</time>
      </trkpt>
      <trkpt lat="47.50088" lon="6.75673">
        <ele>355</ele>
        <time>2016-12-11T11:07:12.999Z</time>
      </trkpt>
      <trkpt lat="47.50089" lon="6.75674">
        <ele>355</ele>
        <time>2016-12-11T11:07:13.999Z</time>
      </trkpt>
      <trkpt lat="47.50092" lon="6.75677">
        <ele>356</ele>
        <time>2016-12-11T11:07:15.999Z</time>
      </trkpt>
      <trkpt lat="47.50095" lon="6.75679">
        <ele>356</ele>
        <time>2016-12-11T11:07:16.999Z</time>
      </trkpt>
      <trkpt lat="47.50098" lon="6.75682">
        <ele>357</ele>
        <time>2016-12-11T11:07:18.999Z</time>
      </trkpt>
      <trkpt lat="47.50099" lon="6.75684">
        <ele>357</ele>
        <time>2016-12-11T11:07:19.999Z</time>
      </trkpt>
      <trkpt lat="47.50101" lon="6.75686">
        <ele>357</ele>
        <time>2016-12-11T11:07:20.999Z</time>
      </trkpt>
      <trkpt lat="47.50103" lon="6.75689">
        <ele>358</ele>
        <time>2016-12-11T11:07:21.999Z</time>
      </trkpt>
      <trkpt lat="47.50105" lon="6.75691">
        <ele>358</ele>
        <time>2016-12-11T11:07:22.999Z</time>
      </trkpt>
      <trkpt lat="47.50106" lon="6.75694">
        <ele>358</ele>
        <time>2016-12-11T11:07:23.999Z</time>
      </trkpt>
      <trkpt lat="47.50108" lon="6.75696">
        <ele>359</ele>
        <time>2016-12-11T11:07:24.999Z</time>
      </trkpt>
      <trkpt lat="47.5011" lon="6.75699">
        <ele>359</ele>
        <time>2016-12-11T11:07:25.999Z</time>
      </trkpt>
      <trkpt lat="47.50111" lon="6.75702">
        <ele>359</ele>
        <time>2016-12-11T11:07:26.999Z</time>
      </trkpt>
      <trkpt lat="47.50113" lon="6.75705">
        <ele>359</ele>
        <time>2016-12-11T11:07:27.999Z</time>
      </trkpt>
      <trkpt lat="47.50115" lon="6.75709">
        <ele>359</ele>
        <time>2016-12-11T11:07:28.999Z</time>
      </trkpt>
      <trkpt lat="47.50116" lon="6.75712">
        <ele>360</ele>
        <time>2016-12-11T11:07:29.999Z</time>
      </trkpt>
      <trkpt lat="47.50119" lon="6.75717">
        <ele>360</ele>
        <time>2016-12-11T11:07:31.999Z</time>
      </trkpt>
      <trkpt lat="47.5012" lon="6.75718">
        <ele>360</ele>
        <time>2016-12-11T11:07:32.999Z</time>
      </trkpt>
      <trkpt lat="47.50122" lon="6.7572">
        <ele>360</ele>
        <time>2016-12-11T11:07:33.999Z</time>
      </trkpt>
      <trkpt lat="47.50124" lon="6.75723">
        <ele>360</ele>
        <time>2016-12-11T11:07:34.999Z</time>
      </trkpt>
      <trkpt lat="47.50126" lon="6.75726">
        <ele>360</ele>
        <time>2016-12-11T11:07:35.999Z</time>
      </trkpt>
      <trkpt lat="47.50128" lon="6.75728">
        <ele>360</ele>
        <time>2016-12-11T11:07:36.999Z</time>
      </trkpt>
      <trkpt lat="47.50131" lon="6.75733">
        <ele>360</ele>
        <time>2016-12-11T11:07:38.999Z</time>
      </trkpt>
      <trkpt lat="47.50132" lon="6.75737">
        <ele>360</ele>
        <time>2016-12-11T11:07:39.999Z</time>
      </trkpt>
      <trkpt lat="47.50133" lon="6.75742">
        <ele>360</ele>
        <time>2016-12-11T11:07:41.999Z</time>
      </trkpt>
      <trkpt lat="47.50135" lon="6.75745">
        <ele>360</ele>
        <time>2016-12-11T11:07:42.999Z</time>
      </trkpt>
      <trkpt lat="47.50137" lon="6.75748">
        <ele>360</ele>
        <time>2016-12-11T11:07:43.999Z</time>
      </trkpt>
      <trkpt lat="47.50138" lon="6.7575">
        <ele>360</ele>
        <time>2016-12-11T11:07:44.999Z</time>
      </trkpt>
      <trkpt lat="47.5014" lon="6.75753">
        <ele>362</ele>
        <time>2016-12-11T11:07:45.999Z</time>
      </trkpt>
      <trkpt lat="47.50141" lon="6.75755">
        <ele>362</ele>
        <time>2016-12-11T11:07:46.999Z</time>
      </trkpt>
      <trkpt lat="47.50144" lon="6.75759">
        <ele>362</ele>
        <time>2016-12-11T11:07:48.999Z</time>
      </trkpt>
      <trkpt lat="47.50145" lon="6.7576">
        <ele>362</ele>
        <time>2016-12-11T11:07:49.999Z</time>
      </trkpt>
      <trkpt lat="47.50148" lon="6.75764">
        <ele>362</ele>
        <time>2016-12-11T11:07:51.999Z</time>
      </trkpt>
      <trkpt lat="47.50149" lon="6.75767">
        <ele>362</ele>
        <time>2016-12-11T11:07:52.999Z</time>
      </trkpt>
      <trkpt lat="47.50152" lon="6.75768">
        <ele>362</ele>
        <time>2016-12-11T11:07:53.999Z</time>
      </trkpt>
      <trkpt lat="47.50154" lon="6.7577">
        <ele>362</ele>
        <time>2016-12-11T11:07:54.999Z</time>
      </trkpt>
      <trkpt lat="47.50157" lon="6.75774">
        <ele>362</ele>
        <time>2016-12-11T11:07:56.999Z</time>
      </trkpt>
      <trkpt lat="47.50158" lon="6.75776">
        <ele>362</ele>
        <time>2016-12-11T11:07:57.999Z</time>
      </trkpt>
      <trkpt lat="47.5016" lon="6.75779">
        <ele>362</ele>
        <time>2016-12-11T11:07:58.999Z</time>
      </trkpt>
      <trkpt lat="47.50162" lon="6.75783">
        <ele>362</ele>
        <time>2016-12-11T11:07:59.999Z</time>
      </trkpt>
      <trkpt lat="47.50165" lon="6.75787">
        <ele>362</ele>
        <time>2016-12-11T11:08:01.999Z</time>
      </trkpt>
      <trkpt lat="47.50166" lon="6.75789">
        <ele>362</ele>
        <time>2016-12-11T11:08:02.999Z</time>
      </trkpt>
      <trkpt lat="47.50168" lon="6.75792">
        <ele>362</ele>
        <time>2016-12-11T11:08:04.999Z</time>
      </trkpt>
      <trkpt lat="47.50169" lon="6.75795">
        <ele>362</ele>
        <time>2016-12-11T11:08:05.999Z</time>
      </trkpt>
      <trkpt lat="47.50172" lon="6.758">
        <ele>362</ele>
        <time>2016-12-11T11:08:07.999Z</time>
      </trkpt>
      <trkpt lat="47.50174" lon="6.75803">
        <ele>362</ele>
        <time>2016-12-11T11:08:08.999Z</time>
      </trkpt>
      <trkpt lat="47.50175" lon="6.75805">
        <ele>362</ele>
        <time>2016-12-11T11:08:09.999Z</time>
      </trkpt>
      <trkpt lat="47.50177" lon="6.75808">
        <ele>362</ele>
        <time>2016-12-11T11:08:10.999Z</time>
      </trkpt>
      <trkpt lat="47.50178" lon="6.75812">
        <ele>362</ele>
        <time>2016-12-11T11:08:11.999Z</time>
      </trkpt>
      <trkpt lat="47.5018" lon="6.75814">
        <ele>362</ele>
        <time>2016-12-11T11:08:12.999Z</time>
      </trkpt>
      <trkpt lat="47.50181" lon="6.75817">
        <ele>362</ele>
        <time>2016-12-11T11:08:13.999Z</time>
      </trkpt>
      <trkpt lat="47.50183" lon="6.7582">
        <ele>362</ele>
        <time>2016-12-11T11:08:14.999Z</time>
      </trkpt>
      <trkpt lat="47.50184" lon="6.75822">
        <ele>362</ele>
        <time>2016-12-11T11:08:15.999Z</time>
      </trkpt>
      <trkpt lat="47.50186" lon="6.75825">
        <ele>362</ele>
        <time>2016-12-11T11:08:16.999Z</time>
      </trkpt>
      <trkpt lat="47.50188" lon="6.75829">
        <ele>362</ele>
        <time>2016-12-11T11:08:18.999Z</time>
      </trkpt>
      <trkpt lat="47.5019" lon="6.75831">
        <ele>362</ele>
        <time>2016-12-11T11:08:19.999Z</time>
      </trkpt>
      <trkpt lat="47.50191" lon="6.75833">
        <ele>363</ele>
        <time>2016-12-11T11:08:20.999Z</time>
      </trkpt>
      <trkpt lat="47.50192" lon="6.75836">
        <ele>363</ele>
        <time>2016-12-11T11:08:21.999Z</time>
      </trkpt>
      <trkpt lat="47.50194" lon="6.75839">
        <ele>364</ele>
        <time>2016-12-11T11:08:22.999Z</time>
      </trkpt>
      <trkpt lat="47.50195" lon="6.75842">
        <ele>364</ele>
        <time>2016-12-11T11:08:23.999Z</time>
      </trkpt>
      <trkpt lat="47.50196" lon="6.75845">
        <ele>364</ele>
        <time>2016-12-11T11:08:24.999Z</time>
      </trkpt>
      <trkpt lat="47.50197" lon="6.75848">
        <ele>364</ele>
        <time>2016-12-11T11:08:25.999Z</time>
      </trkpt>
      <trkpt lat="47.50199" lon="6.75854">
        <ele>364</ele>
        <time>2016-12-11T11:08:27.999Z</time>
      </trkpt>
      <trkpt lat="47.502" lon="6.75856">
        <ele>365</ele>
        <time>2016-12-11T11:08:28.999Z</time>
      </trkpt>
      <trkpt lat="47.50202" lon="6.75861">
        <ele>365</ele>
        <time>2016-12-11T11:08:30.999Z</time>
      </trkpt>
      <trkpt lat="47.50203" lon="6.75863">
        <ele>365</ele>
        <time>2016-12-11T11:08:31.999Z</time>
      </trkpt>
      <trkpt lat="47.50204" lon="6.75866">
        <ele>365</ele>
        <time>2016-12-11T11:08:32.999Z</time>
      </trkpt>
      <trkpt lat="47.50205" lon="6.75869">
        <ele>365</ele>
        <time>2016-12-11T11:08:33.999Z</time>
      </trkpt>
      <trkpt lat="47.50205" lon="6.75873">
        <ele>365</ele>
        <time>2016-12-11T11:08:34.999Z</time>
      </trkpt>
      <trkpt lat="47.50206" lon="6.75877">
        <ele>365</ele>
        <time>2016-12-11T11:08:35.999Z</time>
      </trkpt>
      <trkpt lat="47.50207" lon="6.7588">
        <ele>365</ele>
        <time>2016-12-11T11:08:36.999Z</time>
      </trkpt>
      <trkpt lat="47.50208" lon="6.75883">
        <ele>365</ele>
        <time>2016-12-11T11:08:37.999Z</time>
      </trkpt>
      <trkpt lat="47.50209" lon="6.75888">
        <ele>365</ele>
        <time>2016-12-11T11:08:39.999Z</time>
      </trkpt>
      <trkpt lat="47.50209" lon="6.75891">
        <ele>365</ele>
        <time>2016-12-11T11:08:40.999Z</time>
      </trkpt>
      <trkpt lat="47.50211" lon="6.75897">
        <ele>365</ele>
        <time>2016-12-11T11:08:42.999Z</time>
      </trkpt>
      <trkpt lat="47.50211" lon="6.75899">
        <ele>365</ele>
        <time>2016-12-11T11:08:43.999Z</time>
      </trkpt>
      <trkpt lat="47.50212" lon="6.75904">
        <ele>365</ele>
        <time>2016-12-11T11:08:45.999Z</time>
      </trkpt>
      <trkpt lat="47.50212" lon="6.75907">
        <ele>365</ele>
        <time>2016-12-11T11:08:46.999Z</time>
      </trkpt>
      <trkpt lat="47.50213" lon="6.75912">
        <ele>366</ele>
        <time>2016-12-11T11:08:48.999Z</time>
      </trkpt>
      <trkpt lat="47.50214" lon="6.75915">
        <ele>366</ele>
        <time>2016-12-11T11:08:49.999Z</time>
      </trkpt>
      <trkpt lat="47.50216" lon="6.75921">
        <ele>367</ele>
        <time>2016-12-11T11:08:51.999Z</time>
      </trkpt>
      <trkpt lat="47.50217" lon="6.75924">
        <ele>367</ele>
        <time>2016-12-11T11:08:52.999Z</time>
      </trkpt>
      <trkpt lat="47.50218" lon="6.7593">
        <ele>367</ele>
        <time>2016-12-11T11:08:54.999Z</time>
      </trkpt>
      <trkpt lat="47.50219" lon="6.75932">
        <ele>367</ele>
        <time>2016-12-11T11:08:55.999Z</time>
      </trkpt>
      <trkpt lat="47.50221" lon="6.75937">
        <ele>367</ele>
        <time>2016-12-11T11:08:57.999Z</time>
      </trkpt>
      <trkpt lat="47.50221" lon="6.75939">
        <ele>368</ele>
        <time>2016-12-11T11:08:58.999Z</time>
      </trkpt>
      <trkpt lat="47.50223" lon="6.75943">
        <ele>368</ele>
        <time>2016-12-11T11:09:00.999Z</time>
      </trkpt>
      <trkpt lat="47.50224" lon="6.75947">
        <ele>368</ele>
        <time>2016-12-11T11:09:01.999Z</time>
      </trkpt>
      <trkpt lat="47.50225" lon="6.7595">
        <ele>368</ele>
        <time>2016-12-11T11:09:02.999Z</time>
      </trkpt>
      <trkpt lat="47.50225" lon="6.75954">
        <ele>368</ele>
        <time>2016-12-11T11:09:03.999Z</time>
      </trkpt>
      <trkpt lat="47.50226" lon="6.75959">
        <ele>368</ele>
        <time>2016-12-11T11:09:05.999Z</time>
      </trkpt>
      <trkpt lat="47.50226" lon="6.75961">
        <ele>368</ele>
        <time>2016-12-11T11:09:06.999Z</time>
      </trkpt>
      <trkpt lat="47.50227" lon="6.75966">
        <ele>368</ele>
        <time>2016-12-11T11:09:08.999Z</time>
      </trkpt>
      <trkpt lat="47.50228" lon="6.75968">
        <ele>368</ele>
        <time>2016-12-11T11:09:09.999Z</time>
      </trkpt>
      <trkpt lat="47.50229" lon="6.75972">
        <ele>368</ele>
        <time>2016-12-11T11:09:11.999Z</time>
      </trkpt>
      <trkpt lat="47.50229" lon="6.75975">
        <ele>368</ele>
        <time>2016-12-11T11:09:12.999Z</time>
      </trkpt>
      <trkpt lat="47.5023" lon="6.7598">
        <ele>368</ele>
        <time>2016-12-11T11:09:14.999Z</time>
      </trkpt>
      <trkpt lat="47.50231" lon="6.75982">
        <ele>368</ele>
        <time>2016-12-11T11:09:15.999Z</time>
      </trkpt>
      <trkpt lat="47.50232" lon="6.75986">
        <ele>368</ele>
        <time>2016-12-11T11:09:31.999Z</time>
      </trkpt>
      <trkpt lat="47.50226" lon="6.75998">
        <ele>369</ele>
        <time>2016-12-11T11:09:32.999Z</time>
      </trkpt>
      <trkpt lat="47.50226" lon="6.75998">
        <ele>369</ele>
        <time>2016-12-11T11:09:40.999Z</time>
      </trkpt>
      <trkpt lat="47.50218" lon="6.76002">
        <ele>371</ele>
        <time>2016-12-11T11:09:41.999Z</time>
      </trkpt>
      <trkpt lat="47.50214" lon="6.76003">
        <ele>371</ele>
        <time>2016-12-11T11:09:44.999Z</time>
      </trkpt>
      <trkpt lat="47.50213" lon="6.76004">
        <ele>372</ele>
        <time>2016-12-11T11:09:45.999Z</time>
      </trkpt>
      <trkpt lat="47.50209" lon="6.76005">
        <ele>372</ele>
        <time>2016-12-11T11:09:48.999Z</time>
      </trkpt>
      <trkpt lat="47.50208" lon="6.76005">
        <ele>372</ele>
        <time>2016-12-11T11:09:49.999Z</time>
      </trkpt>
      <trkpt lat="47.50203" lon="6.76005">
        <ele>372</ele>
        <time>2016-12-11T11:09:53.999Z</time>
      </trkpt>
      <trkpt lat="47.50202" lon="6.76006">
        <ele>372</ele>
        <time>2016-12-11T11:09:54.999Z</time>
      </trkpt>
      <trkpt lat="47.50199" lon="6.76008">
        <ele>372</ele>
        <time>2016-12-11T11:09:58.999Z</time>
      </trkpt>
      <trkpt lat="47.50198" lon="6.76009">
        <ele>372</ele>
        <time>2016-12-11T11:09:59.999Z</time>
      </trkpt>
      <trkpt lat="47.50194" lon="6.7601">
        <ele>372</ele>
        <time>2016-12-11T11:10:02.999Z</time>
      </trkpt>
      <trkpt lat="47.50193" lon="6.76011">
        <ele>372</ele>
        <time>2016-12-11T11:10:03.999Z</time>
      </trkpt>
      <trkpt lat="47.5019" lon="6.76011">
        <ele>372</ele>
        <time>2016-12-11T11:10:06.999Z</time>
      </trkpt>
      <trkpt lat="47.50188" lon="6.76011">
        <ele>372</ele>
        <time>2016-12-11T11:10:07.999Z</time>
      </trkpt>
      <trkpt lat="47.50184" lon="6.76011">
        <ele>372</ele>
        <time>2016-12-11T11:10:12.999Z</time>
      </trkpt>
      <trkpt lat="47.50183" lon="6.76011">
        <ele>372</ele>
        <time>2016-12-11T11:10:13.999Z</time>
      </trkpt>
      <trkpt lat="47.50179" lon="6.76013">
        <ele>372</ele>
        <time>2016-12-11T11:10:18.999Z</time>
      </trkpt>
      <trkpt lat="47.50178" lon="6.76013">
        <ele>372</ele>
        <time>2016-12-11T11:10:19.999Z</time>
      </trkpt>
      <trkpt lat="47.50175" lon="6.76014">
        <ele>372</ele>
        <time>2016-12-11T11:10:22.999Z</time>
      </trkpt>
      <trkpt lat="47.50173" lon="6.76013">
        <ele>372</ele>
        <time>2016-12-11T11:10:23.999Z</time>
      </trkpt>
      <trkpt lat="47.50169" lon="6.76014">
        <ele>372</ele>
        <time>2016-12-11T11:10:26.999Z</time>
      </trkpt>
      <trkpt lat="47.50168" lon="6.76015">
        <ele>372</ele>
        <time>2016-12-11T11:10:27.999Z</time>
      </trkpt>
      <trkpt lat="47.50164" lon="6.76015">
        <ele>374</ele>
        <time>2016-12-11T11:10:30.999Z</time>
      </trkpt>
      <trkpt lat="47.50162" lon="6.76016">
        <ele>374</ele>
        <time>2016-12-11T11:10:31.999Z</time>
      </trkpt>
      <trkpt lat="47.50159" lon="6.76018">
        <ele>375</ele>
        <time>2016-12-11T11:10:33.999Z</time>
      </trkpt>
      <trkpt lat="47.50157" lon="6.76018">
        <ele>375</ele>
        <time>2016-12-11T11:10:34.999Z</time>
      </trkpt>
      <trkpt lat="47.50154" lon="6.7602">
        <ele>375</ele>
        <time>2016-12-11T11:10:40.999Z</time>
      </trkpt>
      <trkpt lat="47.50153" lon="6.7602">
        <ele>376</ele>
        <time>2016-12-11T11:10:41.999Z</time>
      </trkpt>
      <trkpt lat="47.50148" lon="6.76022">
        <ele>376</ele>
        <time>2016-12-11T11:10:46.999Z</time>
      </trkpt>
      <trkpt lat="47.50148" lon="6.76022">
        <ele>376</ele>
        <time>2016-12-11T11:10:47.999Z</time>
      </trkpt>
      <trkpt lat="47.50144" lon="6.76022">
        <ele>376</ele>
        <time>2016-12-11T11:10:51.999Z</time>
      </trkpt>
      <trkpt lat="47.50142" lon="6.76022">
        <ele>376</ele>
        <time>2016-12-11T11:10:52.999Z</time>
      </trkpt>
      <trkpt lat="47.50138" lon="6.76024">
        <ele>377</ele>
        <time>2016-12-11T11:10:57.999Z</time>
      </trkpt>
      <trkpt lat="47.50138" lon="6.76025">
        <ele>377</ele>
        <time>2016-12-11T11:10:58.999Z</time>
      </trkpt>
      <trkpt lat="47.50134" lon="6.76028">
        <ele>377</ele>
        <time>2016-12-11T11:11:02.999Z</time>
      </trkpt>
      <trkpt lat="47.50133" lon="6.76028">
        <ele>377</ele>
        <time>2016-12-11T11:11:03.999Z</time>
      </trkpt>
      <trkpt lat="47.5013" lon="6.76029">
        <ele>378</ele>
        <time>2016-12-11T11:11:05.999Z</time>
      </trkpt>
      <trkpt lat="47.50128" lon="6.76031">
        <ele>378</ele>
        <time>2016-12-11T11:11:06.999Z</time>
      </trkpt>
      <trkpt lat="47.50124" lon="6.76033">
        <ele>378</ele>
        <time>2016-12-11T11:11:09.999Z</time>
      </trkpt>
      <trkpt lat="47.50124" lon="6.76033">
        <ele>378</ele>
        <time>2016-12-11T11:11:10.999Z</time>
      </trkpt>
      <trkpt lat="47.5012" lon="6.76033">
        <ele>379</ele>
        <time>2016-12-11T11:11:13.999Z</time>
      </trkpt>
      <trkpt lat="47.50118" lon="6.76033">
        <ele>379</ele>
        <time>2016-12-11T11:11:14.999Z</time>
      </trkpt>
      <trkpt lat="47.50115" lon="6.76034">
        <ele>379</ele>
        <time>2016-12-11T11:11:18.999Z</time>
      </trkpt>
      <trkpt lat="47.50114" lon="6.76034">
        <ele>379</ele>
        <time>2016-12-11T11:11:19.999Z</time>
      </trkpt>
      <trkpt lat="47.5011" lon="6.76034">
        <ele>379</ele>
        <time>2016-12-11T11:11:23.999Z</time>
      </trkpt>
      <trkpt lat="47.50109" lon="6.76034">
        <ele>379</ele>
        <time>2016-12-11T11:11:24.999Z</time>
      </trkpt>
      <trkpt lat="47.50104" lon="6.76036">
        <ele>380</ele>
        <time>2016-12-11T11:11:30.999Z</time>
      </trkpt>
      <trkpt lat="47.50104" lon="6.76036">
        <ele>380</ele>
        <time>2016-12-11T11:11:31.999Z</time>
      </trkpt>
      <trkpt lat="47.50101" lon="6.7604">
        <ele>380</ele>
        <time>2016-12-11T11:11:35.999Z</time>
      </trkpt>
      <trkpt lat="47.50101" lon="6.76042">
        <ele>380</ele>
        <time>2016-12-11T11:11:36.999Z</time>
      </trkpt>
      <trkpt lat="47.50102" lon="6.76048">
        <ele>380</ele>
        <time>2016-12-11T11:11:39.999Z</time>
      </trkpt>
      <trkpt lat="47.50102" lon="6.76049">
        <ele>381</ele>
        <time>2016-12-11T11:11:40.999Z</time>
      </trkpt>
      <trkpt lat="47.50103" lon="6.76055">
        <ele>381</ele>
        <time>2016-12-11T11:11:43.999Z</time>
      </trkpt>
      <trkpt lat="47.50103" lon="6.76057">
        <ele>381</ele>
        <time>2016-12-11T11:11:44.999Z</time>
      </trkpt>
      <trkpt lat="47.50104" lon="6.7606">
        <ele>381</ele>
        <time>2016-12-11T11:11:45.999Z</time>
      </trkpt>
      <trkpt lat="47.50105" lon="6.76065">
        <ele>382</ele>
        <time>2016-12-11T11:11:46.999Z</time>
      </trkpt>
      <trkpt lat="47.50107" lon="6.76069">
        <ele>382</ele>
        <time>2016-12-11T11:11:48.999Z</time>
      </trkpt>
      <trkpt lat="47.50107" lon="6.76071">
        <ele>382</ele>
        <time>2016-12-11T11:11:49.999Z</time>
      </trkpt>
      <trkpt lat="47.50108" lon="6.76076">
        <ele>382</ele>
        <time>2016-12-11T11:11:51.999Z</time>
      </trkpt>
      <trkpt lat="47.50108" lon="6.76079">
        <ele>382</ele>
        <time>2016-12-11T11:11:52.999Z</time>
      </trkpt>
      <trkpt lat="47.50109" lon="6.76084">
        <ele>385</ele>
        <time>2016-12-11T11:11:54.999Z</time>
      </trkpt>
      <trkpt lat="47.5011" lon="6.76085">
        <ele>385</ele>
        <time>2016-12-11T11:11:55.999Z</time>
      </trkpt>
      <trkpt lat="47.50112" lon="6.76091">
        <ele>385</ele>
        <time>2016-12-11T11:11:58.999Z</time>
      </trkpt>
      <trkpt lat="47.50112" lon="6.76093">
        <ele>385</ele>
        <time>2016-12-11T11:11:59.999Z</time>
      </trkpt>
      <trkpt lat="47.50111" lon="6.76099">
        <ele>385</ele>
        <time>2016-12-11T11:12:01.999Z</time>
      </trkpt>
      <trkpt lat="47.50111" lon="6.76103">
        <ele>385</ele>
        <time>2016-12-11T11:12:02.999Z</time>
      </trkpt>
      <trkpt lat="47.50112" lon="6.76106">
        <ele>385</ele>
        <time>2016-12-11T11:12:03.999Z</time>
      </trkpt>
      <trkpt lat="47.50112" lon="6.76111">
        <ele>385</ele>
        <time>2016-12-11T11:12:04.999Z</time>
      </trkpt>
      <trkpt lat="47.50115" lon="6.76116">
        <ele>385</ele>
        <time>2016-12-11T11:12:05.999Z</time>
      </trkpt>
      <trkpt lat="47.50117" lon="6.76118">
        <ele>385</ele>
        <time>2016-12-11T11:12:06.999Z</time>
      </trkpt>
      <trkpt lat="47.50119" lon="6.76121">
        <ele>385</ele>
        <time>2016-12-11T11:12:07.999Z</time>
      </trkpt>
      <trkpt lat="47.5012" lon="6.76125">
        <ele>384</ele>
        <time>2016-12-11T11:12:09.999Z</time>
      </trkpt>
      <trkpt lat="47.50121" lon="6.76127">
        <ele>384</ele>
        <time>2016-12-11T11:12:10.999Z</time>
      </trkpt>
      <trkpt lat="47.50122" lon="6.76133">
        <ele>385</ele>
        <time>2016-12-11T11:12:13.999Z</time>
      </trkpt>
      <trkpt lat="47.50122" lon="6.76134">
        <ele>385</ele>
        <time>2016-12-11T11:12:14.999Z</time>
      </trkpt>
      <trkpt lat="47.50124" lon="6.7614">
        <ele>385</ele>
        <time>2016-12-11T11:12:19.999Z</time>
      </trkpt>
      <trkpt lat="47.50126" lon="6.76145">
        <ele>384</ele>
        <time>2016-12-11T11:12:20.999Z</time>
      </trkpt>
      <trkpt lat="47.50127" lon="6.76149">
        <ele>384</ele>
        <time>2016-12-11T11:12:21.999Z</time>
      </trkpt>
      <trkpt lat="47.50127" lon="6.76153">
        <ele>384</ele>
        <time>2016-12-11T11:12:22.999Z</time>
      </trkpt>
      <trkpt lat="47.50128" lon="6.76159">
        <ele>384</ele>
        <time>2016-12-11T11:12:24.999Z</time>
      </trkpt>
      <trkpt lat="47.50129" lon="6.76162">
        <ele>384</ele>
        <time>2016-12-11T11:12:25.999Z</time>
      </trkpt>
      <trkpt lat="47.5013" lon="6.76167">
        <ele>388</ele>
        <time>2016-12-11T11:12:27.999Z</time>
      </trkpt>
      <trkpt lat="47.5013" lon="6.76169">
        <ele>388</ele>
        <time>2016-12-11T11:12:28.999Z</time>
      </trkpt>
      <trkpt lat="47.50131" lon="6.76175">
        <ele>388</ele>
        <time>2016-12-11T11:12:30.999Z</time>
      </trkpt>
      <trkpt lat="47.5013" lon="6.76179">
        <ele>388</ele>
        <time>2016-12-11T11:12:31.999Z</time>
      </trkpt>
      <trkpt lat="47.50131" lon="6.76186">
        <ele>389</ele>
        <time>2016-12-11T11:12:32.999Z</time>
      </trkpt>
      <trkpt lat="47.50131" lon="6.76189">
        <ele>389</ele>
        <time>2016-12-11T11:12:33.999Z</time>
      </trkpt>
      <trkpt lat="47.50131" lon="6.76194">
        <ele>389</ele>
        <time>2016-12-11T11:12:34.999Z</time>
      </trkpt>
      <trkpt lat="47.50132" lon="6.762">
        <ele>389</ele>
        <time>2016-12-11T11:12:35.999Z</time>
      </trkpt>
      <trkpt lat="47.50132" lon="6.76211">
        <ele>390</ele>
        <time>2016-12-11T11:12:36.999Z</time>
      </trkpt>
      <trkpt lat="47.50133" lon="6.76216">
        <ele>390</ele>
        <time>2016-12-11T11:12:38.999Z</time>
      </trkpt>
      <trkpt lat="47.50133" lon="6.76219">
        <ele>390</ele>
        <time>2016-12-11T11:12:39.999Z</time>
      </trkpt>
      <trkpt lat="47.50134" lon="6.76225">
        <ele>390</ele>
        <time>2016-12-11T11:12:41.999Z</time>
      </trkpt>
      <trkpt lat="47.50134" lon="6.76228">
        <ele>390</ele>
        <time>2016-12-11T11:12:42.999Z</time>
      </trkpt>
      <trkpt lat="47.50135" lon="6.76231">
        <ele>390</ele>
        <time>2016-12-11T11:12:43.999Z</time>
      </trkpt>
      <trkpt lat="47.50136" lon="6.76238">
        <ele>390</ele>
        <time>2016-12-11T11:12:44.999Z</time>
      </trkpt>
      <trkpt lat="47.50137" lon="6.7624">
        <ele>390</ele>
        <time>2016-12-11T11:12:45.999Z</time>
      </trkpt>
      <trkpt lat="47.50138" lon="6.76245">
        <ele>390</ele>
        <time>2016-12-11T11:12:46.999Z</time>
      </trkpt>
      <trkpt lat="47.5014" lon="6.7625">
        <ele>394</ele>
        <time>2016-12-11T11:12:48.999Z</time>
      </trkpt>
      <trkpt lat="47.5014" lon="6.76254">
        <ele>394</ele>
        <time>2016-12-11T11:12:49.999Z</time>
      </trkpt>
      <trkpt lat="47.50141" lon="6.7626">
        <ele>394</ele>
        <time>2016-12-11T11:12:51.999Z</time>
      </trkpt>
      <trkpt lat="47.50141" lon="6.76263">
        <ele>394</ele>
        <time>2016-12-11T11:12:52.999Z</time>
      </trkpt>
      <trkpt lat="47.50142" lon="6.76269">
        <ele>394</ele>
        <time>2016-12-11T11:12:54.999Z</time>
      </trkpt>
      <trkpt lat="47.50143" lon="6.76269">
        <ele>394</ele>
        <time>2016-12-11T11:12:55.999Z</time>
      </trkpt>
      <trkpt lat="47.50144" lon="6.76272">
        <ele>394</ele>
        <time>2016-12-11T11:12:57.999Z</time>
      </trkpt>
      <trkpt lat="47.50144" lon="6.76276">
        <ele>394</ele>
        <time>2016-12-11T11:12:58.999Z</time>
      </trkpt>
      <trkpt lat="47.50146" lon="6.76281">
        <ele>395</ele>
        <time>2016-12-11T11:13:00.999Z</time>
      </trkpt>
      <trkpt lat="47.50146" lon="6.76284">
        <ele>395</ele>
        <time>2016-12-11T11:13:01.999Z</time>
      </trkpt>
      <trkpt lat="47.50147" lon="6.76287">
        <ele>395</ele>
        <time>2016-12-11T11:13:02.999Z</time>
      </trkpt>
      <trkpt lat="47.50148" lon="6.7629">
        <ele>395</ele>
        <time>2016-12-11T11:13:03.999Z</time>
      </trkpt>
      <trkpt lat="47.50149" lon="6.76294">
        <ele>395</ele>
        <time>2016-12-11T11:13:04.999Z</time>
      </trkpt>
      <trkpt lat="47.50149" lon="6.76298">
        <ele>395</ele>
        <time>2016-12-11T11:13:05.999Z</time>
      </trkpt>
      <trkpt lat="47.50148" lon="6.76302">
        <ele>395</ele>
        <time>2016-12-11T11:13:06.999Z</time>
      </trkpt>
      <trkpt lat="47.50148" lon="6.76305">
        <ele>395</ele>
        <time>2016-12-11T11:13:07.999Z</time>
      </trkpt>
      <trkpt lat="47.50149" lon="6.76312">
        <ele>395</ele>
        <time>2016-12-11T11:13:09.999Z</time>
      </trkpt>
      <trkpt lat="47.50151" lon="6.76315">
        <ele>395</ele>
        <time>2016-12-11T11:13:10.999Z</time>
      </trkpt>
      <trkpt lat="47.50153" lon="6.76318">
        <ele>395</ele>
        <time>2016-12-11T11:13:11.999Z</time>
      </trkpt>
      <trkpt lat="47.50154" lon="6.76321">
        <ele>394</ele>
        <time>2016-12-11T11:13:12.999Z</time>
      </trkpt>
      <trkpt lat="47.50155" lon="6.76324">
        <ele>394</ele>
        <time>2016-12-11T11:13:13.999Z</time>
      </trkpt>
      <trkpt lat="47.50157" lon="6.76327">
        <ele>393</ele>
        <time>2016-12-11T11:13:14.999Z</time>
      </trkpt>
      <trkpt lat="47.50159" lon="6.76331">
        <ele>393</ele>
        <time>2016-12-11T11:13:16.999Z</time>
      </trkpt>
      <trkpt lat="47.5016" lon="6.76334">
        <ele>394</ele>
        <time>2016-12-11T11:13:17.999Z</time>
      </trkpt>
      <trkpt lat="47.50161" lon="6.76338">
        <ele>394</ele>
        <time>2016-12-11T11:13:19.999Z</time>
      </trkpt>
      <trkpt lat="47.50163" lon="6.7634">
        <ele>394</ele>
        <time>2016-12-11T11:13:20.999Z</time>
      </trkpt>
      <trkpt lat="47.50164" lon="6.76344">
        <ele>395</ele>
        <time>2016-12-11T11:13:21.999Z</time>
      </trkpt>
      <trkpt lat="47.50165" lon="6.76348">
        <ele>396</ele>
        <time>2016-12-11T11:13:22.999Z</time>
      </trkpt>
      <trkpt lat="47.50166" lon="6.76351">
        <ele>397</ele>
        <time>2016-12-11T11:13:23.999Z</time>
      </trkpt>
      <trkpt lat="47.50167" lon="6.76355">
        <ele>390</ele>
        <time>2016-12-11T11:13:24.999Z</time>
      </trkpt>
      <trkpt lat="47.50169" lon="6.7636">
        <ele>391</ele>
        <time>2016-12-11T11:13:25.999Z</time>
      </trkpt>
      <trkpt lat="47.50171" lon="6.76364">
        <ele>391</ele>
        <time>2016-12-11T11:13:26.999Z</time>
      </trkpt>
      <trkpt lat="47.50173" lon="6.76367">
        <ele>391</ele>
        <time>2016-12-11T11:13:27.999Z</time>
      </trkpt>
      <trkpt lat="47.50175" lon="6.7637">
        <ele>391</ele>
        <time>2016-12-11T11:13:28.999Z</time>
      </trkpt>
      <trkpt lat="47.50176" lon="6.76373">
        <ele>391</ele>
        <time>2016-12-11T11:13:29.999Z</time>
      </trkpt>
      <trkpt lat="47.50178" lon="6.76376">
        <ele>391</ele>
        <time>2016-12-11T11:13:30.999Z</time>
      </trkpt>
      <trkpt lat="47.5018" lon="6.76379">
        <ele>391</ele>
        <time>2016-12-11T11:13:31.999Z</time>
      </trkpt>
      <trkpt lat="47.50182" lon="6.76382">
        <ele>391</ele>
        <time>2016-12-11T11:13:32.999Z</time>
      </trkpt>
      <trkpt lat="47.50184" lon="6.76384">
        <ele>391</ele>
        <time>2016-12-11T11:13:33.999Z</time>
      </trkpt>
      <trkpt lat="47.50185" lon="6.76388">
        <ele>391</ele>
        <time>2016-12-11T11:13:34.999Z</time>
      </trkpt>
      <trkpt lat="47.50186" lon="6.76392">
        <ele>392</ele>
        <time>2016-12-11T11:13:35.999Z</time>
      </trkpt>
      <trkpt lat="47.50187" lon="6.76395">
        <ele>392</ele>
        <time>2016-12-11T11:13:36.999Z</time>
      </trkpt>
      <trkpt lat="47.50189" lon="6.764">
        <ele>392</ele>
        <time>2016-12-11T11:13:38.999Z</time>
      </trkpt>
      <trkpt lat="47.50191" lon="6.76403">
        <ele>392</ele>
        <time>2016-12-11T11:13:39.999Z</time>
      </trkpt>
      <trkpt lat="47.50192" lon="6.76407">
        <ele>392</ele>
        <time>2016-12-11T11:13:40.999Z</time>
      </trkpt>
      <trkpt lat="47.50193" lon="6.7641">
        <ele>392</ele>
        <time>2016-12-11T11:13:41.999Z</time>
      </trkpt>
      <trkpt lat="47.50194" lon="6.76414">
        <ele>392</ele>
        <time>2016-12-11T11:13:42.999Z</time>
      </trkpt>
      <trkpt lat="47.50195" lon="6.76419">
        <ele>396</ele>
        <time>2016-12-11T11:13:43.999Z</time>
      </trkpt>
      <trkpt lat="47.50195" lon="6.76425">
        <ele>396</ele>
        <time>2016-12-11T11:13:44.999Z</time>
      </trkpt>
      <trkpt lat="47.50195" lon="6.76432">
        <ele>396</ele>
        <time>2016-12-11T11:13:45.999Z</time>
      </trkpt>
      <trkpt lat="47.50195" lon="6.76439">
        <ele>396</ele>
        <time>2016-12-11T11:13:46.999Z</time>
      </trkpt>
      <trkpt lat="47.50196" lon="6.76444">
        <ele>396</ele>
        <time>2016-12-11T11:13:47.999Z</time>
      </trkpt>
      <trkpt lat="47.50196" lon="6.76449">
        <ele>396</ele>
        <time>2016-12-11T11:13:48.999Z</time>
      </trkpt>
      <trkpt lat="47.50197" lon="6.76455">
        <ele>396</ele>
        <time>2016-12-11T11:13:49.999Z</time>
      </trkpt>
      <trkpt lat="47.50197" lon="6.76459">
        <ele>396</ele>
        <time>2016-12-11T11:13:50.999Z</time>
      </trkpt>
      <trkpt lat="47.50198" lon="6.76463">
        <ele>396</ele>
        <time>2016-12-11T11:13:51.999Z</time>
      </trkpt>
      <trkpt lat="47.502" lon="6.76469">
        <ele>397</ele>
        <time>2016-12-11T11:13:54.999Z</time>
      </trkpt>
      <trkpt lat="47.50203" lon="6.76476">
        <ele>397</ele>
        <time>2016-12-11T11:13:55.999Z</time>
      </trkpt>
      <trkpt lat="47.50205" lon="6.7648">
        <ele>397</ele>
        <time>2016-12-11T11:13:56.999Z</time>
      </trkpt>
      <trkpt lat="47.50206" lon="6.76483">
        <ele>396</ele>
        <time>2016-12-11T11:13:57.999Z</time>
      </trkpt>
      <trkpt lat="47.50208" lon="6.76486">
        <ele>396</ele>
        <time>2016-12-11T11:13:59.999Z</time>
      </trkpt>
      <trkpt lat="47.50209" lon="6.76489">
        <ele>396</ele>
        <time>2016-12-11T11:14:00.999Z</time>
      </trkpt>
      <trkpt lat="47.50212" lon="6.76493">
        <ele>396</ele>
        <time>2016-12-11T11:14:02.999Z</time>
      </trkpt>
      <trkpt lat="47.50214" lon="6.76494">
        <ele>396</ele>
        <time>2016-12-11T11:14:03.999Z</time>
      </trkpt>
      <trkpt lat="47.50216" lon="6.76496">
        <ele>396</ele>
        <time>2016-12-11T11:14:04.999Z</time>
      </trkpt>
      <trkpt lat="47.50217" lon="6.76499">
        <ele>396</ele>
        <time>2016-12-11T11:14:05.999Z</time>
      </trkpt>
      <trkpt lat="47.50219" lon="6.76504">
        <ele>399</ele>
        <time>2016-12-11T11:14:07.999Z</time>
      </trkpt>
      <trkpt lat="47.50219" lon="6.76507">
        <ele>399</ele>
        <time>2016-12-11T11:14:08.999Z</time>
      </trkpt>
      <trkpt lat="47.50221" lon="6.76512">
        <ele>399</ele>
        <time>2016-12-11T11:14:10.999Z</time>
      </trkpt>
      <trkpt lat="47.50221" lon="6.76513">
        <ele>399</ele>
        <time>2016-12-11T11:14:11.999Z</time>
      </trkpt>
      <trkpt lat="47.50222" lon="6.76517">
        <ele>399</ele>
        <time>2016-12-11T11:14:13.999Z</time>
      </trkpt>
      <trkpt lat="47.50222" lon="6.7652">
        <ele>399</ele>
        <time>2016-12-11T11:14:14.999Z</time>
      </trkpt>
      <trkpt lat="47.50223" lon="6.76525">
        <ele>399</ele>
        <time>2016-12-11T11:14:16.999Z</time>
      </trkpt>
      <trkpt lat="47.50224" lon="6.76529">
        <ele>399</ele>
        <time>2016-12-11T11:14:17.999Z</time>
      </trkpt>
      <trkpt lat="47.50225" lon="6.76532">
        <ele>399</ele>
        <time>2016-12-11T11:14:18.999Z</time>
      </trkpt>
      <trkpt lat="47.50226" lon="6.76536">
        <ele>399</ele>
        <time>2016-12-11T11:14:19.999Z</time>
      </trkpt>
      <trkpt lat="47.50227" lon="6.76539">
        <ele>399</ele>
        <time>2016-12-11T11:14:20.999Z</time>
      </trkpt>
      <trkpt lat="47.50228" lon="6.76542">
        <ele>399</ele>
        <time>2016-12-11T11:14:21.999Z</time>
      </trkpt>
      <trkpt lat="47.50229" lon="6.76546">
        <ele>400</ele>
        <time>2016-12-11T11:14:23.999Z</time>
      </trkpt>
      <trkpt lat="47.50228" lon="6.7655">
        <ele>400</ele>
        <time>2016-12-11T11:14:24.999Z</time>
      </trkpt>
      <trkpt lat="47.50226" lon="6.76554">
        <ele>400</ele>
        <time>2016-12-11T11:14:25.999Z</time>
      </trkpt>
      <trkpt lat="47.50224" lon="6.76557">
        <ele>400</ele>
        <time>2016-12-11T11:14:26.999Z</time>
      </trkpt>
      <trkpt lat="47.50221" lon="6.76562">
        <ele>400</ele>
        <time>2016-12-11T11:14:28.999Z</time>
      </trkpt>
      <trkpt lat="47.5022" lon="6.76563">
        <ele>400</ele>
        <time>2016-12-11T11:14:29.999Z</time>
      </trkpt>
      <trkpt lat="47.50216" lon="6.76565">
        <ele>401</ele>
        <time>2016-12-11T11:14:31.999Z</time>
      </trkpt>
      <trkpt lat="47.50214" lon="6.76567">
        <ele>401</ele>
        <time>2016-12-11T11:14:32.999Z</time>
      </trkpt>
      <trkpt lat="47.50212" lon="6.76567">
        <ele>401</ele>
        <time>2016-12-11T11:14:33.999Z</time>
      </trkpt>
      <trkpt lat="47.50209" lon="6.76568">
        <ele>401</ele>
        <time>2016-12-11T11:14:34.999Z</time>
      </trkpt>
      <trkpt lat="47.50207" lon="6.76569">
        <ele>401</ele>
        <time>2016-12-11T11:14:35.999Z</time>
      </trkpt>
      <trkpt lat="47.50204" lon="6.76569">
        <ele>402</ele>
        <time>2016-12-11T11:14:36.999Z</time>
      </trkpt>
      <trkpt lat="47.50202" lon="6.7657">
        <ele>402</ele>
        <time>2016-12-11T11:14:37.999Z</time>
      </trkpt>
      <trkpt lat="47.50199" lon="6.76569">
        <ele>402</ele>
        <time>2016-12-11T11:14:38.999Z</time>
      </trkpt>
      <trkpt lat="47.50195" lon="6.7657">
        <ele>402</ele>
        <time>2016-12-11T11:14:41.999Z</time>
      </trkpt>
      <trkpt lat="47.50194" lon="6.76571">
        <ele>403</ele>
        <time>2016-12-11T11:14:42.999Z</time>
      </trkpt>
      <trkpt lat="47.50192" lon="6.76576">
        <ele>403</ele>
        <time>2016-12-11T11:14:47.999Z</time>
      </trkpt>
      <trkpt lat="47.50192" lon="6.76578">
        <ele>403</ele>
        <time>2016-12-11T11:14:48.999Z</time>
      </trkpt>
      <trkpt lat="47.50193" lon="6.76583">
        <ele>403</ele>
        <time>2016-12-11T11:14:50.999Z</time>
      </trkpt>
      <trkpt lat="47.50194" lon="6.76585">
        <ele>403</ele>
        <time>2016-12-11T11:14:51.999Z</time>
      </trkpt>
      <trkpt lat="47.50194" lon="6.76591">
        <ele>403</ele>
        <time>2016-12-11T11:14:53.999Z</time>
      </trkpt>
      <trkpt lat="47.50194" lon="6.76594">
        <ele>403</ele>
        <time>2016-12-11T11:14:54.999Z</time>
      </trkpt>
      <trkpt lat="47.50194" lon="6.766">
        <ele>403</ele>
        <time>2016-12-11T11:14:56.999Z</time>
      </trkpt>
      <trkpt lat="47.50195" lon="6.76603">
        <ele>403</ele>
        <time>2016-12-11T11:14:57.999Z</time>
      </trkpt>
      <trkpt lat="47.50196" lon="6.76607">
        <ele>403</ele>
        <time>2016-12-11T11:14:58.999Z</time>
      </trkpt>
      <trkpt lat="47.50197" lon="6.76611">
        <ele>403</ele>
        <time>2016-12-11T11:14:59.999Z</time>
      </trkpt>
      <trkpt lat="47.50198" lon="6.76615">
        <ele>403</ele>
        <time>2016-12-11T11:15:00.999Z</time>
      </trkpt>
      <trkpt lat="47.50199" lon="6.76618">
        <ele>402</ele>
        <time>2016-12-11T11:15:01.999Z</time>
      </trkpt>
      <trkpt lat="47.50201" lon="6.76623">
        <ele>402</ele>
        <time>2016-12-11T11:15:03.999Z</time>
      </trkpt>
      <trkpt lat="47.50201" lon="6.76626">
        <ele>402</ele>
        <time>2016-12-11T11:15:04.999Z</time>
      </trkpt>
      <trkpt lat="47.50202" lon="6.76629">
        <ele>402</ele>
        <time>2016-12-11T11:15:05.999Z</time>
      </trkpt>
      <trkpt lat="47.50203" lon="6.76632">
        <ele>402</ele>
        <time>2016-12-11T11:15:06.999Z</time>
      </trkpt>
      <trkpt lat="47.50205" lon="6.76636">
        <ele>402</ele>
        <time>2016-12-11T11:15:07.999Z</time>
      </trkpt>
      <trkpt lat="47.50205" lon="6.76638">
        <ele>402</ele>
        <time>2016-12-11T11:15:08.999Z</time>
      </trkpt>
      <trkpt lat="47.50208" lon="6.76644">
        <ele>402</ele>
        <time>2016-12-11T11:15:10.999Z</time>
      </trkpt>
      <trkpt lat="47.50208" lon="6.76647">
        <ele>402</ele>
        <time>2016-12-11T11:15:11.999Z</time>
      </trkpt>
      <trkpt lat="47.5021" lon="6.76652">
        <ele>402</ele>
        <time>2016-12-11T11:15:13.999Z</time>
      </trkpt>
      <trkpt lat="47.50212" lon="6.76655">
        <ele>402</ele>
        <time>2016-12-11T11:15:14.999Z</time>
      </trkpt>
      <trkpt lat="47.50213" lon="6.7666">
        <ele>402</ele>
        <time>2016-12-11T11:15:16.999Z</time>
      </trkpt>
      <trkpt lat="47.50214" lon="6.76662">
        <ele>402</ele>
        <time>2016-12-11T11:15:17.999Z</time>
      </trkpt>
      <trkpt lat="47.50215" lon="6.76665">
        <ele>401</ele>
        <time>2016-12-11T11:15:18.999Z</time>
      </trkpt>
      <trkpt lat="47.50217" lon="6.76669">
        <ele>402</ele>
        <time>2016-12-11T11:15:19.999Z</time>
      </trkpt>
      <trkpt lat="47.50218" lon="6.76672">
        <ele>402</ele>
        <time>2016-12-11T11:15:20.999Z</time>
      </trkpt>
      <trkpt lat="47.5022" lon="6.76676">
        <ele>401</ele>
        <time>2016-12-11T11:15:21.999Z</time>
      </trkpt>
      <trkpt lat="47.50221" lon="6.7668">
        <ele>401</ele>
        <time>2016-12-11T11:15:22.999Z</time>
      </trkpt>
      <trkpt lat="47.50223" lon="6.76684">
        <ele>401</ele>
        <time>2016-12-11T11:15:23.999Z</time>
      </trkpt>
      <trkpt lat="47.50224" lon="6.76688">
        <ele>401</ele>
        <time>2016-12-11T11:15:24.999Z</time>
      </trkpt>
      <trkpt lat="47.50226" lon="6.76693">
        <ele>401</ele>
        <time>2016-12-11T11:15:25.999Z</time>
      </trkpt>
      <trkpt lat="47.50227" lon="6.76697">
        <ele>402</ele>
        <time>2016-12-11T11:15:26.999Z</time>
      </trkpt>
      <trkpt lat="47.50229" lon="6.76701">
        <ele>402</ele>
        <time>2016-12-11T11:15:27.999Z</time>
      </trkpt>
      <trkpt lat="47.50231" lon="6.76705">
        <ele>402</ele>
        <time>2016-12-11T11:15:28.999Z</time>
      </trkpt>
      <trkpt lat="47.50232" lon="6.76709">
        <ele>402</ele>
        <time>2016-12-11T11:15:29.999Z</time>
      </trkpt>
      <trkpt lat="47.50234" lon="6.76712">
        <ele>402</ele>
        <time>2016-12-11T11:15:30.999Z</time>
      </trkpt>
      <trkpt lat="47.50236" lon="6.76716">
        <ele>401</ele>
        <time>2016-12-11T11:15:31.999Z</time>
      </trkpt>
      <trkpt lat="47.50237" lon="6.7672">
        <ele>401</ele>
        <time>2016-12-11T11:15:32.999Z</time>
      </trkpt>
      <trkpt lat="47.50239" lon="6.76724">
        <ele>401</ele>
        <time>2016-12-11T11:15:33.999Z</time>
      </trkpt>
      <trkpt lat="47.50241" lon="6.76729">
        <ele>401</ele>
        <time>2016-12-11T11:15:34.999Z</time>
      </trkpt>
      <trkpt lat="47.50243" lon="6.76733">
        <ele>401</ele>
        <time>2016-12-11T11:15:35.999Z</time>
      </trkpt>
      <trkpt lat="47.50245" lon="6.76736">
        <ele>401</ele>
        <time>2016-12-11T11:15:36.999Z</time>
      </trkpt>
      <trkpt lat="47.50247" lon="6.7674">
        <ele>401</ele>
        <time>2016-12-11T11:15:37.999Z</time>
      </trkpt>
      <trkpt lat="47.50249" lon="6.76743">
        <ele>401</ele>
        <time>2016-12-11T11:15:38.999Z</time>
      </trkpt>
      <trkpt lat="47.50252" lon="6.76747">
        <ele>400</ele>
        <time>2016-12-11T11:15:39.999Z</time>
      </trkpt>
      <trkpt lat="47.50256" lon="6.76748">
        <ele>400</ele>
        <time>2016-12-11T11:15:40.999Z</time>
      </trkpt>
      <trkpt lat="47.50261" lon="6.76748">
        <ele>399</ele>
        <time>2016-12-11T11:15:41.999Z</time>
      </trkpt>
      <trkpt lat="47.50263" lon="6.76748">
        <ele>399</ele>
        <time>2016-12-11T11:15:42.999Z</time>
      </trkpt>
      <trkpt lat="47.50267" lon="6.76746">
        <ele>399</ele>
        <time>2016-12-11T11:15:43.999Z</time>
      </trkpt>
      <trkpt lat="47.50272" lon="6.76745">
        <ele>399</ele>
        <time>2016-12-11T11:15:44.999Z</time>
      </trkpt>
      <trkpt lat="47.50275" lon="6.76744">
        <ele>399</ele>
        <time>2016-12-11T11:15:45.999Z</time>
      </trkpt>
      <trkpt lat="47.50279" lon="6.76743">
        <ele>399</ele>
        <time>2016-12-11T11:15:46.999Z</time>
      </trkpt>
      <trkpt lat="47.50283" lon="6.76741">
        <ele>399</ele>
        <time>2016-12-11T11:15:47.999Z</time>
      </trkpt>
      <trkpt lat="47.50288" lon="6.76739">
        <ele>399</ele>
        <time>2016-12-11T11:15:48.999Z</time>
      </trkpt>
      <trkpt lat="47.50292" lon="6.76737">
        <ele>399</ele>
        <time>2016-12-11T11:15:49.999Z</time>
      </trkpt>
      <trkpt lat="47.50296" lon="6.76736">
        <ele>399</ele>
        <time>2016-12-11T11:15:50.999Z</time>
      </trkpt>
      <trkpt lat="47.503" lon="6.76735">
        <ele>399</ele>
        <time>2016-12-11T11:15:51.999Z</time>
      </trkpt>
      <trkpt lat="47.50304" lon="6.76733">
        <ele>398</ele>
        <time>2016-12-11T11:15:52.999Z</time>
      </trkpt>
      <trkpt lat="47.50308" lon="6.76732">
        <ele>398</ele>
        <time>2016-12-11T11:15:53.999Z</time>
      </trkpt>
      <trkpt lat="47.50311" lon="6.76731">
        <ele>398</ele>
        <time>2016-12-11T11:15:54.999Z</time>
      </trkpt>
      <trkpt lat="47.50316" lon="6.76729">
        <ele>398</ele>
        <time>2016-12-11T11:15:55.999Z</time>
      </trkpt>
      <trkpt lat="47.5032" lon="6.76728">
        <ele>398</ele>
        <time>2016-12-11T11:15:56.999Z</time>
      </trkpt>
      <trkpt lat="47.50324" lon="6.76725">
        <ele>398</ele>
        <time>2016-12-11T11:15:57.999Z</time>
      </trkpt>
      <trkpt lat="47.50328" lon="6.76724">
        <ele>398</ele>
        <time>2016-12-11T11:15:58.999Z</time>
      </trkpt>
      <trkpt lat="47.50332" lon="6.76723">
        <ele>398</ele>
        <time>2016-12-11T11:15:59.999Z</time>
      </trkpt>
      <trkpt lat="47.50335" lon="6.76721">
        <ele>398</ele>
        <time>2016-12-11T11:16:00.999Z</time>
      </trkpt>
      <trkpt lat="47.50339" lon="6.7672">
        <ele>398</ele>
        <time>2016-12-11T11:16:01.999Z</time>
      </trkpt>
      <trkpt lat="47.50343" lon="6.76718">
        <ele>398</ele>
        <time>2016-12-11T11:16:02.999Z</time>
      </trkpt>
      <trkpt lat="47.50346" lon="6.76717">
        <ele>398</ele>
        <time>2016-12-11T11:16:03.999Z</time>
      </trkpt>
      <trkpt lat="47.5035" lon="6.76716">
        <ele>398</ele>
        <time>2016-12-11T11:16:04.999Z</time>
      </trkpt>
      <trkpt lat="47.50353" lon="6.76715">
        <ele>398</ele>
        <time>2016-12-11T11:16:05.999Z</time>
      </trkpt>
      <trkpt lat="47.50357" lon="6.76714">
        <ele>398</ele>
        <time>2016-12-11T11:16:06.999Z</time>
      </trkpt>
      <trkpt lat="47.5036" lon="6.76713">
        <ele>398</ele>
        <time>2016-12-11T11:16:07.999Z</time>
      </trkpt>
      <trkpt lat="47.50364" lon="6.76712">
        <ele>398</ele>
        <time>2016-12-11T11:16:08.999Z</time>
      </trkpt>
      <trkpt lat="47.50368" lon="6.7671">
        <ele>398</ele>
        <time>2016-12-11T11:16:09.999Z</time>
      </trkpt>
      <trkpt lat="47.50372" lon="6.76708">
        <ele>397</ele>
        <time>2016-12-11T11:16:10.999Z</time>
      </trkpt>
      <trkpt lat="47.50376" lon="6.76706">
        <ele>397</ele>
        <time>2016-12-11T11:16:11.999Z</time>
      </trkpt>
      <trkpt lat="47.50379" lon="6.76704">
        <ele>397</ele>
        <time>2016-12-11T11:16:12.999Z</time>
      </trkpt>
      <trkpt lat="47.50383" lon="6.76702">
        <ele>397</ele>
        <time>2016-12-11T11:16:13.999Z</time>
      </trkpt>
      <trkpt lat="47.50386" lon="6.767">
        <ele>397</ele>
        <time>2016-12-11T11:16:14.999Z</time>
      </trkpt>
      <trkpt lat="47.5039" lon="6.76699">
        <ele>397</ele>
        <time>2016-12-11T11:16:15.999Z</time>
      </trkpt>
      <trkpt lat="47.50394" lon="6.76697">
        <ele>397</ele>
        <time>2016-12-11T11:16:16.999Z</time>
      </trkpt>
      <trkpt lat="47.50398" lon="6.76695">
        <ele>397</ele>
        <time>2016-12-11T11:16:17.999Z</time>
      </trkpt>
      <trkpt lat="47.50401" lon="6.76693">
        <ele>397</ele>
        <time>2016-12-11T11:16:18.999Z</time>
      </trkpt>
      <trkpt lat="47.50404" lon="6.76692">
        <ele>397</ele>
        <time>2016-12-11T11:16:19.999Z</time>
      </trkpt>
      <trkpt lat="47.50408" lon="6.7669">
        <ele>397</ele>
        <time>2016-12-11T11:16:20.999Z</time>
      </trkpt>
      <trkpt lat="47.50412" lon="6.76688">
        <ele>397</ele>
        <time>2016-12-11T11:16:21.999Z</time>
      </trkpt>
      <trkpt lat="47.50415" lon="6.76687">
        <ele>397</ele>
        <time>2016-12-11T11:16:22.999Z</time>
      </trkpt>
      <trkpt lat="47.50418" lon="6.76685">
        <ele>397</ele>
        <time>2016-12-11T11:16:23.999Z</time>
      </trkpt>
      <trkpt lat="47.50421" lon="6.76683">
        <ele>397</ele>
        <time>2016-12-11T11:16:24.999Z</time>
      </trkpt>
      <trkpt lat="47.50424" lon="6.76682">
        <ele>397</ele>
        <time>2016-12-11T11:16:25.999Z</time>
      </trkpt>
      <trkpt lat="47.50427" lon="6.76682">
        <ele>397</ele>
        <time>2016-12-11T11:16:26.999Z</time>
      </trkpt>
      <trkpt lat="47.50429" lon="6.76681">
        <ele>397</ele>
        <time>2016-12-11T11:16:27.999Z</time>
      </trkpt>
      <trkpt lat="47.50432" lon="6.7668">
        <ele>397</ele>
        <time>2016-12-11T11:16:28.999Z</time>
      </trkpt>
      <trkpt lat="47.50434" lon="6.76678">
        <ele>397</ele>
        <time>2016-12-11T11:16:29.999Z</time>
      </trkpt>
      <trkpt lat="47.50438" lon="6.76676">
        <ele>397</ele>
        <time>2016-12-11T11:16:30.999Z</time>
      </trkpt>
      <trkpt lat="47.50442" lon="6.76674">
        <ele>397</ele>
        <time>2016-12-11T11:16:31.999Z</time>
      </trkpt>
      <trkpt lat="47.50445" lon="6.76671">
        <ele>397</ele>
        <time>2016-12-11T11:16:32.999Z</time>
      </trkpt>
      <trkpt lat="47.50448" lon="6.76669">
        <ele>397</ele>
        <time>2016-12-11T11:16:33.999Z</time>
      </trkpt>
      <trkpt lat="47.50452" lon="6.76667">
        <ele>397</ele>
        <time>2016-12-11T11:16:34.999Z</time>
      </trkpt>
      <trkpt lat="47.50454" lon="6.76666">
        <ele>398</ele>
        <time>2016-12-11T11:16:35.999Z</time>
      </trkpt>
      <trkpt lat="47.50458" lon="6.76665">
        <ele>398</ele>
        <time>2016-12-11T11:16:36.999Z</time>
      </trkpt>
      <trkpt lat="47.5046" lon="6.76664">
        <ele>398</ele>
        <time>2016-12-11T11:16:37.999Z</time>
      </trkpt>
      <trkpt lat="47.50464" lon="6.76662">
        <ele>398</ele>
        <time>2016-12-11T11:16:38.999Z</time>
      </trkpt>
      <trkpt lat="47.50468" lon="6.76661">
        <ele>398</ele>
        <time>2016-12-11T11:16:39.999Z</time>
      </trkpt>
      <trkpt lat="47.50471" lon="6.7666">
        <ele>398</ele>
        <time>2016-12-11T11:16:40.999Z</time>
      </trkpt>
      <trkpt lat="47.50474" lon="6.7666">
        <ele>398</ele>
        <time>2016-12-11T11:16:41.999Z</time>
      </trkpt>
      <trkpt lat="47.50476" lon="6.7666">
        <ele>398</ele>
        <time>2016-12-11T11:16:42.999Z</time>
      </trkpt>
      <trkpt lat="47.5048" lon="6.7666">
        <ele>399</ele>
        <time>2016-12-11T11:16:43.999Z</time>
      </trkpt>
      <trkpt lat="47.50484" lon="6.76659">
        <ele>399</ele>
        <time>2016-12-11T11:16:44.999Z</time>
      </trkpt>
      <trkpt lat="47.50488" lon="6.76658">
        <ele>399</ele>
        <time>2016-12-11T11:16:45.999Z</time>
      </trkpt>
      <trkpt lat="47.50492" lon="6.76657">
        <ele>399</ele>
        <time>2016-12-11T11:16:46.999Z</time>
      </trkpt>
      <trkpt lat="47.50496" lon="6.76656">
        <ele>399</ele>
        <time>2016-12-11T11:16:47.999Z</time>
      </trkpt>
      <trkpt lat="47.50499" lon="6.76655">
        <ele>399</ele>
        <time>2016-12-11T11:16:48.999Z</time>
      </trkpt>
      <trkpt lat="47.50501" lon="6.76655">
        <ele>399</ele>
        <time>2016-12-11T11:16:49.999Z</time>
      </trkpt>
      <trkpt lat="47.50504" lon="6.76654">
        <ele>399</ele>
        <time>2016-12-11T11:16:50.999Z</time>
      </trkpt>
      <trkpt lat="47.50507" lon="6.76654">
        <ele>399</ele>
        <time>2016-12-11T11:16:51.999Z</time>
      </trkpt>
      <trkpt lat="47.50509" lon="6.76653">
        <ele>399</ele>
        <time>2016-12-11T11:16:52.999Z</time>
      </trkpt>
      <trkpt lat="47.50511" lon="6.76652">
        <ele>399</ele>
        <time>2016-12-11T11:16:53.999Z</time>
      </trkpt>
      <trkpt lat="47.50514" lon="6.7665">
        <ele>399</ele>
        <time>2016-12-11T11:16:54.999Z</time>
      </trkpt>
      <trkpt lat="47.50517" lon="6.76649">
        <ele>399</ele>
        <time>2016-12-11T11:16:55.999Z</time>
      </trkpt>
      <trkpt lat="47.50519" lon="6.76648">
        <ele>399</ele>
        <time>2016-12-11T11:16:56.999Z</time>
      </trkpt>
      <trkpt lat="47.50522" lon="6.76647">
        <ele>399</ele>
        <time>2016-12-11T11:16:57.999Z</time>
      </trkpt>
      <trkpt lat="47.50525" lon="6.76646">
        <ele>399</ele>
        <time>2016-12-11T11:16:58.999Z</time>
      </trkpt>
      <trkpt lat="47.50528" lon="6.76644">
        <ele>399</ele>
        <time>2016-12-11T11:16:59.999Z</time>
      </trkpt>
      <trkpt lat="47.5053" lon="6.76644">
        <ele>399</ele>
        <time>2016-12-11T11:17:00.999Z</time>
      </trkpt>
      <trkpt lat="47.50533" lon="6.76643">
        <ele>399</ele>
        <time>2016-12-11T11:17:01.999Z</time>
      </trkpt>
      <trkpt lat="47.50536" lon="6.76642">
        <ele>399</ele>
        <time>2016-12-11T11:17:02.999Z</time>
      </trkpt>
      <trkpt lat="47.50539" lon="6.76642">
        <ele>399</ele>
        <time>2016-12-11T11:17:03.999Z</time>
      </trkpt>
      <trkpt lat="47.50542" lon="6.76641">
        <ele>399</ele>
        <time>2016-12-11T11:17:04.999Z</time>
      </trkpt>
      <trkpt lat="47.50545" lon="6.7664">
        <ele>399</ele>
        <time>2016-12-11T11:17:05.999Z</time>
      </trkpt>
      <trkpt lat="47.50548" lon="6.7664">
        <ele>399</ele>
        <time>2016-12-11T11:17:06.999Z</time>
      </trkpt>
      <trkpt lat="47.50551" lon="6.76639">
        <ele>399</ele>
        <time>2016-12-11T11:17:07.999Z</time>
      </trkpt>
      <trkpt lat="47.50555" lon="6.76638">
        <ele>399</ele>
        <time>2016-12-11T11:17:08.999Z</time>
      </trkpt>
      <trkpt lat="47.50558" lon="6.76637">
        <ele>399</ele>
        <time>2016-12-11T11:17:09.999Z</time>
      </trkpt>
      <trkpt lat="47.50561" lon="6.76637">
        <ele>399</ele>
        <time>2016-12-11T11:17:10.999Z</time>
      </trkpt>
      <trkpt lat="47.50564" lon="6.76636">
        <ele>399</ele>
        <time>2016-12-11T11:17:11.999Z</time>
      </trkpt>
      <trkpt lat="47.50568" lon="6.76635">
        <ele>399</ele>
        <time>2016-12-11T11:17:12.999Z</time>
      </trkpt>
      <trkpt lat="47.50572" lon="6.76633">
        <ele>399</ele>
        <time>2016-12-11T11:17:13.999Z</time>
      </trkpt>
      <trkpt lat="47.50575" lon="6.76632">
        <ele>399</ele>
        <time>2016-12-11T11:17:14.999Z</time>
      </trkpt>
      <trkpt lat="47.5058" lon="6.7663">
        <ele>399</ele>
        <time>2016-12-11T11:17:15.999Z</time>
      </trkpt>
      <trkpt lat="47.50584" lon="6.76629">
        <ele>398</ele>
        <time>2016-12-11T11:17:16.999Z</time>
      </trkpt>
      <trkpt lat="47.50588" lon="6.76628">
        <ele>398</ele>
        <time>2016-12-11T11:17:17.999Z</time>
      </trkpt>
      <trkpt lat="47.50592" lon="6.76626">
        <ele>398</ele>
        <time>2016-12-11T11:17:18.999Z</time>
      </trkpt>
      <trkpt lat="47.50596" lon="6.76625">
        <ele>398</ele>
        <time>2016-12-11T11:17:19.999Z</time>
      </trkpt>
      <trkpt lat="47.506" lon="6.76623">
        <ele>398</ele>
        <time>2016-12-11T11:17:20.999Z</time>
      </trkpt>
      <trkpt lat="47.50604" lon="6.76622">
        <ele>398</ele>
        <time>2016-12-11T11:17:21.999Z</time>
      </trkpt>
      <trkpt lat="47.50607" lon="6.7662">
        <ele>398</ele>
        <time>2016-12-11T11:17:22.999Z</time>
      </trkpt>
      <trkpt lat="47.50612" lon="6.76619">
        <ele>397</ele>
        <time>2016-12-11T11:17:23.999Z</time>
      </trkpt>
      <trkpt lat="47.50616" lon="6.76617">
        <ele>397</ele>
        <time>2016-12-11T11:17:24.999Z</time>
      </trkpt>
      <trkpt lat="47.5062" lon="6.76615">
        <ele>397</ele>
        <time>2016-12-11T11:17:25.999Z</time>
      </trkpt>
      <trkpt lat="47.50624" lon="6.76614">
        <ele>397</ele>
        <time>2016-12-11T11:17:26.999Z</time>
      </trkpt>
      <trkpt lat="47.50628" lon="6.76612">
        <ele>397</ele>
        <time>2016-12-11T11:17:27.999Z</time>
      </trkpt>
      <trkpt lat="47.50631" lon="6.7661">
        <ele>397</ele>
        <time>2016-12-11T11:17:28.999Z</time>
      </trkpt>
      <trkpt lat="47.50635" lon="6.76608">
        <ele>397</ele>
        <time>2016-12-11T11:17:29.999Z</time>
      </trkpt>
      <trkpt lat="47.50638" lon="6.76606">
        <ele>397</ele>
        <time>2016-12-11T11:17:30.999Z</time>
      </trkpt>
      <trkpt lat="47.50642" lon="6.76603">
        <ele>397</ele>
        <time>2016-12-11T11:17:31.999Z</time>
      </trkpt>
      <trkpt lat="47.50645" lon="6.76602">
        <ele>397</ele>
        <time>2016-12-11T11:17:32.999Z</time>
      </trkpt>
      <trkpt lat="47.50649" lon="6.766">
        <ele>397</ele>
        <time>2016-12-11T11:17:33.999Z</time>
      </trkpt>
      <trkpt lat="47.50652" lon="6.76598">
        <ele>397</ele>
        <time>2016-12-11T11:17:34.999Z</time>
      </trkpt>
      <trkpt lat="47.50654" lon="6.76597">
        <ele>397</ele>
        <time>2016-12-11T11:17:35.999Z</time>
      </trkpt>
      <trkpt lat="47.50657" lon="6.76597">
        <ele>397</ele>
        <time>2016-12-11T11:17:36.999Z</time>
      </trkpt>
      <trkpt lat="47.5066" lon="6.76596">
        <ele>397</ele>
        <time>2016-12-11T11:17:37.999Z</time>
      </trkpt>
      <trkpt lat="47.50664" lon="6.76595">
        <ele>397</ele>
        <time>2016-12-11T11:17:38.999Z</time>
      </trkpt>
      <trkpt lat="47.50668" lon="6.76593">
        <ele>396</ele>
        <time>2016-12-11T11:17:39.999Z</time>
      </trkpt>
      <trkpt lat="47.50672" lon="6.76592">
        <ele>396</ele>
        <time>2016-12-11T11:17:40.999Z</time>
      </trkpt>
      <trkpt lat="47.50676" lon="6.76592">
        <ele>396</ele>
        <time>2016-12-11T11:17:41.999Z</time>
      </trkpt>
      <trkpt lat="47.50681" lon="6.76591">
        <ele>396</ele>
        <time>2016-12-11T11:17:42.999Z</time>
      </trkpt>
      <trkpt lat="47.50685" lon="6.76591">
        <ele>396</ele>
        <time>2016-12-11T11:17:43.999Z</time>
      </trkpt>
      <trkpt lat="47.50689" lon="6.76591">
        <ele>395</ele>
        <time>2016-12-11T11:17:44.999Z</time>
      </trkpt>
      <trkpt lat="47.50693" lon="6.76591">
        <ele>395</ele>
        <time>2016-12-11T11:17:45.999Z</time>
      </trkpt>
      <trkpt lat="47.50698" lon="6.7659">
        <ele>395</ele>
        <time>2016-12-11T11:17:46.999Z</time>
      </trkpt>
      <trkpt lat="47.50702" lon="6.7659">
        <ele>395</ele>
        <time>2016-12-11T11:17:47.999Z</time>
      </trkpt>
      <trkpt lat="47.50706" lon="6.7659">
        <ele>395</ele>
        <time>2016-12-11T11:17:48.999Z</time>
      </trkpt>
      <trkpt lat="47.50711" lon="6.76591">
        <ele>395</ele>
        <time>2016-12-11T11:17:49.999Z</time>
      </trkpt>
      <trkpt lat="47.50716" lon="6.76592">
        <ele>394</ele>
        <time>2016-12-11T11:17:50.999Z</time>
      </trkpt>
      <trkpt lat="47.5072" lon="6.76592">
        <ele>394</ele>
        <time>2016-12-11T11:17:51.999Z</time>
      </trkpt>
      <trkpt lat="47.50724" lon="6.76593">
        <ele>394</ele>
        <time>2016-12-11T11:17:52.999Z</time>
      </trkpt>
      <trkpt lat="47.50728" lon="6.76594">
        <ele>394</ele>
        <time>2016-12-11T11:17:53.999Z</time>
      </trkpt>
      <trkpt lat="47.50732" lon="6.76595">
        <ele>394</ele>
        <time>2016-12-11T11:17:54.999Z</time>
      </trkpt>
      <trkpt lat="47.50737" lon="6.76595">
        <ele>394</ele>
        <time>2016-12-11T11:17:55.999Z</time>
      </trkpt>
      <trkpt lat="47.50742" lon="6.76596">
        <ele>394</ele>
        <time>2016-12-11T11:17:56.999Z</time>
      </trkpt>
      <trkpt lat="47.50747" lon="6.76597">
        <ele>394</ele>
        <time>2016-12-11T11:17:57.999Z</time>
      </trkpt>
      <trkpt lat="47.50752" lon="6.76597">
        <ele>393</ele>
        <time>2016-12-11T11:17:58.999Z</time>
      </trkpt>
      <trkpt lat="47.50756" lon="6.76595">
        <ele>393</ele>
        <time>2016-12-11T11:17:59.999Z</time>
      </trkpt>
      <trkpt lat="47.5076" lon="6.76593">
        <ele>393</ele>
        <time>2016-12-11T11:18:00.999Z</time>
      </trkpt>
      <trkpt lat="47.50763" lon="6.76593">
        <ele>392</ele>
        <time>2016-12-11T11:18:01.999Z</time>
      </trkpt>
      <trkpt lat="47.50766" lon="6.76592">
        <ele>392</ele>
        <time>2016-12-11T11:18:02.999Z</time>
      </trkpt>
      <trkpt lat="47.50769" lon="6.76592">
        <ele>392</ele>
        <time>2016-12-11T11:18:03.999Z</time>
      </trkpt>
      <trkpt lat="47.50773" lon="6.76591">
        <ele>392</ele>
        <time>2016-12-11T11:18:04.999Z</time>
      </trkpt>
      <trkpt lat="47.50776" lon="6.76589">
        <ele>392</ele>
        <time>2016-12-11T11:18:05.999Z</time>
      </trkpt>
      <trkpt lat="47.5078" lon="6.76587">
        <ele>392</ele>
        <time>2016-12-11T11:18:06.999Z</time>
      </trkpt>
      <trkpt lat="47.50783" lon="6.76586">
        <ele>391</ele>
        <time>2016-12-11T11:18:07.999Z</time>
      </trkpt>
      <trkpt lat="47.50786" lon="6.76591">
        <ele>391</ele>
        <time>2016-12-11T11:18:11.999Z</time>
      </trkpt>
      <trkpt lat="47.50786" lon="6.76591">
        <ele>391</ele>
        <time>2016-12-11T11:18:12.999Z</time>
      </trkpt>
      <trkpt lat="47.5079" lon="6.76591">
        <ele>391</ele>
        <time>2016-12-11T11:18:20.999Z</time>
      </trkpt>
      <trkpt lat="47.50791" lon="6.76591">
        <ele>391</ele>
        <time>2016-12-11T11:18:21.999Z</time>
      </trkpt>
      <trkpt lat="47.50794" lon="6.76592">
        <ele>391</ele>
        <time>2016-12-11T11:18:28.999Z</time>
      </trkpt>
      <trkpt lat="47.50797" lon="6.76591">
        <ele>391</ele>
        <time>2016-12-11T11:18:29.999Z</time>
      </trkpt>
      <trkpt lat="47.508" lon="6.7659">
        <ele>391</ele>
        <time>2016-12-11T11:18:30.999Z</time>
      </trkpt>
      <trkpt lat="47.50804" lon="6.76589">
        <ele>391</ele>
        <time>2016-12-11T11:18:31.999Z</time>
      </trkpt>
      <trkpt lat="47.50808" lon="6.76589">
        <ele>390</ele>
        <time>2016-12-11T11:18:32.999Z</time>
      </trkpt>
      <trkpt lat="47.5081" lon="6.76589">
        <ele>390</ele>
        <time>2016-12-11T11:18:33.999Z</time>
      </trkpt>
      <trkpt lat="47.50813" lon="6.76593">
        <ele>390</ele>
        <time>2016-12-11T11:18:35.999Z</time>
      </trkpt>
      <trkpt lat="47.50814" lon="6.76596">
        <ele>390</ele>
        <time>2016-12-11T11:18:36.999Z</time>
      </trkpt>
      <trkpt lat="47.50817" lon="6.76601">
        <ele>390</ele>
        <time>2016-12-11T11:18:38.999Z</time>
      </trkpt>
      <trkpt lat="47.50818" lon="6.76604">
        <ele>390</ele>
        <time>2016-12-11T11:18:39.999Z</time>
      </trkpt>
      <trkpt lat="47.5082" lon="6.76608">
        <ele>390</ele>
        <time>2016-12-11T11:18:40.999Z</time>
      </trkpt>
      <trkpt lat="47.50821" lon="6.76614">
        <ele>390</ele>
        <time>2016-12-11T11:18:41.999Z</time>
      </trkpt>
      <trkpt lat="47.50824" lon="6.7662">
        <ele>390</ele>
        <time>2016-12-11T11:18:42.999Z</time>
      </trkpt>
      <trkpt lat="47.50826" lon="6.76626">
        <ele>390</ele>
        <time>2016-12-11T11:18:43.999Z</time>
      </trkpt>
      <trkpt lat="47.5083" lon="6.76634">
        <ele>390</ele>
        <time>2016-12-11T11:18:44.999Z</time>
      </trkpt>
      <trkpt lat="47.50833" lon="6.76641">
        <ele>390</ele>
        <time>2016-12-11T11:18:45.999Z</time>
      </trkpt>
      <trkpt lat="47.50835" lon="6.76648">
        <ele>388</ele>
        <time>2016-12-11T11:18:46.999Z</time>
      </trkpt>
      <trkpt lat="47.50838" lon="6.76656">
        <ele>388</ele>
        <time>2016-12-11T11:18:47.999Z</time>
      </trkpt>
      <trkpt lat="47.50841" lon="6.76666">
        <ele>388</ele>
        <time>2016-12-11T11:18:48.999Z</time>
      </trkpt>
      <trkpt lat="47.50844" lon="6.76675">
        <ele>387</ele>
        <time>2016-12-11T11:18:49.999Z</time>
      </trkpt>
      <trkpt lat="47.50847" lon="6.76685">
        <ele>386</ele>
        <time>2016-12-11T11:18:50.999Z</time>
      </trkpt>
      <trkpt lat="47.50851" lon="6.76694">
        <ele>385</ele>
        <time>2016-12-11T11:18:51.999Z</time>
      </trkpt>
      <trkpt lat="47.50854" lon="6.76702">
        <ele>384</ele>
        <time>2016-12-11T11:18:52.999Z</time>
      </trkpt>
      <trkpt lat="47.50857" lon="6.76711">
        <ele>384</ele>
        <time>2016-12-11T11:18:53.999Z</time>
      </trkpt>
      <trkpt lat="47.50861" lon="6.76721">
        <ele>384</ele>
        <time>2016-12-11T11:18:54.999Z</time>
      </trkpt>
      <trkpt lat="47.50866" lon="6.76731">
        <ele>384</ele>
        <time>2016-12-11T11:18:55.999Z</time>
      </trkpt>
      <trkpt lat="47.5087" lon="6.76741">
        <ele>383</ele>
        <time>2016-12-11T11:18:56.999Z</time>
      </trkpt>
      <trkpt lat="47.50874" lon="6.76751">
        <ele>382</ele>
        <time>2016-12-11T11:18:57.999Z</time>
      </trkpt>
      <trkpt lat="47.50877" lon="6.7676">
        <ele>382</ele>
        <time>2016-12-11T11:18:58.999Z</time>
      </trkpt>
      <trkpt lat="47.50881" lon="6.76769">
        <ele>381</ele>
        <time>2016-12-11T11:18:59.999Z</time>
      </trkpt>
      <trkpt lat="47.50885" lon="6.76778">
        <ele>381</ele>
        <time>2016-12-11T11:19:00.999Z</time>
      </trkpt>
      <trkpt lat="47.50889" lon="6.76788">
        <ele>381</ele>
        <time>2016-12-11T11:19:01.999Z</time>
      </trkpt>
      <trkpt lat="47.50892" lon="6.76796">
        <ele>381</ele>
        <time>2016-12-11T11:19:02.999Z</time>
      </trkpt>
      <trkpt lat="47.50895" lon="6.76805">
        <ele>381</ele>
        <time>2016-12-11T11:19:03.999Z</time>
      </trkpt>
      <trkpt lat="47.50899" lon="6.76812">
        <ele>381</ele>
        <time>2016-12-11T11:19:04.999Z</time>
      </trkpt>
      <trkpt lat="47.50902" lon="6.76821">
        <ele>381</ele>
        <time>2016-12-11T11:19:05.999Z</time>
      </trkpt>
      <trkpt lat="47.50906" lon="6.76829">
        <ele>381</ele>
        <time>2016-12-11T11:19:06.999Z</time>
      </trkpt>
      <trkpt lat="47.50909" lon="6.76837">
        <ele>380</ele>
        <time>2016-12-11T11:19:07.999Z</time>
      </trkpt>
      <trkpt lat="47.50912" lon="6.76845">
        <ele>380</ele>
        <time>2016-12-11T11:19:08.999Z</time>
      </trkpt>
      <trkpt lat="47.50915" lon="6.76852">
        <ele>380</ele>
        <time>2016-12-11T11:19:09.999Z</time>
      </trkpt>
      <trkpt lat="47.50919" lon="6.7686">
        <ele>378</ele>
        <time>2016-12-11T11:19:10.999Z</time>
      </trkpt>
      <trkpt lat="47.50923" lon="6.76868">
        <ele>378</ele>
        <time>2016-12-11T11:19:11.999Z</time>
      </trkpt>
      <trkpt lat="47.50928" lon="6.76875">
        <ele>378</ele>
        <time>2016-12-11T11:19:12.999Z</time>
      </trkpt>
      <trkpt lat="47.50933" lon="6.76882">
        <ele>378</ele>
        <time>2016-12-11T11:19:13.999Z</time>
      </trkpt>
      <trkpt lat="47.5094" lon="6.76889">
        <ele>378</ele>
        <time>2016-12-11T11:19:14.999Z</time>
      </trkpt>
      <trkpt lat="47.50945" lon="6.76896">
        <ele>378</ele>
        <time>2016-12-11T11:19:15.999Z</time>
      </trkpt>
      <trkpt lat="47.5095" lon="6.76902">
        <ele>377</ele>
        <time>2016-12-11T11:19:16.999Z</time>
      </trkpt>
      <trkpt lat="47.50955" lon="6.76908">
        <ele>377</ele>
        <time>2016-12-11T11:19:17.999Z</time>
      </trkpt>
      <trkpt lat="47.50958" lon="6.76912">
        <ele>377</ele>
        <time>2016-12-11T11:19:18.999Z</time>
      </trkpt>
      <trkpt lat="47.50961" lon="6.76917">
        <ele>374</ele>
        <time>2016-12-11T11:19:19.999Z</time>
      </trkpt>
      <trkpt lat="47.50964" lon="6.76922">
        <ele>374</ele>
        <time>2016-12-11T11:19:20.999Z</time>
      </trkpt>
      <trkpt lat="47.50967" lon="6.76926">
        <ele>374</ele>
        <time>2016-12-11T11:19:21.999Z</time>
      </trkpt>
      <trkpt lat="47.50969" lon="6.7693">
        <ele>374</ele>
        <time>2016-12-11T11:19:22.999Z</time>
      </trkpt>
      <trkpt lat="47.50971" lon="6.76934">
        <ele>374</ele>
        <time>2016-12-11T11:19:23.999Z</time>
      </trkpt>
      <trkpt lat="47.50976" lon="6.76936">
        <ele>374</ele>
        <time>2016-12-11T11:19:24.999Z</time>
      </trkpt>
      <trkpt lat="47.50981" lon="6.76939">
        <ele>374</ele>
        <time>2016-12-11T11:19:25.999Z</time>
      </trkpt>
      <trkpt lat="47.50987" lon="6.7694">
        <ele>374</ele>
        <time>2016-12-11T11:19:26.999Z</time>
      </trkpt>
      <trkpt lat="47.50993" lon="6.7694">
        <ele>374</ele>
        <time>2016-12-11T11:19:27.999Z</time>
      </trkpt>
      <trkpt lat="47.51" lon="6.7694">
        <ele>374</ele>
        <time>2016-12-11T11:19:28.999Z</time>
      </trkpt>
      <trkpt lat="47.51006" lon="6.76941">
        <ele>375</ele>
        <time>2016-12-11T11:19:29.999Z</time>
      </trkpt>
      <trkpt lat="47.51012" lon="6.76942">
        <ele>375</ele>
        <time>2016-12-11T11:19:30.999Z</time>
      </trkpt>
      <trkpt lat="47.51018" lon="6.76944">
        <ele>375</ele>
        <time>2016-12-11T11:19:31.999Z</time>
      </trkpt>
      <trkpt lat="47.51023" lon="6.76948">
        <ele>375</ele>
        <time>2016-12-11T11:19:32.999Z</time>
      </trkpt>
      <trkpt lat="47.51028" lon="6.76952">
        <ele>375</ele>
        <time>2016-12-11T11:19:33.999Z</time>
      </trkpt>
      <trkpt lat="47.51033" lon="6.76956">
        <ele>375</ele>
        <time>2016-12-11T11:19:34.999Z</time>
      </trkpt>
      <trkpt lat="47.51038" lon="6.76959">
        <ele>375</ele>
        <time>2016-12-11T11:19:35.999Z</time>
      </trkpt>
      <trkpt lat="47.51043" lon="6.76964">
        <ele>375</ele>
        <time>2016-12-11T11:19:36.999Z</time>
      </trkpt>
      <trkpt lat="47.51049" lon="6.76968">
        <ele>375</ele>
        <time>2016-12-11T11:19:37.999Z</time>
      </trkpt>
      <trkpt lat="47.51054" lon="6.76974">
        <ele>375</ele>
        <time>2016-12-11T11:19:38.999Z</time>
      </trkpt>
      <trkpt lat="47.5106" lon="6.76979">
        <ele>375</ele>
        <time>2016-12-11T11:19:39.999Z</time>
      </trkpt>
      <trkpt lat="47.51065" lon="6.76984">
        <ele>375</ele>
        <time>2016-12-11T11:19:40.999Z</time>
      </trkpt>
      <trkpt lat="47.5107" lon="6.76988">
        <ele>375</ele>
        <time>2016-12-11T11:19:41.999Z</time>
      </trkpt>
      <trkpt lat="47.51075" lon="6.76992">
        <ele>375</ele>
        <time>2016-12-11T11:19:42.999Z</time>
      </trkpt>
      <trkpt lat="47.5108" lon="6.76996">
        <ele>375</ele>
        <time>2016-12-11T11:19:43.999Z</time>
      </trkpt>
      <trkpt lat="47.51084" lon="6.77">
        <ele>375</ele>
        <time>2016-12-11T11:19:44.999Z</time>
      </trkpt>
      <trkpt lat="47.51088" lon="6.77005">
        <ele>375</ele>
        <time>2016-12-11T11:19:45.999Z</time>
      </trkpt>
      <trkpt lat="47.51093" lon="6.7701">
        <ele>375</ele>
        <time>2016-12-11T11:19:46.999Z</time>
      </trkpt>
      <trkpt lat="47.51098" lon="6.77016">
        <ele>375</ele>
        <time>2016-12-11T11:19:47.999Z</time>
      </trkpt>
      <trkpt lat="47.51102" lon="6.7702">
        <ele>375</ele>
        <time>2016-12-11T11:19:48.999Z</time>
      </trkpt>
      <trkpt lat="47.51107" lon="6.77022">
        <ele>375</ele>
        <time>2016-12-11T11:19:49.999Z</time>
      </trkpt>
      <trkpt lat="47.51112" lon="6.77024">
        <ele>375</ele>
        <time>2016-12-11T11:19:50.999Z</time>
      </trkpt>
      <trkpt lat="47.51117" lon="6.77027">
        <ele>375</ele>
        <time>2016-12-11T11:19:51.999Z</time>
      </trkpt>
      <trkpt lat="47.51122" lon="6.77031">
        <ele>375</ele>
        <time>2016-12-11T11:19:52.999Z</time>
      </trkpt>
      <trkpt lat="47.51125" lon="6.77035">
        <ele>375</ele>
        <time>2016-12-11T11:19:53.999Z</time>
      </trkpt>
      <trkpt lat="47.51129" lon="6.77038">
        <ele>375</ele>
        <time>2016-12-11T11:19:54.999Z</time>
      </trkpt>
      <trkpt lat="47.51132" lon="6.77042">
        <ele>375</ele>
        <time>2016-12-11T11:19:55.999Z</time>
      </trkpt>
      <trkpt lat="47.51137" lon="6.77046">
        <ele>375</ele>
        <time>2016-12-11T11:19:56.999Z</time>
      </trkpt>
      <trkpt lat="47.51141" lon="6.7705">
        <ele>376</ele>
        <time>2016-12-11T11:19:57.999Z</time>
      </trkpt>
      <trkpt lat="47.51145" lon="6.77054">
        <ele>376</ele>
        <time>2016-12-11T11:19:58.999Z</time>
      </trkpt>
      <trkpt lat="47.51148" lon="6.77058">
        <ele>376</ele>
        <time>2016-12-11T11:19:59.999Z</time>
      </trkpt>
      <trkpt lat="47.51153" lon="6.77063">
        <ele>376</ele>
        <time>2016-12-11T11:20:00.999Z</time>
      </trkpt>
      <trkpt lat="47.51157" lon="6.77067">
        <ele>376</ele>
        <time>2016-12-11T11:20:01.999Z</time>
      </trkpt>
      <trkpt lat="47.51159" lon="6.7707">
        <ele>377</ele>
        <time>2016-12-11T11:20:02.999Z</time>
      </trkpt>
      <trkpt lat="47.51163" lon="6.77073">
        <ele>377</ele>
        <time>2016-12-11T11:20:03.999Z</time>
      </trkpt>
      <trkpt lat="47.51166" lon="6.77077">
        <ele>377</ele>
        <time>2016-12-11T11:20:04.999Z</time>
      </trkpt>
      <trkpt lat="47.51168" lon="6.77081">
        <ele>378</ele>
        <time>2016-12-11T11:20:05.999Z</time>
      </trkpt>
      <trkpt lat="47.51171" lon="6.77085">
        <ele>378</ele>
        <time>2016-12-11T11:20:06.999Z</time>
      </trkpt>
      <trkpt lat="47.51173" lon="6.77089">
        <ele>378</ele>
        <time>2016-12-11T11:20:07.999Z</time>
      </trkpt>
      <trkpt lat="47.51174" lon="6.77093">
        <ele>378</ele>
        <time>2016-12-11T11:20:08.999Z</time>
      </trkpt>
      <trkpt lat="47.51177" lon="6.77098">
        <ele>378</ele>
        <time>2016-12-11T11:20:09.999Z</time>
      </trkpt>
      <trkpt lat="47.51179" lon="6.77103">
        <ele>378</ele>
        <time>2016-12-11T11:20:10.999Z</time>
      </trkpt>
      <trkpt lat="47.51182" lon="6.77108">
        <ele>378</ele>
        <time>2016-12-11T11:20:11.999Z</time>
      </trkpt>
      <trkpt lat="47.51184" lon="6.77113">
        <ele>378</ele>
        <time>2016-12-11T11:20:12.999Z</time>
      </trkpt>
      <trkpt lat="47.51186" lon="6.77118">
        <ele>378</ele>
        <time>2016-12-11T11:20:13.999Z</time>
      </trkpt>
      <trkpt lat="47.51188" lon="6.77123">
        <ele>378</ele>
        <time>2016-12-11T11:20:14.999Z</time>
      </trkpt>
      <trkpt lat="47.51189" lon="6.77127">
        <ele>378</ele>
        <time>2016-12-11T11:20:15.999Z</time>
      </trkpt>
      <trkpt lat="47.51191" lon="6.7713">
        <ele>378</ele>
        <time>2016-12-11T11:20:16.999Z</time>
      </trkpt>
      <trkpt lat="47.51194" lon="6.77134">
        <ele>378</ele>
        <time>2016-12-11T11:20:17.999Z</time>
      </trkpt>
      <trkpt lat="47.51196" lon="6.77138">
        <ele>378</ele>
        <time>2016-12-11T11:20:18.999Z</time>
      </trkpt>
      <trkpt lat="47.51198" lon="6.77141">
        <ele>378</ele>
        <time>2016-12-11T11:20:19.999Z</time>
      </trkpt>
      <trkpt lat="47.512" lon="6.77144">
        <ele>378</ele>
        <time>2016-12-11T11:20:20.999Z</time>
      </trkpt>
      <trkpt lat="47.51202" lon="6.77147">
        <ele>378</ele>
        <time>2016-12-11T11:20:21.999Z</time>
      </trkpt>
      <trkpt lat="47.51204" lon="6.7715">
        <ele>378</ele>
        <time>2016-12-11T11:20:22.999Z</time>
      </trkpt>
      <trkpt lat="47.51206" lon="6.77153">
        <ele>378</ele>
        <time>2016-12-11T11:20:23.999Z</time>
      </trkpt>
      <trkpt lat="47.51207" lon="6.77156">
        <ele>378</ele>
        <time>2016-12-11T11:20:24.999Z</time>
      </trkpt>
      <trkpt lat="47.51209" lon="6.77159">
        <ele>378</ele>
        <time>2016-12-11T11:20:25.999Z</time>
      </trkpt>
      <trkpt lat="47.51211" lon="6.77163">
        <ele>378</ele>
        <time>2016-12-11T11:20:26.999Z</time>
      </trkpt>
      <trkpt lat="47.51213" lon="6.77167">
        <ele>376</ele>
        <time>2016-12-11T11:20:27.999Z</time>
      </trkpt>
      <trkpt lat="47.51215" lon="6.77171">
        <ele>376</ele>
        <time>2016-12-11T11:20:28.999Z</time>
      </trkpt>
      <trkpt lat="47.51217" lon="6.77175">
        <ele>376</ele>
        <time>2016-12-11T11:20:29.999Z</time>
      </trkpt>
      <trkpt lat="47.51219" lon="6.77179">
        <ele>376</ele>
        <time>2016-12-11T11:20:30.999Z</time>
      </trkpt>
      <trkpt lat="47.51221" lon="6.77184">
        <ele>376</ele>
        <time>2016-12-11T11:20:31.999Z</time>
      </trkpt>
      <trkpt lat="47.51223" lon="6.77189">
        <ele>376</ele>
        <time>2016-12-11T11:20:32.999Z</time>
      </trkpt>
      <trkpt lat="47.51226" lon="6.77193">
        <ele>376</ele>
        <time>2016-12-11T11:20:33.999Z</time>
      </trkpt>
      <trkpt lat="47.51228" lon="6.77198">
        <ele>376</ele>
        <time>2016-12-11T11:20:34.999Z</time>
      </trkpt>
      <trkpt lat="47.51229" lon="6.77201">
        <ele>376</ele>
        <time>2016-12-11T11:20:35.999Z</time>
      </trkpt>
      <trkpt lat="47.51231" lon="6.77206">
        <ele>376</ele>
        <time>2016-12-11T11:20:36.999Z</time>
      </trkpt>
      <trkpt lat="47.51233" lon="6.77211">
        <ele>376</ele>
        <time>2016-12-11T11:20:37.999Z</time>
      </trkpt>
      <trkpt lat="47.51235" lon="6.77215">
        <ele>376</ele>
        <time>2016-12-11T11:20:38.999Z</time>
      </trkpt>
      <trkpt lat="47.51236" lon="6.77218">
        <ele>376</ele>
        <time>2016-12-11T11:20:39.999Z</time>
      </trkpt>
      <trkpt lat="47.51238" lon="6.77222">
        <ele>376</ele>
        <time>2016-12-11T11:20:40.999Z</time>
      </trkpt>
      <trkpt lat="47.5124" lon="6.77225">
        <ele>376</ele>
        <time>2016-12-11T11:20:41.999Z</time>
      </trkpt>
      <trkpt lat="47.51242" lon="6.77228">
        <ele>376</ele>
        <time>2016-12-11T11:20:42.999Z</time>
      </trkpt>
      <trkpt lat="47.51244" lon="6.77232">
        <ele>377</ele>
        <time>2016-12-11T11:20:43.999Z</time>
      </trkpt>
      <trkpt lat="47.51246" lon="6.77235">
        <ele>377</ele>
        <time>2016-12-11T11:20:44.999Z</time>
      </trkpt>
      <trkpt lat="47.51248" lon="6.77239">
        <ele>377</ele>
        <time>2016-12-11T11:20:45.999Z</time>
      </trkpt>
      <trkpt lat="47.51251" lon="6.77243">
        <ele>379</ele>
        <time>2016-12-11T11:20:46.999Z</time>
      </trkpt>
      <trkpt lat="47.51254" lon="6.77249">
        <ele>379</ele>
        <time>2016-12-11T11:20:47.999Z</time>
      </trkpt>
      <trkpt lat="47.51256" lon="6.77254">
        <ele>378</ele>
        <time>2016-12-11T11:20:48.999Z</time>
      </trkpt>
      <trkpt lat="47.51259" lon="6.77257">
        <ele>378</ele>
        <time>2016-12-11T11:20:49.999Z</time>
      </trkpt>
      <trkpt lat="47.51262" lon="6.77261">
        <ele>378</ele>
        <time>2016-12-11T11:20:50.999Z</time>
      </trkpt>
      <trkpt lat="47.51266" lon="6.77264">
        <ele>377</ele>
        <time>2016-12-11T11:20:51.999Z</time>
      </trkpt>
      <trkpt lat="47.51269" lon="6.77266">
        <ele>377</ele>
        <time>2016-12-11T11:20:52.999Z</time>
      </trkpt>
      <trkpt lat="47.51272" lon="6.77267">
        <ele>377</ele>
        <time>2016-12-11T11:20:53.999Z</time>
      </trkpt>
      <trkpt lat="47.51275" lon="6.7727">
        <ele>377</ele>
        <time>2016-12-11T11:20:54.999Z</time>
      </trkpt>
      <trkpt lat="47.51279" lon="6.77272">
        <ele>377</ele>
        <time>2016-12-11T11:20:55.999Z</time>
      </trkpt>
      <trkpt lat="47.51283" lon="6.77274">
        <ele>377</ele>
        <time>2016-12-11T11:20:56.999Z</time>
      </trkpt>
      <trkpt lat="47.51288" lon="6.77276">
        <ele>377</ele>
        <time>2016-12-11T11:20:57.999Z</time>
      </trkpt>
      <trkpt lat="47.51292" lon="6.77279">
        <ele>377</ele>
        <time>2016-12-11T11:20:58.999Z</time>
      </trkpt>
      <trkpt lat="47.51296" lon="6.77281">
        <ele>377</ele>
        <time>2016-12-11T11:20:59.999Z</time>
      </trkpt>
      <trkpt lat="47.51302" lon="6.77283">
        <ele>377</ele>
        <time>2016-12-11T11:21:00.999Z</time>
      </trkpt>
      <trkpt lat="47.51308" lon="6.77286">
        <ele>377</ele>
        <time>2016-12-11T11:21:01.999Z</time>
      </trkpt>
      <trkpt lat="47.51313" lon="6.77289">
        <ele>377</ele>
        <time>2016-12-11T11:21:02.999Z</time>
      </trkpt>
      <trkpt lat="47.51318" lon="6.7729">
        <ele>377</ele>
        <time>2016-12-11T11:21:03.999Z</time>
      </trkpt>
      <trkpt lat="47.51323" lon="6.77292">
        <ele>378</ele>
        <time>2016-12-11T11:21:04.999Z</time>
      </trkpt>
      <trkpt lat="47.51329" lon="6.7729">
        <ele>378</ele>
        <time>2016-12-11T11:21:05.999Z</time>
      </trkpt>
      <trkpt lat="47.51334" lon="6.77289">
        <ele>378</ele>
        <time>2016-12-11T11:21:06.999Z</time>
      </trkpt>
      <trkpt lat="47.5134" lon="6.77286">
        <ele>378</ele>
        <time>2016-12-11T11:21:07.999Z</time>
      </trkpt>
      <trkpt lat="47.51347" lon="6.77281">
        <ele>378</ele>
        <time>2016-12-11T11:21:08.999Z</time>
      </trkpt>
      <trkpt lat="47.51353" lon="6.77276">
        <ele>378</ele>
        <time>2016-12-11T11:21:09.999Z</time>
      </trkpt>
      <trkpt lat="47.5136" lon="6.7727">
        <ele>378</ele>
        <time>2016-12-11T11:21:10.999Z</time>
      </trkpt>
      <trkpt lat="47.51367" lon="6.77264">
        <ele>378</ele>
        <time>2016-12-11T11:21:11.999Z</time>
      </trkpt>
      <trkpt lat="47.51374" lon="6.77258">
        <ele>378</ele>
        <time>2016-12-11T11:21:12.999Z</time>
      </trkpt>
      <trkpt lat="47.5138" lon="6.77253">
        <ele>377</ele>
        <time>2016-12-11T11:21:13.999Z</time>
      </trkpt>
      <trkpt lat="47.51387" lon="6.77248">
        <ele>376</ele>
        <time>2016-12-11T11:21:14.999Z</time>
      </trkpt>
      <trkpt lat="47.51394" lon="6.77243">
        <ele>376</ele>
        <time>2016-12-11T11:21:15.999Z</time>
      </trkpt>
      <trkpt lat="47.514" lon="6.77239">
        <ele>376</ele>
        <time>2016-12-11T11:21:16.999Z</time>
      </trkpt>
      <trkpt lat="47.51408" lon="6.77234">
        <ele>376</ele>
        <time>2016-12-11T11:21:17.999Z</time>
      </trkpt>
      <trkpt lat="47.51415" lon="6.7723">
        <ele>376</ele>
        <time>2016-12-11T11:21:18.999Z</time>
      </trkpt>
      <trkpt lat="47.51422" lon="6.77226">
        <ele>375</ele>
        <time>2016-12-11T11:21:19.999Z</time>
      </trkpt>
      <trkpt lat="47.51429" lon="6.77222">
        <ele>375</ele>
        <time>2016-12-11T11:21:20.999Z</time>
      </trkpt>
      <trkpt lat="47.51437" lon="6.77219">
        <ele>375</ele>
        <time>2016-12-11T11:21:21.999Z</time>
      </trkpt>
      <trkpt lat="47.51443" lon="6.77216">
        <ele>375</ele>
        <time>2016-12-11T11:21:22.999Z</time>
      </trkpt>
      <trkpt lat="47.51448" lon="6.77213">
        <ele>375</ele>
        <time>2016-12-11T11:21:23.999Z</time>
      </trkpt>
      <trkpt lat="47.51454" lon="6.7721">
        <ele>375</ele>
        <time>2016-12-11T11:21:24.999Z</time>
      </trkpt>
      <trkpt lat="47.51459" lon="6.77208">
        <ele>375</ele>
        <time>2016-12-11T11:21:25.999Z</time>
      </trkpt>
      <trkpt lat="47.51466" lon="6.77205">
        <ele>375</ele>
        <time>2016-12-11T11:21:26.999Z</time>
      </trkpt>
      <trkpt lat="47.51471" lon="6.77203">
        <ele>375</ele>
        <time>2016-12-11T11:21:27.999Z</time>
      </trkpt>
      <trkpt lat="47.51475" lon="6.77202">
        <ele>375</ele>
        <time>2016-12-11T11:21:28.999Z</time>
      </trkpt>
      <trkpt lat="47.51479" lon="6.77203">
        <ele>375</ele>
        <time>2016-12-11T11:21:29.999Z</time>
      </trkpt>
      <trkpt lat="47.51482" lon="6.77206">
        <ele>375</ele>
        <time>2016-12-11T11:21:30.999Z</time>
      </trkpt>
      <trkpt lat="47.51485" lon="6.77212">
        <ele>375</ele>
        <time>2016-12-11T11:21:31.999Z</time>
      </trkpt>
      <trkpt lat="47.51485" lon="6.77217">
        <ele>375</ele>
        <time>2016-12-11T11:21:32.999Z</time>
      </trkpt>
      <trkpt lat="47.51485" lon="6.77224">
        <ele>375</ele>
        <time>2016-12-11T11:21:33.999Z</time>
      </trkpt>
      <trkpt lat="47.51485" lon="6.77231">
        <ele>375</ele>
        <time>2016-12-11T11:21:34.999Z</time>
      </trkpt>
      <trkpt lat="47.51485" lon="6.77238">
        <ele>375</ele>
        <time>2016-12-11T11:21:35.999Z</time>
      </trkpt>
      <trkpt lat="47.51485" lon="6.77245">
        <ele>376</ele>
        <time>2016-12-11T11:21:36.999Z</time>
      </trkpt>
      <trkpt lat="47.51485" lon="6.77253">
        <ele>376</ele>
        <time>2016-12-11T11:21:37.999Z</time>
      </trkpt>
      <trkpt lat="47.51486" lon="6.77263">
        <ele>376</ele>
        <time>2016-12-11T11:21:38.999Z</time>
      </trkpt>
      <trkpt lat="47.51487" lon="6.7727">
        <ele>377</ele>
        <time>2016-12-11T11:21:39.999Z</time>
      </trkpt>
      <trkpt lat="47.51487" lon="6.77278">
        <ele>377</ele>
        <time>2016-12-11T11:21:40.999Z</time>
      </trkpt>
      <trkpt lat="47.51488" lon="6.77286">
        <ele>377</ele>
        <time>2016-12-11T11:21:41.999Z</time>
      </trkpt>
      <trkpt lat="47.51488" lon="6.77294">
        <ele>377</ele>
        <time>2016-12-11T11:21:42.999Z</time>
      </trkpt>
      <trkpt lat="47.51489" lon="6.77304">
        <ele>377</ele>
        <time>2016-12-11T11:21:43.999Z</time>
      </trkpt>
      <trkpt lat="47.5149" lon="6.77311">
        <ele>377</ele>
        <time>2016-12-11T11:21:44.999Z</time>
      </trkpt>
      <trkpt lat="47.51494" lon="6.77318">
        <ele>377</ele>
        <time>2016-12-11T11:21:45.999Z</time>
      </trkpt>
      <trkpt lat="47.51497" lon="6.77321">
        <ele>377</ele>
        <time>2016-12-11T11:21:46.999Z</time>
      </trkpt>
      <trkpt lat="47.515" lon="6.77325">
        <ele>378</ele>
        <time>2016-12-11T11:21:47.999Z</time>
      </trkpt>
      <trkpt lat="47.51504" lon="6.77328">
        <ele>378</ele>
        <time>2016-12-11T11:21:48.999Z</time>
      </trkpt>
      <trkpt lat="47.51508" lon="6.77332">
        <ele>378</ele>
        <time>2016-12-11T11:21:49.999Z</time>
      </trkpt>
      <trkpt lat="47.51513" lon="6.77335">
        <ele>379</ele>
        <time>2016-12-11T11:21:50.999Z</time>
      </trkpt>
      <trkpt lat="47.51516" lon="6.77338">
        <ele>379</ele>
        <time>2016-12-11T11:21:51.999Z</time>
      </trkpt>
      <trkpt lat="47.51519" lon="6.7734">
        <ele>379</ele>
        <time>2016-12-11T11:21:52.999Z</time>
      </trkpt>
      <trkpt lat="47.51522" lon="6.77342">
        <ele>380</ele>
        <time>2016-12-11T11:21:53.999Z</time>
      </trkpt>
      <trkpt lat="47.51524" lon="6.77344">
        <ele>380</ele>
        <time>2016-12-11T11:21:54.999Z</time>
      </trkpt>
      <trkpt lat="47.51526" lon="6.77347">
        <ele>380</ele>
        <time>2016-12-11T11:21:55.999Z</time>
      </trkpt>
      <trkpt lat="47.51529" lon="6.7735">
        <ele>380</ele>
        <time>2016-12-11T11:21:56.999Z</time>
      </trkpt>
      <trkpt lat="47.51532" lon="6.77352">
        <ele>380</ele>
        <time>2016-12-11T11:21:57.999Z</time>
      </trkpt>
      <trkpt lat="47.51534" lon="6.77355">
        <ele>380</ele>
        <time>2016-12-11T11:21:58.999Z</time>
      </trkpt>
      <trkpt lat="47.51536" lon="6.77357">
        <ele>380</ele>
        <time>2016-12-11T11:21:59.999Z</time>
      </trkpt>
      <trkpt lat="47.51538" lon="6.77359">
        <ele>380</ele>
        <time>2016-12-11T11:22:00.999Z</time>
      </trkpt>
      <trkpt lat="47.51539" lon="6.77362">
        <ele>380</ele>
        <time>2016-12-11T11:22:01.999Z</time>
      </trkpt>
      <trkpt lat="47.51541" lon="6.77365">
        <ele>380</ele>
        <time>2016-12-11T11:22:02.999Z</time>
      </trkpt>
      <trkpt lat="47.51542" lon="6.77368">
        <ele>380</ele>
        <time>2016-12-11T11:22:03.999Z</time>
      </trkpt>
      <trkpt lat="47.51544" lon="6.77371">
        <ele>380</ele>
        <time>2016-12-11T11:22:04.999Z</time>
      </trkpt>
      <trkpt lat="47.51547" lon="6.77374">
        <ele>381</ele>
        <time>2016-12-11T11:22:05.999Z</time>
      </trkpt>
      <trkpt lat="47.51549" lon="6.77377">
        <ele>381</ele>
        <time>2016-12-11T11:22:06.999Z</time>
      </trkpt>
      <trkpt lat="47.51551" lon="6.77379">
        <ele>381</ele>
        <time>2016-12-11T11:22:07.999Z</time>
      </trkpt>
      <trkpt lat="47.51553" lon="6.77381">
        <ele>381</ele>
        <time>2016-12-11T11:22:08.999Z</time>
      </trkpt>
      <trkpt lat="47.51555" lon="6.77383">
        <ele>381</ele>
        <time>2016-12-11T11:22:09.999Z</time>
      </trkpt>
      <trkpt lat="47.51557" lon="6.77386">
        <ele>381</ele>
        <time>2016-12-11T11:22:10.999Z</time>
      </trkpt>
      <trkpt lat="47.51558" lon="6.77389">
        <ele>381</ele>
        <time>2016-12-11T11:22:11.999Z</time>
      </trkpt>
      <trkpt lat="47.5156" lon="6.77391">
        <ele>381</ele>
        <time>2016-12-11T11:22:12.999Z</time>
      </trkpt>
      <trkpt lat="47.51563" lon="6.77394">
        <ele>381</ele>
        <time>2016-12-11T11:22:13.999Z</time>
      </trkpt>
      <trkpt lat="47.51566" lon="6.77396">
        <ele>381</ele>
        <time>2016-12-11T11:22:14.999Z</time>
      </trkpt>
      <trkpt lat="47.51568" lon="6.77399">
        <ele>381</ele>
        <time>2016-12-11T11:22:15.999Z</time>
      </trkpt>
      <trkpt lat="47.5157" lon="6.77401">
        <ele>382</ele>
        <time>2016-12-11T11:22:16.999Z</time>
      </trkpt>
      <trkpt lat="47.51572" lon="6.77404">
        <ele>382</ele>
        <time>2016-12-11T11:22:17.999Z</time>
      </trkpt>
      <trkpt lat="47.51574" lon="6.77407">
        <ele>382</ele>
        <time>2016-12-11T11:22:18.999Z</time>
      </trkpt>
      <trkpt lat="47.51577" lon="6.7741">
        <ele>382</ele>
        <time>2016-12-11T11:22:19.999Z</time>
      </trkpt>
      <trkpt lat="47.5158" lon="6.77414">
        <ele>383</ele>
        <time>2016-12-11T11:22:20.999Z</time>
      </trkpt>
      <trkpt lat="47.51582" lon="6.77416">
        <ele>383</ele>
        <time>2016-12-11T11:22:21.999Z</time>
      </trkpt>
      <trkpt lat="47.51583" lon="6.77418">
        <ele>383</ele>
        <time>2016-12-11T11:22:22.999Z</time>
      </trkpt>
      <trkpt lat="47.51585" lon="6.7742">
        <ele>383</ele>
        <time>2016-12-11T11:22:23.999Z</time>
      </trkpt>
      <trkpt lat="47.51588" lon="6.77423">
        <ele>384</ele>
        <time>2016-12-11T11:22:24.999Z</time>
      </trkpt>
      <trkpt lat="47.5159" lon="6.77425">
        <ele>384</ele>
        <time>2016-12-11T11:22:25.999Z</time>
      </trkpt>
      <trkpt lat="47.51592" lon="6.77428">
        <ele>384</ele>
        <time>2016-12-11T11:22:26.999Z</time>
      </trkpt>
      <trkpt lat="47.51594" lon="6.7743">
        <ele>384</ele>
        <time>2016-12-11T11:22:27.999Z</time>
      </trkpt>
      <trkpt lat="47.51596" lon="6.77432">
        <ele>384</ele>
        <time>2016-12-11T11:22:28.999Z</time>
      </trkpt>
      <trkpt lat="47.51598" lon="6.77434">
        <ele>385</ele>
        <time>2016-12-11T11:22:29.999Z</time>
      </trkpt>
      <trkpt lat="47.516" lon="6.77437">
        <ele>385</ele>
        <time>2016-12-11T11:22:30.999Z</time>
      </trkpt>
      <trkpt lat="47.51602" lon="6.77439">
        <ele>385</ele>
        <time>2016-12-11T11:22:31.999Z</time>
      </trkpt>
      <trkpt lat="47.51604" lon="6.77441">
        <ele>385</ele>
        <time>2016-12-11T11:22:32.999Z</time>
      </trkpt>
      <trkpt lat="47.51607" lon="6.77444">
        <ele>385</ele>
        <time>2016-12-11T11:22:33.999Z</time>
      </trkpt>
      <trkpt lat="47.5161" lon="6.77447">
        <ele>385</ele>
        <time>2016-12-11T11:22:34.999Z</time>
      </trkpt>
      <trkpt lat="47.51612" lon="6.7745">
        <ele>385</ele>
        <time>2016-12-11T11:22:35.999Z</time>
      </trkpt>
      <trkpt lat="47.51614" lon="6.77453">
        <ele>385</ele>
        <time>2016-12-11T11:22:36.999Z</time>
      </trkpt>
      <trkpt lat="47.51616" lon="6.77456">
        <ele>386</ele>
        <time>2016-12-11T11:22:37.999Z</time>
      </trkpt>
      <trkpt lat="47.51617" lon="6.77459">
        <ele>386</ele>
        <time>2016-12-11T11:22:38.999Z</time>
      </trkpt>
      <trkpt lat="47.51618" lon="6.77461">
        <ele>386</ele>
        <time>2016-12-11T11:22:39.999Z</time>
      </trkpt>
      <trkpt lat="47.5162" lon="6.77465">
        <ele>386</ele>
        <time>2016-12-11T11:22:40.999Z</time>
      </trkpt>
      <trkpt lat="47.51622" lon="6.77468">
        <ele>386</ele>
        <time>2016-12-11T11:22:41.999Z</time>
      </trkpt>
      <trkpt lat="47.51623" lon="6.77471">
        <ele>386</ele>
        <time>2016-12-11T11:22:42.999Z</time>
      </trkpt>
      <trkpt lat="47.51625" lon="6.77473">
        <ele>386</ele>
        <time>2016-12-11T11:22:43.999Z</time>
      </trkpt>
      <trkpt lat="47.51627" lon="6.77475">
        <ele>386</ele>
        <time>2016-12-11T11:22:44.999Z</time>
      </trkpt>
      <trkpt lat="47.51629" lon="6.77478">
        <ele>386</ele>
        <time>2016-12-11T11:22:45.999Z</time>
      </trkpt>
      <trkpt lat="47.51632" lon="6.77481">
        <ele>386</ele>
        <time>2016-12-11T11:22:46.999Z</time>
      </trkpt>
      <trkpt lat="47.51634" lon="6.77484">
        <ele>386</ele>
        <time>2016-12-11T11:22:47.999Z</time>
      </trkpt>
      <trkpt lat="47.51636" lon="6.77486">
        <ele>386</ele>
        <time>2016-12-11T11:22:48.999Z</time>
      </trkpt>
      <trkpt lat="47.51637" lon="6.77489">
        <ele>387</ele>
        <time>2016-12-11T11:22:49.999Z</time>
      </trkpt>
      <trkpt lat="47.51639" lon="6.77491">
        <ele>387</ele>
        <time>2016-12-11T11:22:50.999Z</time>
      </trkpt>
      <trkpt lat="47.51641" lon="6.77494">
        <ele>387</ele>
        <time>2016-12-11T11:22:51.999Z</time>
      </trkpt>
      <trkpt lat="47.51644" lon="6.77497">
        <ele>387</ele>
        <time>2016-12-11T11:22:52.999Z</time>
      </trkpt>
      <trkpt lat="47.51647" lon="6.775">
        <ele>387</ele>
        <time>2016-12-11T11:22:53.999Z</time>
      </trkpt>
      <trkpt lat="47.51649" lon="6.77503">
        <ele>388</ele>
        <time>2016-12-11T11:22:54.999Z</time>
      </trkpt>
      <trkpt lat="47.51651" lon="6.77506">
        <ele>388</ele>
        <time>2016-12-11T11:22:55.999Z</time>
      </trkpt>
      <trkpt lat="47.51653" lon="6.77508">
        <ele>388</ele>
        <time>2016-12-11T11:22:56.999Z</time>
      </trkpt>
      <trkpt lat="47.51656" lon="6.77511">
        <ele>388</ele>
        <time>2016-12-11T11:22:57.999Z</time>
      </trkpt>
      <trkpt lat="47.51658" lon="6.77513">
        <ele>388</ele>
        <time>2016-12-11T11:22:58.999Z</time>
      </trkpt>
      <trkpt lat="47.5166" lon="6.77516">
        <ele>388</ele>
        <time>2016-12-11T11:22:59.999Z</time>
      </trkpt>
      <trkpt lat="47.51662" lon="6.77518">
        <ele>388</ele>
        <time>2016-12-11T11:23:00.999Z</time>
      </trkpt>
      <trkpt lat="47.51664" lon="6.77521">
        <ele>388</ele>
        <time>2016-12-11T11:23:01.999Z</time>
      </trkpt>
      <trkpt lat="47.51667" lon="6.77523">
        <ele>388</ele>
        <time>2016-12-11T11:23:02.999Z</time>
      </trkpt>
      <trkpt lat="47.51669" lon="6.77525">
        <ele>390</ele>
        <time>2016-12-11T11:23:03.999Z</time>
      </trkpt>
      <trkpt lat="47.51671" lon="6.77528">
        <ele>390</ele>
        <time>2016-12-11T11:23:04.999Z</time>
      </trkpt>
      <trkpt lat="47.51674" lon="6.77531">
        <ele>390</ele>
        <time>2016-12-11T11:23:05.999Z</time>
      </trkpt>
      <trkpt lat="47.51676" lon="6.77532">
        <ele>390</ele>
        <time>2016-12-11T11:23:06.999Z</time>
      </trkpt>
      <trkpt lat="47.51677" lon="6.77535">
        <ele>390</ele>
        <time>2016-12-11T11:23:07.999Z</time>
      </trkpt>
      <trkpt lat="47.51679" lon="6.77538">
        <ele>390</ele>
        <time>2016-12-11T11:23:08.999Z</time>
      </trkpt>
      <trkpt lat="47.51681" lon="6.77539">
        <ele>390</ele>
        <time>2016-12-11T11:23:09.999Z</time>
      </trkpt>
      <trkpt lat="47.51684" lon="6.77541">
        <ele>390</ele>
        <time>2016-12-11T11:23:10.999Z</time>
      </trkpt>
      <trkpt lat="47.51686" lon="6.77545">
        <ele>390</ele>
        <time>2016-12-11T11:23:11.999Z</time>
      </trkpt>
      <trkpt lat="47.51688" lon="6.77548">
        <ele>390</ele>
        <time>2016-12-11T11:23:12.999Z</time>
      </trkpt>
      <trkpt lat="47.51691" lon="6.77551">
        <ele>390</ele>
        <time>2016-12-11T11:23:13.999Z</time>
      </trkpt>
      <trkpt lat="47.51693" lon="6.77553">
        <ele>390</ele>
        <time>2016-12-11T11:23:14.999Z</time>
      </trkpt>
      <trkpt lat="47.51696" lon="6.77555">
        <ele>390</ele>
        <time>2016-12-11T11:23:15.999Z</time>
      </trkpt>
      <trkpt lat="47.51698" lon="6.77557">
        <ele>390</ele>
        <time>2016-12-11T11:23:16.999Z</time>
      </trkpt>
      <trkpt lat="47.51701" lon="6.77558">
        <ele>390</ele>
        <time>2016-12-11T11:23:17.999Z</time>
      </trkpt>
      <trkpt lat="47.51704" lon="6.77558">
        <ele>390</ele>
        <time>2016-12-11T11:23:18.999Z</time>
      </trkpt>
      <trkpt lat="47.51706" lon="6.77556">
        <ele>390</ele>
        <time>2016-12-11T11:23:19.999Z</time>
      </trkpt>
      <trkpt lat="47.51708" lon="6.77553">
        <ele>390</ele>
        <time>2016-12-11T11:23:20.999Z</time>
      </trkpt>
      <trkpt lat="47.5171" lon="6.77551">
        <ele>390</ele>
        <time>2016-12-11T11:23:21.999Z</time>
      </trkpt>
      <trkpt lat="47.51713" lon="6.77549">
        <ele>390</ele>
        <time>2016-12-11T11:23:22.999Z</time>
      </trkpt>
      <trkpt lat="47.51715" lon="6.77546">
        <ele>390</ele>
        <time>2016-12-11T11:23:23.999Z</time>
      </trkpt>
      <trkpt lat="47.51716" lon="6.77541">
        <ele>390</ele>
        <time>2016-12-11T11:23:24.999Z</time>
      </trkpt>
      <trkpt lat="47.51717" lon="6.77537">
        <ele>390</ele>
        <time>2016-12-11T11:23:25.999Z</time>
      </trkpt>
      <trkpt lat="47.5172" lon="6.77534">
        <ele>390</ele>
        <time>2016-12-11T11:23:26.999Z</time>
      </trkpt>
      <trkpt lat="47.51723" lon="6.77528">
        <ele>390</ele>
        <time>2016-12-11T11:23:27.999Z</time>
      </trkpt>
      <trkpt lat="47.51724" lon="6.77523">
        <ele>390</ele>
        <time>2016-12-11T11:23:28.999Z</time>
      </trkpt>
      <trkpt lat="47.51726" lon="6.77517">
        <ele>390</ele>
        <time>2016-12-11T11:23:29.999Z</time>
      </trkpt>
      <trkpt lat="47.51727" lon="6.77513">
        <ele>390</ele>
        <time>2016-12-11T11:23:30.999Z</time>
      </trkpt>
      <trkpt lat="47.51728" lon="6.77509">
        <ele>390</ele>
        <time>2016-12-11T11:23:31.999Z</time>
      </trkpt>
      <trkpt lat="47.51728" lon="6.77503">
        <ele>390</ele>
        <time>2016-12-11T11:23:32.999Z</time>
      </trkpt>
      <trkpt lat="47.51728" lon="6.77498">
        <ele>389</ele>
        <time>2016-12-11T11:23:33.999Z</time>
      </trkpt>
      <trkpt lat="47.5173" lon="6.77493">
        <ele>389</ele>
        <time>2016-12-11T11:23:34.999Z</time>
      </trkpt>
      <trkpt lat="47.51731" lon="6.77489">
        <ele>389</ele>
        <time>2016-12-11T11:23:35.999Z</time>
      </trkpt>
      <trkpt lat="47.51733" lon="6.77483">
        <ele>389</ele>
        <time>2016-12-11T11:23:36.999Z</time>
      </trkpt>
      <trkpt lat="47.51736" lon="6.7748">
        <ele>389</ele>
        <time>2016-12-11T11:23:37.999Z</time>
      </trkpt>
      <trkpt lat="47.51739" lon="6.7748">
        <ele>389</ele>
        <time>2016-12-11T11:23:38.999Z</time>
      </trkpt>
      <trkpt lat="47.51742" lon="6.77482">
        <ele>389</ele>
        <time>2016-12-11T11:23:39.999Z</time>
      </trkpt>
      <trkpt lat="47.51745" lon="6.77483">
        <ele>389</ele>
        <time>2016-12-11T11:23:40.999Z</time>
      </trkpt>
      <trkpt lat="47.51748" lon="6.77483">
        <ele>389</ele>
        <time>2016-12-11T11:23:41.999Z</time>
      </trkpt>
      <trkpt lat="47.51752" lon="6.77482">
        <ele>389</ele>
        <time>2016-12-11T11:23:42.999Z</time>
      </trkpt>
      <trkpt lat="47.51756" lon="6.77482">
        <ele>389</ele>
        <time>2016-12-11T11:23:43.999Z</time>
      </trkpt>
      <trkpt lat="47.51761" lon="6.77483">
        <ele>389</ele>
        <time>2016-12-11T11:23:44.999Z</time>
      </trkpt>
      <trkpt lat="47.51765" lon="6.77483">
        <ele>389</ele>
        <time>2016-12-11T11:23:45.999Z</time>
      </trkpt>
      <trkpt lat="47.51769" lon="6.77484">
        <ele>389</ele>
        <time>2016-12-11T11:23:46.999Z</time>
      </trkpt>
      <trkpt lat="47.51774" lon="6.77485">
        <ele>388</ele>
        <time>2016-12-11T11:23:47.999Z</time>
      </trkpt>
      <trkpt lat="47.51778" lon="6.77486">
        <ele>388</ele>
        <time>2016-12-11T11:23:48.999Z</time>
      </trkpt>
      <trkpt lat="47.51782" lon="6.77487">
        <ele>388</ele>
        <time>2016-12-11T11:23:49.999Z</time>
      </trkpt>
      <trkpt lat="47.51787" lon="6.77489">
        <ele>388</ele>
        <time>2016-12-11T11:23:50.999Z</time>
      </trkpt>
      <trkpt lat="47.51791" lon="6.77491">
        <ele>388</ele>
        <time>2016-12-11T11:23:51.999Z</time>
      </trkpt>
      <trkpt lat="47.51796" lon="6.77493">
        <ele>388</ele>
        <time>2016-12-11T11:23:52.999Z</time>
      </trkpt>
      <trkpt lat="47.518" lon="6.77494">
        <ele>388</ele>
        <time>2016-12-11T11:23:53.999Z</time>
      </trkpt>
      <trkpt lat="47.51804" lon="6.77495">
        <ele>388</ele>
        <time>2016-12-11T11:23:54.999Z</time>
      </trkpt>
      <trkpt lat="47.51807" lon="6.77495">
        <ele>388</ele>
        <time>2016-12-11T11:23:55.999Z</time>
      </trkpt>
      <trkpt lat="47.51809" lon="6.77492">
        <ele>388</ele>
        <time>2016-12-11T11:23:56.999Z</time>
      </trkpt>
      <trkpt lat="47.51808" lon="6.77485">
        <ele>388</ele>
        <time>2016-12-11T11:23:58.999Z</time>
      </trkpt>
      <trkpt lat="47.51809" lon="6.77483">
        <ele>388</ele>
        <time>2016-12-11T11:23:59.999Z</time>
      </trkpt>
      <trkpt lat="47.51809" lon="6.7748">
        <ele>388</ele>
        <time>2016-12-11T11:24:21.999Z</time>
      </trkpt>
      <trkpt lat="47.51812" lon="6.77491">
        <ele>388</ele>
        <time>2016-12-11T11:24:22.999Z</time>
      </trkpt>
      <trkpt lat="47.51809" lon="6.77495">
        <ele>388</ele>
        <time>2016-12-11T11:24:24.999Z</time>
      </trkpt>
      <trkpt lat="47.51806" lon="6.77495">
        <ele>388</ele>
        <time>2016-12-11T11:24:25.999Z</time>
      </trkpt>
      <trkpt lat="47.51802" lon="6.77495">
        <ele>388</ele>
        <time>2016-12-11T11:24:27.999Z</time>
      </trkpt>
      <trkpt lat="47.518" lon="6.77494">
        <ele>388</ele>
        <time>2016-12-11T11:24:28.999Z</time>
      </trkpt>
      <trkpt lat="47.51796" lon="6.77492">
        <ele>388</ele>
        <time>2016-12-11T11:24:30.999Z</time>
      </trkpt>
      <trkpt lat="47.51795" lon="6.77493">
        <ele>388</ele>
        <time>2016-12-11T11:24:31.999Z</time>
      </trkpt>
      <trkpt lat="47.51796" lon="6.77496">
        <ele>388</ele>
        <time>2016-12-11T11:24:32.999Z</time>
      </trkpt>
      <trkpt lat="47.51799" lon="6.77496">
        <ele>388</ele>
        <time>2016-12-11T11:24:33.999Z</time>
      </trkpt>
      <trkpt lat="47.51803" lon="6.77497">
        <ele>388</ele>
        <time>2016-12-11T11:24:34.999Z</time>
      </trkpt>
      <trkpt lat="47.51807" lon="6.77494">
        <ele>388</ele>
        <time>2016-12-11T11:24:35.999Z</time>
      </trkpt>
      <trkpt lat="47.51807" lon="6.77488">
        <ele>388</ele>
        <time>2016-12-11T11:24:36.999Z</time>
      </trkpt>
      <trkpt lat="47.51806" lon="6.7748">
        <ele>388</ele>
        <time>2016-12-11T11:24:37.999Z</time>
      </trkpt>
      <trkpt lat="47.51806" lon="6.77474">
        <ele>388</ele>
        <time>2016-12-11T11:24:38.999Z</time>
      </trkpt>
      <trkpt lat="47.51806" lon="6.77469">
        <ele>388</ele>
        <time>2016-12-11T11:24:39.999Z</time>
      </trkpt>
      <trkpt lat="47.51805" lon="6.77464">
        <ele>388</ele>
        <time>2016-12-11T11:24:40.999Z</time>
      </trkpt>
      <trkpt lat="47.51805" lon="6.77461">
        <ele>388</ele>
        <time>2016-12-11T11:24:41.999Z</time>
      </trkpt>
      <trkpt lat="47.51804" lon="6.77461">
        <ele>388</ele>
        <time>2016-12-11T11:25:02.999Z</time>
      </trkpt>
      <trkpt lat="47.5181" lon="6.77481">
        <ele>388</ele>
        <time>2016-12-11T11:25:03.999Z</time>
      </trkpt>
      <trkpt lat="47.5181" lon="6.77481">
        <ele>388</ele>
        <time>2016-12-11T11:25:04.999Z</time>
      </trkpt>
      <trkpt lat="47.5181" lon="6.7749">
        <ele>388</ele>
        <time>2016-12-11T11:25:05.999Z</time>
      </trkpt>
      <trkpt lat="47.5181" lon="6.77495">
        <ele>388</ele>
        <time>2016-12-11T11:25:06.999Z</time>
      </trkpt>
      <trkpt lat="47.51808" lon="6.77498">
        <ele>388</ele>
        <time>2016-12-11T11:25:07.999Z</time>
      </trkpt>
      <trkpt lat="47.51805" lon="6.77499">
        <ele>388</ele>
        <time>2016-12-11T11:25:08.999Z</time>
      </trkpt>
      <trkpt lat="47.51801" lon="6.77496">
        <ele>388</ele>
        <time>2016-12-11T11:25:09.999Z</time>
      </trkpt>
      <trkpt lat="47.51798" lon="6.77493">
        <ele>388</ele>
        <time>2016-12-11T11:25:10.999Z</time>
      </trkpt>
      <trkpt lat="47.51796" lon="6.77491">
        <ele>388</ele>
        <time>2016-12-11T11:25:11.999Z</time>
      </trkpt>
      <trkpt lat="47.51795" lon="6.77496">
        <ele>388</ele>
        <time>2016-12-11T11:25:14.999Z</time>
      </trkpt>
      <trkpt lat="47.518" lon="6.77497">
        <ele>388</ele>
        <time>2016-12-11T11:25:15.999Z</time>
      </trkpt>
      <trkpt lat="47.51805" lon="6.77498">
        <ele>388</ele>
        <time>2016-12-11T11:25:16.999Z</time>
      </trkpt>
      <trkpt lat="47.51808" lon="6.77492">
        <ele>388</ele>
        <time>2016-12-11T11:25:17.999Z</time>
      </trkpt>
      <trkpt lat="47.51809" lon="6.77484">
        <ele>388</ele>
        <time>2016-12-11T11:25:18.999Z</time>
      </trkpt>
      <trkpt lat="47.51809" lon="6.77477">
        <ele>388</ele>
        <time>2016-12-11T11:25:19.999Z</time>
      </trkpt>
      <trkpt lat="47.5181" lon="6.7747">
        <ele>388</ele>
        <time>2016-12-11T11:25:20.999Z</time>
      </trkpt>
      <trkpt lat="47.51809" lon="6.77466">
        <ele>388</ele>
        <time>2016-12-11T11:25:21.999Z</time>
      </trkpt>
      <trkpt lat="47.51807" lon="6.77463">
        <ele>388</ele>
        <time>2016-12-11T11:25:33.999Z</time>
      </trkpt>
      <trkpt lat="47.51808" lon="6.77475">
        <ele>388</ele>
        <time>2016-12-11T11:25:34.999Z</time>
      </trkpt>
      <trkpt lat="47.51805" lon="6.7747">
        <ele>388</ele>
        <time>2016-12-11T11:26:25.999Z</time>
      </trkpt>
      <trkpt lat="47.51805" lon="6.7747">
        <ele>388</ele>
        <time>2016-12-11T11:26:26.999Z</time>
      </trkpt>
      <trkpt lat="47.51808" lon="6.77474">
        <ele>388</ele>
        <time>2016-12-11T11:27:48.999Z</time>
      </trkpt>
      <trkpt lat="47.51809" lon="6.77475">
        <ele>388</ele>
        <time>2016-12-11T11:27:49.999Z</time>
      </trkpt>
      <trkpt lat="47.51806" lon="6.7748">
        <ele>388</ele>
        <time>2016-12-11T11:31:13.999Z</time>
      </trkpt>
      <trkpt lat="47.51806" lon="6.77481">
        <ele>388</ele>
        <time>2016-12-11T11:31:14.999Z</time>
      </trkpt>
      <trkpt lat="47.51802" lon="6.77482">
        <ele>388</ele>
        <time>2016-12-11T11:33:43.999Z</time>
      </trkpt>
      <trkpt lat="47.51802" lon="6.77481">
        <ele>388</ele>
        <time>2016-12-11T11:33:44.999Z</time>
      </trkpt>
      <trkpt lat="47.51805" lon="6.77484">
        <ele>388</ele>
        <time>2016-12-11T11:35:31.999Z</time>
      </trkpt>
      <trkpt lat="47.51808" lon="6.77482">
        <ele>388</ele>
        <time>2016-12-11T11:35:32.999Z</time>
      </trkpt>
      <trkpt lat="47.51804" lon="6.77478">
        <ele>388</ele>
        <time>2016-12-11T11:37:38.000Z</time>
      </trkpt>
      <trkpt lat="47.51804" lon="6.77478">
        <ele>388</ele>
        <time>2016-12-11T11:37:39.000Z</time>
      </trkpt>
      <trkpt lat="47.51806" lon="6.77478">
        <ele>388</ele>
        <time>2016-12-11T11:38:30.000Z</time>
      </trkpt>
      <trkpt lat="47.51808" lon="6.77475">
        <ele>388</ele>
        <time>2016-12-11T11:38:31.000Z</time>
      </trkpt>
      <trkpt lat="47.5181" lon="6.77471">
        <ele>388</ele>
        <time>2016-12-11T11:38:32.000Z</time>
      </trkpt>
      <trkpt lat="47.51813" lon="6.77467">
        <ele>388</ele>
        <time>2016-12-11T11:38:33.000Z</time>
      </trkpt>
      <trkpt lat="47.5181" lon="6.77464">
        <ele>388</ele>
        <time>2016-12-11T11:38:52.000Z</time>
      </trkpt>
    </trkseg>
  </trk>
</gpx>